<?xml version='1.0' encoding='UTF-8'?><gpx version="1.1" creator="JPX - https://github.com/jenetics/jpx" xmlns="http://www.topografix.com/GPX/1/1"><trk><trkseg><trkpt lat="43.8392075" lon="12.8917023"><ele>58.0</ele><time>2026-03-22T08:04:09.717Z</time></trkpt><trkpt lat="43.8377601" lon="12.8865754"><ele>80.0</ele><time>2026-03-22T08:04:51.224Z</time></trkpt><trkpt lat="43.8350205" lon="12.887875"><ele>88.0</ele><time>2026-03-22T08:04:56.468Z</time></trkpt><trkpt lat="43.8342971" lon="12.8876518"><ele>60.0</ele><time>2026-03-22T08:05:01.963Z</time></trkpt><trkpt lat="43.8203075" lon="12.8857631"><ele>63.0</ele><time>2026-03-22T08:06:53.887Z</time></trkpt><trkpt lat="43.8202624" lon="12.8827997"><ele>72.0</ele><time>2026-03-22T08:06:59.973Z</time></trkpt><trkpt lat="43.8103178" lon="12.8794003"><ele>89.0</ele><time>2026-03-22T08:08:16.431Z</time></trkpt><trkpt lat="43.8070551" lon="12.8758756"><ele>89.0</ele><time>2026-03-22T08:08:41.131Z</time></trkpt><trkpt lat="43.8070018" lon="12.8756072"><ele>89.0</ele><time>2026-03-22T08:08:42.151Z</time></trkpt><trkpt lat="43.8069826" lon="12.8754701"><ele>89.0</ele><time>2026-03-22T08:08:43.155Z</time></trkpt><trkpt lat="43.8068862" lon="12.8752491"><ele>93.0</ele><time>2026-03-22T08:08:44.15Z</time></trkpt><trkpt lat="43.8066762" lon="12.8750155"><ele>97.0</ele><time>2026-03-22T08:08:45.159Z</time></trkpt><trkpt lat="43.8066646" lon="12.8748547"><ele>101.0</ele><time>2026-03-22T08:08:46.16Z</time></trkpt><trkpt lat="43.8065886" lon="12.8746218"><ele>101.0</ele><time>2026-03-22T08:08:47.165Z</time></trkpt><trkpt lat="43.8064983" lon="12.8743807"><ele>101.0</ele><time>2026-03-22T08:08:48.158Z</time></trkpt><trkpt lat="43.8064472" lon="12.8741943"><ele>101.0</ele><time>2026-03-22T08:08:49.164Z</time></trkpt><trkpt lat="43.8064185" lon="12.8740355"><ele>102.25</ele><time>2026-03-22T08:08:50.164Z</time></trkpt><trkpt lat="43.80634" lon="12.8738808"><ele>103.5</ele><time>2026-03-22T08:08:51.163Z</time></trkpt><trkpt lat="43.8062706" lon="12.8737438"><ele>104.75</ele><time>2026-03-22T08:08:52.163Z</time></trkpt><trkpt lat="43.8062285" lon="12.8735863"><ele>106.0</ele><time>2026-03-22T08:08:53.164Z</time></trkpt><trkpt lat="43.8061741" lon="12.87348"><ele>107.4</ele><time>2026-03-22T08:08:54.168Z</time></trkpt><trkpt lat="43.8060695" lon="12.8734361"><ele>108.8</ele><time>2026-03-22T08:08:55.161Z</time></trkpt><trkpt lat="43.8059843" lon="12.8733769"><ele>110.20000000000002</ele><time>2026-03-22T08:08:56.165Z</time></trkpt><trkpt lat="43.8058874" lon="12.8733147"><ele>111.60000000000001</ele><time>2026-03-22T08:08:57.17Z</time></trkpt><trkpt lat="43.805799" lon="12.8732461"><ele>113.0</ele><time>2026-03-22T08:08:58.162Z</time></trkpt><trkpt lat="43.8056851" lon="12.8731854"><ele>114.5</ele><time>2026-03-22T08:08:59.162Z</time></trkpt><trkpt lat="43.8055388" lon="12.8731046"><ele>116.0</ele><time>2026-03-22T08:09:00.158Z</time></trkpt><trkpt lat="43.8054204" lon="12.8730414"><ele>117.5</ele><time>2026-03-22T08:09:01.154Z</time></trkpt><trkpt lat="43.805309" lon="12.8729732"><ele>119.0</ele><time>2026-03-22T08:09:02.147Z</time></trkpt><trkpt lat="43.805202" lon="12.8728804"><ele>121.0</ele><time>2026-03-22T08:09:03.068Z</time></trkpt><trkpt lat="43.8049682" lon="12.8726499"><ele>123.0</ele><time>2026-03-22T08:09:04.867Z</time></trkpt><trkpt lat="43.8047598" lon="12.8723537"><ele>127.0</ele><time>2026-03-22T08:09:06.655Z</time></trkpt><trkpt lat="43.804647" lon="12.8722134"><ele>131.0</ele><time>2026-03-22T08:09:07.615Z</time></trkpt><trkpt lat="43.8045181" lon="12.8720539"><ele>135.0</ele><time>2026-03-22T08:09:08.618Z</time></trkpt><trkpt lat="43.8043996" lon="12.8718953"><ele>134.5</ele><time>2026-03-22T08:09:09.618Z</time></trkpt><trkpt lat="43.8043106" lon="12.8717779"><ele>134.0</ele><time>2026-03-22T08:09:10.603Z</time></trkpt><trkpt lat="43.8042115" lon="12.8716386"><ele>133.5</ele><time>2026-03-22T08:09:11.61Z</time></trkpt><trkpt lat="43.8041" lon="12.8715355"><ele>133.0</ele><time>2026-03-22T08:09:12.624Z</time></trkpt><trkpt lat="43.8040117" lon="12.8714378"><ele>136.25</ele><time>2026-03-22T08:09:13.625Z</time></trkpt><trkpt lat="43.8039314" lon="12.8713147"><ele>139.5</ele><time>2026-03-22T08:09:14.631Z</time></trkpt><trkpt lat="43.8038446" lon="12.8712046"><ele>142.75</ele><time>2026-03-22T08:09:15.62Z</time></trkpt><trkpt lat="43.8037551" lon="12.8710595"><ele>146.0</ele><time>2026-03-22T08:09:16.615Z</time></trkpt><trkpt lat="43.8036901" lon="12.8708961"><ele>150.0</ele><time>2026-03-22T08:09:17.626Z</time></trkpt><trkpt lat="43.8036386" lon="12.8707342"><ele>154.0</ele><time>2026-03-22T08:09:18.619Z</time></trkpt><trkpt lat="43.8036076" lon="12.8705344"><ele>158.0</ele><time>2026-03-22T08:09:19.622Z</time></trkpt><trkpt lat="43.8035833" lon="12.8703688"><ele>162.0</ele><time>2026-03-22T08:09:20.623Z</time></trkpt><trkpt lat="43.8035349" lon="12.870219"><ele>160.33333333333334</ele><time>2026-03-22T08:09:21.618Z</time></trkpt><trkpt lat="43.8034434" lon="12.8701105"><ele>158.66666666666669</ele><time>2026-03-22T08:09:22.624Z</time></trkpt><trkpt lat="43.8032814" lon="12.8700235"><ele>157.0</ele><time>2026-03-22T08:09:23.625Z</time></trkpt><trkpt lat="43.8030196" lon="12.8699644"><ele>157.0</ele><time>2026-03-22T08:09:24.623Z</time></trkpt><trkpt lat="43.8028301" lon="12.8698846"><ele>157.0</ele><time>2026-03-22T08:09:25.626Z</time></trkpt><trkpt lat="43.8027986" lon="12.8699938"><ele>157.0</ele><time>2026-03-22T08:09:26.63Z</time></trkpt><trkpt lat="43.8026974" lon="12.8702592"><ele>157.8</ele><time>2026-03-22T08:09:27.63Z</time></trkpt><trkpt lat="43.8026308" lon="12.8704168"><ele>158.6</ele><time>2026-03-22T08:09:28.632Z</time></trkpt><trkpt lat="43.8025498" lon="12.8705017"><ele>159.4</ele><time>2026-03-22T08:09:29.629Z</time></trkpt><trkpt lat="43.8024599" lon="12.8705135"><ele>160.20000000000002</ele><time>2026-03-22T08:09:30.624Z</time></trkpt><trkpt lat="43.8023458" lon="12.870456"><ele>161.0</ele><time>2026-03-22T08:09:32.623Z</time></trkpt><trkpt lat="43.8022858" lon="12.8705172"><ele>161.0</ele><time>2026-03-22T08:09:33.642Z</time></trkpt><trkpt lat="43.802155" lon="12.8704561"><ele>161.0</ele><time>2026-03-22T08:09:34.627Z</time></trkpt><trkpt lat="43.8020821" lon="12.8703959"><ele>161.0</ele><time>2026-03-22T08:09:35.623Z</time></trkpt><trkpt lat="43.802038" lon="12.8703229"><ele>161.0</ele><time>2026-03-22T08:09:36.624Z</time></trkpt><trkpt lat="43.8019367" lon="12.870165"><ele>161.0</ele><time>2026-03-22T08:09:37.621Z</time></trkpt><trkpt lat="43.8018457" lon="12.8701121"><ele>165.0</ele><time>2026-03-22T08:09:38.627Z</time></trkpt><trkpt lat="43.8017051" lon="12.8699695"><ele>169.0</ele><time>2026-03-22T08:09:39.629Z</time></trkpt><trkpt lat="43.8015918" lon="12.8698926"><ele>173.0</ele><time>2026-03-22T08:09:40.629Z</time></trkpt><trkpt lat="43.8014836" lon="12.8698024"><ele>177.0</ele><time>2026-03-22T08:09:41.634Z</time></trkpt><trkpt lat="43.8013678" lon="12.8696806"><ele>177.0</ele><time>2026-03-22T08:09:42.638Z</time></trkpt><trkpt lat="43.8012419" lon="12.8696024"><ele>177.0</ele><time>2026-03-22T08:09:43.641Z</time></trkpt><trkpt lat="43.8011189" lon="12.869526"><ele>177.0</ele><time>2026-03-22T08:09:44.639Z</time></trkpt><trkpt lat="43.8010212" lon="12.8694355"><ele>177.0</ele><time>2026-03-22T08:09:45.642Z</time></trkpt><trkpt lat="43.8009361" lon="12.869362"><ele>177.0</ele><time>2026-03-22T08:09:46.64Z</time></trkpt><trkpt lat="43.8008247" lon="12.869279"><ele>177.0</ele><time>2026-03-22T08:09:47.631Z</time></trkpt><trkpt lat="43.8007137" lon="12.869185"><ele>177.0</ele><time>2026-03-22T08:09:48.63Z</time></trkpt><trkpt lat="43.8006351" lon="12.8691084"><ele>177.0</ele><time>2026-03-22T08:09:49.631Z</time></trkpt><trkpt lat="43.8005421" lon="12.869043"><ele>182.25</ele><time>2026-03-22T08:09:50.626Z</time></trkpt><trkpt lat="43.8004359" lon="12.8689987"><ele>187.5</ele><time>2026-03-22T08:09:51.631Z</time></trkpt><trkpt lat="43.800303" lon="12.8689328"><ele>192.75</ele><time>2026-03-22T08:09:52.629Z</time></trkpt><trkpt lat="43.800182" lon="12.8688533"><ele>198.0</ele><time>2026-03-22T08:09:53.625Z</time></trkpt><trkpt lat="43.8000769" lon="12.8687416"><ele>198.66666666666669</ele><time>2026-03-22T08:09:54.628Z</time></trkpt><trkpt lat="43.799946" lon="12.8686395"><ele>199.33333333333334</ele><time>2026-03-22T08:09:55.624Z</time></trkpt><trkpt lat="43.7998451" lon="12.8684834"><ele>200.0</ele><time>2026-03-22T08:09:56.631Z</time></trkpt><trkpt lat="43.7997029" lon="12.8683785"><ele>200.0</ele><time>2026-03-22T08:09:57.619Z</time></trkpt><trkpt lat="43.799468" lon="12.8684795"><ele>200.0</ele><time>2026-03-22T08:09:58.631Z</time></trkpt><trkpt lat="43.7992382" lon="12.8684324"><ele>206.66666666666669</ele><time>2026-03-22T08:09:59.63Z</time></trkpt><trkpt lat="43.7990679" lon="12.8683312"><ele>213.33333333333331</ele><time>2026-03-22T08:10:00.63Z</time></trkpt><trkpt lat="43.7988882" lon="12.8681976"><ele>220.0</ele><time>2026-03-22T08:10:01.622Z</time></trkpt><trkpt lat="43.7987858" lon="12.8681522"><ele>220.0</ele><time>2026-03-22T08:10:02.623Z</time></trkpt><trkpt lat="43.798712" lon="12.8680929"><ele>220.0</ele><time>2026-03-22T08:10:03.624Z</time></trkpt><trkpt lat="43.7985629" lon="12.8680153"><ele>220.0</ele><time>2026-03-22T08:10:04.638Z</time></trkpt><trkpt lat="43.7984581" lon="12.8678841"><ele>220.0</ele><time>2026-03-22T08:10:05.623Z</time></trkpt><trkpt lat="43.7982703" lon="12.8678475"><ele>221.5</ele><time>2026-03-22T08:10:06.618Z</time></trkpt><trkpt lat="43.7982431" lon="12.8677037"><ele>223.0</ele><time>2026-03-22T08:10:08.632Z</time></trkpt><trkpt lat="43.7983178" lon="12.8675358"><ele>224.5</ele><time>2026-03-22T08:10:09.631Z</time></trkpt><trkpt lat="43.7983341" lon="12.8672896"><ele>226.0</ele><time>2026-03-22T08:10:10.623Z</time></trkpt><trkpt lat="43.7983241" lon="12.8670855"><ele>226.0</ele><time>2026-03-22T08:10:11.623Z</time></trkpt><trkpt lat="43.7981662" lon="12.8669353"><ele>226.0</ele><time>2026-03-22T08:10:12.63Z</time></trkpt><trkpt lat="43.7979863" lon="12.8667672"><ele>226.0</ele><time>2026-03-22T08:10:13.631Z</time></trkpt><trkpt lat="43.7978329" lon="12.8665933"><ele>227.66666666666666</ele><time>2026-03-22T08:10:14.618Z</time></trkpt><trkpt lat="43.7976804" lon="12.8664085"><ele>229.33333333333331</ele><time>2026-03-22T08:10:15.625Z</time></trkpt><trkpt lat="43.7975905" lon="12.8662607"><ele>231.0</ele><time>2026-03-22T08:10:16.618Z</time></trkpt><trkpt lat="43.7975152" lon="12.8661012"><ele>231.0</ele><time>2026-03-22T08:10:17.625Z</time></trkpt><trkpt lat="43.7973917" lon="12.8659694"><ele>231.0</ele><time>2026-03-22T08:10:18.627Z</time></trkpt><trkpt lat="43.7973177" lon="12.8658097"><ele>231.0</ele><time>2026-03-22T08:10:19.624Z</time></trkpt><trkpt lat="43.7972799" lon="12.8656746"><ele>231.0</ele><time>2026-03-22T08:10:20.624Z</time></trkpt><trkpt lat="43.7972266" lon="12.8655709"><ele>234.0</ele><time>2026-03-22T08:10:21.632Z</time></trkpt><trkpt lat="43.7971651" lon="12.8654608"><ele>237.00000000000003</ele><time>2026-03-22T08:10:22.634Z</time></trkpt><trkpt lat="43.7971177" lon="12.8653477"><ele>240.00000000000003</ele><time>2026-03-22T08:10:24.626Z</time></trkpt><trkpt lat="43.7970621" lon="12.8652244"><ele>243.0</ele><time>2026-03-22T08:10:26.628Z</time></trkpt><trkpt lat="43.7970594" lon="12.8651182"><ele>246.0</ele><time>2026-03-22T08:10:27.627Z</time></trkpt><trkpt lat="43.7970433" lon="12.8650054"><ele>246.0</ele><time>2026-03-22T08:10:29.624Z</time></trkpt><trkpt lat="43.7969931" lon="12.864939"><ele>246.0</ele><time>2026-03-22T08:10:30.626Z</time></trkpt><trkpt lat="43.7969268" lon="12.8648449"><ele>246.0</ele><time>2026-03-22T08:10:31.623Z</time></trkpt><trkpt lat="43.7968712" lon="12.8647716"><ele>246.0</ele><time>2026-03-22T08:10:32.623Z</time></trkpt><trkpt lat="43.796787" lon="12.8646706"><ele>246.0</ele><time>2026-03-22T08:10:33.626Z</time></trkpt><trkpt lat="43.796728" lon="12.8645959"><ele>246.0</ele><time>2026-03-22T08:10:34.614Z</time></trkpt><trkpt lat="43.7966289" lon="12.8644666"><ele>248.0</ele><time>2026-03-22T08:10:35.63Z</time></trkpt><trkpt lat="43.7965298" lon="12.8643361"><ele>250.0</ele><time>2026-03-22T08:10:36.61Z</time></trkpt><trkpt lat="43.7964329" lon="12.8642079"><ele>252.0</ele><time>2026-03-22T08:10:37.603Z</time></trkpt><trkpt lat="43.7963331" lon="12.8641031"><ele>254.0</ele><time>2026-03-22T08:10:38.61Z</time></trkpt><trkpt lat="43.7962661" lon="12.8639617"><ele>254.0</ele><time>2026-03-22T08:10:39.618Z</time></trkpt><trkpt lat="43.796164" lon="12.8637792"><ele>254.0</ele><time>2026-03-22T08:10:40.614Z</time></trkpt><trkpt lat="43.7962272" lon="12.8635239"><ele>254.0</ele><time>2026-03-22T08:10:41.621Z</time></trkpt><trkpt lat="43.79618" lon="12.8633327"><ele>253.00000000000003</ele><time>2026-03-22T08:10:42.62Z</time></trkpt><trkpt lat="43.7961422" lon="12.8632119"><ele>252.0</ele><time>2026-03-22T08:10:43.63Z</time></trkpt><trkpt lat="43.7960476" lon="12.8631491"><ele>251.0</ele><time>2026-03-22T08:10:44.626Z</time></trkpt><trkpt lat="43.7959739" lon="12.8631334"><ele>250.0</ele><time>2026-03-22T08:10:45.629Z</time></trkpt><trkpt lat="43.7959097" lon="12.8631574"><ele>249.00000000000003</ele><time>2026-03-22T08:10:46.623Z</time></trkpt><trkpt lat="43.7958384" lon="12.8632152"><ele>248.0</ele><time>2026-03-22T08:10:47.63Z</time></trkpt><trkpt lat="43.7957688" lon="12.8633514"><ele>253.25</ele><time>2026-03-22T08:10:48.63Z</time></trkpt><trkpt lat="43.7956912" lon="12.8634781"><ele>258.5</ele><time>2026-03-22T08:10:49.628Z</time></trkpt><trkpt lat="43.7956336" lon="12.8636208"><ele>263.75</ele><time>2026-03-22T08:10:50.629Z</time></trkpt><trkpt lat="43.7956539" lon="12.8638531"><ele>269.0</ele><time>2026-03-22T08:10:51.631Z</time></trkpt><trkpt lat="43.7956847" lon="12.8640472"><ele>269.0</ele><time>2026-03-22T08:10:52.629Z</time></trkpt><trkpt lat="43.7957076" lon="12.8642252"><ele>269.0</ele><time>2026-03-22T08:10:53.633Z</time></trkpt><trkpt lat="43.7957148" lon="12.8643776"><ele>269.0</ele><time>2026-03-22T08:10:54.633Z</time></trkpt><trkpt lat="43.7956706" lon="12.864505"><ele>269.0</ele><time>2026-03-22T08:10:55.643Z</time></trkpt><trkpt lat="43.7955878" lon="12.864606"><ele>267.6666666666667</ele><time>2026-03-22T08:10:56.631Z</time></trkpt><trkpt lat="43.7955275" lon="12.8646925"><ele>266.33333333333337</ele><time>2026-03-22T08:10:57.636Z</time></trkpt><trkpt lat="43.7954548" lon="12.8647563"><ele>265.0</ele><time>2026-03-22T08:10:58.634Z</time></trkpt><trkpt lat="43.7953769" lon="12.8647918"><ele>263.6666666666667</ele><time>2026-03-22T08:10:59.634Z</time></trkpt><trkpt lat="43.7952974" lon="12.8648005"><ele>262.3333333333333</ele><time>2026-03-22T08:11:00.626Z</time></trkpt><trkpt lat="43.7951969" lon="12.8647734"><ele>261.0</ele><time>2026-03-22T08:11:01.639Z</time></trkpt><trkpt lat="43.7951012" lon="12.8647309"><ele>261.0</ele><time>2026-03-22T08:11:02.63Z</time></trkpt><trkpt lat="43.7950286" lon="12.8647072"><ele>261.0</ele><time>2026-03-22T08:11:03.623Z</time></trkpt><trkpt lat="43.7949415" lon="12.8646643"><ele>261.0</ele><time>2026-03-22T08:11:04.618Z</time></trkpt><trkpt lat="43.7948575" lon="12.8645957"><ele>261.0</ele><time>2026-03-22T08:11:05.627Z</time></trkpt><trkpt lat="43.7948089" lon="12.8645366"><ele>261.0</ele><time>2026-03-22T08:11:06.637Z</time></trkpt><trkpt lat="43.7947493" lon="12.8644867"><ele>261.0</ele><time>2026-03-22T08:11:07.625Z</time></trkpt><trkpt lat="43.7947105" lon="12.8644163"><ele>261.0</ele><time>2026-03-22T08:11:08.624Z</time></trkpt><trkpt lat="43.7947005" lon="12.8643271"><ele>261.0</ele><time>2026-03-22T08:11:09.616Z</time></trkpt><trkpt lat="43.7946609" lon="12.8642075"><ele>261.0</ele><time>2026-03-22T08:11:10.618Z</time></trkpt><trkpt lat="43.7945689" lon="12.863977"><ele>261.0</ele><time>2026-03-22T08:11:12.62Z</time></trkpt><trkpt lat="43.7946016" lon="12.8638758"><ele>261.0</ele><time>2026-03-22T08:11:13.624Z</time></trkpt><trkpt lat="43.7946775" lon="12.8637235"><ele>269.0</ele><time>2026-03-22T08:11:14.621Z</time></trkpt><trkpt lat="43.7946926" lon="12.8635085"><ele>277.0</ele><time>2026-03-22T08:11:15.623Z</time></trkpt><trkpt lat="43.7947274" lon="12.8633251"><ele>285.0</ele><time>2026-03-22T08:11:16.625Z</time></trkpt><trkpt lat="43.794805" lon="12.8631194"><ele>287.4</ele><time>2026-03-22T08:11:17.623Z</time></trkpt><trkpt lat="43.7948274" lon="12.8629179"><ele>289.8</ele><time>2026-03-22T08:11:18.626Z</time></trkpt><trkpt lat="43.7948417" lon="12.8627632"><ele>292.2</ele><time>2026-03-22T08:11:19.626Z</time></trkpt><trkpt lat="43.794902" lon="12.8626707"><ele>294.6</ele><time>2026-03-22T08:11:20.624Z</time></trkpt><trkpt lat="43.7949573" lon="12.8625889"><ele>297.0</ele><time>2026-03-22T08:11:21.616Z</time></trkpt><trkpt lat="43.7949487" lon="12.8624271"><ele>297.0</ele><time>2026-03-22T08:11:23.612Z</time></trkpt><trkpt lat="43.7949866" lon="12.8623172"><ele>297.0</ele><time>2026-03-22T08:11:25.615Z</time></trkpt><trkpt lat="43.7948951" lon="12.8623976"><ele>297.0</ele><time>2026-03-22T08:11:27.622Z</time></trkpt><trkpt lat="43.7948092" lon="12.8624712"><ele>297.0</ele><time>2026-03-22T08:11:28.618Z</time></trkpt><trkpt lat="43.7947032" lon="12.8625593"><ele>297.0</ele><time>2026-03-22T08:11:29.625Z</time></trkpt><trkpt lat="43.794607" lon="12.8625923"><ele>297.0</ele><time>2026-03-22T08:11:30.625Z</time></trkpt><trkpt lat="43.7945063" lon="12.8625811"><ele>297.0</ele><time>2026-03-22T08:11:31.619Z</time></trkpt><trkpt lat="43.7944038" lon="12.8625654"><ele>297.0</ele><time>2026-03-22T08:11:32.619Z</time></trkpt><trkpt lat="43.7942961" lon="12.8625555"><ele>297.0</ele><time>2026-03-22T08:11:33.621Z</time></trkpt><trkpt lat="43.7941857" lon="12.862542"><ele>297.0</ele><time>2026-03-22T08:11:34.623Z</time></trkpt><trkpt lat="43.794064" lon="12.8625189"><ele>302.6666666666667</ele><time>2026-03-22T08:11:35.622Z</time></trkpt><trkpt lat="43.7939301" lon="12.8625132"><ele>308.33333333333337</ele><time>2026-03-22T08:11:36.624Z</time></trkpt><trkpt lat="43.7937561" lon="12.8625972"><ele>314.0</ele><time>2026-03-22T08:11:37.643Z</time></trkpt><trkpt lat="43.7935955" lon="12.8626737"><ele>312.75</ele><time>2026-03-22T08:11:38.629Z</time></trkpt><trkpt lat="43.7934588" lon="12.8627325"><ele>311.5</ele><time>2026-03-22T08:11:39.618Z</time></trkpt><trkpt lat="43.7933478" lon="12.8626842"><ele>310.25</ele><time>2026-03-22T08:11:40.62Z</time></trkpt><trkpt lat="43.7932372" lon="12.8626783"><ele>309.0</ele><time>2026-03-22T08:11:41.621Z</time></trkpt><trkpt lat="43.7931196" lon="12.8626709"><ele>311.8333333333333</ele><time>2026-03-22T08:11:42.625Z</time></trkpt><trkpt lat="43.7930367" lon="12.8625938"><ele>314.6666666666667</ele><time>2026-03-22T08:11:43.629Z</time></trkpt><trkpt lat="43.7929796" lon="12.8625082"><ele>317.5</ele><time>2026-03-22T08:11:44.62Z</time></trkpt><trkpt lat="43.7929375" lon="12.8624164"><ele>320.33333333333337</ele><time>2026-03-22T08:11:45.618Z</time></trkpt><trkpt lat="43.7928955" lon="12.8623242"><ele>323.1666666666667</ele><time>2026-03-22T08:11:46.626Z</time></trkpt><trkpt lat="43.7929217" lon="12.8622131"><ele>326.0</ele><time>2026-03-22T08:11:47.618Z</time></trkpt><trkpt lat="43.792902" lon="12.862095"><ele>326.0</ele><time>2026-03-22T08:11:48.627Z</time></trkpt><trkpt lat="43.7928176" lon="12.8619776"><ele>326.0</ele><time>2026-03-22T08:11:49.628Z</time></trkpt><trkpt lat="43.7928001" lon="12.861862"><ele>326.0</ele><time>2026-03-22T08:11:50.633Z</time></trkpt><trkpt lat="43.7927372" lon="12.8617326"><ele>326.0</ele><time>2026-03-22T08:11:51.629Z</time></trkpt><trkpt lat="43.7926972" lon="12.8616285"><ele>326.0</ele><time>2026-03-22T08:11:52.634Z</time></trkpt><trkpt lat="43.7926179" lon="12.8615098"><ele>329.25</ele><time>2026-03-22T08:11:53.64Z</time></trkpt><trkpt lat="43.7925127" lon="12.8613981"><ele>332.5</ele><time>2026-03-22T08:11:54.635Z</time></trkpt><trkpt lat="43.7923831" lon="12.8612963"><ele>335.75</ele><time>2026-03-22T08:11:55.639Z</time></trkpt><trkpt lat="43.7922443" lon="12.8612047"><ele>339.0</ele><time>2026-03-22T08:11:56.636Z</time></trkpt><trkpt lat="43.7920975" lon="12.8611334"><ele>339.0</ele><time>2026-03-22T08:11:57.631Z</time></trkpt><trkpt lat="43.79195" lon="12.8610611"><ele>339.0</ele><time>2026-03-22T08:11:58.636Z</time></trkpt><trkpt lat="43.7917586" lon="12.8609797"><ele>339.0</ele><time>2026-03-22T08:11:59.632Z</time></trkpt><trkpt lat="43.7915968" lon="12.8609131"><ele>340.5</ele><time>2026-03-22T08:12:00.634Z</time></trkpt><trkpt lat="43.7914552" lon="12.8608291"><ele>342.0</ele><time>2026-03-22T08:12:01.632Z</time></trkpt><trkpt lat="43.7913309" lon="12.8607423"><ele>343.5</ele><time>2026-03-22T08:12:02.631Z</time></trkpt><trkpt lat="43.791214" lon="12.8606495"><ele>345.0</ele><time>2026-03-22T08:12:03.629Z</time></trkpt><trkpt lat="43.7910798" lon="12.860537"><ele>356.6666666666667</ele><time>2026-03-22T08:12:04.623Z</time></trkpt><trkpt lat="43.7909351" lon="12.860432"><ele>368.33333333333337</ele><time>2026-03-22T08:12:05.622Z</time></trkpt><trkpt lat="43.7908098" lon="12.8602855"><ele>380.0</ele><time>2026-03-22T08:12:06.626Z</time></trkpt><trkpt lat="43.7906633" lon="12.8601852"><ele>374.0</ele><time>2026-03-22T08:12:07.623Z</time></trkpt><trkpt lat="43.7905235" lon="12.8600634"><ele>368.0</ele><time>2026-03-22T08:12:08.646Z</time></trkpt><trkpt lat="43.7903838" lon="12.8599471"><ele>362.0</ele><time>2026-03-22T08:12:09.606Z</time></trkpt><trkpt lat="43.7901974" lon="12.8595936"><ele>372.5</ele><time>2026-03-22T08:12:11.603Z</time></trkpt><trkpt lat="43.7898321" lon="12.8596228"><ele>383.0</ele><time>2026-03-22T08:12:12.618Z</time></trkpt><trkpt lat="43.7896715" lon="12.8595254"><ele>381.5</ele><time>2026-03-22T08:12:13.622Z</time></trkpt><trkpt lat="43.7892964" lon="12.8594825"><ele>380.0</ele><time>2026-03-22T08:12:14.621Z</time></trkpt><trkpt lat="43.7889225" lon="12.8594239"><ele>380.0</ele><time>2026-03-22T08:12:15.621Z</time></trkpt><trkpt lat="43.7885393" lon="12.8594168"><ele>380.0</ele><time>2026-03-22T08:12:16.613Z</time></trkpt><trkpt lat="43.788352" lon="12.8593628"><ele>372.5</ele><time>2026-03-22T08:12:17.602Z</time></trkpt><trkpt lat="43.7883873" lon="12.8591414"><ele>365.0</ele><time>2026-03-22T08:12:18.6Z</time></trkpt><trkpt lat="43.7890314" lon="12.8589772"><ele>363.6666666666667</ele><time>2026-03-22T08:12:19.614Z</time></trkpt><trkpt lat="43.7887921" lon="12.8589742"><ele>362.3333333333333</ele><time>2026-03-22T08:12:20.621Z</time></trkpt><trkpt lat="43.7886395" lon="12.8589805"><ele>361.0</ele><time>2026-03-22T08:12:21.617Z</time></trkpt><trkpt lat="43.7885232" lon="12.8589956"><ele>361.0</ele><time>2026-03-22T08:12:22.617Z</time></trkpt><trkpt lat="43.7884375" lon="12.858935"><ele>361.0</ele><time>2026-03-22T08:12:23.617Z</time></trkpt><trkpt lat="43.7884555" lon="12.859419"><ele>361.0</ele><time>2026-03-22T08:12:24.635Z</time></trkpt><trkpt lat="43.788783" lon="12.8592154"><ele>361.0</ele><time>2026-03-22T08:12:25.622Z</time></trkpt><trkpt lat="43.7889095" lon="12.8590716"><ele>361.0</ele><time>2026-03-22T08:12:26.625Z</time></trkpt><trkpt lat="43.7887734" lon="12.8588123"><ele>361.0</ele><time>2026-03-22T08:12:27.62Z</time></trkpt><trkpt lat="43.7886733" lon="12.8585538"><ele>359.3333333333333</ele><time>2026-03-22T08:12:28.623Z</time></trkpt><trkpt lat="43.7885278" lon="12.8583198"><ele>357.6666666666667</ele><time>2026-03-22T08:12:29.624Z</time></trkpt><trkpt lat="43.7883796" lon="12.8581589"><ele>356.0</ele><time>2026-03-22T08:12:30.618Z</time></trkpt><trkpt lat="43.7882487" lon="12.8579261"><ele>356.0</ele><time>2026-03-22T08:12:31.617Z</time></trkpt><trkpt lat="43.7882169" lon="12.8577234"><ele>356.0</ele><time>2026-03-22T08:12:32.621Z</time></trkpt><trkpt lat="43.7882033" lon="12.8575708"><ele>356.0</ele><time>2026-03-22T08:12:33.617Z</time></trkpt><trkpt lat="43.7880678" lon="12.8574024"><ele>356.0</ele><time>2026-03-22T08:12:34.617Z</time></trkpt><trkpt lat="43.7879822" lon="12.8573124"><ele>358.0</ele><time>2026-03-22T08:12:35.617Z</time></trkpt><trkpt lat="43.7878652" lon="12.8571716"><ele>360.0</ele><time>2026-03-22T08:12:36.615Z</time></trkpt><trkpt lat="43.7877537" lon="12.8570745"><ele>362.0</ele><time>2026-03-22T08:12:37.616Z</time></trkpt><trkpt lat="43.7876038" lon="12.8568865"><ele>362.0</ele><time>2026-03-22T08:12:38.623Z</time></trkpt><trkpt lat="43.7873842" lon="12.8570755"><ele>362.0</ele><time>2026-03-22T08:12:39.61Z</time></trkpt><trkpt lat="43.7871659" lon="12.8569044"><ele>362.0</ele><time>2026-03-22T08:12:40.612Z</time></trkpt><trkpt lat="43.7870777" lon="12.8567929"><ele>362.0</ele><time>2026-03-22T08:12:41.61Z</time></trkpt><trkpt lat="43.7870099" lon="12.856815"><ele>362.0</ele><time>2026-03-22T08:12:42.615Z</time></trkpt><trkpt lat="43.7869902" lon="12.8569632"><ele>362.0</ele><time>2026-03-22T08:12:43.627Z</time></trkpt><trkpt lat="43.7868961" lon="12.8569699"><ele>362.0</ele><time>2026-03-22T08:12:44.624Z</time></trkpt><trkpt lat="43.7866558" lon="12.856941"><ele>366.75</ele><time>2026-03-22T08:12:45.621Z</time></trkpt><trkpt lat="43.7864987" lon="12.856887"><ele>371.5</ele><time>2026-03-22T08:12:46.621Z</time></trkpt><trkpt lat="43.7863886" lon="12.8567822"><ele>376.25</ele><time>2026-03-22T08:12:47.619Z</time></trkpt><trkpt lat="43.7862715" lon="12.8566554"><ele>381.0</ele><time>2026-03-22T08:12:48.608Z</time></trkpt><trkpt lat="43.7861545" lon="12.8565286"><ele>381.0</ele><time>2026-03-22T08:12:49.599Z</time></trkpt><trkpt lat="43.7861484" lon="12.8571923"><ele>381.0</ele><time>2026-03-22T08:12:51.62Z</time></trkpt><trkpt lat="43.7867609" lon="12.857577"><ele>381.0</ele><time>2026-03-22T08:12:52.624Z</time></trkpt><trkpt lat="43.7867223" lon="12.8574968"><ele>381.0</ele><time>2026-03-22T08:12:54.63Z</time></trkpt><trkpt lat="43.7866603" lon="12.8572909"><ele>381.0</ele><time>2026-03-22T08:12:55.623Z</time></trkpt><trkpt lat="43.7865223" lon="12.8570392"><ele>381.0</ele><time>2026-03-22T08:12:56.62Z</time></trkpt><trkpt lat="43.7863695" lon="12.8568904"><ele>381.0</ele><time>2026-03-22T08:12:57.617Z</time></trkpt><trkpt lat="43.786204" lon="12.8567791"><ele>381.0</ele><time>2026-03-22T08:12:58.614Z</time></trkpt><trkpt lat="43.7861062" lon="12.8567241"><ele>387.33333333333337</ele><time>2026-03-22T08:12:59.615Z</time></trkpt><trkpt lat="43.7859152" lon="12.8565371"><ele>393.6666666666667</ele><time>2026-03-22T08:13:01.629Z</time></trkpt><trkpt lat="43.785729" lon="12.8564496"><ele>400.0</ele><time>2026-03-22T08:13:02.628Z</time></trkpt><trkpt lat="43.7855532" lon="12.8563971"><ele>400.0</ele><time>2026-03-22T08:13:03.628Z</time></trkpt><trkpt lat="43.7853839" lon="12.8563992"><ele>400.0</ele><time>2026-03-22T08:13:04.624Z</time></trkpt><trkpt lat="43.7851661" lon="12.8563908"><ele>400.0</ele><time>2026-03-22T08:13:05.629Z</time></trkpt><trkpt lat="43.7850202" lon="12.8564652"><ele>397.75</ele><time>2026-03-22T08:13:06.626Z</time></trkpt><trkpt lat="43.7849036" lon="12.856487"><ele>395.5</ele><time>2026-03-22T08:13:07.627Z</time></trkpt><trkpt lat="43.7848241" lon="12.8565243"><ele>393.25</ele><time>2026-03-22T08:13:08.624Z</time></trkpt><trkpt lat="43.7846792" lon="12.8564219"><ele>391.0</ele><time>2026-03-22T08:13:09.64Z</time></trkpt><trkpt lat="43.7844299" lon="12.8562606"><ele>391.0</ele><time>2026-03-22T08:13:10.621Z</time></trkpt><trkpt lat="43.7842491" lon="12.8561428"><ele>391.0</ele><time>2026-03-22T08:13:11.619Z</time></trkpt><trkpt lat="43.7840036" lon="12.8559619"><ele>391.0</ele><time>2026-03-22T08:13:12.604Z</time></trkpt><trkpt lat="43.783844" lon="12.8559893"><ele>391.0</ele><time>2026-03-22T08:13:13.614Z</time></trkpt><trkpt lat="43.7840911" lon="12.8561933"><ele>391.0</ele><time>2026-03-22T08:13:14.623Z</time></trkpt><trkpt lat="43.7843451" lon="12.8563742"><ele>391.0</ele><time>2026-03-22T08:13:15.619Z</time></trkpt><trkpt lat="43.784413" lon="12.8563399"><ele>391.0</ele><time>2026-03-22T08:13:16.628Z</time></trkpt><trkpt lat="43.7842569" lon="12.8561216"><ele>391.0</ele><time>2026-03-22T08:13:17.624Z</time></trkpt><trkpt lat="43.7839392" lon="12.855836"><ele>393.5</ele><time>2026-03-22T08:13:18.622Z</time></trkpt><trkpt lat="43.7836721" lon="12.8556143"><ele>396.0</ele><time>2026-03-22T08:13:19.62Z</time></trkpt><trkpt lat="43.7834199" lon="12.8554274"><ele>396.0</ele><time>2026-03-22T08:13:20.628Z</time></trkpt><trkpt lat="43.7830993" lon="12.8551732"><ele>396.0</ele><time>2026-03-22T08:13:21.616Z</time></trkpt><trkpt lat="43.7827642" lon="12.8550054"><ele>396.5</ele><time>2026-03-22T08:13:22.615Z</time></trkpt><trkpt lat="43.7824501" lon="12.8548577"><ele>397.0</ele><time>2026-03-22T08:13:23.615Z</time></trkpt><trkpt lat="43.7823218" lon="12.8548353"><ele>397.0</ele><time>2026-03-22T08:13:24.615Z</time></trkpt><trkpt lat="43.782565" lon="12.8551829"><ele>397.0</ele><time>2026-03-22T08:13:26.613Z</time></trkpt><trkpt lat="43.7824201" lon="12.8550935"><ele>397.0</ele><time>2026-03-22T08:13:27.602Z</time></trkpt><trkpt lat="43.7822744" lon="12.85503"><ele>397.0</ele><time>2026-03-22T08:13:28.605Z</time></trkpt><trkpt lat="43.7820842" lon="12.8549849"><ele>397.0</ele><time>2026-03-22T08:13:29.615Z</time></trkpt><trkpt lat="43.7818879" lon="12.8550264"><ele>400.5</ele><time>2026-03-22T08:13:30.623Z</time></trkpt><trkpt lat="43.7816585" lon="12.855081"><ele>404.0</ele><time>2026-03-22T08:13:31.62Z</time></trkpt><trkpt lat="43.7813928" lon="12.8550875"><ele>396.0</ele><time>2026-03-22T08:13:32.605Z</time></trkpt><trkpt lat="43.7811761" lon="12.8551348"><ele>388.0</ele><time>2026-03-22T08:13:33.616Z</time></trkpt><trkpt lat="43.7809802" lon="12.8551819"><ele>380.0</ele><time>2026-03-22T08:13:34.606Z</time></trkpt><trkpt lat="43.7808486" lon="12.8553305"><ele>380.0</ele><time>2026-03-22T08:13:35.608Z</time></trkpt><trkpt lat="43.7807107" lon="12.8553745"><ele>380.0</ele><time>2026-03-22T08:13:36.617Z</time></trkpt><trkpt lat="43.7810231" lon="12.8557107"><ele>366.0</ele><time>2026-03-22T08:13:37.619Z</time></trkpt><trkpt lat="43.7811586" lon="12.8560772"><ele>352.0</ele><time>2026-03-22T08:13:38.623Z</time></trkpt><trkpt lat="43.7818662" lon="12.8568432"><ele>342.0</ele><time>2026-03-22T08:13:39.628Z</time></trkpt><trkpt lat="43.7823599" lon="12.8573717"><ele>342.0</ele><time>2026-03-22T08:13:40.635Z</time></trkpt><trkpt lat="43.7822757" lon="12.857471"><ele>342.0</ele><time>2026-03-22T08:13:41.617Z</time></trkpt><trkpt lat="43.7822524" lon="12.8575636"><ele>342.0</ele><time>2026-03-22T08:13:42.622Z</time></trkpt><trkpt lat="43.7824084" lon="12.8577826"><ele>342.0</ele><time>2026-03-22T08:13:43.624Z</time></trkpt><trkpt lat="43.782188" lon="12.8577986"><ele>342.0</ele><time>2026-03-22T08:13:45.614Z</time></trkpt><trkpt lat="43.7818561" lon="12.8576749"><ele>342.0</ele><time>2026-03-22T08:13:46.617Z</time></trkpt><trkpt lat="43.7818341" lon="12.8578743"><ele>342.0</ele><time>2026-03-22T08:13:47.619Z</time></trkpt><trkpt lat="43.7817353" lon="12.8580591"><ele>342.0</ele><time>2026-03-22T08:13:48.617Z</time></trkpt><trkpt lat="43.7817844" lon="12.8581499"><ele>342.0</ele><time>2026-03-22T08:13:49.619Z</time></trkpt><trkpt lat="43.7818681" lon="12.8583421"><ele>342.0</ele><time>2026-03-22T08:13:50.62Z</time></trkpt><trkpt lat="43.7817409" lon="12.8584395"><ele>336.0</ele><time>2026-03-22T08:13:51.62Z</time></trkpt><trkpt lat="43.7816241" lon="12.8584851"><ele>330.0</ele><time>2026-03-22T08:13:52.619Z</time></trkpt><trkpt lat="43.7815137" lon="12.8585512"><ele>324.0</ele><time>2026-03-22T08:13:53.625Z</time></trkpt><trkpt lat="43.7813916" lon="12.8586203"><ele>318.0</ele><time>2026-03-22T08:13:54.619Z</time></trkpt><trkpt lat="43.7813593" lon="12.8587083"><ele>312.0</ele><time>2026-03-22T08:13:55.626Z</time></trkpt><trkpt lat="43.7814097" lon="12.8587714"><ele>312.0</ele><time>2026-03-22T08:13:56.621Z</time></trkpt><trkpt lat="43.7813722" lon="12.8588482"><ele>312.0</ele><time>2026-03-22T08:13:57.623Z</time></trkpt><trkpt lat="43.7813399" lon="12.8589446"><ele>312.0</ele><time>2026-03-22T08:13:58.624Z</time></trkpt><trkpt lat="43.7814169" lon="12.8590488"><ele>312.0</ele><time>2026-03-22T08:13:59.628Z</time></trkpt><trkpt lat="43.781445" lon="12.8591596"><ele>312.0</ele><time>2026-03-22T08:14:00.629Z</time></trkpt><trkpt lat="43.7814288" lon="12.8592664"><ele>312.0</ele><time>2026-03-22T08:14:01.624Z</time></trkpt><trkpt lat="43.7813377" lon="12.8593913"><ele>312.0</ele><time>2026-03-22T08:14:02.623Z</time></trkpt><trkpt lat="43.7812511" lon="12.859462"><ele>312.0</ele><time>2026-03-22T08:14:03.628Z</time></trkpt><trkpt lat="43.7811687" lon="12.8595796"><ele>312.0</ele><time>2026-03-22T08:14:04.624Z</time></trkpt><trkpt lat="43.7810898" lon="12.8596758"><ele>312.0</ele><time>2026-03-22T08:14:05.739Z</time></trkpt><trkpt lat="43.7810047" lon="12.8598745"><ele>311.8</ele><time>2026-03-22T08:14:07.625Z</time></trkpt><trkpt lat="43.7810055" lon="12.8600205"><ele>311.6</ele><time>2026-03-22T08:14:08.625Z</time></trkpt><trkpt lat="43.7810431" lon="12.8602298"><ele>311.40000000000003</ele><time>2026-03-22T08:14:09.632Z</time></trkpt><trkpt lat="43.7810607" lon="12.8603707"><ele>311.2</ele><time>2026-03-22T08:14:10.629Z</time></trkpt><trkpt lat="43.7810871" lon="12.8604601"><ele>311.0</ele><time>2026-03-22T08:14:11.647Z</time></trkpt><trkpt lat="43.7811526" lon="12.860572"><ele>311.0</ele><time>2026-03-22T08:14:12.632Z</time></trkpt><trkpt lat="43.7811917" lon="12.8607174"><ele>311.0</ele><time>2026-03-22T08:14:13.635Z</time></trkpt><trkpt lat="43.7812198" lon="12.8608435"><ele>311.0</ele><time>2026-03-22T08:14:14.632Z</time></trkpt><trkpt lat="43.7812859" lon="12.8610053"><ele>311.0</ele><time>2026-03-22T08:14:15.633Z</time></trkpt><trkpt lat="43.7812854" lon="12.8611542"><ele>311.0</ele><time>2026-03-22T08:14:16.631Z</time></trkpt><trkpt lat="43.7812917" lon="12.861253"><ele>308.40000000000003</ele><time>2026-03-22T08:14:17.62Z</time></trkpt><trkpt lat="43.7812827" lon="12.8613842"><ele>305.8</ele><time>2026-03-22T08:14:18.625Z</time></trkpt><trkpt lat="43.7812847" lon="12.8615041"><ele>303.20000000000005</ele><time>2026-03-22T08:14:19.624Z</time></trkpt><trkpt lat="43.7813474" lon="12.8616236"><ele>300.6</ele><time>2026-03-22T08:14:20.623Z</time></trkpt><trkpt lat="43.7814248" lon="12.8617416"><ele>298.0</ele><time>2026-03-22T08:14:21.622Z</time></trkpt><trkpt lat="43.7815184" lon="12.8618689"><ele>294.75</ele><time>2026-03-22T08:14:22.623Z</time></trkpt><trkpt lat="43.7816279" lon="12.8619784"><ele>291.5</ele><time>2026-03-22T08:14:23.623Z</time></trkpt><trkpt lat="43.7817479" lon="12.8620909"><ele>288.25</ele><time>2026-03-22T08:14:24.626Z</time></trkpt><trkpt lat="43.7818997" lon="12.8621815"><ele>285.0</ele><time>2026-03-22T08:14:25.63Z</time></trkpt><trkpt lat="43.7820183" lon="12.8622812"><ele>285.0</ele><time>2026-03-22T08:14:26.624Z</time></trkpt><trkpt lat="43.7821541" lon="12.8623432"><ele>285.0</ele><time>2026-03-22T08:14:27.624Z</time></trkpt><trkpt lat="43.7822847" lon="12.8623883"><ele>285.0</ele><time>2026-03-22T08:14:28.621Z</time></trkpt><trkpt lat="43.7823889" lon="12.8624594"><ele>285.0</ele><time>2026-03-22T08:14:29.619Z</time></trkpt><trkpt lat="43.7824827" lon="12.8625145"><ele>285.0</ele><time>2026-03-22T08:14:30.619Z</time></trkpt><trkpt lat="43.7825547" lon="12.862546"><ele>285.0</ele><time>2026-03-22T08:14:31.626Z</time></trkpt><trkpt lat="43.7826179" lon="12.8625423"><ele>285.0</ele><time>2026-03-22T08:14:33.625Z</time></trkpt><trkpt lat="43.7824521" lon="12.8625383"><ele>285.0</ele><time>2026-03-22T08:14:35.635Z</time></trkpt><trkpt lat="43.7822842" lon="12.8625925"><ele>278.6666666666667</ele><time>2026-03-22T08:14:36.635Z</time></trkpt><trkpt lat="43.7820984" lon="12.8626302"><ele>272.33333333333337</ele><time>2026-03-22T08:14:37.639Z</time></trkpt><trkpt lat="43.7819079" lon="12.8626684"><ele>266.0</ele><time>2026-03-22T08:14:38.633Z</time></trkpt><trkpt lat="43.7817423" lon="12.8627162"><ele>266.0</ele><time>2026-03-22T08:14:39.636Z</time></trkpt><trkpt lat="43.7815746" lon="12.8627541"><ele>266.0</ele><time>2026-03-22T08:14:40.631Z</time></trkpt><trkpt lat="43.7814268" lon="12.8627934"><ele>266.0</ele><time>2026-03-22T08:14:41.633Z</time></trkpt><trkpt lat="43.7812942" lon="12.8628329"><ele>266.0</ele><time>2026-03-22T08:14:42.645Z</time></trkpt><trkpt lat="43.7811826" lon="12.8628834"><ele>266.0</ele><time>2026-03-22T08:14:43.638Z</time></trkpt><trkpt lat="43.7810836" lon="12.8629431"><ele>266.0</ele><time>2026-03-22T08:14:44.641Z</time></trkpt><trkpt lat="43.7809782" lon="12.8630295"><ele>266.0</ele><time>2026-03-22T08:14:45.637Z</time></trkpt><trkpt lat="43.7808907" lon="12.8631193"><ele>265.40000000000003</ele><time>2026-03-22T08:14:46.636Z</time></trkpt><trkpt lat="43.7808113" lon="12.8632193"><ele>264.8</ele><time>2026-03-22T08:14:47.64Z</time></trkpt><trkpt lat="43.7807304" lon="12.8633124"><ele>264.20000000000005</ele><time>2026-03-22T08:14:48.635Z</time></trkpt><trkpt lat="43.7806576" lon="12.863415"><ele>263.6</ele><time>2026-03-22T08:14:49.634Z</time></trkpt><trkpt lat="43.7805932" lon="12.8635206"><ele>263.0</ele><time>2026-03-22T08:14:50.66Z</time></trkpt><trkpt lat="43.7805277" lon="12.8636176"><ele>260.4</ele><time>2026-03-22T08:14:51.629Z</time></trkpt><trkpt lat="43.7804637" lon="12.8637111"><ele>257.8</ele><time>2026-03-22T08:14:52.626Z</time></trkpt><trkpt lat="43.7803917" lon="12.8638005"><ele>255.2</ele><time>2026-03-22T08:14:53.629Z</time></trkpt><trkpt lat="43.780335" lon="12.8639021"><ele>252.6</ele><time>2026-03-22T08:14:54.623Z</time></trkpt><trkpt lat="43.7802737" lon="12.8639863"><ele>250.0</ele><time>2026-03-22T08:14:55.618Z</time></trkpt><trkpt lat="43.780199" lon="12.8640714"><ele>247.83333333333331</ele><time>2026-03-22T08:14:56.62Z</time></trkpt><trkpt lat="43.7801221" lon="12.864162"><ele>245.66666666666666</ele><time>2026-03-22T08:14:57.639Z</time></trkpt><trkpt lat="43.7800598" lon="12.8642363"><ele>243.5</ele><time>2026-03-22T08:14:58.618Z</time></trkpt><trkpt lat="43.7799928" lon="12.8643105"><ele>241.33333333333331</ele><time>2026-03-22T08:14:59.623Z</time></trkpt><trkpt lat="43.7799267" lon="12.8643834"><ele>239.16666666666666</ele><time>2026-03-22T08:15:00.621Z</time></trkpt><trkpt lat="43.7798701" lon="12.8644521"><ele>237.0</ele><time>2026-03-22T08:15:01.615Z</time></trkpt><trkpt lat="43.779825" lon="12.8645513"><ele>235.5</ele><time>2026-03-22T08:15:02.613Z</time></trkpt><trkpt lat="43.7797747" lon="12.8646162"><ele>234.0</ele><time>2026-03-22T08:15:03.614Z</time></trkpt><trkpt lat="43.7799223" lon="12.8646616"><ele>232.5</ele><time>2026-03-22T08:15:04.617Z</time></trkpt><trkpt lat="43.7800765" lon="12.8647092"><ele>231.0</ele><time>2026-03-22T08:15:05.619Z</time></trkpt><trkpt lat="43.7803759" lon="12.8645979"><ele>231.0</ele><time>2026-03-22T08:15:06.622Z</time></trkpt><trkpt lat="43.7806421" lon="12.864627"><ele>231.0</ele><time>2026-03-22T08:15:07.618Z</time></trkpt><trkpt lat="43.7809138" lon="12.8646353"><ele>225.0</ele><time>2026-03-22T08:15:08.619Z</time></trkpt><trkpt lat="43.7811317" lon="12.8647412"><ele>219.0</ele><time>2026-03-22T08:15:09.623Z</time></trkpt><trkpt lat="43.7812965" lon="12.8647361"><ele>213.0</ele><time>2026-03-22T08:15:10.623Z</time></trkpt><trkpt lat="43.7813075" lon="12.8645561"><ele>213.0</ele><time>2026-03-22T08:15:12.623Z</time></trkpt><trkpt lat="43.7813716" lon="12.8644856"><ele>213.0</ele><time>2026-03-22T08:15:13.637Z</time></trkpt><trkpt lat="43.7814091" lon="12.8643765"><ele>213.0</ele><time>2026-03-22T08:15:14.617Z</time></trkpt><trkpt lat="43.7813035" lon="12.8643021"><ele>213.0</ele><time>2026-03-22T08:15:16.625Z</time></trkpt><trkpt lat="43.7811785" lon="12.8642861"><ele>213.0</ele><time>2026-03-22T08:15:18.623Z</time></trkpt><trkpt lat="43.7811003" lon="12.8643531"><ele>213.0</ele><time>2026-03-22T08:15:19.622Z</time></trkpt><trkpt lat="43.7810396" lon="12.8643949"><ele>213.0</ele><time>2026-03-22T08:15:20.622Z</time></trkpt><trkpt lat="43.7810079" lon="12.8644822"><ele>213.0</ele><time>2026-03-22T08:15:21.623Z</time></trkpt><trkpt lat="43.7810061" lon="12.8646155"><ele>213.0</ele><time>2026-03-22T08:15:24.62Z</time></trkpt><trkpt lat="43.7809855" lon="12.8647307"><ele>213.0</ele><time>2026-03-22T08:15:25.616Z</time></trkpt><trkpt lat="43.7809728" lon="12.8648632"><ele>213.0</ele><time>2026-03-22T08:15:26.62Z</time></trkpt><trkpt lat="43.780991" lon="12.8649572"><ele>212.0</ele><time>2026-03-22T08:15:27.629Z</time></trkpt><trkpt lat="43.7809882" lon="12.8650736"><ele>211.0</ele><time>2026-03-22T08:15:28.625Z</time></trkpt><trkpt lat="43.78092" lon="12.8650986"><ele>210.0</ele><time>2026-03-22T08:15:29.634Z</time></trkpt><trkpt lat="43.7808251" lon="12.8651119"><ele>209.0</ele><time>2026-03-22T08:15:31.611Z</time></trkpt><trkpt lat="43.7807184" lon="12.8651775"><ele>208.0</ele><time>2026-03-22T08:15:33.619Z</time></trkpt><trkpt lat="43.7805993" lon="12.8652562"><ele>208.0</ele><time>2026-03-22T08:15:35.599Z</time></trkpt><trkpt lat="43.7805058" lon="12.8653166"><ele>208.0</ele><time>2026-03-22T08:15:36.6Z</time></trkpt><trkpt lat="43.7802975" lon="12.865212"><ele>208.0</ele><time>2026-03-22T08:15:37.591Z</time></trkpt><trkpt lat="43.7799336" lon="12.8650008"><ele>219.5</ele><time>2026-03-22T08:15:39.603Z</time></trkpt><trkpt lat="43.7803459" lon="12.8650627"><ele>231.0</ele><time>2026-03-22T08:15:41.617Z</time></trkpt><trkpt lat="43.7803296" lon="12.8649691"><ele>231.0</ele><time>2026-03-22T08:15:42.612Z</time></trkpt><trkpt lat="43.7803845" lon="12.8647285"><ele>231.0</ele><time>2026-03-22T08:15:43.615Z</time></trkpt><trkpt lat="43.7804292" lon="12.8645004"><ele>231.0</ele><time>2026-03-22T08:15:44.631Z</time></trkpt><trkpt lat="43.7804645" lon="12.864298"><ele>231.0</ele><time>2026-03-22T08:15:45.612Z</time></trkpt><trkpt lat="43.780575" lon="12.8643249"><ele>231.0</ele><time>2026-03-22T08:15:46.616Z</time></trkpt><trkpt lat="43.7806723" lon="12.8643429"><ele>231.0</ele><time>2026-03-22T08:15:47.615Z</time></trkpt><trkpt lat="43.7807158" lon="12.8641563"><ele>231.0</ele><time>2026-03-22T08:15:48.6Z</time></trkpt><trkpt lat="43.7807332" lon="12.8639498"><ele>234.8</ele><time>2026-03-22T08:15:49.613Z</time></trkpt><trkpt lat="43.780633" lon="12.8639286"><ele>238.60000000000002</ele><time>2026-03-22T08:15:50.613Z</time></trkpt><trkpt lat="43.7805274" lon="12.863968"><ele>242.4</ele><time>2026-03-22T08:15:51.619Z</time></trkpt><trkpt lat="43.7805585" lon="12.863848"><ele>246.2</ele><time>2026-03-22T08:15:52.619Z</time></trkpt><trkpt lat="43.7805487" lon="12.8640337"><ele>250.0</ele><time>2026-03-22T08:15:53.622Z</time></trkpt><trkpt lat="43.7806093" lon="12.863939"><ele>250.0</ele><time>2026-03-22T08:15:54.618Z</time></trkpt><trkpt lat="43.7805567" lon="12.8639975"><ele>250.0</ele><time>2026-03-22T08:15:57.619Z</time></trkpt><trkpt lat="43.7809909" lon="12.8641869"><ele>250.0</ele><time>2026-03-22T08:15:58.613Z</time></trkpt><trkpt lat="43.7810326" lon="12.8641186"><ele>250.0</ele><time>2026-03-22T08:15:59.615Z</time></trkpt><trkpt lat="43.781109" lon="12.8640687"><ele>250.0</ele><time>2026-03-22T08:16:00.621Z</time></trkpt><trkpt lat="43.7812297" lon="12.863937"><ele>250.0</ele><time>2026-03-22T08:16:02.624Z</time></trkpt><trkpt lat="43.7812596" lon="12.8640178"><ele>250.0</ele><time>2026-03-22T08:16:03.619Z</time></trkpt><trkpt lat="43.7809798" lon="12.8640456"><ele>250.0</ele><time>2026-03-22T08:16:06.616Z</time></trkpt><trkpt lat="43.7809259" lon="12.8641098"><ele>250.0</ele><time>2026-03-22T08:16:07.614Z</time></trkpt><trkpt lat="43.780844" lon="12.8641698"><ele>250.0</ele><time>2026-03-22T08:16:08.61Z</time></trkpt><trkpt lat="43.7807969" lon="12.8641062"><ele>250.0</ele><time>2026-03-22T08:16:10.606Z</time></trkpt><trkpt lat="43.7807205" lon="12.8640434"><ele>250.0</ele><time>2026-03-22T08:16:11.6Z</time></trkpt><trkpt lat="43.780554" lon="12.8640153"><ele>250.0</ele><time>2026-03-22T08:16:12.595Z</time></trkpt><trkpt lat="43.7803044" lon="12.8641143"><ele>250.0</ele><time>2026-03-22T08:16:13.602Z</time></trkpt><trkpt lat="43.7801087" lon="12.8642205"><ele>221.0</ele><time>2026-03-22T08:16:14.631Z</time></trkpt><trkpt lat="43.7799151" lon="12.8648131"><ele>221.0</ele><time>2026-03-22T08:16:16.607Z</time></trkpt><trkpt lat="43.7797533" lon="12.8648935"><ele>221.0</ele><time>2026-03-22T08:16:17.598Z</time></trkpt><trkpt lat="43.7795265" lon="12.8647966"><ele>221.0</ele><time>2026-03-22T08:16:20.598Z</time></trkpt><trkpt lat="43.7794266" lon="12.8649242"><ele>215.5</ele><time>2026-03-22T08:16:21.607Z</time></trkpt><trkpt lat="43.7793028" lon="12.8649262"><ele>210.0</ele><time>2026-03-22T08:16:22.616Z</time></trkpt><trkpt lat="43.7791413" lon="12.8650432"><ele>204.5</ele><time>2026-03-22T08:16:23.614Z</time></trkpt><trkpt lat="43.7791935" lon="12.865183"><ele>199.0</ele><time>2026-03-22T08:16:24.618Z</time></trkpt><trkpt lat="43.7790068" lon="12.8653287"><ele>198.33333333333331</ele><time>2026-03-22T08:16:25.615Z</time></trkpt><trkpt lat="43.7787927" lon="12.8653546"><ele>197.66666666666669</ele><time>2026-03-22T08:16:26.619Z</time></trkpt><trkpt lat="43.778605" lon="12.8654037"><ele>197.0</ele><time>2026-03-22T08:16:27.62Z</time></trkpt><trkpt lat="43.7784497" lon="12.8654937"><ele>197.0</ele><time>2026-03-22T08:16:28.623Z</time></trkpt><trkpt lat="43.7783154" lon="12.8655449"><ele>197.0</ele><time>2026-03-22T08:16:29.622Z</time></trkpt><trkpt lat="43.7781619" lon="12.8656565"><ele>197.0</ele><time>2026-03-22T08:16:30.622Z</time></trkpt><trkpt lat="43.7780539" lon="12.8657286"><ele>197.0</ele><time>2026-03-22T08:16:31.624Z</time></trkpt><trkpt lat="43.7779298" lon="12.8657555"><ele>197.00000000000003</ele><time>2026-03-22T08:16:32.622Z</time></trkpt><trkpt lat="43.7778547" lon="12.8657611"><ele>197.0</ele><time>2026-03-22T08:16:33.615Z</time></trkpt><trkpt lat="43.7777591" lon="12.8657638"><ele>197.0</ele><time>2026-03-22T08:16:35.629Z</time></trkpt><trkpt lat="43.777714" lon="12.8658755"><ele>197.0</ele><time>2026-03-22T08:16:36.625Z</time></trkpt><trkpt lat="43.7776661" lon="12.8659702"><ele>197.00000000000003</ele><time>2026-03-22T08:16:37.626Z</time></trkpt><trkpt lat="43.7776408" lon="12.8660926"><ele>197.0</ele><time>2026-03-22T08:16:38.637Z</time></trkpt><trkpt lat="43.7776087" lon="12.8662173"><ele>206.0</ele><time>2026-03-22T08:16:39.631Z</time></trkpt><trkpt lat="43.7775815" lon="12.8664036"><ele>215.0</ele><time>2026-03-22T08:16:40.626Z</time></trkpt><trkpt lat="43.7775973" lon="12.8665906"><ele>224.0</ele><time>2026-03-22T08:16:41.623Z</time></trkpt><trkpt lat="43.7775512" lon="12.8667816"><ele>233.0</ele><time>2026-03-22T08:16:42.627Z</time></trkpt><trkpt lat="43.7775277" lon="12.8669336"><ele>235.0</ele><time>2026-03-22T08:16:43.623Z</time></trkpt><trkpt lat="43.7775094" lon="12.8670892"><ele>237.0</ele><time>2026-03-22T08:16:44.638Z</time></trkpt><trkpt lat="43.7776564" lon="12.867234"><ele>239.0</ele><time>2026-03-22T08:16:45.632Z</time></trkpt><trkpt lat="43.777785" lon="12.8673569"><ele>232.79999999999998</ele><time>2026-03-22T08:16:46.627Z</time></trkpt><trkpt lat="43.7778937" lon="12.8674584"><ele>226.59999999999997</ele><time>2026-03-22T08:16:47.629Z</time></trkpt><trkpt lat="43.7779695" lon="12.8675347"><ele>220.4</ele><time>2026-03-22T08:16:48.626Z</time></trkpt><trkpt lat="43.7779207" lon="12.8676589"><ele>214.2</ele><time>2026-03-22T08:16:50.628Z</time></trkpt><trkpt lat="43.7778717" lon="12.8677575"><ele>208.0</ele><time>2026-03-22T08:16:53.626Z</time></trkpt><trkpt lat="43.7778403" lon="12.8678557"><ele>205.5</ele><time>2026-03-22T08:16:55.633Z</time></trkpt><trkpt lat="43.777788" lon="12.8679837"><ele>203.0</ele><time>2026-03-22T08:16:57.621Z</time></trkpt><trkpt lat="43.7777263" lon="12.8681411"><ele>200.5</ele><time>2026-03-22T08:16:59.615Z</time></trkpt><trkpt lat="43.7777004" lon="12.8682365"><ele>198.0</ele><time>2026-03-22T08:17:01.615Z</time></trkpt><trkpt lat="43.7775985" lon="12.868386"><ele>202.8</ele><time>2026-03-22T08:17:05.614Z</time></trkpt><trkpt lat="43.777542" lon="12.8684845"><ele>207.60000000000002</ele><time>2026-03-22T08:17:06.618Z</time></trkpt><trkpt lat="43.7775043" lon="12.8685741"><ele>212.39999999999998</ele><time>2026-03-22T08:17:07.613Z</time></trkpt><trkpt lat="43.7774708" lon="12.8686709"><ele>217.2</ele><time>2026-03-22T08:17:08.618Z</time></trkpt><trkpt lat="43.777413" lon="12.8687543"><ele>222.0</ele><time>2026-03-22T08:17:09.617Z</time></trkpt><trkpt lat="43.7772964" lon="12.8689372"><ele>222.0</ele><time>2026-03-22T08:17:10.613Z</time></trkpt><trkpt lat="43.7771804" lon="12.8691355"><ele>222.0</ele><time>2026-03-22T08:17:11.615Z</time></trkpt><trkpt lat="43.7770779" lon="12.8693047"><ele>222.0</ele><time>2026-03-22T08:17:12.613Z</time></trkpt><trkpt lat="43.7769992" lon="12.8695088"><ele>222.66666666666669</ele><time>2026-03-22T08:17:13.614Z</time></trkpt><trkpt lat="43.7768867" lon="12.8697007"><ele>223.33333333333334</ele><time>2026-03-22T08:17:14.615Z</time></trkpt><trkpt lat="43.7767809" lon="12.8698451"><ele>224.0</ele><time>2026-03-22T08:17:15.618Z</time></trkpt><trkpt lat="43.7766459" lon="12.8699777"><ele>224.5</ele><time>2026-03-22T08:17:16.604Z</time></trkpt><trkpt lat="43.776524" lon="12.8701128"><ele>225.0</ele><time>2026-03-22T08:17:17.599Z</time></trkpt><trkpt lat="43.7771272" lon="12.8732482"><ele>225.8</ele><time>2026-03-22T08:17:44.619Z</time></trkpt><trkpt lat="43.7771809" lon="12.8733006"><ele>226.6</ele><time>2026-03-22T08:17:45.619Z</time></trkpt><trkpt lat="43.7772433" lon="12.8734007"><ele>227.39999999999998</ele><time>2026-03-22T08:17:46.637Z</time></trkpt><trkpt lat="43.7773099" lon="12.8734796"><ele>228.2</ele><time>2026-03-22T08:17:47.617Z</time></trkpt><trkpt lat="43.7773659" lon="12.8735432"><ele>229.0</ele><time>2026-03-22T08:17:48.621Z</time></trkpt><trkpt lat="43.7772934" lon="12.8737496"><ele>229.0</ele><time>2026-03-22T08:17:50.633Z</time></trkpt><trkpt lat="43.7772325" lon="12.8738715"><ele>229.0</ele><time>2026-03-22T08:17:51.627Z</time></trkpt><trkpt lat="43.7771912" lon="12.8739798"><ele>229.0</ele><time>2026-03-22T08:17:52.632Z</time></trkpt><trkpt lat="43.7771009" lon="12.8740622"><ele>229.0</ele><time>2026-03-22T08:17:53.633Z</time></trkpt><trkpt lat="43.7769301" lon="12.8741736"><ele>228.0</ele><time>2026-03-22T08:17:54.635Z</time></trkpt><trkpt lat="43.7768275" lon="12.8742361"><ele>226.99999999999997</ele><time>2026-03-22T08:17:55.635Z</time></trkpt><trkpt lat="43.7767266" lon="12.8742921"><ele>225.99999999999997</ele><time>2026-03-22T08:17:57.627Z</time></trkpt><trkpt lat="43.7766654" lon="12.8743369"><ele>225.0</ele><time>2026-03-22T08:17:58.624Z</time></trkpt><trkpt lat="43.7766024" lon="12.8743637"><ele>224.0</ele><time>2026-03-22T08:17:59.623Z</time></trkpt><trkpt lat="43.7764867" lon="12.8743501"><ele>224.0</ele><time>2026-03-22T08:18:00.624Z</time></trkpt><trkpt lat="43.776356" lon="12.8743298"><ele>224.0</ele><time>2026-03-22T08:18:01.62Z</time></trkpt><trkpt lat="43.7761849" lon="12.8742621"><ele>224.0</ele><time>2026-03-22T08:18:02.623Z</time></trkpt><trkpt lat="43.7759794" lon="12.8741453"><ele>233.25</ele><time>2026-03-22T08:18:03.622Z</time></trkpt><trkpt lat="43.7758198" lon="12.8740463"><ele>242.5</ele><time>2026-03-22T08:18:04.649Z</time></trkpt><trkpt lat="43.775737" lon="12.874029"><ele>251.75</ele><time>2026-03-22T08:18:05.653Z</time></trkpt><trkpt lat="43.7756472" lon="12.8740086"><ele>261.0</ele><time>2026-03-22T08:18:06.646Z</time></trkpt><trkpt lat="43.7755365" lon="12.8739865"><ele>261.0</ele><time>2026-03-22T08:18:07.61Z</time></trkpt><trkpt lat="43.775336" lon="12.8738295"><ele>261.0</ele><time>2026-03-22T08:18:08.621Z</time></trkpt><trkpt lat="43.7749602" lon="12.8736879"><ele>266.5</ele><time>2026-03-22T08:18:09.619Z</time></trkpt><trkpt lat="43.7746607" lon="12.8736075"><ele>272.0</ele><time>2026-03-22T08:18:10.627Z</time></trkpt><trkpt lat="43.7744101" lon="12.8735313"><ele>268.0</ele><time>2026-03-22T08:18:11.623Z</time></trkpt><trkpt lat="43.7741997" lon="12.873509"><ele>264.0</ele><time>2026-03-22T08:18:12.625Z</time></trkpt><trkpt lat="43.7739324" lon="12.8734682"><ele>267.6666666666667</ele><time>2026-03-22T08:18:13.626Z</time></trkpt><trkpt lat="43.7737436" lon="12.8733649"><ele>271.33333333333337</ele><time>2026-03-22T08:18:14.626Z</time></trkpt><trkpt lat="43.7736056" lon="12.8732488"><ele>275.0</ele><time>2026-03-22T08:18:15.62Z</time></trkpt><trkpt lat="43.7734867" lon="12.8731147"><ele>275.0</ele><time>2026-03-22T08:18:16.625Z</time></trkpt><trkpt lat="43.7733656" lon="12.8729921"><ele>275.0</ele><time>2026-03-22T08:18:17.641Z</time></trkpt><trkpt lat="43.7732392" lon="12.8728549"><ele>275.0</ele><time>2026-03-22T08:18:18.626Z</time></trkpt><trkpt lat="43.7731078" lon="12.8727349"><ele>279.5</ele><time>2026-03-22T08:18:19.622Z</time></trkpt><trkpt lat="43.773001" lon="12.8725836"><ele>284.0</ele><time>2026-03-22T08:18:20.619Z</time></trkpt><trkpt lat="43.772899" lon="12.8724714"><ele>288.5</ele><time>2026-03-22T08:18:21.622Z</time></trkpt><trkpt lat="43.7727755" lon="12.8723591"><ele>293.0</ele><time>2026-03-22T08:18:22.618Z</time></trkpt><trkpt lat="43.772639" lon="12.8723549"><ele>293.25</ele><time>2026-03-22T08:18:23.629Z</time></trkpt><trkpt lat="43.7724668" lon="12.8723189"><ele>293.5</ele><time>2026-03-22T08:18:24.619Z</time></trkpt><trkpt lat="43.7723514" lon="12.8722484"><ele>293.75</ele><time>2026-03-22T08:18:25.629Z</time></trkpt><trkpt lat="43.7722569" lon="12.8722047"><ele>294.0</ele><time>2026-03-22T08:18:26.63Z</time></trkpt><trkpt lat="43.7721396" lon="12.8721317"><ele>294.0</ele><time>2026-03-22T08:18:27.625Z</time></trkpt><trkpt lat="43.77204" lon="12.8720583"><ele>294.0</ele><time>2026-03-22T08:18:28.632Z</time></trkpt><trkpt lat="43.7719574" lon="12.8719224"><ele>294.0</ele><time>2026-03-22T08:18:29.63Z</time></trkpt><trkpt lat="43.7718684" lon="12.8718082"><ele>294.0</ele><time>2026-03-22T08:18:30.628Z</time></trkpt><trkpt lat="43.771801" lon="12.8717448"><ele>294.0</ele><time>2026-03-22T08:18:31.623Z</time></trkpt><trkpt lat="43.7717089" lon="12.8715957"><ele>294.3333333333333</ele><time>2026-03-22T08:18:32.622Z</time></trkpt><trkpt lat="43.7716804" lon="12.8714069"><ele>294.66666666666663</ele><time>2026-03-22T08:18:33.625Z</time></trkpt><trkpt lat="43.7716677" lon="12.8711973"><ele>295.0</ele><time>2026-03-22T08:18:34.624Z</time></trkpt><trkpt lat="43.7716167" lon="12.8709846"><ele>299.66666666666663</ele><time>2026-03-22T08:18:35.62Z</time></trkpt><trkpt lat="43.7715272" lon="12.8707438"><ele>304.3333333333333</ele><time>2026-03-22T08:18:36.629Z</time></trkpt><trkpt lat="43.7714259" lon="12.8705265"><ele>309.0</ele><time>2026-03-22T08:18:37.639Z</time></trkpt><trkpt lat="43.7713277" lon="12.8702995"><ele>313.3333333333333</ele><time>2026-03-22T08:18:38.64Z</time></trkpt><trkpt lat="43.7712444" lon="12.8700857"><ele>317.66666666666663</ele><time>2026-03-22T08:18:39.635Z</time></trkpt><trkpt lat="43.7711895" lon="12.8698581"><ele>322.0</ele><time>2026-03-22T08:18:40.636Z</time></trkpt><trkpt lat="43.7710945" lon="12.8696718"><ele>320.75</ele><time>2026-03-22T08:18:41.636Z</time></trkpt><trkpt lat="43.7710203" lon="12.8695139"><ele>319.5</ele><time>2026-03-22T08:18:42.637Z</time></trkpt><trkpt lat="43.7709402" lon="12.8693824"><ele>318.25</ele><time>2026-03-22T08:18:43.637Z</time></trkpt><trkpt lat="43.7708564" lon="12.8692403"><ele>317.0</ele><time>2026-03-22T08:18:44.637Z</time></trkpt><trkpt lat="43.7707671" lon="12.8691159"><ele>317.0</ele><time>2026-03-22T08:18:45.635Z</time></trkpt><trkpt lat="43.7706638" lon="12.8690431"><ele>317.0</ele><time>2026-03-22T08:18:46.638Z</time></trkpt><trkpt lat="43.7705548" lon="12.8689907"><ele>317.0</ele><time>2026-03-22T08:18:47.647Z</time></trkpt><trkpt lat="43.7704317" lon="12.8689661"><ele>317.0</ele><time>2026-03-22T08:18:48.653Z</time></trkpt><trkpt lat="43.770337" lon="12.8689029"><ele>317.0</ele><time>2026-03-22T08:18:49.636Z</time></trkpt><trkpt lat="43.7702534" lon="12.8688266"><ele>317.0</ele><time>2026-03-22T08:18:50.641Z</time></trkpt><trkpt lat="43.7701662" lon="12.8686953"><ele>317.0</ele><time>2026-03-22T08:18:51.64Z</time></trkpt><trkpt lat="43.7701039" lon="12.8685872"><ele>317.0</ele><time>2026-03-22T08:18:52.64Z</time></trkpt><trkpt lat="43.7700291" lon="12.8684659"><ele>317.0</ele><time>2026-03-22T08:18:53.639Z</time></trkpt><trkpt lat="43.7699413" lon="12.8683299"><ele>316.75</ele><time>2026-03-22T08:18:54.635Z</time></trkpt><trkpt lat="43.769839" lon="12.8681966"><ele>316.5</ele><time>2026-03-22T08:18:55.64Z</time></trkpt><trkpt lat="43.769741" lon="12.8680502"><ele>316.25</ele><time>2026-03-22T08:18:56.636Z</time></trkpt><trkpt lat="43.7696394" lon="12.8679161"><ele>316.0</ele><time>2026-03-22T08:18:57.625Z</time></trkpt><trkpt lat="43.7695302" lon="12.8677843"><ele>316.0</ele><time>2026-03-22T08:18:58.634Z</time></trkpt><trkpt lat="43.7694251" lon="12.8676472"><ele>316.0</ele><time>2026-03-22T08:18:59.635Z</time></trkpt><trkpt lat="43.7693275" lon="12.867511"><ele>316.0</ele><time>2026-03-22T08:19:00.63Z</time></trkpt><trkpt lat="43.7692069" lon="12.8673672"><ele>316.0</ele><time>2026-03-22T08:19:01.633Z</time></trkpt><trkpt lat="43.7690768" lon="12.8672386"><ele>314.5</ele><time>2026-03-22T08:19:02.633Z</time></trkpt><trkpt lat="43.7689532" lon="12.8671497"><ele>313.0</ele><time>2026-03-22T08:19:03.632Z</time></trkpt><trkpt lat="43.7688021" lon="12.867065"><ele>311.5</ele><time>2026-03-22T08:19:04.632Z</time></trkpt><trkpt lat="43.7686713" lon="12.8670312"><ele>310.0</ele><time>2026-03-22T08:19:05.633Z</time></trkpt><trkpt lat="43.7685445" lon="12.8670566"><ele>308.8</ele><time>2026-03-22T08:19:06.637Z</time></trkpt><trkpt lat="43.7684052" lon="12.8670922"><ele>307.6</ele><time>2026-03-22T08:19:07.636Z</time></trkpt><trkpt lat="43.7683376" lon="12.8670835"><ele>306.4</ele><time>2026-03-22T08:19:08.635Z</time></trkpt><trkpt lat="43.7682651" lon="12.8671335"><ele>305.2</ele><time>2026-03-22T08:19:09.623Z</time></trkpt><trkpt lat="43.76818" lon="12.8671404"><ele>304.0</ele><time>2026-03-22T08:19:10.627Z</time></trkpt><trkpt lat="43.768109" lon="12.867194"><ele>304.0</ele><time>2026-03-22T08:19:12.634Z</time></trkpt><trkpt lat="43.7679879" lon="12.8672536"><ele>304.0</ele><time>2026-03-22T08:19:15.623Z</time></trkpt><trkpt lat="43.7678952" lon="12.8672533"><ele>304.0</ele><time>2026-03-22T08:19:16.629Z</time></trkpt><trkpt lat="43.7677664" lon="12.8672797"><ele>304.0</ele><time>2026-03-22T08:19:18.623Z</time></trkpt><trkpt lat="43.7676456" lon="12.8673471"><ele>304.75</ele><time>2026-03-22T08:19:19.637Z</time></trkpt><trkpt lat="43.7675271" lon="12.8674087"><ele>305.5</ele><time>2026-03-22T08:19:20.621Z</time></trkpt><trkpt lat="43.7674057" lon="12.867461"><ele>306.25</ele><time>2026-03-22T08:19:21.622Z</time></trkpt><trkpt lat="43.7672638" lon="12.8675587"><ele>307.0</ele><time>2026-03-22T08:19:22.626Z</time></trkpt><trkpt lat="43.7671433" lon="12.8676392"><ele>306.0</ele><time>2026-03-22T08:19:23.628Z</time></trkpt><trkpt lat="43.7670543" lon="12.8677069"><ele>305.0</ele><time>2026-03-22T08:19:24.631Z</time></trkpt><trkpt lat="43.7669515" lon="12.8677642"><ele>304.0</ele><time>2026-03-22T08:19:25.631Z</time></trkpt><trkpt lat="43.7668277" lon="12.8678007"><ele>303.0</ele><time>2026-03-22T08:19:26.63Z</time></trkpt><trkpt lat="43.766716" lon="12.8678257"><ele>303.0</ele><time>2026-03-22T08:19:27.629Z</time></trkpt><trkpt lat="43.7665998" lon="12.8678248"><ele>303.0</ele><time>2026-03-22T08:19:28.625Z</time></trkpt><trkpt lat="43.7665193" lon="12.8677863"><ele>303.0</ele><time>2026-03-22T08:19:29.624Z</time></trkpt><trkpt lat="43.7664273" lon="12.8677115"><ele>303.0</ele><time>2026-03-22T08:19:30.63Z</time></trkpt><trkpt lat="43.7663112" lon="12.8676427"><ele>303.0</ele><time>2026-03-22T08:19:31.628Z</time></trkpt><trkpt lat="43.7662035" lon="12.8675516"><ele>303.5</ele><time>2026-03-22T08:19:32.634Z</time></trkpt><trkpt lat="43.7661181" lon="12.8674528"><ele>304.0</ele><time>2026-03-22T08:19:33.637Z</time></trkpt><trkpt lat="43.7660351" lon="12.8673427"><ele>304.5</ele><time>2026-03-22T08:19:34.627Z</time></trkpt><trkpt lat="43.7659416" lon="12.8672216"><ele>305.0</ele><time>2026-03-22T08:19:35.629Z</time></trkpt><trkpt lat="43.7658371" lon="12.8671194"><ele>305.0</ele><time>2026-03-22T08:19:36.631Z</time></trkpt><trkpt lat="43.7657603" lon="12.867014"><ele>305.0</ele><time>2026-03-22T08:19:37.632Z</time></trkpt><trkpt lat="43.7656904" lon="12.8669013"><ele>305.0</ele><time>2026-03-22T08:19:38.625Z</time></trkpt><trkpt lat="43.7656144" lon="12.8668048"><ele>305.0</ele><time>2026-03-22T08:19:39.626Z</time></trkpt><trkpt lat="43.7655359" lon="12.866709"><ele>305.0</ele><time>2026-03-22T08:19:40.627Z</time></trkpt><trkpt lat="43.7654627" lon="12.8666139"><ele>305.0</ele><time>2026-03-22T08:19:41.63Z</time></trkpt><trkpt lat="43.7653828" lon="12.8665143"><ele>305.0</ele><time>2026-03-22T08:19:42.618Z</time></trkpt><trkpt lat="43.7652639" lon="12.8664479"><ele>305.0</ele><time>2026-03-22T08:19:44.631Z</time></trkpt><trkpt lat="43.7651862" lon="12.8664112"><ele>305.0</ele><time>2026-03-22T08:19:45.627Z</time></trkpt><trkpt lat="43.7651154" lon="12.8663176"><ele>305.0</ele><time>2026-03-22T08:19:46.63Z</time></trkpt><trkpt lat="43.7650309" lon="12.866275"><ele>304.75</ele><time>2026-03-22T08:19:47.623Z</time></trkpt><trkpt lat="43.764913" lon="12.8661899"><ele>304.5</ele><time>2026-03-22T08:19:48.63Z</time></trkpt><trkpt lat="43.7648043" lon="12.8661218"><ele>304.25</ele><time>2026-03-22T08:19:49.63Z</time></trkpt><trkpt lat="43.7646857" lon="12.8660293"><ele>304.0</ele><time>2026-03-22T08:19:50.648Z</time></trkpt><trkpt lat="43.7645541" lon="12.8659381"><ele>304.0</ele><time>2026-03-22T08:19:51.634Z</time></trkpt><trkpt lat="43.764427" lon="12.8658465"><ele>304.0</ele><time>2026-03-22T08:19:52.637Z</time></trkpt><trkpt lat="43.7643073" lon="12.8657734"><ele>304.0</ele><time>2026-03-22T08:19:53.635Z</time></trkpt><trkpt lat="43.7641767" lon="12.8657066"><ele>304.0</ele><time>2026-03-22T08:19:54.637Z</time></trkpt><trkpt lat="43.7640806" lon="12.865684"><ele>304.8</ele><time>2026-03-22T08:19:55.64Z</time></trkpt><trkpt lat="43.7639719" lon="12.8656704"><ele>305.59999999999997</ele><time>2026-03-22T08:19:56.639Z</time></trkpt><trkpt lat="43.7638355" lon="12.8656599"><ele>306.4</ele><time>2026-03-22T08:19:57.631Z</time></trkpt><trkpt lat="43.7637301" lon="12.8656781"><ele>307.2</ele><time>2026-03-22T08:19:58.642Z</time></trkpt><trkpt lat="43.763649" lon="12.8656768"><ele>308.0</ele><time>2026-03-22T08:19:59.638Z</time></trkpt><trkpt lat="43.763562" lon="12.8656704"><ele>307.5</ele><time>2026-03-22T08:20:00.642Z</time></trkpt><trkpt lat="43.7634802" lon="12.8656089"><ele>307.0</ele><time>2026-03-22T08:20:01.638Z</time></trkpt><trkpt lat="43.763407" lon="12.8655056"><ele>306.5</ele><time>2026-03-22T08:20:02.639Z</time></trkpt><trkpt lat="43.7633162" lon="12.865357"><ele>306.0</ele><time>2026-03-22T08:20:03.641Z</time></trkpt><trkpt lat="43.763232" lon="12.8652181"><ele>307.5</ele><time>2026-03-22T08:20:04.629Z</time></trkpt><trkpt lat="43.7631536" lon="12.8650801"><ele>309.0</ele><time>2026-03-22T08:20:05.64Z</time></trkpt><trkpt lat="43.763049" lon="12.8649451"><ele>310.5</ele><time>2026-03-22T08:20:06.629Z</time></trkpt><trkpt lat="43.7629613" lon="12.8648354"><ele>312.0</ele><time>2026-03-22T08:20:07.638Z</time></trkpt><trkpt lat="43.7628564" lon="12.8647176"><ele>312.0</ele><time>2026-03-22T08:20:08.627Z</time></trkpt><trkpt lat="43.7627376" lon="12.8645879"><ele>312.0</ele><time>2026-03-22T08:20:09.628Z</time></trkpt><trkpt lat="43.7626053" lon="12.864474"><ele>312.0</ele><time>2026-03-22T08:20:10.628Z</time></trkpt><trkpt lat="43.7624845" lon="12.8643803"><ele>312.0</ele><time>2026-03-22T08:20:11.62Z</time></trkpt><trkpt lat="43.7623655" lon="12.8642818"><ele>313.0</ele><time>2026-03-22T08:20:12.627Z</time></trkpt><trkpt lat="43.7622355" lon="12.8642203"><ele>314.0</ele><time>2026-03-22T08:20:13.63Z</time></trkpt><trkpt lat="43.7621431" lon="12.8642396"><ele>315.0</ele><time>2026-03-22T08:20:14.629Z</time></trkpt><trkpt lat="43.7620449" lon="12.8642647"><ele>316.0</ele><time>2026-03-22T08:20:15.623Z</time></trkpt><trkpt lat="43.7619426" lon="12.8642576"><ele>317.0</ele><time>2026-03-22T08:20:16.629Z</time></trkpt><trkpt lat="43.7618157" lon="12.8642282"><ele>317.75</ele><time>2026-03-22T08:20:17.628Z</time></trkpt><trkpt lat="43.7616944" lon="12.8641514"><ele>318.5</ele><time>2026-03-22T08:20:18.634Z</time></trkpt><trkpt lat="43.7615755" lon="12.8640454"><ele>319.25</ele><time>2026-03-22T08:20:19.634Z</time></trkpt><trkpt lat="43.7615014" lon="12.8638976"><ele>320.0</ele><time>2026-03-22T08:20:20.64Z</time></trkpt><trkpt lat="43.7614373" lon="12.8636873"><ele>320.0</ele><time>2026-03-22T08:20:21.65Z</time></trkpt><trkpt lat="43.7613861" lon="12.863491"><ele>320.0</ele><time>2026-03-22T08:20:22.637Z</time></trkpt><trkpt lat="43.7613326" lon="12.863312"><ele>320.0</ele><time>2026-03-22T08:20:23.639Z</time></trkpt><trkpt lat="43.7612717" lon="12.8631485"><ele>320.0</ele><time>2026-03-22T08:20:24.636Z</time></trkpt><trkpt lat="43.7611909" lon="12.8630164"><ele>322.75</ele><time>2026-03-22T08:20:25.626Z</time></trkpt><trkpt lat="43.7611147" lon="12.8628752"><ele>325.5</ele><time>2026-03-22T08:20:26.628Z</time></trkpt><trkpt lat="43.7610402" lon="12.8627395"><ele>328.25</ele><time>2026-03-22T08:20:27.632Z</time></trkpt><trkpt lat="43.7609619" lon="12.8626086"><ele>331.0</ele><time>2026-03-22T08:20:28.629Z</time></trkpt><trkpt lat="43.7608604" lon="12.8624793"><ele>332.0</ele><time>2026-03-22T08:20:29.636Z</time></trkpt><trkpt lat="43.7607583" lon="12.8623525"><ele>333.0</ele><time>2026-03-22T08:20:30.636Z</time></trkpt><trkpt lat="43.7606573" lon="12.8622384"><ele>334.0</ele><time>2026-03-22T08:20:31.629Z</time></trkpt><trkpt lat="43.7605588" lon="12.8621265"><ele>335.0</ele><time>2026-03-22T08:20:32.635Z</time></trkpt><trkpt lat="43.7604393" lon="12.8620249"><ele>335.0</ele><time>2026-03-22T08:20:33.634Z</time></trkpt><trkpt lat="43.7603259" lon="12.861924"><ele>335.0</ele><time>2026-03-22T08:20:34.64Z</time></trkpt><trkpt lat="43.7602135" lon="12.8618222"><ele>335.0</ele><time>2026-03-22T08:20:35.628Z</time></trkpt><trkpt lat="43.7601038" lon="12.8617091"><ele>335.0</ele><time>2026-03-22T08:20:36.629Z</time></trkpt><trkpt lat="43.7599985" lon="12.8615927"><ele>336.5</ele><time>2026-03-22T08:20:37.633Z</time></trkpt><trkpt lat="43.7598926" lon="12.8614821"><ele>338.0</ele><time>2026-03-22T08:20:38.631Z</time></trkpt><trkpt lat="43.759795" lon="12.8613776"><ele>339.5</ele><time>2026-03-22T08:20:39.627Z</time></trkpt><trkpt lat="43.7596749" lon="12.861313"><ele>341.0</ele><time>2026-03-22T08:20:40.627Z</time></trkpt><trkpt lat="43.7595474" lon="12.8612576"><ele>341.0</ele><time>2026-03-22T08:20:41.633Z</time></trkpt><trkpt lat="43.7593675" lon="12.861219"><ele>341.0</ele><time>2026-03-22T08:20:42.635Z</time></trkpt><trkpt lat="43.7592044" lon="12.8611747"><ele>341.0</ele><time>2026-03-22T08:20:43.644Z</time></trkpt><trkpt lat="43.7590574" lon="12.8611145"><ele>339.6666666666667</ele><time>2026-03-22T08:20:44.646Z</time></trkpt><trkpt lat="43.7589048" lon="12.8610712"><ele>338.3333333333333</ele><time>2026-03-22T08:20:45.634Z</time></trkpt><trkpt lat="43.7587747" lon="12.8610777"><ele>337.0</ele><time>2026-03-22T08:20:46.623Z</time></trkpt><trkpt lat="43.7586377" lon="12.8612096"><ele>337.0</ele><time>2026-03-22T08:20:47.642Z</time></trkpt><trkpt lat="43.7585015" lon="12.8612668"><ele>337.0</ele><time>2026-03-22T08:20:48.624Z</time></trkpt><trkpt lat="43.7583771" lon="12.8612965"><ele>337.0</ele><time>2026-03-22T08:20:49.618Z</time></trkpt><trkpt lat="43.7582856" lon="12.8612952"><ele>337.0</ele><time>2026-03-22T08:20:50.629Z</time></trkpt><trkpt lat="43.7581661" lon="12.8612706"><ele>337.0</ele><time>2026-03-22T08:20:51.627Z</time></trkpt><trkpt lat="43.7580222" lon="12.8612606"><ele>337.0</ele><time>2026-03-22T08:20:52.659Z</time></trkpt><trkpt lat="43.7578978" lon="12.8612108"><ele>337.0</ele><time>2026-03-22T08:20:53.627Z</time></trkpt><trkpt lat="43.7578019" lon="12.8611702"><ele>337.0</ele><time>2026-03-22T08:20:54.622Z</time></trkpt><trkpt lat="43.7577289" lon="12.8611376"><ele>338.40000000000003</ele><time>2026-03-22T08:20:55.63Z</time></trkpt><trkpt lat="43.7576597" lon="12.8610526"><ele>339.8</ele><time>2026-03-22T08:20:56.629Z</time></trkpt><trkpt lat="43.757594" lon="12.8609674"><ele>341.2</ele><time>2026-03-22T08:20:57.633Z</time></trkpt><trkpt lat="43.7575246" lon="12.8608961"><ele>342.6</ele><time>2026-03-22T08:20:58.632Z</time></trkpt><trkpt lat="43.7574382" lon="12.8608312"><ele>344.0</ele><time>2026-03-22T08:20:59.634Z</time></trkpt><trkpt lat="43.7573664" lon="12.8607589"><ele>344.83333333333337</ele><time>2026-03-22T08:21:00.628Z</time></trkpt><trkpt lat="43.7572903" lon="12.8606923"><ele>345.6666666666667</ele><time>2026-03-22T08:21:01.624Z</time></trkpt><trkpt lat="43.7572308" lon="12.8606373"><ele>346.5</ele><time>2026-03-22T08:21:02.626Z</time></trkpt><trkpt lat="43.7571544" lon="12.8605808"><ele>347.3333333333333</ele><time>2026-03-22T08:21:03.626Z</time></trkpt><trkpt lat="43.757072" lon="12.8605125"><ele>348.16666666666663</ele><time>2026-03-22T08:21:04.629Z</time></trkpt><trkpt lat="43.7570363" lon="12.8604099"><ele>349.0</ele><time>2026-03-22T08:21:05.632Z</time></trkpt><trkpt lat="43.7570177" lon="12.8603126"><ele>349.0</ele><time>2026-03-22T08:21:06.64Z</time></trkpt><trkpt lat="43.7569989" lon="12.8601865"><ele>349.0</ele><time>2026-03-22T08:21:07.638Z</time></trkpt><trkpt lat="43.7569815" lon="12.8600777"><ele>349.0</ele><time>2026-03-22T08:21:08.633Z</time></trkpt><trkpt lat="43.7570185" lon="12.8599339"><ele>349.0</ele><time>2026-03-22T08:21:09.628Z</time></trkpt><trkpt lat="43.7570379" lon="12.8597813"><ele>349.0</ele><time>2026-03-22T08:21:10.633Z</time></trkpt><trkpt lat="43.757068" lon="12.8596228"><ele>348.5</ele><time>2026-03-22T08:21:11.631Z</time></trkpt><trkpt lat="43.7570797" lon="12.8594504"><ele>348.0</ele><time>2026-03-22T08:21:12.632Z</time></trkpt><trkpt lat="43.7570934" lon="12.8592849"><ele>347.5</ele><time>2026-03-22T08:21:13.633Z</time></trkpt><trkpt lat="43.7571097" lon="12.8591399"><ele>347.0</ele><time>2026-03-22T08:21:14.634Z</time></trkpt><trkpt lat="43.757197" lon="12.8589436"><ele>345.0</ele><time>2026-03-22T08:21:15.641Z</time></trkpt><trkpt lat="43.757377" lon="12.8586952"><ele>343.0</ele><time>2026-03-22T08:21:16.635Z</time></trkpt><trkpt lat="43.7574003" lon="12.8585767"><ele>341.0</ele><time>2026-03-22T08:21:17.631Z</time></trkpt><trkpt lat="43.7574888" lon="12.8584348"><ele>340.25</ele><time>2026-03-22T08:21:18.628Z</time></trkpt><trkpt lat="43.7575032" lon="12.8582914"><ele>339.5</ele><time>2026-03-22T08:21:19.633Z</time></trkpt><trkpt lat="43.7575272" lon="12.8581497"><ele>338.75</ele><time>2026-03-22T08:21:20.635Z</time></trkpt><trkpt lat="43.7575385" lon="12.857966"><ele>338.0</ele><time>2026-03-22T08:21:21.631Z</time></trkpt><trkpt lat="43.7575973" lon="12.8577591"><ele>338.0</ele><time>2026-03-22T08:21:22.645Z</time></trkpt><trkpt lat="43.7576074" lon="12.8575583"><ele>338.0</ele><time>2026-03-22T08:21:23.633Z</time></trkpt><trkpt lat="43.7576482" lon="12.857383"><ele>338.0</ele><time>2026-03-22T08:21:24.638Z</time></trkpt><trkpt lat="43.7576492" lon="12.8572245"><ele>338.0</ele><time>2026-03-22T08:21:25.638Z</time></trkpt><trkpt lat="43.7576193" lon="12.8570303"><ele>338.0</ele><time>2026-03-22T08:21:26.64Z</time></trkpt><trkpt lat="43.7575978" lon="12.8568847"><ele>338.0</ele><time>2026-03-22T08:21:27.641Z</time></trkpt><trkpt lat="43.7575825" lon="12.8567464"><ele>338.0</ele><time>2026-03-22T08:21:28.646Z</time></trkpt><trkpt lat="43.7575831" lon="12.8566368"><ele>338.0</ele><time>2026-03-22T08:21:29.641Z</time></trkpt><trkpt lat="43.7575727" lon="12.8565384"><ele>338.0</ele><time>2026-03-22T08:21:30.636Z</time></trkpt><trkpt lat="43.7575326" lon="12.8564476"><ele>338.0</ele><time>2026-03-22T08:21:31.639Z</time></trkpt><trkpt lat="43.757469" lon="12.8563781"><ele>337.4</ele><time>2026-03-22T08:21:32.637Z</time></trkpt><trkpt lat="43.7573794" lon="12.8563115"><ele>336.79999999999995</ele><time>2026-03-22T08:21:33.638Z</time></trkpt><trkpt lat="43.7572783" lon="12.8562666"><ele>336.2</ele><time>2026-03-22T08:21:34.631Z</time></trkpt><trkpt lat="43.7571639" lon="12.856228"><ele>335.6</ele><time>2026-03-22T08:21:35.632Z</time></trkpt><trkpt lat="43.7570623" lon="12.8561832"><ele>335.0</ele><time>2026-03-22T08:21:36.635Z</time></trkpt><trkpt lat="43.7569443" lon="12.8561233"><ele>331.25</ele><time>2026-03-22T08:21:37.633Z</time></trkpt><trkpt lat="43.7568372" lon="12.8560422"><ele>327.5</ele><time>2026-03-22T08:21:38.638Z</time></trkpt><trkpt lat="43.7567576" lon="12.8559205"><ele>323.75</ele><time>2026-03-22T08:21:39.636Z</time></trkpt><trkpt lat="43.7566943" lon="12.8557947"><ele>320.0</ele><time>2026-03-22T08:21:40.622Z</time></trkpt><trkpt lat="43.7566381" lon="12.8556803"><ele>319.2</ele><time>2026-03-22T08:21:41.623Z</time></trkpt><trkpt lat="43.7565821" lon="12.8555832"><ele>318.4</ele><time>2026-03-22T08:21:42.631Z</time></trkpt><trkpt lat="43.7565219" lon="12.8554306"><ele>317.6</ele><time>2026-03-22T08:21:43.638Z</time></trkpt><trkpt lat="43.7564695" lon="12.8552978"><ele>316.8</ele><time>2026-03-22T08:21:44.636Z</time></trkpt><trkpt lat="43.7564068" lon="12.8551675"><ele>316.0</ele><time>2026-03-22T08:21:45.634Z</time></trkpt><trkpt lat="43.7563306" lon="12.8550209"><ele>314.0</ele><time>2026-03-22T08:21:46.639Z</time></trkpt><trkpt lat="43.7562455" lon="12.8548639"><ele>312.0</ele><time>2026-03-22T08:21:47.644Z</time></trkpt><trkpt lat="43.7561658" lon="12.8547056"><ele>310.0</ele><time>2026-03-22T08:21:48.639Z</time></trkpt><trkpt lat="43.7560835" lon="12.8545536"><ele>308.0</ele><time>2026-03-22T08:21:49.635Z</time></trkpt><trkpt lat="43.7560275" lon="12.8544212"><ele>308.0</ele><time>2026-03-22T08:21:50.627Z</time></trkpt><trkpt lat="43.7559734" lon="12.8543272"><ele>308.0</ele><time>2026-03-22T08:21:51.635Z</time></trkpt><trkpt lat="43.7559311" lon="12.8542533"><ele>308.0</ele><time>2026-03-22T08:21:52.637Z</time></trkpt><trkpt lat="43.7558195" lon="12.8541739"><ele>308.0</ele><time>2026-03-22T08:21:54.636Z</time></trkpt><trkpt lat="43.755755" lon="12.8541378"><ele>308.0</ele><time>2026-03-22T08:21:55.633Z</time></trkpt><trkpt lat="43.7556791" lon="12.8541083"><ele>308.0</ele><time>2026-03-22T08:21:56.642Z</time></trkpt><trkpt lat="43.7556087" lon="12.8540905"><ele>308.0</ele><time>2026-03-22T08:21:57.648Z</time></trkpt><trkpt lat="43.7555414" lon="12.8540937"><ele>308.0</ele><time>2026-03-22T08:21:58.638Z</time></trkpt><trkpt lat="43.7554199" lon="12.8540628"><ele>308.0</ele><time>2026-03-22T08:22:00.633Z</time></trkpt><trkpt lat="43.75536" lon="12.8540321"><ele>308.0</ele><time>2026-03-22T08:22:01.642Z</time></trkpt><trkpt lat="43.7552496" lon="12.853979"><ele>308.0</ele><time>2026-03-22T08:22:03.638Z</time></trkpt><trkpt lat="43.7551862" lon="12.8539317"><ele>308.0</ele><time>2026-03-22T08:22:04.631Z</time></trkpt><trkpt lat="43.7551343" lon="12.8538688"><ele>305.7142857142857</ele><time>2026-03-22T08:22:05.642Z</time></trkpt><trkpt lat="43.7551025" lon="12.8537852"><ele>303.42857142857144</ele><time>2026-03-22T08:22:06.637Z</time></trkpt><trkpt lat="43.7550527" lon="12.8537137"><ele>301.1428571428571</ele><time>2026-03-22T08:22:07.628Z</time></trkpt><trkpt lat="43.7550246" lon="12.8536284"><ele>298.8571428571429</ele><time>2026-03-22T08:22:08.629Z</time></trkpt><trkpt lat="43.7549722" lon="12.8535597"><ele>296.57142857142856</ele><time>2026-03-22T08:22:09.629Z</time></trkpt><trkpt lat="43.7549058" lon="12.8535248"><ele>294.2857142857143</ele><time>2026-03-22T08:22:10.631Z</time></trkpt><trkpt lat="43.7548419" lon="12.8535522"><ele>292.0</ele><time>2026-03-22T08:22:13.627Z</time></trkpt><trkpt lat="43.7547781" lon="12.8536887"><ele>292.0</ele><time>2026-03-22T08:22:14.624Z</time></trkpt><trkpt lat="43.7547202" lon="12.8537866"><ele>292.0</ele><time>2026-03-22T08:22:15.632Z</time></trkpt><trkpt lat="43.7546604" lon="12.8539017"><ele>292.0</ele><time>2026-03-22T08:22:16.623Z</time></trkpt><trkpt lat="43.7546078" lon="12.8540067"><ele>292.0</ele><time>2026-03-22T08:22:17.635Z</time></trkpt><trkpt lat="43.7545611" lon="12.8541345"><ele>292.0</ele><time>2026-03-22T08:22:18.635Z</time></trkpt><trkpt lat="43.7545359" lon="12.8542641"><ele>290.4</ele><time>2026-03-22T08:22:19.63Z</time></trkpt><trkpt lat="43.7545576" lon="12.8543762"><ele>288.79999999999995</ele><time>2026-03-22T08:22:20.633Z</time></trkpt><trkpt lat="43.754591" lon="12.8544827"><ele>287.2</ele><time>2026-03-22T08:22:21.634Z</time></trkpt><trkpt lat="43.7546612" lon="12.8545974"><ele>285.59999999999997</ele><time>2026-03-22T08:22:22.632Z</time></trkpt><trkpt lat="43.7547636" lon="12.854728"><ele>284.0</ele><time>2026-03-22T08:22:23.627Z</time></trkpt><trkpt lat="43.7547974" lon="12.8549399"><ele>284.0</ele><time>2026-03-22T08:22:24.644Z</time></trkpt><trkpt lat="43.7547686" lon="12.8551024"><ele>284.0</ele><time>2026-03-22T08:22:25.628Z</time></trkpt><trkpt lat="43.7547252" lon="12.8553058"><ele>284.0</ele><time>2026-03-22T08:22:26.629Z</time></trkpt><trkpt lat="43.75469" lon="12.8554721"><ele>284.0</ele><time>2026-03-22T08:22:27.632Z</time></trkpt><trkpt lat="43.7546292" lon="12.8556233"><ele>283.8</ele><time>2026-03-22T08:22:28.637Z</time></trkpt><trkpt lat="43.7545818" lon="12.8557441"><ele>283.59999999999997</ele><time>2026-03-22T08:22:29.627Z</time></trkpt><trkpt lat="43.7545339" lon="12.8558469"><ele>283.4</ele><time>2026-03-22T08:22:30.625Z</time></trkpt><trkpt lat="43.7544906" lon="12.8559215"><ele>283.2</ele><time>2026-03-22T08:22:31.63Z</time></trkpt><trkpt lat="43.7544038" lon="12.8559588"><ele>283.0</ele><time>2026-03-22T08:22:32.63Z</time></trkpt><trkpt lat="43.7542938" lon="12.8560061"><ele>279.8</ele><time>2026-03-22T08:22:33.631Z</time></trkpt><trkpt lat="43.754183" lon="12.8560371"><ele>276.6</ele><time>2026-03-22T08:22:34.631Z</time></trkpt><trkpt lat="43.7540842" lon="12.8560945"><ele>273.4</ele><time>2026-03-22T08:22:35.631Z</time></trkpt><trkpt lat="43.7540103" lon="12.856176"><ele>270.2</ele><time>2026-03-22T08:22:36.627Z</time></trkpt><trkpt lat="43.753948" lon="12.8562793"><ele>267.0</ele><time>2026-03-22T08:22:37.631Z</time></trkpt><trkpt lat="43.7538635" lon="12.8563918"><ele>267.0</ele><time>2026-03-22T08:22:38.632Z</time></trkpt><trkpt lat="43.7538156" lon="12.8565363"><ele>267.0</ele><time>2026-03-22T08:22:39.629Z</time></trkpt><trkpt lat="43.7537698" lon="12.8566937"><ele>267.0</ele><time>2026-03-22T08:22:40.627Z</time></trkpt><trkpt lat="43.7537375" lon="12.8568366"><ele>267.0</ele><time>2026-03-22T08:22:41.624Z</time></trkpt><trkpt lat="43.7536994" lon="12.8569706"><ele>266.6666666666667</ele><time>2026-03-22T08:22:42.626Z</time></trkpt><trkpt lat="43.7536553" lon="12.8570589"><ele>266.3333333333333</ele><time>2026-03-22T08:22:43.623Z</time></trkpt><trkpt lat="43.7536059" lon="12.8571147"><ele>266.0</ele><time>2026-03-22T08:22:44.627Z</time></trkpt><trkpt lat="43.7535179" lon="12.8571694"><ele>265.66666666666663</ele><time>2026-03-22T08:22:46.622Z</time></trkpt><trkpt lat="43.7534329" lon="12.8571362"><ele>265.3333333333333</ele><time>2026-03-22T08:22:47.626Z</time></trkpt><trkpt lat="43.7533613" lon="12.8570539"><ele>265.0</ele><time>2026-03-22T08:22:48.629Z</time></trkpt><trkpt lat="43.7533006" lon="12.8569108"><ele>261.3333333333333</ele><time>2026-03-22T08:22:49.629Z</time></trkpt><trkpt lat="43.7531931" lon="12.8567339"><ele>257.6666666666667</ele><time>2026-03-22T08:22:50.627Z</time></trkpt><trkpt lat="43.7530654" lon="12.8565793"><ele>254.0</ele><time>2026-03-22T08:22:51.626Z</time></trkpt><trkpt lat="43.7529065" lon="12.8564397"><ele>254.0</ele><time>2026-03-22T08:22:52.626Z</time></trkpt><trkpt lat="43.7527296" lon="12.8563301"><ele>254.0</ele><time>2026-03-22T08:22:53.626Z</time></trkpt><trkpt lat="43.7525907" lon="12.85624"><ele>254.0</ele><time>2026-03-22T08:22:54.629Z</time></trkpt><trkpt lat="43.7524931" lon="12.8561585"><ele>256.1666666666667</ele><time>2026-03-22T08:22:55.64Z</time></trkpt><trkpt lat="43.7524161" lon="12.8561283"><ele>258.33333333333337</ele><time>2026-03-22T08:22:56.629Z</time></trkpt><trkpt lat="43.7523482" lon="12.8561099"><ele>260.5</ele><time>2026-03-22T08:22:59.623Z</time></trkpt><trkpt lat="43.7524137" lon="12.8561468"><ele>262.6666666666667</ele><time>2026-03-22T08:23:02.63Z</time></trkpt><trkpt lat="43.7524978" lon="12.8561644"><ele>264.8333333333333</ele><time>2026-03-22T08:23:03.619Z</time></trkpt><trkpt lat="43.7525676" lon="12.856205"><ele>267.0</ele><time>2026-03-22T08:23:04.625Z</time></trkpt><trkpt lat="43.7526464" lon="12.8562432"><ele>264.4</ele><time>2026-03-22T08:23:05.628Z</time></trkpt><trkpt lat="43.7527304" lon="12.8562673"><ele>261.79999999999995</ele><time>2026-03-22T08:23:06.622Z</time></trkpt><trkpt lat="43.7528304" lon="12.8562638"><ele>259.2</ele><time>2026-03-22T08:23:07.627Z</time></trkpt><trkpt lat="43.7529137" lon="12.8562492"><ele>256.59999999999997</ele><time>2026-03-22T08:23:08.621Z</time></trkpt><trkpt lat="43.7530029" lon="12.8562183"><ele>254.0</ele><time>2026-03-22T08:23:09.622Z</time></trkpt><trkpt lat="43.7531102" lon="12.85615"><ele>254.0</ele><time>2026-03-22T08:23:11.623Z</time></trkpt><trkpt lat="43.7531887" lon="12.8560372"><ele>253.99999999999997</ele><time>2026-03-22T08:23:13.628Z</time></trkpt><trkpt lat="43.7531674" lon="12.8559114"><ele>253.99999999999997</ele><time>2026-03-22T08:23:15.627Z</time></trkpt><trkpt lat="43.7531892" lon="12.8557531"><ele>254.0</ele><time>2026-03-22T08:23:17.63Z</time></trkpt><trkpt lat="43.7531767" lon="12.8556072"><ele>254.0</ele><time>2026-03-22T08:23:18.629Z</time></trkpt><trkpt lat="43.7531259" lon="12.8554634"><ele>252.75</ele><time>2026-03-22T08:23:19.624Z</time></trkpt><trkpt lat="43.7530566" lon="12.8553012"><ele>251.5</ele><time>2026-03-22T08:23:20.624Z</time></trkpt><trkpt lat="43.7530181" lon="12.8551631"><ele>250.25</ele><time>2026-03-22T08:23:21.623Z</time></trkpt><trkpt lat="43.7529576" lon="12.8549821"><ele>249.0</ele><time>2026-03-22T08:23:22.631Z</time></trkpt><trkpt lat="43.7528936" lon="12.8547641"><ele>248.33333333333331</ele><time>2026-03-22T08:23:23.621Z</time></trkpt><trkpt lat="43.7528048" lon="12.8545203"><ele>247.66666666666666</ele><time>2026-03-22T08:23:24.627Z</time></trkpt><trkpt lat="43.7527197" lon="12.8542655"><ele>247.0</ele><time>2026-03-22T08:23:25.621Z</time></trkpt><trkpt lat="43.7526571" lon="12.8540662"><ele>243.0</ele><time>2026-03-22T08:23:26.639Z</time></trkpt><trkpt lat="43.7526184" lon="12.8538737"><ele>239.0</ele><time>2026-03-22T08:23:27.623Z</time></trkpt><trkpt lat="43.752608" lon="12.8536563"><ele>235.0</ele><time>2026-03-22T08:23:28.625Z</time></trkpt><trkpt lat="43.7525827" lon="12.8534544"><ele>233.0</ele><time>2026-03-22T08:23:29.622Z</time></trkpt><trkpt lat="43.7525679" lon="12.85327"><ele>231.0</ele><time>2026-03-22T08:23:30.628Z</time></trkpt><trkpt lat="43.7525596" lon="12.8531022"><ele>229.0</ele><time>2026-03-22T08:23:31.629Z</time></trkpt><trkpt lat="43.7525261" lon="12.8529277"><ele>227.0</ele><time>2026-03-22T08:23:32.631Z</time></trkpt><trkpt lat="43.7524735" lon="12.8527884"><ele>227.0</ele><time>2026-03-22T08:23:33.622Z</time></trkpt><trkpt lat="43.7524203" lon="12.8526553"><ele>227.0</ele><time>2026-03-22T08:23:34.625Z</time></trkpt><trkpt lat="43.7523642" lon="12.8525193"><ele>227.0</ele><time>2026-03-22T08:23:35.631Z</time></trkpt><trkpt lat="43.7523155" lon="12.8523831"><ele>227.0</ele><time>2026-03-22T08:23:36.629Z</time></trkpt><trkpt lat="43.7522726" lon="12.8522521"><ele>227.0</ele><time>2026-03-22T08:23:37.629Z</time></trkpt><trkpt lat="43.7522524" lon="12.8521342"><ele>226.39999999999998</ele><time>2026-03-22T08:23:38.63Z</time></trkpt><trkpt lat="43.75226" lon="12.8520057"><ele>225.79999999999998</ele><time>2026-03-22T08:23:39.624Z</time></trkpt><trkpt lat="43.7522876" lon="12.8518631"><ele>225.2</ele><time>2026-03-22T08:23:40.622Z</time></trkpt><trkpt lat="43.7523089" lon="12.8517116"><ele>224.6</ele><time>2026-03-22T08:23:41.622Z</time></trkpt><trkpt lat="43.7523167" lon="12.8515548"><ele>224.0</ele><time>2026-03-22T08:23:42.617Z</time></trkpt><trkpt lat="43.752335" lon="12.8514164"><ele>224.0</ele><time>2026-03-22T08:23:43.625Z</time></trkpt><trkpt lat="43.7523529" lon="12.8512711"><ele>223.99999999999997</ele><time>2026-03-22T08:23:44.628Z</time></trkpt><trkpt lat="43.7523394" lon="12.8511763"><ele>223.99999999999997</ele><time>2026-03-22T08:23:45.626Z</time></trkpt><trkpt lat="43.7522961" lon="12.8510966"><ele>224.0</ele><time>2026-03-22T08:23:46.625Z</time></trkpt><trkpt lat="43.7522443" lon="12.8510364"><ele>224.0</ele><time>2026-03-22T08:23:47.626Z</time></trkpt><trkpt lat="43.7521309" lon="12.850918"><ele>221.79999999999998</ele><time>2026-03-22T08:23:49.621Z</time></trkpt><trkpt lat="43.7520357" lon="12.8508747"><ele>219.59999999999997</ele><time>2026-03-22T08:23:50.623Z</time></trkpt><trkpt lat="43.7519321" lon="12.8508524"><ele>217.4</ele><time>2026-03-22T08:23:51.624Z</time></trkpt><trkpt lat="43.7518376" lon="12.8508165"><ele>215.2</ele><time>2026-03-22T08:23:52.623Z</time></trkpt><trkpt lat="43.7517792" lon="12.8507772"><ele>213.0</ele><time>2026-03-22T08:23:53.627Z</time></trkpt><trkpt lat="43.7516899" lon="12.8507694"><ele>213.0</ele><time>2026-03-22T08:23:54.628Z</time></trkpt><trkpt lat="43.7515986" lon="12.850783"><ele>213.0</ele><time>2026-03-22T08:23:55.626Z</time></trkpt><trkpt lat="43.7514758" lon="12.8508233"><ele>213.0</ele><time>2026-03-22T08:23:57.64Z</time></trkpt><trkpt lat="43.7514127" lon="12.850886"><ele>213.0</ele><time>2026-03-22T08:23:58.624Z</time></trkpt><trkpt lat="43.7513281" lon="12.8509319"><ele>213.0</ele><time>2026-03-22T08:23:59.626Z</time></trkpt><trkpt lat="43.7512331" lon="12.8510025"><ele>213.8</ele><time>2026-03-22T08:24:00.625Z</time></trkpt><trkpt lat="43.7511497" lon="12.8510685"><ele>214.60000000000002</ele><time>2026-03-22T08:24:01.627Z</time></trkpt><trkpt lat="43.751062" lon="12.85114"><ele>215.39999999999998</ele><time>2026-03-22T08:24:02.63Z</time></trkpt><trkpt lat="43.7509755" lon="12.8512156"><ele>216.2</ele><time>2026-03-22T08:24:03.631Z</time></trkpt><trkpt lat="43.7509016" lon="12.8512429"><ele>217.0</ele><time>2026-03-22T08:24:04.629Z</time></trkpt><trkpt lat="43.7508158" lon="12.85126"><ele>214.83333333333331</ele><time>2026-03-22T08:24:05.616Z</time></trkpt><trkpt lat="43.7507346" lon="12.8512857"><ele>212.66666666666666</ele><time>2026-03-22T08:24:06.624Z</time></trkpt><trkpt lat="43.7506551" lon="12.8512888"><ele>210.5</ele><time>2026-03-22T08:24:07.623Z</time></trkpt><trkpt lat="43.7505818" lon="12.851289"><ele>208.33333333333331</ele><time>2026-03-22T08:24:08.627Z</time></trkpt><trkpt lat="43.7504963" lon="12.8512689"><ele>206.16666666666666</ele><time>2026-03-22T08:24:09.628Z</time></trkpt><trkpt lat="43.750402" lon="12.8512357"><ele>204.0</ele><time>2026-03-22T08:24:10.626Z</time></trkpt><trkpt lat="43.7502928" lon="12.8511933"><ele>200.5</ele><time>2026-03-22T08:24:11.622Z</time></trkpt><trkpt lat="43.7501888" lon="12.851155"><ele>197.0</ele><time>2026-03-22T08:24:12.635Z</time></trkpt><trkpt lat="43.7500726" lon="12.8510962"><ele>193.5</ele><time>2026-03-22T08:24:13.631Z</time></trkpt><trkpt lat="43.7499769" lon="12.8509894"><ele>190.0</ele><time>2026-03-22T08:24:14.627Z</time></trkpt><trkpt lat="43.7498621" lon="12.8509087"><ele>185.5</ele><time>2026-03-22T08:24:15.624Z</time></trkpt><trkpt lat="43.7497481" lon="12.8508098"><ele>181.0</ele><time>2026-03-22T08:24:16.625Z</time></trkpt><trkpt lat="43.7496483" lon="12.8507296"><ele>176.5</ele><time>2026-03-22T08:24:17.627Z</time></trkpt><trkpt lat="43.7495612" lon="12.8506197"><ele>172.0</ele><time>2026-03-22T08:24:18.633Z</time></trkpt><trkpt lat="43.7494542" lon="12.8505192"><ele>171.0</ele><time>2026-03-22T08:24:19.637Z</time></trkpt><trkpt lat="43.7493651" lon="12.8504148"><ele>170.0</ele><time>2026-03-22T08:24:20.645Z</time></trkpt><trkpt lat="43.7492945" lon="12.8502764"><ele>169.0</ele><time>2026-03-22T08:24:21.64Z</time></trkpt><trkpt lat="43.7492297" lon="12.8501412"><ele>168.0</ele><time>2026-03-22T08:24:22.638Z</time></trkpt><trkpt lat="43.7491894" lon="12.8500022"><ele>168.0</ele><time>2026-03-22T08:24:23.638Z</time></trkpt><trkpt lat="43.7491739" lon="12.8498744"><ele>168.0</ele><time>2026-03-22T08:24:24.635Z</time></trkpt><trkpt lat="43.749165" lon="12.8497414"><ele>168.0</ele><time>2026-03-22T08:24:25.631Z</time></trkpt><trkpt lat="43.7491748" lon="12.8495928"><ele>168.0</ele><time>2026-03-22T08:24:26.632Z</time></trkpt><trkpt lat="43.7492086" lon="12.8494572"><ele>168.0</ele><time>2026-03-22T08:24:27.637Z</time></trkpt><trkpt lat="43.7492466" lon="12.849338"><ele>169.4</ele><time>2026-03-22T08:24:28.647Z</time></trkpt><trkpt lat="43.7492844" lon="12.8492148"><ele>170.8</ele><time>2026-03-22T08:24:29.636Z</time></trkpt><trkpt lat="43.7492854" lon="12.8491032"><ele>172.2</ele><time>2026-03-22T08:24:30.637Z</time></trkpt><trkpt lat="43.7492667" lon="12.8489975"><ele>173.6</ele><time>2026-03-22T08:24:31.636Z</time></trkpt><trkpt lat="43.7491757" lon="12.8488429"><ele>175.0</ele><time>2026-03-22T08:24:33.64Z</time></trkpt><trkpt lat="43.7490396" lon="12.8487785"><ele>175.0</ele><time>2026-03-22T08:24:35.627Z</time></trkpt><trkpt lat="43.7489678" lon="12.8487368"><ele>175.0</ele><time>2026-03-22T08:24:36.633Z</time></trkpt><trkpt lat="43.7489073" lon="12.8486678"><ele>175.0</ele><time>2026-03-22T08:24:37.636Z</time></trkpt><trkpt lat="43.7488337" lon="12.8485856"><ele>175.0</ele><time>2026-03-22T08:24:38.631Z</time></trkpt><trkpt lat="43.7487577" lon="12.8484782"><ele>175.0</ele><time>2026-03-22T08:24:39.629Z</time></trkpt><trkpt lat="43.748669" lon="12.8483609"><ele>173.5</ele><time>2026-03-22T08:24:40.632Z</time></trkpt><trkpt lat="43.7485792" lon="12.8482345"><ele>172.0</ele><time>2026-03-22T08:24:41.629Z</time></trkpt><trkpt lat="43.7484791" lon="12.8481605"><ele>170.5</ele><time>2026-03-22T08:24:42.635Z</time></trkpt><trkpt lat="43.7483766" lon="12.8480687"><ele>169.0</ele><time>2026-03-22T08:24:43.633Z</time></trkpt><trkpt lat="43.7482915" lon="12.8479732"><ele>169.0</ele><time>2026-03-22T08:24:44.631Z</time></trkpt><trkpt lat="43.7482589" lon="12.8478913"><ele>169.0</ele><time>2026-03-22T08:24:45.637Z</time></trkpt><trkpt lat="43.7482209" lon="12.8478069"><ele>169.0</ele><time>2026-03-22T08:24:46.64Z</time></trkpt><trkpt lat="43.7481661" lon="12.8476705"><ele>169.0</ele><time>2026-03-22T08:24:48.638Z</time></trkpt><trkpt lat="43.7480997" lon="12.8475521"><ele>169.0</ele><time>2026-03-22T08:24:50.627Z</time></trkpt><trkpt lat="43.7481564" lon="12.8473668"><ele>167.2</ele><time>2026-03-22T08:24:52.624Z</time></trkpt><trkpt lat="43.7482107" lon="12.8472408"><ele>165.39999999999998</ele><time>2026-03-22T08:24:53.623Z</time></trkpt><trkpt lat="43.7482456" lon="12.8471273"><ele>163.6</ele><time>2026-03-22T08:24:54.628Z</time></trkpt><trkpt lat="43.7482763" lon="12.8470048"><ele>161.8</ele><time>2026-03-22T08:24:55.631Z</time></trkpt><trkpt lat="43.7483006" lon="12.8469173"><ele>160.0</ele><time>2026-03-22T08:24:56.631Z</time></trkpt><trkpt lat="43.7483191" lon="12.8467871"><ele>156.5</ele><time>2026-03-22T08:24:57.629Z</time></trkpt><trkpt lat="43.748326" lon="12.8466248"><ele>153.0</ele><time>2026-03-22T08:24:58.633Z</time></trkpt><trkpt lat="43.7483532" lon="12.8464686"><ele>149.5</ele><time>2026-03-22T08:24:59.653Z</time></trkpt><trkpt lat="43.7484047" lon="12.846302"><ele>146.0</ele><time>2026-03-22T08:25:00.634Z</time></trkpt><trkpt lat="43.7484386" lon="12.8461294"><ele>144.5</ele><time>2026-03-22T08:25:01.637Z</time></trkpt><trkpt lat="43.7484797" lon="12.845937"><ele>143.0</ele><time>2026-03-22T08:25:02.635Z</time></trkpt><trkpt lat="43.7485039" lon="12.8457387"><ele>141.5</ele><time>2026-03-22T08:25:03.636Z</time></trkpt><trkpt lat="43.7485466" lon="12.8455395"><ele>140.0</ele><time>2026-03-22T08:25:04.635Z</time></trkpt><trkpt lat="43.7485997" lon="12.8453588"><ele>142.75</ele><time>2026-03-22T08:25:05.632Z</time></trkpt><trkpt lat="43.7486447" lon="12.8451886"><ele>145.5</ele><time>2026-03-22T08:25:06.635Z</time></trkpt><trkpt lat="43.7487186" lon="12.8450485"><ele>148.25</ele><time>2026-03-22T08:25:07.638Z</time></trkpt><trkpt lat="43.7488109" lon="12.8448964"><ele>151.0</ele><time>2026-03-22T08:25:08.637Z</time></trkpt><trkpt lat="43.7488868" lon="12.8447342"><ele>151.0</ele><time>2026-03-22T08:25:09.638Z</time></trkpt><trkpt lat="43.7489714" lon="12.8445981"><ele>151.0</ele><time>2026-03-22T08:25:10.638Z</time></trkpt><trkpt lat="43.7490672" lon="12.8444747"><ele>151.0</ele><time>2026-03-22T08:25:11.629Z</time></trkpt><trkpt lat="43.749154" lon="12.8443662"><ele>151.0</ele><time>2026-03-22T08:25:12.631Z</time></trkpt><trkpt lat="43.7492606" lon="12.8442353"><ele>152.25</ele><time>2026-03-22T08:25:13.635Z</time></trkpt><trkpt lat="43.7493376" lon="12.8440704"><ele>153.5</ele><time>2026-03-22T08:25:14.63Z</time></trkpt><trkpt lat="43.7494419" lon="12.8439036"><ele>154.75</ele><time>2026-03-22T08:25:15.623Z</time></trkpt><trkpt lat="43.7495081" lon="12.8437512"><ele>156.0</ele><time>2026-03-22T08:25:16.633Z</time></trkpt><trkpt lat="43.7495798" lon="12.8436048"><ele>150.6</ele><time>2026-03-22T08:25:17.632Z</time></trkpt><trkpt lat="43.7496249" lon="12.8434535"><ele>145.2</ele><time>2026-03-22T08:25:18.631Z</time></trkpt><trkpt lat="43.7496556" lon="12.8433033"><ele>139.8</ele><time>2026-03-22T08:25:19.624Z</time></trkpt><trkpt lat="43.7496929" lon="12.8431656"><ele>134.4</ele><time>2026-03-22T08:25:20.629Z</time></trkpt><trkpt lat="43.7497204" lon="12.8430232"><ele>129.0</ele><time>2026-03-22T08:25:21.627Z</time></trkpt><trkpt lat="43.7497381" lon="12.8429034"><ele>129.0</ele><time>2026-03-22T08:25:22.634Z</time></trkpt><trkpt lat="43.7497507" lon="12.8428178"><ele>129.0</ele><time>2026-03-22T08:25:23.624Z</time></trkpt><trkpt lat="43.7497743" lon="12.8427144"><ele>129.0</ele><time>2026-03-22T08:25:25.635Z</time></trkpt><trkpt lat="43.7497006" lon="12.8427118"><ele>129.0</ele><time>2026-03-22T08:25:36.635Z</time></trkpt><trkpt lat="43.7496262" lon="12.8426644"><ele>129.0</ele><time>2026-03-22T08:25:39.636Z</time></trkpt><trkpt lat="43.7495837" lon="12.842574"><ele>129.0</ele><time>2026-03-22T08:25:41.62Z</time></trkpt><trkpt lat="43.7495808" lon="12.8424509"><ele>128.5</ele><time>2026-03-22T08:25:43.634Z</time></trkpt><trkpt lat="43.7495796" lon="12.8422718"><ele>128.0</ele><time>2026-03-22T08:25:45.631Z</time></trkpt><trkpt lat="43.7495708" lon="12.8421679"><ele>127.5</ele><time>2026-03-22T08:25:46.632Z</time></trkpt><trkpt lat="43.7495587" lon="12.8420549"><ele>127.0</ele><time>2026-03-22T08:25:47.63Z</time></trkpt><trkpt lat="43.7495331" lon="12.8419534"><ele>126.5</ele><time>2026-03-22T08:25:48.632Z</time></trkpt><trkpt lat="43.7495052" lon="12.8418441"><ele>126.0</ele><time>2026-03-22T08:25:49.63Z</time></trkpt><trkpt lat="43.7494811" lon="12.8417583"><ele>126.0</ele><time>2026-03-22T08:25:50.629Z</time></trkpt><trkpt lat="43.7494365" lon="12.8416072"><ele>126.0</ele><time>2026-03-22T08:25:52.636Z</time></trkpt><trkpt lat="43.7494081" lon="12.8415225"><ele>126.0</ele><time>2026-03-22T08:25:53.632Z</time></trkpt><trkpt lat="43.7493707" lon="12.8414435"><ele>126.0</ele><time>2026-03-22T08:25:54.634Z</time></trkpt><trkpt lat="43.7493366" lon="12.8413596"><ele>126.0</ele><time>2026-03-22T08:25:55.631Z</time></trkpt><trkpt lat="43.7493046" lon="12.8412764"><ele>126.0</ele><time>2026-03-22T08:25:56.631Z</time></trkpt><trkpt lat="43.7492676" lon="12.8411815"><ele>127.16666666666667</ele><time>2026-03-22T08:25:57.639Z</time></trkpt><trkpt lat="43.7492164" lon="12.8410912"><ele>128.33333333333334</ele><time>2026-03-22T08:25:58.635Z</time></trkpt><trkpt lat="43.7491763" lon="12.8409918"><ele>129.5</ele><time>2026-03-22T08:25:59.633Z</time></trkpt><trkpt lat="43.7491208" lon="12.8408994"><ele>130.66666666666669</ele><time>2026-03-22T08:26:00.651Z</time></trkpt><trkpt lat="43.7490513" lon="12.8407974"><ele>131.83333333333334</ele><time>2026-03-22T08:26:01.635Z</time></trkpt><trkpt lat="43.7489849" lon="12.8407119"><ele>133.0</ele><time>2026-03-22T08:26:02.633Z</time></trkpt><trkpt lat="43.7489413" lon="12.8406239"><ele>134.33333333333334</ele><time>2026-03-22T08:26:03.63Z</time></trkpt><trkpt lat="43.7489171" lon="12.8405384"><ele>135.66666666666669</ele><time>2026-03-22T08:26:04.63Z</time></trkpt><trkpt lat="43.748925" lon="12.8404"><ele>137.0</ele><time>2026-03-22T08:26:06.623Z</time></trkpt><trkpt lat="43.7489909" lon="12.8402892"><ele>138.33333333333334</ele><time>2026-03-22T08:26:08.626Z</time></trkpt><trkpt lat="43.7490385" lon="12.840196"><ele>139.66666666666666</ele><time>2026-03-22T08:26:09.628Z</time></trkpt><trkpt lat="43.7491116" lon="12.8401138"><ele>141.0</ele><time>2026-03-22T08:26:10.624Z</time></trkpt><trkpt lat="43.7491647" lon="12.8400492"><ele>141.2</ele><time>2026-03-22T08:26:11.623Z</time></trkpt><trkpt lat="43.7492121" lon="12.839986"><ele>141.39999999999998</ele><time>2026-03-22T08:26:12.627Z</time></trkpt><trkpt lat="43.7492508" lon="12.8399083"><ele>141.6</ele><time>2026-03-22T08:26:13.629Z</time></trkpt><trkpt lat="43.7493102" lon="12.8398178"><ele>141.79999999999998</ele><time>2026-03-22T08:26:14.621Z</time></trkpt><trkpt lat="43.7493778" lon="12.8396695"><ele>142.0</ele><time>2026-03-22T08:26:16.622Z</time></trkpt><trkpt lat="43.7494412" lon="12.8395106"><ele>142.0</ele><time>2026-03-22T08:26:18.623Z</time></trkpt><trkpt lat="43.7494962" lon="12.8394216"><ele>142.0</ele><time>2026-03-22T08:26:19.625Z</time></trkpt><trkpt lat="43.7495402" lon="12.8393338"><ele>142.0</ele><time>2026-03-22T08:26:20.629Z</time></trkpt><trkpt lat="43.7495592" lon="12.8391967"><ele>142.0</ele><time>2026-03-22T08:26:22.62Z</time></trkpt><trkpt lat="43.7495589" lon="12.8391009"><ele>142.0</ele><time>2026-03-22T08:26:24.612Z</time></trkpt><trkpt lat="43.7495381" lon="12.8389848"><ele>142.0</ele><time>2026-03-22T08:26:25.612Z</time></trkpt><trkpt lat="43.749458" lon="12.8388381"><ele>142.25</ele><time>2026-03-22T08:26:27.606Z</time></trkpt><trkpt lat="43.7493883" lon="12.8387677"><ele>142.5</ele><time>2026-03-22T08:26:29.629Z</time></trkpt><trkpt lat="43.7492147" lon="12.8386773"><ele>142.75</ele><time>2026-03-22T08:26:31.642Z</time></trkpt><trkpt lat="43.7491146" lon="12.8386749"><ele>143.0</ele><time>2026-03-22T08:26:32.628Z</time></trkpt><trkpt lat="43.7490371" lon="12.838719"><ele>146.8</ele><time>2026-03-22T08:26:33.622Z</time></trkpt><trkpt lat="43.7489397" lon="12.8387137"><ele>150.60000000000002</ele><time>2026-03-22T08:26:34.625Z</time></trkpt><trkpt lat="43.7488583" lon="12.8386943"><ele>154.39999999999998</ele><time>2026-03-22T08:26:36.626Z</time></trkpt><trkpt lat="43.7487294" lon="12.8386734"><ele>158.2</ele><time>2026-03-22T08:26:37.625Z</time></trkpt><trkpt lat="43.748649" lon="12.8385941"><ele>162.0</ele><time>2026-03-22T08:26:38.626Z</time></trkpt><trkpt lat="43.7485575" lon="12.8385652"><ele>163.8</ele><time>2026-03-22T08:26:39.627Z</time></trkpt><trkpt lat="43.748421" lon="12.8386135"><ele>165.6</ele><time>2026-03-22T08:26:40.628Z</time></trkpt><trkpt lat="43.7483227" lon="12.8387057"><ele>167.4</ele><time>2026-03-22T08:26:41.623Z</time></trkpt><trkpt lat="43.7482313" lon="12.8387558"><ele>169.20000000000002</ele><time>2026-03-22T08:26:42.627Z</time></trkpt><trkpt lat="43.7481514" lon="12.8387823"><ele>171.0</ele><time>2026-03-22T08:26:43.628Z</time></trkpt><trkpt lat="43.748055" lon="12.8387865"><ele>171.0</ele><time>2026-03-22T08:26:44.624Z</time></trkpt><trkpt lat="43.7479699" lon="12.8387867"><ele>171.0</ele><time>2026-03-22T08:26:45.62Z</time></trkpt><trkpt lat="43.7478512" lon="12.838807"><ele>171.0</ele><time>2026-03-22T08:26:47.613Z</time></trkpt><trkpt lat="43.7477609" lon="12.838781"><ele>171.0</ele><time>2026-03-22T08:26:49.601Z</time></trkpt><trkpt lat="43.7476424" lon="12.8388305"><ele>171.0</ele><time>2026-03-22T08:26:51.619Z</time></trkpt><trkpt lat="43.7475229" lon="12.8387581"><ele>177.66666666666666</ele><time>2026-03-22T08:26:52.617Z</time></trkpt><trkpt lat="43.7474012" lon="12.8387501"><ele>184.33333333333331</ele><time>2026-03-22T08:26:53.616Z</time></trkpt><trkpt lat="43.747202" lon="12.838733"><ele>191.0</ele><time>2026-03-22T08:26:54.626Z</time></trkpt><trkpt lat="43.7469978" lon="12.8386684"><ele>192.0</ele><time>2026-03-22T08:26:55.625Z</time></trkpt><trkpt lat="43.7468293" lon="12.8386154"><ele>193.0</ele><time>2026-03-22T08:26:56.624Z</time></trkpt><trkpt lat="43.7467281" lon="12.8386196"><ele>194.0</ele><time>2026-03-22T08:26:57.623Z</time></trkpt><trkpt lat="43.7465954" lon="12.838657"><ele>195.0</ele><time>2026-03-22T08:26:58.63Z</time></trkpt><trkpt lat="43.7464493" lon="12.8386403"><ele>195.0</ele><time>2026-03-22T08:26:59.627Z</time></trkpt><trkpt lat="43.7463121" lon="12.8386572"><ele>195.0</ele><time>2026-03-22T08:27:00.614Z</time></trkpt><trkpt lat="43.7461644" lon="12.8387247"><ele>195.0</ele><time>2026-03-22T08:27:01.619Z</time></trkpt><trkpt lat="43.7460448" lon="12.8387339"><ele>195.0</ele><time>2026-03-22T08:27:02.632Z</time></trkpt><trkpt lat="43.7458442" lon="12.8385678"><ele>196.8</ele><time>2026-03-22T08:27:03.624Z</time></trkpt><trkpt lat="43.7457196" lon="12.8384253"><ele>198.6</ele><time>2026-03-22T08:27:04.631Z</time></trkpt><trkpt lat="43.7456606" lon="12.8383502"><ele>200.39999999999998</ele><time>2026-03-22T08:27:05.622Z</time></trkpt><trkpt lat="43.7456022" lon="12.8382983"><ele>202.2</ele><time>2026-03-22T08:27:06.627Z</time></trkpt><trkpt lat="43.7455336" lon="12.8382229"><ele>204.0</ele><time>2026-03-22T08:27:07.62Z</time></trkpt><trkpt lat="43.7454657" lon="12.8381689"><ele>204.0</ele><time>2026-03-22T08:27:08.632Z</time></trkpt><trkpt lat="43.7453959" lon="12.8380949"><ele>204.0</ele><time>2026-03-22T08:27:09.628Z</time></trkpt><trkpt lat="43.7453183" lon="12.8379643"><ele>204.0</ele><time>2026-03-22T08:27:11.628Z</time></trkpt><trkpt lat="43.745253" lon="12.837917"><ele>204.0</ele><time>2026-03-22T08:27:12.632Z</time></trkpt><trkpt lat="43.7451678" lon="12.8378043"><ele>204.0</ele><time>2026-03-22T08:27:14.629Z</time></trkpt><trkpt lat="43.7451087" lon="12.8377591"><ele>204.83333333333334</ele><time>2026-03-22T08:27:15.625Z</time></trkpt><trkpt lat="43.7450409" lon="12.837719"><ele>205.66666666666669</ele><time>2026-03-22T08:27:16.628Z</time></trkpt><trkpt lat="43.7449608" lon="12.8377025"><ele>206.5</ele><time>2026-03-22T08:27:17.619Z</time></trkpt><trkpt lat="43.7449162" lon="12.8376214"><ele>207.33333333333334</ele><time>2026-03-22T08:27:18.625Z</time></trkpt><trkpt lat="43.7448644" lon="12.837534"><ele>208.16666666666669</ele><time>2026-03-22T08:27:19.625Z</time></trkpt><trkpt lat="43.744808" lon="12.8374378"><ele>209.0</ele><time>2026-03-22T08:27:20.624Z</time></trkpt><trkpt lat="43.7447565" lon="12.8373431"><ele>212.0</ele><time>2026-03-22T08:27:21.621Z</time></trkpt><trkpt lat="43.7447263" lon="12.8371956"><ele>215.0</ele><time>2026-03-22T08:27:22.63Z</time></trkpt><trkpt lat="43.7446993" lon="12.8370078"><ele>218.0</ele><time>2026-03-22T08:27:23.629Z</time></trkpt><trkpt lat="43.7446711" lon="12.8368135"><ele>221.0</ele><time>2026-03-22T08:27:24.623Z</time></trkpt><trkpt lat="43.7446512" lon="12.836616"><ele>222.25</ele><time>2026-03-22T08:27:25.631Z</time></trkpt><trkpt lat="43.7446043" lon="12.8364409"><ele>223.5</ele><time>2026-03-22T08:27:26.634Z</time></trkpt><trkpt lat="43.74453" lon="12.8363109"><ele>224.75</ele><time>2026-03-22T08:27:27.63Z</time></trkpt><trkpt lat="43.7444334" lon="12.8361301"><ele>226.0</ele><time>2026-03-22T08:27:28.628Z</time></trkpt><trkpt lat="43.7443589" lon="12.8359448"><ele>231.25</ele><time>2026-03-22T08:27:29.637Z</time></trkpt><trkpt lat="43.7442763" lon="12.8357642"><ele>236.5</ele><time>2026-03-22T08:27:30.638Z</time></trkpt><trkpt lat="43.7442056" lon="12.8356013"><ele>241.75</ele><time>2026-03-22T08:27:31.629Z</time></trkpt><trkpt lat="43.7441362" lon="12.8354567"><ele>247.0</ele><time>2026-03-22T08:27:32.632Z</time></trkpt><trkpt lat="43.7440776" lon="12.8353131"><ele>247.0</ele><time>2026-03-22T08:27:33.647Z</time></trkpt><trkpt lat="43.7440173" lon="12.8351808"><ele>247.0</ele><time>2026-03-22T08:27:34.635Z</time></trkpt><trkpt lat="43.7439702" lon="12.8350609"><ele>247.0</ele><time>2026-03-22T08:27:35.626Z</time></trkpt><trkpt lat="43.7439071" lon="12.8349385"><ele>247.0</ele><time>2026-03-22T08:27:36.633Z</time></trkpt><trkpt lat="43.7438457" lon="12.834795"><ele>247.0</ele><time>2026-03-22T08:27:37.634Z</time></trkpt><trkpt lat="43.7438036" lon="12.8346461"><ele>248.5</ele><time>2026-03-22T08:27:38.631Z</time></trkpt><trkpt lat="43.7437656" lon="12.8345078"><ele>250.0</ele><time>2026-03-22T08:27:39.639Z</time></trkpt><trkpt lat="43.7437097" lon="12.8343766"><ele>251.5</ele><time>2026-03-22T08:27:40.63Z</time></trkpt><trkpt lat="43.7436356" lon="12.8342265"><ele>253.0</ele><time>2026-03-22T08:27:41.629Z</time></trkpt><trkpt lat="43.7435818" lon="12.8341058"><ele>254.99999999999997</ele><time>2026-03-22T08:27:42.628Z</time></trkpt><trkpt lat="43.7435439" lon="12.8340225"><ele>257.0</ele><time>2026-03-22T08:27:43.63Z</time></trkpt><trkpt lat="43.7435255" lon="12.8339251"><ele>259.0</ele><time>2026-03-22T08:27:44.634Z</time></trkpt><trkpt lat="43.7434771" lon="12.83385"><ele>261.0</ele><time>2026-03-22T08:27:45.632Z</time></trkpt><trkpt lat="43.7434317" lon="12.8337653"><ele>263.0</ele><time>2026-03-22T08:27:46.636Z</time></trkpt><trkpt lat="43.7433982" lon="12.8336689"><ele>265.0</ele><time>2026-03-22T08:27:47.635Z</time></trkpt><trkpt lat="43.7433495" lon="12.8335226"><ele>265.0</ele><time>2026-03-22T08:27:49.624Z</time></trkpt><trkpt lat="43.7432773" lon="12.8334004"><ele>265.0</ele><time>2026-03-22T08:27:51.633Z</time></trkpt><trkpt lat="43.7432086" lon="12.833374"><ele>265.0</ele><time>2026-03-22T08:27:53.636Z</time></trkpt><trkpt lat="43.7431442" lon="12.8334525"><ele>265.0</ele><time>2026-03-22T08:27:55.631Z</time></trkpt><trkpt lat="43.7431014" lon="12.8335173"><ele>265.0</ele><time>2026-03-22T08:27:56.636Z</time></trkpt><trkpt lat="43.743041" lon="12.8335838"><ele>265.0</ele><time>2026-03-22T08:27:57.636Z</time></trkpt><trkpt lat="43.7429513" lon="12.8336406"><ele>265.0</ele><time>2026-03-22T08:27:58.627Z</time></trkpt><trkpt lat="43.7428499" lon="12.8336813"><ele>265.0</ele><time>2026-03-22T08:27:59.632Z</time></trkpt><trkpt lat="43.7427433" lon="12.8336958"><ele>265.0</ele><time>2026-03-22T08:28:00.63Z</time></trkpt><trkpt lat="43.7425996" lon="12.8337074"><ele>265.0</ele><time>2026-03-22T08:28:01.632Z</time></trkpt><trkpt lat="43.7424593" lon="12.8337166"><ele>264.75</ele><time>2026-03-22T08:28:02.625Z</time></trkpt><trkpt lat="43.7423258" lon="12.8337274"><ele>264.5</ele><time>2026-03-22T08:28:03.621Z</time></trkpt><trkpt lat="43.7422153" lon="12.8337231"><ele>264.25</ele><time>2026-03-22T08:28:04.65Z</time></trkpt><trkpt lat="43.7421091" lon="12.8337115"><ele>264.0</ele><time>2026-03-22T08:28:05.627Z</time></trkpt><trkpt lat="43.7419979" lon="12.8336976"><ele>264.0</ele><time>2026-03-22T08:28:06.633Z</time></trkpt><trkpt lat="43.7418845" lon="12.8336951"><ele>264.0</ele><time>2026-03-22T08:28:07.631Z</time></trkpt><trkpt lat="43.741774" lon="12.8336949"><ele>264.0</ele><time>2026-03-22T08:28:08.637Z</time></trkpt><trkpt lat="43.7416594" lon="12.8336865"><ele>264.0</ele><time>2026-03-22T08:28:09.632Z</time></trkpt><trkpt lat="43.7415475" lon="12.8336776"><ele>261.75</ele><time>2026-03-22T08:28:10.632Z</time></trkpt><trkpt lat="43.7414298" lon="12.8336597"><ele>259.5</ele><time>2026-03-22T08:28:11.633Z</time></trkpt><trkpt lat="43.7413023" lon="12.8336614"><ele>257.25</ele><time>2026-03-22T08:28:12.633Z</time></trkpt><trkpt lat="43.7411883" lon="12.8336771"><ele>255.0</ele><time>2026-03-22T08:28:13.628Z</time></trkpt><trkpt lat="43.7410853" lon="12.8336732"><ele>253.25</ele><time>2026-03-22T08:28:14.632Z</time></trkpt><trkpt lat="43.7409779" lon="12.8337374"><ele>251.5</ele><time>2026-03-22T08:28:15.619Z</time></trkpt><trkpt lat="43.7408841" lon="12.8338333"><ele>249.75</ele><time>2026-03-22T08:28:16.627Z</time></trkpt><trkpt lat="43.7407821" lon="12.8339316"><ele>248.0</ele><time>2026-03-22T08:28:17.626Z</time></trkpt><trkpt lat="43.7406939" lon="12.8340078"><ele>248.0</ele><time>2026-03-22T08:28:18.632Z</time></trkpt><trkpt lat="43.7405895" lon="12.8341142"><ele>248.0</ele><time>2026-03-22T08:28:19.629Z</time></trkpt><trkpt lat="43.7404838" lon="12.8342063"><ele>248.0</ele><time>2026-03-22T08:28:20.625Z</time></trkpt><trkpt lat="43.7403315" lon="12.8342807"><ele>248.0</ele><time>2026-03-22T08:28:21.631Z</time></trkpt><trkpt lat="43.7401766" lon="12.8343334"><ele>243.66666666666669</ele><time>2026-03-22T08:28:22.633Z</time></trkpt><trkpt lat="43.7400005" lon="12.8343625"><ele>239.33333333333331</ele><time>2026-03-22T08:28:23.624Z</time></trkpt><trkpt lat="43.7398156" lon="12.8343923"><ele>235.0</ele><time>2026-03-22T08:28:24.629Z</time></trkpt><trkpt lat="43.7396613" lon="12.8344077"><ele>235.0</ele><time>2026-03-22T08:28:25.628Z</time></trkpt><trkpt lat="43.7395096" lon="12.8344214"><ele>235.0</ele><time>2026-03-22T08:28:26.626Z</time></trkpt><trkpt lat="43.7393426" lon="12.8344476"><ele>235.0</ele><time>2026-03-22T08:28:27.622Z</time></trkpt><trkpt lat="43.7391903" lon="12.8344596"><ele>235.0</ele><time>2026-03-22T08:28:28.633Z</time></trkpt><trkpt lat="43.7390408" lon="12.8344424"><ele>235.0</ele><time>2026-03-22T08:28:29.637Z</time></trkpt><trkpt lat="43.7388887" lon="12.8344092"><ele>235.0</ele><time>2026-03-22T08:28:30.633Z</time></trkpt><trkpt lat="43.7387754" lon="12.8343626"><ele>235.0</ele><time>2026-03-22T08:28:31.635Z</time></trkpt><trkpt lat="43.7386605" lon="12.8342859"><ele>235.8</ele><time>2026-03-22T08:28:32.64Z</time></trkpt><trkpt lat="43.738558" lon="12.8342316"><ele>236.6</ele><time>2026-03-22T08:28:33.63Z</time></trkpt><trkpt lat="43.7384707" lon="12.8341983"><ele>237.39999999999998</ele><time>2026-03-22T08:28:34.624Z</time></trkpt><trkpt lat="43.7383622" lon="12.8341768"><ele>238.2</ele><time>2026-03-22T08:28:35.643Z</time></trkpt><trkpt lat="43.7382692" lon="12.8342557"><ele>239.0</ele><time>2026-03-22T08:28:36.629Z</time></trkpt><trkpt lat="43.7381501" lon="12.8343707"><ele>240.75</ele><time>2026-03-22T08:28:37.63Z</time></trkpt><trkpt lat="43.7380298" lon="12.8344684"><ele>242.5</ele><time>2026-03-22T08:28:38.624Z</time></trkpt><trkpt lat="43.7378917" lon="12.8345691"><ele>244.25</ele><time>2026-03-22T08:28:39.627Z</time></trkpt><trkpt lat="43.73778" lon="12.8346589"><ele>246.0</ele><time>2026-03-22T08:28:40.623Z</time></trkpt><trkpt lat="43.737677" lon="12.8347444"><ele>246.0</ele><time>2026-03-22T08:28:41.63Z</time></trkpt><trkpt lat="43.7375983" lon="12.8348211"><ele>246.0</ele><time>2026-03-22T08:28:42.631Z</time></trkpt><trkpt lat="43.7375126" lon="12.8349185"><ele>246.0</ele><time>2026-03-22T08:28:43.629Z</time></trkpt><trkpt lat="43.7374179" lon="12.8350405"><ele>246.0</ele><time>2026-03-22T08:28:44.63Z</time></trkpt><trkpt lat="43.7373412" lon="12.8351698"><ele>246.0</ele><time>2026-03-22T08:28:45.628Z</time></trkpt><trkpt lat="43.7372547" lon="12.8352761"><ele>246.0</ele><time>2026-03-22T08:28:46.632Z</time></trkpt><trkpt lat="43.7371694" lon="12.8353842"><ele>246.0</ele><time>2026-03-22T08:28:47.631Z</time></trkpt><trkpt lat="43.7370647" lon="12.8354853"><ele>246.0</ele><time>2026-03-22T08:28:48.629Z</time></trkpt><trkpt lat="43.7369678" lon="12.8355791"><ele>245.8</ele><time>2026-03-22T08:28:49.628Z</time></trkpt><trkpt lat="43.7368628" lon="12.8356694"><ele>245.60000000000002</ele><time>2026-03-22T08:28:50.634Z</time></trkpt><trkpt lat="43.7367776" lon="12.8357364"><ele>245.4</ele><time>2026-03-22T08:28:51.633Z</time></trkpt><trkpt lat="43.7366865" lon="12.8357976"><ele>245.2</ele><time>2026-03-22T08:28:52.632Z</time></trkpt><trkpt lat="43.7365866" lon="12.8358661"><ele>245.0</ele><time>2026-03-22T08:28:53.635Z</time></trkpt><trkpt lat="43.7364877" lon="12.8359283"><ele>245.5</ele><time>2026-03-22T08:28:54.623Z</time></trkpt><trkpt lat="43.7363656" lon="12.8359729"><ele>246.0</ele><time>2026-03-22T08:28:55.631Z</time></trkpt><trkpt lat="43.7362443" lon="12.8359902"><ele>246.5</ele><time>2026-03-22T08:28:56.627Z</time></trkpt><trkpt lat="43.7361407" lon="12.8360168"><ele>247.0</ele><time>2026-03-22T08:28:57.634Z</time></trkpt><trkpt lat="43.7360257" lon="12.8360049"><ele>247.0</ele><time>2026-03-22T08:28:58.628Z</time></trkpt><trkpt lat="43.7359104" lon="12.8359835"><ele>247.0</ele><time>2026-03-22T08:28:59.624Z</time></trkpt><trkpt lat="43.7358269" lon="12.8359375"><ele>247.0</ele><time>2026-03-22T08:29:00.627Z</time></trkpt><trkpt lat="43.7357155" lon="12.8358963"><ele>247.0</ele><time>2026-03-22T08:29:01.623Z</time></trkpt><trkpt lat="43.7356034" lon="12.8358792"><ele>247.0</ele><time>2026-03-22T08:29:02.624Z</time></trkpt><trkpt lat="43.7355269" lon="12.8357897"><ele>249.0</ele><time>2026-03-22T08:29:03.618Z</time></trkpt><trkpt lat="43.7354512" lon="12.8356824"><ele>251.0</ele><time>2026-03-22T08:29:04.624Z</time></trkpt><trkpt lat="43.7353663" lon="12.8356056"><ele>253.0</ele><time>2026-03-22T08:29:05.619Z</time></trkpt><trkpt lat="43.7353004" lon="12.8354672"><ele>255.0</ele><time>2026-03-22T08:29:06.638Z</time></trkpt><trkpt lat="43.7352048" lon="12.8352693"><ele>255.4</ele><time>2026-03-22T08:29:07.628Z</time></trkpt><trkpt lat="43.7351244" lon="12.835048"><ele>255.8</ele><time>2026-03-22T08:29:08.631Z</time></trkpt><trkpt lat="43.7350793" lon="12.8349651"><ele>256.2</ele><time>2026-03-22T08:29:09.626Z</time></trkpt><trkpt lat="43.7350325" lon="12.8348905"><ele>256.6</ele><time>2026-03-22T08:29:10.633Z</time></trkpt><trkpt lat="43.7349991" lon="12.8348055"><ele>257.0</ele><time>2026-03-22T08:29:11.635Z</time></trkpt><trkpt lat="43.7349777" lon="12.8346855"><ele>257.0</ele><time>2026-03-22T08:29:12.628Z</time></trkpt><trkpt lat="43.7349678" lon="12.8345428"><ele>257.0</ele><time>2026-03-22T08:29:13.631Z</time></trkpt><trkpt lat="43.7349989" lon="12.8343588"><ele>257.0</ele><time>2026-03-22T08:29:14.634Z</time></trkpt><trkpt lat="43.7350325" lon="12.8341873"><ele>257.0</ele><time>2026-03-22T08:29:15.635Z</time></trkpt><trkpt lat="43.7350685" lon="12.834043"><ele>256.8</ele><time>2026-03-22T08:29:16.631Z</time></trkpt><trkpt lat="43.7351197" lon="12.8339123"><ele>256.6</ele><time>2026-03-22T08:29:17.631Z</time></trkpt><trkpt lat="43.7351677" lon="12.8337587"><ele>256.40000000000003</ele><time>2026-03-22T08:29:18.621Z</time></trkpt><trkpt lat="43.7352091" lon="12.8336263"><ele>256.2</ele><time>2026-03-22T08:29:19.622Z</time></trkpt><trkpt lat="43.7352297" lon="12.833514"><ele>256.0</ele><time>2026-03-22T08:29:20.627Z</time></trkpt><trkpt lat="43.7352356" lon="12.8333963"><ele>252.60000000000002</ele><time>2026-03-22T08:29:21.628Z</time></trkpt><trkpt lat="43.7352547" lon="12.8332387"><ele>249.20000000000002</ele><time>2026-03-22T08:29:22.629Z</time></trkpt><trkpt lat="43.735292" lon="12.833109"><ele>245.79999999999998</ele><time>2026-03-22T08:29:23.628Z</time></trkpt><trkpt lat="43.7353552" lon="12.8329772"><ele>242.39999999999998</ele><time>2026-03-22T08:29:24.628Z</time></trkpt><trkpt lat="43.735378" lon="12.8328773"><ele>239.0</ele><time>2026-03-22T08:29:25.629Z</time></trkpt><trkpt lat="43.7353243" lon="12.8327025"><ele>237.83333333333334</ele><time>2026-03-22T08:29:27.624Z</time></trkpt><trkpt lat="43.735251" lon="12.832613"><ele>236.66666666666669</ele><time>2026-03-22T08:29:28.625Z</time></trkpt><trkpt lat="43.735179" lon="12.832525"><ele>235.5</ele><time>2026-03-22T08:29:29.625Z</time></trkpt><trkpt lat="43.7351085" lon="12.8324426"><ele>234.33333333333331</ele><time>2026-03-22T08:29:30.615Z</time></trkpt><trkpt lat="43.7350422" lon="12.8323544"><ele>233.16666666666666</ele><time>2026-03-22T08:29:31.621Z</time></trkpt><trkpt lat="43.7349868" lon="12.8322978"><ele>232.0</ele><time>2026-03-22T08:29:32.625Z</time></trkpt><trkpt lat="43.7349443" lon="12.8322323"><ele>235.39999999999998</ele><time>2026-03-22T08:29:33.623Z</time></trkpt><trkpt lat="43.7348976" lon="12.8321388"><ele>238.79999999999998</ele><time>2026-03-22T08:29:34.629Z</time></trkpt><trkpt lat="43.7348024" lon="12.8320463"><ele>242.2</ele><time>2026-03-22T08:29:36.633Z</time></trkpt><trkpt lat="43.7347689" lon="12.8319391"><ele>245.6</ele><time>2026-03-22T08:29:38.639Z</time></trkpt><trkpt lat="43.7347587" lon="12.8318432"><ele>249.0</ele><time>2026-03-22T08:29:39.631Z</time></trkpt><trkpt lat="43.7347508" lon="12.8316717"><ele>249.0</ele><time>2026-03-22T08:29:41.627Z</time></trkpt><trkpt lat="43.7347766" lon="12.8315478"><ele>248.99999999999997</ele><time>2026-03-22T08:29:43.62Z</time></trkpt><trkpt lat="43.734782" lon="12.831457"><ele>248.99999999999997</ele><time>2026-03-22T08:29:44.62Z</time></trkpt><trkpt lat="43.7347884" lon="12.8313185"><ele>249.0</ele><time>2026-03-22T08:29:46.652Z</time></trkpt><trkpt lat="43.734834" lon="12.8311965"><ele>249.0</ele><time>2026-03-22T08:29:48.667Z</time></trkpt><trkpt lat="43.7348049" lon="12.8310323"><ele>249.0</ele><time>2026-03-22T08:29:50.664Z</time></trkpt><trkpt lat="43.7347372" lon="12.8309844"><ele>248.99999999999997</ele><time>2026-03-22T08:29:51.667Z</time></trkpt><trkpt lat="43.7346485" lon="12.8309327"><ele>248.99999999999997</ele><time>2026-03-22T08:29:52.678Z</time></trkpt><trkpt lat="43.7345465" lon="12.8308987"><ele>249.0</ele><time>2026-03-22T08:29:53.689Z</time></trkpt><trkpt lat="43.734445" lon="12.8308757"><ele>249.0</ele><time>2026-03-22T08:29:54.688Z</time></trkpt><trkpt lat="43.7343433" lon="12.8308445"><ele>247.39999999999998</ele><time>2026-03-22T08:29:55.681Z</time></trkpt><trkpt lat="43.7342366" lon="12.8308057"><ele>245.79999999999998</ele><time>2026-03-22T08:29:56.691Z</time></trkpt><trkpt lat="43.7341388" lon="12.8307568"><ele>244.20000000000002</ele><time>2026-03-22T08:29:57.688Z</time></trkpt><trkpt lat="43.7340476" lon="12.830717"><ele>242.60000000000002</ele><time>2026-03-22T08:29:58.693Z</time></trkpt><trkpt lat="43.7339483" lon="12.8306851"><ele>241.0</ele><time>2026-03-22T08:29:59.686Z</time></trkpt><trkpt lat="43.7338513" lon="12.8306555"><ele>241.0</ele><time>2026-03-22T08:30:00.698Z</time></trkpt><trkpt lat="43.7337349" lon="12.83065"><ele>241.0</ele><time>2026-03-22T08:30:01.679Z</time></trkpt><trkpt lat="43.7336216" lon="12.8306399"><ele>241.0</ele><time>2026-03-22T08:30:02.689Z</time></trkpt><trkpt lat="43.7335121" lon="12.8306347"><ele>241.0</ele><time>2026-03-22T08:30:03.685Z</time></trkpt><trkpt lat="43.7333992" lon="12.8306285"><ele>238.60000000000002</ele><time>2026-03-22T08:30:04.686Z</time></trkpt><trkpt lat="43.7332968" lon="12.8306167"><ele>236.20000000000002</ele><time>2026-03-22T08:30:05.675Z</time></trkpt><trkpt lat="43.733195" lon="12.8305973"><ele>233.79999999999998</ele><time>2026-03-22T08:30:06.682Z</time></trkpt><trkpt lat="43.7331077" lon="12.8305445"><ele>231.39999999999998</ele><time>2026-03-22T08:30:07.684Z</time></trkpt><trkpt lat="43.7330279" lon="12.8304637"><ele>229.0</ele><time>2026-03-22T08:30:08.7Z</time></trkpt><trkpt lat="43.7329445" lon="12.8303833"><ele>229.0</ele><time>2026-03-22T08:30:09.681Z</time></trkpt><trkpt lat="43.7328574" lon="12.8303406"><ele>228.99999999999997</ele><time>2026-03-22T08:30:10.701Z</time></trkpt><trkpt lat="43.732768" lon="12.8303006"><ele>228.99999999999997</ele><time>2026-03-22T08:30:11.67Z</time></trkpt><trkpt lat="43.7326649" lon="12.8302244"><ele>229.0</ele><time>2026-03-22T08:30:13.693Z</time></trkpt><trkpt lat="43.7325598" lon="12.8302003"><ele>229.0</ele><time>2026-03-22T08:30:15.695Z</time></trkpt><trkpt lat="43.7325752" lon="12.8301151"><ele>226.99999999999997</ele><time>2026-03-22T08:30:19.685Z</time></trkpt><trkpt lat="43.7326211" lon="12.8299813"><ele>225.0</ele><time>2026-03-22T08:30:21.679Z</time></trkpt><trkpt lat="43.7326232" lon="12.8298792"><ele>223.0</ele><time>2026-03-22T08:30:23.683Z</time></trkpt><trkpt lat="43.7326147" lon="12.8297817"><ele>221.0</ele><time>2026-03-22T08:30:25.678Z</time></trkpt><trkpt lat="43.7326111" lon="12.8296808"><ele>218.99999999999997</ele><time>2026-03-22T08:30:27.68Z</time></trkpt><trkpt lat="43.7326268" lon="12.8295223"><ele>217.0</ele><time>2026-03-22T08:30:29.674Z</time></trkpt><trkpt lat="43.7325961" lon="12.8294224"><ele>216.99999999999997</ele><time>2026-03-22T08:30:30.682Z</time></trkpt><trkpt lat="43.7325518" lon="12.8293318"><ele>217.0</ele><time>2026-03-22T08:30:31.674Z</time></trkpt><trkpt lat="43.7325139" lon="12.8292495"><ele>217.0</ele><time>2026-03-22T08:30:32.672Z</time></trkpt><trkpt lat="43.7324728" lon="12.8291626"><ele>217.0</ele><time>2026-03-22T08:30:33.667Z</time></trkpt><trkpt lat="43.732434" lon="12.8290823"><ele>216.99999999999997</ele><time>2026-03-22T08:30:34.677Z</time></trkpt><trkpt lat="43.7323914" lon="12.8289864"><ele>217.0</ele><time>2026-03-22T08:30:35.683Z</time></trkpt><trkpt lat="43.7323505" lon="12.828898"><ele>216.16666666666666</ele><time>2026-03-22T08:30:36.686Z</time></trkpt><trkpt lat="43.7322953" lon="12.8287912"><ele>215.33333333333331</ele><time>2026-03-22T08:30:37.683Z</time></trkpt><trkpt lat="43.732243" lon="12.8286995"><ele>214.5</ele><time>2026-03-22T08:30:38.679Z</time></trkpt><trkpt lat="43.7321853" lon="12.8286113"><ele>213.66666666666669</ele><time>2026-03-22T08:30:39.698Z</time></trkpt><trkpt lat="43.7321266" lon="12.8285444"><ele>212.83333333333334</ele><time>2026-03-22T08:30:40.681Z</time></trkpt><trkpt lat="43.7320638" lon="12.8284605"><ele>212.0</ele><time>2026-03-22T08:30:41.681Z</time></trkpt><trkpt lat="43.7320231" lon="12.8283841"><ele>212.39999999999998</ele><time>2026-03-22T08:30:42.675Z</time></trkpt><trkpt lat="43.7319773" lon="12.8282698"><ele>212.79999999999998</ele><time>2026-03-22T08:30:44.689Z</time></trkpt><trkpt lat="43.7319255" lon="12.8281746"><ele>213.2</ele><time>2026-03-22T08:30:46.682Z</time></trkpt><trkpt lat="43.7318555" lon="12.8280506"><ele>213.6</ele><time>2026-03-22T08:30:48.677Z</time></trkpt><trkpt lat="43.7317829" lon="12.8279713"><ele>214.0</ele><time>2026-03-22T08:30:50.684Z</time></trkpt><trkpt lat="43.7317102" lon="12.8279195"><ele>213.99999999999997</ele><time>2026-03-22T08:30:52.67Z</time></trkpt><trkpt lat="43.731623" lon="12.8278813"><ele>214.0</ele><time>2026-03-22T08:30:54.67Z</time></trkpt><trkpt lat="43.7315597" lon="12.8278308"><ele>214.0</ele><time>2026-03-22T08:30:55.671Z</time></trkpt><trkpt lat="43.7315008" lon="12.827777"><ele>214.0</ele><time>2026-03-22T08:30:56.67Z</time></trkpt><trkpt lat="43.7314453" lon="12.8276936"><ele>213.99999999999997</ele><time>2026-03-22T08:30:57.679Z</time></trkpt><trkpt lat="43.731395" lon="12.8275686"><ele>214.0</ele><time>2026-03-22T08:30:58.675Z</time></trkpt><trkpt lat="43.7313541" lon="12.8274466"><ele>211.2</ele><time>2026-03-22T08:30:59.682Z</time></trkpt><trkpt lat="43.7312989" lon="12.8273795"><ele>208.39999999999998</ele><time>2026-03-22T08:31:00.669Z</time></trkpt><trkpt lat="43.7312325" lon="12.8272542"><ele>205.6</ele><time>2026-03-22T08:31:01.676Z</time></trkpt><trkpt lat="43.7311855" lon="12.8271316"><ele>202.8</ele><time>2026-03-22T08:31:02.667Z</time></trkpt><trkpt lat="43.7311314" lon="12.8270168"><ele>200.0</ele><time>2026-03-22T08:31:03.674Z</time></trkpt><trkpt lat="43.7310937" lon="12.8268849"><ele>198.6</ele><time>2026-03-22T08:31:04.675Z</time></trkpt><trkpt lat="43.7310558" lon="12.8267477"><ele>197.2</ele><time>2026-03-22T08:31:05.671Z</time></trkpt><trkpt lat="43.7310173" lon="12.8266226"><ele>195.8</ele><time>2026-03-22T08:31:06.675Z</time></trkpt><trkpt lat="43.7309712" lon="12.8264896"><ele>194.4</ele><time>2026-03-22T08:31:07.672Z</time></trkpt><trkpt lat="43.7309135" lon="12.8263507"><ele>193.0</ele><time>2026-03-22T08:31:08.672Z</time></trkpt><trkpt lat="43.7308588" lon="12.8262199"><ele>193.0</ele><time>2026-03-22T08:31:09.669Z</time></trkpt><trkpt lat="43.7308077" lon="12.8260947"><ele>193.0</ele><time>2026-03-22T08:31:10.684Z</time></trkpt><trkpt lat="43.7307709" lon="12.8259785"><ele>193.0</ele><time>2026-03-22T08:31:11.677Z</time></trkpt><trkpt lat="43.7307417" lon="12.825842"><ele>193.0</ele><time>2026-03-22T08:31:12.677Z</time></trkpt><trkpt lat="43.7307072" lon="12.8257265"><ele>193.0</ele><time>2026-03-22T08:31:13.662Z</time></trkpt><trkpt lat="43.7306529" lon="12.8256125"><ele>190.4</ele><time>2026-03-22T08:31:14.681Z</time></trkpt><trkpt lat="43.73059" lon="12.8255492"><ele>187.8</ele><time>2026-03-22T08:31:15.679Z</time></trkpt><trkpt lat="43.7304881" lon="12.825545"><ele>185.2</ele><time>2026-03-22T08:31:16.68Z</time></trkpt><trkpt lat="43.7303622" lon="12.825555"><ele>182.6</ele><time>2026-03-22T08:31:17.669Z</time></trkpt><trkpt lat="43.7302301" lon="12.825574"><ele>180.0</ele><time>2026-03-22T08:31:18.693Z</time></trkpt><trkpt lat="43.7300924" lon="12.8255796"><ele>180.0</ele><time>2026-03-22T08:31:19.673Z</time></trkpt><trkpt lat="43.7299726" lon="12.8255747"><ele>180.0</ele><time>2026-03-22T08:31:20.673Z</time></trkpt><trkpt lat="43.729855" lon="12.8255715"><ele>180.0</ele><time>2026-03-22T08:31:21.677Z</time></trkpt><trkpt lat="43.7297399" lon="12.8255487"><ele>180.0</ele><time>2026-03-22T08:31:22.672Z</time></trkpt><trkpt lat="43.7296315" lon="12.8255182"><ele>180.0</ele><time>2026-03-22T08:31:23.667Z</time></trkpt><trkpt lat="43.7295317" lon="12.8254893"><ele>180.0</ele><time>2026-03-22T08:31:24.671Z</time></trkpt><trkpt lat="43.7294251" lon="12.8254669"><ele>180.0</ele><time>2026-03-22T08:31:25.674Z</time></trkpt><trkpt lat="43.7293265" lon="12.8254667"><ele>180.0</ele><time>2026-03-22T08:31:26.674Z</time></trkpt><trkpt lat="43.7292376" lon="12.8254792"><ele>180.0</ele><time>2026-03-22T08:31:27.673Z</time></trkpt><trkpt lat="43.7291507" lon="12.8254923"><ele>178.0</ele><time>2026-03-22T08:31:28.672Z</time></trkpt><trkpt lat="43.7290753" lon="12.8255081"><ele>176.0</ele><time>2026-03-22T08:31:29.681Z</time></trkpt><trkpt lat="43.7289956" lon="12.8255066"><ele>174.0</ele><time>2026-03-22T08:31:30.678Z</time></trkpt><trkpt lat="43.7289169" lon="12.8255066"><ele>172.0</ele><time>2026-03-22T08:31:31.676Z</time></trkpt><trkpt lat="43.7288399" lon="12.8255079"><ele>170.0</ele><time>2026-03-22T08:31:32.683Z</time></trkpt><trkpt lat="43.7287663" lon="12.8255155"><ele>168.0</ele><time>2026-03-22T08:31:33.684Z</time></trkpt><trkpt lat="43.7286922" lon="12.8255285"><ele>168.0</ele><time>2026-03-22T08:31:34.678Z</time></trkpt><trkpt lat="43.7286184" lon="12.8255457"><ele>168.0</ele><time>2026-03-22T08:31:35.685Z</time></trkpt><trkpt lat="43.7285427" lon="12.8255691"><ele>168.0</ele><time>2026-03-22T08:31:36.678Z</time></trkpt><trkpt lat="43.7284758" lon="12.8255669"><ele>168.0</ele><time>2026-03-22T08:31:37.684Z</time></trkpt><trkpt lat="43.728402" lon="12.8256143"><ele>168.0</ele><time>2026-03-22T08:31:38.68Z</time></trkpt><trkpt lat="43.7283216" lon="12.8256919"><ele>168.0</ele><time>2026-03-22T08:31:39.684Z</time></trkpt><trkpt lat="43.7281999" lon="12.8257531"><ele>166.60000000000002</ele><time>2026-03-22T08:31:40.68Z</time></trkpt><trkpt lat="43.7281009" lon="12.8258441"><ele>165.20000000000002</ele><time>2026-03-22T08:31:41.691Z</time></trkpt><trkpt lat="43.7280174" lon="12.8259426"><ele>163.8</ele><time>2026-03-22T08:31:42.678Z</time></trkpt><trkpt lat="43.727942" lon="12.8260445"><ele>162.4</ele><time>2026-03-22T08:31:43.677Z</time></trkpt><trkpt lat="43.7278669" lon="12.8261382"><ele>161.0</ele><time>2026-03-22T08:31:44.676Z</time></trkpt><trkpt lat="43.7278094" lon="12.8262117"><ele>161.0</ele><time>2026-03-22T08:31:45.671Z</time></trkpt><trkpt lat="43.7277588" lon="12.8262702"><ele>161.0</ele><time>2026-03-22T08:31:46.687Z</time></trkpt><trkpt lat="43.7276277" lon="12.8262561"><ele>161.0</ele><time>2026-03-22T08:31:48.676Z</time></trkpt><trkpt lat="43.7275644" lon="12.8262025"><ele>161.0</ele><time>2026-03-22T08:31:49.7Z</time></trkpt><trkpt lat="43.7275114" lon="12.8261291"><ele>161.0</ele><time>2026-03-22T08:31:50.681Z</time></trkpt><trkpt lat="43.7274467" lon="12.8260813"><ele>161.0</ele><time>2026-03-22T08:31:51.674Z</time></trkpt><trkpt lat="43.7273744" lon="12.8260451"><ele>158.66666666666666</ele><time>2026-03-22T08:31:52.683Z</time></trkpt><trkpt lat="43.7273053" lon="12.8260085"><ele>156.33333333333331</ele><time>2026-03-22T08:31:53.671Z</time></trkpt><trkpt lat="43.7272371" lon="12.8259556"><ele>154.0</ele><time>2026-03-22T08:31:54.673Z</time></trkpt><trkpt lat="43.7271661" lon="12.8259015"><ele>151.66666666666666</ele><time>2026-03-22T08:31:55.677Z</time></trkpt><trkpt lat="43.727101" lon="12.8258551"><ele>149.33333333333334</ele><time>2026-03-22T08:31:56.675Z</time></trkpt><trkpt lat="43.7270234" lon="12.8258155"><ele>147.0</ele><time>2026-03-22T08:31:57.671Z</time></trkpt><trkpt lat="43.7269452" lon="12.8257753"><ele>145.2</ele><time>2026-03-22T08:31:58.673Z</time></trkpt><trkpt lat="43.726882" lon="12.8257499"><ele>143.39999999999998</ele><time>2026-03-22T08:31:59.681Z</time></trkpt><trkpt lat="43.726768" lon="12.8256651"><ele>141.60000000000002</ele><time>2026-03-22T08:32:01.683Z</time></trkpt><trkpt lat="43.7267074" lon="12.8255945"><ele>139.8</ele><time>2026-03-22T08:32:02.676Z</time></trkpt><trkpt lat="43.7266302" lon="12.8255042"><ele>138.0</ele><time>2026-03-22T08:32:03.668Z</time></trkpt><trkpt lat="43.7265475" lon="12.8254142"><ele>138.0</ele><time>2026-03-22T08:32:04.668Z</time></trkpt><trkpt lat="43.7264593" lon="12.8253259"><ele>138.0</ele><time>2026-03-22T08:32:05.658Z</time></trkpt><trkpt lat="43.7263691" lon="12.8252424"><ele>138.0</ele><time>2026-03-22T08:32:06.664Z</time></trkpt><trkpt lat="43.7262824" lon="12.8252001"><ele>138.0</ele><time>2026-03-22T08:32:07.66Z</time></trkpt><trkpt lat="43.7261731" lon="12.8251702"><ele>138.0</ele><time>2026-03-22T08:32:08.648Z</time></trkpt><trkpt lat="43.7260651" lon="12.825135"><ele>135.5</ele><time>2026-03-22T08:32:09.663Z</time></trkpt><trkpt lat="43.7259428" lon="12.8250689"><ele>133.0</ele><time>2026-03-22T08:32:10.666Z</time></trkpt><trkpt lat="43.7258361" lon="12.8249821"><ele>130.5</ele><time>2026-03-22T08:32:11.662Z</time></trkpt><trkpt lat="43.7257363" lon="12.8248947"><ele>128.0</ele><time>2026-03-22T08:32:12.679Z</time></trkpt><trkpt lat="43.7256319" lon="12.8248173"><ele>128.0</ele><time>2026-03-22T08:32:13.667Z</time></trkpt><trkpt lat="43.7255429" lon="12.8247377"><ele>128.0</ele><time>2026-03-22T08:32:14.67Z</time></trkpt><trkpt lat="43.7254746" lon="12.8246191"><ele>128.0</ele><time>2026-03-22T08:32:15.664Z</time></trkpt><trkpt lat="43.7254117" lon="12.8244733"><ele>128.0</ele><time>2026-03-22T08:32:16.66Z</time></trkpt><trkpt lat="43.7253922" lon="12.824309"><ele>125.5</ele><time>2026-03-22T08:32:17.661Z</time></trkpt><trkpt lat="43.7253812" lon="12.8241347"><ele>123.0</ele><time>2026-03-22T08:32:18.646Z</time></trkpt><trkpt lat="43.7253615" lon="12.8239581"><ele>120.5</ele><time>2026-03-22T08:32:19.656Z</time></trkpt><trkpt lat="43.7253247" lon="12.8237845"><ele>118.0</ele><time>2026-03-22T08:32:20.685Z</time></trkpt><trkpt lat="43.7253032" lon="12.8236091"><ele>120.0</ele><time>2026-03-22T08:32:21.67Z</time></trkpt><trkpt lat="43.7253073" lon="12.8234256"><ele>122.0</ele><time>2026-03-22T08:32:22.659Z</time></trkpt><trkpt lat="43.7252945" lon="12.8231948"><ele>124.0</ele><time>2026-03-22T08:32:23.663Z</time></trkpt><trkpt lat="43.7252736" lon="12.822973"><ele>124.0</ele><time>2026-03-22T08:32:24.654Z</time></trkpt><trkpt lat="43.725231" lon="12.822748"><ele>124.0</ele><time>2026-03-22T08:32:25.657Z</time></trkpt><trkpt lat="43.7252213" lon="12.8225293"><ele>124.0</ele><time>2026-03-22T08:32:26.652Z</time></trkpt><trkpt lat="43.7252092" lon="12.8223108"><ele>121.0</ele><time>2026-03-22T08:32:27.662Z</time></trkpt><trkpt lat="43.7252104" lon="12.8220882"><ele>118.0</ele><time>2026-03-22T08:32:28.661Z</time></trkpt><trkpt lat="43.7251953" lon="12.8218701"><ele>115.0</ele><time>2026-03-22T08:32:29.661Z</time></trkpt><trkpt lat="43.7251946" lon="12.821634"><ele>115.0</ele><time>2026-03-22T08:32:30.659Z</time></trkpt><trkpt lat="43.7251879" lon="12.8214388"><ele>115.0</ele><time>2026-03-22T08:32:31.66Z</time></trkpt><trkpt lat="43.7251709" lon="12.8212416"><ele>115.0</ele><time>2026-03-22T08:32:32.662Z</time></trkpt><trkpt lat="43.7251548" lon="12.8210164"><ele>115.0</ele><time>2026-03-22T08:32:33.66Z</time></trkpt><trkpt lat="43.7251492" lon="12.8207708"><ele>115.66666666666667</ele><time>2026-03-22T08:32:34.66Z</time></trkpt><trkpt lat="43.7251373" lon="12.8205353"><ele>116.33333333333334</ele><time>2026-03-22T08:32:35.663Z</time></trkpt><trkpt lat="43.725125" lon="12.8203009"><ele>117.0</ele><time>2026-03-22T08:32:36.656Z</time></trkpt><trkpt lat="43.7251168" lon="12.8200921"><ele>117.25</ele><time>2026-03-22T08:32:37.654Z</time></trkpt><trkpt lat="43.7251344" lon="12.8199228"><ele>117.5</ele><time>2026-03-22T08:32:38.656Z</time></trkpt><trkpt lat="43.7251382" lon="12.8197252"><ele>117.75</ele><time>2026-03-22T08:32:39.659Z</time></trkpt><trkpt lat="43.725131" lon="12.8195349"><ele>118.0</ele><time>2026-03-22T08:32:40.665Z</time></trkpt><trkpt lat="43.7251154" lon="12.8193333"><ele>118.75</ele><time>2026-03-22T08:32:41.679Z</time></trkpt><trkpt lat="43.725076" lon="12.8191331"><ele>119.5</ele><time>2026-03-22T08:32:42.665Z</time></trkpt><trkpt lat="43.7250488" lon="12.8189388"><ele>120.25</ele><time>2026-03-22T08:32:43.675Z</time></trkpt><trkpt lat="43.7250324" lon="12.8187478"><ele>121.0</ele><time>2026-03-22T08:32:44.667Z</time></trkpt><trkpt lat="43.7250161" lon="12.8185573"><ele>121.75</ele><time>2026-03-22T08:32:45.656Z</time></trkpt><trkpt lat="43.7250213" lon="12.8183642"><ele>122.5</ele><time>2026-03-22T08:32:46.662Z</time></trkpt><trkpt lat="43.7250922" lon="12.8182266"><ele>123.25</ele><time>2026-03-22T08:32:47.651Z</time></trkpt><trkpt lat="43.7251726" lon="12.8180569"><ele>124.0</ele><time>2026-03-22T08:32:48.658Z</time></trkpt><trkpt lat="43.7251898" lon="12.8178884"><ele>124.0</ele><time>2026-03-22T08:32:49.663Z</time></trkpt><trkpt lat="43.7251776" lon="12.8176973"><ele>124.0</ele><time>2026-03-22T08:32:50.674Z</time></trkpt><trkpt lat="43.7252186" lon="12.8174558"><ele>124.0</ele><time>2026-03-22T08:32:51.682Z</time></trkpt><trkpt lat="43.725251" lon="12.8172712"><ele>124.5</ele><time>2026-03-22T08:32:52.663Z</time></trkpt><trkpt lat="43.725292" lon="12.8170863"><ele>125.0</ele><time>2026-03-22T08:32:53.663Z</time></trkpt><trkpt lat="43.7253464" lon="12.8168955"><ele>125.5</ele><time>2026-03-22T08:32:54.666Z</time></trkpt><trkpt lat="43.7254195" lon="12.8167087"><ele>126.0</ele><time>2026-03-22T08:32:55.661Z</time></trkpt><trkpt lat="43.7254827" lon="12.816533"><ele>126.0</ele><time>2026-03-22T08:32:56.659Z</time></trkpt><trkpt lat="43.7255466" lon="12.8163463"><ele>126.0</ele><time>2026-03-22T08:32:57.657Z</time></trkpt><trkpt lat="43.7256093" lon="12.8161601"><ele>126.0</ele><time>2026-03-22T08:32:58.662Z</time></trkpt><trkpt lat="43.7256747" lon="12.8159906"><ele>126.0</ele><time>2026-03-22T08:32:59.658Z</time></trkpt><trkpt lat="43.7257492" lon="12.8158207"><ele>125.66666666666666</ele><time>2026-03-22T08:33:00.66Z</time></trkpt><trkpt lat="43.7258201" lon="12.8155775"><ele>125.33333333333333</ele><time>2026-03-22T08:33:01.662Z</time></trkpt><trkpt lat="43.7258859" lon="12.8153582"><ele>125.0</ele><time>2026-03-22T08:33:02.654Z</time></trkpt><trkpt lat="43.7259506" lon="12.8151548"><ele>125.25</ele><time>2026-03-22T08:33:03.657Z</time></trkpt><trkpt lat="43.7260153" lon="12.814993"><ele>125.5</ele><time>2026-03-22T08:33:04.654Z</time></trkpt><trkpt lat="43.7260884" lon="12.8148395"><ele>125.75</ele><time>2026-03-22T08:33:05.655Z</time></trkpt><trkpt lat="43.7261541" lon="12.8146453"><ele>126.0</ele><time>2026-03-22T08:33:06.652Z</time></trkpt><trkpt lat="43.7262137" lon="12.8144424"><ele>129.0</ele><time>2026-03-22T08:33:07.654Z</time></trkpt><trkpt lat="43.7262782" lon="12.8142568"><ele>132.0</ele><time>2026-03-22T08:33:08.66Z</time></trkpt><trkpt lat="43.7263592" lon="12.8140344"><ele>135.0</ele><time>2026-03-22T08:33:09.658Z</time></trkpt><trkpt lat="43.7264123" lon="12.8137919"><ele>135.0</ele><time>2026-03-22T08:33:10.652Z</time></trkpt><trkpt lat="43.726448" lon="12.8135561"><ele>135.0</ele><time>2026-03-22T08:33:11.645Z</time></trkpt><trkpt lat="43.726493" lon="12.8133239"><ele>135.0</ele><time>2026-03-22T08:33:12.64Z</time></trkpt><trkpt lat="43.7265488" lon="12.8131244"><ele>133.66666666666666</ele><time>2026-03-22T08:33:13.635Z</time></trkpt><trkpt lat="43.7266186" lon="12.8129092"><ele>132.33333333333331</ele><time>2026-03-22T08:33:14.649Z</time></trkpt><trkpt lat="43.7266703" lon="12.8126912"><ele>131.0</ele><time>2026-03-22T08:33:15.653Z</time></trkpt><trkpt lat="43.7267286" lon="12.8125085"><ele>131.0</ele><time>2026-03-22T08:33:16.653Z</time></trkpt><trkpt lat="43.7268109" lon="12.8123339"><ele>131.0</ele><time>2026-03-22T08:33:17.658Z</time></trkpt><trkpt lat="43.7268381" lon="12.8121417"><ele>131.0</ele><time>2026-03-22T08:33:18.665Z</time></trkpt><trkpt lat="43.726884" lon="12.8119198"><ele>136.33333333333331</ele><time>2026-03-22T08:33:19.66Z</time></trkpt><trkpt lat="43.7269286" lon="12.8116998"><ele>141.66666666666666</ele><time>2026-03-22T08:33:20.667Z</time></trkpt><trkpt lat="43.7269591" lon="12.8114412"><ele>147.0</ele><time>2026-03-22T08:33:21.67Z</time></trkpt><trkpt lat="43.7269571" lon="12.8112077"><ele>143.0</ele><time>2026-03-22T08:33:22.587Z</time></trkpt><trkpt lat="43.7269612" lon="12.8107804"><ele>139.0</ele><time>2026-03-22T08:33:24.364Z</time></trkpt><trkpt lat="43.7269424" lon="12.8104338"><ele>139.0</ele><time>2026-03-22T08:33:26.166Z</time></trkpt><trkpt lat="43.7269378" lon="12.81018"><ele>139.0</ele><time>2026-03-22T08:33:27.955Z</time></trkpt><trkpt lat="43.7269723" lon="12.8099808"><ele>139.0</ele><time>2026-03-22T08:33:29.765Z</time></trkpt><trkpt lat="43.7269987" lon="12.8099007"><ele>139.0</ele><time>2026-03-22T08:33:30.672Z</time></trkpt><trkpt lat="43.7268439" lon="12.8098926"><ele>135.75</ele><time>2026-03-22T08:33:33.66Z</time></trkpt><trkpt lat="43.7267569" lon="12.8098745"><ele>132.5</ele><time>2026-03-22T08:33:34.654Z</time></trkpt><trkpt lat="43.7266341" lon="12.8098466"><ele>129.25</ele><time>2026-03-22T08:33:35.677Z</time></trkpt><trkpt lat="43.7265147" lon="12.8097842"><ele>126.0</ele><time>2026-03-22T08:33:36.657Z</time></trkpt><trkpt lat="43.7264011" lon="12.8097381"><ele>126.0</ele><time>2026-03-22T08:33:37.667Z</time></trkpt><trkpt lat="43.7263085" lon="12.8096954"><ele>126.0</ele><time>2026-03-22T08:33:38.675Z</time></trkpt><trkpt lat="43.7262328" lon="12.809613"><ele>126.0</ele><time>2026-03-22T08:33:39.678Z</time></trkpt><trkpt lat="43.7261989" lon="12.8095113"><ele>126.0</ele><time>2026-03-22T08:33:40.674Z</time></trkpt><trkpt lat="43.726201" lon="12.8093893"><ele>126.0</ele><time>2026-03-22T08:33:41.668Z</time></trkpt><trkpt lat="43.7262198" lon="12.8092756"><ele>126.0</ele><time>2026-03-22T08:33:42.667Z</time></trkpt><trkpt lat="43.7262577" lon="12.8091459"><ele>125.8</ele><time>2026-03-22T08:33:43.672Z</time></trkpt><trkpt lat="43.7262937" lon="12.8090169"><ele>125.6</ele><time>2026-03-22T08:33:44.691Z</time></trkpt><trkpt lat="43.7262977" lon="12.8089005"><ele>125.4</ele><time>2026-03-22T08:33:45.679Z</time></trkpt><trkpt lat="43.7262737" lon="12.8087759"><ele>125.2</ele><time>2026-03-22T08:33:46.681Z</time></trkpt><trkpt lat="43.7262145" lon="12.80868"><ele>125.0</ele><time>2026-03-22T08:33:47.681Z</time></trkpt><trkpt lat="43.7261246" lon="12.808624"><ele>125.6</ele><time>2026-03-22T08:33:48.681Z</time></trkpt><trkpt lat="43.7260169" lon="12.8086069"><ele>126.2</ele><time>2026-03-22T08:33:49.668Z</time></trkpt><trkpt lat="43.7259155" lon="12.8085955"><ele>126.80000000000001</ele><time>2026-03-22T08:33:50.668Z</time></trkpt><trkpt lat="43.7258104" lon="12.8085833"><ele>127.4</ele><time>2026-03-22T08:33:51.672Z</time></trkpt><trkpt lat="43.7257056" lon="12.8085656"><ele>128.0</ele><time>2026-03-22T08:33:52.689Z</time></trkpt><trkpt lat="43.7256053" lon="12.8085414"><ele>128.0</ele><time>2026-03-22T08:33:53.671Z</time></trkpt><trkpt lat="43.7254993" lon="12.8085318"><ele>128.0</ele><time>2026-03-22T08:33:54.671Z</time></trkpt><trkpt lat="43.7253843" lon="12.8085511"><ele>128.0</ele><time>2026-03-22T08:33:55.678Z</time></trkpt><trkpt lat="43.7252791" lon="12.8086417"><ele>128.0</ele><time>2026-03-22T08:33:56.678Z</time></trkpt><trkpt lat="43.7251805" lon="12.8087691"><ele>133.0</ele><time>2026-03-22T08:33:57.67Z</time></trkpt><trkpt lat="43.7251009" lon="12.808886"><ele>138.0</ele><time>2026-03-22T08:33:58.667Z</time></trkpt><trkpt lat="43.7250313" lon="12.8090046"><ele>143.0</ele><time>2026-03-22T08:33:59.667Z</time></trkpt><trkpt lat="43.7249578" lon="12.8091162"><ele>148.0</ele><time>2026-03-22T08:34:00.675Z</time></trkpt><trkpt lat="43.7248987" lon="12.8092815"><ele>147.5</ele><time>2026-03-22T08:34:01.666Z</time></trkpt><trkpt lat="43.7248597" lon="12.8094543"><ele>147.0</ele><time>2026-03-22T08:34:02.671Z</time></trkpt><trkpt lat="43.7248183" lon="12.8096158"><ele>146.5</ele><time>2026-03-22T08:34:03.665Z</time></trkpt><trkpt lat="43.7247806" lon="12.8097555"><ele>146.0</ele><time>2026-03-22T08:34:04.674Z</time></trkpt><trkpt lat="43.7247228" lon="12.8098556"><ele>146.0</ele><time>2026-03-22T08:34:05.676Z</time></trkpt><trkpt lat="43.7246687" lon="12.8099348"><ele>146.0</ele><time>2026-03-22T08:34:06.681Z</time></trkpt><trkpt lat="43.7245562" lon="12.809931"><ele>146.0</ele><time>2026-03-22T08:34:08.677Z</time></trkpt><trkpt lat="43.7244522" lon="12.8098123"><ele>146.0</ele><time>2026-03-22T08:34:10.668Z</time></trkpt><trkpt lat="43.7244001" lon="12.8096271"><ele>150.5</ele><time>2026-03-22T08:34:11.671Z</time></trkpt><trkpt lat="43.7243918" lon="12.8094129"><ele>155.0</ele><time>2026-03-22T08:34:12.664Z</time></trkpt><trkpt lat="43.724386" lon="12.8092147"><ele>159.5</ele><time>2026-03-22T08:34:13.656Z</time></trkpt><trkpt lat="43.7243814" lon="12.8090195"><ele>164.0</ele><time>2026-03-22T08:34:14.655Z</time></trkpt><trkpt lat="43.7243714" lon="12.8088244"><ele>165.25</ele><time>2026-03-22T08:34:15.681Z</time></trkpt><trkpt lat="43.7243376" lon="12.8086482"><ele>166.5</ele><time>2026-03-22T08:34:16.665Z</time></trkpt><trkpt lat="43.7242549" lon="12.808526"><ele>167.75</ele><time>2026-03-22T08:34:17.665Z</time></trkpt><trkpt lat="43.7241542" lon="12.8084152"><ele>169.0</ele><time>2026-03-22T08:34:18.676Z</time></trkpt><trkpt lat="43.7240043" lon="12.8083507"><ele>170.66666666666669</ele><time>2026-03-22T08:34:19.675Z</time></trkpt><trkpt lat="43.723843" lon="12.8083403"><ele>172.33333333333334</ele><time>2026-03-22T08:34:20.671Z</time></trkpt><trkpt lat="43.7236853" lon="12.808348"><ele>174.0</ele><time>2026-03-22T08:34:21.674Z</time></trkpt><trkpt lat="43.7235285" lon="12.8083606"><ele>177.75</ele><time>2026-03-22T08:34:22.678Z</time></trkpt><trkpt lat="43.7233802" lon="12.8083268"><ele>181.5</ele><time>2026-03-22T08:34:23.691Z</time></trkpt><trkpt lat="43.7232418" lon="12.8082639"><ele>185.25</ele><time>2026-03-22T08:34:24.665Z</time></trkpt><trkpt lat="43.7231127" lon="12.808193"><ele>189.0</ele><time>2026-03-22T08:34:25.665Z</time></trkpt><trkpt lat="43.7229862" lon="12.8081064"><ele>189.0</ele><time>2026-03-22T08:34:26.669Z</time></trkpt><trkpt lat="43.722882" lon="12.8080528"><ele>189.0</ele><time>2026-03-22T08:34:27.678Z</time></trkpt><trkpt lat="43.7227752" lon="12.8080054"><ele>189.0</ele><time>2026-03-22T08:34:28.674Z</time></trkpt><trkpt lat="43.7226698" lon="12.8079708"><ele>189.0</ele><time>2026-03-22T08:34:29.671Z</time></trkpt><trkpt lat="43.7225778" lon="12.8079163"><ele>189.0</ele><time>2026-03-22T08:34:30.674Z</time></trkpt><trkpt lat="43.7224705" lon="12.8078643"><ele>193.5</ele><time>2026-03-22T08:34:31.677Z</time></trkpt><trkpt lat="43.722345" lon="12.8078149"><ele>198.0</ele><time>2026-03-22T08:34:32.673Z</time></trkpt><trkpt lat="43.7222194" lon="12.8077731"><ele>202.5</ele><time>2026-03-22T08:34:33.666Z</time></trkpt><trkpt lat="43.7221064" lon="12.807732"><ele>207.0</ele><time>2026-03-22T08:34:34.673Z</time></trkpt><trkpt lat="43.7220009" lon="12.8076857"><ele>206.0</ele><time>2026-03-22T08:34:35.675Z</time></trkpt><trkpt lat="43.7219047" lon="12.8076279"><ele>205.0</ele><time>2026-03-22T08:34:36.676Z</time></trkpt><trkpt lat="43.7217936" lon="12.8075582"><ele>204.0</ele><time>2026-03-22T08:34:37.669Z</time></trkpt><trkpt lat="43.7216853" lon="12.8074649"><ele>203.0</ele><time>2026-03-22T08:34:38.671Z</time></trkpt><trkpt lat="43.7216112" lon="12.80737"><ele>208.2</ele><time>2026-03-22T08:34:39.669Z</time></trkpt><trkpt lat="43.7215196" lon="12.8072708"><ele>213.4</ele><time>2026-03-22T08:34:40.665Z</time></trkpt><trkpt lat="43.72143" lon="12.8071776"><ele>218.59999999999997</ele><time>2026-03-22T08:34:41.663Z</time></trkpt><trkpt lat="43.7213425" lon="12.8071266"><ele>223.79999999999998</ele><time>2026-03-22T08:34:42.681Z</time></trkpt><trkpt lat="43.7212773" lon="12.8070757"><ele>229.0</ele><time>2026-03-22T08:34:43.677Z</time></trkpt><trkpt lat="43.721207" lon="12.8071192"><ele>229.0</ele><time>2026-03-22T08:34:44.685Z</time></trkpt><trkpt lat="43.7211346" lon="12.8072255"><ele>228.99999999999997</ele><time>2026-03-22T08:34:45.686Z</time></trkpt><trkpt lat="43.721071" lon="12.807322"><ele>228.99999999999997</ele><time>2026-03-22T08:34:46.685Z</time></trkpt><trkpt lat="43.720985" lon="12.8074021"><ele>229.0</ele><time>2026-03-22T08:34:47.681Z</time></trkpt><trkpt lat="43.7208886" lon="12.8074329"><ele>229.0</ele><time>2026-03-22T08:34:48.688Z</time></trkpt><trkpt lat="43.7207823" lon="12.8074019"><ele>229.0</ele><time>2026-03-22T08:34:49.688Z</time></trkpt><trkpt lat="43.720697" lon="12.8072985"><ele>228.99999999999997</ele><time>2026-03-22T08:34:50.691Z</time></trkpt><trkpt lat="43.7206172" lon="12.8071804"><ele>228.99999999999997</ele><time>2026-03-22T08:34:51.69Z</time></trkpt><trkpt lat="43.7205545" lon="12.8070492"><ele>229.0</ele><time>2026-03-22T08:34:52.691Z</time></trkpt><trkpt lat="43.720515" lon="12.8069147"><ele>229.0</ele><time>2026-03-22T08:34:53.683Z</time></trkpt><trkpt lat="43.720481" lon="12.8067727"><ele>229.0</ele><time>2026-03-22T08:34:54.704Z</time></trkpt><trkpt lat="43.7204525" lon="12.8066145"><ele>229.0</ele><time>2026-03-22T08:34:55.693Z</time></trkpt><trkpt lat="43.7204223" lon="12.806444"><ele>229.0</ele><time>2026-03-22T08:34:56.683Z</time></trkpt><trkpt lat="43.7203969" lon="12.8062745"><ele>229.0</ele><time>2026-03-22T08:34:57.677Z</time></trkpt><trkpt lat="43.7203731" lon="12.8061196"><ele>227.75</ele><time>2026-03-22T08:34:58.577Z</time></trkpt><trkpt lat="43.720351" lon="12.8059695"><ele>226.5</ele><time>2026-03-22T08:34:59.481Z</time></trkpt><trkpt lat="43.7203297" lon="12.8058143"><ele>225.25</ele><time>2026-03-22T08:35:00.382Z</time></trkpt><trkpt lat="43.7202923" lon="12.8056528"><ele>224.0</ele><time>2026-03-22T08:35:01.284Z</time></trkpt><trkpt lat="43.7202557" lon="12.8054763"><ele>224.0</ele><time>2026-03-22T08:35:02.279Z</time></trkpt><trkpt lat="43.7202342" lon="12.8053245"><ele>224.0</ele><time>2026-03-22T08:35:03.18Z</time></trkpt><trkpt lat="43.7202151" lon="12.8051571"><ele>224.0</ele><time>2026-03-22T08:35:04.175Z</time></trkpt><trkpt lat="43.7202006" lon="12.8049876"><ele>224.0</ele><time>2026-03-22T08:35:05.177Z</time></trkpt><trkpt lat="43.7201858" lon="12.8048117"><ele>226.79999999999998</ele><time>2026-03-22T08:35:06.164Z</time></trkpt><trkpt lat="43.7201803" lon="12.804643"><ele>229.59999999999997</ele><time>2026-03-22T08:35:07.162Z</time></trkpt><trkpt lat="43.7201809" lon="12.8044593"><ele>232.4</ele><time>2026-03-22T08:35:08.161Z</time></trkpt><trkpt lat="43.7201532" lon="12.8043321"><ele>235.2</ele><time>2026-03-22T08:35:09.149Z</time></trkpt><trkpt lat="43.7201813" lon="12.8042237"><ele>238.0</ele><time>2026-03-22T08:35:10.142Z</time></trkpt><trkpt lat="43.7201583" lon="12.8041242"><ele>238.0</ele><time>2026-03-22T08:35:11.137Z</time></trkpt><trkpt lat="43.720083" lon="12.8041103"><ele>238.0</ele><time>2026-03-22T08:35:12.143Z</time></trkpt><trkpt lat="43.719961" lon="12.8041171"><ele>238.0</ele><time>2026-03-22T08:35:13.137Z</time></trkpt><trkpt lat="43.7198237" lon="12.8041352"><ele>238.0</ele><time>2026-03-22T08:35:14.146Z</time></trkpt><trkpt lat="43.719667" lon="12.8041477"><ele>238.0</ele><time>2026-03-22T08:35:15.155Z</time></trkpt><trkpt lat="43.7195344" lon="12.8041327"><ele>238.0</ele><time>2026-03-22T08:35:16.163Z</time></trkpt><trkpt lat="43.7194235" lon="12.8041039"><ele>238.0</ele><time>2026-03-22T08:35:17.17Z</time></trkpt><trkpt lat="43.7192979" lon="12.8041117"><ele>238.0</ele><time>2026-03-22T08:35:18.171Z</time></trkpt><trkpt lat="43.7191487" lon="12.8041053"><ele>239.5</ele><time>2026-03-22T08:35:19.172Z</time></trkpt><trkpt lat="43.7190023" lon="12.8040963"><ele>241.0</ele><time>2026-03-22T08:35:20.17Z</time></trkpt><trkpt lat="43.7188491" lon="12.8040643"><ele>242.5</ele><time>2026-03-22T08:35:21.175Z</time></trkpt><trkpt lat="43.7187121" lon="12.8040233"><ele>244.0</ele><time>2026-03-22T08:35:22.169Z</time></trkpt><trkpt lat="43.718594" lon="12.8039968"><ele>244.75</ele><time>2026-03-22T08:35:23.151Z</time></trkpt><trkpt lat="43.7184905" lon="12.8039006"><ele>245.5</ele><time>2026-03-22T08:35:24.148Z</time></trkpt><trkpt lat="43.7183729" lon="12.8038291"><ele>246.25</ele><time>2026-03-22T08:35:25.178Z</time></trkpt><trkpt lat="43.7182424" lon="12.8037873"><ele>247.0</ele><time>2026-03-22T08:35:26.163Z</time></trkpt><trkpt lat="43.7181615" lon="12.8036261"><ele>247.0</ele><time>2026-03-22T08:35:27.164Z</time></trkpt><trkpt lat="43.7181274" lon="12.8035222"><ele>247.0</ele><time>2026-03-22T08:35:28.169Z</time></trkpt><trkpt lat="43.7180932" lon="12.8033632"><ele>247.0</ele><time>2026-03-22T08:35:29.175Z</time></trkpt><trkpt lat="43.7180465" lon="12.8031265"><ele>247.0</ele><time>2026-03-22T08:35:30.167Z</time></trkpt><trkpt lat="43.7179809" lon="12.8028854"><ele>248.25</ele><time>2026-03-22T08:35:31.169Z</time></trkpt><trkpt lat="43.7179471" lon="12.8026536"><ele>249.5</ele><time>2026-03-22T08:35:32.174Z</time></trkpt><trkpt lat="43.7179289" lon="12.8024639"><ele>250.75</ele><time>2026-03-22T08:35:33.172Z</time></trkpt><trkpt lat="43.7179013" lon="12.8022847"><ele>252.0</ele><time>2026-03-22T08:35:34.171Z</time></trkpt><trkpt lat="43.7178677" lon="12.8020905"><ele>252.0</ele><time>2026-03-22T08:35:35.167Z</time></trkpt><trkpt lat="43.7178166" lon="12.8019307"><ele>252.0</ele><time>2026-03-22T08:35:36.171Z</time></trkpt><trkpt lat="43.7177838" lon="12.8017659"><ele>252.0</ele><time>2026-03-22T08:35:37.154Z</time></trkpt><trkpt lat="43.717771" lon="12.8016178"><ele>252.0</ele><time>2026-03-22T08:35:38.158Z</time></trkpt><trkpt lat="43.7177711" lon="12.8015049"><ele>252.0</ele><time>2026-03-22T08:35:39.163Z</time></trkpt><trkpt lat="43.7177338" lon="12.8013893"><ele>251.83333333333334</ele><time>2026-03-22T08:35:40.173Z</time></trkpt><trkpt lat="43.7177065" lon="12.8012789"><ele>251.66666666666669</ele><time>2026-03-22T08:35:41.178Z</time></trkpt><trkpt lat="43.7176957" lon="12.8011775"><ele>251.5</ele><time>2026-03-22T08:35:42.18Z</time></trkpt><trkpt lat="43.7176847" lon="12.8010693"><ele>251.33333333333334</ele><time>2026-03-22T08:35:43.179Z</time></trkpt><trkpt lat="43.717682" lon="12.8009679"><ele>251.16666666666669</ele><time>2026-03-22T08:35:44.17Z</time></trkpt><trkpt lat="43.717665" lon="12.8008485"><ele>251.0</ele><time>2026-03-22T08:35:45.176Z</time></trkpt><trkpt lat="43.7176451" lon="12.8007378"><ele>252.4</ele><time>2026-03-22T08:35:46.169Z</time></trkpt><trkpt lat="43.717609" lon="12.8006165"><ele>253.8</ele><time>2026-03-22T08:35:47.178Z</time></trkpt><trkpt lat="43.7175528" lon="12.8004951"><ele>255.20000000000002</ele><time>2026-03-22T08:35:48.183Z</time></trkpt><trkpt lat="43.7174932" lon="12.8003781"><ele>256.6</ele><time>2026-03-22T08:35:49.176Z</time></trkpt><trkpt lat="43.7174207" lon="12.8002804"><ele>258.0</ele><time>2026-03-22T08:35:50.184Z</time></trkpt><trkpt lat="43.7173439" lon="12.8001929"><ele>258.0</ele><time>2026-03-22T08:35:51.18Z</time></trkpt><trkpt lat="43.7172558" lon="12.8001167"><ele>258.0</ele><time>2026-03-22T08:35:52.17Z</time></trkpt><trkpt lat="43.7171696" lon="12.8000336"><ele>258.0</ele><time>2026-03-22T08:35:53.164Z</time></trkpt><trkpt lat="43.7170934" lon="12.7999536"><ele>258.0</ele><time>2026-03-22T08:35:54.17Z</time></trkpt><trkpt lat="43.7170219" lon="12.79987"><ele>258.0</ele><time>2026-03-22T08:35:55.172Z</time></trkpt><trkpt lat="43.7169749" lon="12.7997676"><ele>258.0</ele><time>2026-03-22T08:35:56.196Z</time></trkpt><trkpt lat="43.7169453" lon="12.7996484"><ele>258.0</ele><time>2026-03-22T08:35:57.169Z</time></trkpt><trkpt lat="43.7169354" lon="12.7995274"><ele>258.0</ele><time>2026-03-22T08:35:58.178Z</time></trkpt><trkpt lat="43.716933" lon="12.7993962"><ele>258.0</ele><time>2026-03-22T08:35:59.176Z</time></trkpt><trkpt lat="43.7169224" lon="12.7992569"><ele>258.0</ele><time>2026-03-22T08:36:00.175Z</time></trkpt><trkpt lat="43.7169403" lon="12.799111"><ele>257.75</ele><time>2026-03-22T08:36:01.175Z</time></trkpt><trkpt lat="43.7169601" lon="12.7989418"><ele>257.5</ele><time>2026-03-22T08:36:02.164Z</time></trkpt><trkpt lat="43.716978" lon="12.798797"><ele>257.25</ele><time>2026-03-22T08:36:03.167Z</time></trkpt><trkpt lat="43.7169986" lon="12.7986287"><ele>257.0</ele><time>2026-03-22T08:36:04.168Z</time></trkpt><trkpt lat="43.7169648" lon="12.7984574"><ele>257.0</ele><time>2026-03-22T08:36:05.172Z</time></trkpt><trkpt lat="43.716926" lon="12.7983085"><ele>257.0</ele><time>2026-03-22T08:36:06.165Z</time></trkpt><trkpt lat="43.7168848" lon="12.7981711"><ele>257.0</ele><time>2026-03-22T08:36:07.167Z</time></trkpt><trkpt lat="43.7168491" lon="12.7980533"><ele>257.0</ele><time>2026-03-22T08:36:08.163Z</time></trkpt><trkpt lat="43.7168132" lon="12.7979391"><ele>257.0</ele><time>2026-03-22T08:36:09.168Z</time></trkpt><trkpt lat="43.7167682" lon="12.797833"><ele>259.4</ele><time>2026-03-22T08:36:10.172Z</time></trkpt><trkpt lat="43.7167109" lon="12.7977344"><ele>261.79999999999995</ele><time>2026-03-22T08:36:11.173Z</time></trkpt><trkpt lat="43.716646" lon="12.7976511"><ele>264.2</ele><time>2026-03-22T08:36:12.165Z</time></trkpt><trkpt lat="43.7165946" lon="12.7975643"><ele>266.59999999999997</ele><time>2026-03-22T08:36:13.169Z</time></trkpt><trkpt lat="43.7165276" lon="12.7974636"><ele>269.0</ele><time>2026-03-22T08:36:14.161Z</time></trkpt><trkpt lat="43.7164454" lon="12.7973521"><ele>269.2</ele><time>2026-03-22T08:36:15.164Z</time></trkpt><trkpt lat="43.7163569" lon="12.7972575"><ele>269.4</ele><time>2026-03-22T08:36:16.154Z</time></trkpt><trkpt lat="43.7162806" lon="12.7971514"><ele>269.6</ele><time>2026-03-22T08:36:17.155Z</time></trkpt><trkpt lat="43.7161908" lon="12.7970589"><ele>269.8</ele><time>2026-03-22T08:36:18.148Z</time></trkpt><trkpt lat="43.7161081" lon="12.7969716"><ele>270.0</ele><time>2026-03-22T08:36:19.155Z</time></trkpt><trkpt lat="43.7160272" lon="12.7968698"><ele>269.3333333333333</ele><time>2026-03-22T08:36:20.138Z</time></trkpt><trkpt lat="43.7159712" lon="12.7967474"><ele>268.6666666666667</ele><time>2026-03-22T08:36:21.145Z</time></trkpt><trkpt lat="43.7159414" lon="12.7966457"><ele>268.0</ele><time>2026-03-22T08:36:22.146Z</time></trkpt><trkpt lat="43.7159387" lon="12.7965327"><ele>267.33333333333337</ele><time>2026-03-22T08:36:23.146Z</time></trkpt><trkpt lat="43.7159079" lon="12.7964504"><ele>266.6666666666667</ele><time>2026-03-22T08:36:24.151Z</time></trkpt><trkpt lat="43.7159137" lon="12.7963529"><ele>266.0</ele><time>2026-03-22T08:36:26.159Z</time></trkpt><trkpt lat="43.7159419" lon="12.7962534"><ele>266.0</ele><time>2026-03-22T08:36:27.178Z</time></trkpt><trkpt lat="43.7159683" lon="12.7961492"><ele>266.0</ele><time>2026-03-22T08:36:28.156Z</time></trkpt><trkpt lat="43.7160159" lon="12.7960122"><ele>266.0</ele><time>2026-03-22T08:36:29.157Z</time></trkpt><trkpt lat="43.716069" lon="12.7958659"><ele>266.0</ele><time>2026-03-22T08:36:30.167Z</time></trkpt><trkpt lat="43.7160865" lon="12.7957207"><ele>266.0</ele><time>2026-03-22T08:36:31.16Z</time></trkpt><trkpt lat="43.7160946" lon="12.7955823"><ele>270.0</ele><time>2026-03-22T08:36:32.151Z</time></trkpt><trkpt lat="43.716106" lon="12.7954531"><ele>274.0</ele><time>2026-03-22T08:36:33.16Z</time></trkpt><trkpt lat="43.7161222" lon="12.7953228"><ele>278.0</ele><time>2026-03-22T08:36:34.167Z</time></trkpt><trkpt lat="43.716164" lon="12.7951962"><ele>282.0</ele><time>2026-03-22T08:36:35.165Z</time></trkpt><trkpt lat="43.7161972" lon="12.7950536"><ele>286.0</ele><time>2026-03-22T08:36:36.167Z</time></trkpt><trkpt lat="43.716215" lon="12.7949111"><ele>287.16666666666663</ele><time>2026-03-22T08:36:37.167Z</time></trkpt><trkpt lat="43.71621" lon="12.7947775"><ele>288.3333333333333</ele><time>2026-03-22T08:36:38.174Z</time></trkpt><trkpt lat="43.7161754" lon="12.7946678"><ele>289.5</ele><time>2026-03-22T08:36:39.172Z</time></trkpt><trkpt lat="43.7161249" lon="12.794573"><ele>290.6666666666667</ele><time>2026-03-22T08:36:40.165Z</time></trkpt><trkpt lat="43.7160964" lon="12.7944626"><ele>291.83333333333337</ele><time>2026-03-22T08:36:41.165Z</time></trkpt><trkpt lat="43.716067" lon="12.7943404"><ele>293.0</ele><time>2026-03-22T08:36:42.162Z</time></trkpt><trkpt lat="43.7160501" lon="12.7942235"><ele>297.2</ele><time>2026-03-22T08:36:43.182Z</time></trkpt><trkpt lat="43.7160712" lon="12.7940955"><ele>301.4</ele><time>2026-03-22T08:36:44.169Z</time></trkpt><trkpt lat="43.7160994" lon="12.7939775"><ele>305.59999999999997</ele><time>2026-03-22T08:36:45.164Z</time></trkpt><trkpt lat="43.7161169" lon="12.7938535"><ele>309.8</ele><time>2026-03-22T08:36:46.159Z</time></trkpt><trkpt lat="43.7161274" lon="12.7937124"><ele>314.0</ele><time>2026-03-22T08:36:47.165Z</time></trkpt><trkpt lat="43.7161525" lon="12.7935523"><ele>316.4</ele><time>2026-03-22T08:36:48.158Z</time></trkpt><trkpt lat="43.7161701" lon="12.7934058"><ele>318.79999999999995</ele><time>2026-03-22T08:36:49.167Z</time></trkpt><trkpt lat="43.7161728" lon="12.7932726"><ele>321.20000000000005</ele><time>2026-03-22T08:36:50.186Z</time></trkpt><trkpt lat="43.7161983" lon="12.7931494"><ele>323.6</ele><time>2026-03-22T08:36:51.176Z</time></trkpt><trkpt lat="43.7162019" lon="12.7930564"><ele>326.0</ele><time>2026-03-22T08:36:52.161Z</time></trkpt><trkpt lat="43.71612" lon="12.7931075"><ele>326.6</ele><time>2026-03-22T08:36:56.167Z</time></trkpt><trkpt lat="43.7160193" lon="12.793158"><ele>327.20000000000005</ele><time>2026-03-22T08:36:58.199Z</time></trkpt><trkpt lat="43.7159676" lon="12.793041"><ele>327.79999999999995</ele><time>2026-03-22T08:37:00.172Z</time></trkpt><trkpt lat="43.7159631" lon="12.7929016"><ele>328.4</ele><time>2026-03-22T08:37:01.16Z</time></trkpt><trkpt lat="43.7159545" lon="12.7927588"><ele>329.0</ele><time>2026-03-22T08:37:02.155Z</time></trkpt><trkpt lat="43.7159463" lon="12.7926213"><ele>331.6</ele><time>2026-03-22T08:37:03.151Z</time></trkpt><trkpt lat="43.7159366" lon="12.7924938"><ele>334.2</ele><time>2026-03-22T08:37:04.155Z</time></trkpt><trkpt lat="43.7159272" lon="12.7923563"><ele>336.8</ele><time>2026-03-22T08:37:05.149Z</time></trkpt><trkpt lat="43.7159227" lon="12.7922217"><ele>339.40000000000003</ele><time>2026-03-22T08:37:06.152Z</time></trkpt><trkpt lat="43.7159108" lon="12.7920669"><ele>342.0</ele><time>2026-03-22T08:37:07.159Z</time></trkpt><trkpt lat="43.7158914" lon="12.7919423"><ele>345.20000000000005</ele><time>2026-03-22T08:37:08.147Z</time></trkpt><trkpt lat="43.7158692" lon="12.7918076"><ele>348.4</ele><time>2026-03-22T08:37:09.151Z</time></trkpt><trkpt lat="43.7158272" lon="12.7917106"><ele>351.6</ele><time>2026-03-22T08:37:10.155Z</time></trkpt><trkpt lat="43.7158184" lon="12.7915598"><ele>354.79999999999995</ele><time>2026-03-22T08:37:11.169Z</time></trkpt><trkpt lat="43.7158102" lon="12.7913716"><ele>358.0</ele><time>2026-03-22T08:37:13.154Z</time></trkpt><trkpt lat="43.7158016" lon="12.7912392"><ele>358.0</ele><time>2026-03-22T08:37:14.158Z</time></trkpt><trkpt lat="43.7157891" lon="12.791111"><ele>358.0</ele><time>2026-03-22T08:37:15.16Z</time></trkpt><trkpt lat="43.7157485" lon="12.7909354"><ele>358.0</ele><time>2026-03-22T08:37:16.149Z</time></trkpt><trkpt lat="43.7157042" lon="12.7907615"><ele>358.0</ele><time>2026-03-22T08:37:17.154Z</time></trkpt><trkpt lat="43.7156468" lon="12.7905826"><ele>361.25</ele><time>2026-03-22T08:37:18.159Z</time></trkpt><trkpt lat="43.7155556" lon="12.7904255"><ele>364.5</ele><time>2026-03-22T08:37:19.157Z</time></trkpt><trkpt lat="43.7154584" lon="12.7902735"><ele>367.75</ele><time>2026-03-22T08:37:20.163Z</time></trkpt><trkpt lat="43.7153948" lon="12.7901623"><ele>371.0</ele><time>2026-03-22T08:37:21.18Z</time></trkpt><trkpt lat="43.715332" lon="12.7900587"><ele>371.0</ele><time>2026-03-22T08:37:22.165Z</time></trkpt><trkpt lat="43.7152636" lon="12.7899194"><ele>371.0</ele><time>2026-03-22T08:37:23.162Z</time></trkpt><trkpt lat="43.715194" lon="12.7897804"><ele>371.0</ele><time>2026-03-22T08:37:24.166Z</time></trkpt><trkpt lat="43.7151279" lon="12.7896313"><ele>371.0</ele><time>2026-03-22T08:37:25.168Z</time></trkpt><trkpt lat="43.7150377" lon="12.7894609"><ele>374.6666666666667</ele><time>2026-03-22T08:37:26.156Z</time></trkpt><trkpt lat="43.71493" lon="12.7892836"><ele>378.3333333333333</ele><time>2026-03-22T08:37:27.158Z</time></trkpt><trkpt lat="43.714806" lon="12.7890955"><ele>382.0</ele><time>2026-03-22T08:37:28.16Z</time></trkpt><trkpt lat="43.7146898" lon="12.788893"><ele>382.0</ele><time>2026-03-22T08:37:29.176Z</time></trkpt><trkpt lat="43.7145998" lon="12.7886982"><ele>382.0</ele><time>2026-03-22T08:37:30.157Z</time></trkpt><trkpt lat="43.7145176" lon="12.7885084"><ele>382.0</ele><time>2026-03-22T08:37:31.165Z</time></trkpt><trkpt lat="43.7144471" lon="12.788341"><ele>388.25</ele><time>2026-03-22T08:37:32.164Z</time></trkpt><trkpt lat="43.7143657" lon="12.7882063"><ele>394.5</ele><time>2026-03-22T08:37:33.162Z</time></trkpt><trkpt lat="43.714275" lon="12.7880681"><ele>400.75</ele><time>2026-03-22T08:37:34.162Z</time></trkpt><trkpt lat="43.7142" lon="12.7879463"><ele>407.0</ele><time>2026-03-22T08:37:35.15Z</time></trkpt><trkpt lat="43.7141323" lon="12.7878338"><ele>407.0</ele><time>2026-03-22T08:37:36.155Z</time></trkpt><trkpt lat="43.7140696" lon="12.7877446"><ele>407.0</ele><time>2026-03-22T08:37:37.163Z</time></trkpt><trkpt lat="43.713982" lon="12.7876616"><ele>407.0</ele><time>2026-03-22T08:37:38.159Z</time></trkpt><trkpt lat="43.7138787" lon="12.7875702"><ele>407.0</ele><time>2026-03-22T08:37:39.163Z</time></trkpt><trkpt lat="43.713773" lon="12.7874913"><ele>407.0</ele><time>2026-03-22T08:37:40.164Z</time></trkpt><trkpt lat="43.7136769" lon="12.7874229"><ele>405.75</ele><time>2026-03-22T08:37:41.161Z</time></trkpt><trkpt lat="43.7135757" lon="12.7873397"><ele>404.5</ele><time>2026-03-22T08:37:42.153Z</time></trkpt><trkpt lat="43.7134762" lon="12.7872546"><ele>403.25</ele><time>2026-03-22T08:37:43.161Z</time></trkpt><trkpt lat="43.7133877" lon="12.7871359"><ele>402.0</ele><time>2026-03-22T08:37:44.162Z</time></trkpt><trkpt lat="43.7133079" lon="12.7869802"><ele>405.0</ele><time>2026-03-22T08:37:45.158Z</time></trkpt><trkpt lat="43.7132447" lon="12.786819"><ele>408.0</ele><time>2026-03-22T08:37:46.16Z</time></trkpt><trkpt lat="43.7132152" lon="12.786647"><ele>411.0</ele><time>2026-03-22T08:37:47.151Z</time></trkpt><trkpt lat="43.7131873" lon="12.7864768"><ele>414.0</ele><time>2026-03-22T08:37:48.147Z</time></trkpt><trkpt lat="43.7131512" lon="12.7862984"><ele>414.0</ele><time>2026-03-22T08:37:49.159Z</time></trkpt><trkpt lat="43.7130966" lon="12.7861411"><ele>414.0</ele><time>2026-03-22T08:37:50.168Z</time></trkpt><trkpt lat="43.7129968" lon="12.7860273"><ele>414.0</ele><time>2026-03-22T08:37:51.154Z</time></trkpt><trkpt lat="43.7128741" lon="12.7859223"><ele>414.0</ele><time>2026-03-22T08:37:52.166Z</time></trkpt><trkpt lat="43.7127674" lon="12.7858036"><ele>414.25</ele><time>2026-03-22T08:37:53.152Z</time></trkpt><trkpt lat="43.7126693" lon="12.7856845"><ele>414.5</ele><time>2026-03-22T08:37:54.155Z</time></trkpt><trkpt lat="43.7125846" lon="12.7855477"><ele>414.75</ele><time>2026-03-22T08:37:55.154Z</time></trkpt><trkpt lat="43.7125135" lon="12.7854029"><ele>415.0</ele><time>2026-03-22T08:37:56.158Z</time></trkpt><trkpt lat="43.7124405" lon="12.7852772"><ele>417.6666666666667</ele><time>2026-03-22T08:37:57.164Z</time></trkpt><trkpt lat="43.7123436" lon="12.7851315"><ele>420.33333333333337</ele><time>2026-03-22T08:37:58.166Z</time></trkpt><trkpt lat="43.7122246" lon="12.7849813"><ele>423.0</ele><time>2026-03-22T08:37:59.161Z</time></trkpt><trkpt lat="43.7120944" lon="12.7848694"><ele>423.0</ele><time>2026-03-22T08:38:00.175Z</time></trkpt><trkpt lat="43.711982" lon="12.7847674"><ele>423.0</ele><time>2026-03-22T08:38:01.153Z</time></trkpt><trkpt lat="43.7118893" lon="12.7846608"><ele>423.0</ele><time>2026-03-22T08:38:02.15Z</time></trkpt><trkpt lat="43.7117864" lon="12.7845471"><ele>423.0</ele><time>2026-03-22T08:38:03.151Z</time></trkpt><trkpt lat="43.7116805" lon="12.7844845"><ele>422.59999999999997</ele><time>2026-03-22T08:38:04.159Z</time></trkpt><trkpt lat="43.7115968" lon="12.7845002"><ele>422.2</ele><time>2026-03-22T08:38:05.156Z</time></trkpt><trkpt lat="43.7114952" lon="12.7845151"><ele>421.8</ele><time>2026-03-22T08:38:06.159Z</time></trkpt><trkpt lat="43.7113879" lon="12.7845353"><ele>421.4</ele><time>2026-03-22T08:38:07.165Z</time></trkpt><trkpt lat="43.7113073" lon="12.7845259"><ele>421.0</ele><time>2026-03-22T08:38:08.158Z</time></trkpt><trkpt lat="43.7112319" lon="12.7845523"><ele>421.00000000000006</ele><time>2026-03-22T08:38:10.166Z</time></trkpt><trkpt lat="43.7112611" lon="12.7846311"><ele>421.0</ele><time>2026-03-22T08:38:23.665Z</time></trkpt><trkpt lat="43.7112149" lon="12.7845603"><ele>421.0</ele><time>2026-03-22T08:38:31.685Z</time></trkpt><trkpt lat="43.7111661" lon="12.7846478"><ele>421.0</ele><time>2026-03-22T08:38:42.674Z</time></trkpt><trkpt lat="43.7110943" lon="12.7846824"><ele>421.00000000000006</ele><time>2026-03-22T08:38:46.667Z</time></trkpt><trkpt lat="43.7111788" lon="12.7846164"><ele>421.0</ele><time>2026-03-22T08:39:04.678Z</time></trkpt><trkpt lat="43.7112011" lon="12.7845202"><ele>421.00000000000006</ele><time>2026-03-22T08:39:22.693Z</time></trkpt><trkpt lat="43.7112398" lon="12.7843814"><ele>421.0</ele><time>2026-03-22T08:39:32.664Z</time></trkpt><trkpt lat="43.7112616" lon="12.7844738"><ele>421.0</ele><time>2026-03-22T08:39:40.732Z</time></trkpt><trkpt lat="43.7112389" lon="12.7845598"><ele>421.0</ele><time>2026-03-22T08:39:50.676Z</time></trkpt><trkpt lat="43.7111751" lon="12.7845059"><ele>421.00000000000006</ele><time>2026-03-22T08:41:34.67Z</time></trkpt><trkpt lat="43.7112378" lon="12.784589"><ele>421.0</ele><time>2026-03-22T08:41:44.676Z</time></trkpt><trkpt lat="43.7112655" lon="12.7844958"><ele>421.00000000000006</ele><time>2026-03-22T08:42:09.684Z</time></trkpt><trkpt lat="43.7111906" lon="12.7845149"><ele>421.0</ele><time>2026-03-22T08:42:21.686Z</time></trkpt><trkpt lat="43.7111365" lon="12.7846675"><ele>421.0</ele><time>2026-03-22T08:42:23.685Z</time></trkpt><trkpt lat="43.71108" lon="12.7847588"><ele>421.0</ele><time>2026-03-22T08:42:24.673Z</time></trkpt><trkpt lat="43.7110225" lon="12.7848225"><ele>421.00000000000006</ele><time>2026-03-22T08:42:25.67Z</time></trkpt><trkpt lat="43.7109535" lon="12.7848296"><ele>421.0</ele><time>2026-03-22T08:42:26.66Z</time></trkpt><trkpt lat="43.7108691" lon="12.7849146"><ele>420.25</ele><time>2026-03-22T08:42:27.663Z</time></trkpt><trkpt lat="43.710735" lon="12.7850023"><ele>419.5</ele><time>2026-03-22T08:42:28.648Z</time></trkpt><trkpt lat="43.7106327" lon="12.7850669"><ele>418.75</ele><time>2026-03-22T08:42:29.667Z</time></trkpt><trkpt lat="43.710547" lon="12.7851274"><ele>418.0</ele><time>2026-03-22T08:42:30.654Z</time></trkpt><trkpt lat="43.7104533" lon="12.785155"><ele>416.0</ele><time>2026-03-22T08:42:31.663Z</time></trkpt><trkpt lat="43.7103457" lon="12.7852505"><ele>414.0</ele><time>2026-03-22T08:42:32.66Z</time></trkpt><trkpt lat="43.7102648" lon="12.7853954"><ele>412.0</ele><time>2026-03-22T08:42:33.655Z</time></trkpt><trkpt lat="43.710204" lon="12.7855436"><ele>410.0</ele><time>2026-03-22T08:42:34.666Z</time></trkpt><trkpt lat="43.7101059" lon="12.7856474"><ele>410.0</ele><time>2026-03-22T08:42:35.656Z</time></trkpt><trkpt lat="43.7099893" lon="12.7857547"><ele>410.0</ele><time>2026-03-22T08:42:36.666Z</time></trkpt><trkpt lat="43.7098771" lon="12.7858856"><ele>410.0</ele><time>2026-03-22T08:42:37.67Z</time></trkpt><trkpt lat="43.7097896" lon="12.7860348"><ele>410.0</ele><time>2026-03-22T08:42:38.663Z</time></trkpt><trkpt lat="43.7097244" lon="12.7861958"><ele>407.0</ele><time>2026-03-22T08:42:39.664Z</time></trkpt><trkpt lat="43.7096223" lon="12.7863002"><ele>404.0</ele><time>2026-03-22T08:42:40.661Z</time></trkpt><trkpt lat="43.709529" lon="12.7864298"><ele>401.0</ele><time>2026-03-22T08:42:41.654Z</time></trkpt><trkpt lat="43.7094414" lon="12.7866061"><ele>398.0</ele><time>2026-03-22T08:42:42.651Z</time></trkpt><trkpt lat="43.7093346" lon="12.7867212"><ele>398.0</ele><time>2026-03-22T08:42:43.659Z</time></trkpt><trkpt lat="43.7091848" lon="12.786767"><ele>398.0</ele><time>2026-03-22T08:42:44.643Z</time></trkpt><trkpt lat="43.7090637" lon="12.7867752"><ele>398.0</ele><time>2026-03-22T08:42:45.656Z</time></trkpt><trkpt lat="43.7089512" lon="12.7867733"><ele>398.0</ele><time>2026-03-22T08:42:46.656Z</time></trkpt><trkpt lat="43.7088504" lon="12.7867559"><ele>398.0</ele><time>2026-03-22T08:42:47.651Z</time></trkpt><trkpt lat="43.7087509" lon="12.7867392"><ele>398.0</ele><time>2026-03-22T08:42:48.657Z</time></trkpt><trkpt lat="43.7086707" lon="12.7867153"><ele>398.0</ele><time>2026-03-22T08:42:49.661Z</time></trkpt><trkpt lat="43.7085921" lon="12.7866922"><ele>398.0</ele><time>2026-03-22T08:42:50.662Z</time></trkpt><trkpt lat="43.7085262" lon="12.7868013"><ele>398.0</ele><time>2026-03-22T08:42:52.667Z</time></trkpt><trkpt lat="43.708549" lon="12.7869823"><ele>397.16666666666663</ele><time>2026-03-22T08:42:54.654Z</time></trkpt><trkpt lat="43.7085443" lon="12.7870957"><ele>396.3333333333333</ele><time>2026-03-22T08:42:55.663Z</time></trkpt><trkpt lat="43.7085095" lon="12.7871897"><ele>395.5</ele><time>2026-03-22T08:42:56.659Z</time></trkpt><trkpt lat="43.7084472" lon="12.7872564"><ele>394.66666666666663</ele><time>2026-03-22T08:42:57.667Z</time></trkpt><trkpt lat="43.7083565" lon="12.7872891"><ele>393.8333333333333</ele><time>2026-03-22T08:42:58.662Z</time></trkpt><trkpt lat="43.7082689" lon="12.7872836"><ele>393.0</ele><time>2026-03-22T08:42:59.661Z</time></trkpt><trkpt lat="43.7081833" lon="12.7872601"><ele>393.0</ele><time>2026-03-22T08:43:00.68Z</time></trkpt><trkpt lat="43.7080881" lon="12.7872022"><ele>393.0</ele><time>2026-03-22T08:43:01.676Z</time></trkpt><trkpt lat="43.7079903" lon="12.787165"><ele>393.0</ele><time>2026-03-22T08:43:02.665Z</time></trkpt><trkpt lat="43.7078911" lon="12.787144"><ele>393.0</ele><time>2026-03-22T08:43:03.657Z</time></trkpt><trkpt lat="43.707797" lon="12.7871321"><ele>393.0</ele><time>2026-03-22T08:43:04.658Z</time></trkpt><trkpt lat="43.7077105" lon="12.7871394"><ele>393.79999999999995</ele><time>2026-03-22T08:43:05.668Z</time></trkpt><trkpt lat="43.7076282" lon="12.7872048"><ele>394.6</ele><time>2026-03-22T08:43:06.659Z</time></trkpt><trkpt lat="43.7075877" lon="12.7873399"><ele>395.4</ele><time>2026-03-22T08:43:07.662Z</time></trkpt><trkpt lat="43.7075523" lon="12.7874704"><ele>396.20000000000005</ele><time>2026-03-22T08:43:08.671Z</time></trkpt><trkpt lat="43.7075126" lon="12.7875988"><ele>397.0</ele><time>2026-03-22T08:43:09.66Z</time></trkpt><trkpt lat="43.7074579" lon="12.7877275"><ele>397.0</ele><time>2026-03-22T08:43:10.655Z</time></trkpt><trkpt lat="43.7073895" lon="12.7878222"><ele>397.0</ele><time>2026-03-22T08:43:11.664Z</time></trkpt><trkpt lat="43.7073096" lon="12.7878993"><ele>397.0</ele><time>2026-03-22T08:43:12.662Z</time></trkpt><trkpt lat="43.7072377" lon="12.788003"><ele>397.0</ele><time>2026-03-22T08:43:13.66Z</time></trkpt><trkpt lat="43.7071767" lon="12.7881534"><ele>397.0</ele><time>2026-03-22T08:43:14.651Z</time></trkpt><trkpt lat="43.7071321" lon="12.7883314"><ele>394.75</ele><time>2026-03-22T08:43:15.655Z</time></trkpt><trkpt lat="43.7070812" lon="12.7885234"><ele>392.5</ele><time>2026-03-22T08:43:16.67Z</time></trkpt><trkpt lat="43.7070261" lon="12.7887042"><ele>390.25</ele><time>2026-03-22T08:43:17.664Z</time></trkpt><trkpt lat="43.7069885" lon="12.7889172"><ele>388.0</ele><time>2026-03-22T08:43:18.662Z</time></trkpt><trkpt lat="43.7069745" lon="12.7891789"><ele>389.33333333333337</ele><time>2026-03-22T08:43:19.646Z</time></trkpt><trkpt lat="43.7069892" lon="12.7894143"><ele>390.66666666666663</ele><time>2026-03-22T08:43:20.65Z</time></trkpt><trkpt lat="43.7070416" lon="12.7896527"><ele>392.0</ele><time>2026-03-22T08:43:21.655Z</time></trkpt><trkpt lat="43.7070831" lon="12.7898315"><ele>392.0</ele><time>2026-03-22T08:43:22.658Z</time></trkpt><trkpt lat="43.7071084" lon="12.7899978"><ele>392.0</ele><time>2026-03-22T08:43:23.66Z</time></trkpt><trkpt lat="43.7071395" lon="12.7901452"><ele>392.0</ele><time>2026-03-22T08:43:24.659Z</time></trkpt><trkpt lat="43.7071527" lon="12.7902507"><ele>392.0</ele><time>2026-03-22T08:43:25.658Z</time></trkpt><trkpt lat="43.7071837" lon="12.7904574"><ele>390.0</ele><time>2026-03-22T08:43:27.672Z</time></trkpt><trkpt lat="43.7071915" lon="12.790611"><ele>388.0</ele><time>2026-03-22T08:43:28.662Z</time></trkpt><trkpt lat="43.7071135" lon="12.7907253"><ele>386.0</ele><time>2026-03-22T08:43:29.666Z</time></trkpt><trkpt lat="43.7070266" lon="12.7907921"><ele>384.0</ele><time>2026-03-22T08:43:30.661Z</time></trkpt><trkpt lat="43.7069051" lon="12.7907918"><ele>382.0</ele><time>2026-03-22T08:43:31.704Z</time></trkpt><trkpt lat="43.7068002" lon="12.7908757"><ele>384.6</ele><time>2026-03-22T08:43:33.668Z</time></trkpt><trkpt lat="43.7066848" lon="12.7908546"><ele>387.20000000000005</ele><time>2026-03-22T08:43:34.67Z</time></trkpt><trkpt lat="43.7066198" lon="12.7909121"><ele>389.8</ele><time>2026-03-22T08:43:35.661Z</time></trkpt><trkpt lat="43.7065884" lon="12.79107"><ele>392.4</ele><time>2026-03-22T08:43:36.665Z</time></trkpt><trkpt lat="43.7065343" lon="12.7911897"><ele>395.0</ele><time>2026-03-22T08:43:37.655Z</time></trkpt><trkpt lat="43.7064993" lon="12.7913008"><ele>395.0</ele><time>2026-03-22T08:43:38.669Z</time></trkpt><trkpt lat="43.7064337" lon="12.7914124"><ele>395.0</ele><time>2026-03-22T08:43:39.663Z</time></trkpt><trkpt lat="43.7063717" lon="12.7915694"><ele>395.0</ele><time>2026-03-22T08:43:40.666Z</time></trkpt><trkpt lat="43.7063107" lon="12.7917125"><ele>395.0</ele><time>2026-03-22T08:43:41.666Z</time></trkpt><trkpt lat="43.7062653" lon="12.7918532"><ele>393.5</ele><time>2026-03-22T08:43:42.667Z</time></trkpt><trkpt lat="43.7061933" lon="12.7919934"><ele>392.0</ele><time>2026-03-22T08:43:43.654Z</time></trkpt><trkpt lat="43.706123" lon="12.7921277"><ele>390.5</ele><time>2026-03-22T08:43:44.656Z</time></trkpt><trkpt lat="43.7060165" lon="12.7922381"><ele>389.0</ele><time>2026-03-22T08:43:45.652Z</time></trkpt><trkpt lat="43.7059164" lon="12.7923482"><ele>393.0</ele><time>2026-03-22T08:43:46.652Z</time></trkpt><trkpt lat="43.7058272" lon="12.7924451"><ele>397.0</ele><time>2026-03-22T08:43:47.66Z</time></trkpt><trkpt lat="43.7057148" lon="12.7924871"><ele>401.0</ele><time>2026-03-22T08:43:48.658Z</time></trkpt><trkpt lat="43.7056026" lon="12.7925547"><ele>405.0</ele><time>2026-03-22T08:43:49.66Z</time></trkpt><trkpt lat="43.7054991" lon="12.7926459"><ele>404.5</ele><time>2026-03-22T08:43:50.659Z</time></trkpt><trkpt lat="43.7054011" lon="12.7927555"><ele>404.0</ele><time>2026-03-22T08:43:51.661Z</time></trkpt><trkpt lat="43.705305" lon="12.7928583"><ele>403.5</ele><time>2026-03-22T08:43:52.659Z</time></trkpt><trkpt lat="43.7052275" lon="12.7929312"><ele>403.0</ele><time>2026-03-22T08:43:53.656Z</time></trkpt><trkpt lat="43.7051047" lon="12.7929486"><ele>403.0</ele><time>2026-03-22T08:43:54.66Z</time></trkpt><trkpt lat="43.7050098" lon="12.7929379"><ele>403.0</ele><time>2026-03-22T08:43:55.66Z</time></trkpt><trkpt lat="43.7049146" lon="12.7929967"><ele>403.0</ele><time>2026-03-22T08:43:56.655Z</time></trkpt><trkpt lat="43.7048223" lon="12.7931414"><ele>403.0</ele><time>2026-03-22T08:43:57.647Z</time></trkpt><trkpt lat="43.7047234" lon="12.7932282"><ele>403.0</ele><time>2026-03-22T08:43:58.647Z</time></trkpt><trkpt lat="43.7045844" lon="12.7933349"><ele>403.0</ele><time>2026-03-22T08:43:59.655Z</time></trkpt><trkpt lat="43.7044332" lon="12.7934473"><ele>403.0</ele><time>2026-03-22T08:44:00.653Z</time></trkpt><trkpt lat="43.7043033" lon="12.7935317"><ele>402.0</ele><time>2026-03-22T08:44:01.679Z</time></trkpt><trkpt lat="43.7041834" lon="12.7935927"><ele>401.0</ele><time>2026-03-22T08:44:02.656Z</time></trkpt><trkpt lat="43.7040552" lon="12.7936583"><ele>400.0</ele><time>2026-03-22T08:44:03.651Z</time></trkpt><trkpt lat="43.7039246" lon="12.7937258"><ele>399.0</ele><time>2026-03-22T08:44:04.659Z</time></trkpt><trkpt lat="43.7037937" lon="12.793763"><ele>399.0</ele><time>2026-03-22T08:44:05.661Z</time></trkpt><trkpt lat="43.7036502" lon="12.7937923"><ele>399.0</ele><time>2026-03-22T08:44:06.662Z</time></trkpt><trkpt lat="43.7034997" lon="12.7938178"><ele>399.0</ele><time>2026-03-22T08:44:07.662Z</time></trkpt><trkpt lat="43.7033634" lon="12.7938163"><ele>399.0</ele><time>2026-03-22T08:44:08.661Z</time></trkpt><trkpt lat="43.7032216" lon="12.7938098"><ele>399.25</ele><time>2026-03-22T08:44:09.663Z</time></trkpt><trkpt lat="43.7030828" lon="12.7938002"><ele>399.5</ele><time>2026-03-22T08:44:10.674Z</time></trkpt><trkpt lat="43.7029478" lon="12.7937282"><ele>399.75</ele><time>2026-03-22T08:44:11.669Z</time></trkpt><trkpt lat="43.7028298" lon="12.7936083"><ele>400.0</ele><time>2026-03-22T08:44:12.661Z</time></trkpt><trkpt lat="43.7027079" lon="12.793482"><ele>401.75</ele><time>2026-03-22T08:44:13.661Z</time></trkpt><trkpt lat="43.702593" lon="12.793379"><ele>403.5</ele><time>2026-03-22T08:44:14.673Z</time></trkpt><trkpt lat="43.7024934" lon="12.7932958"><ele>405.25</ele><time>2026-03-22T08:44:15.663Z</time></trkpt><trkpt lat="43.7024012" lon="12.7931801"><ele>407.0</ele><time>2026-03-22T08:44:16.652Z</time></trkpt><trkpt lat="43.7023146" lon="12.7930555"><ele>407.0</ele><time>2026-03-22T08:44:17.65Z</time></trkpt><trkpt lat="43.7022398" lon="12.7929114"><ele>407.0</ele><time>2026-03-22T08:44:18.656Z</time></trkpt><trkpt lat="43.7021541" lon="12.792799"><ele>407.0</ele><time>2026-03-22T08:44:19.654Z</time></trkpt><trkpt lat="43.70207" lon="12.7927017"><ele>407.0</ele><time>2026-03-22T08:44:20.655Z</time></trkpt><trkpt lat="43.7019936" lon="12.7926253"><ele>408.40000000000003</ele><time>2026-03-22T08:44:21.658Z</time></trkpt><trkpt lat="43.7019083" lon="12.7925701"><ele>409.8</ele><time>2026-03-22T08:44:22.658Z</time></trkpt><trkpt lat="43.701818" lon="12.7925071"><ele>411.2</ele><time>2026-03-22T08:44:23.665Z</time></trkpt><trkpt lat="43.7017215" lon="12.7924719"><ele>412.6</ele><time>2026-03-22T08:44:24.652Z</time></trkpt><trkpt lat="43.7016447" lon="12.7924676"><ele>414.0</ele><time>2026-03-22T08:44:25.651Z</time></trkpt><trkpt lat="43.701549" lon="12.7924556"><ele>414.0</ele><time>2026-03-22T08:44:26.639Z</time></trkpt><trkpt lat="43.7014465" lon="12.7924126"><ele>414.0</ele><time>2026-03-22T08:44:27.657Z</time></trkpt><trkpt lat="43.7013549" lon="12.7923623"><ele>414.0</ele><time>2026-03-22T08:44:28.662Z</time></trkpt><trkpt lat="43.7012625" lon="12.7922938"><ele>414.0</ele><time>2026-03-22T08:44:29.667Z</time></trkpt><trkpt lat="43.7011569" lon="12.7922275"><ele>414.0</ele><time>2026-03-22T08:44:30.655Z</time></trkpt><trkpt lat="43.701039" lon="12.7921772"><ele>410.2</ele><time>2026-03-22T08:44:31.66Z</time></trkpt><trkpt lat="43.7009333" lon="12.7921538"><ele>406.4</ele><time>2026-03-22T08:44:32.667Z</time></trkpt><trkpt lat="43.7008296" lon="12.7921195"><ele>402.6</ele><time>2026-03-22T08:44:33.651Z</time></trkpt><trkpt lat="43.7007242" lon="12.7920829"><ele>398.8</ele><time>2026-03-22T08:44:34.658Z</time></trkpt><trkpt lat="43.7006202" lon="12.7920261"><ele>395.0</ele><time>2026-03-22T08:44:35.657Z</time></trkpt><trkpt lat="43.7005141" lon="12.7919628"><ele>395.0</ele><time>2026-03-22T08:44:36.666Z</time></trkpt><trkpt lat="43.7004072" lon="12.7918819"><ele>395.0</ele><time>2026-03-22T08:44:37.654Z</time></trkpt><trkpt lat="43.7003182" lon="12.7917832"><ele>395.0</ele><time>2026-03-22T08:44:38.665Z</time></trkpt><trkpt lat="43.7002228" lon="12.791694"><ele>395.0</ele><time>2026-03-22T08:44:39.663Z</time></trkpt><trkpt lat="43.7001249" lon="12.7916173"><ele>392.0</ele><time>2026-03-22T08:44:40.646Z</time></trkpt><trkpt lat="43.7000299" lon="12.7915456"><ele>389.0</ele><time>2026-03-22T08:44:41.664Z</time></trkpt><trkpt lat="43.6999214" lon="12.791439"><ele>386.0</ele><time>2026-03-22T08:44:42.651Z</time></trkpt><trkpt lat="43.6998282" lon="12.7913439"><ele>383.0</ele><time>2026-03-22T08:44:43.652Z</time></trkpt><trkpt lat="43.6997683" lon="12.791242"><ele>383.0</ele><time>2026-03-22T08:44:44.659Z</time></trkpt><trkpt lat="43.6997924" lon="12.7911308"><ele>383.0</ele><time>2026-03-22T08:44:45.649Z</time></trkpt><trkpt lat="43.6997668" lon="12.7909667"><ele>383.0</ele><time>2026-03-22T08:44:47.645Z</time></trkpt><trkpt lat="43.6996608" lon="12.7909781"><ele>383.0</ele><time>2026-03-22T08:44:49.649Z</time></trkpt><trkpt lat="43.6996123" lon="12.7910582"><ele>383.0</ele><time>2026-03-22T08:44:50.835Z</time></trkpt><trkpt lat="43.699514" lon="12.7912325"><ele>383.0</ele><time>2026-03-22T08:44:52.653Z</time></trkpt><trkpt lat="43.6994363" lon="12.7912902"><ele>383.0</ele><time>2026-03-22T08:44:53.656Z</time></trkpt><trkpt lat="43.6993373" lon="12.7912864"><ele>383.0</ele><time>2026-03-22T08:44:54.657Z</time></trkpt><trkpt lat="43.6992295" lon="12.7913195"><ele>383.0</ele><time>2026-03-22T08:44:55.656Z</time></trkpt><trkpt lat="43.6991369" lon="12.7913732"><ele>383.0</ele><time>2026-03-22T08:44:56.656Z</time></trkpt><trkpt lat="43.699101" lon="12.7914651"><ele>386.75</ele><time>2026-03-22T08:44:57.651Z</time></trkpt><trkpt lat="43.6990926" lon="12.7916552"><ele>390.5</ele><time>2026-03-22T08:44:59.654Z</time></trkpt><trkpt lat="43.6991517" lon="12.7917694"><ele>394.25</ele><time>2026-03-22T08:45:00.652Z</time></trkpt><trkpt lat="43.6992241" lon="12.7919199"><ele>398.0</ele><time>2026-03-22T08:45:01.663Z</time></trkpt><trkpt lat="43.6992836" lon="12.7920585"><ele>397.75</ele><time>2026-03-22T08:45:02.647Z</time></trkpt><trkpt lat="43.6993311" lon="12.7922134"><ele>397.5</ele><time>2026-03-22T08:45:03.657Z</time></trkpt><trkpt lat="43.6993467" lon="12.7923702"><ele>397.25</ele><time>2026-03-22T08:45:04.64Z</time></trkpt><trkpt lat="43.6993666" lon="12.7925378"><ele>397.0</ele><time>2026-03-22T08:45:05.648Z</time></trkpt><trkpt lat="43.6993733" lon="12.7926997"><ele>397.0</ele><time>2026-03-22T08:45:06.648Z</time></trkpt><trkpt lat="43.6993789" lon="12.7928797"><ele>397.0</ele><time>2026-03-22T08:45:07.655Z</time></trkpt><trkpt lat="43.6993798" lon="12.7930516"><ele>397.0</ele><time>2026-03-22T08:45:08.658Z</time></trkpt><trkpt lat="43.699366" lon="12.7931866"><ele>397.0</ele><time>2026-03-22T08:45:09.666Z</time></trkpt><trkpt lat="43.699333" lon="12.793308"><ele>397.0</ele><time>2026-03-22T08:45:10.662Z</time></trkpt><trkpt lat="43.699306" lon="12.7934341"><ele>393.25</ele><time>2026-03-22T08:45:11.662Z</time></trkpt><trkpt lat="43.6992747" lon="12.7935722"><ele>389.5</ele><time>2026-03-22T08:45:12.676Z</time></trkpt><trkpt lat="43.6992207" lon="12.7937293"><ele>385.75</ele><time>2026-03-22T08:45:13.666Z</time></trkpt><trkpt lat="43.699152" lon="12.7938918"><ele>382.0</ele><time>2026-03-22T08:45:14.665Z</time></trkpt><trkpt lat="43.6990931" lon="12.7940334"><ele>382.0</ele><time>2026-03-22T08:45:15.664Z</time></trkpt><trkpt lat="43.6990238" lon="12.7941684"><ele>382.0</ele><time>2026-03-22T08:45:16.668Z</time></trkpt><trkpt lat="43.6989373" lon="12.7942832"><ele>382.0</ele><time>2026-03-22T08:45:17.658Z</time></trkpt><trkpt lat="43.6988402" lon="12.7943668"><ele>382.0</ele><time>2026-03-22T08:45:18.658Z</time></trkpt><trkpt lat="43.6987403" lon="12.7944391"><ele>378.6</ele><time>2026-03-22T08:45:19.658Z</time></trkpt><trkpt lat="43.6986609" lon="12.7945317"><ele>375.20000000000005</ele><time>2026-03-22T08:45:20.664Z</time></trkpt><trkpt lat="43.6986288" lon="12.7946452"><ele>371.8</ele><time>2026-03-22T08:45:21.66Z</time></trkpt><trkpt lat="43.6986059" lon="12.7947792"><ele>368.4</ele><time>2026-03-22T08:45:22.663Z</time></trkpt><trkpt lat="43.6986004" lon="12.7949146"><ele>365.0</ele><time>2026-03-22T08:45:23.66Z</time></trkpt><trkpt lat="43.6986023" lon="12.7950739"><ele>367.8</ele><time>2026-03-22T08:45:24.664Z</time></trkpt><trkpt lat="43.6985803" lon="12.7952109"><ele>370.6</ele><time>2026-03-22T08:45:25.668Z</time></trkpt><trkpt lat="43.6985558" lon="12.7953309"><ele>373.4</ele><time>2026-03-22T08:45:26.671Z</time></trkpt><trkpt lat="43.6985245" lon="12.7954094"><ele>376.2</ele><time>2026-03-22T08:45:27.668Z</time></trkpt><trkpt lat="43.698508" lon="12.7955155"><ele>379.0</ele><time>2026-03-22T08:45:28.662Z</time></trkpt><trkpt lat="43.6984639" lon="12.795687"><ele>379.0</ele><time>2026-03-22T08:45:29.662Z</time></trkpt><trkpt lat="43.6984319" lon="12.7958833"><ele>379.0</ele><time>2026-03-22T08:45:30.662Z</time></trkpt><trkpt lat="43.6983954" lon="12.7960931"><ele>379.0</ele><time>2026-03-22T08:45:31.672Z</time></trkpt><trkpt lat="43.6983508" lon="12.7962552"><ele>379.0</ele><time>2026-03-22T08:45:32.66Z</time></trkpt><trkpt lat="43.6983099" lon="12.7964598"><ele>376.3333333333333</ele><time>2026-03-22T08:45:33.669Z</time></trkpt><trkpt lat="43.6982634" lon="12.7967081"><ele>373.6666666666667</ele><time>2026-03-22T08:45:34.675Z</time></trkpt><trkpt lat="43.6982216" lon="12.7970549"><ele>371.0</ele><time>2026-03-22T08:45:35.67Z</time></trkpt><trkpt lat="43.6981434" lon="12.7973371"><ele>368.5</ele><time>2026-03-22T08:45:36.661Z</time></trkpt><trkpt lat="43.6980606" lon="12.7975395"><ele>366.0</ele><time>2026-03-22T08:45:37.664Z</time></trkpt><trkpt lat="43.6979786" lon="12.7977073"><ele>363.5</ele><time>2026-03-22T08:45:38.666Z</time></trkpt><trkpt lat="43.6978821" lon="12.7977971"><ele>361.0</ele><time>2026-03-22T08:45:39.67Z</time></trkpt><trkpt lat="43.6977633" lon="12.7978946"><ele>362.0</ele><time>2026-03-22T08:45:40.675Z</time></trkpt><trkpt lat="43.6976444" lon="12.7979701"><ele>363.0</ele><time>2026-03-22T08:45:41.67Z</time></trkpt><trkpt lat="43.697536" lon="12.7980581"><ele>364.0</ele><time>2026-03-22T08:45:42.678Z</time></trkpt><trkpt lat="43.6974375" lon="12.798147"><ele>365.0</ele><time>2026-03-22T08:45:43.683Z</time></trkpt><trkpt lat="43.6973433" lon="12.7982345"><ele>365.0</ele><time>2026-03-22T08:45:44.676Z</time></trkpt><trkpt lat="43.6972407" lon="12.7983284"><ele>365.0</ele><time>2026-03-22T08:45:45.683Z</time></trkpt><trkpt lat="43.6971352" lon="12.7984241"><ele>365.0</ele><time>2026-03-22T08:45:46.667Z</time></trkpt><trkpt lat="43.697038" lon="12.7985141"><ele>365.0</ele><time>2026-03-22T08:45:47.674Z</time></trkpt><trkpt lat="43.6969492" lon="12.7986052"><ele>367.75</ele><time>2026-03-22T08:45:48.682Z</time></trkpt><trkpt lat="43.6968508" lon="12.798707"><ele>370.5</ele><time>2026-03-22T08:45:49.674Z</time></trkpt><trkpt lat="43.6967576" lon="12.7988084"><ele>373.25</ele><time>2026-03-22T08:45:50.67Z</time></trkpt><trkpt lat="43.6966734" lon="12.7989118"><ele>376.0</ele><time>2026-03-22T08:45:51.662Z</time></trkpt><trkpt lat="43.6965953" lon="12.7990232"><ele>376.0</ele><time>2026-03-22T08:45:52.672Z</time></trkpt><trkpt lat="43.6965366" lon="12.7991245"><ele>376.0</ele><time>2026-03-22T08:45:53.66Z</time></trkpt><trkpt lat="43.6964841" lon="12.7992303"><ele>376.0</ele><time>2026-03-22T08:45:54.67Z</time></trkpt><trkpt lat="43.6964272" lon="12.7993303"><ele>376.0</ele><time>2026-03-22T08:45:55.665Z</time></trkpt><trkpt lat="43.6963861" lon="12.7994507"><ele>376.0</ele><time>2026-03-22T08:45:56.666Z</time></trkpt><trkpt lat="43.6963578" lon="12.7995814"><ele>377.75</ele><time>2026-03-22T08:45:57.665Z</time></trkpt><trkpt lat="43.6963243" lon="12.7997201"><ele>379.5</ele><time>2026-03-22T08:45:58.676Z</time></trkpt><trkpt lat="43.6962972" lon="12.7998816"><ele>381.25</ele><time>2026-03-22T08:45:59.677Z</time></trkpt><trkpt lat="43.6962624" lon="12.8000492"><ele>383.0</ele><time>2026-03-22T08:46:00.672Z</time></trkpt><trkpt lat="43.6962216" lon="12.8002069"><ele>383.0</ele><time>2026-03-22T08:46:01.686Z</time></trkpt><trkpt lat="43.6961778" lon="12.8003601"><ele>383.0</ele><time>2026-03-22T08:46:02.677Z</time></trkpt><trkpt lat="43.6961365" lon="12.8005293"><ele>383.0</ele><time>2026-03-22T08:46:03.673Z</time></trkpt><trkpt lat="43.6961018" lon="12.8007099"><ele>383.0</ele><time>2026-03-22T08:46:04.671Z</time></trkpt><trkpt lat="43.6960678" lon="12.8008981"><ele>373.33333333333337</ele><time>2026-03-22T08:46:05.696Z</time></trkpt><trkpt lat="43.6960436" lon="12.8010929"><ele>363.6666666666667</ele><time>2026-03-22T08:46:06.676Z</time></trkpt><trkpt lat="43.6960254" lon="12.8012973"><ele>354.0</ele><time>2026-03-22T08:46:07.675Z</time></trkpt><trkpt lat="43.6960165" lon="12.8015227"><ele>354.0</ele><time>2026-03-22T08:46:08.68Z</time></trkpt><trkpt lat="43.6960167" lon="12.8017518"><ele>354.0</ele><time>2026-03-22T08:46:09.682Z</time></trkpt><trkpt lat="43.6960031" lon="12.8019852"><ele>354.0</ele><time>2026-03-22T08:46:10.675Z</time></trkpt><trkpt lat="43.6960015" lon="12.8022104"><ele>353.75</ele><time>2026-03-22T08:46:11.671Z</time></trkpt><trkpt lat="43.695996" lon="12.8024242"><ele>353.5</ele><time>2026-03-22T08:46:12.669Z</time></trkpt><trkpt lat="43.6959854" lon="12.802624"><ele>353.25</ele><time>2026-03-22T08:46:13.667Z</time></trkpt><trkpt lat="43.6959708" lon="12.802823"><ele>353.0</ele><time>2026-03-22T08:46:14.68Z</time></trkpt><trkpt lat="43.6959379" lon="12.8029965"><ele>353.0</ele><time>2026-03-22T08:46:15.67Z</time></trkpt><trkpt lat="43.6958831" lon="12.8031573"><ele>353.0</ele><time>2026-03-22T08:46:16.67Z</time></trkpt><trkpt lat="43.6958492" lon="12.8033217"><ele>353.0</ele><time>2026-03-22T08:46:17.672Z</time></trkpt><trkpt lat="43.6958401" lon="12.8035129"><ele>353.0</ele><time>2026-03-22T08:46:18.678Z</time></trkpt><trkpt lat="43.6958614" lon="12.8036903"><ele>349.33333333333337</ele><time>2026-03-22T08:46:19.677Z</time></trkpt><trkpt lat="43.6959045" lon="12.8038863"><ele>345.6666666666667</ele><time>2026-03-22T08:46:20.676Z</time></trkpt><trkpt lat="43.695965" lon="12.8040892"><ele>342.0</ele><time>2026-03-22T08:46:21.675Z</time></trkpt><trkpt lat="43.6960263" lon="12.8042732"><ele>340.0</ele><time>2026-03-22T08:46:22.672Z</time></trkpt><trkpt lat="43.6960993" lon="12.8044382"><ele>338.0</ele><time>2026-03-22T08:46:23.666Z</time></trkpt><trkpt lat="43.6961615" lon="12.8046"><ele>336.0</ele><time>2026-03-22T08:46:24.669Z</time></trkpt><trkpt lat="43.6962044" lon="12.8047811"><ele>334.0</ele><time>2026-03-22T08:46:25.673Z</time></trkpt><trkpt lat="43.6962038" lon="12.8049559"><ele>334.0</ele><time>2026-03-22T08:46:26.664Z</time></trkpt><trkpt lat="43.6961673" lon="12.8051212"><ele>334.0</ele><time>2026-03-22T08:46:27.659Z</time></trkpt><trkpt lat="43.6961511" lon="12.8052811"><ele>334.0</ele><time>2026-03-22T08:46:28.66Z</time></trkpt><trkpt lat="43.6961399" lon="12.8054095"><ele>334.0</ele><time>2026-03-22T08:46:29.673Z</time></trkpt><trkpt lat="43.6961853" lon="12.805557"><ele>331.25</ele><time>2026-03-22T08:46:30.669Z</time></trkpt><trkpt lat="43.6962405" lon="12.805692"><ele>328.5</ele><time>2026-03-22T08:46:31.694Z</time></trkpt><trkpt lat="43.6963056" lon="12.8058292"><ele>325.75</ele><time>2026-03-22T08:46:32.671Z</time></trkpt><trkpt lat="43.6963783" lon="12.805973"><ele>323.0</ele><time>2026-03-22T08:46:33.679Z</time></trkpt><trkpt lat="43.6964594" lon="12.8061102"><ele>321.5</ele><time>2026-03-22T08:46:34.684Z</time></trkpt><trkpt lat="43.6965266" lon="12.8062384"><ele>320.0</ele><time>2026-03-22T08:46:35.673Z</time></trkpt><trkpt lat="43.6966161" lon="12.8063805"><ele>318.5</ele><time>2026-03-22T08:46:36.683Z</time></trkpt><trkpt lat="43.6966766" lon="12.8065292"><ele>317.0</ele><time>2026-03-22T08:46:37.672Z</time></trkpt><trkpt lat="43.6967127" lon="12.8066772"><ele>317.0</ele><time>2026-03-22T08:46:38.666Z</time></trkpt><trkpt lat="43.6967518" lon="12.8068216"><ele>317.0</ele><time>2026-03-22T08:46:39.671Z</time></trkpt><trkpt lat="43.6966704" lon="12.8069767"><ele>317.0</ele><time>2026-03-22T08:46:41.665Z</time></trkpt><trkpt lat="43.6965243" lon="12.8070951"><ele>317.0</ele><time>2026-03-22T08:46:42.669Z</time></trkpt><trkpt lat="43.6963955" lon="12.8071237"><ele>316.0</ele><time>2026-03-22T08:46:43.66Z</time></trkpt><trkpt lat="43.6962545" lon="12.8071486"><ele>315.0</ele><time>2026-03-22T08:46:44.67Z</time></trkpt><trkpt lat="43.6961287" lon="12.8071543"><ele>314.0</ele><time>2026-03-22T08:46:45.659Z</time></trkpt><trkpt lat="43.6960061" lon="12.8071345"><ele>313.0</ele><time>2026-03-22T08:46:46.661Z</time></trkpt><trkpt lat="43.6958985" lon="12.8071179"><ele>309.0</ele><time>2026-03-22T08:46:47.668Z</time></trkpt><trkpt lat="43.6958068" lon="12.8071204"><ele>305.0</ele><time>2026-03-22T08:46:48.683Z</time></trkpt><trkpt lat="43.6957391" lon="12.8071706"><ele>301.0</ele><time>2026-03-22T08:46:49.68Z</time></trkpt><trkpt lat="43.6957003" lon="12.8072711"><ele>297.0</ele><time>2026-03-22T08:46:50.684Z</time></trkpt><trkpt lat="43.6956994" lon="12.8074002"><ele>293.0</ele><time>2026-03-22T08:46:51.677Z</time></trkpt><trkpt lat="43.6957552" lon="12.807548"><ele>290.25</ele><time>2026-03-22T08:46:52.669Z</time></trkpt><trkpt lat="43.6958264" lon="12.8076977"><ele>287.5</ele><time>2026-03-22T08:46:53.669Z</time></trkpt><trkpt lat="43.6959033" lon="12.8078473"><ele>284.75</ele><time>2026-03-22T08:46:54.671Z</time></trkpt><trkpt lat="43.6959607" lon="12.8079765"><ele>282.0</ele><time>2026-03-22T08:46:55.666Z</time></trkpt><trkpt lat="43.6960161" lon="12.808095"><ele>282.0</ele><time>2026-03-22T08:46:56.67Z</time></trkpt><trkpt lat="43.6959969" lon="12.8082444"><ele>282.0</ele><time>2026-03-22T08:46:58.674Z</time></trkpt><trkpt lat="43.6958659" lon="12.8082136"><ele>282.0</ele><time>2026-03-22T08:47:00.674Z</time></trkpt><trkpt lat="43.6957745" lon="12.8080973"><ele>282.0</ele><time>2026-03-22T08:47:01.677Z</time></trkpt><trkpt lat="43.6956793" lon="12.8079556"><ele>282.0</ele><time>2026-03-22T08:47:02.666Z</time></trkpt><trkpt lat="43.6955788" lon="12.8078185"><ele>282.0</ele><time>2026-03-22T08:47:03.663Z</time></trkpt><trkpt lat="43.6954751" lon="12.8076829"><ele>282.0</ele><time>2026-03-22T08:47:04.668Z</time></trkpt><trkpt lat="43.6953747" lon="12.8075453"><ele>282.0</ele><time>2026-03-22T08:47:05.669Z</time></trkpt><trkpt lat="43.6952791" lon="12.8074213"><ele>277.0</ele><time>2026-03-22T08:47:06.663Z</time></trkpt><trkpt lat="43.6951797" lon="12.8072923"><ele>272.0</ele><time>2026-03-22T08:47:07.682Z</time></trkpt><trkpt lat="43.695091" lon="12.8071576"><ele>267.0</ele><time>2026-03-22T08:47:08.668Z</time></trkpt><trkpt lat="43.6950055" lon="12.8070285"><ele>262.0</ele><time>2026-03-22T08:47:09.669Z</time></trkpt><trkpt lat="43.6949078" lon="12.8069043"><ele>264.6</ele><time>2026-03-22T08:47:10.659Z</time></trkpt><trkpt lat="43.6948225" lon="12.8067948"><ele>267.2</ele><time>2026-03-22T08:47:11.67Z</time></trkpt><trkpt lat="43.6947432" lon="12.806691"><ele>269.8</ele><time>2026-03-22T08:47:12.671Z</time></trkpt><trkpt lat="43.6946909" lon="12.8065701"><ele>272.4</ele><time>2026-03-22T08:47:13.669Z</time></trkpt><trkpt lat="43.6946127" lon="12.8064886"><ele>275.0</ele><time>2026-03-22T08:47:14.67Z</time></trkpt><trkpt lat="43.6945263" lon="12.8064004"><ele>267.75</ele><time>2026-03-22T08:47:15.677Z</time></trkpt><trkpt lat="43.6944119" lon="12.8063683"><ele>260.5</ele><time>2026-03-22T08:47:16.665Z</time></trkpt><trkpt lat="43.694265" lon="12.8063237"><ele>253.25</ele><time>2026-03-22T08:47:17.67Z</time></trkpt><trkpt lat="43.6941253" lon="12.806256"><ele>246.0</ele><time>2026-03-22T08:47:18.659Z</time></trkpt><trkpt lat="43.6939971" lon="12.8061438"><ele>246.0</ele><time>2026-03-22T08:47:19.668Z</time></trkpt><trkpt lat="43.6938795" lon="12.8060208"><ele>246.0</ele><time>2026-03-22T08:47:20.67Z</time></trkpt><trkpt lat="43.693738" lon="12.8059134"><ele>246.0</ele><time>2026-03-22T08:47:21.664Z</time></trkpt><trkpt lat="43.6936064" lon="12.8058179"><ele>246.0</ele><time>2026-03-22T08:47:22.665Z</time></trkpt><trkpt lat="43.6934841" lon="12.8057391"><ele>246.0</ele><time>2026-03-22T08:47:23.674Z</time></trkpt><trkpt lat="43.6933696" lon="12.8056983"><ele>246.0</ele><time>2026-03-22T08:47:24.671Z</time></trkpt><trkpt lat="43.6932645" lon="12.8056667"><ele>246.0</ele><time>2026-03-22T08:47:25.671Z</time></trkpt><trkpt lat="43.6931753" lon="12.8056504"><ele>246.0</ele><time>2026-03-22T08:47:26.671Z</time></trkpt><trkpt lat="43.6931043" lon="12.8056408"><ele>246.00000000000003</ele><time>2026-03-22T08:47:27.684Z</time></trkpt><trkpt lat="43.6930153" lon="12.8057394"><ele>246.00000000000003</ele><time>2026-03-22T08:47:29.675Z</time></trkpt><trkpt lat="43.69299" lon="12.8058702"><ele>246.0</ele><time>2026-03-22T08:47:30.672Z</time></trkpt><trkpt lat="43.6929645" lon="12.8060156"><ele>246.0</ele><time>2026-03-22T08:47:31.685Z</time></trkpt><trkpt lat="43.6929224" lon="12.8061652"><ele>244.20000000000002</ele><time>2026-03-22T08:47:32.674Z</time></trkpt><trkpt lat="43.6928694" lon="12.8063169"><ele>242.40000000000003</ele><time>2026-03-22T08:47:33.678Z</time></trkpt><trkpt lat="43.6928081" lon="12.8064353"><ele>240.6</ele><time>2026-03-22T08:47:34.677Z</time></trkpt><trkpt lat="43.6927277" lon="12.8065131"><ele>238.8</ele><time>2026-03-22T08:47:35.673Z</time></trkpt><trkpt lat="43.6926675" lon="12.8065725"><ele>237.0</ele><time>2026-03-22T08:47:36.663Z</time></trkpt><trkpt lat="43.6926358" lon="12.8067087"><ele>237.0</ele><time>2026-03-22T08:47:38.688Z</time></trkpt><trkpt lat="43.6927422" lon="12.8067448"><ele>237.0</ele><time>2026-03-22T08:47:40.678Z</time></trkpt><trkpt lat="43.6928279" lon="12.8067033"><ele>237.0</ele><time>2026-03-22T08:47:41.67Z</time></trkpt><trkpt lat="43.6929332" lon="12.8066705"><ele>237.0</ele><time>2026-03-22T08:47:42.667Z</time></trkpt><trkpt lat="43.693026" lon="12.8066539"><ele>237.0</ele><time>2026-03-22T08:47:43.672Z</time></trkpt><trkpt lat="43.693105" lon="12.8066526"><ele>235.39999999999998</ele><time>2026-03-22T08:47:44.663Z</time></trkpt><trkpt lat="43.6932" lon="12.8067206"><ele>233.79999999999998</ele><time>2026-03-22T08:47:46.677Z</time></trkpt><trkpt lat="43.6931776" lon="12.8068138"><ele>232.2</ele><time>2026-03-22T08:47:47.672Z</time></trkpt><trkpt lat="43.6931029" lon="12.8069045"><ele>230.6</ele><time>2026-03-22T08:47:48.672Z</time></trkpt><trkpt lat="43.6929894" lon="12.8069795"><ele>229.0</ele><time>2026-03-22T08:47:49.664Z</time></trkpt><trkpt lat="43.6928705" lon="12.8070674"><ele>226.0</ele><time>2026-03-22T08:47:50.664Z</time></trkpt><trkpt lat="43.6927287" lon="12.8071542"><ele>223.0</ele><time>2026-03-22T08:47:51.671Z</time></trkpt><trkpt lat="43.6926058" lon="12.8072401"><ele>220.0</ele><time>2026-03-22T08:47:52.655Z</time></trkpt><trkpt lat="43.6924938" lon="12.8073169"><ele>217.0</ele><time>2026-03-22T08:47:53.659Z</time></trkpt><trkpt lat="43.6923895" lon="12.8073895"><ele>217.0</ele><time>2026-03-22T08:47:54.66Z</time></trkpt><trkpt lat="43.692294" lon="12.8074563"><ele>217.0</ele><time>2026-03-22T08:47:55.66Z</time></trkpt><trkpt lat="43.6922029" lon="12.8075249"><ele>217.0</ele><time>2026-03-22T08:47:56.653Z</time></trkpt><trkpt lat="43.6921282" lon="12.8075927"><ele>217.0</ele><time>2026-03-22T08:47:57.667Z</time></trkpt><trkpt lat="43.6921148" lon="12.8077101"><ele>217.0</ele><time>2026-03-22T08:47:59.672Z</time></trkpt><trkpt lat="43.6922175" lon="12.8077948"><ele>212.25</ele><time>2026-03-22T08:48:01.686Z</time></trkpt><trkpt lat="43.6923272" lon="12.8078671"><ele>207.5</ele><time>2026-03-22T08:48:02.678Z</time></trkpt><trkpt lat="43.6924627" lon="12.8079323"><ele>202.75</ele><time>2026-03-22T08:48:03.683Z</time></trkpt><trkpt lat="43.6925882" lon="12.8080135"><ele>198.0</ele><time>2026-03-22T08:48:04.679Z</time></trkpt><trkpt lat="43.6927327" lon="12.8081274"><ele>198.0</ele><time>2026-03-22T08:48:05.681Z</time></trkpt><trkpt lat="43.6928475" lon="12.8082946"><ele>198.0</ele><time>2026-03-22T08:48:06.673Z</time></trkpt><trkpt lat="43.692983" lon="12.8085047"><ele>198.0</ele><time>2026-03-22T08:48:07.677Z</time></trkpt><trkpt lat="43.6931214" lon="12.8087354"><ele>194.66666666666666</ele><time>2026-03-22T08:48:08.675Z</time></trkpt><trkpt lat="43.6932508" lon="12.8089786"><ele>191.33333333333331</ele><time>2026-03-22T08:48:09.707Z</time></trkpt><trkpt lat="43.6933561" lon="12.8092413"><ele>188.0</ele><time>2026-03-22T08:48:10.676Z</time></trkpt><trkpt lat="43.6934551" lon="12.8095097"><ele>187.75</ele><time>2026-03-22T08:48:11.669Z</time></trkpt><trkpt lat="43.6935342" lon="12.8097111"><ele>187.5</ele><time>2026-03-22T08:48:12.669Z</time></trkpt><trkpt lat="43.6936088" lon="12.8098828"><ele>187.25</ele><time>2026-03-22T08:48:13.674Z</time></trkpt><trkpt lat="43.6936892" lon="12.8100238"><ele>187.0</ele><time>2026-03-22T08:48:14.67Z</time></trkpt><trkpt lat="43.6937582" lon="12.8101367"><ele>186.0</ele><time>2026-03-22T08:48:15.667Z</time></trkpt><trkpt lat="43.6938045" lon="12.8102568"><ele>185.0</ele><time>2026-03-22T08:48:16.671Z</time></trkpt><trkpt lat="43.693834" lon="12.8104054"><ele>184.0</ele><time>2026-03-22T08:48:17.674Z</time></trkpt><trkpt lat="43.6938318" lon="12.8105924"><ele>183.0</ele><time>2026-03-22T08:48:18.672Z</time></trkpt><trkpt lat="43.6937739" lon="12.8107829"><ele>183.0</ele><time>2026-03-22T08:48:19.667Z</time></trkpt><trkpt lat="43.6937" lon="12.8109522"><ele>183.0</ele><time>2026-03-22T08:48:20.665Z</time></trkpt><trkpt lat="43.6936111" lon="12.8111394"><ele>183.0</ele><time>2026-03-22T08:48:21.666Z</time></trkpt><trkpt lat="43.693517" lon="12.811308"><ele>178.5</ele><time>2026-03-22T08:48:22.668Z</time></trkpt><trkpt lat="43.693423" lon="12.8114665"><ele>174.0</ele><time>2026-03-22T08:48:23.668Z</time></trkpt><trkpt lat="43.6933495" lon="12.8116078"><ele>169.5</ele><time>2026-03-22T08:48:24.672Z</time></trkpt><trkpt lat="43.693284" lon="12.8117183"><ele>165.0</ele><time>2026-03-22T08:48:25.675Z</time></trkpt><trkpt lat="43.6932018" lon="12.8118162"><ele>162.0</ele><time>2026-03-22T08:48:26.67Z</time></trkpt><trkpt lat="43.6930784" lon="12.8119001"><ele>159.0</ele><time>2026-03-22T08:48:27.667Z</time></trkpt><trkpt lat="43.6929453" lon="12.8119506"><ele>156.0</ele><time>2026-03-22T08:48:28.667Z</time></trkpt><trkpt lat="43.6928249" lon="12.8119626"><ele>153.0</ele><time>2026-03-22T08:48:29.671Z</time></trkpt><trkpt lat="43.6927072" lon="12.8119374"><ele>153.0</ele><time>2026-03-22T08:48:30.678Z</time></trkpt><trkpt lat="43.6925872" lon="12.8118705"><ele>153.0</ele><time>2026-03-22T08:48:31.685Z</time></trkpt><trkpt lat="43.6924551" lon="12.8117838"><ele>153.0</ele><time>2026-03-22T08:48:32.669Z</time></trkpt><trkpt lat="43.6923184" lon="12.8116734"><ele>153.0</ele><time>2026-03-22T08:48:33.67Z</time></trkpt><trkpt lat="43.6921904" lon="12.8115576"><ele>153.0</ele><time>2026-03-22T08:48:34.658Z</time></trkpt><trkpt lat="43.6920643" lon="12.8114398"><ele>153.0</ele><time>2026-03-22T08:48:35.662Z</time></trkpt><trkpt lat="43.6919641" lon="12.8113131"><ele>153.0</ele><time>2026-03-22T08:48:36.655Z</time></trkpt><trkpt lat="43.6918766" lon="12.8112388"><ele>153.0</ele><time>2026-03-22T08:48:37.663Z</time></trkpt><trkpt lat="43.6917563" lon="12.8111318"><ele>150.0</ele><time>2026-03-22T08:48:38.661Z</time></trkpt><trkpt lat="43.6916337" lon="12.8109991"><ele>147.0</ele><time>2026-03-22T08:48:39.676Z</time></trkpt><trkpt lat="43.6915105" lon="12.8108871"><ele>144.0</ele><time>2026-03-22T08:48:40.663Z</time></trkpt><trkpt lat="43.6913984" lon="12.8107991"><ele>141.0</ele><time>2026-03-22T08:48:41.661Z</time></trkpt><trkpt lat="43.6912787" lon="12.8107887"><ele>141.0</ele><time>2026-03-22T08:48:42.659Z</time></trkpt><trkpt lat="43.6911592" lon="12.8107774"><ele>141.0</ele><time>2026-03-22T08:48:43.668Z</time></trkpt><trkpt lat="43.691055" lon="12.8107526"><ele>141.0</ele><time>2026-03-22T08:48:44.666Z</time></trkpt><trkpt lat="43.6909642" lon="12.8107289"><ele>141.0</ele><time>2026-03-22T08:48:45.665Z</time></trkpt><trkpt lat="43.6908672" lon="12.810718"><ele>141.0</ele><time>2026-03-22T08:48:46.666Z</time></trkpt><trkpt lat="43.6907618" lon="12.810721"><ele>138.0</ele><time>2026-03-22T08:48:47.665Z</time></trkpt><trkpt lat="43.6906592" lon="12.810728"><ele>135.0</ele><time>2026-03-22T08:48:48.679Z</time></trkpt><trkpt lat="43.6905564" lon="12.8107328"><ele>132.0</ele><time>2026-03-22T08:48:49.679Z</time></trkpt><trkpt lat="43.6904523" lon="12.8107369"><ele>129.0</ele><time>2026-03-22T08:48:50.672Z</time></trkpt><trkpt lat="43.6903512" lon="12.8107419"><ele>126.0</ele><time>2026-03-22T08:48:51.666Z</time></trkpt><trkpt lat="43.6902528" lon="12.810745"><ele>124.19999999999999</ele><time>2026-03-22T08:48:52.664Z</time></trkpt><trkpt lat="43.6901581" lon="12.8107521"><ele>122.39999999999999</ele><time>2026-03-22T08:48:53.659Z</time></trkpt><trkpt lat="43.6900677" lon="12.8107541"><ele>120.6</ele><time>2026-03-22T08:48:54.656Z</time></trkpt><trkpt lat="43.6899931" lon="12.8107624"><ele>118.8</ele><time>2026-03-22T08:48:55.659Z</time></trkpt><trkpt lat="43.6898468" lon="12.8108042"><ele>117.0</ele><time>2026-03-22T08:48:57.649Z</time></trkpt><trkpt lat="43.6897745" lon="12.810806"><ele>117.0</ele><time>2026-03-22T08:48:58.664Z</time></trkpt><trkpt lat="43.6896764" lon="12.8107756"><ele>116.99999999999999</ele><time>2026-03-22T08:49:00.678Z</time></trkpt><trkpt lat="43.68956" lon="12.8107031"><ele>116.99999999999999</ele><time>2026-03-22T08:49:02.667Z</time></trkpt><trkpt lat="43.6895099" lon="12.8106308"><ele>117.0</ele><time>2026-03-22T08:49:03.679Z</time></trkpt><trkpt lat="43.6894592" lon="12.8105385"><ele>117.0</ele><time>2026-03-22T08:49:04.668Z</time></trkpt><trkpt lat="43.6894026" lon="12.8104434"><ele>117.39999999999999</ele><time>2026-03-22T08:49:05.665Z</time></trkpt><trkpt lat="43.6893397" lon="12.8103406"><ele>117.79999999999998</ele><time>2026-03-22T08:49:06.664Z</time></trkpt><trkpt lat="43.6892717" lon="12.8102428"><ele>118.2</ele><time>2026-03-22T08:49:07.668Z</time></trkpt><trkpt lat="43.6891945" lon="12.810143"><ele>118.6</ele><time>2026-03-22T08:49:08.668Z</time></trkpt><trkpt lat="43.6891178" lon="12.8100373"><ele>119.0</ele><time>2026-03-22T08:49:09.672Z</time></trkpt><trkpt lat="43.6890399" lon="12.8099251"><ele>119.0</ele><time>2026-03-22T08:49:10.683Z</time></trkpt><trkpt lat="43.6889644" lon="12.8098037"><ele>119.0</ele><time>2026-03-22T08:49:11.667Z</time></trkpt><trkpt lat="43.6888832" lon="12.809671"><ele>119.0</ele><time>2026-03-22T08:49:12.666Z</time></trkpt><trkpt lat="43.6888114" lon="12.8095497"><ele>119.0</ele><time>2026-03-22T08:49:13.671Z</time></trkpt><trkpt lat="43.6887365" lon="12.8094248"><ele>118.75</ele><time>2026-03-22T08:49:14.668Z</time></trkpt><trkpt lat="43.6886621" lon="12.809295"><ele>118.5</ele><time>2026-03-22T08:49:15.67Z</time></trkpt><trkpt lat="43.6885885" lon="12.8091557"><ele>118.25</ele><time>2026-03-22T08:49:16.655Z</time></trkpt><trkpt lat="43.6885114" lon="12.8090222"><ele>118.0</ele><time>2026-03-22T08:49:17.655Z</time></trkpt><trkpt lat="43.6884334" lon="12.8088835"><ele>118.0</ele><time>2026-03-22T08:49:18.657Z</time></trkpt><trkpt lat="43.6883535" lon="12.8087645"><ele>118.0</ele><time>2026-03-22T08:49:19.67Z</time></trkpt><trkpt lat="43.6882637" lon="12.8086304"><ele>118.0</ele><time>2026-03-22T08:49:20.66Z</time></trkpt><trkpt lat="43.6881888" lon="12.8085017"><ele>118.0</ele><time>2026-03-22T08:49:21.659Z</time></trkpt><trkpt lat="43.6881238" lon="12.808356"><ele>118.0</ele><time>2026-03-22T08:49:22.662Z</time></trkpt><trkpt lat="43.6880522" lon="12.8082182"><ele>118.0</ele><time>2026-03-22T08:49:23.655Z</time></trkpt><trkpt lat="43.6879766" lon="12.8080806"><ele>118.0</ele><time>2026-03-22T08:49:24.671Z</time></trkpt><trkpt lat="43.6879019" lon="12.8079415"><ele>118.0</ele><time>2026-03-22T08:49:25.664Z</time></trkpt><trkpt lat="43.687826" lon="12.8078025"><ele>118.0</ele><time>2026-03-22T08:49:26.663Z</time></trkpt><trkpt lat="43.687761" lon="12.8076703"><ele>118.0</ele><time>2026-03-22T08:49:27.67Z</time></trkpt><trkpt lat="43.6877049" lon="12.8075376"><ele>118.0</ele><time>2026-03-22T08:49:28.66Z</time></trkpt><trkpt lat="43.6876564" lon="12.8073961"><ele>118.0</ele><time>2026-03-22T08:49:29.655Z</time></trkpt><trkpt lat="43.6876042" lon="12.8072554"><ele>115.75</ele><time>2026-03-22T08:49:30.66Z</time></trkpt><trkpt lat="43.6875621" lon="12.8071135"><ele>113.5</ele><time>2026-03-22T08:49:31.683Z</time></trkpt><trkpt lat="43.6875454" lon="12.806966"><ele>111.25</ele><time>2026-03-22T08:49:32.664Z</time></trkpt><trkpt lat="43.6875615" lon="12.8067895"><ele>109.0</ele><time>2026-03-22T08:49:33.664Z</time></trkpt><trkpt lat="43.6876373" lon="12.8066202"><ele>109.25</ele><time>2026-03-22T08:49:34.652Z</time></trkpt><trkpt lat="43.687709" lon="12.8064588"><ele>109.5</ele><time>2026-03-22T08:49:35.659Z</time></trkpt><trkpt lat="43.6877863" lon="12.8063074"><ele>109.75</ele><time>2026-03-22T08:49:36.654Z</time></trkpt><trkpt lat="43.6878626" lon="12.8061287"><ele>110.0</ele><time>2026-03-22T08:49:37.648Z</time></trkpt><trkpt lat="43.6879335" lon="12.8059645"><ele>110.0</ele><time>2026-03-22T08:49:38.646Z</time></trkpt><trkpt lat="43.6879956" lon="12.8058016"><ele>110.0</ele><time>2026-03-22T08:49:39.656Z</time></trkpt><trkpt lat="43.6880574" lon="12.8056286"><ele>110.0</ele><time>2026-03-22T08:49:40.658Z</time></trkpt><trkpt lat="43.6881134" lon="12.8054619"><ele>110.0</ele><time>2026-03-22T08:49:41.662Z</time></trkpt><trkpt lat="43.6881721" lon="12.8053168"><ele>110.0</ele><time>2026-03-22T08:49:42.655Z</time></trkpt><trkpt lat="43.688243" lon="12.805171"><ele>110.0</ele><time>2026-03-22T08:49:43.659Z</time></trkpt><trkpt lat="43.6883147" lon="12.805034"><ele>110.0</ele><time>2026-03-22T08:49:44.657Z</time></trkpt><trkpt lat="43.6883924" lon="12.8048772"><ele>110.0</ele><time>2026-03-22T08:49:45.647Z</time></trkpt><trkpt lat="43.6884643" lon="12.8047219"><ele>108.5</ele><time>2026-03-22T08:49:46.654Z</time></trkpt><trkpt lat="43.6885366" lon="12.8045751"><ele>107.0</ele><time>2026-03-22T08:49:47.651Z</time></trkpt><trkpt lat="43.6886129" lon="12.8044155"><ele>105.5</ele><time>2026-03-22T08:49:48.656Z</time></trkpt><trkpt lat="43.6886654" lon="12.8042662"><ele>104.0</ele><time>2026-03-22T08:49:49.652Z</time></trkpt><trkpt lat="43.6887065" lon="12.8041225"><ele>108.4</ele><time>2026-03-22T08:49:50.66Z</time></trkpt><trkpt lat="43.6887626" lon="12.8040081"><ele>112.80000000000001</ele><time>2026-03-22T08:49:51.649Z</time></trkpt><trkpt lat="43.6888281" lon="12.8038778"><ele>117.19999999999999</ele><time>2026-03-22T08:49:52.651Z</time></trkpt><trkpt lat="43.688879" lon="12.8037525"><ele>121.6</ele><time>2026-03-22T08:49:53.652Z</time></trkpt><trkpt lat="43.6889127" lon="12.8036193"><ele>126.0</ele><time>2026-03-22T08:49:54.656Z</time></trkpt><trkpt lat="43.6889037" lon="12.8035062"><ele>125.6</ele><time>2026-03-22T08:49:55.661Z</time></trkpt><trkpt lat="43.6888557" lon="12.8033739"><ele>125.19999999999999</ele><time>2026-03-22T08:49:57.668Z</time></trkpt><trkpt lat="43.6887654" lon="12.8033395"><ele>124.80000000000001</ele><time>2026-03-22T08:49:58.661Z</time></trkpt><trkpt lat="43.6886689" lon="12.8033076"><ele>124.4</ele><time>2026-03-22T08:49:59.665Z</time></trkpt><trkpt lat="43.6885542" lon="12.8033206"><ele>124.0</ele><time>2026-03-22T08:50:00.661Z</time></trkpt><trkpt lat="43.6884234" lon="12.8032944"><ele>116.5</ele><time>2026-03-22T08:50:01.673Z</time></trkpt><trkpt lat="43.6883148" lon="12.8032588"><ele>109.0</ele><time>2026-03-22T08:50:02.661Z</time></trkpt><trkpt lat="43.6881982" lon="12.8032258"><ele>101.5</ele><time>2026-03-22T08:50:03.659Z</time></trkpt><trkpt lat="43.6880642" lon="12.8032168"><ele>94.0</ele><time>2026-03-22T08:50:04.675Z</time></trkpt><trkpt lat="43.6879073" lon="12.8031977"><ele>97.33333333333333</ele><time>2026-03-22T08:50:05.676Z</time></trkpt><trkpt lat="43.6877217" lon="12.8031909"><ele>100.66666666666666</ele><time>2026-03-22T08:50:06.665Z</time></trkpt><trkpt lat="43.6875724" lon="12.8031692"><ele>104.0</ele><time>2026-03-22T08:50:07.667Z</time></trkpt><trkpt lat="43.6874447" lon="12.8031547"><ele>104.0</ele><time>2026-03-22T08:50:08.668Z</time></trkpt><trkpt lat="43.6873336" lon="12.8031427"><ele>104.0</ele><time>2026-03-22T08:50:09.67Z</time></trkpt><trkpt lat="43.6872351" lon="12.8031329"><ele>104.0</ele><time>2026-03-22T08:50:10.668Z</time></trkpt><trkpt lat="43.6871408" lon="12.8031273"><ele>104.0</ele><time>2026-03-22T08:50:11.679Z</time></trkpt><trkpt lat="43.6870633" lon="12.8031073"><ele>104.0</ele><time>2026-03-22T08:50:12.683Z</time></trkpt><trkpt lat="43.6869748" lon="12.8030961"><ele>105.16666666666666</ele><time>2026-03-22T08:50:13.669Z</time></trkpt><trkpt lat="43.6868824" lon="12.8030775"><ele>106.33333333333333</ele><time>2026-03-22T08:50:14.666Z</time></trkpt><trkpt lat="43.6867928" lon="12.8030579"><ele>107.5</ele><time>2026-03-22T08:50:15.668Z</time></trkpt><trkpt lat="43.6866973" lon="12.8030492"><ele>108.66666666666666</ele><time>2026-03-22T08:50:16.66Z</time></trkpt><trkpt lat="43.6866152" lon="12.8030397"><ele>109.83333333333333</ele><time>2026-03-22T08:50:17.658Z</time></trkpt><trkpt lat="43.6865331" lon="12.8030527"><ele>111.0</ele><time>2026-03-22T08:50:18.664Z</time></trkpt><trkpt lat="43.6864466" lon="12.8030945"><ele>111.0</ele><time>2026-03-22T08:50:19.669Z</time></trkpt><trkpt lat="43.6863555" lon="12.8031311"><ele>111.0</ele><time>2026-03-22T08:50:20.673Z</time></trkpt><trkpt lat="43.686261" lon="12.8031622"><ele>111.0</ele><time>2026-03-22T08:50:21.682Z</time></trkpt><trkpt lat="43.6861649" lon="12.8031784"><ele>111.0</ele><time>2026-03-22T08:50:22.673Z</time></trkpt><trkpt lat="43.6860683" lon="12.8032017"><ele>111.0</ele><time>2026-03-22T08:50:23.668Z</time></trkpt><trkpt lat="43.6859707" lon="12.8032189"><ele>112.19999999999999</ele><time>2026-03-22T08:50:24.672Z</time></trkpt><trkpt lat="43.6858703" lon="12.8032445"><ele>113.39999999999999</ele><time>2026-03-22T08:50:25.672Z</time></trkpt><trkpt lat="43.6857661" lon="12.8032717"><ele>114.6</ele><time>2026-03-22T08:50:26.666Z</time></trkpt><trkpt lat="43.6856692" lon="12.8033042"><ele>115.8</ele><time>2026-03-22T08:50:27.666Z</time></trkpt><trkpt lat="43.6855687" lon="12.8033406"><ele>117.0</ele><time>2026-03-22T08:50:28.662Z</time></trkpt><trkpt lat="43.685474" lon="12.8033828"><ele>117.0</ele><time>2026-03-22T08:50:29.667Z</time></trkpt><trkpt lat="43.6853737" lon="12.8034342"><ele>117.0</ele><time>2026-03-22T08:50:30.664Z</time></trkpt><trkpt lat="43.6852699" lon="12.8034959"><ele>117.0</ele><time>2026-03-22T08:50:31.678Z</time></trkpt><trkpt lat="43.6851568" lon="12.8035454"><ele>117.0</ele><time>2026-03-22T08:50:32.669Z</time></trkpt><trkpt lat="43.6850433" lon="12.8035785"><ele>116.25</ele><time>2026-03-22T08:50:33.673Z</time></trkpt><trkpt lat="43.6849122" lon="12.8036283"><ele>115.5</ele><time>2026-03-22T08:50:34.663Z</time></trkpt><trkpt lat="43.684804" lon="12.8036849"><ele>114.75</ele><time>2026-03-22T08:50:35.67Z</time></trkpt><trkpt lat="43.6847047" lon="12.8037407"><ele>114.0</ele><time>2026-03-22T08:50:36.672Z</time></trkpt><trkpt lat="43.6845918" lon="12.8037939"><ele>114.0</ele><time>2026-03-22T08:50:37.676Z</time></trkpt><trkpt lat="43.6844768" lon="12.8038447"><ele>114.0</ele><time>2026-03-22T08:50:38.672Z</time></trkpt><trkpt lat="43.6843636" lon="12.8038902"><ele>114.0</ele><time>2026-03-22T08:50:39.682Z</time></trkpt><trkpt lat="43.6842534" lon="12.8039378"><ele>114.0</ele><time>2026-03-22T08:50:40.67Z</time></trkpt><trkpt lat="43.6841531" lon="12.8039801"><ele>114.2</ele><time>2026-03-22T08:50:41.672Z</time></trkpt><trkpt lat="43.6840526" lon="12.8040157"><ele>114.4</ele><time>2026-03-22T08:50:42.677Z</time></trkpt><trkpt lat="43.6839481" lon="12.8040391"><ele>114.6</ele><time>2026-03-22T08:50:43.696Z</time></trkpt><trkpt lat="43.6838616" lon="12.8040276"><ele>114.8</ele><time>2026-03-22T08:50:44.681Z</time></trkpt><trkpt lat="43.6837581" lon="12.8039931"><ele>115.0</ele><time>2026-03-22T08:50:45.675Z</time></trkpt><trkpt lat="43.6836586" lon="12.8039236"><ele>116.0</ele><time>2026-03-22T08:50:46.669Z</time></trkpt><trkpt lat="43.6835586" lon="12.8038467"><ele>117.0</ele><time>2026-03-22T08:50:47.671Z</time></trkpt><trkpt lat="43.6834726" lon="12.8037667"><ele>118.0</ele><time>2026-03-22T08:50:48.685Z</time></trkpt><trkpt lat="43.6833889" lon="12.8036814"><ele>119.0</ele><time>2026-03-22T08:50:49.681Z</time></trkpt><trkpt lat="43.6833074" lon="12.8035381"><ele>119.0</ele><time>2026-03-22T08:50:50.683Z</time></trkpt><trkpt lat="43.6832242" lon="12.8033698"><ele>119.0</ele><time>2026-03-22T08:50:51.676Z</time></trkpt><trkpt lat="43.6831385" lon="12.8032141"><ele>119.0</ele><time>2026-03-22T08:50:52.687Z</time></trkpt><trkpt lat="43.683051" lon="12.8030745"><ele>119.0</ele><time>2026-03-22T08:50:53.689Z</time></trkpt><trkpt lat="43.6829557" lon="12.8029645"><ele>119.0</ele><time>2026-03-22T08:50:54.69Z</time></trkpt><trkpt lat="43.6828446" lon="12.8028966"><ele>119.0</ele><time>2026-03-22T08:50:55.686Z</time></trkpt><trkpt lat="43.6827143" lon="12.8028726"><ele>119.0</ele><time>2026-03-22T08:50:56.687Z</time></trkpt><trkpt lat="43.6825812" lon="12.8028786"><ele>119.0</ele><time>2026-03-22T08:50:57.675Z</time></trkpt><trkpt lat="43.6824433" lon="12.8028928"><ele>119.5</ele><time>2026-03-22T08:50:58.677Z</time></trkpt><trkpt lat="43.6823061" lon="12.8029012"><ele>120.0</ele><time>2026-03-22T08:50:59.687Z</time></trkpt><trkpt lat="43.6821681" lon="12.8029007"><ele>120.5</ele><time>2026-03-22T08:51:00.685Z</time></trkpt><trkpt lat="43.6820263" lon="12.802904"><ele>121.0</ele><time>2026-03-22T08:51:01.695Z</time></trkpt><trkpt lat="43.6818912" lon="12.8029352"><ele>122.5</ele><time>2026-03-22T08:51:02.687Z</time></trkpt><trkpt lat="43.6817767" lon="12.8030289"><ele>124.0</ele><time>2026-03-22T08:51:03.685Z</time></trkpt><trkpt lat="43.6816903" lon="12.8031121"><ele>125.5</ele><time>2026-03-22T08:51:04.68Z</time></trkpt><trkpt lat="43.6816023" lon="12.8031912"><ele>127.0</ele><time>2026-03-22T08:51:05.679Z</time></trkpt><trkpt lat="43.6814984" lon="12.8032375"><ele>127.0</ele><time>2026-03-22T08:51:06.683Z</time></trkpt><trkpt lat="43.681411" lon="12.8032011"><ele>126.99999999999999</ele><time>2026-03-22T08:51:07.68Z</time></trkpt><trkpt lat="43.6813069" lon="12.8031352"><ele>126.99999999999999</ele><time>2026-03-22T08:51:08.672Z</time></trkpt><trkpt lat="43.6812183" lon="12.803063"><ele>127.0</ele><time>2026-03-22T08:51:09.674Z</time></trkpt><trkpt lat="43.681132" lon="12.8029832"><ele>127.0</ele><time>2026-03-22T08:51:10.675Z</time></trkpt><trkpt lat="43.681057" lon="12.8028986"><ele>131.83333333333334</ele><time>2026-03-22T08:51:11.67Z</time></trkpt><trkpt lat="43.6810047" lon="12.8028205"><ele>136.66666666666669</ele><time>2026-03-22T08:51:12.676Z</time></trkpt><trkpt lat="43.6809286" lon="12.802725"><ele>141.5</ele><time>2026-03-22T08:51:14.677Z</time></trkpt><trkpt lat="43.6808672" lon="12.8027792"><ele>146.33333333333334</ele><time>2026-03-22T08:51:17.672Z</time></trkpt><trkpt lat="43.6808824" lon="12.8028719"><ele>151.16666666666666</ele><time>2026-03-22T08:51:18.667Z</time></trkpt><trkpt lat="43.680923" lon="12.8029773"><ele>156.0</ele><time>2026-03-22T08:51:19.665Z</time></trkpt><trkpt lat="43.6809755" lon="12.8030811"><ele>156.0</ele><time>2026-03-22T08:51:20.67Z</time></trkpt><trkpt lat="43.681007" lon="12.8031631"><ele>156.0</ele><time>2026-03-22T08:51:21.662Z</time></trkpt><trkpt lat="43.6809797" lon="12.8032508"><ele>156.0</ele><time>2026-03-22T08:51:23.663Z</time></trkpt><trkpt lat="43.6809237" lon="12.8031272"><ele>156.0</ele><time>2026-03-22T08:51:25.658Z</time></trkpt><trkpt lat="43.6808983" lon="12.8030045"><ele>156.0</ele><time>2026-03-22T08:51:26.659Z</time></trkpt><trkpt lat="43.6808618" lon="12.8028919"><ele>156.0</ele><time>2026-03-22T08:51:27.649Z</time></trkpt><trkpt lat="43.6808062" lon="12.8028015"><ele>156.0</ele><time>2026-03-22T08:51:28.653Z</time></trkpt><trkpt lat="43.6807574" lon="12.8027211"><ele>156.0</ele><time>2026-03-22T08:51:29.653Z</time></trkpt><trkpt lat="43.6807071" lon="12.8026495"><ele>156.0</ele><time>2026-03-22T08:51:30.651Z</time></trkpt><trkpt lat="43.6806366" lon="12.802592"><ele>156.0</ele><time>2026-03-22T08:51:31.663Z</time></trkpt><trkpt lat="43.6805429" lon="12.8025463"><ele>156.0</ele><time>2026-03-22T08:51:32.657Z</time></trkpt><trkpt lat="43.6804364" lon="12.8025361"><ele>156.0</ele><time>2026-03-22T08:51:33.655Z</time></trkpt><trkpt lat="43.6803223" lon="12.802537"><ele>158.0</ele><time>2026-03-22T08:51:34.657Z</time></trkpt><trkpt lat="43.6802086" lon="12.8025224"><ele>160.0</ele><time>2026-03-22T08:51:35.659Z</time></trkpt><trkpt lat="43.6800877" lon="12.8024873"><ele>162.0</ele><time>2026-03-22T08:51:36.654Z</time></trkpt><trkpt lat="43.6799823" lon="12.8025074"><ele>164.0</ele><time>2026-03-22T08:51:37.649Z</time></trkpt><trkpt lat="43.6798894" lon="12.8024968"><ele>166.0</ele><time>2026-03-22T08:51:38.655Z</time></trkpt><trkpt lat="43.6797694" lon="12.8025093"><ele>166.0</ele><time>2026-03-22T08:51:39.654Z</time></trkpt><trkpt lat="43.6796576" lon="12.8025397"><ele>166.0</ele><time>2026-03-22T08:51:40.65Z</time></trkpt><trkpt lat="43.6795956" lon="12.8025664"><ele>166.0</ele><time>2026-03-22T08:51:41.651Z</time></trkpt><trkpt lat="43.6794879" lon="12.8026742"><ele>166.0</ele><time>2026-03-22T08:51:43.654Z</time></trkpt><trkpt lat="43.6794558" lon="12.802765"><ele>166.0</ele><time>2026-03-22T08:51:44.66Z</time></trkpt><trkpt lat="43.6794309" lon="12.8028559"><ele>169.20000000000002</ele><time>2026-03-22T08:51:45.675Z</time></trkpt><trkpt lat="43.6795348" lon="12.8029083"><ele>172.4</ele><time>2026-03-22T08:51:48.66Z</time></trkpt><trkpt lat="43.6796087" lon="12.8029193"><ele>175.6</ele><time>2026-03-22T08:51:49.656Z</time></trkpt><trkpt lat="43.6796972" lon="12.802937"><ele>178.8</ele><time>2026-03-22T08:51:50.659Z</time></trkpt><trkpt lat="43.6798158" lon="12.8029578"><ele>182.0</ele><time>2026-03-22T08:51:51.665Z</time></trkpt><trkpt lat="43.6799304" lon="12.8029698"><ele>182.0</ele><time>2026-03-22T08:51:52.666Z</time></trkpt><trkpt lat="43.6800413" lon="12.8029658"><ele>182.0</ele><time>2026-03-22T08:51:53.667Z</time></trkpt><trkpt lat="43.6801687" lon="12.8029597"><ele>182.0</ele><time>2026-03-22T08:51:54.678Z</time></trkpt><trkpt lat="43.6802782" lon="12.8029791"><ele>182.0</ele><time>2026-03-22T08:51:55.67Z</time></trkpt><trkpt lat="43.6803448" lon="12.8030148"><ele>182.0</ele><time>2026-03-22T08:51:56.671Z</time></trkpt><trkpt lat="43.680406" lon="12.8030775"><ele>182.0</ele><time>2026-03-22T08:51:57.68Z</time></trkpt><trkpt lat="43.6804187" lon="12.8031914"><ele>182.0</ele><time>2026-03-22T08:51:59.675Z</time></trkpt><trkpt lat="43.6803553" lon="12.8032082"><ele>182.0</ele><time>2026-03-22T08:52:00.673Z</time></trkpt><trkpt lat="43.6802699" lon="12.8032193"><ele>182.0</ele><time>2026-03-22T08:52:01.677Z</time></trkpt><trkpt lat="43.680178" lon="12.8032357"><ele>182.0</ele><time>2026-03-22T08:52:02.666Z</time></trkpt><trkpt lat="43.6800925" lon="12.803265"><ele>182.0</ele><time>2026-03-22T08:52:03.662Z</time></trkpt><trkpt lat="43.6800042" lon="12.803295"><ele>182.0</ele><time>2026-03-22T08:52:04.656Z</time></trkpt><trkpt lat="43.6799198" lon="12.8033246"><ele>182.0</ele><time>2026-03-22T08:52:05.655Z</time></trkpt><trkpt lat="43.6798367" lon="12.8033458"><ele>182.0</ele><time>2026-03-22T08:52:06.648Z</time></trkpt><trkpt lat="43.6797444" lon="12.8033809"><ele>182.0</ele><time>2026-03-22T08:52:07.65Z</time></trkpt><trkpt lat="43.6796672" lon="12.8034163"><ele>182.0</ele><time>2026-03-22T08:52:08.65Z</time></trkpt><trkpt lat="43.6796186" lon="12.803477"><ele>182.0</ele><time>2026-03-22T08:52:09.659Z</time></trkpt><trkpt lat="43.6797805" lon="12.803429"><ele>182.0</ele><time>2026-03-22T08:52:13.653Z</time></trkpt><trkpt lat="43.679849" lon="12.8034032"><ele>182.0</ele><time>2026-03-22T08:52:14.656Z</time></trkpt><trkpt lat="43.6800236" lon="12.8034359"><ele>182.0</ele><time>2026-03-22T08:52:16.679Z</time></trkpt><trkpt lat="43.6801843" lon="12.8035289"><ele>182.0</ele><time>2026-03-22T08:52:17.667Z</time></trkpt><trkpt lat="43.680304" lon="12.8036289"><ele>182.25</ele><time>2026-03-22T08:52:18.668Z</time></trkpt><trkpt lat="43.6804034" lon="12.8037043"><ele>182.5</ele><time>2026-03-22T08:52:19.671Z</time></trkpt><trkpt lat="43.6802993" lon="12.8036167"><ele>182.75</ele><time>2026-03-22T08:52:24.674Z</time></trkpt><trkpt lat="43.6801936" lon="12.8035954"><ele>183.0</ele><time>2026-03-22T08:52:25.678Z</time></trkpt><trkpt lat="43.680082" lon="12.8035998"><ele>189.60000000000002</ele><time>2026-03-22T08:52:26.678Z</time></trkpt><trkpt lat="43.6799809" lon="12.8036461"><ele>196.20000000000002</ele><time>2026-03-22T08:52:27.665Z</time></trkpt><trkpt lat="43.6799045" lon="12.8037318"><ele>202.8</ele><time>2026-03-22T08:52:28.667Z</time></trkpt><trkpt lat="43.6798306" lon="12.8038283"><ele>209.4</ele><time>2026-03-22T08:52:29.665Z</time></trkpt><trkpt lat="43.6797503" lon="12.8039327"><ele>216.0</ele><time>2026-03-22T08:52:30.665Z</time></trkpt><trkpt lat="43.6796717" lon="12.8040246"><ele>216.0</ele><time>2026-03-22T08:52:31.686Z</time></trkpt><trkpt lat="43.6795882" lon="12.8041199"><ele>216.00000000000003</ele><time>2026-03-22T08:52:32.663Z</time></trkpt><trkpt lat="43.6795089" lon="12.80422"><ele>216.00000000000003</ele><time>2026-03-22T08:52:33.665Z</time></trkpt><trkpt lat="43.6794293" lon="12.8043199"><ele>216.0</ele><time>2026-03-22T08:52:34.664Z</time></trkpt><trkpt lat="43.6793629" lon="12.8044241"><ele>216.0</ele><time>2026-03-22T08:52:35.659Z</time></trkpt><trkpt lat="43.6792987" lon="12.8045188"><ele>218.5</ele><time>2026-03-22T08:52:36.665Z</time></trkpt><trkpt lat="43.6792368" lon="12.8046212"><ele>221.0</ele><time>2026-03-22T08:52:37.66Z</time></trkpt><trkpt lat="43.679195" lon="12.8047324"><ele>223.5</ele><time>2026-03-22T08:52:38.662Z</time></trkpt><trkpt lat="43.6791823" lon="12.8048545"><ele>226.0</ele><time>2026-03-22T08:52:39.656Z</time></trkpt><trkpt lat="43.6791611" lon="12.8049472"><ele>228.5</ele><time>2026-03-22T08:52:40.656Z</time></trkpt><trkpt lat="43.6790788" lon="12.8050184"><ele>231.0</ele><time>2026-03-22T08:52:41.659Z</time></trkpt><trkpt lat="43.6789453" lon="12.8049888"><ele>231.0</ele><time>2026-03-22T08:52:43.666Z</time></trkpt><trkpt lat="43.6788729" lon="12.8049066"><ele>231.00000000000003</ele><time>2026-03-22T08:52:44.657Z</time></trkpt><trkpt lat="43.6787858" lon="12.8048223"><ele>231.00000000000003</ele><time>2026-03-22T08:52:45.665Z</time></trkpt><trkpt lat="43.6787001" lon="12.8047686"><ele>231.0</ele><time>2026-03-22T08:52:46.668Z</time></trkpt><trkpt lat="43.6786264" lon="12.8047468"><ele>231.0</ele><time>2026-03-22T08:52:47.693Z</time></trkpt><trkpt lat="43.6785422" lon="12.8047239"><ele>232.0</ele><time>2026-03-22T08:52:48.67Z</time></trkpt><trkpt lat="43.6784389" lon="12.8046966"><ele>233.00000000000003</ele><time>2026-03-22T08:52:49.665Z</time></trkpt><trkpt lat="43.6783445" lon="12.8047239"><ele>234.00000000000003</ele><time>2026-03-22T08:52:50.675Z</time></trkpt><trkpt lat="43.6783076" lon="12.8048084"><ele>235.0</ele><time>2026-03-22T08:52:51.658Z</time></trkpt><trkpt lat="43.6783058" lon="12.8049257"><ele>236.0</ele><time>2026-03-22T08:52:53.661Z</time></trkpt><trkpt lat="43.6784119" lon="12.8049914"><ele>236.0</ele><time>2026-03-22T08:52:55.656Z</time></trkpt><trkpt lat="43.6784815" lon="12.8050301"><ele>236.00000000000003</ele><time>2026-03-22T08:52:56.667Z</time></trkpt><trkpt lat="43.6785699" lon="12.8050618"><ele>236.00000000000003</ele><time>2026-03-22T08:52:57.662Z</time></trkpt><trkpt lat="43.6786716" lon="12.8050873"><ele>236.0</ele><time>2026-03-22T08:52:58.671Z</time></trkpt><trkpt lat="43.6787923" lon="12.8051028"><ele>236.0</ele><time>2026-03-22T08:52:59.664Z</time></trkpt><trkpt lat="43.6789339" lon="12.8050976"><ele>235.0</ele><time>2026-03-22T08:53:00.656Z</time></trkpt><trkpt lat="43.6790414" lon="12.8051525"><ele>234.00000000000003</ele><time>2026-03-22T08:53:01.662Z</time></trkpt><trkpt lat="43.6791366" lon="12.8051917"><ele>233.00000000000003</ele><time>2026-03-22T08:53:02.652Z</time></trkpt><trkpt lat="43.6792416" lon="12.8052066"><ele>232.0</ele><time>2026-03-22T08:53:03.657Z</time></trkpt><trkpt lat="43.6793277" lon="12.8051886"><ele>231.0</ele><time>2026-03-22T08:53:04.658Z</time></trkpt><trkpt lat="43.6794156" lon="12.8051809"><ele>233.60000000000002</ele><time>2026-03-22T08:53:05.66Z</time></trkpt><trkpt lat="43.6794799" lon="12.8051672"><ele>236.20000000000002</ele><time>2026-03-22T08:53:06.659Z</time></trkpt><trkpt lat="43.6795384" lon="12.8051309"><ele>238.79999999999998</ele><time>2026-03-22T08:53:07.659Z</time></trkpt><trkpt lat="43.679633" lon="12.8050547"><ele>241.39999999999998</ele><time>2026-03-22T08:53:09.666Z</time></trkpt><trkpt lat="43.6797256" lon="12.8049599"><ele>244.0</ele><time>2026-03-22T08:53:11.666Z</time></trkpt><trkpt lat="43.6798052" lon="12.8048554"><ele>244.0</ele><time>2026-03-22T08:53:13.664Z</time></trkpt><trkpt lat="43.67989" lon="12.8047586"><ele>243.99999999999997</ele><time>2026-03-22T08:53:15.669Z</time></trkpt><trkpt lat="43.6799911" lon="12.8046717"><ele>243.99999999999997</ele><time>2026-03-22T08:53:17.676Z</time></trkpt><trkpt lat="43.6801265" lon="12.80464"><ele>244.0</ele><time>2026-03-22T08:53:19.673Z</time></trkpt><trkpt lat="43.6802048" lon="12.8046518"><ele>244.0</ele><time>2026-03-22T08:53:20.686Z</time></trkpt><trkpt lat="43.6802884" lon="12.8046967"><ele>244.0</ele><time>2026-03-22T08:53:21.69Z</time></trkpt><trkpt lat="43.680354" lon="12.8047873"><ele>243.99999999999997</ele><time>2026-03-22T08:53:22.685Z</time></trkpt><trkpt lat="43.6803819" lon="12.8049045"><ele>243.99999999999997</ele><time>2026-03-22T08:53:23.687Z</time></trkpt><trkpt lat="43.6803708" lon="12.8050235"><ele>244.0</ele><time>2026-03-22T08:53:24.68Z</time></trkpt><trkpt lat="43.6803099" lon="12.8051007"><ele>244.0</ele><time>2026-03-22T08:53:25.684Z</time></trkpt><trkpt lat="43.6802098" lon="12.8051485"><ele>251.0</ele><time>2026-03-22T08:53:26.674Z</time></trkpt><trkpt lat="43.6801029" lon="12.8051731"><ele>258.0</ele><time>2026-03-22T08:53:27.682Z</time></trkpt><trkpt lat="43.6799751" lon="12.8052204"><ele>265.0</ele><time>2026-03-22T08:53:28.675Z</time></trkpt><trkpt lat="43.679826" lon="12.8052883"><ele>272.0</ele><time>2026-03-22T08:53:29.667Z</time></trkpt><trkpt lat="43.6797054" lon="12.8054078"><ele>272.0</ele><time>2026-03-22T08:53:30.667Z</time></trkpt><trkpt lat="43.6795936" lon="12.8055351"><ele>272.0</ele><time>2026-03-22T08:53:31.682Z</time></trkpt><trkpt lat="43.679497" lon="12.8056563"><ele>272.0</ele><time>2026-03-22T08:53:32.67Z</time></trkpt><trkpt lat="43.6794069" lon="12.8057706"><ele>272.0</ele><time>2026-03-22T08:53:33.667Z</time></trkpt><trkpt lat="43.6793097" lon="12.8058723"><ele>271.0</ele><time>2026-03-22T08:53:34.662Z</time></trkpt><trkpt lat="43.6792207" lon="12.8059386"><ele>270.0</ele><time>2026-03-22T08:53:35.663Z</time></trkpt><trkpt lat="43.679131" lon="12.8059639"><ele>269.0</ele><time>2026-03-22T08:53:36.66Z</time></trkpt><trkpt lat="43.6790316" lon="12.8059626"><ele>268.0</ele><time>2026-03-22T08:53:37.655Z</time></trkpt><trkpt lat="43.6789029" lon="12.8059625"><ele>267.0</ele><time>2026-03-22T08:53:38.652Z</time></trkpt><trkpt lat="43.6787785" lon="12.8059984"><ele>272.2</ele><time>2026-03-22T08:53:39.663Z</time></trkpt><trkpt lat="43.6786641" lon="12.8060719"><ele>277.4</ele><time>2026-03-22T08:53:40.65Z</time></trkpt><trkpt lat="43.6785615" lon="12.806148"><ele>282.6</ele><time>2026-03-22T08:53:41.658Z</time></trkpt><trkpt lat="43.6784707" lon="12.8062187"><ele>287.8</ele><time>2026-03-22T08:53:42.66Z</time></trkpt><trkpt lat="43.6783781" lon="12.8062535"><ele>293.0</ele><time>2026-03-22T08:53:43.666Z</time></trkpt><trkpt lat="43.6782817" lon="12.8062759"><ele>293.0</ele><time>2026-03-22T08:53:44.66Z</time></trkpt><trkpt lat="43.6782077" lon="12.8062819"><ele>293.0</ele><time>2026-03-22T08:53:45.664Z</time></trkpt><trkpt lat="43.6780975" lon="12.8063323"><ele>293.0</ele><time>2026-03-22T08:53:46.661Z</time></trkpt><trkpt lat="43.6779775" lon="12.8063726"><ele>293.0</ele><time>2026-03-22T08:53:47.661Z</time></trkpt><trkpt lat="43.6778744" lon="12.8063716"><ele>293.0</ele><time>2026-03-22T08:53:48.664Z</time></trkpt><trkpt lat="43.6778135" lon="12.8064035"><ele>293.8</ele><time>2026-03-22T08:53:49.645Z</time></trkpt><trkpt lat="43.6776979" lon="12.8063652"><ele>294.6</ele><time>2026-03-22T08:53:51.654Z</time></trkpt><trkpt lat="43.6775866" lon="12.8064596"><ele>295.4</ele><time>2026-03-22T08:53:53.65Z</time></trkpt><trkpt lat="43.6775024" lon="12.8065033"><ele>296.2</ele><time>2026-03-22T08:53:54.642Z</time></trkpt><trkpt lat="43.6774132" lon="12.8065095"><ele>297.0</ele><time>2026-03-22T08:53:55.649Z</time></trkpt><trkpt lat="43.6773154" lon="12.8064636"><ele>297.0</ele><time>2026-03-22T08:53:56.647Z</time></trkpt><trkpt lat="43.6771988" lon="12.8064664"><ele>297.0</ele><time>2026-03-22T08:53:57.648Z</time></trkpt><trkpt lat="43.6770872" lon="12.8064528"><ele>297.0</ele><time>2026-03-22T08:53:58.663Z</time></trkpt><trkpt lat="43.6769866" lon="12.8064389"><ele>297.0</ele><time>2026-03-22T08:53:59.656Z</time></trkpt><trkpt lat="43.6768911" lon="12.8064612"><ele>297.0</ele><time>2026-03-22T08:54:00.653Z</time></trkpt><trkpt lat="43.6767704" lon="12.8064701"><ele>296.5</ele><time>2026-03-22T08:54:01.665Z</time></trkpt><trkpt lat="43.6766537" lon="12.8064609"><ele>296.0</ele><time>2026-03-22T08:54:02.648Z</time></trkpt><trkpt lat="43.6765197" lon="12.8063616"><ele>295.5</ele><time>2026-03-22T08:54:03.655Z</time></trkpt><trkpt lat="43.6763983" lon="12.8063262"><ele>295.0</ele><time>2026-03-22T08:54:04.665Z</time></trkpt><trkpt lat="43.6763159" lon="12.8062199"><ele>295.0</ele><time>2026-03-22T08:54:05.669Z</time></trkpt><trkpt lat="43.6762903" lon="12.806057"><ele>295.0</ele><time>2026-03-22T08:54:06.667Z</time></trkpt><trkpt lat="43.6762837" lon="12.805914"><ele>295.0</ele><time>2026-03-22T08:54:07.674Z</time></trkpt><trkpt lat="43.6762781" lon="12.8057962"><ele>295.0</ele><time>2026-03-22T08:54:08.679Z</time></trkpt><trkpt lat="43.6762128" lon="12.8058955"><ele>295.0</ele><time>2026-03-22T08:54:11.67Z</time></trkpt><trkpt lat="43.6761541" lon="12.8060478"><ele>296.3333333333333</ele><time>2026-03-22T08:54:13.671Z</time></trkpt><trkpt lat="43.6761009" lon="12.8061029"><ele>297.66666666666663</ele><time>2026-03-22T08:54:14.672Z</time></trkpt><trkpt lat="43.6760344" lon="12.8061463"><ele>299.0</ele><time>2026-03-22T08:54:15.665Z</time></trkpt><trkpt lat="43.6759638" lon="12.8061942"><ele>300.3333333333333</ele><time>2026-03-22T08:54:16.669Z</time></trkpt><trkpt lat="43.6758922" lon="12.8062481"><ele>301.6666666666667</ele><time>2026-03-22T08:54:17.672Z</time></trkpt><trkpt lat="43.6758256" lon="12.8062976"><ele>303.0</ele><time>2026-03-22T08:54:18.672Z</time></trkpt><trkpt lat="43.6757663" lon="12.8063912"><ele>303.0</ele><time>2026-03-22T08:54:19.687Z</time></trkpt><trkpt lat="43.6757282" lon="12.8064793"><ele>303.0</ele><time>2026-03-22T08:54:20.678Z</time></trkpt><trkpt lat="43.6756848" lon="12.8065658"><ele>303.0</ele><time>2026-03-22T08:54:21.664Z</time></trkpt><trkpt lat="43.6756129" lon="12.8066367"><ele>303.0</ele><time>2026-03-22T08:54:22.667Z</time></trkpt><trkpt lat="43.6755092" lon="12.8066678"><ele>303.0</ele><time>2026-03-22T08:54:23.672Z</time></trkpt><trkpt lat="43.6754113" lon="12.8066727"><ele>303.0</ele><time>2026-03-22T08:54:25.662Z</time></trkpt><trkpt lat="43.6753382" lon="12.8066506"><ele>303.2</ele><time>2026-03-22T08:54:27.667Z</time></trkpt><trkpt lat="43.6752509" lon="12.8066794"><ele>303.4</ele><time>2026-03-22T08:54:29.671Z</time></trkpt><trkpt lat="43.6751776" lon="12.8067696"><ele>303.59999999999997</ele><time>2026-03-22T08:54:31.671Z</time></trkpt><trkpt lat="43.6751076" lon="12.806874"><ele>303.8</ele><time>2026-03-22T08:54:33.652Z</time></trkpt><trkpt lat="43.6750626" lon="12.8069369"><ele>304.0</ele><time>2026-03-22T08:54:34.662Z</time></trkpt><trkpt lat="43.6750008" lon="12.807067"><ele>306.8333333333333</ele><time>2026-03-22T08:54:36.653Z</time></trkpt><trkpt lat="43.6749631" lon="12.807171"><ele>309.66666666666663</ele><time>2026-03-22T08:54:38.658Z</time></trkpt><trkpt lat="43.6749191" lon="12.8072445"><ele>312.5</ele><time>2026-03-22T08:54:40.653Z</time></trkpt><trkpt lat="43.6749094" lon="12.8073398"><ele>315.3333333333333</ele><time>2026-03-22T08:54:41.637Z</time></trkpt><trkpt lat="43.6749371" lon="12.8074648"><ele>318.1666666666667</ele><time>2026-03-22T08:54:42.659Z</time></trkpt><trkpt lat="43.6749492" lon="12.807623"><ele>321.0</ele><time>2026-03-22T08:54:44.656Z</time></trkpt><trkpt lat="43.6749711" lon="12.8077764"><ele>323.1666666666667</ele><time>2026-03-22T08:54:45.661Z</time></trkpt><trkpt lat="43.6749963" lon="12.8078802"><ele>325.3333333333333</ele><time>2026-03-22T08:54:46.674Z</time></trkpt><trkpt lat="43.6749401" lon="12.8080006"><ele>327.5</ele><time>2026-03-22T08:54:48.679Z</time></trkpt><trkpt lat="43.6748906" lon="12.8080989"><ele>329.66666666666663</ele><time>2026-03-22T08:54:50.688Z</time></trkpt><trkpt lat="43.6748383" lon="12.8081859"><ele>331.8333333333333</ele><time>2026-03-22T08:54:52.667Z</time></trkpt><trkpt lat="43.6748114" lon="12.808265"><ele>334.0</ele><time>2026-03-22T08:54:54.666Z</time></trkpt><trkpt lat="43.6746891" lon="12.8082754"><ele>334.0</ele><time>2026-03-22T08:54:56.656Z</time></trkpt><trkpt lat="43.6746086" lon="12.8082846"><ele>334.0</ele><time>2026-03-22T08:54:57.656Z</time></trkpt><trkpt lat="43.674535" lon="12.8083009"><ele>334.0</ele><time>2026-03-22T08:54:58.653Z</time></trkpt><trkpt lat="43.6744558" lon="12.8082947"><ele>334.0</ele><time>2026-03-22T08:54:59.666Z</time></trkpt><trkpt lat="43.6743897" lon="12.8083226"><ele>334.0</ele><time>2026-03-22T08:55:00.674Z</time></trkpt><trkpt lat="43.6743056" lon="12.8083345"><ele>334.0</ele><time>2026-03-22T08:55:01.686Z</time></trkpt><trkpt lat="43.6742258" lon="12.8083201"><ele>335.6</ele><time>2026-03-22T08:55:02.665Z</time></trkpt><trkpt lat="43.6741342" lon="12.8083134"><ele>337.2</ele><time>2026-03-22T08:55:03.663Z</time></trkpt><trkpt lat="43.6740566" lon="12.8082854"><ele>338.8</ele><time>2026-03-22T08:55:04.659Z</time></trkpt><trkpt lat="43.6739668" lon="12.8082409"><ele>340.40000000000003</ele><time>2026-03-22T08:55:05.663Z</time></trkpt><trkpt lat="43.6738582" lon="12.8082505"><ele>342.0</ele><time>2026-03-22T08:55:06.659Z</time></trkpt><trkpt lat="43.6737512" lon="12.8082002"><ele>342.0</ele><time>2026-03-22T08:55:07.659Z</time></trkpt><trkpt lat="43.6736481" lon="12.8082212"><ele>342.0</ele><time>2026-03-22T08:55:09.663Z</time></trkpt><trkpt lat="43.6735723" lon="12.8082053"><ele>342.0</ele><time>2026-03-22T08:55:11.667Z</time></trkpt><trkpt lat="43.6735055" lon="12.8081628"><ele>342.0</ele><time>2026-03-22T08:55:12.667Z</time></trkpt><trkpt lat="43.673433" lon="12.8080989"><ele>342.0</ele><time>2026-03-22T08:55:13.664Z</time></trkpt><trkpt lat="43.6733647" lon="12.8080537"><ele>342.0</ele><time>2026-03-22T08:55:14.664Z</time></trkpt><trkpt lat="43.6732795" lon="12.8079749"><ele>345.20000000000005</ele><time>2026-03-22T08:55:15.663Z</time></trkpt><trkpt lat="43.6732144" lon="12.8078923"><ele>348.4</ele><time>2026-03-22T08:55:16.659Z</time></trkpt><trkpt lat="43.6731379" lon="12.8077951"><ele>351.6</ele><time>2026-03-22T08:55:17.658Z</time></trkpt><trkpt lat="43.673068" lon="12.8077121"><ele>354.79999999999995</ele><time>2026-03-22T08:55:18.647Z</time></trkpt><trkpt lat="43.6729601" lon="12.807624"><ele>358.0</ele><time>2026-03-22T08:55:19.652Z</time></trkpt><trkpt lat="43.6729011" lon="12.8075312"><ele>358.0</ele><time>2026-03-22T08:55:20.658Z</time></trkpt><trkpt lat="43.6728457" lon="12.8074287"><ele>358.0</ele><time>2026-03-22T08:55:21.66Z</time></trkpt><trkpt lat="43.6727906" lon="12.8073064"><ele>358.0</ele><time>2026-03-22T08:55:22.65Z</time></trkpt><trkpt lat="43.6727305" lon="12.8072103"><ele>358.0</ele><time>2026-03-22T08:55:23.652Z</time></trkpt><trkpt lat="43.6726459" lon="12.8071044"><ele>358.0</ele><time>2026-03-22T08:55:25.66Z</time></trkpt><trkpt lat="43.6726062" lon="12.8070346"><ele>361.8333333333333</ele><time>2026-03-22T08:55:26.668Z</time></trkpt><trkpt lat="43.6725778" lon="12.8069078"><ele>365.66666666666663</ele><time>2026-03-22T08:55:28.665Z</time></trkpt><trkpt lat="43.6725618" lon="12.8068072"><ele>369.5</ele><time>2026-03-22T08:55:30.634Z</time></trkpt><trkpt lat="43.6725687" lon="12.806915"><ele>373.3333333333333</ele><time>2026-03-22T08:55:39.672Z</time></trkpt><trkpt lat="43.6725214" lon="12.8069791"><ele>377.1666666666667</ele><time>2026-03-22T08:55:43.671Z</time></trkpt><trkpt lat="43.6724613" lon="12.8070635"><ele>381.0</ele><time>2026-03-22T08:55:46.68Z</time></trkpt><trkpt lat="43.6724557" lon="12.8071514"><ele>383.0</ele><time>2026-03-22T08:55:47.669Z</time></trkpt><trkpt lat="43.672467" lon="12.807258"><ele>385.0</ele><time>2026-03-22T08:55:49.675Z</time></trkpt><trkpt lat="43.6724272" lon="12.8073899"><ele>387.0</ele><time>2026-03-22T08:55:55.668Z</time></trkpt><trkpt lat="43.6724161" lon="12.8074792"><ele>389.0</ele><time>2026-03-22T08:55:56.67Z</time></trkpt><trkpt lat="43.6724062" lon="12.8075863"><ele>391.0</ele><time>2026-03-22T08:55:57.664Z</time></trkpt><trkpt lat="43.6723999" lon="12.8077001"><ele>393.0</ele><time>2026-03-22T08:55:58.662Z</time></trkpt><trkpt lat="43.6723966" lon="12.8078118"><ele>395.1666666666667</ele><time>2026-03-22T08:55:59.671Z</time></trkpt><trkpt lat="43.6723824" lon="12.8078969"><ele>397.33333333333337</ele><time>2026-03-22T08:56:00.671Z</time></trkpt><trkpt lat="43.6724162" lon="12.8080019"><ele>399.5</ele><time>2026-03-22T08:56:02.675Z</time></trkpt><trkpt lat="43.6724562" lon="12.8080742"><ele>401.6666666666667</ele><time>2026-03-22T08:56:05.681Z</time></trkpt><trkpt lat="43.6723735" lon="12.8079956"><ele>403.83333333333337</ele><time>2026-03-22T08:56:08.665Z</time></trkpt><trkpt lat="43.6723201" lon="12.8079134"><ele>406.0</ele><time>2026-03-22T08:56:09.672Z</time></trkpt><trkpt lat="43.672252" lon="12.8078373"><ele>406.00000000000006</ele><time>2026-03-22T08:56:10.672Z</time></trkpt><trkpt lat="43.6721747" lon="12.8077653"><ele>406.0</ele><time>2026-03-22T08:56:11.676Z</time></trkpt><trkpt lat="43.6720973" lon="12.8077021"><ele>406.0</ele><time>2026-03-22T08:56:12.676Z</time></trkpt><trkpt lat="43.6720315" lon="12.8076727"><ele>406.0</ele><time>2026-03-22T08:56:13.679Z</time></trkpt><trkpt lat="43.6719589" lon="12.8077314"><ele>406.00000000000006</ele><time>2026-03-22T08:56:15.675Z</time></trkpt><trkpt lat="43.671944" lon="12.8078595"><ele>406.0</ele><time>2026-03-22T08:56:17.671Z</time></trkpt><trkpt lat="43.6719733" lon="12.8080152"><ele>406.0</ele><time>2026-03-22T08:56:19.669Z</time></trkpt><trkpt lat="43.6719974" lon="12.8081983"><ele>406.0</ele><time>2026-03-22T08:56:21.671Z</time></trkpt><trkpt lat="43.6719953" lon="12.8083025"><ele>406.0</ele><time>2026-03-22T08:56:22.669Z</time></trkpt><trkpt lat="43.6719867" lon="12.8084097"><ele>406.0</ele><time>2026-03-22T08:56:23.679Z</time></trkpt><trkpt lat="43.6719695" lon="12.8085238"><ele>406.0</ele><time>2026-03-22T08:56:24.67Z</time></trkpt><trkpt lat="43.6719558" lon="12.8086462"><ele>408.83333333333337</ele><time>2026-03-22T08:56:25.668Z</time></trkpt><trkpt lat="43.6719504" lon="12.8087767"><ele>411.6666666666667</ele><time>2026-03-22T08:56:26.667Z</time></trkpt><trkpt lat="43.6719464" lon="12.8089088"><ele>414.5</ele><time>2026-03-22T08:56:27.664Z</time></trkpt><trkpt lat="43.6719555" lon="12.8090327"><ele>417.33333333333337</ele><time>2026-03-22T08:56:28.655Z</time></trkpt><trkpt lat="43.6719648" lon="12.8091376"><ele>420.1666666666667</ele><time>2026-03-22T08:56:29.654Z</time></trkpt><trkpt lat="43.6719743" lon="12.8092299"><ele>423.0</ele><time>2026-03-22T08:56:30.651Z</time></trkpt><trkpt lat="43.6719761" lon="12.8093251"><ele>426.3333333333333</ele><time>2026-03-22T08:56:31.666Z</time></trkpt><trkpt lat="43.671999" lon="12.8094404"><ele>429.66666666666663</ele><time>2026-03-22T08:56:33.658Z</time></trkpt><trkpt lat="43.6719794" lon="12.8095609"><ele>433.0</ele><time>2026-03-22T08:56:37.647Z</time></trkpt><trkpt lat="43.6718972" lon="12.8095797"><ele>436.3333333333333</ele><time>2026-03-22T08:56:40.635Z</time></trkpt><trkpt lat="43.6719069" lon="12.8097322"><ele>439.66666666666663</ele><time>2026-03-22T08:56:45.649Z</time></trkpt><trkpt lat="43.6719284" lon="12.8098377"><ele>443.0</ele><time>2026-03-22T08:56:46.646Z</time></trkpt><trkpt lat="43.6719314" lon="12.8099403"><ele>442.99999999999994</ele><time>2026-03-22T08:56:47.65Z</time></trkpt><trkpt lat="43.6719447" lon="12.8100476"><ele>443.0</ele><time>2026-03-22T08:56:48.653Z</time></trkpt><trkpt lat="43.6719593" lon="12.8101514"><ele>443.0</ele><time>2026-03-22T08:56:49.656Z</time></trkpt><trkpt lat="43.6719755" lon="12.8102483"><ele>443.0</ele><time>2026-03-22T08:56:50.655Z</time></trkpt><trkpt lat="43.6719924" lon="12.8103441"><ele>442.99999999999994</ele><time>2026-03-22T08:56:51.649Z</time></trkpt><trkpt lat="43.671986" lon="12.810515"><ele>443.0</ele><time>2026-03-22T08:56:53.65Z</time></trkpt><trkpt lat="43.6719745" lon="12.810689"><ele>449.25</ele><time>2026-03-22T08:56:55.647Z</time></trkpt><trkpt lat="43.6719638" lon="12.8108528"><ele>455.5</ele><time>2026-03-22T08:56:57.636Z</time></trkpt><trkpt lat="43.6720209" lon="12.8110364"><ele>461.75</ele><time>2026-03-22T08:56:59.642Z</time></trkpt><trkpt lat="43.6721271" lon="12.8111211"><ele>468.0</ele><time>2026-03-22T08:57:00.657Z</time></trkpt><trkpt lat="43.6722763" lon="12.8112032"><ele>472.66666666666663</ele><time>2026-03-22T08:57:01.664Z</time></trkpt><trkpt lat="43.6724435" lon="12.8113163"><ele>477.3333333333333</ele><time>2026-03-22T08:57:02.659Z</time></trkpt><trkpt lat="43.6726124" lon="12.8114342"><ele>482.0</ele><time>2026-03-22T08:57:03.669Z</time></trkpt><trkpt lat="43.6727703" lon="12.8115281"><ele>479.6</ele><time>2026-03-22T08:57:04.669Z</time></trkpt><trkpt lat="43.6728875" lon="12.8115977"><ele>477.20000000000005</ele><time>2026-03-22T08:57:05.675Z</time></trkpt><trkpt lat="43.6729812" lon="12.8116691"><ele>474.8</ele><time>2026-03-22T08:57:06.659Z</time></trkpt><trkpt lat="43.6730531" lon="12.8117301"><ele>472.4</ele><time>2026-03-22T08:57:07.657Z</time></trkpt><trkpt lat="43.6730939" lon="12.8118002"><ele>470.0</ele><time>2026-03-22T08:57:09.664Z</time></trkpt><trkpt lat="43.6730081" lon="12.8117922"><ele>470.0</ele><time>2026-03-22T08:57:11.679Z</time></trkpt><trkpt lat="43.6728872" lon="12.8117576"><ele>470.0</ele><time>2026-03-22T08:57:12.676Z</time></trkpt><trkpt lat="43.6727599" lon="12.8117163"><ele>470.0</ele><time>2026-03-22T08:57:13.683Z</time></trkpt><trkpt lat="43.6726447" lon="12.8116772"><ele>470.0</ele><time>2026-03-22T08:57:14.695Z</time></trkpt><trkpt lat="43.672564" lon="12.8116401"><ele>472.4</ele><time>2026-03-22T08:57:15.696Z</time></trkpt><trkpt lat="43.672506" lon="12.8116041"><ele>474.8</ele><time>2026-03-22T08:57:16.701Z</time></trkpt><trkpt lat="43.6724376" lon="12.8115331"><ele>477.20000000000005</ele><time>2026-03-22T08:57:28.697Z</time></trkpt><trkpt lat="43.672334" lon="12.8113789"><ele>479.6</ele><time>2026-03-22T08:57:30.697Z</time></trkpt><trkpt lat="43.6722525" lon="12.8112881"><ele>482.0</ele><time>2026-03-22T08:57:31.697Z</time></trkpt><trkpt lat="43.6721622" lon="12.811191"><ele>482.0</ele><time>2026-03-22T08:57:32.691Z</time></trkpt><trkpt lat="43.6720721" lon="12.8110946"><ele>482.00000000000006</ele><time>2026-03-22T08:57:33.687Z</time></trkpt><trkpt lat="43.6719855" lon="12.8110113"><ele>482.00000000000006</ele><time>2026-03-22T08:57:34.696Z</time></trkpt><trkpt lat="43.6719018" lon="12.8109352"><ele>482.0</ele><time>2026-03-22T08:57:35.689Z</time></trkpt><trkpt lat="43.6718216" lon="12.8108678"><ele>482.0</ele><time>2026-03-22T08:57:36.681Z</time></trkpt><trkpt lat="43.6717434" lon="12.8108028"><ele>481.49999999999994</ele><time>2026-03-22T08:57:37.684Z</time></trkpt><trkpt lat="43.6716804" lon="12.8107318"><ele>481.0</ele><time>2026-03-22T08:57:38.693Z</time></trkpt><trkpt lat="43.6716216" lon="12.8106658"><ele>480.5</ele><time>2026-03-22T08:57:39.69Z</time></trkpt><trkpt lat="43.6715726" lon="12.810597"><ele>480.0</ele><time>2026-03-22T08:57:40.693Z</time></trkpt><trkpt lat="43.6715309" lon="12.8105148"><ele>479.49999999999994</ele><time>2026-03-22T08:57:41.683Z</time></trkpt><trkpt lat="43.6714955" lon="12.8104221"><ele>479.0</ele><time>2026-03-22T08:57:42.69Z</time></trkpt><trkpt lat="43.6714702" lon="12.8103248"><ele>479.0</ele><time>2026-03-22T08:57:43.685Z</time></trkpt><trkpt lat="43.6714478" lon="12.8102323"><ele>479.0</ele><time>2026-03-22T08:57:44.684Z</time></trkpt><trkpt lat="43.6714197" lon="12.810136"><ele>479.0</ele><time>2026-03-22T08:57:45.721Z</time></trkpt><trkpt lat="43.6713779" lon="12.8100208"><ele>479.0</ele><time>2026-03-22T08:57:46.719Z</time></trkpt><trkpt lat="43.6713331" lon="12.8099037"><ele>479.0</ele><time>2026-03-22T08:57:47.676Z</time></trkpt><trkpt lat="43.6712899" lon="12.8097409"><ele>476.0</ele><time>2026-03-22T08:57:48.69Z</time></trkpt><trkpt lat="43.6712389" lon="12.8095441"><ele>473.0</ele><time>2026-03-22T08:57:49.692Z</time></trkpt><trkpt lat="43.671185" lon="12.8093371"><ele>470.0</ele><time>2026-03-22T08:57:50.682Z</time></trkpt><trkpt lat="43.6711344" lon="12.8091267"><ele>471.0</ele><time>2026-03-22T08:57:51.683Z</time></trkpt><trkpt lat="43.6710868" lon="12.808934"><ele>472.0</ele><time>2026-03-22T08:57:52.689Z</time></trkpt><trkpt lat="43.6710367" lon="12.8087668"><ele>473.0</ele><time>2026-03-22T08:57:53.687Z</time></trkpt><trkpt lat="43.6710161" lon="12.8086205"><ele>474.0</ele><time>2026-03-22T08:57:54.692Z</time></trkpt><trkpt lat="43.6710036" lon="12.8085148"><ele>473.6</ele><time>2026-03-22T08:57:55.687Z</time></trkpt><trkpt lat="43.6709548" lon="12.8083933"><ele>473.2</ele><time>2026-03-22T08:57:56.704Z</time></trkpt><trkpt lat="43.670884" lon="12.8082932"><ele>472.80000000000007</ele><time>2026-03-22T08:57:57.692Z</time></trkpt><trkpt lat="43.6708057" lon="12.8081996"><ele>472.40000000000003</ele><time>2026-03-22T08:57:58.687Z</time></trkpt><trkpt lat="43.6707055" lon="12.8081289"><ele>472.0</ele><time>2026-03-22T08:57:59.687Z</time></trkpt><trkpt lat="43.6705677" lon="12.8081067"><ele>472.0</ele><time>2026-03-22T08:58:00.684Z</time></trkpt><trkpt lat="43.6704156" lon="12.8080842"><ele>472.0</ele><time>2026-03-22T08:58:01.679Z</time></trkpt><trkpt lat="43.6702651" lon="12.8080671"><ele>472.0</ele><time>2026-03-22T08:58:02.667Z</time></trkpt><trkpt lat="43.6701181" lon="12.8080475"><ele>469.5</ele><time>2026-03-22T08:58:03.67Z</time></trkpt><trkpt lat="43.6699809" lon="12.8080266"><ele>467.0</ele><time>2026-03-22T08:58:04.665Z</time></trkpt><trkpt lat="43.6698575" lon="12.8080049"><ele>464.5</ele><time>2026-03-22T08:58:05.671Z</time></trkpt><trkpt lat="43.6697399" lon="12.8079793"><ele>462.0</ele><time>2026-03-22T08:58:06.667Z</time></trkpt><trkpt lat="43.6696185" lon="12.807946"><ele>462.0</ele><time>2026-03-22T08:58:07.664Z</time></trkpt><trkpt lat="43.6694999" lon="12.8078789"><ele>462.0</ele><time>2026-03-22T08:58:08.664Z</time></trkpt><trkpt lat="43.6693729" lon="12.8078184"><ele>462.0</ele><time>2026-03-22T08:58:09.666Z</time></trkpt><trkpt lat="43.6692582" lon="12.8077554"><ele>462.0</ele><time>2026-03-22T08:58:10.673Z</time></trkpt><trkpt lat="43.6691585" lon="12.8076785"><ele>460.20000000000005</ele><time>2026-03-22T08:58:11.684Z</time></trkpt><trkpt lat="43.6690853" lon="12.8075732"><ele>458.40000000000003</ele><time>2026-03-22T08:58:12.683Z</time></trkpt><trkpt lat="43.6690227" lon="12.8074423"><ele>456.59999999999997</ele><time>2026-03-22T08:58:13.687Z</time></trkpt><trkpt lat="43.6689857" lon="12.8073294"><ele>454.79999999999995</ele><time>2026-03-22T08:58:14.688Z</time></trkpt><trkpt lat="43.668957" lon="12.8072327"><ele>453.0</ele><time>2026-03-22T08:58:15.697Z</time></trkpt><trkpt lat="43.6689302" lon="12.8071406"><ele>453.0</ele><time>2026-03-22T08:58:16.676Z</time></trkpt><trkpt lat="43.6688931" lon="12.8070512"><ele>453.0</ele><time>2026-03-22T08:58:17.682Z</time></trkpt><trkpt lat="43.6688522" lon="12.8069545"><ele>453.0</ele><time>2026-03-22T08:58:18.691Z</time></trkpt><trkpt lat="43.6688094" lon="12.8068578"><ele>453.0</ele><time>2026-03-22T08:58:19.69Z</time></trkpt><trkpt lat="43.6687623" lon="12.8067556"><ele>453.0</ele><time>2026-03-22T08:58:20.69Z</time></trkpt><trkpt lat="43.6687144" lon="12.8066416"><ele>453.0</ele><time>2026-03-22T08:58:21.699Z</time></trkpt><trkpt lat="43.6686615" lon="12.806515"><ele>450.4</ele><time>2026-03-22T08:58:22.682Z</time></trkpt><trkpt lat="43.6686056" lon="12.8063895"><ele>447.79999999999995</ele><time>2026-03-22T08:58:23.684Z</time></trkpt><trkpt lat="43.6685443" lon="12.8062704"><ele>445.2</ele><time>2026-03-22T08:58:24.691Z</time></trkpt><trkpt lat="43.6684851" lon="12.8061636"><ele>442.6</ele><time>2026-03-22T08:58:25.695Z</time></trkpt><trkpt lat="43.668421" lon="12.8060657"><ele>440.0</ele><time>2026-03-22T08:58:26.696Z</time></trkpt><trkpt lat="43.6683585" lon="12.8059727"><ele>439.66666666666663</ele><time>2026-03-22T08:58:27.707Z</time></trkpt><trkpt lat="43.6682986" lon="12.805893"><ele>439.3333333333333</ele><time>2026-03-22T08:58:28.701Z</time></trkpt><trkpt lat="43.6682414" lon="12.8058263"><ele>439.0</ele><time>2026-03-22T08:58:29.694Z</time></trkpt><trkpt lat="43.6681912" lon="12.8057697"><ele>438.66666666666663</ele><time>2026-03-22T08:58:30.697Z</time></trkpt><trkpt lat="43.6681399" lon="12.8056481"><ele>438.3333333333333</ele><time>2026-03-22T08:58:32.695Z</time></trkpt><trkpt lat="43.6681683" lon="12.8055675"><ele>438.0</ele><time>2026-03-22T08:58:33.703Z</time></trkpt><trkpt lat="43.6682242" lon="12.8054595"><ele>438.0</ele><time>2026-03-22T08:58:34.704Z</time></trkpt><trkpt lat="43.6682974" lon="12.8053303"><ele>438.0</ele><time>2026-03-22T08:58:35.702Z</time></trkpt><trkpt lat="43.6683714" lon="12.8052031"><ele>438.0</ele><time>2026-03-22T08:58:36.705Z</time></trkpt><trkpt lat="43.6684395" lon="12.8050819"><ele>438.0</ele><time>2026-03-22T08:58:37.704Z</time></trkpt><trkpt lat="43.6685027" lon="12.804968"><ele>437.1666666666667</ele><time>2026-03-22T08:58:38.695Z</time></trkpt><trkpt lat="43.6685591" lon="12.8048651"><ele>436.33333333333337</ele><time>2026-03-22T08:58:39.697Z</time></trkpt><trkpt lat="43.6686125" lon="12.8047709"><ele>435.5</ele><time>2026-03-22T08:58:40.697Z</time></trkpt><trkpt lat="43.6686539" lon="12.8046771"><ele>434.6666666666667</ele><time>2026-03-22T08:58:41.693Z</time></trkpt><trkpt lat="43.6686867" lon="12.8045752"><ele>433.83333333333337</ele><time>2026-03-22T08:58:42.699Z</time></trkpt><trkpt lat="43.6687126" lon="12.8044663"><ele>433.0</ele><time>2026-03-22T08:58:43.689Z</time></trkpt><trkpt lat="43.6687356" lon="12.8043638"><ele>431.59999999999997</ele><time>2026-03-22T08:58:44.695Z</time></trkpt><trkpt lat="43.6687643" lon="12.8042817"><ele>430.19999999999993</ele><time>2026-03-22T08:58:45.689Z</time></trkpt><trkpt lat="43.6688315" lon="12.8042193"><ele>428.8</ele><time>2026-03-22T08:58:47.7Z</time></trkpt><trkpt lat="43.6687372" lon="12.8040798"><ele>427.4</ele><time>2026-03-22T08:58:50.667Z</time></trkpt><trkpt lat="43.6686344" lon="12.8039935"><ele>426.0</ele><time>2026-03-22T08:58:51.675Z</time></trkpt><trkpt lat="43.668567" lon="12.8039394"><ele>426.0</ele><time>2026-03-22T08:58:52.669Z</time></trkpt><trkpt lat="43.6684742" lon="12.8039019"><ele>426.0</ele><time>2026-03-22T08:58:53.668Z</time></trkpt><trkpt lat="43.6683744" lon="12.8038811"><ele>426.0</ele><time>2026-03-22T08:58:54.68Z</time></trkpt><trkpt lat="43.6682749" lon="12.8038681"><ele>426.0</ele><time>2026-03-22T08:58:55.677Z</time></trkpt><trkpt lat="43.6681541" lon="12.8038562"><ele>426.0</ele><time>2026-03-22T08:58:56.678Z</time></trkpt><trkpt lat="43.6680328" lon="12.803826"><ele>426.0</ele><time>2026-03-22T08:58:57.689Z</time></trkpt><trkpt lat="43.6679075" lon="12.8037886"><ele>426.0</ele><time>2026-03-22T08:58:58.697Z</time></trkpt><trkpt lat="43.6677904" lon="12.8037405"><ele>426.0</ele><time>2026-03-22T08:58:59.69Z</time></trkpt><trkpt lat="43.6676813" lon="12.8036825"><ele>426.0</ele><time>2026-03-22T08:59:00.683Z</time></trkpt><trkpt lat="43.6675749" lon="12.8036076"><ele>426.25</ele><time>2026-03-22T08:59:01.689Z</time></trkpt><trkpt lat="43.6674735" lon="12.803541"><ele>426.5</ele><time>2026-03-22T08:59:02.68Z</time></trkpt><trkpt lat="43.6673614" lon="12.803487"><ele>426.75</ele><time>2026-03-22T08:59:03.68Z</time></trkpt><trkpt lat="43.6672512" lon="12.8034415"><ele>427.0</ele><time>2026-03-22T08:59:04.668Z</time></trkpt><trkpt lat="43.6671436" lon="12.803399"><ele>427.0</ele><time>2026-03-22T08:59:05.668Z</time></trkpt><trkpt lat="43.6670341" lon="12.8033559"><ele>427.0</ele><time>2026-03-22T08:59:06.685Z</time></trkpt><trkpt lat="43.6669219" lon="12.8033128"><ele>427.0</ele><time>2026-03-22T08:59:07.678Z</time></trkpt><trkpt lat="43.6668071" lon="12.80327"><ele>427.0</ele><time>2026-03-22T08:59:08.68Z</time></trkpt><trkpt lat="43.6666926" lon="12.8032114"><ele>428.20000000000005</ele><time>2026-03-22T08:59:09.692Z</time></trkpt><trkpt lat="43.6665969" lon="12.8031592"><ele>429.40000000000003</ele><time>2026-03-22T08:59:10.689Z</time></trkpt><trkpt lat="43.6665093" lon="12.8031163"><ele>430.59999999999997</ele><time>2026-03-22T08:59:11.697Z</time></trkpt><trkpt lat="43.6664107" lon="12.8030836"><ele>431.79999999999995</ele><time>2026-03-22T08:59:12.684Z</time></trkpt><trkpt lat="43.6663155" lon="12.8030471"><ele>433.0</ele><time>2026-03-22T08:59:13.688Z</time></trkpt><trkpt lat="43.6662183" lon="12.8029701"><ele>433.0</ele><time>2026-03-22T08:59:14.679Z</time></trkpt><trkpt lat="43.6661302" lon="12.8028755"><ele>433.0</ele><time>2026-03-22T08:59:15.676Z</time></trkpt><trkpt lat="43.6660472" lon="12.8027696"><ele>433.0</ele><time>2026-03-22T08:59:16.669Z</time></trkpt><trkpt lat="43.665967" lon="12.8026237"><ele>433.0</ele><time>2026-03-22T08:59:17.67Z</time></trkpt><trkpt lat="43.6659147" lon="12.8024897"><ele>433.25</ele><time>2026-03-22T08:59:18.664Z</time></trkpt><trkpt lat="43.6658587" lon="12.8023488"><ele>433.5</ele><time>2026-03-22T08:59:19.66Z</time></trkpt><trkpt lat="43.6657986" lon="12.8021765"><ele>433.75</ele><time>2026-03-22T08:59:20.663Z</time></trkpt><trkpt lat="43.6657059" lon="12.8019761"><ele>434.0</ele><time>2026-03-22T08:59:21.67Z</time></trkpt><trkpt lat="43.6656333" lon="12.8017852"><ele>436.25</ele><time>2026-03-22T08:59:22.667Z</time></trkpt><trkpt lat="43.6655844" lon="12.8015709"><ele>438.5</ele><time>2026-03-22T08:59:23.666Z</time></trkpt><trkpt lat="43.6655378" lon="12.801397"><ele>440.75</ele><time>2026-03-22T08:59:24.667Z</time></trkpt><trkpt lat="43.6654667" lon="12.8012514"><ele>443.0</ele><time>2026-03-22T08:59:25.677Z</time></trkpt><trkpt lat="43.6653698" lon="12.8011328"><ele>443.0</ele><time>2026-03-22T08:59:26.675Z</time></trkpt><trkpt lat="43.6652552" lon="12.8010717"><ele>443.0</ele><time>2026-03-22T08:59:27.678Z</time></trkpt><trkpt lat="43.6651294" lon="12.8010284"><ele>443.0</ele><time>2026-03-22T08:59:28.691Z</time></trkpt><trkpt lat="43.6650106" lon="12.8009943"><ele>443.0</ele><time>2026-03-22T08:59:29.704Z</time></trkpt><trkpt lat="43.6648844" lon="12.8009782"><ele>443.0</ele><time>2026-03-22T08:59:30.693Z</time></trkpt><trkpt lat="43.6647621" lon="12.800958"><ele>443.0</ele><time>2026-03-22T08:59:31.703Z</time></trkpt><trkpt lat="43.6646328" lon="12.8009387"><ele>443.0</ele><time>2026-03-22T08:59:32.699Z</time></trkpt><trkpt lat="43.6645084" lon="12.8009111"><ele>443.0</ele><time>2026-03-22T08:59:33.703Z</time></trkpt><trkpt lat="43.6643824" lon="12.8008848"><ele>442.5</ele><time>2026-03-22T08:59:34.696Z</time></trkpt><trkpt lat="43.664256" lon="12.8008441"><ele>442.0</ele><time>2026-03-22T08:59:35.702Z</time></trkpt><trkpt lat="43.6641253" lon="12.8007922"><ele>441.5</ele><time>2026-03-22T08:59:36.702Z</time></trkpt><trkpt lat="43.66399" lon="12.8007473"><ele>441.0</ele><time>2026-03-22T08:59:37.703Z</time></trkpt><trkpt lat="43.6638555" lon="12.8007042"><ele>441.0</ele><time>2026-03-22T08:59:38.715Z</time></trkpt><trkpt lat="43.6637188" lon="12.8006599"><ele>441.0</ele><time>2026-03-22T08:59:39.704Z</time></trkpt><trkpt lat="43.6635652" lon="12.8006168"><ele>441.0</ele><time>2026-03-22T08:59:40.702Z</time></trkpt><trkpt lat="43.6634259" lon="12.8005706"><ele>441.0</ele><time>2026-03-22T08:59:41.704Z</time></trkpt><trkpt lat="43.6633173" lon="12.8005328"><ele>441.25</ele><time>2026-03-22T08:59:42.707Z</time></trkpt><trkpt lat="43.6632149" lon="12.8004803"><ele>441.5</ele><time>2026-03-22T08:59:43.707Z</time></trkpt><trkpt lat="43.6630719" lon="12.8004422"><ele>441.75</ele><time>2026-03-22T08:59:44.692Z</time></trkpt><trkpt lat="43.6629113" lon="12.8004103"><ele>442.0</ele><time>2026-03-22T08:59:45.683Z</time></trkpt><trkpt lat="43.6627797" lon="12.8003634"><ele>442.0</ele><time>2026-03-22T08:59:46.691Z</time></trkpt><trkpt lat="43.6626718" lon="12.800309"><ele>442.0</ele><time>2026-03-22T08:59:47.699Z</time></trkpt><trkpt lat="43.6625308" lon="12.8002726"><ele>442.0</ele><time>2026-03-22T08:59:48.691Z</time></trkpt><trkpt lat="43.6624067" lon="12.8002254"><ele>442.0</ele><time>2026-03-22T08:59:49.688Z</time></trkpt><trkpt lat="43.6622684" lon="12.8001736"><ele>442.5</ele><time>2026-03-22T08:59:50.701Z</time></trkpt><trkpt lat="43.6621415" lon="12.8001101"><ele>443.0</ele><time>2026-03-22T08:59:51.683Z</time></trkpt><trkpt lat="43.6620217" lon="12.8000293"><ele>443.5</ele><time>2026-03-22T08:59:52.692Z</time></trkpt><trkpt lat="43.6619114" lon="12.7999378"><ele>444.0</ele><time>2026-03-22T08:59:53.689Z</time></trkpt><trkpt lat="43.6617959" lon="12.7998364"><ele>443.25</ele><time>2026-03-22T08:59:54.69Z</time></trkpt><trkpt lat="43.6616827" lon="12.7997152"><ele>442.5</ele><time>2026-03-22T08:59:55.683Z</time></trkpt><trkpt lat="43.6615702" lon="12.7996053"><ele>441.75</ele><time>2026-03-22T08:59:56.673Z</time></trkpt><trkpt lat="43.6614692" lon="12.799467"><ele>441.0</ele><time>2026-03-22T08:59:57.661Z</time></trkpt><trkpt lat="43.6613795" lon="12.7993337"><ele>441.0</ele><time>2026-03-22T08:59:58.664Z</time></trkpt><trkpt lat="43.6612759" lon="12.7992005"><ele>441.0</ele><time>2026-03-22T08:59:59.654Z</time></trkpt><trkpt lat="43.6611934" lon="12.799064"><ele>441.0</ele><time>2026-03-22T09:00:00.664Z</time></trkpt><trkpt lat="43.6611282" lon="12.7989408"><ele>441.0</ele><time>2026-03-22T09:00:01.668Z</time></trkpt><trkpt lat="43.6611003" lon="12.7988277"><ele>439.4</ele><time>2026-03-22T09:00:02.654Z</time></trkpt><trkpt lat="43.6610249" lon="12.7987307"><ele>437.8</ele><time>2026-03-22T09:00:03.653Z</time></trkpt><trkpt lat="43.6609435" lon="12.7986282"><ele>436.19999999999993</ele><time>2026-03-22T09:00:04.657Z</time></trkpt><trkpt lat="43.6608574" lon="12.798527"><ele>434.59999999999997</ele><time>2026-03-22T09:00:05.655Z</time></trkpt><trkpt lat="43.6607545" lon="12.7984389"><ele>433.0</ele><time>2026-03-22T09:00:06.654Z</time></trkpt><trkpt lat="43.6606403" lon="12.7983419"><ele>433.0</ele><time>2026-03-22T09:00:07.659Z</time></trkpt><trkpt lat="43.6605299" lon="12.7982364"><ele>433.0</ele><time>2026-03-22T09:00:08.656Z</time></trkpt><trkpt lat="43.6604166" lon="12.7981363"><ele>433.0</ele><time>2026-03-22T09:00:09.677Z</time></trkpt><trkpt lat="43.6603073" lon="12.7980425"><ele>433.0</ele><time>2026-03-22T09:00:10.662Z</time></trkpt><trkpt lat="43.6602145" lon="12.7979645"><ele>431.00000000000006</ele><time>2026-03-22T09:00:11.665Z</time></trkpt><trkpt lat="43.6601249" lon="12.7979057"><ele>429.0</ele><time>2026-03-22T09:00:12.672Z</time></trkpt><trkpt lat="43.6600451" lon="12.7978591"><ele>427.0</ele><time>2026-03-22T09:00:13.68Z</time></trkpt><trkpt lat="43.6599814" lon="12.7978384"><ele>425.0</ele><time>2026-03-22T09:00:14.676Z</time></trkpt><trkpt lat="43.6599018" lon="12.797834"><ele>423.00000000000006</ele><time>2026-03-22T09:00:16.68Z</time></trkpt><trkpt lat="43.6598361" lon="12.7978365"><ele>421.0</ele><time>2026-03-22T09:01:36.684Z</time></trkpt><trkpt lat="43.6598449" lon="12.7977106"><ele>421.20000000000005</ele><time>2026-03-22T09:01:39.675Z</time></trkpt><trkpt lat="43.6599314" lon="12.797567"><ele>421.40000000000003</ele><time>2026-03-22T09:01:41.69Z</time></trkpt><trkpt lat="43.6599877" lon="12.7974777"><ele>421.6</ele><time>2026-03-22T09:01:42.671Z</time></trkpt><trkpt lat="43.6600459" lon="12.797377"><ele>421.8</ele><time>2026-03-22T09:01:43.672Z</time></trkpt><trkpt lat="43.6600938" lon="12.797277"><ele>422.0</ele><time>2026-03-22T09:01:44.667Z</time></trkpt><trkpt lat="43.6601363" lon="12.7971834"><ele>421.99999999999994</ele><time>2026-03-22T09:01:45.672Z</time></trkpt><trkpt lat="43.6601666" lon="12.7970951"><ele>422.0</ele><time>2026-03-22T09:01:46.676Z</time></trkpt><trkpt lat="43.660194" lon="12.796919"><ele>422.0</ele><time>2026-03-22T09:01:48.67Z</time></trkpt><trkpt lat="43.6602077" lon="12.7968237"><ele>422.0</ele><time>2026-03-22T09:01:49.67Z</time></trkpt><trkpt lat="43.6602213" lon="12.7967376"><ele>421.99999999999994</ele><time>2026-03-22T09:01:50.668Z</time></trkpt><trkpt lat="43.6602342" lon="12.7966465"><ele>422.0</ele><time>2026-03-22T09:01:51.665Z</time></trkpt><trkpt lat="43.6602567" lon="12.7965519"><ele>421.49999999999994</ele><time>2026-03-22T09:01:52.662Z</time></trkpt><trkpt lat="43.6602813" lon="12.7964646"><ele>421.0</ele><time>2026-03-22T09:01:53.659Z</time></trkpt><trkpt lat="43.6603016" lon="12.7963691"><ele>420.5</ele><time>2026-03-22T09:01:54.67Z</time></trkpt><trkpt lat="43.6603457" lon="12.7961987"><ele>420.0</ele><time>2026-03-22T09:01:56.659Z</time></trkpt><trkpt lat="43.6603562" lon="12.7961104"><ele>419.49999999999994</ele><time>2026-03-22T09:01:57.655Z</time></trkpt><trkpt lat="43.6603776" lon="12.7960258"><ele>419.0</ele><time>2026-03-22T09:01:58.652Z</time></trkpt><trkpt lat="43.6604148" lon="12.7959245"><ele>421.49999999999994</ele><time>2026-03-22T09:01:59.668Z</time></trkpt><trkpt lat="43.6604538" lon="12.7958548"><ele>424.0</ele><time>2026-03-22T09:02:00.67Z</time></trkpt><trkpt lat="43.6605474" lon="12.7957047"><ele>426.5</ele><time>2026-03-22T09:02:02.663Z</time></trkpt><trkpt lat="43.6605722" lon="12.7955974"><ele>429.0</ele><time>2026-03-22T09:02:03.662Z</time></trkpt><trkpt lat="43.6606074" lon="12.7955026"><ele>431.49999999999994</ele><time>2026-03-22T09:02:04.689Z</time></trkpt><trkpt lat="43.6606565" lon="12.7954235"><ele>434.0</ele><time>2026-03-22T09:02:05.668Z</time></trkpt><trkpt lat="43.6607016" lon="12.7953597"><ele>434.0</ele><time>2026-03-22T09:02:06.673Z</time></trkpt><trkpt lat="43.6607313" lon="12.7952425"><ele>434.0</ele><time>2026-03-22T09:02:08.665Z</time></trkpt><trkpt lat="43.6607717" lon="12.7950965"><ele>434.0</ele><time>2026-03-22T09:02:10.663Z</time></trkpt><trkpt lat="43.6608386" lon="12.7949887"><ele>434.0</ele><time>2026-03-22T09:02:12.666Z</time></trkpt><trkpt lat="43.6609329" lon="12.7949341"><ele>434.0</ele><time>2026-03-22T09:02:14.671Z</time></trkpt><trkpt lat="43.6610279" lon="12.7948637"><ele>431.16666666666663</ele><time>2026-03-22T09:02:16.658Z</time></trkpt><trkpt lat="43.6610807" lon="12.7947714"><ele>428.3333333333333</ele><time>2026-03-22T09:02:18.66Z</time></trkpt><trkpt lat="43.6611256" lon="12.7946552"><ele>425.5</ele><time>2026-03-22T09:02:20.657Z</time></trkpt><trkpt lat="43.661175" lon="12.7945561"><ele>422.66666666666663</ele><time>2026-03-22T09:02:22.666Z</time></trkpt><trkpt lat="43.6611506" lon="12.7944475"><ele>419.8333333333333</ele><time>2026-03-22T09:02:25.672Z</time></trkpt><trkpt lat="43.6610905" lon="12.7943726"><ele>417.0</ele><time>2026-03-22T09:02:27.662Z</time></trkpt><trkpt lat="43.6610018" lon="12.7942999"><ele>413.20000000000005</ele><time>2026-03-22T09:02:29.669Z</time></trkpt><trkpt lat="43.6609114" lon="12.7942011"><ele>409.4</ele><time>2026-03-22T09:02:31.667Z</time></trkpt><trkpt lat="43.6608112" lon="12.7940983"><ele>405.6</ele><time>2026-03-22T09:02:33.666Z</time></trkpt><trkpt lat="43.660729" lon="12.7939923"><ele>401.79999999999995</ele><time>2026-03-22T09:02:35.669Z</time></trkpt><trkpt lat="43.6606859" lon="12.7939224"><ele>398.0</ele><time>2026-03-22T09:02:36.655Z</time></trkpt><trkpt lat="43.6606252" lon="12.7938403"><ele>398.0</ele><time>2026-03-22T09:02:39.671Z</time></trkpt><trkpt lat="43.6605721" lon="12.7937219"><ele>398.0</ele><time>2026-03-22T09:02:41.66Z</time></trkpt><trkpt lat="43.6605706" lon="12.7935742"><ele>398.0</ele><time>2026-03-22T09:02:43.669Z</time></trkpt><trkpt lat="43.6605886" lon="12.7934319"><ele>398.0</ele><time>2026-03-22T09:02:45.663Z</time></trkpt><trkpt lat="43.6605774" lon="12.7933034"><ele>398.0</ele><time>2026-03-22T09:02:47.663Z</time></trkpt><trkpt lat="43.6605746" lon="12.7932071"><ele>394.49999999999994</ele><time>2026-03-22T09:02:49.655Z</time></trkpt><trkpt lat="43.6605433" lon="12.7930908"><ele>391.0</ele><time>2026-03-22T09:02:51.671Z</time></trkpt><trkpt lat="43.6604547" lon="12.7930401"><ele>387.5</ele><time>2026-03-22T09:02:53.658Z</time></trkpt><trkpt lat="43.66037" lon="12.7930209"><ele>384.0</ele><time>2026-03-22T09:02:55.67Z</time></trkpt><trkpt lat="43.6603012" lon="12.7930141"><ele>380.5</ele><time>2026-03-22T09:02:57.671Z</time></trkpt><trkpt lat="43.6602243" lon="12.7929622"><ele>377.0</ele><time>2026-03-22T09:03:00.655Z</time></trkpt><trkpt lat="43.660237" lon="12.7928301"><ele>375.20000000000005</ele><time>2026-03-22T09:03:03.658Z</time></trkpt><trkpt lat="43.6602672" lon="12.7927291"><ele>373.4</ele><time>2026-03-22T09:03:05.677Z</time></trkpt><trkpt lat="43.6602824" lon="12.7925816"><ele>371.6</ele><time>2026-03-22T09:03:07.67Z</time></trkpt><trkpt lat="43.660276" lon="12.7924238"><ele>369.79999999999995</ele><time>2026-03-22T09:03:09.662Z</time></trkpt><trkpt lat="43.6603277" lon="12.7922683"><ele>368.0</ele><time>2026-03-22T09:03:11.67Z</time></trkpt><trkpt lat="43.6603937" lon="12.7921033"><ele>366.6666666666667</ele><time>2026-03-22T09:03:13.665Z</time></trkpt><trkpt lat="43.6604045" lon="12.7920081"><ele>365.33333333333337</ele><time>2026-03-22T09:03:14.673Z</time></trkpt><trkpt lat="43.6603897" lon="12.7919115"><ele>364.0</ele><time>2026-03-22T09:03:15.664Z</time></trkpt><trkpt lat="43.6603889" lon="12.7918024"><ele>362.6666666666667</ele><time>2026-03-22T09:03:16.665Z</time></trkpt><trkpt lat="43.6603878" lon="12.7916872"><ele>361.3333333333333</ele><time>2026-03-22T09:03:17.671Z</time></trkpt><trkpt lat="43.6603865" lon="12.7915738"><ele>360.0</ele><time>2026-03-22T09:03:18.665Z</time></trkpt><trkpt lat="43.6603873" lon="12.7914652"><ele>358.0</ele><time>2026-03-22T09:03:19.661Z</time></trkpt><trkpt lat="43.6603908" lon="12.7913565"><ele>356.0</ele><time>2026-03-22T09:03:20.662Z</time></trkpt><trkpt lat="43.66038" lon="12.79124"><ele>354.0</ele><time>2026-03-22T09:03:21.676Z</time></trkpt><trkpt lat="43.6603496" lon="12.7911076"><ele>352.0</ele><time>2026-03-22T09:03:22.671Z</time></trkpt><trkpt lat="43.6603238" lon="12.7909868"><ele>350.0</ele><time>2026-03-22T09:03:23.674Z</time></trkpt><trkpt lat="43.6603035" lon="12.7908838"><ele>348.0</ele><time>2026-03-22T09:03:24.674Z</time></trkpt><trkpt lat="43.6602766" lon="12.790722"><ele>348.0</ele><time>2026-03-22T09:03:26.666Z</time></trkpt><trkpt lat="43.6602053" lon="12.7905963"><ele>348.0</ele><time>2026-03-22T09:03:28.677Z</time></trkpt><trkpt lat="43.6601602" lon="12.7904175"><ele>348.0</ele><time>2026-03-22T09:03:30.673Z</time></trkpt><trkpt lat="43.6601487" lon="12.7903152"><ele>348.0</ele><time>2026-03-22T09:03:31.672Z</time></trkpt><trkpt lat="43.6601327" lon="12.7902134"><ele>348.0</ele><time>2026-03-22T09:03:32.672Z</time></trkpt><trkpt lat="43.6601077" lon="12.7901173"><ele>348.6666666666667</ele><time>2026-03-22T09:03:33.669Z</time></trkpt><trkpt lat="43.6600913" lon="12.7900264"><ele>349.3333333333333</ele><time>2026-03-22T09:03:34.669Z</time></trkpt><trkpt lat="43.660053" lon="12.7898822"><ele>350.0</ele><time>2026-03-22T09:03:36.677Z</time></trkpt><trkpt lat="43.6600639" lon="12.7897707"><ele>350.66666666666663</ele><time>2026-03-22T09:03:38.676Z</time></trkpt><trkpt lat="43.6601134" lon="12.7897033"><ele>351.3333333333333</ele><time>2026-03-22T09:03:40.671Z</time></trkpt><trkpt lat="43.6601774" lon="12.7895778"><ele>352.0</ele><time>2026-03-22T09:03:42.671Z</time></trkpt><trkpt lat="43.6602208" lon="12.7895038"><ele>352.0</ele><time>2026-03-22T09:03:43.668Z</time></trkpt><trkpt lat="43.6602652" lon="12.7894216"><ele>352.0</ele><time>2026-03-22T09:03:44.66Z</time></trkpt><trkpt lat="43.6603125" lon="12.7893368"><ele>352.0</ele><time>2026-03-22T09:03:45.669Z</time></trkpt><trkpt lat="43.6603577" lon="12.7892577"><ele>352.0</ele><time>2026-03-22T09:03:46.661Z</time></trkpt><trkpt lat="43.6604001" lon="12.7891715"><ele>352.0</ele><time>2026-03-22T09:03:47.659Z</time></trkpt><trkpt lat="43.6604373" lon="12.7890839"><ele>352.0</ele><time>2026-03-22T09:03:48.661Z</time></trkpt><trkpt lat="43.6604688" lon="12.7890047"><ele>352.0</ele><time>2026-03-22T09:03:49.659Z</time></trkpt><trkpt lat="43.6605259" lon="12.7888706"><ele>350.7142857142857</ele><time>2026-03-22T09:03:51.66Z</time></trkpt><trkpt lat="43.6605575" lon="12.7887922"><ele>349.42857142857144</ele><time>2026-03-22T09:03:52.661Z</time></trkpt><trkpt lat="43.6605921" lon="12.7887106"><ele>348.1428571428571</ele><time>2026-03-22T09:03:53.664Z</time></trkpt><trkpt lat="43.6606367" lon="12.788623"><ele>346.8571428571429</ele><time>2026-03-22T09:03:54.665Z</time></trkpt><trkpt lat="43.6606874" lon="12.788539"><ele>345.57142857142856</ele><time>2026-03-22T09:03:55.666Z</time></trkpt><trkpt lat="43.6607388" lon="12.7884599"><ele>344.2857142857143</ele><time>2026-03-22T09:03:56.668Z</time></trkpt><trkpt lat="43.6607838" lon="12.7883872"><ele>343.0</ele><time>2026-03-22T09:03:57.66Z</time></trkpt><trkpt lat="43.6608323" lon="12.7883198"><ele>340.8333333333333</ele><time>2026-03-22T09:03:58.652Z</time></trkpt><trkpt lat="43.6608774" lon="12.7882526"><ele>338.66666666666663</ele><time>2026-03-22T09:03:59.654Z</time></trkpt><trkpt lat="43.6609298" lon="12.7881865"><ele>336.5</ele><time>2026-03-22T09:04:00.655Z</time></trkpt><trkpt lat="43.6609885" lon="12.7880941"><ele>334.3333333333333</ele><time>2026-03-22T09:04:01.655Z</time></trkpt><trkpt lat="43.6610516" lon="12.7879979"><ele>332.1666666666667</ele><time>2026-03-22T09:04:02.657Z</time></trkpt><trkpt lat="43.6611157" lon="12.7879066"><ele>330.0</ele><time>2026-03-22T09:04:03.673Z</time></trkpt><trkpt lat="43.6611655" lon="12.787821"><ele>327.5</ele><time>2026-03-22T09:04:04.665Z</time></trkpt><trkpt lat="43.6612075" lon="12.7877278"><ele>325.0</ele><time>2026-03-22T09:04:05.664Z</time></trkpt><trkpt lat="43.6612571" lon="12.787641"><ele>322.5</ele><time>2026-03-22T09:04:06.665Z</time></trkpt><trkpt lat="43.6612962" lon="12.78756"><ele>320.0</ele><time>2026-03-22T09:04:07.665Z</time></trkpt><trkpt lat="43.6613435" lon="12.7874964"><ele>317.5</ele><time>2026-03-22T09:04:08.668Z</time></trkpt><trkpt lat="43.6614112" lon="12.7873834"><ele>315.0</ele><time>2026-03-22T09:04:10.672Z</time></trkpt><trkpt lat="43.6614554" lon="12.7872486"><ele>315.0</ele><time>2026-03-22T09:04:12.668Z</time></trkpt><trkpt lat="43.6614976" lon="12.7871414"><ele>315.0</ele><time>2026-03-22T09:04:14.668Z</time></trkpt><trkpt lat="43.6615321" lon="12.7870426"><ele>315.0</ele><time>2026-03-22T09:04:38.675Z</time></trkpt><trkpt lat="43.6615599" lon="12.7869318"><ele>315.0</ele><time>2026-03-22T09:04:41.661Z</time></trkpt><trkpt lat="43.6615776" lon="12.7868383"><ele>315.0</ele><time>2026-03-22T09:04:43.673Z</time></trkpt><trkpt lat="43.6616144" lon="12.7867401"><ele>315.0</ele><time>2026-03-22T09:04:45.655Z</time></trkpt><trkpt lat="43.6616602" lon="12.7866255"><ele>314.2</ele><time>2026-03-22T09:04:47.654Z</time></trkpt><trkpt lat="43.661728" lon="12.7864854"><ele>313.4</ele><time>2026-03-22T09:04:49.658Z</time></trkpt><trkpt lat="43.661763" lon="12.7864082"><ele>312.6</ele><time>2026-03-22T09:04:50.663Z</time></trkpt><trkpt lat="43.6618016" lon="12.7862704"><ele>311.8</ele><time>2026-03-22T09:04:52.669Z</time></trkpt><trkpt lat="43.6618208" lon="12.7861482"><ele>311.0</ele><time>2026-03-22T09:04:54.673Z</time></trkpt><trkpt lat="43.6618408" lon="12.7860282"><ele>309.57142857142856</ele><time>2026-03-22T09:04:56.665Z</time></trkpt><trkpt lat="43.6618526" lon="12.7858994"><ele>308.14285714285717</ele><time>2026-03-22T09:04:58.675Z</time></trkpt><trkpt lat="43.6618693" lon="12.7858093"><ele>306.7142857142857</ele><time>2026-03-22T09:05:00.67Z</time></trkpt><trkpt lat="43.6618938" lon="12.7857254"><ele>305.2857142857143</ele><time>2026-03-22T09:05:02.664Z</time></trkpt><trkpt lat="43.6619217" lon="12.7856306"><ele>303.8571428571429</ele><time>2026-03-22T09:05:05.66Z</time></trkpt><trkpt lat="43.6619358" lon="12.7855445"><ele>302.42857142857144</ele><time>2026-03-22T09:05:07.658Z</time></trkpt><trkpt lat="43.6619341" lon="12.7854425"><ele>301.0</ele><time>2026-03-22T09:05:09.668Z</time></trkpt><trkpt lat="43.6619461" lon="12.7853288"><ele>298.16666666666663</ele><time>2026-03-22T09:05:11.669Z</time></trkpt><trkpt lat="43.6619745" lon="12.785221"><ele>295.3333333333333</ele><time>2026-03-22T09:05:13.661Z</time></trkpt><trkpt lat="43.6619971" lon="12.7851081"><ele>292.5</ele><time>2026-03-22T09:05:15.666Z</time></trkpt><trkpt lat="43.662007" lon="12.7849852"><ele>289.6666666666667</ele><time>2026-03-22T09:05:17.667Z</time></trkpt><trkpt lat="43.6620392" lon="12.7848798"><ele>286.83333333333337</ele><time>2026-03-22T09:05:19.668Z</time></trkpt><trkpt lat="43.6620861" lon="12.7847574"><ele>284.0</ele><time>2026-03-22T09:05:21.674Z</time></trkpt><trkpt lat="43.6621276" lon="12.7846113"><ele>282.59999999999997</ele><time>2026-03-22T09:05:23.661Z</time></trkpt><trkpt lat="43.66214" lon="12.7845186"><ele>281.2</ele><time>2026-03-22T09:05:24.66Z</time></trkpt><trkpt lat="43.6621654" lon="12.784368"><ele>279.79999999999995</ele><time>2026-03-22T09:05:26.661Z</time></trkpt><trkpt lat="43.6622124" lon="12.7842191"><ele>278.4</ele><time>2026-03-22T09:05:28.657Z</time></trkpt><trkpt lat="43.6622767" lon="12.784072"><ele>277.0</ele><time>2026-03-22T09:05:30.666Z</time></trkpt><trkpt lat="43.6623428" lon="12.7839194"><ele>276.16666666666663</ele><time>2026-03-22T09:05:32.657Z</time></trkpt><trkpt lat="43.6624067" lon="12.7838021"><ele>275.3333333333333</ele><time>2026-03-22T09:05:34.665Z</time></trkpt><trkpt lat="43.6624681" lon="12.7837055"><ele>274.5</ele><time>2026-03-22T09:05:36.659Z</time></trkpt><trkpt lat="43.6625174" lon="12.7836173"><ele>273.6666666666667</ele><time>2026-03-22T09:05:38.661Z</time></trkpt><trkpt lat="43.6625617" lon="12.7835516"><ele>272.83333333333337</ele><time>2026-03-22T09:05:40.667Z</time></trkpt><trkpt lat="43.6626214" lon="12.7834918"><ele>272.0</ele><time>2026-03-22T09:05:42.674Z</time></trkpt><trkpt lat="43.6626961" lon="12.7834007"><ele>270.4</ele><time>2026-03-22T09:05:44.671Z</time></trkpt><trkpt lat="43.6627453" lon="12.78328"><ele>268.79999999999995</ele><time>2026-03-22T09:05:46.668Z</time></trkpt><trkpt lat="43.6627822" lon="12.783156"><ele>267.2</ele><time>2026-03-22T09:05:48.681Z</time></trkpt><trkpt lat="43.6628407" lon="12.7830522"><ele>265.59999999999997</ele><time>2026-03-22T09:05:50.667Z</time></trkpt><trkpt lat="43.6629005" lon="12.7829847"><ele>264.0</ele><time>2026-03-22T09:05:52.659Z</time></trkpt><trkpt lat="43.6629976" lon="12.782889"><ele>263.2</ele><time>2026-03-22T09:05:54.66Z</time></trkpt><trkpt lat="43.6631019" lon="12.7827965"><ele>262.4</ele><time>2026-03-22T09:05:56.662Z</time></trkpt><trkpt lat="43.6631813" lon="12.7827378"><ele>261.6</ele><time>2026-03-22T09:05:57.655Z</time></trkpt><trkpt lat="43.6632627" lon="12.7826803"><ele>260.8</ele><time>2026-03-22T09:05:58.664Z</time></trkpt><trkpt lat="43.6633222" lon="12.7826002"><ele>260.0</ele><time>2026-03-22T09:05:59.66Z</time></trkpt><trkpt lat="43.663371" lon="12.7825082"><ele>260.0</ele><time>2026-03-22T09:06:00.658Z</time></trkpt><trkpt lat="43.6634344" lon="12.7824445"><ele>260.0</ele><time>2026-03-22T09:06:01.659Z</time></trkpt><trkpt lat="43.6635239" lon="12.7823079"><ele>260.0</ele><time>2026-03-22T09:06:03.675Z</time></trkpt><trkpt lat="43.6635733" lon="12.78217"><ele>260.0</ele><time>2026-03-22T09:06:05.65Z</time></trkpt><trkpt lat="43.6636269" lon="12.7820416"><ele>260.0</ele><time>2026-03-22T09:06:07.669Z</time></trkpt><trkpt lat="43.6636859" lon="12.7819586"><ele>258.5</ele><time>2026-03-22T09:06:10.676Z</time></trkpt><trkpt lat="43.6636252" lon="12.7818582"><ele>257.0</ele><time>2026-03-22T09:06:14.658Z</time></trkpt><trkpt lat="43.6635948" lon="12.7817705"><ele>255.5</ele><time>2026-03-22T09:06:16.659Z</time></trkpt><trkpt lat="43.6635619" lon="12.7816939"><ele>254.0</ele><time>2026-03-22T09:06:18.655Z</time></trkpt><trkpt lat="43.6635154" lon="12.7816109"><ele>252.50000000000003</ele><time>2026-03-22T09:06:20.664Z</time></trkpt><trkpt lat="43.6634526" lon="12.7815333"><ele>251.0</ele><time>2026-03-22T09:06:23.662Z</time></trkpt><trkpt lat="43.6633887" lon="12.7814983"><ele>249.66666666666669</ele><time>2026-03-22T09:06:25.663Z</time></trkpt><trkpt lat="43.6633104" lon="12.7814779"><ele>248.33333333333334</ele><time>2026-03-22T09:06:27.66Z</time></trkpt><trkpt lat="43.6632182" lon="12.7814561"><ele>247.0</ele><time>2026-03-22T09:06:29.663Z</time></trkpt><trkpt lat="43.6631319" lon="12.7814283"><ele>245.66666666666669</ele><time>2026-03-22T09:06:31.663Z</time></trkpt><trkpt lat="43.6630462" lon="12.7813983"><ele>244.33333333333334</ele><time>2026-03-22T09:06:33.666Z</time></trkpt><trkpt lat="43.6629758" lon="12.7813928"><ele>243.0</ele><time>2026-03-22T09:06:35.662Z</time></trkpt><trkpt lat="43.6628898" lon="12.7814085"><ele>243.0</ele><time>2026-03-22T09:06:37.657Z</time></trkpt><trkpt lat="43.6628084" lon="12.7814606"><ele>243.0</ele><time>2026-03-22T09:06:39.654Z</time></trkpt><trkpt lat="43.6627254" lon="12.7815597"><ele>243.0</ele><time>2026-03-22T09:06:41.662Z</time></trkpt><trkpt lat="43.6626827" lon="12.7816307"><ele>243.0</ele><time>2026-03-22T09:06:42.661Z</time></trkpt><trkpt lat="43.662633" lon="12.7816989"><ele>243.0</ele><time>2026-03-22T09:06:43.655Z</time></trkpt><trkpt lat="43.6625216" lon="12.7817912"><ele>239.60000000000002</ele><time>2026-03-22T09:06:45.664Z</time></trkpt><trkpt lat="43.6624579" lon="12.7817982"><ele>236.20000000000002</ele><time>2026-03-22T09:06:46.656Z</time></trkpt><trkpt lat="43.662372" lon="12.7818238"><ele>232.8</ele><time>2026-03-22T09:06:48.659Z</time></trkpt><trkpt lat="43.6622677" lon="12.7817825"><ele>229.4</ele><time>2026-03-22T09:06:50.662Z</time></trkpt><trkpt lat="43.6621625" lon="12.7817682"><ele>226.0</ele><time>2026-03-22T09:06:52.659Z</time></trkpt><trkpt lat="43.6620477" lon="12.781758"><ele>226.60000000000002</ele><time>2026-03-22T09:06:54.646Z</time></trkpt><trkpt lat="43.6619196" lon="12.7817769"><ele>227.20000000000002</ele><time>2026-03-22T09:06:56.66Z</time></trkpt><trkpt lat="43.6618539" lon="12.7817912"><ele>227.79999999999998</ele><time>2026-03-22T09:06:57.663Z</time></trkpt><trkpt lat="43.6617428" lon="12.7818545"><ele>228.39999999999998</ele><time>2026-03-22T09:06:59.665Z</time></trkpt><trkpt lat="43.6616415" lon="12.7819047"><ele>229.0</ele><time>2026-03-22T09:07:01.67Z</time></trkpt><trkpt lat="43.6615972" lon="12.781812"><ele>226.16666666666666</ele><time>2026-03-22T09:07:04.669Z</time></trkpt><trkpt lat="43.6616123" lon="12.7817216"><ele>223.33333333333331</ele><time>2026-03-22T09:07:05.662Z</time></trkpt><trkpt lat="43.6616232" lon="12.7816289"><ele>220.5</ele><time>2026-03-22T09:07:06.656Z</time></trkpt><trkpt lat="43.6616002" lon="12.7814993"><ele>217.66666666666669</ele><time>2026-03-22T09:07:08.667Z</time></trkpt><trkpt lat="43.6615154" lon="12.7814894"><ele>214.83333333333334</ele><time>2026-03-22T09:07:12.67Z</time></trkpt><trkpt lat="43.6614447" lon="12.7815754"><ele>212.0</ele><time>2026-03-22T09:07:16.663Z</time></trkpt><trkpt lat="43.661401" lon="12.78164"><ele>212.00000000000003</ele><time>2026-03-22T09:07:19.673Z</time></trkpt><trkpt lat="43.6613542" lon="12.7815111"><ele>212.0</ele><time>2026-03-22T09:07:22.667Z</time></trkpt><trkpt lat="43.6613406" lon="12.7814184"><ele>212.0</ele><time>2026-03-22T09:07:24.669Z</time></trkpt><trkpt lat="43.6613753" lon="12.7812734"><ele>212.0</ele><time>2026-03-22T09:07:27.667Z</time></trkpt><trkpt lat="43.6614358" lon="12.7812019"><ele>212.00000000000003</ele><time>2026-03-22T09:07:28.67Z</time></trkpt><trkpt lat="43.6615064" lon="12.7811518"><ele>212.0</ele><time>2026-03-22T09:07:29.675Z</time></trkpt><trkpt lat="43.6615344" lon="12.7810733"><ele>208.66666666666669</ele><time>2026-03-22T09:07:30.659Z</time></trkpt><trkpt lat="43.661582" lon="12.7809764"><ele>205.33333333333334</ele><time>2026-03-22T09:07:32.662Z</time></trkpt><trkpt lat="43.6616473" lon="12.7808815"><ele>202.0</ele><time>2026-03-22T09:07:36.659Z</time></trkpt><trkpt lat="43.661646" lon="12.7807673"><ele>198.66666666666669</ele><time>2026-03-22T09:07:37.667Z</time></trkpt><trkpt lat="43.6616548" lon="12.7806318"><ele>195.33333333333334</ele><time>2026-03-22T09:07:38.658Z</time></trkpt><trkpt lat="43.6616809" lon="12.7805284"><ele>192.0</ele><time>2026-03-22T09:07:39.67Z</time></trkpt><trkpt lat="43.6616495" lon="12.7804523"><ele>192.0</ele><time>2026-03-22T09:07:41.663Z</time></trkpt><trkpt lat="43.6615861" lon="12.780437"><ele>192.0</ele><time>2026-03-22T09:07:42.675Z</time></trkpt><trkpt lat="43.6615109" lon="12.7804121"><ele>192.0</ele><time>2026-03-22T09:07:43.671Z</time></trkpt><trkpt lat="43.6614332" lon="12.7803764"><ele>192.0</ele><time>2026-03-22T09:07:44.666Z</time></trkpt><trkpt lat="43.6613594" lon="12.7803376"><ele>192.0</ele><time>2026-03-22T09:07:45.67Z</time></trkpt><trkpt lat="43.6612972" lon="12.7802918"><ele>192.0</ele><time>2026-03-22T09:07:46.665Z</time></trkpt><trkpt lat="43.6612279" lon="12.7801793"><ele>189.66666666666666</ele><time>2026-03-22T09:07:48.663Z</time></trkpt><trkpt lat="43.6612255" lon="12.7800251"><ele>187.33333333333334</ele><time>2026-03-22T09:07:50.663Z</time></trkpt><trkpt lat="43.6612352" lon="12.7799294"><ele>185.0</ele><time>2026-03-22T09:07:51.664Z</time></trkpt><trkpt lat="43.6612581" lon="12.7798201"><ele>182.66666666666669</ele><time>2026-03-22T09:07:52.662Z</time></trkpt><trkpt lat="43.6612842" lon="12.7797225"><ele>180.33333333333334</ele><time>2026-03-22T09:07:53.667Z</time></trkpt><trkpt lat="43.6613275" lon="12.7795972"><ele>178.0</ele><time>2026-03-22T09:07:55.663Z</time></trkpt><trkpt lat="43.6613923" lon="12.7794752"><ele>178.0</ele><time>2026-03-22T09:07:57.668Z</time></trkpt><trkpt lat="43.6614344" lon="12.7793841"><ele>178.0</ele><time>2026-03-22T09:07:58.663Z</time></trkpt><trkpt lat="43.6614866" lon="12.7792773"><ele>178.0</ele><time>2026-03-22T09:07:59.664Z</time></trkpt><trkpt lat="43.6615404" lon="12.7791692"><ele>178.0</ele><time>2026-03-22T09:08:00.666Z</time></trkpt><trkpt lat="43.66159" lon="12.7790744"><ele>178.0</ele><time>2026-03-22T09:08:01.671Z</time></trkpt><trkpt lat="43.6616347" lon="12.7790017"><ele>178.0</ele><time>2026-03-22T09:08:03.67Z</time></trkpt><trkpt lat="43.6615287" lon="12.7790343"><ele>179.0</ele><time>2026-03-22T09:08:15.658Z</time></trkpt><trkpt lat="43.6614612" lon="12.7790697"><ele>180.0</ele><time>2026-03-22T09:08:16.66Z</time></trkpt><trkpt lat="43.6613995" lon="12.7790948"><ele>181.0</ele><time>2026-03-22T09:08:17.667Z</time></trkpt><trkpt lat="43.6612587" lon="12.7791157"><ele>182.0</ele><time>2026-03-22T09:08:19.666Z</time></trkpt><trkpt lat="43.6611431" lon="12.7791517"><ele>183.0</ele><time>2026-03-22T09:08:20.658Z</time></trkpt><trkpt lat="43.6610003" lon="12.7792267"><ele>183.66666666666666</ele><time>2026-03-22T09:08:21.666Z</time></trkpt><trkpt lat="43.6608489" lon="12.77931"><ele>184.33333333333331</ele><time>2026-03-22T09:08:22.671Z</time></trkpt><trkpt lat="43.6607096" lon="12.7793776"><ele>185.0</ele><time>2026-03-22T09:08:23.662Z</time></trkpt><trkpt lat="43.6605679" lon="12.7794448"><ele>185.5</ele><time>2026-03-22T09:08:24.66Z</time></trkpt><trkpt lat="43.6604345" lon="12.7795076"><ele>186.0</ele><time>2026-03-22T09:08:25.669Z</time></trkpt><trkpt lat="43.6603047" lon="12.7795783"><ele>186.5</ele><time>2026-03-22T09:08:26.67Z</time></trkpt><trkpt lat="43.6601813" lon="12.7796558"><ele>187.0</ele><time>2026-03-22T09:08:27.659Z</time></trkpt><trkpt lat="43.660062" lon="12.779745"><ele>187.0</ele><time>2026-03-22T09:08:28.662Z</time></trkpt><trkpt lat="43.6599466" lon="12.7798478"><ele>187.0</ele><time>2026-03-22T09:08:29.668Z</time></trkpt><trkpt lat="43.6598406" lon="12.7799633"><ele>187.0</ele><time>2026-03-22T09:08:30.665Z</time></trkpt><trkpt lat="43.6597418" lon="12.7801017"><ele>187.0</ele><time>2026-03-22T09:08:31.668Z</time></trkpt><trkpt lat="43.6596605" lon="12.7802432"><ele>186.75</ele><time>2026-03-22T09:08:32.665Z</time></trkpt><trkpt lat="43.6595707" lon="12.7803906"><ele>186.5</ele><time>2026-03-22T09:08:33.676Z</time></trkpt><trkpt lat="43.6594684" lon="12.7805229"><ele>186.25</ele><time>2026-03-22T09:08:34.667Z</time></trkpt><trkpt lat="43.6593577" lon="12.7806529"><ele>186.0</ele><time>2026-03-22T09:08:35.662Z</time></trkpt><trkpt lat="43.659251" lon="12.7807719"><ele>186.25</ele><time>2026-03-22T09:08:36.666Z</time></trkpt><trkpt lat="43.6591477" lon="12.7809021"><ele>186.5</ele><time>2026-03-22T09:08:37.662Z</time></trkpt><trkpt lat="43.6590447" lon="12.7810284"><ele>186.75</ele><time>2026-03-22T09:08:38.671Z</time></trkpt><trkpt lat="43.6589532" lon="12.7811562"><ele>187.0</ele><time>2026-03-22T09:08:39.667Z</time></trkpt><trkpt lat="43.658863" lon="12.781282"><ele>187.0</ele><time>2026-03-22T09:08:40.668Z</time></trkpt><trkpt lat="43.6587679" lon="12.7814118"><ele>187.0</ele><time>2026-03-22T09:08:41.672Z</time></trkpt><trkpt lat="43.6586719" lon="12.7815409"><ele>187.0</ele><time>2026-03-22T09:08:42.672Z</time></trkpt><trkpt lat="43.6585724" lon="12.7816603"><ele>187.0</ele><time>2026-03-22T09:08:43.669Z</time></trkpt><trkpt lat="43.6584669" lon="12.7817859"><ele>188.0</ele><time>2026-03-22T09:08:44.672Z</time></trkpt><trkpt lat="43.6583481" lon="12.7819103"><ele>189.0</ele><time>2026-03-22T09:08:45.675Z</time></trkpt><trkpt lat="43.6582246" lon="12.7820278"><ele>190.0</ele><time>2026-03-22T09:08:46.672Z</time></trkpt><trkpt lat="43.6580971" lon="12.7821551"><ele>190.0</ele><time>2026-03-22T09:08:47.668Z</time></trkpt><trkpt lat="43.6579776" lon="12.7822776"><ele>190.0</ele><time>2026-03-22T09:08:48.664Z</time></trkpt><trkpt lat="43.6578582" lon="12.7824046"><ele>190.0</ele><time>2026-03-22T09:08:49.667Z</time></trkpt><trkpt lat="43.6577358" lon="12.7825166"><ele>190.0</ele><time>2026-03-22T09:08:50.665Z</time></trkpt><trkpt lat="43.6576114" lon="12.7826378"><ele>191.75</ele><time>2026-03-22T09:08:51.662Z</time></trkpt><trkpt lat="43.6574926" lon="12.7827771"><ele>193.5</ele><time>2026-03-22T09:08:52.656Z</time></trkpt><trkpt lat="43.6573866" lon="12.7829005"><ele>195.25</ele><time>2026-03-22T09:08:53.677Z</time></trkpt><trkpt lat="43.6572863" lon="12.7830527"><ele>197.0</ele><time>2026-03-22T09:08:54.65Z</time></trkpt><trkpt lat="43.6572038" lon="12.7831641"><ele>197.0</ele><time>2026-03-22T09:08:55.668Z</time></trkpt><trkpt lat="43.6571077" lon="12.7833023"><ele>197.0</ele><time>2026-03-22T09:08:56.662Z</time></trkpt><trkpt lat="43.6569987" lon="12.7834322"><ele>197.0</ele><time>2026-03-22T09:08:57.666Z</time></trkpt><trkpt lat="43.6568903" lon="12.7835479"><ele>197.0</ele><time>2026-03-22T09:08:58.651Z</time></trkpt><trkpt lat="43.6567981" lon="12.7836415"><ele>197.0</ele><time>2026-03-22T09:08:59.65Z</time></trkpt><trkpt lat="43.6567001" lon="12.783751"><ele>197.0</ele><time>2026-03-22T09:09:00.666Z</time></trkpt><trkpt lat="43.6565725" lon="12.783901"><ele>197.0</ele><time>2026-03-22T09:09:01.654Z</time></trkpt><trkpt lat="43.656451" lon="12.7840489"><ele>197.0</ele><time>2026-03-22T09:09:02.649Z</time></trkpt><trkpt lat="43.6563687" lon="12.7841548"><ele>197.0</ele><time>2026-03-22T09:09:03.658Z</time></trkpt><trkpt lat="43.6562564" lon="12.78429"><ele>197.0</ele><time>2026-03-22T09:09:04.65Z</time></trkpt><trkpt lat="43.6561225" lon="12.7844602"><ele>197.0</ele><time>2026-03-22T09:09:05.655Z</time></trkpt><trkpt lat="43.6560205" lon="12.7846398"><ele>197.0</ele><time>2026-03-22T09:09:06.659Z</time></trkpt><trkpt lat="43.6559014" lon="12.7848142"><ele>197.0</ele><time>2026-03-22T09:09:07.66Z</time></trkpt><trkpt lat="43.6557696" lon="12.7849887"><ele>197.0</ele><time>2026-03-22T09:09:08.671Z</time></trkpt><trkpt lat="43.6556457" lon="12.7851465"><ele>198.33333333333334</ele><time>2026-03-22T09:09:09.664Z</time></trkpt><trkpt lat="43.655524" lon="12.7853101"><ele>199.66666666666669</ele><time>2026-03-22T09:09:10.67Z</time></trkpt><trkpt lat="43.6554135" lon="12.7854836"><ele>201.0</ele><time>2026-03-22T09:09:11.665Z</time></trkpt><trkpt lat="43.6553134" lon="12.7856575"><ele>203.33333333333331</ele><time>2026-03-22T09:09:12.673Z</time></trkpt><trkpt lat="43.6552147" lon="12.7858305"><ele>205.66666666666666</ele><time>2026-03-22T09:09:13.676Z</time></trkpt><trkpt lat="43.6551107" lon="12.7859979"><ele>208.0</ele><time>2026-03-22T09:09:14.67Z</time></trkpt><trkpt lat="43.6550071" lon="12.7861541"><ele>208.66666666666666</ele><time>2026-03-22T09:09:15.68Z</time></trkpt><trkpt lat="43.6549135" lon="12.7863158"><ele>209.33333333333331</ele><time>2026-03-22T09:09:16.67Z</time></trkpt><trkpt lat="43.6548038" lon="12.7864795"><ele>210.0</ele><time>2026-03-22T09:09:17.67Z</time></trkpt><trkpt lat="43.6547002" lon="12.7866394"><ele>210.0</ele><time>2026-03-22T09:09:18.675Z</time></trkpt><trkpt lat="43.6545945" lon="12.7868052"><ele>210.0</ele><time>2026-03-22T09:09:19.668Z</time></trkpt><trkpt lat="43.6545008" lon="12.7869746"><ele>210.0</ele><time>2026-03-22T09:09:20.671Z</time></trkpt><trkpt lat="43.6544021" lon="12.7871386"><ele>214.0</ele><time>2026-03-22T09:09:21.674Z</time></trkpt><trkpt lat="43.6543079" lon="12.7873"><ele>218.0</ele><time>2026-03-22T09:09:22.67Z</time></trkpt><trkpt lat="43.6542057" lon="12.7874617"><ele>222.0</ele><time>2026-03-22T09:09:23.673Z</time></trkpt><trkpt lat="43.6541052" lon="12.7876314"><ele>220.33333333333331</ele><time>2026-03-22T09:09:24.673Z</time></trkpt><trkpt lat="43.6540094" lon="12.7877971"><ele>218.66666666666666</ele><time>2026-03-22T09:09:25.663Z</time></trkpt><trkpt lat="43.6539094" lon="12.7879565"><ele>217.0</ele><time>2026-03-22T09:09:26.667Z</time></trkpt><trkpt lat="43.6538109" lon="12.7881294"><ele>217.0</ele><time>2026-03-22T09:09:27.667Z</time></trkpt><trkpt lat="43.6537008" lon="12.7882847"><ele>217.0</ele><time>2026-03-22T09:09:28.663Z</time></trkpt><trkpt lat="43.6535953" lon="12.7884378"><ele>217.0</ele><time>2026-03-22T09:09:29.666Z</time></trkpt><trkpt lat="43.6535034" lon="12.7886071"><ele>220.66666666666666</ele><time>2026-03-22T09:09:30.663Z</time></trkpt><trkpt lat="43.6534083" lon="12.7887653"><ele>224.33333333333331</ele><time>2026-03-22T09:09:31.663Z</time></trkpt><trkpt lat="43.6533038" lon="12.7889302"><ele>228.0</ele><time>2026-03-22T09:09:32.658Z</time></trkpt><trkpt lat="43.653203" lon="12.7890902"><ele>228.0</ele><time>2026-03-22T09:09:33.663Z</time></trkpt><trkpt lat="43.6531045" lon="12.7892458"><ele>228.0</ele><time>2026-03-22T09:09:34.651Z</time></trkpt><trkpt lat="43.6530048" lon="12.7893796"><ele>228.0</ele><time>2026-03-22T09:09:35.654Z</time></trkpt><trkpt lat="43.6529131" lon="12.7895267"><ele>228.0</ele><time>2026-03-22T09:09:36.648Z</time></trkpt><trkpt lat="43.6528253" lon="12.789696"><ele>228.25</ele><time>2026-03-22T09:09:37.647Z</time></trkpt><trkpt lat="43.6527367" lon="12.7898583"><ele>228.5</ele><time>2026-03-22T09:09:38.651Z</time></trkpt><trkpt lat="43.6526317" lon="12.7899994"><ele>228.75</ele><time>2026-03-22T09:09:39.652Z</time></trkpt><trkpt lat="43.6525393" lon="12.7901329"><ele>229.0</ele><time>2026-03-22T09:09:40.652Z</time></trkpt><trkpt lat="43.652435" lon="12.7902538"><ele>229.0</ele><time>2026-03-22T09:09:41.655Z</time></trkpt><trkpt lat="43.6523272" lon="12.790356"><ele>229.0</ele><time>2026-03-22T09:09:42.651Z</time></trkpt><trkpt lat="43.6522721" lon="12.7905187"><ele>229.0</ele><time>2026-03-22T09:09:43.655Z</time></trkpt><trkpt lat="43.6521693" lon="12.7905693"><ele>229.0</ele><time>2026-03-22T09:09:44.649Z</time></trkpt><trkpt lat="43.6520467" lon="12.7905979"><ele>232.5</ele><time>2026-03-22T09:09:45.65Z</time></trkpt><trkpt lat="43.651922" lon="12.790643"><ele>236.0</ele><time>2026-03-22T09:09:46.66Z</time></trkpt><trkpt lat="43.6517843" lon="12.790652"><ele>239.5</ele><time>2026-03-22T09:09:47.645Z</time></trkpt><trkpt lat="43.6516546" lon="12.7906967"><ele>243.0</ele><time>2026-03-22T09:09:48.651Z</time></trkpt><trkpt lat="43.6515191" lon="12.7907482"><ele>243.0</ele><time>2026-03-22T09:09:49.652Z</time></trkpt><trkpt lat="43.6513782" lon="12.7908189"><ele>243.0</ele><time>2026-03-22T09:09:50.649Z</time></trkpt><trkpt lat="43.6512532" lon="12.7908845"><ele>243.0</ele><time>2026-03-22T09:09:51.649Z</time></trkpt><trkpt lat="43.6511456" lon="12.7909271"><ele>243.0</ele><time>2026-03-22T09:09:52.66Z</time></trkpt><trkpt lat="43.6510654" lon="12.7908933"><ele>244.25</ele><time>2026-03-22T09:09:53.665Z</time></trkpt><trkpt lat="43.6509838" lon="12.7907924"><ele>245.5</ele><time>2026-03-22T09:09:54.661Z</time></trkpt><trkpt lat="43.650911" lon="12.790677"><ele>246.75</ele><time>2026-03-22T09:09:55.655Z</time></trkpt><trkpt lat="43.6508246" lon="12.7905655"><ele>248.0</ele><time>2026-03-22T09:09:56.658Z</time></trkpt><trkpt lat="43.6507245" lon="12.790472"><ele>248.0</ele><time>2026-03-22T09:09:57.652Z</time></trkpt><trkpt lat="43.6506151" lon="12.7903956"><ele>248.0</ele><time>2026-03-22T09:09:58.656Z</time></trkpt><trkpt lat="43.6504948" lon="12.7903282"><ele>248.0</ele><time>2026-03-22T09:09:59.671Z</time></trkpt><trkpt lat="43.6503639" lon="12.7902524"><ele>248.0</ele><time>2026-03-22T09:10:00.671Z</time></trkpt><trkpt lat="43.6502247" lon="12.7901892"><ele>248.0</ele><time>2026-03-22T09:10:01.67Z</time></trkpt><trkpt lat="43.6500722" lon="12.7901421"><ele>248.0</ele><time>2026-03-22T09:10:02.675Z</time></trkpt><trkpt lat="43.6499063" lon="12.7901539"><ele>248.0</ele><time>2026-03-22T09:10:03.684Z</time></trkpt><trkpt lat="43.6497382" lon="12.7902055"><ele>247.0</ele><time>2026-03-22T09:10:04.672Z</time></trkpt><trkpt lat="43.649573" lon="12.7902317"><ele>246.0</ele><time>2026-03-22T09:10:05.675Z</time></trkpt><trkpt lat="43.6494105" lon="12.7902487"><ele>245.0</ele><time>2026-03-22T09:10:06.676Z</time></trkpt><trkpt lat="43.6492671" lon="12.7902351"><ele>247.0</ele><time>2026-03-22T09:10:07.687Z</time></trkpt><trkpt lat="43.6491109" lon="12.7901468"><ele>249.0</ele><time>2026-03-22T09:10:08.674Z</time></trkpt><trkpt lat="43.6489686" lon="12.79006"><ele>251.0</ele><time>2026-03-22T09:10:09.679Z</time></trkpt><trkpt lat="43.64883" lon="12.7899831"><ele>251.0</ele><time>2026-03-22T09:10:10.68Z</time></trkpt><trkpt lat="43.6486953" lon="12.7899141"><ele>251.0</ele><time>2026-03-22T09:10:11.681Z</time></trkpt><trkpt lat="43.6485557" lon="12.7898557"><ele>251.0</ele><time>2026-03-22T09:10:12.683Z</time></trkpt><trkpt lat="43.6484264" lon="12.7897991"><ele>251.0</ele><time>2026-03-22T09:10:13.685Z</time></trkpt><trkpt lat="43.6482848" lon="12.7897577"><ele>252.5</ele><time>2026-03-22T09:10:14.684Z</time></trkpt><trkpt lat="43.6481521" lon="12.7897598"><ele>254.0</ele><time>2026-03-22T09:10:15.682Z</time></trkpt><trkpt lat="43.6480204" lon="12.7897918"><ele>255.5</ele><time>2026-03-22T09:10:16.679Z</time></trkpt><trkpt lat="43.6478732" lon="12.7898299"><ele>257.0</ele><time>2026-03-22T09:10:17.678Z</time></trkpt><trkpt lat="43.6477288" lon="12.7898839"><ele>259.33333333333337</ele><time>2026-03-22T09:10:18.679Z</time></trkpt><trkpt lat="43.6475793" lon="12.789943"><ele>261.6666666666667</ele><time>2026-03-22T09:10:19.676Z</time></trkpt><trkpt lat="43.647435" lon="12.7900346"><ele>264.0</ele><time>2026-03-22T09:10:20.68Z</time></trkpt><trkpt lat="43.6473132" lon="12.7901377"><ele>262.25</ele><time>2026-03-22T09:10:21.676Z</time></trkpt><trkpt lat="43.6472016" lon="12.7902672"><ele>260.5</ele><time>2026-03-22T09:10:22.678Z</time></trkpt><trkpt lat="43.6470979" lon="12.7904003"><ele>258.75</ele><time>2026-03-22T09:10:23.678Z</time></trkpt><trkpt lat="43.646993" lon="12.7905451"><ele>257.0</ele><time>2026-03-22T09:10:24.67Z</time></trkpt><trkpt lat="43.6468894" lon="12.790661"><ele>257.0</ele><time>2026-03-22T09:10:25.674Z</time></trkpt><trkpt lat="43.6467842" lon="12.790736"><ele>257.0</ele><time>2026-03-22T09:10:26.677Z</time></trkpt><trkpt lat="43.6466516" lon="12.790786"><ele>257.0</ele><time>2026-03-22T09:10:27.668Z</time></trkpt><trkpt lat="43.6465408" lon="12.7908097"><ele>257.0</ele><time>2026-03-22T09:10:28.674Z</time></trkpt><trkpt lat="43.6464305" lon="12.7908048"><ele>257.0</ele><time>2026-03-22T09:10:29.676Z</time></trkpt><trkpt lat="43.6463372" lon="12.7907679"><ele>257.0</ele><time>2026-03-22T09:10:30.67Z</time></trkpt><trkpt lat="43.6462083" lon="12.7907006"><ele>257.0</ele><time>2026-03-22T09:10:31.676Z</time></trkpt><trkpt lat="43.6460634" lon="12.7906713"><ele>257.0</ele><time>2026-03-22T09:10:32.678Z</time></trkpt><trkpt lat="43.6458925" lon="12.7906878"><ele>256.0</ele><time>2026-03-22T09:10:33.679Z</time></trkpt><trkpt lat="43.6457238" lon="12.7907146"><ele>255.0</ele><time>2026-03-22T09:10:34.674Z</time></trkpt><trkpt lat="43.6455622" lon="12.7908024"><ele>254.0</ele><time>2026-03-22T09:10:35.677Z</time></trkpt><trkpt lat="43.6454085" lon="12.7909091"><ele>253.5</ele><time>2026-03-22T09:10:36.661Z</time></trkpt><trkpt lat="43.6452627" lon="12.7910052"><ele>253.0</ele><time>2026-03-22T09:10:37.658Z</time></trkpt><trkpt lat="43.645126" lon="12.7910595"><ele>252.5</ele><time>2026-03-22T09:10:38.67Z</time></trkpt><trkpt lat="43.6450149" lon="12.7911391"><ele>252.0</ele><time>2026-03-22T09:10:39.659Z</time></trkpt><trkpt lat="43.6448799" lon="12.791192"><ele>252.0</ele><time>2026-03-22T09:10:40.661Z</time></trkpt><trkpt lat="43.6447487" lon="12.7912576"><ele>252.0</ele><time>2026-03-22T09:10:41.657Z</time></trkpt><trkpt lat="43.6446015" lon="12.7913318"><ele>252.0</ele><time>2026-03-22T09:10:42.658Z</time></trkpt><trkpt lat="43.6444408" lon="12.7914144"><ele>254.33333333333331</ele><time>2026-03-22T09:10:43.667Z</time></trkpt><trkpt lat="43.6442842" lon="12.7915201"><ele>256.66666666666663</ele><time>2026-03-22T09:10:44.663Z</time></trkpt><trkpt lat="43.6441445" lon="12.7916283"><ele>259.0</ele><time>2026-03-22T09:10:45.661Z</time></trkpt><trkpt lat="43.6440173" lon="12.7917282"><ele>259.0</ele><time>2026-03-22T09:10:46.658Z</time></trkpt><trkpt lat="43.6439022" lon="12.7918359"><ele>259.0</ele><time>2026-03-22T09:10:47.664Z</time></trkpt><trkpt lat="43.6437938" lon="12.7919698"><ele>259.0</ele><time>2026-03-22T09:10:48.681Z</time></trkpt><trkpt lat="43.6436952" lon="12.7920961"><ele>259.0</ele><time>2026-03-22T09:10:49.661Z</time></trkpt><trkpt lat="43.6436025" lon="12.7922435"><ele>260.25</ele><time>2026-03-22T09:10:50.662Z</time></trkpt><trkpt lat="43.6435365" lon="12.7924048"><ele>261.5</ele><time>2026-03-22T09:10:51.665Z</time></trkpt><trkpt lat="43.6434798" lon="12.7925752"><ele>262.75</ele><time>2026-03-22T09:10:52.671Z</time></trkpt><trkpt lat="43.6434513" lon="12.7927494"><ele>264.0</ele><time>2026-03-22T09:10:53.666Z</time></trkpt><trkpt lat="43.6433989" lon="12.7928974"><ele>264.0</ele><time>2026-03-22T09:10:54.671Z</time></trkpt><trkpt lat="43.6433316" lon="12.7930272"><ele>264.0</ele><time>2026-03-22T09:10:55.669Z</time></trkpt><trkpt lat="43.6432162" lon="12.7931445"><ele>264.0</ele><time>2026-03-22T09:10:56.675Z</time></trkpt><trkpt lat="43.6431053" lon="12.7932174"><ele>264.0</ele><time>2026-03-22T09:10:57.663Z</time></trkpt><trkpt lat="43.642994" lon="12.7932725"><ele>264.0</ele><time>2026-03-22T09:10:58.662Z</time></trkpt><trkpt lat="43.6428785" lon="12.7933182"><ele>264.0</ele><time>2026-03-22T09:10:59.662Z</time></trkpt><trkpt lat="43.642758" lon="12.7934032"><ele>264.0</ele><time>2026-03-22T09:11:00.666Z</time></trkpt><trkpt lat="43.6426385" lon="12.7935147"><ele>264.0</ele><time>2026-03-22T09:11:01.666Z</time></trkpt><trkpt lat="43.642542" lon="12.7936472"><ele>265.6666666666667</ele><time>2026-03-22T09:11:02.67Z</time></trkpt><trkpt lat="43.6424558" lon="12.7938275"><ele>267.33333333333337</ele><time>2026-03-22T09:11:03.672Z</time></trkpt><trkpt lat="43.6423776" lon="12.7940186"><ele>269.0</ele><time>2026-03-22T09:11:04.679Z</time></trkpt><trkpt lat="43.6422964" lon="12.7942176"><ele>268.75</ele><time>2026-03-22T09:11:05.667Z</time></trkpt><trkpt lat="43.6422189" lon="12.7944266"><ele>268.5</ele><time>2026-03-22T09:11:06.664Z</time></trkpt><trkpt lat="43.642172" lon="12.7946056"><ele>268.25</ele><time>2026-03-22T09:11:07.667Z</time></trkpt><trkpt lat="43.6421059" lon="12.794767"><ele>268.0</ele><time>2026-03-22T09:11:08.671Z</time></trkpt><trkpt lat="43.6419931" lon="12.7948832"><ele>269.0</ele><time>2026-03-22T09:11:09.674Z</time></trkpt><trkpt lat="43.6418335" lon="12.7949525"><ele>270.0</ele><time>2026-03-22T09:11:10.668Z</time></trkpt><trkpt lat="43.6416728" lon="12.7949987"><ele>271.0</ele><time>2026-03-22T09:11:11.665Z</time></trkpt><trkpt lat="43.64153" lon="12.7950591"><ele>271.0</ele><time>2026-03-22T09:11:12.671Z</time></trkpt><trkpt lat="43.6413832" lon="12.7951204"><ele>271.0</ele><time>2026-03-22T09:11:13.671Z</time></trkpt><trkpt lat="43.641229" lon="12.7951591"><ele>271.0</ele><time>2026-03-22T09:11:14.663Z</time></trkpt><trkpt lat="43.6410853" lon="12.7952105"><ele>272.75</ele><time>2026-03-22T09:11:15.673Z</time></trkpt><trkpt lat="43.6409593" lon="12.7952694"><ele>274.5</ele><time>2026-03-22T09:11:16.677Z</time></trkpt><trkpt lat="43.6408317" lon="12.7953424"><ele>276.25</ele><time>2026-03-22T09:11:17.676Z</time></trkpt><trkpt lat="43.6407231" lon="12.7954376"><ele>278.0</ele><time>2026-03-22T09:11:18.686Z</time></trkpt><trkpt lat="43.640616" lon="12.795538"><ele>278.0</ele><time>2026-03-22T09:11:19.677Z</time></trkpt><trkpt lat="43.640511" lon="12.7956495"><ele>278.0</ele><time>2026-03-22T09:11:20.677Z</time></trkpt><trkpt lat="43.6404058" lon="12.795768"><ele>278.0</ele><time>2026-03-22T09:11:21.675Z</time></trkpt><trkpt lat="43.6402989" lon="12.7959002"><ele>278.0</ele><time>2026-03-22T09:11:22.682Z</time></trkpt><trkpt lat="43.6402039" lon="12.7960462"><ele>279.0</ele><time>2026-03-22T09:11:23.679Z</time></trkpt><trkpt lat="43.6401091" lon="12.7961909"><ele>280.0</ele><time>2026-03-22T09:11:24.676Z</time></trkpt><trkpt lat="43.6400287" lon="12.7963754"><ele>281.0</ele><time>2026-03-22T09:11:25.663Z</time></trkpt><trkpt lat="43.6399434" lon="12.7964934"><ele>282.0</ele><time>2026-03-22T09:11:26.669Z</time></trkpt><trkpt lat="43.6398816" lon="12.796669"><ele>283.0</ele><time>2026-03-22T09:11:27.669Z</time></trkpt><trkpt lat="43.6398139" lon="12.7968533"><ele>284.0</ele><time>2026-03-22T09:11:28.651Z</time></trkpt><trkpt lat="43.6397529" lon="12.7971937"><ele>285.0</ele><time>2026-03-22T09:11:29.648Z</time></trkpt><trkpt lat="43.6397226" lon="12.7975853"><ele>287.6666666666667</ele><time>2026-03-22T09:11:30.645Z</time></trkpt><trkpt lat="43.6396663" lon="12.797967"><ele>290.33333333333337</ele><time>2026-03-22T09:11:31.645Z</time></trkpt><trkpt lat="43.6397376" lon="12.7980128"><ele>293.0</ele><time>2026-03-22T09:11:32.642Z</time></trkpt><trkpt lat="43.6396861" lon="12.7981954"><ele>293.0</ele><time>2026-03-22T09:11:33.651Z</time></trkpt><trkpt lat="43.6397116" lon="12.798462"><ele>293.0</ele><time>2026-03-22T09:11:34.645Z</time></trkpt><trkpt lat="43.639672" lon="12.7986334"><ele>293.0</ele><time>2026-03-22T09:11:35.643Z</time></trkpt><trkpt lat="43.6396127" lon="12.7987474"><ele>293.0</ele><time>2026-03-22T09:11:36.634Z</time></trkpt><trkpt lat="43.6396341" lon="12.799022"><ele>302.0</ele><time>2026-03-22T09:11:37.643Z</time></trkpt><trkpt lat="43.6396283" lon="12.7993963"><ele>311.0</ele><time>2026-03-22T09:11:38.655Z</time></trkpt><trkpt lat="43.6395315" lon="12.7997112"><ele>309.33333333333337</ele><time>2026-03-22T09:11:39.658Z</time></trkpt><trkpt lat="43.6393408" lon="12.7997418"><ele>307.6666666666667</ele><time>2026-03-22T09:11:40.658Z</time></trkpt><trkpt lat="43.6391237" lon="12.7997573"><ele>306.0</ele><time>2026-03-22T09:11:41.663Z</time></trkpt><trkpt lat="43.6389475" lon="12.7998077"><ele>306.0</ele><time>2026-03-22T09:11:42.663Z</time></trkpt><trkpt lat="43.6387999" lon="12.7996898"><ele>306.0</ele><time>2026-03-22T09:11:43.679Z</time></trkpt><trkpt lat="43.6387064" lon="12.7995643"><ele>306.0</ele><time>2026-03-22T09:11:44.67Z</time></trkpt><trkpt lat="43.6384731" lon="12.7994509"><ele>306.25</ele><time>2026-03-22T09:11:45.672Z</time></trkpt><trkpt lat="43.6383243" lon="12.7994286"><ele>306.5</ele><time>2026-03-22T09:11:46.676Z</time></trkpt><trkpt lat="43.6382326" lon="12.7993873"><ele>306.75</ele><time>2026-03-22T09:11:47.671Z</time></trkpt><trkpt lat="43.6381279" lon="12.7993759"><ele>307.0</ele><time>2026-03-22T09:11:48.668Z</time></trkpt><trkpt lat="43.6380021" lon="12.7993007"><ele>307.25</ele><time>2026-03-22T09:11:49.672Z</time></trkpt><trkpt lat="43.6378782" lon="12.7992172"><ele>307.5</ele><time>2026-03-22T09:11:50.673Z</time></trkpt><trkpt lat="43.6377242" lon="12.7991528"><ele>307.75</ele><time>2026-03-22T09:11:51.68Z</time></trkpt><trkpt lat="43.6376028" lon="12.7990966"><ele>308.0</ele><time>2026-03-22T09:11:52.672Z</time></trkpt><trkpt lat="43.6375109" lon="12.7990208"><ele>308.0</ele><time>2026-03-22T09:11:53.68Z</time></trkpt><trkpt lat="43.6374224" lon="12.7989474"><ele>308.0</ele><time>2026-03-22T09:11:54.686Z</time></trkpt><trkpt lat="43.6373331" lon="12.7988506"><ele>308.0</ele><time>2026-03-22T09:11:55.684Z</time></trkpt><trkpt lat="43.6372541" lon="12.7987524"><ele>308.0</ele><time>2026-03-22T09:11:56.683Z</time></trkpt><trkpt lat="43.6371613" lon="12.7986715"><ele>308.0</ele><time>2026-03-22T09:11:57.681Z</time></trkpt><trkpt lat="43.6370568" lon="12.7986107"><ele>307.25</ele><time>2026-03-22T09:11:58.692Z</time></trkpt><trkpt lat="43.6369316" lon="12.798601"><ele>306.5</ele><time>2026-03-22T09:11:59.67Z</time></trkpt><trkpt lat="43.6368129" lon="12.7986224"><ele>305.75</ele><time>2026-03-22T09:12:00.673Z</time></trkpt><trkpt lat="43.6366764" lon="12.7986516"><ele>305.0</ele><time>2026-03-22T09:12:01.68Z</time></trkpt><trkpt lat="43.6365585" lon="12.7986425"><ele>305.0</ele><time>2026-03-22T09:12:02.67Z</time></trkpt><trkpt lat="43.6364489" lon="12.7986499"><ele>305.0</ele><time>2026-03-22T09:12:03.687Z</time></trkpt><trkpt lat="43.6363438" lon="12.7986453"><ele>305.0</ele><time>2026-03-22T09:12:04.663Z</time></trkpt><trkpt lat="43.6362243" lon="12.7986535"><ele>305.0</ele><time>2026-03-22T09:12:05.663Z</time></trkpt><trkpt lat="43.6360948" lon="12.7986334"><ele>303.33333333333337</ele><time>2026-03-22T09:12:06.658Z</time></trkpt><trkpt lat="43.6359774" lon="12.7986169"><ele>301.6666666666667</ele><time>2026-03-22T09:12:07.663Z</time></trkpt><trkpt lat="43.6358317" lon="12.7986365"><ele>300.0</ele><time>2026-03-22T09:12:08.667Z</time></trkpt><trkpt lat="43.6356421" lon="12.7986644"><ele>300.0</ele><time>2026-03-22T09:12:09.672Z</time></trkpt><trkpt lat="43.6354658" lon="12.7986335"><ele>300.0</ele><time>2026-03-22T09:12:10.664Z</time></trkpt><trkpt lat="43.6353099" lon="12.7985793"><ele>300.0</ele><time>2026-03-22T09:12:11.674Z</time></trkpt><trkpt lat="43.6351203" lon="12.7985225"><ele>299.0</ele><time>2026-03-22T09:12:12.67Z</time></trkpt><trkpt lat="43.6349419" lon="12.7985117"><ele>298.0</ele><time>2026-03-22T09:12:13.671Z</time></trkpt><trkpt lat="43.6347711" lon="12.7985671"><ele>297.0</ele><time>2026-03-22T09:12:14.666Z</time></trkpt><trkpt lat="43.6346153" lon="12.7986175"><ele>298.6666666666667</ele><time>2026-03-22T09:12:15.668Z</time></trkpt><trkpt lat="43.6344558" lon="12.7986595"><ele>300.33333333333337</ele><time>2026-03-22T09:12:16.671Z</time></trkpt><trkpt lat="43.6342967" lon="12.7987097"><ele>302.0</ele><time>2026-03-22T09:12:17.674Z</time></trkpt><trkpt lat="43.6341625" lon="12.7987844"><ele>302.0</ele><time>2026-03-22T09:12:18.669Z</time></trkpt><trkpt lat="43.6340521" lon="12.798825"><ele>302.0</ele><time>2026-03-22T09:12:19.678Z</time></trkpt><trkpt lat="43.6339558" lon="12.7988234"><ele>302.0</ele><time>2026-03-22T09:12:20.682Z</time></trkpt><trkpt lat="43.6338202" lon="12.7987988"><ele>302.0</ele><time>2026-03-22T09:12:21.671Z</time></trkpt><trkpt lat="43.6336843" lon="12.798763"><ele>302.25</ele><time>2026-03-22T09:12:22.67Z</time></trkpt><trkpt lat="43.6335538" lon="12.7987052"><ele>302.5</ele><time>2026-03-22T09:12:23.665Z</time></trkpt><trkpt lat="43.6334243" lon="12.7986421"><ele>302.75</ele><time>2026-03-22T09:12:24.663Z</time></trkpt><trkpt lat="43.6333097" lon="12.7985686"><ele>303.0</ele><time>2026-03-22T09:12:25.657Z</time></trkpt><trkpt lat="43.6331924" lon="12.7984933"><ele>308.8</ele><time>2026-03-22T09:12:26.663Z</time></trkpt><trkpt lat="43.6330844" lon="12.7984124"><ele>314.6</ele><time>2026-03-22T09:12:27.679Z</time></trkpt><trkpt lat="43.6329856" lon="12.7983531"><ele>320.40000000000003</ele><time>2026-03-22T09:12:28.67Z</time></trkpt><trkpt lat="43.6328978" lon="12.7982973"><ele>326.20000000000005</ele><time>2026-03-22T09:12:29.695Z</time></trkpt><trkpt lat="43.6328252" lon="12.7982263"><ele>332.0</ele><time>2026-03-22T09:12:30.684Z</time></trkpt><trkpt lat="43.6328098" lon="12.7980952"><ele>332.0</ele><time>2026-03-22T09:12:31.684Z</time></trkpt><trkpt lat="43.6328126" lon="12.7979424"><ele>332.0</ele><time>2026-03-22T09:12:32.673Z</time></trkpt><trkpt lat="43.6328286" lon="12.7977958"><ele>332.0</ele><time>2026-03-22T09:12:33.675Z</time></trkpt><trkpt lat="43.6328469" lon="12.7976391"><ele>332.0</ele><time>2026-03-22T09:12:34.672Z</time></trkpt><trkpt lat="43.6328548" lon="12.797489"><ele>332.0</ele><time>2026-03-22T09:12:35.674Z</time></trkpt><trkpt lat="43.6328463" lon="12.797343"><ele>331.5</ele><time>2026-03-22T09:12:36.672Z</time></trkpt><trkpt lat="43.6328214" lon="12.7972093"><ele>331.0</ele><time>2026-03-22T09:12:37.675Z</time></trkpt><trkpt lat="43.6327527" lon="12.797058"><ele>330.5</ele><time>2026-03-22T09:12:38.672Z</time></trkpt><trkpt lat="43.6326637" lon="12.7969086"><ele>330.0</ele><time>2026-03-22T09:12:39.679Z</time></trkpt><trkpt lat="43.6325798" lon="12.7967416"><ele>331.25</ele><time>2026-03-22T09:12:40.686Z</time></trkpt><trkpt lat="43.6325098" lon="12.7965671"><ele>332.5</ele><time>2026-03-22T09:12:41.688Z</time></trkpt><trkpt lat="43.6324607" lon="12.7963993"><ele>333.75</ele><time>2026-03-22T09:12:42.688Z</time></trkpt><trkpt lat="43.6324141" lon="12.7962606"><ele>335.0</ele><time>2026-03-22T09:12:43.687Z</time></trkpt><trkpt lat="43.6323911" lon="12.7961535"><ele>335.6</ele><time>2026-03-22T09:12:44.691Z</time></trkpt><trkpt lat="43.6324221" lon="12.7959896"><ele>336.2</ele><time>2026-03-22T09:12:46.685Z</time></trkpt><trkpt lat="43.6324554" lon="12.795877"><ele>336.79999999999995</ele><time>2026-03-22T09:12:47.686Z</time></trkpt><trkpt lat="43.6324868" lon="12.7957466"><ele>337.4</ele><time>2026-03-22T09:12:48.689Z</time></trkpt><trkpt lat="43.6325018" lon="12.7956149"><ele>338.0</ele><time>2026-03-22T09:12:49.681Z</time></trkpt><trkpt lat="43.6325112" lon="12.7954759"><ele>338.0</ele><time>2026-03-22T09:12:50.677Z</time></trkpt><trkpt lat="43.6324948" lon="12.7953265"><ele>338.0</ele><time>2026-03-22T09:12:51.688Z</time></trkpt><trkpt lat="43.6324503" lon="12.7951698"><ele>338.0</ele><time>2026-03-22T09:12:52.68Z</time></trkpt><trkpt lat="43.632389" lon="12.7950247"><ele>338.0</ele><time>2026-03-22T09:12:53.679Z</time></trkpt><trkpt lat="43.632325" lon="12.7948908"><ele>340.0</ele><time>2026-03-22T09:12:54.682Z</time></trkpt><trkpt lat="43.6322521" lon="12.7947641"><ele>342.0</ele><time>2026-03-22T09:12:55.678Z</time></trkpt><trkpt lat="43.6321731" lon="12.7946414"><ele>344.0</ele><time>2026-03-22T09:12:56.682Z</time></trkpt><trkpt lat="43.6320918" lon="12.7945361"><ele>346.0</ele><time>2026-03-22T09:12:57.679Z</time></trkpt><trkpt lat="43.6319987" lon="12.7944378"><ele>343.0</ele><time>2026-03-22T09:12:58.683Z</time></trkpt><trkpt lat="43.6319011" lon="12.7943397"><ele>340.0</ele><time>2026-03-22T09:12:59.686Z</time></trkpt><trkpt lat="43.6318058" lon="12.7942422"><ele>337.0</ele><time>2026-03-22T09:13:00.695Z</time></trkpt><trkpt lat="43.631728" lon="12.7941318"><ele>334.0</ele><time>2026-03-22T09:13:01.688Z</time></trkpt><trkpt lat="43.631659" lon="12.7940276"><ele>334.0</ele><time>2026-03-22T09:13:02.675Z</time></trkpt><trkpt lat="43.6315949" lon="12.793926"><ele>334.0</ele><time>2026-03-22T09:13:03.684Z</time></trkpt><trkpt lat="43.6315379" lon="12.7938147"><ele>334.0</ele><time>2026-03-22T09:13:04.687Z</time></trkpt><trkpt lat="43.6314899" lon="12.7937051"><ele>334.0</ele><time>2026-03-22T09:13:05.685Z</time></trkpt><trkpt lat="43.6314335" lon="12.793595"><ele>334.0</ele><time>2026-03-22T09:13:06.687Z</time></trkpt><trkpt lat="43.6313804" lon="12.7934766"><ele>334.4</ele><time>2026-03-22T09:13:07.693Z</time></trkpt><trkpt lat="43.6313173" lon="12.7933483"><ele>334.79999999999995</ele><time>2026-03-22T09:13:08.684Z</time></trkpt><trkpt lat="43.6312559" lon="12.7932233"><ele>335.20000000000005</ele><time>2026-03-22T09:13:09.691Z</time></trkpt><trkpt lat="43.6311941" lon="12.7931033"><ele>335.6</ele><time>2026-03-22T09:13:10.695Z</time></trkpt><trkpt lat="43.6311318" lon="12.7929792"><ele>336.0</ele><time>2026-03-22T09:13:11.69Z</time></trkpt><trkpt lat="43.6310751" lon="12.7928492"><ele>336.8</ele><time>2026-03-22T09:13:12.694Z</time></trkpt><trkpt lat="43.6310244" lon="12.7927252"><ele>337.6</ele><time>2026-03-22T09:13:13.686Z</time></trkpt><trkpt lat="43.6309779" lon="12.7926014"><ele>338.4</ele><time>2026-03-22T09:13:14.692Z</time></trkpt><trkpt lat="43.6309391" lon="12.7924885"><ele>339.2</ele><time>2026-03-22T09:13:15.691Z</time></trkpt><trkpt lat="43.6308912" lon="12.7923848"><ele>340.0</ele><time>2026-03-22T09:13:16.698Z</time></trkpt><trkpt lat="43.6308433" lon="12.7922998"><ele>340.6</ele><time>2026-03-22T09:13:17.7Z</time></trkpt><trkpt lat="43.6307686" lon="12.7922343"><ele>341.2</ele><time>2026-03-22T09:13:18.691Z</time></trkpt><trkpt lat="43.6307015" lon="12.7921613"><ele>341.79999999999995</ele><time>2026-03-22T09:13:19.693Z</time></trkpt><trkpt lat="43.630638" lon="12.7920711"><ele>342.4</ele><time>2026-03-22T09:13:20.689Z</time></trkpt><trkpt lat="43.6305707" lon="12.7919679"><ele>343.0</ele><time>2026-03-22T09:13:21.696Z</time></trkpt><trkpt lat="43.6305101" lon="12.7918568"><ele>344.5</ele><time>2026-03-22T09:13:22.696Z</time></trkpt><trkpt lat="43.630453" lon="12.7917405"><ele>346.0</ele><time>2026-03-22T09:13:23.666Z</time></trkpt><trkpt lat="43.6303946" lon="12.791631"><ele>347.5</ele><time>2026-03-22T09:13:24.679Z</time></trkpt><trkpt lat="43.6303319" lon="12.7915262"><ele>349.0</ele><time>2026-03-22T09:13:25.685Z</time></trkpt><trkpt lat="43.6302772" lon="12.7914487"><ele>350.5</ele><time>2026-03-22T09:13:26.68Z</time></trkpt><trkpt lat="43.6302265" lon="12.7913881"><ele>352.0</ele><time>2026-03-22T09:13:27.676Z</time></trkpt><trkpt lat="43.6301067" lon="12.7913184"><ele>352.66666666666663</ele><time>2026-03-22T09:13:29.674Z</time></trkpt><trkpt lat="43.6300372" lon="12.7912859"><ele>353.3333333333333</ele><time>2026-03-22T09:13:30.674Z</time></trkpt><trkpt lat="43.6299662" lon="12.791254"><ele>354.0</ele><time>2026-03-22T09:13:31.688Z</time></trkpt><trkpt lat="43.6298843" lon="12.7912302"><ele>354.6666666666667</ele><time>2026-03-22T09:13:32.672Z</time></trkpt><trkpt lat="43.6297957" lon="12.7911951"><ele>355.33333333333337</ele><time>2026-03-22T09:13:33.676Z</time></trkpt><trkpt lat="43.6296988" lon="12.7911654"><ele>356.0</ele><time>2026-03-22T09:13:34.669Z</time></trkpt><trkpt lat="43.6296067" lon="12.791127"><ele>356.0</ele><time>2026-03-22T09:13:35.667Z</time></trkpt><trkpt lat="43.6295173" lon="12.7910828"><ele>356.0</ele><time>2026-03-22T09:13:36.672Z</time></trkpt><trkpt lat="43.6294388" lon="12.7910275"><ele>356.0</ele><time>2026-03-22T09:13:37.668Z</time></trkpt><trkpt lat="43.6293599" lon="12.7909754"><ele>356.0</ele><time>2026-03-22T09:13:38.658Z</time></trkpt><trkpt lat="43.6292673" lon="12.7909175"><ele>356.0</ele><time>2026-03-22T09:13:39.667Z</time></trkpt><trkpt lat="43.6291691" lon="12.7908518"><ele>359.0</ele><time>2026-03-22T09:13:40.666Z</time></trkpt><trkpt lat="43.6290734" lon="12.7907451"><ele>362.0</ele><time>2026-03-22T09:13:41.663Z</time></trkpt><trkpt lat="43.628973" lon="12.790634"><ele>365.0</ele><time>2026-03-22T09:13:42.667Z</time></trkpt><trkpt lat="43.6288889" lon="12.7905333"><ele>368.0</ele><time>2026-03-22T09:13:43.663Z</time></trkpt><trkpt lat="43.6288092" lon="12.7904313"><ele>368.0</ele><time>2026-03-22T09:13:44.663Z</time></trkpt><trkpt lat="43.628736" lon="12.7903224"><ele>368.0</ele><time>2026-03-22T09:13:45.662Z</time></trkpt><trkpt lat="43.6286665" lon="12.7901936"><ele>368.0</ele><time>2026-03-22T09:13:46.658Z</time></trkpt><trkpt lat="43.6285943" lon="12.7900746"><ele>368.0</ele><time>2026-03-22T09:13:47.659Z</time></trkpt><trkpt lat="43.6285196" lon="12.7899442"><ele>369.25</ele><time>2026-03-22T09:13:48.664Z</time></trkpt><trkpt lat="43.6284686" lon="12.7898129"><ele>370.5</ele><time>2026-03-22T09:13:49.666Z</time></trkpt><trkpt lat="43.6283696" lon="12.7897137"><ele>371.75</ele><time>2026-03-22T09:13:50.661Z</time></trkpt><trkpt lat="43.6282467" lon="12.7896395"><ele>373.0</ele><time>2026-03-22T09:13:51.662Z</time></trkpt><trkpt lat="43.6281226" lon="12.7895574"><ele>373.0</ele><time>2026-03-22T09:13:52.668Z</time></trkpt><trkpt lat="43.6280432" lon="12.7894507"><ele>373.0</ele><time>2026-03-22T09:13:53.675Z</time></trkpt><trkpt lat="43.6279739" lon="12.7893142"><ele>373.0</ele><time>2026-03-22T09:13:54.666Z</time></trkpt><trkpt lat="43.6278752" lon="12.7891477"><ele>373.0</ele><time>2026-03-22T09:13:55.66Z</time></trkpt><trkpt lat="43.6277695" lon="12.7889993"><ele>377.25</ele><time>2026-03-22T09:13:56.668Z</time></trkpt><trkpt lat="43.6276586" lon="12.7888754"><ele>381.5</ele><time>2026-03-22T09:13:57.662Z</time></trkpt><trkpt lat="43.6275581" lon="12.7887681"><ele>385.75</ele><time>2026-03-22T09:13:58.655Z</time></trkpt><trkpt lat="43.6274539" lon="12.7886751"><ele>390.0</ele><time>2026-03-22T09:13:59.657Z</time></trkpt><trkpt lat="43.6273605" lon="12.7885879"><ele>390.0</ele><time>2026-03-22T09:14:00.657Z</time></trkpt><trkpt lat="43.6272718" lon="12.7885357"><ele>390.0</ele><time>2026-03-22T09:14:01.663Z</time></trkpt><trkpt lat="43.6272045" lon="12.7884206"><ele>390.0</ele><time>2026-03-22T09:14:02.649Z</time></trkpt><trkpt lat="43.6270815" lon="12.7882853"><ele>390.0</ele><time>2026-03-22T09:14:03.655Z</time></trkpt><trkpt lat="43.6269458" lon="12.7881505"><ele>398.0</ele><time>2026-03-22T09:14:04.653Z</time></trkpt><trkpt lat="43.6268199" lon="12.7880222"><ele>406.0</ele><time>2026-03-22T09:14:05.646Z</time></trkpt><trkpt lat="43.6266996" lon="12.7878836"><ele>414.0</ele><time>2026-03-22T09:14:06.642Z</time></trkpt><trkpt lat="43.6266065" lon="12.7877316"><ele>412.0</ele><time>2026-03-22T09:14:07.64Z</time></trkpt><trkpt lat="43.6265255" lon="12.787557"><ele>410.0</ele><time>2026-03-22T09:14:08.647Z</time></trkpt><trkpt lat="43.6264663" lon="12.7874143"><ele>408.0</ele><time>2026-03-22T09:14:09.646Z</time></trkpt><trkpt lat="43.6264179" lon="12.7872281"><ele>406.0</ele><time>2026-03-22T09:14:10.651Z</time></trkpt><trkpt lat="43.6263705" lon="12.787115"><ele>406.0</ele><time>2026-03-22T09:14:11.653Z</time></trkpt><trkpt lat="43.6263159" lon="12.787031"><ele>406.0</ele><time>2026-03-22T09:14:12.656Z</time></trkpt><trkpt lat="43.6262523" lon="12.7869421"><ele>406.0</ele><time>2026-03-22T09:14:13.65Z</time></trkpt><trkpt lat="43.6261913" lon="12.7868519"><ele>406.0</ele><time>2026-03-22T09:14:14.65Z</time></trkpt><trkpt lat="43.6261229" lon="12.7867529"><ele>406.0</ele><time>2026-03-22T09:14:15.651Z</time></trkpt><trkpt lat="43.6260539" lon="12.7866657"><ele>410.75</ele><time>2026-03-22T09:14:16.655Z</time></trkpt><trkpt lat="43.6259799" lon="12.7865781"><ele>415.5</ele><time>2026-03-22T09:14:17.659Z</time></trkpt><trkpt lat="43.6258986" lon="12.7864565"><ele>420.25</ele><time>2026-03-22T09:14:18.649Z</time></trkpt><trkpt lat="43.6258148" lon="12.7863179"><ele>425.0</ele><time>2026-03-22T09:14:19.646Z</time></trkpt><trkpt lat="43.625733" lon="12.7861795"><ele>425.0</ele><time>2026-03-22T09:14:20.657Z</time></trkpt><trkpt lat="43.6256819" lon="12.7860771"><ele>425.0</ele><time>2026-03-22T09:14:21.648Z</time></trkpt><trkpt lat="43.6256632" lon="12.7859712"><ele>425.0</ele><time>2026-03-22T09:14:22.656Z</time></trkpt><trkpt lat="43.6256925" lon="12.7858358"><ele>425.0</ele><time>2026-03-22T09:14:23.663Z</time></trkpt><trkpt lat="43.6257527" lon="12.7857073"><ele>425.0</ele><time>2026-03-22T09:14:24.668Z</time></trkpt><trkpt lat="43.6258291" lon="12.7856127"><ele>429.0</ele><time>2026-03-22T09:14:25.665Z</time></trkpt><trkpt lat="43.6259241" lon="12.7855348"><ele>433.0</ele><time>2026-03-22T09:14:26.667Z</time></trkpt><trkpt lat="43.6259943" lon="12.7854687"><ele>437.0</ele><time>2026-03-22T09:14:27.662Z</time></trkpt><trkpt lat="43.6260771" lon="12.7853956"><ele>441.0</ele><time>2026-03-22T09:14:29.657Z</time></trkpt><trkpt lat="43.6259667" lon="12.7853903"><ele>445.0</ele><time>2026-03-22T09:14:33.674Z</time></trkpt><trkpt lat="43.625873" lon="12.7855185"><ele>445.0</ele><time>2026-03-22T09:14:34.662Z</time></trkpt><trkpt lat="43.6257936" lon="12.7856795"><ele>445.0</ele><time>2026-03-22T09:14:35.667Z</time></trkpt><trkpt lat="43.6257205" lon="12.7858622"><ele>445.0</ele><time>2026-03-22T09:14:36.667Z</time></trkpt><trkpt lat="43.6256782" lon="12.7860338"><ele>445.0</ele><time>2026-03-22T09:14:37.671Z</time></trkpt><trkpt lat="43.6256547" lon="12.7861755"><ele>445.6666666666667</ele><time>2026-03-22T09:14:38.667Z</time></trkpt><trkpt lat="43.6256374" lon="12.7862966"><ele>446.33333333333337</ele><time>2026-03-22T09:14:39.677Z</time></trkpt><trkpt lat="43.6256004" lon="12.7863821"><ele>447.0</ele><time>2026-03-22T09:14:40.68Z</time></trkpt><trkpt lat="43.6254716" lon="12.7864255"><ele>447.66666666666663</ele><time>2026-03-22T09:14:42.667Z</time></trkpt><trkpt lat="43.625407" lon="12.7864202"><ele>448.3333333333333</ele><time>2026-03-22T09:14:43.66Z</time></trkpt><trkpt lat="43.6253306" lon="12.7864143"><ele>449.0</ele><time>2026-03-22T09:14:44.655Z</time></trkpt><trkpt lat="43.6252549" lon="12.7864097"><ele>448.99999999999994</ele><time>2026-03-22T09:14:45.666Z</time></trkpt><trkpt lat="43.6251741" lon="12.7864073"><ele>449.0</ele><time>2026-03-22T09:14:46.663Z</time></trkpt><trkpt lat="43.6250889" lon="12.7863981"><ele>449.0</ele><time>2026-03-22T09:14:47.66Z</time></trkpt><trkpt lat="43.6250013" lon="12.7863897"><ele>449.0</ele><time>2026-03-22T09:14:48.663Z</time></trkpt><trkpt lat="43.6249163" lon="12.7863784"><ele>448.99999999999994</ele><time>2026-03-22T09:14:49.65Z</time></trkpt><trkpt lat="43.6248291" lon="12.7863635"><ele>449.0</ele><time>2026-03-22T09:14:50.651Z</time></trkpt><trkpt lat="43.6247215" lon="12.7863269"><ele>449.0</ele><time>2026-03-22T09:14:51.652Z</time></trkpt><trkpt lat="43.6246172" lon="12.7863033"><ele>449.0</ele><time>2026-03-22T09:14:52.653Z</time></trkpt><trkpt lat="43.6245" lon="12.7862779"><ele>449.0</ele><time>2026-03-22T09:14:53.834Z</time></trkpt><trkpt lat="43.6242502" lon="12.7863256"><ele>453.75</ele><time>2026-03-22T09:14:55.646Z</time></trkpt><trkpt lat="43.6241285" lon="12.7864144"><ele>458.5</ele><time>2026-03-22T09:14:56.635Z</time></trkpt><trkpt lat="43.6239984" lon="12.7865548"><ele>463.25</ele><time>2026-03-22T09:14:57.631Z</time></trkpt><trkpt lat="43.6239416" lon="12.7866587"><ele>468.0</ele><time>2026-03-22T09:14:58.642Z</time></trkpt><trkpt lat="43.6238599" lon="12.7867865"><ele>468.0</ele><time>2026-03-22T09:15:00.641Z</time></trkpt><trkpt lat="43.6237272" lon="12.7867361"><ele>468.0</ele><time>2026-03-22T09:15:02.639Z</time></trkpt><trkpt lat="43.6236473" lon="12.7866276"><ele>468.0</ele><time>2026-03-22T09:15:03.648Z</time></trkpt><trkpt lat="43.6235711" lon="12.7865162"><ele>468.0</ele><time>2026-03-22T09:15:04.64Z</time></trkpt><trkpt lat="43.6235019" lon="12.7863984"><ele>470.0</ele><time>2026-03-22T09:15:05.64Z</time></trkpt><trkpt lat="43.6234483" lon="12.786278"><ele>472.0</ele><time>2026-03-22T09:15:06.643Z</time></trkpt><trkpt lat="43.6234252" lon="12.7861627"><ele>474.0</ele><time>2026-03-22T09:15:07.646Z</time></trkpt><trkpt lat="43.6234497" lon="12.7860732"><ele>476.0</ele><time>2026-03-22T09:15:08.647Z</time></trkpt><trkpt lat="43.6235178" lon="12.7860155"><ele>478.0</ele><time>2026-03-22T09:15:09.647Z</time></trkpt><trkpt lat="43.6236047" lon="12.7859749"><ele>480.0</ele><time>2026-03-22T09:15:10.651Z</time></trkpt><trkpt lat="43.6237056" lon="12.7859321"><ele>481.2</ele><time>2026-03-22T09:15:11.656Z</time></trkpt><trkpt lat="43.6238082" lon="12.785888"><ele>482.4</ele><time>2026-03-22T09:15:12.648Z</time></trkpt><trkpt lat="43.6239116" lon="12.7858382"><ele>483.6</ele><time>2026-03-22T09:15:13.657Z</time></trkpt><trkpt lat="43.6239979" lon="12.7857771"><ele>484.8</ele><time>2026-03-22T09:15:14.654Z</time></trkpt><trkpt lat="43.6240954" lon="12.7856861"><ele>486.0</ele><time>2026-03-22T09:15:15.653Z</time></trkpt><trkpt lat="43.6241756" lon="12.7855989"><ele>486.0</ele><time>2026-03-22T09:15:16.642Z</time></trkpt><trkpt lat="43.6242463" lon="12.7855068"><ele>486.0</ele><time>2026-03-22T09:15:17.638Z</time></trkpt><trkpt lat="43.6243095" lon="12.7854138"><ele>486.0</ele><time>2026-03-22T09:15:18.632Z</time></trkpt><trkpt lat="43.6243682" lon="12.7853063"><ele>486.0</ele><time>2026-03-22T09:15:19.633Z</time></trkpt><trkpt lat="43.6244299" lon="12.7851881"><ele>486.0</ele><time>2026-03-22T09:15:20.642Z</time></trkpt><trkpt lat="43.6244902" lon="12.7850752"><ele>488.75</ele><time>2026-03-22T09:15:21.638Z</time></trkpt><trkpt lat="43.6245789" lon="12.7849634"><ele>491.5</ele><time>2026-03-22T09:15:22.649Z</time></trkpt><trkpt lat="43.6246813" lon="12.7848982"><ele>494.25</ele><time>2026-03-22T09:15:23.649Z</time></trkpt><trkpt lat="43.6248" lon="12.7848526"><ele>497.0</ele><time>2026-03-22T09:15:24.65Z</time></trkpt><trkpt lat="43.6249207" lon="12.7848083"><ele>497.0</ele><time>2026-03-22T09:15:25.648Z</time></trkpt><trkpt lat="43.6250399" lon="12.7847541"><ele>497.0</ele><time>2026-03-22T09:15:26.667Z</time></trkpt><trkpt lat="43.6251567" lon="12.7846848"><ele>497.0</ele><time>2026-03-22T09:15:27.647Z</time></trkpt><trkpt lat="43.6252825" lon="12.7846147"><ele>497.0</ele><time>2026-03-22T09:15:28.66Z</time></trkpt><trkpt lat="43.6254041" lon="12.7845745"><ele>492.20000000000005</ele><time>2026-03-22T09:15:29.655Z</time></trkpt><trkpt lat="43.6255215" lon="12.7845501"><ele>487.40000000000003</ele><time>2026-03-22T09:15:30.67Z</time></trkpt><trkpt lat="43.6256052" lon="12.7845382"><ele>482.59999999999997</ele><time>2026-03-22T09:15:31.671Z</time></trkpt><trkpt lat="43.6255659" lon="12.7844406"><ele>477.79999999999995</ele><time>2026-03-22T09:15:34.679Z</time></trkpt><trkpt lat="43.625479" lon="12.7844439"><ele>473.0</ele><time>2026-03-22T09:15:35.657Z</time></trkpt><trkpt lat="43.6253754" lon="12.7844728"><ele>479.0</ele><time>2026-03-22T09:15:36.659Z</time></trkpt><trkpt lat="43.6252683" lon="12.7845055"><ele>485.0</ele><time>2026-03-22T09:15:37.661Z</time></trkpt><trkpt lat="43.6251604" lon="12.7845182"><ele>491.0</ele><time>2026-03-22T09:15:38.666Z</time></trkpt><trkpt lat="43.6250428" lon="12.7844958"><ele>497.0</ele><time>2026-03-22T09:15:39.66Z</time></trkpt><trkpt lat="43.6249096" lon="12.7844312"><ele>497.0</ele><time>2026-03-22T09:15:40.656Z</time></trkpt><trkpt lat="43.6247682" lon="12.7843465"><ele>497.0</ele><time>2026-03-22T09:15:41.656Z</time></trkpt><trkpt lat="43.6246274" lon="12.7842537"><ele>497.0</ele><time>2026-03-22T09:15:42.652Z</time></trkpt><trkpt lat="43.6244983" lon="12.7841595"><ele>503.75</ele><time>2026-03-22T09:15:43.653Z</time></trkpt><trkpt lat="43.6243793" lon="12.7840859"><ele>510.5</ele><time>2026-03-22T09:15:44.653Z</time></trkpt><trkpt lat="43.6242544" lon="12.7840452"><ele>517.25</ele><time>2026-03-22T09:15:45.658Z</time></trkpt><trkpt lat="43.6241263" lon="12.784057"><ele>524.0</ele><time>2026-03-22T09:15:46.65Z</time></trkpt><trkpt lat="43.6240013" lon="12.7840958"><ele>524.0</ele><time>2026-03-22T09:15:47.654Z</time></trkpt><trkpt lat="43.6238847" lon="12.7841123"><ele>524.0</ele><time>2026-03-22T09:15:48.662Z</time></trkpt><trkpt lat="43.623761" lon="12.7840993"><ele>524.0</ele><time>2026-03-22T09:15:49.653Z</time></trkpt><trkpt lat="43.6236309" lon="12.7840763"><ele>524.0</ele><time>2026-03-22T09:15:50.656Z</time></trkpt><trkpt lat="43.6234948" lon="12.7840608"><ele>525.0</ele><time>2026-03-22T09:15:51.654Z</time></trkpt><trkpt lat="43.6233543" lon="12.7840502"><ele>526.0</ele><time>2026-03-22T09:15:52.652Z</time></trkpt><trkpt lat="43.6232336" lon="12.7840582"><ele>527.0</ele><time>2026-03-22T09:15:53.651Z</time></trkpt><trkpt lat="43.6231386" lon="12.7840112"><ele>528.0</ele><time>2026-03-22T09:15:55.647Z</time></trkpt><trkpt lat="43.6231797" lon="12.7838592"><ele>528.0</ele><time>2026-03-22T09:15:57.651Z</time></trkpt><trkpt lat="43.623241" lon="12.7838121"><ele>528.0</ele><time>2026-03-22T09:15:58.648Z</time></trkpt><trkpt lat="43.6233198" lon="12.7837791"><ele>528.0</ele><time>2026-03-22T09:15:59.643Z</time></trkpt><trkpt lat="43.6234094" lon="12.7837512"><ele>528.0</ele><time>2026-03-22T09:16:00.656Z</time></trkpt><trkpt lat="43.6235159" lon="12.7837056"><ele>528.0</ele><time>2026-03-22T09:16:01.653Z</time></trkpt><trkpt lat="43.6236118" lon="12.7836265"><ele>527.0</ele><time>2026-03-22T09:16:02.654Z</time></trkpt><trkpt lat="43.6237197" lon="12.7835414"><ele>526.0</ele><time>2026-03-22T09:16:03.659Z</time></trkpt><trkpt lat="43.6238375" lon="12.7834515"><ele>525.0</ele><time>2026-03-22T09:16:04.667Z</time></trkpt><trkpt lat="43.6239594" lon="12.7833841"><ele>524.0</ele><time>2026-03-22T09:16:05.666Z</time></trkpt><trkpt lat="43.6240825" lon="12.7833629"><ele>528.75</ele><time>2026-03-22T09:16:06.659Z</time></trkpt><trkpt lat="43.6242118" lon="12.7833492"><ele>533.5</ele><time>2026-03-22T09:16:07.645Z</time></trkpt><trkpt lat="43.624332" lon="12.7833138"><ele>538.25</ele><time>2026-03-22T09:16:08.646Z</time></trkpt><trkpt lat="43.6244345" lon="12.783271"><ele>543.0</ele><time>2026-03-22T09:16:09.646Z</time></trkpt><trkpt lat="43.6245348" lon="12.783195"><ele>543.0</ele><time>2026-03-22T09:16:10.645Z</time></trkpt><trkpt lat="43.6246277" lon="12.7831117"><ele>543.0</ele><time>2026-03-22T09:16:11.649Z</time></trkpt><trkpt lat="43.6247151" lon="12.7830296"><ele>543.0</ele><time>2026-03-22T09:16:12.65Z</time></trkpt><trkpt lat="43.6248101" lon="12.7829537"><ele>543.0</ele><time>2026-03-22T09:16:13.666Z</time></trkpt><trkpt lat="43.6249256" lon="12.7829005"><ele>543.0</ele><time>2026-03-22T09:16:14.648Z</time></trkpt><trkpt lat="43.6250426" lon="12.7828564"><ele>543.0</ele><time>2026-03-22T09:16:15.651Z</time></trkpt><trkpt lat="43.6251763" lon="12.7827759"><ele>543.0</ele><time>2026-03-22T09:16:16.648Z</time></trkpt><trkpt lat="43.6252949" lon="12.7827027"><ele>543.0</ele><time>2026-03-22T09:16:17.653Z</time></trkpt><trkpt lat="43.6253989" lon="12.7826528"><ele>543.0</ele><time>2026-03-22T09:16:18.653Z</time></trkpt><trkpt lat="43.6255004" lon="12.7826196"><ele>546.0</ele><time>2026-03-22T09:16:19.653Z</time></trkpt><trkpt lat="43.6255877" lon="12.7826119"><ele>549.0</ele><time>2026-03-22T09:16:20.661Z</time></trkpt><trkpt lat="43.625681" lon="12.7826074"><ele>552.0</ele><time>2026-03-22T09:16:23.644Z</time></trkpt><trkpt lat="43.625542" lon="12.7826386"><ele>555.0</ele><time>2026-03-22T09:16:27.657Z</time></trkpt><trkpt lat="43.6252567" lon="12.7825673"><ele>557.3333333333334</ele><time>2026-03-22T09:16:29.647Z</time></trkpt><trkpt lat="43.625082" lon="12.782522"><ele>559.6666666666667</ele><time>2026-03-22T09:16:30.645Z</time></trkpt><trkpt lat="43.6248978" lon="12.7824756"><ele>562.0</ele><time>2026-03-22T09:16:31.639Z</time></trkpt><trkpt lat="43.6247031" lon="12.7824209"><ele>562.0</ele><time>2026-03-22T09:16:32.641Z</time></trkpt><trkpt lat="43.6245035" lon="12.7823716"><ele>562.0</ele><time>2026-03-22T09:16:33.693Z</time></trkpt><trkpt lat="43.6242885" lon="12.7823032"><ele>562.0</ele><time>2026-03-22T09:16:34.715Z</time></trkpt><trkpt lat="43.624146" lon="12.7822087"><ele>565.0</ele><time>2026-03-22T09:16:35.647Z</time></trkpt><trkpt lat="43.6239966" lon="12.7821015"><ele>568.0</ele><time>2026-03-22T09:16:36.635Z</time></trkpt><trkpt lat="43.6238342" lon="12.7820147"><ele>571.0</ele><time>2026-03-22T09:16:37.646Z</time></trkpt><trkpt lat="43.6236514" lon="12.7818988"><ele>579.0</ele><time>2026-03-22T09:16:38.649Z</time></trkpt><trkpt lat="43.6234573" lon="12.7818211"><ele>587.0</ele><time>2026-03-22T09:16:39.651Z</time></trkpt><trkpt lat="43.6232452" lon="12.7817804"><ele>595.0</ele><time>2026-03-22T09:16:40.653Z</time></trkpt><trkpt lat="43.6230452" lon="12.7817482"><ele>595.0</ele><time>2026-03-22T09:16:41.653Z</time></trkpt><trkpt lat="43.6228282" lon="12.7817454"><ele>595.0</ele><time>2026-03-22T09:16:42.648Z</time></trkpt><trkpt lat="43.6226173" lon="12.7817458"><ele>595.0</ele><time>2026-03-22T09:16:43.642Z</time></trkpt><trkpt lat="43.6224164" lon="12.7817496"><ele>596.6666666666667</ele><time>2026-03-22T09:16:44.637Z</time></trkpt><trkpt lat="43.6222152" lon="12.7817546"><ele>598.3333333333334</ele><time>2026-03-22T09:16:45.642Z</time></trkpt><trkpt lat="43.622018" lon="12.7817495"><ele>600.0</ele><time>2026-03-22T09:16:46.639Z</time></trkpt><trkpt lat="43.6218246" lon="12.7817161"><ele>600.0</ele><time>2026-03-22T09:16:47.648Z</time></trkpt><trkpt lat="43.6216376" lon="12.7816601"><ele>600.0</ele><time>2026-03-22T09:16:48.644Z</time></trkpt><trkpt lat="43.6214733" lon="12.7815696"><ele>600.0</ele><time>2026-03-22T09:16:49.646Z</time></trkpt><trkpt lat="43.6213361" lon="12.7814793"><ele>600.0</ele><time>2026-03-22T09:16:50.638Z</time></trkpt><trkpt lat="43.621213" lon="12.7814124"><ele>600.0</ele><time>2026-03-22T09:16:51.638Z</time></trkpt><trkpt lat="43.621131" lon="12.7813602"><ele>600.0</ele><time>2026-03-22T09:16:52.638Z</time></trkpt><trkpt lat="43.6211277" lon="12.7812732"><ele>600.0</ele><time>2026-03-22T09:16:54.644Z</time></trkpt><trkpt lat="43.621248" lon="12.7812075"><ele>600.0</ele><time>2026-03-22T09:16:56.648Z</time></trkpt><trkpt lat="43.6213556" lon="12.7812539"><ele>600.0</ele><time>2026-03-22T09:16:57.636Z</time></trkpt><trkpt lat="43.6214947" lon="12.7812923"><ele>600.0</ele><time>2026-03-22T09:16:58.649Z</time></trkpt><trkpt lat="43.6216397" lon="12.781331"><ele>600.0</ele><time>2026-03-22T09:16:59.641Z</time></trkpt><trkpt lat="43.6217973" lon="12.7813588"><ele>600.0</ele><time>2026-03-22T09:17:00.652Z</time></trkpt><trkpt lat="43.6219489" lon="12.7813675"><ele>600.75</ele><time>2026-03-22T09:17:01.653Z</time></trkpt><trkpt lat="43.6220917" lon="12.7813439"><ele>601.5</ele><time>2026-03-22T09:17:02.654Z</time></trkpt><trkpt lat="43.6222218" lon="12.7812815"><ele>602.25</ele><time>2026-03-22T09:17:03.654Z</time></trkpt><trkpt lat="43.6223276" lon="12.7812043"><ele>603.0</ele><time>2026-03-22T09:17:04.672Z</time></trkpt><trkpt lat="43.6224311" lon="12.7811175"><ele>607.0</ele><time>2026-03-22T09:17:05.649Z</time></trkpt><trkpt lat="43.6225188" lon="12.7810069"><ele>611.0</ele><time>2026-03-22T09:17:06.661Z</time></trkpt><trkpt lat="43.6225886" lon="12.7808963"><ele>615.0</ele><time>2026-03-22T09:17:07.654Z</time></trkpt><trkpt lat="43.62264" lon="12.7807673"><ele>619.0</ele><time>2026-03-22T09:17:08.657Z</time></trkpt><trkpt lat="43.6226701" lon="12.7806286"><ele>623.0</ele><time>2026-03-22T09:17:09.654Z</time></trkpt><trkpt lat="43.6226889" lon="12.7804852"><ele>623.0</ele><time>2026-03-22T09:17:10.659Z</time></trkpt><trkpt lat="43.6226881" lon="12.780376"><ele>623.0</ele><time>2026-03-22T09:17:11.658Z</time></trkpt><trkpt lat="43.6227175" lon="12.7802567"><ele>623.0</ele><time>2026-03-22T09:17:13.655Z</time></trkpt><trkpt lat="43.6228167" lon="12.7802656"><ele>623.0</ele><time>2026-03-22T09:17:15.65Z</time></trkpt><trkpt lat="43.6228816" lon="12.7802944"><ele>623.0</ele><time>2026-03-22T09:17:16.639Z</time></trkpt><trkpt lat="43.6229535" lon="12.780328"><ele>623.0</ele><time>2026-03-22T09:17:17.646Z</time></trkpt><trkpt lat="43.6230359" lon="12.7803679"><ele>621.0</ele><time>2026-03-22T09:17:18.646Z</time></trkpt><trkpt lat="43.62315" lon="12.7804219"><ele>619.0</ele><time>2026-03-22T09:17:19.648Z</time></trkpt><trkpt lat="43.6232652" lon="12.7804342"><ele>617.0</ele><time>2026-03-22T09:17:20.646Z</time></trkpt><trkpt lat="43.6233791" lon="12.7804247"><ele>615.0</ele><time>2026-03-22T09:17:21.651Z</time></trkpt><trkpt lat="43.6234941" lon="12.7803708"><ele>615.0</ele><time>2026-03-22T09:17:22.648Z</time></trkpt><trkpt lat="43.6236009" lon="12.7802645"><ele>615.0</ele><time>2026-03-22T09:17:23.64Z</time></trkpt><trkpt lat="43.6237096" lon="12.7801273"><ele>615.0</ele><time>2026-03-22T09:17:24.653Z</time></trkpt><trkpt lat="43.6238239" lon="12.7799898"><ele>615.0</ele><time>2026-03-22T09:17:25.643Z</time></trkpt><trkpt lat="43.6239297" lon="12.7798483"><ele>620.0</ele><time>2026-03-22T09:17:26.651Z</time></trkpt><trkpt lat="43.6240256" lon="12.7797113"><ele>625.0</ele><time>2026-03-22T09:17:27.659Z</time></trkpt><trkpt lat="43.6241331" lon="12.7795986"><ele>630.0</ele><time>2026-03-22T09:17:28.654Z</time></trkpt><trkpt lat="43.6242432" lon="12.7794972"><ele>635.0</ele><time>2026-03-22T09:17:29.661Z</time></trkpt><trkpt lat="43.6243418" lon="12.7793916"><ele>637.5</ele><time>2026-03-22T09:17:30.654Z</time></trkpt><trkpt lat="43.6244305" lon="12.7792706"><ele>640.0</ele><time>2026-03-22T09:17:31.652Z</time></trkpt><trkpt lat="43.6245023" lon="12.7791408"><ele>642.5</ele><time>2026-03-22T09:17:32.651Z</time></trkpt><trkpt lat="43.6245687" lon="12.7790152"><ele>645.0</ele><time>2026-03-22T09:17:33.654Z</time></trkpt><trkpt lat="43.6246373" lon="12.7789043"><ele>645.0</ele><time>2026-03-22T09:17:34.654Z</time></trkpt><trkpt lat="43.6247128" lon="12.7788197"><ele>645.0</ele><time>2026-03-22T09:17:35.667Z</time></trkpt><trkpt lat="43.624809" lon="12.7787815"><ele>645.0</ele><time>2026-03-22T09:17:36.643Z</time></trkpt><trkpt lat="43.6249056" lon="12.7787595"><ele>645.0</ele><time>2026-03-22T09:17:37.658Z</time></trkpt><trkpt lat="43.6250115" lon="12.7787458"><ele>645.0</ele><time>2026-03-22T09:17:38.649Z</time></trkpt><trkpt lat="43.6251119" lon="12.7787334"><ele>645.0</ele><time>2026-03-22T09:17:39.655Z</time></trkpt><trkpt lat="43.6252035" lon="12.7787229"><ele>645.0</ele><time>2026-03-22T09:17:40.654Z</time></trkpt><trkpt lat="43.6252976" lon="12.7787134"><ele>645.0</ele><time>2026-03-22T09:17:41.65Z</time></trkpt><trkpt lat="43.6253934" lon="12.7786791"><ele>645.0</ele><time>2026-03-22T09:17:42.651Z</time></trkpt><trkpt lat="43.6255037" lon="12.7786051"><ele>645.0</ele><time>2026-03-22T09:17:43.651Z</time></trkpt><trkpt lat="43.6256201" lon="12.7785066"><ele>646.25</ele><time>2026-03-22T09:17:44.642Z</time></trkpt><trkpt lat="43.6257261" lon="12.7783585"><ele>647.5</ele><time>2026-03-22T09:17:45.646Z</time></trkpt><trkpt lat="43.6258076" lon="12.7782074"><ele>648.75</ele><time>2026-03-22T09:17:46.655Z</time></trkpt><trkpt lat="43.6258683" lon="12.7780557"><ele>650.0</ele><time>2026-03-22T09:17:47.659Z</time></trkpt><trkpt lat="43.6259363" lon="12.7779497"><ele>650.0</ele><time>2026-03-22T09:17:48.651Z</time></trkpt><trkpt lat="43.6259815" lon="12.7778684"><ele>650.0</ele><time>2026-03-22T09:17:49.658Z</time></trkpt><trkpt lat="43.6260153" lon="12.7777924"><ele>650.0</ele><time>2026-03-22T09:17:50.667Z</time></trkpt><trkpt lat="43.6259982" lon="12.777707"><ele>650.0</ele><time>2026-03-22T09:17:52.659Z</time></trkpt><trkpt lat="43.6258846" lon="12.7776515"><ele>650.0</ele><time>2026-03-22T09:17:54.668Z</time></trkpt><trkpt lat="43.6257956" lon="12.7776645"><ele>650.0</ele><time>2026-03-22T09:17:55.658Z</time></trkpt><trkpt lat="43.6256924" lon="12.7776727"><ele>650.0</ele><time>2026-03-22T09:17:56.658Z</time></trkpt><trkpt lat="43.6255785" lon="12.7776841"><ele>650.0</ele><time>2026-03-22T09:17:57.663Z</time></trkpt><trkpt lat="43.6254705" lon="12.7776895"><ele>650.0</ele><time>2026-03-22T09:17:58.653Z</time></trkpt><trkpt lat="43.6253762" lon="12.7776926"><ele>650.0</ele><time>2026-03-22T09:17:59.668Z</time></trkpt><trkpt lat="43.6252877" lon="12.7777084"><ele>650.0</ele><time>2026-03-22T09:18:00.668Z</time></trkpt><trkpt lat="43.6251888" lon="12.7777267"><ele>653.25</ele><time>2026-03-22T09:18:01.656Z</time></trkpt><trkpt lat="43.6250797" lon="12.7777668"><ele>656.5</ele><time>2026-03-22T09:18:02.663Z</time></trkpt><trkpt lat="43.6249434" lon="12.777795"><ele>659.75</ele><time>2026-03-22T09:18:03.67Z</time></trkpt><trkpt lat="43.6248235" lon="12.7777842"><ele>663.0</ele><time>2026-03-22T09:18:04.665Z</time></trkpt><trkpt lat="43.6247003" lon="12.7777549"><ele>663.0</ele><time>2026-03-22T09:18:05.663Z</time></trkpt><trkpt lat="43.6245767" lon="12.7777103"><ele>663.0</ele><time>2026-03-22T09:18:06.658Z</time></trkpt><trkpt lat="43.6244555" lon="12.777664"><ele>663.0</ele><time>2026-03-22T09:18:07.661Z</time></trkpt><trkpt lat="43.6243391" lon="12.7776276"><ele>663.0</ele><time>2026-03-22T09:18:08.654Z</time></trkpt><trkpt lat="43.6242245" lon="12.7776022"><ele>666.5</ele><time>2026-03-22T09:18:09.658Z</time></trkpt><trkpt lat="43.6240852" lon="12.7776072"><ele>670.0</ele><time>2026-03-22T09:18:10.663Z</time></trkpt><trkpt lat="43.6239454" lon="12.7776241"><ele>673.5</ele><time>2026-03-22T09:18:11.668Z</time></trkpt><trkpt lat="43.6238028" lon="12.7776479"><ele>677.0</ele><time>2026-03-22T09:18:12.677Z</time></trkpt><trkpt lat="43.6236413" lon="12.777696"><ele>677.0</ele><time>2026-03-22T09:18:13.673Z</time></trkpt><trkpt lat="43.6234888" lon="12.777749"><ele>677.0</ele><time>2026-03-22T09:18:14.669Z</time></trkpt><trkpt lat="43.623335" lon="12.7777869"><ele>677.0</ele><time>2026-03-22T09:18:15.663Z</time></trkpt><trkpt lat="43.6231901" lon="12.7778077"><ele>677.0</ele><time>2026-03-22T09:18:16.665Z</time></trkpt><trkpt lat="43.6230491" lon="12.7778185"><ele>677.0</ele><time>2026-03-22T09:18:17.655Z</time></trkpt><trkpt lat="43.6229052" lon="12.7778203"><ele>677.0</ele><time>2026-03-22T09:18:18.659Z</time></trkpt><trkpt lat="43.6227534" lon="12.7777921"><ele>677.0</ele><time>2026-03-22T09:18:19.66Z</time></trkpt><trkpt lat="43.6226172" lon="12.7777323"><ele>681.0</ele><time>2026-03-22T09:18:20.665Z</time></trkpt><trkpt lat="43.6225028" lon="12.7776791"><ele>685.0</ele><time>2026-03-22T09:18:21.655Z</time></trkpt><trkpt lat="43.6223994" lon="12.7776259"><ele>689.0</ele><time>2026-03-22T09:18:22.658Z</time></trkpt><trkpt lat="43.6223046" lon="12.7775163"><ele>693.0</ele><time>2026-03-22T09:18:23.667Z</time></trkpt><trkpt lat="43.6222283" lon="12.7773665"><ele>693.0</ele><time>2026-03-22T09:18:24.663Z</time></trkpt><trkpt lat="43.6221414" lon="12.7772392"><ele>693.0</ele><time>2026-03-22T09:18:25.663Z</time></trkpt><trkpt lat="43.6220322" lon="12.7771382"><ele>693.0</ele><time>2026-03-22T09:18:26.665Z</time></trkpt><trkpt lat="43.6219256" lon="12.7770588"><ele>693.0</ele><time>2026-03-22T09:18:27.661Z</time></trkpt><trkpt lat="43.6218214" lon="12.7769839"><ele>691.8</ele><time>2026-03-22T09:18:28.665Z</time></trkpt><trkpt lat="43.6217208" lon="12.7768969"><ele>690.5999999999999</ele><time>2026-03-22T09:18:29.659Z</time></trkpt><trkpt lat="43.6216356" lon="12.7768094"><ele>689.4000000000001</ele><time>2026-03-22T09:18:30.671Z</time></trkpt><trkpt lat="43.621553" lon="12.7767264"><ele>688.2</ele><time>2026-03-22T09:18:31.651Z</time></trkpt><trkpt lat="43.6214641" lon="12.7766459"><ele>687.0</ele><time>2026-03-22T09:18:32.653Z</time></trkpt><trkpt lat="43.6213673" lon="12.7765702"><ele>690.0</ele><time>2026-03-22T09:18:33.664Z</time></trkpt><trkpt lat="43.6212761" lon="12.7764607"><ele>693.0</ele><time>2026-03-22T09:18:34.659Z</time></trkpt><trkpt lat="43.6211906" lon="12.776323"><ele>696.0</ele><time>2026-03-22T09:18:35.671Z</time></trkpt><trkpt lat="43.621094" lon="12.7761899"><ele>699.0</ele><time>2026-03-22T09:18:36.666Z</time></trkpt><trkpt lat="43.6209814" lon="12.7760658"><ele>705.6666666666666</ele><time>2026-03-22T09:18:37.66Z</time></trkpt><trkpt lat="43.6208556" lon="12.7759711"><ele>712.3333333333333</ele><time>2026-03-22T09:18:38.676Z</time></trkpt><trkpt lat="43.6207168" lon="12.7759134"><ele>719.0</ele><time>2026-03-22T09:18:39.668Z</time></trkpt><trkpt lat="43.620539" lon="12.7758912"><ele>719.0</ele><time>2026-03-22T09:18:40.66Z</time></trkpt><trkpt lat="43.6203707" lon="12.7758634"><ele>719.0</ele><time>2026-03-22T09:18:41.663Z</time></trkpt><trkpt lat="43.6202207" lon="12.775806"><ele>719.0</ele><time>2026-03-22T09:18:42.664Z</time></trkpt><trkpt lat="43.6200906" lon="12.7757391"><ele>718.5</ele><time>2026-03-22T09:18:43.677Z</time></trkpt><trkpt lat="43.6200205" lon="12.7756467"><ele>718.0</ele><time>2026-03-22T09:18:44.67Z</time></trkpt><trkpt lat="43.6199892" lon="12.7755131"><ele>717.5</ele><time>2026-03-22T09:18:45.663Z</time></trkpt><trkpt lat="43.6199691" lon="12.7753414"><ele>717.0</ele><time>2026-03-22T09:18:46.667Z</time></trkpt><trkpt lat="43.6199429" lon="12.7751485"><ele>721.0</ele><time>2026-03-22T09:18:47.659Z</time></trkpt><trkpt lat="43.6199107" lon="12.774966"><ele>725.0</ele><time>2026-03-22T09:18:48.663Z</time></trkpt><trkpt lat="43.6198823" lon="12.7747811"><ele>729.0</ele><time>2026-03-22T09:18:49.655Z</time></trkpt><trkpt lat="43.6198511" lon="12.7746075"><ele>733.0</ele><time>2026-03-22T09:18:50.647Z</time></trkpt><trkpt lat="43.6198069" lon="12.7744615"><ele>735.6666666666667</ele><time>2026-03-22T09:18:51.65Z</time></trkpt><trkpt lat="43.6197693" lon="12.7743313"><ele>738.3333333333334</ele><time>2026-03-22T09:18:52.651Z</time></trkpt><trkpt lat="43.6197274" lon="12.7742295"><ele>741.0</ele><time>2026-03-22T09:18:53.649Z</time></trkpt><trkpt lat="43.6196706" lon="12.7741747"><ele>743.6666666666666</ele><time>2026-03-22T09:18:54.646Z</time></trkpt><trkpt lat="43.6196069" lon="12.7741142"><ele>746.3333333333333</ele><time>2026-03-22T09:18:55.644Z</time></trkpt><trkpt lat="43.6195061" lon="12.7740721"><ele>749.0</ele><time>2026-03-22T09:18:57.642Z</time></trkpt><trkpt lat="43.6194195" lon="12.7740277"><ele>749.0</ele><time>2026-03-22T09:18:59.656Z</time></trkpt><trkpt lat="43.6193349" lon="12.7740693"><ele>749.0</ele><time>2026-03-22T09:19:01.659Z</time></trkpt><trkpt lat="43.6192198" lon="12.7741243"><ele>749.0</ele><time>2026-03-22T09:19:04.67Z</time></trkpt><trkpt lat="43.6191321" lon="12.7741796"><ele>749.0</ele><time>2026-03-22T09:19:05.667Z</time></trkpt><trkpt lat="43.619014" lon="12.7742435"><ele>749.0</ele><time>2026-03-22T09:19:06.68Z</time></trkpt><trkpt lat="43.6188663" lon="12.7743323"><ele>751.0</ele><time>2026-03-22T09:19:07.675Z</time></trkpt><trkpt lat="43.6186958" lon="12.7744355"><ele>753.0</ele><time>2026-03-22T09:19:08.668Z</time></trkpt><trkpt lat="43.6185254" lon="12.774532"><ele>755.0</ele><time>2026-03-22T09:19:09.665Z</time></trkpt><trkpt lat="43.618369" lon="12.7745978"><ele>755.0</ele><time>2026-03-22T09:19:10.656Z</time></trkpt><trkpt lat="43.6182163" lon="12.774637"><ele>755.0</ele><time>2026-03-22T09:19:11.664Z</time></trkpt><trkpt lat="43.6180877" lon="12.7746378"><ele>755.0</ele><time>2026-03-22T09:19:12.663Z</time></trkpt><trkpt lat="43.6179756" lon="12.7745971"><ele>755.0</ele><time>2026-03-22T09:19:13.655Z</time></trkpt><trkpt lat="43.6178614" lon="12.7745733"><ele>754.0</ele><time>2026-03-22T09:19:14.651Z</time></trkpt><trkpt lat="43.6177315" lon="12.7745616"><ele>753.0</ele><time>2026-03-22T09:19:15.656Z</time></trkpt><trkpt lat="43.6175868" lon="12.7746174"><ele>752.0</ele><time>2026-03-22T09:19:16.652Z</time></trkpt><trkpt lat="43.6174237" lon="12.7746946"><ele>752.0</ele><time>2026-03-22T09:19:17.647Z</time></trkpt><trkpt lat="43.6172603" lon="12.7747689"><ele>752.0</ele><time>2026-03-22T09:19:18.638Z</time></trkpt><trkpt lat="43.6170605" lon="12.7748719"><ele>752.0</ele><time>2026-03-22T09:19:19.649Z</time></trkpt><trkpt lat="43.6168726" lon="12.7749316"><ele>752.6666666666666</ele><time>2026-03-22T09:19:20.655Z</time></trkpt><trkpt lat="43.6166835" lon="12.7749659"><ele>753.3333333333334</ele><time>2026-03-22T09:19:21.683Z</time></trkpt><trkpt lat="43.6165186" lon="12.7749854"><ele>754.0</ele><time>2026-03-22T09:19:22.68Z</time></trkpt><trkpt lat="43.6163466" lon="12.7749692"><ele>754.0</ele><time>2026-03-22T09:19:23.69Z</time></trkpt><trkpt lat="43.6162138" lon="12.7749673"><ele>754.0</ele><time>2026-03-22T09:19:24.683Z</time></trkpt><trkpt lat="43.6161464" lon="12.7750071"><ele>754.0</ele><time>2026-03-22T09:19:25.68Z</time></trkpt><trkpt lat="43.6161879" lon="12.7751056"><ele>754.0</ele><time>2026-03-22T09:19:41.672Z</time></trkpt><trkpt lat="43.6162797" lon="12.7751445"><ele>754.0</ele><time>2026-03-22T09:19:47.68Z</time></trkpt><trkpt lat="43.6162456" lon="12.7752671"><ele>754.0</ele><time>2026-03-22T09:19:54.68Z</time></trkpt><trkpt lat="43.6162369" lon="12.7753698"><ele>754.0</ele><time>2026-03-22T09:19:57.669Z</time></trkpt><trkpt lat="43.6161783" lon="12.7754288"><ele>754.0</ele><time>2026-03-22T09:20:25.674Z</time></trkpt><trkpt lat="43.6161154" lon="12.7753643"><ele>754.0</ele><time>2026-03-22T09:20:30.677Z</time></trkpt><trkpt lat="43.6161154" lon="12.7752699"><ele>754.0</ele><time>2026-03-22T09:20:31.674Z</time></trkpt><trkpt lat="43.6161388" lon="12.775145"><ele>754.0</ele><time>2026-03-22T09:20:32.695Z</time></trkpt><trkpt lat="43.6162132" lon="12.7751525"><ele>754.0</ele><time>2026-03-22T09:20:49.691Z</time></trkpt><trkpt lat="43.6162699" lon="12.7752036"><ele>754.0</ele><time>2026-03-22T09:21:33.662Z</time></trkpt><trkpt lat="43.6163394" lon="12.7752587"><ele>754.0</ele><time>2026-03-22T09:21:51.675Z</time></trkpt><trkpt lat="43.6163562" lon="12.775343"><ele>754.0</ele><time>2026-03-22T09:21:54.674Z</time></trkpt><trkpt lat="43.6162924" lon="12.7752886"><ele>754.0</ele><time>2026-03-22T09:21:57.672Z</time></trkpt><trkpt lat="43.6163569" lon="12.7752525"><ele>754.0</ele><time>2026-03-22T09:22:57.645Z</time></trkpt><trkpt lat="43.6164183" lon="12.7751412"><ele>754.0</ele><time>2026-03-22T09:23:11.639Z</time></trkpt><trkpt lat="43.6163637" lon="12.7750231"><ele>754.0</ele><time>2026-03-22T09:23:12.642Z</time></trkpt><trkpt lat="43.6163121" lon="12.7749098"><ele>754.0</ele><time>2026-03-22T09:23:13.64Z</time></trkpt><trkpt lat="43.6162522" lon="12.7749687"><ele>754.0</ele><time>2026-03-22T09:23:15.659Z</time></trkpt><trkpt lat="43.6162366" lon="12.7750808"><ele>754.0</ele><time>2026-03-22T09:23:43.659Z</time></trkpt><trkpt lat="43.6162734" lon="12.7752002"><ele>754.0</ele><time>2026-03-22T09:24:37.657Z</time></trkpt><trkpt lat="43.6163294" lon="12.7752808"><ele>753.9999999999999</ele><time>2026-03-22T09:24:40.671Z</time></trkpt><trkpt lat="43.6163256" lon="12.7753799"><ele>754.0</ele><time>2026-03-22T09:24:46.662Z</time></trkpt><trkpt lat="43.6162482" lon="12.7754067"><ele>754.0</ele><time>2026-03-22T09:25:00.678Z</time></trkpt><trkpt lat="43.616253" lon="12.7753091"><ele>754.0</ele><time>2026-03-22T09:25:11.674Z</time></trkpt><trkpt lat="43.6162668" lon="12.7752168"><ele>754.0</ele><time>2026-03-22T09:25:51.672Z</time></trkpt><trkpt lat="43.6162257" lon="12.7751265"><ele>753.9999999999999</ele><time>2026-03-22T09:25:53.646Z</time></trkpt><trkpt lat="43.6161579" lon="12.7750673"><ele>754.0</ele><time>2026-03-22T09:25:55.648Z</time></trkpt><trkpt lat="43.6161905" lon="12.7751644"><ele>754.0</ele><time>2026-03-22T09:28:45.679Z</time></trkpt><trkpt lat="43.6162685" lon="12.7751563"><ele>754.0</ele><time>2026-03-22T09:28:47.662Z</time></trkpt><trkpt lat="43.6163344" lon="12.77513"><ele>754.0</ele><time>2026-03-22T09:29:23.661Z</time></trkpt><trkpt lat="43.6164184" lon="12.7751558"><ele>754.0</ele><time>2026-03-22T09:29:28.659Z</time></trkpt><trkpt lat="43.6163542" lon="12.7752584"><ele>754.0</ele><time>2026-03-22T09:29:50.666Z</time></trkpt><trkpt lat="43.6164138" lon="12.7753254"><ele>754.0</ele><time>2026-03-22T09:29:52.659Z</time></trkpt><trkpt lat="43.6164071" lon="12.7752032"><ele>754.0</ele><time>2026-03-22T09:30:41.664Z</time></trkpt><trkpt lat="43.6163069" lon="12.7751884"><ele>754.0</ele><time>2026-03-22T09:30:51.661Z</time></trkpt><trkpt lat="43.6162023" lon="12.7751487"><ele>754.0</ele><time>2026-03-22T09:31:23.684Z</time></trkpt><trkpt lat="43.6161466" lon="12.7750993"><ele>754.0</ele><time>2026-03-22T09:31:24.686Z</time></trkpt><trkpt lat="43.6160898" lon="12.7750508"><ele>754.0</ele><time>2026-03-22T09:31:25.687Z</time></trkpt><trkpt lat="43.6160319" lon="12.7749883"><ele>754.0</ele><time>2026-03-22T09:31:26.679Z</time></trkpt><trkpt lat="43.6159803" lon="12.7749065"><ele>753.0</ele><time>2026-03-22T09:31:27.695Z</time></trkpt><trkpt lat="43.615939" lon="12.7747918"><ele>752.0</ele><time>2026-03-22T09:31:28.687Z</time></trkpt><trkpt lat="43.6159139" lon="12.774673"><ele>751.0</ele><time>2026-03-22T09:31:29.683Z</time></trkpt><trkpt lat="43.6159007" lon="12.7745525"><ele>750.0</ele><time>2026-03-22T09:31:30.695Z</time></trkpt><trkpt lat="43.6159165" lon="12.774415"><ele>749.0</ele><time>2026-03-22T09:31:31.699Z</time></trkpt><trkpt lat="43.6159461" lon="12.7742665"><ele>748.75</ele><time>2026-03-22T09:31:32.688Z</time></trkpt><trkpt lat="43.615988" lon="12.774111"><ele>748.5</ele><time>2026-03-22T09:31:33.676Z</time></trkpt><trkpt lat="43.6160243" lon="12.7739527"><ele>748.25</ele><time>2026-03-22T09:31:34.68Z</time></trkpt><trkpt lat="43.61605" lon="12.7737955"><ele>748.0</ele><time>2026-03-22T09:31:35.682Z</time></trkpt><trkpt lat="43.6160783" lon="12.7736507"><ele>748.0</ele><time>2026-03-22T09:31:36.688Z</time></trkpt><trkpt lat="43.6161199" lon="12.7735204"><ele>748.0</ele><time>2026-03-22T09:31:37.686Z</time></trkpt><trkpt lat="43.6161725" lon="12.7734047"><ele>748.0</ele><time>2026-03-22T09:31:38.687Z</time></trkpt><trkpt lat="43.6162383" lon="12.7733068"><ele>748.0</ele><time>2026-03-22T09:31:39.689Z</time></trkpt><trkpt lat="43.6163167" lon="12.7732466"><ele>748.0</ele><time>2026-03-22T09:31:40.686Z</time></trkpt><trkpt lat="43.6164067" lon="12.7732266"><ele>752.0</ele><time>2026-03-22T09:31:41.683Z</time></trkpt><trkpt lat="43.6165129" lon="12.7732203"><ele>756.0</ele><time>2026-03-22T09:31:42.68Z</time></trkpt><trkpt lat="43.6166244" lon="12.7732359"><ele>760.0</ele><time>2026-03-22T09:31:43.683Z</time></trkpt><trkpt lat="43.6167432" lon="12.7732622"><ele>764.0</ele><time>2026-03-22T09:31:44.676Z</time></trkpt><trkpt lat="43.616864" lon="12.7732904"><ele>764.0</ele><time>2026-03-22T09:31:45.681Z</time></trkpt><trkpt lat="43.6169845" lon="12.7733172"><ele>764.0</ele><time>2026-03-22T09:31:46.679Z</time></trkpt><trkpt lat="43.6171065" lon="12.7733362"><ele>764.0</ele><time>2026-03-22T09:31:47.678Z</time></trkpt><trkpt lat="43.6172259" lon="12.7733473"><ele>764.0</ele><time>2026-03-22T09:31:48.684Z</time></trkpt><trkpt lat="43.617342" lon="12.7733554"><ele>765.2</ele><time>2026-03-22T09:31:49.679Z</time></trkpt><trkpt lat="43.617456" lon="12.7733761"><ele>766.4000000000001</ele><time>2026-03-22T09:31:50.679Z</time></trkpt><trkpt lat="43.6175616" lon="12.7733886"><ele>767.6</ele><time>2026-03-22T09:31:51.691Z</time></trkpt><trkpt lat="43.6176607" lon="12.7734079"><ele>768.8</ele><time>2026-03-22T09:31:52.677Z</time></trkpt><trkpt lat="43.617757" lon="12.7734343"><ele>770.0</ele><time>2026-03-22T09:31:53.682Z</time></trkpt><trkpt lat="43.6178356" lon="12.7734594"><ele>770.3333333333334</ele><time>2026-03-22T09:31:54.682Z</time></trkpt><trkpt lat="43.6179091" lon="12.7734799"><ele>770.6666666666667</ele><time>2026-03-22T09:31:55.678Z</time></trkpt><trkpt lat="43.6179786" lon="12.7734788"><ele>771.0</ele><time>2026-03-22T09:31:56.685Z</time></trkpt><trkpt lat="43.6180883" lon="12.7734164"><ele>771.3333333333333</ele><time>2026-03-22T09:31:58.679Z</time></trkpt><trkpt lat="43.6180985" lon="12.7733282"><ele>771.6666666666666</ele><time>2026-03-22T09:32:01.682Z</time></trkpt><trkpt lat="43.6181468" lon="12.7732268"><ele>772.0</ele><time>2026-03-22T09:32:05.663Z</time></trkpt><trkpt lat="43.6182393" lon="12.7732143"><ele>772.0</ele><time>2026-03-22T09:32:09.676Z</time></trkpt><trkpt lat="43.6183045" lon="12.7731616"><ele>772.0</ele><time>2026-03-22T09:32:13.682Z</time></trkpt><trkpt lat="43.6183846" lon="12.7731894"><ele>772.0</ele><time>2026-03-22T09:32:16.673Z</time></trkpt><trkpt lat="43.6185036" lon="12.7730715"><ele>772.0</ele><time>2026-03-22T09:32:18.663Z</time></trkpt><trkpt lat="43.6185937" lon="12.7730193"><ele>772.0</ele><time>2026-03-22T09:32:19.668Z</time></trkpt><trkpt lat="43.6186799" lon="12.772985"><ele>770.3333333333333</ele><time>2026-03-22T09:32:20.669Z</time></trkpt><trkpt lat="43.6187457" lon="12.7729508"><ele>768.6666666666666</ele><time>2026-03-22T09:32:21.669Z</time></trkpt><trkpt lat="43.6188151" lon="12.7729453"><ele>767.0</ele><time>2026-03-22T09:32:22.689Z</time></trkpt><trkpt lat="43.6189016" lon="12.772942"><ele>765.3333333333333</ele><time>2026-03-22T09:32:23.677Z</time></trkpt><trkpt lat="43.6189876" lon="12.7729717"><ele>763.6666666666666</ele><time>2026-03-22T09:32:24.677Z</time></trkpt><trkpt lat="43.6190495" lon="12.7730889"><ele>762.0</ele><time>2026-03-22T09:32:26.679Z</time></trkpt><trkpt lat="43.6191449" lon="12.7731056"><ele>762.0</ele><time>2026-03-22T09:32:28.672Z</time></trkpt><trkpt lat="43.6192691" lon="12.773151"><ele>762.0</ele><time>2026-03-22T09:32:30.678Z</time></trkpt><trkpt lat="43.6193963" lon="12.7731599"><ele>762.0</ele><time>2026-03-22T09:32:31.675Z</time></trkpt><trkpt lat="43.6195204" lon="12.7731209"><ele>762.0</ele><time>2026-03-22T09:32:32.675Z</time></trkpt><trkpt lat="43.6196228" lon="12.7731121"><ele>763.1666666666666</ele><time>2026-03-22T09:32:33.665Z</time></trkpt><trkpt lat="43.6196921" lon="12.7731619"><ele>764.3333333333333</ele><time>2026-03-22T09:32:34.667Z</time></trkpt><trkpt lat="43.6197885" lon="12.7732313"><ele>765.5</ele><time>2026-03-22T09:32:35.661Z</time></trkpt><trkpt lat="43.6198851" lon="12.7732906"><ele>766.6666666666666</ele><time>2026-03-22T09:32:36.667Z</time></trkpt><trkpt lat="43.6199517" lon="12.7733309"><ele>767.8333333333333</ele><time>2026-03-22T09:32:37.662Z</time></trkpt><trkpt lat="43.6200171" lon="12.7733676"><ele>769.0</ele><time>2026-03-22T09:32:38.663Z</time></trkpt><trkpt lat="43.6200838" lon="12.7734081"><ele>768.9999999999999</ele><time>2026-03-22T09:32:39.666Z</time></trkpt><trkpt lat="43.620146" lon="12.7734674"><ele>769.0</ele><time>2026-03-22T09:32:40.661Z</time></trkpt><trkpt lat="43.6202163" lon="12.7735392"><ele>769.0</ele><time>2026-03-22T09:32:41.664Z</time></trkpt><trkpt lat="43.6202826" lon="12.7736025"><ele>769.0</ele><time>2026-03-22T09:32:42.666Z</time></trkpt><trkpt lat="43.6203637" lon="12.7736395"><ele>768.9999999999999</ele><time>2026-03-22T09:32:43.666Z</time></trkpt><trkpt lat="43.6204479" lon="12.7736784"><ele>769.0</ele><time>2026-03-22T09:32:44.663Z</time></trkpt><trkpt lat="43.6205289" lon="12.7737346"><ele>767.8000000000001</ele><time>2026-03-22T09:32:45.668Z</time></trkpt><trkpt lat="43.6206133" lon="12.7737983"><ele>766.6</ele><time>2026-03-22T09:32:46.674Z</time></trkpt><trkpt lat="43.6207145" lon="12.7738538"><ele>765.4</ele><time>2026-03-22T09:32:47.678Z</time></trkpt><trkpt lat="43.6208258" lon="12.7738974"><ele>764.2</ele><time>2026-03-22T09:32:48.679Z</time></trkpt><trkpt lat="43.6209225" lon="12.7739562"><ele>763.0</ele><time>2026-03-22T09:32:49.676Z</time></trkpt><trkpt lat="43.6210204" lon="12.774006"><ele>763.0</ele><time>2026-03-22T09:32:50.673Z</time></trkpt><trkpt lat="43.6211197" lon="12.7740568"><ele>763.0</ele><time>2026-03-22T09:32:51.678Z</time></trkpt><trkpt lat="43.6212156" lon="12.7741076"><ele>763.0</ele><time>2026-03-22T09:32:52.673Z</time></trkpt><trkpt lat="43.6213277" lon="12.7741424"><ele>763.0</ele><time>2026-03-22T09:32:53.693Z</time></trkpt><trkpt lat="43.6214402" lon="12.7741679"><ele>763.0</ele><time>2026-03-22T09:32:54.67Z</time></trkpt><trkpt lat="43.6215515" lon="12.7741862"><ele>763.5999999999999</ele><time>2026-03-22T09:32:55.681Z</time></trkpt><trkpt lat="43.621664" lon="12.7742087"><ele>764.1999999999999</ele><time>2026-03-22T09:32:56.683Z</time></trkpt><trkpt lat="43.6217683" lon="12.7742264"><ele>764.8</ele><time>2026-03-22T09:32:57.673Z</time></trkpt><trkpt lat="43.6218738" lon="12.7742665"><ele>765.4</ele><time>2026-03-22T09:32:58.676Z</time></trkpt><trkpt lat="43.6219838" lon="12.7743042"><ele>766.0</ele><time>2026-03-22T09:32:59.675Z</time></trkpt><trkpt lat="43.622101" lon="12.7743351"><ele>766.5</ele><time>2026-03-22T09:33:00.669Z</time></trkpt><trkpt lat="43.6222196" lon="12.7743497"><ele>767.0</ele><time>2026-03-22T09:33:01.677Z</time></trkpt><trkpt lat="43.6223437" lon="12.7743513"><ele>767.5</ele><time>2026-03-22T09:33:02.683Z</time></trkpt><trkpt lat="43.622464" lon="12.7743283"><ele>768.0</ele><time>2026-03-22T09:33:03.681Z</time></trkpt><trkpt lat="43.6225907" lon="12.7743326"><ele>768.0</ele><time>2026-03-22T09:33:04.663Z</time></trkpt><trkpt lat="43.622719" lon="12.774309"><ele>768.0</ele><time>2026-03-22T09:33:05.671Z</time></trkpt><trkpt lat="43.622835" lon="12.7742934"><ele>768.0</ele><time>2026-03-22T09:33:06.667Z</time></trkpt><trkpt lat="43.6229401" lon="12.7742647"><ele>768.0</ele><time>2026-03-22T09:33:07.678Z</time></trkpt><trkpt lat="43.6230392" lon="12.7742222"><ele>766.2</ele><time>2026-03-22T09:33:08.67Z</time></trkpt><trkpt lat="43.6231329" lon="12.7741817"><ele>764.4</ele><time>2026-03-22T09:33:09.68Z</time></trkpt><trkpt lat="43.6232285" lon="12.7741202"><ele>762.6</ele><time>2026-03-22T09:33:10.682Z</time></trkpt><trkpt lat="43.6233034" lon="12.7740113"><ele>760.8000000000001</ele><time>2026-03-22T09:33:11.671Z</time></trkpt><trkpt lat="43.6233669" lon="12.7738962"><ele>759.0</ele><time>2026-03-22T09:33:12.674Z</time></trkpt><trkpt lat="43.6234317" lon="12.7737804"><ele>759.0</ele><time>2026-03-22T09:33:13.669Z</time></trkpt><trkpt lat="43.6234941" lon="12.7736661"><ele>759.0</ele><time>2026-03-22T09:33:14.67Z</time></trkpt><trkpt lat="43.6235614" lon="12.7735633"><ele>759.0</ele><time>2026-03-22T09:33:15.683Z</time></trkpt><trkpt lat="43.6236329" lon="12.7735032"><ele>759.0</ele><time>2026-03-22T09:33:16.672Z</time></trkpt><trkpt lat="43.6237032" lon="12.7735016"><ele>759.0</ele><time>2026-03-22T09:33:17.663Z</time></trkpt><trkpt lat="43.6237708" lon="12.7735142"><ele>759.0</ele><time>2026-03-22T09:33:18.67Z</time></trkpt><trkpt lat="43.6238649" lon="12.7735371"><ele>758.5</ele><time>2026-03-22T09:33:19.666Z</time></trkpt><trkpt lat="43.6239796" lon="12.7735507"><ele>758.0</ele><time>2026-03-22T09:33:20.668Z</time></trkpt><trkpt lat="43.6241103" lon="12.7735698"><ele>757.5</ele><time>2026-03-22T09:33:21.664Z</time></trkpt><trkpt lat="43.6242367" lon="12.7735762"><ele>757.0</ele><time>2026-03-22T09:33:22.657Z</time></trkpt><trkpt lat="43.6243658" lon="12.7735767"><ele>758.0</ele><time>2026-03-22T09:33:23.669Z</time></trkpt><trkpt lat="43.6244879" lon="12.7735599"><ele>759.0</ele><time>2026-03-22T09:33:24.661Z</time></trkpt><trkpt lat="43.6246307" lon="12.7735248"><ele>760.0</ele><time>2026-03-22T09:33:25.662Z</time></trkpt><trkpt lat="43.6247326" lon="12.7735037"><ele>761.0</ele><time>2026-03-22T09:33:26.66Z</time></trkpt><trkpt lat="43.6248014" lon="12.77346"><ele>762.0</ele><time>2026-03-22T09:33:27.658Z</time></trkpt><trkpt lat="43.6248654" lon="12.7734049"><ele>762.0</ele><time>2026-03-22T09:33:28.659Z</time></trkpt><trkpt lat="43.6249156" lon="12.7733237"><ele>762.0</ele><time>2026-03-22T09:33:29.656Z</time></trkpt><trkpt lat="43.6249502" lon="12.773228"><ele>762.0</ele><time>2026-03-22T09:33:30.652Z</time></trkpt><trkpt lat="43.6249774" lon="12.7731399"><ele>762.0</ele><time>2026-03-22T09:33:31.65Z</time></trkpt><trkpt lat="43.6250138" lon="12.7729969"><ele>762.0</ele><time>2026-03-22T09:33:33.649Z</time></trkpt><trkpt lat="43.6251049" lon="12.7729461"><ele>762.0</ele><time>2026-03-22T09:33:35.656Z</time></trkpt><trkpt lat="43.6251841" lon="12.7729604"><ele>762.0</ele><time>2026-03-22T09:33:36.661Z</time></trkpt><trkpt lat="43.6252779" lon="12.7730052"><ele>762.0</ele><time>2026-03-22T09:33:37.659Z</time></trkpt><trkpt lat="43.6253822" lon="12.773023"><ele>762.0</ele><time>2026-03-22T09:33:38.667Z</time></trkpt><trkpt lat="43.6254867" lon="12.7730011"><ele>762.0</ele><time>2026-03-22T09:33:39.673Z</time></trkpt><trkpt lat="43.6255834" lon="12.7729217"><ele>762.0</ele><time>2026-03-22T09:33:40.664Z</time></trkpt><trkpt lat="43.6256781" lon="12.7728229"><ele>761.6</ele><time>2026-03-22T09:33:41.668Z</time></trkpt><trkpt lat="43.6257487" lon="12.772711"><ele>761.2</ele><time>2026-03-22T09:33:42.668Z</time></trkpt><trkpt lat="43.6257853" lon="12.7725897"><ele>760.8</ele><time>2026-03-22T09:33:43.67Z</time></trkpt><trkpt lat="43.6257996" lon="12.7724495"><ele>760.4</ele><time>2026-03-22T09:33:44.663Z</time></trkpt><trkpt lat="43.6258101" lon="12.7723187"><ele>760.0</ele><time>2026-03-22T09:33:45.663Z</time></trkpt><trkpt lat="43.625824" lon="12.7721815"><ele>760.0</ele><time>2026-03-22T09:33:46.664Z</time></trkpt><trkpt lat="43.6258563" lon="12.7720401"><ele>760.0</ele><time>2026-03-22T09:33:47.669Z</time></trkpt><trkpt lat="43.6258995" lon="12.7719135"><ele>760.0</ele><time>2026-03-22T09:33:48.668Z</time></trkpt><trkpt lat="43.6259578" lon="12.771778"><ele>760.0</ele><time>2026-03-22T09:33:49.667Z</time></trkpt><trkpt lat="43.6260054" lon="12.7716288"><ele>760.0</ele><time>2026-03-22T09:33:50.662Z</time></trkpt><trkpt lat="43.6260466" lon="12.7714847"><ele>762.1666666666667</ele><time>2026-03-22T09:33:51.658Z</time></trkpt><trkpt lat="43.6260836" lon="12.7713459"><ele>764.3333333333334</ele><time>2026-03-22T09:33:52.667Z</time></trkpt><trkpt lat="43.6260931" lon="12.7712226"><ele>766.5</ele><time>2026-03-22T09:33:53.661Z</time></trkpt><trkpt lat="43.6260871" lon="12.7711013"><ele>768.6666666666667</ele><time>2026-03-22T09:33:54.666Z</time></trkpt><trkpt lat="43.6260736" lon="12.7709808"><ele>770.8333333333334</ele><time>2026-03-22T09:33:55.655Z</time></trkpt><trkpt lat="43.6260659" lon="12.7708789"><ele>773.0</ele><time>2026-03-22T09:33:56.662Z</time></trkpt><trkpt lat="43.6260692" lon="12.7707787"><ele>774.5000000000001</ele><time>2026-03-22T09:33:57.663Z</time></trkpt><trkpt lat="43.6261031" lon="12.770694"><ele>776.0</ele><time>2026-03-22T09:33:58.664Z</time></trkpt><trkpt lat="43.6261556" lon="12.770621"><ele>777.5</ele><time>2026-03-22T09:33:59.665Z</time></trkpt><trkpt lat="43.6262718" lon="12.7706016"><ele>779.0</ele><time>2026-03-22T09:34:01.656Z</time></trkpt><trkpt lat="43.6263324" lon="12.7706751"><ele>780.5000000000001</ele><time>2026-03-22T09:34:02.659Z</time></trkpt><trkpt lat="43.6263557" lon="12.7707761"><ele>782.0</ele><time>2026-03-22T09:34:03.663Z</time></trkpt><trkpt lat="43.6263767" lon="12.7709243"><ele>777.6666666666667</ele><time>2026-03-22T09:34:04.655Z</time></trkpt><trkpt lat="43.6264269" lon="12.7710981"><ele>773.3333333333333</ele><time>2026-03-22T09:34:05.669Z</time></trkpt><trkpt lat="43.6265151" lon="12.7713"><ele>769.0</ele><time>2026-03-22T09:34:06.661Z</time></trkpt><trkpt lat="43.6266125" lon="12.7715373"><ele>769.0</ele><time>2026-03-22T09:34:07.652Z</time></trkpt><trkpt lat="43.6266923" lon="12.7717869"><ele>769.0</ele><time>2026-03-22T09:34:08.662Z</time></trkpt><trkpt lat="43.6267354" lon="12.7720398"><ele>769.0</ele><time>2026-03-22T09:34:09.656Z</time></trkpt><trkpt lat="43.6267736" lon="12.7722662"><ele>770.25</ele><time>2026-03-22T09:34:10.661Z</time></trkpt><trkpt lat="43.6268172" lon="12.7724253"><ele>771.5</ele><time>2026-03-22T09:34:11.666Z</time></trkpt><trkpt lat="43.6268868" lon="12.772578"><ele>772.75</ele><time>2026-03-22T09:34:13.654Z</time></trkpt><trkpt lat="43.6269619" lon="12.7727421"><ele>774.0</ele><time>2026-03-22T09:34:15.674Z</time></trkpt><trkpt lat="43.6270272" lon="12.7728331"><ele>774.0</ele><time>2026-03-22T09:34:16.672Z</time></trkpt><trkpt lat="43.6271307" lon="12.77297"><ele>774.0</ele><time>2026-03-22T09:34:17.651Z</time></trkpt><trkpt lat="43.6272549" lon="12.7731266"><ele>774.0</ele><time>2026-03-22T09:34:18.659Z</time></trkpt><trkpt lat="43.6273872" lon="12.7732615"><ele>774.0</ele><time>2026-03-22T09:34:19.655Z</time></trkpt><trkpt lat="43.6275113" lon="12.7734151"><ele>774.0</ele><time>2026-03-22T09:34:20.654Z</time></trkpt><trkpt lat="43.6276301" lon="12.7735574"><ele>774.0</ele><time>2026-03-22T09:34:21.656Z</time></trkpt><trkpt lat="43.6277558" lon="12.7736837"><ele>774.6666666666667</ele><time>2026-03-22T09:34:22.662Z</time></trkpt><trkpt lat="43.6278982" lon="12.7738225"><ele>775.3333333333334</ele><time>2026-03-22T09:34:23.66Z</time></trkpt><trkpt lat="43.6280275" lon="12.7739728"><ele>776.0</ele><time>2026-03-22T09:34:24.658Z</time></trkpt><trkpt lat="43.6281505" lon="12.7740988"><ele>776.0</ele><time>2026-03-22T09:34:25.667Z</time></trkpt><trkpt lat="43.6282772" lon="12.7742219"><ele>776.0</ele><time>2026-03-22T09:34:26.663Z</time></trkpt><trkpt lat="43.628397" lon="12.7743497"><ele>776.0</ele><time>2026-03-22T09:34:27.663Z</time></trkpt><trkpt lat="43.6285264" lon="12.7744301"><ele>776.0</ele><time>2026-03-22T09:34:28.66Z</time></trkpt><trkpt lat="43.6286437" lon="12.7744848"><ele>773.5</ele><time>2026-03-22T09:34:29.662Z</time></trkpt><trkpt lat="43.6287518" lon="12.7745204"><ele>771.0</ele><time>2026-03-22T09:34:30.659Z</time></trkpt><trkpt lat="43.6288768" lon="12.7745358"><ele>768.5</ele><time>2026-03-22T09:34:31.655Z</time></trkpt><trkpt lat="43.6290234" lon="12.7745508"><ele>766.0</ele><time>2026-03-22T09:34:32.649Z</time></trkpt><trkpt lat="43.6291763" lon="12.7745376"><ele>766.0</ele><time>2026-03-22T09:34:33.651Z</time></trkpt><trkpt lat="43.6293023" lon="12.7745318"><ele>766.0</ele><time>2026-03-22T09:34:34.663Z</time></trkpt><trkpt lat="43.6294004" lon="12.7745558"><ele>766.0</ele><time>2026-03-22T09:34:35.663Z</time></trkpt><trkpt lat="43.6294958" lon="12.7745134"><ele>766.0</ele><time>2026-03-22T09:34:36.664Z</time></trkpt><trkpt lat="43.6295915" lon="12.774482"><ele>766.0</ele><time>2026-03-22T09:34:37.655Z</time></trkpt><trkpt lat="43.6297027" lon="12.7744419"><ele>770.75</ele><time>2026-03-22T09:34:38.642Z</time></trkpt><trkpt lat="43.629788" lon="12.7743498"><ele>775.5</ele><time>2026-03-22T09:34:39.652Z</time></trkpt><trkpt lat="43.6298879" lon="12.774265"><ele>780.25</ele><time>2026-03-22T09:34:40.639Z</time></trkpt><trkpt lat="43.6300481" lon="12.7741895"><ele>785.0</ele><time>2026-03-22T09:34:41.649Z</time></trkpt><trkpt lat="43.6301898" lon="12.7740901"><ele>785.0</ele><time>2026-03-22T09:34:42.652Z</time></trkpt><trkpt lat="43.6303" lon="12.7739808"><ele>785.0</ele><time>2026-03-22T09:34:43.652Z</time></trkpt><trkpt lat="43.6303998" lon="12.7738921"><ele>785.0</ele><time>2026-03-22T09:34:44.656Z</time></trkpt><trkpt lat="43.630506" lon="12.7738225"><ele>785.0</ele><time>2026-03-22T09:34:45.655Z</time></trkpt><trkpt lat="43.6306324" lon="12.7737866"><ele>784.25</ele><time>2026-03-22T09:34:46.65Z</time></trkpt><trkpt lat="43.630766" lon="12.773758"><ele>783.5</ele><time>2026-03-22T09:34:47.65Z</time></trkpt><trkpt lat="43.6308958" lon="12.7737366"><ele>782.75</ele><time>2026-03-22T09:34:48.658Z</time></trkpt><trkpt lat="43.6310003" lon="12.7737001"><ele>782.0</ele><time>2026-03-22T09:34:49.652Z</time></trkpt><trkpt lat="43.631101" lon="12.7736519"><ele>780.75</ele><time>2026-03-22T09:34:50.655Z</time></trkpt><trkpt lat="43.6312063" lon="12.7735826"><ele>779.5</ele><time>2026-03-22T09:34:51.663Z</time></trkpt><trkpt lat="43.6313088" lon="12.7735069"><ele>778.25</ele><time>2026-03-22T09:34:52.66Z</time></trkpt><trkpt lat="43.6314069" lon="12.7734331"><ele>777.0</ele><time>2026-03-22T09:34:53.657Z</time></trkpt><trkpt lat="43.631511" lon="12.7733779"><ele>779.2</ele><time>2026-03-22T09:34:54.668Z</time></trkpt><trkpt lat="43.6316001" lon="12.7733516"><ele>781.4000000000001</ele><time>2026-03-22T09:34:55.663Z</time></trkpt><trkpt lat="43.6317067" lon="12.773308"><ele>783.5999999999999</ele><time>2026-03-22T09:34:57.671Z</time></trkpt><trkpt lat="43.6317492" lon="12.7731372"><ele>785.8</ele><time>2026-03-22T09:34:59.664Z</time></trkpt><trkpt lat="43.6317458" lon="12.7730161"><ele>788.0</ele><time>2026-03-22T09:35:00.666Z</time></trkpt><trkpt lat="43.6317259" lon="12.7728894"><ele>788.0</ele><time>2026-03-22T09:35:01.661Z</time></trkpt><trkpt lat="43.6316791" lon="12.7727492"><ele>788.0</ele><time>2026-03-22T09:35:02.663Z</time></trkpt><trkpt lat="43.6316331" lon="12.7725985"><ele>788.0</ele><time>2026-03-22T09:35:03.657Z</time></trkpt><trkpt lat="43.6315915" lon="12.7724491"><ele>788.0</ele><time>2026-03-22T09:35:04.66Z</time></trkpt><trkpt lat="43.6315567" lon="12.7723061"><ele>788.75</ele><time>2026-03-22T09:35:05.654Z</time></trkpt><trkpt lat="43.6315405" lon="12.7721481"><ele>789.5</ele><time>2026-03-22T09:35:06.663Z</time></trkpt><trkpt lat="43.6315278" lon="12.771991"><ele>790.25</ele><time>2026-03-22T09:35:07.661Z</time></trkpt><trkpt lat="43.6315186" lon="12.7717945"><ele>791.0</ele><time>2026-03-22T09:35:08.65Z</time></trkpt><trkpt lat="43.6314921" lon="12.7715974"><ele>791.3333333333334</ele><time>2026-03-22T09:35:09.653Z</time></trkpt><trkpt lat="43.6314392" lon="12.7713574"><ele>791.6666666666667</ele><time>2026-03-22T09:35:10.654Z</time></trkpt><trkpt lat="43.6313944" lon="12.7711401"><ele>792.0</ele><time>2026-03-22T09:35:11.657Z</time></trkpt><trkpt lat="43.6313384" lon="12.7709122"><ele>792.0</ele><time>2026-03-22T09:35:12.648Z</time></trkpt><trkpt lat="43.6312722" lon="12.7707152"><ele>792.0</ele><time>2026-03-22T09:35:13.646Z</time></trkpt><trkpt lat="43.6311989" lon="12.7704886"><ele>792.0</ele><time>2026-03-22T09:35:14.654Z</time></trkpt><trkpt lat="43.631202" lon="12.7702985"><ele>802.6666666666667</ele><time>2026-03-22T09:35:15.653Z</time></trkpt><trkpt lat="43.6311005" lon="12.7701014"><ele>813.3333333333334</ele><time>2026-03-22T09:35:16.651Z</time></trkpt><trkpt lat="43.6310094" lon="12.769897"><ele>824.0</ele><time>2026-03-22T09:35:17.655Z</time></trkpt><trkpt lat="43.6309993" lon="12.7697182"><ele>824.0000000000001</ele><time>2026-03-22T09:35:19.651Z</time></trkpt><trkpt lat="43.6309753" lon="12.7695878"><ele>824.0</ele><time>2026-03-22T09:35:20.65Z</time></trkpt><trkpt lat="43.6309557" lon="12.7694875"><ele>824.0</ele><time>2026-03-22T09:35:21.652Z</time></trkpt><trkpt lat="43.6309155" lon="12.7693888"><ele>824.0</ele><time>2026-03-22T09:35:22.66Z</time></trkpt><trkpt lat="43.6309327" lon="12.7692887"><ele>824.0000000000001</ele><time>2026-03-22T09:35:23.668Z</time></trkpt><trkpt lat="43.6309803" lon="12.7692169"><ele>824.0</ele><time>2026-03-22T09:35:24.674Z</time></trkpt><trkpt lat="43.6310185" lon="12.7690821"><ele>823.4000000000001</ele><time>2026-03-22T09:35:26.668Z</time></trkpt><trkpt lat="43.6310586" lon="12.7689468"><ele>822.8</ele><time>2026-03-22T09:35:27.672Z</time></trkpt><trkpt lat="43.6311118" lon="12.7688848"><ele>822.2</ele><time>2026-03-22T09:35:28.659Z</time></trkpt><trkpt lat="43.6311328" lon="12.7687482"><ele>821.5999999999999</ele><time>2026-03-22T09:35:29.651Z</time></trkpt><trkpt lat="43.6311306" lon="12.768616"><ele>821.0</ele><time>2026-03-22T09:35:30.648Z</time></trkpt><trkpt lat="43.6311428" lon="12.7684443"><ele>821.0</ele><time>2026-03-22T09:35:31.661Z</time></trkpt><trkpt lat="43.6312111" lon="12.7683033"><ele>821.0</ele><time>2026-03-22T09:35:32.656Z</time></trkpt><trkpt lat="43.6312508" lon="12.7681417"><ele>821.0</ele><time>2026-03-22T09:35:33.657Z</time></trkpt><trkpt lat="43.6312529" lon="12.7679978"><ele>821.0</ele><time>2026-03-22T09:35:34.665Z</time></trkpt><trkpt lat="43.6312656" lon="12.7678678"><ele>821.0</ele><time>2026-03-22T09:35:35.664Z</time></trkpt><trkpt lat="43.6312912" lon="12.7677156"><ele>824.25</ele><time>2026-03-22T09:35:36.67Z</time></trkpt><trkpt lat="43.6313133" lon="12.7676016"><ele>827.5</ele><time>2026-03-22T09:35:37.664Z</time></trkpt><trkpt lat="43.6313871" lon="12.7674813"><ele>830.75</ele><time>2026-03-22T09:35:38.669Z</time></trkpt><trkpt lat="43.6315099" lon="12.7673705"><ele>834.0</ele><time>2026-03-22T09:35:39.667Z</time></trkpt><trkpt lat="43.6316311" lon="12.7672093"><ele>834.0</ele><time>2026-03-22T09:35:40.663Z</time></trkpt><trkpt lat="43.6317419" lon="12.76706"><ele>834.0</ele><time>2026-03-22T09:35:41.661Z</time></trkpt><trkpt lat="43.6318571" lon="12.7669191"><ele>834.0</ele><time>2026-03-22T09:35:42.657Z</time></trkpt><trkpt lat="43.6319614" lon="12.7667821"><ele>831.25</ele><time>2026-03-22T09:35:43.661Z</time></trkpt><trkpt lat="43.632052" lon="12.7666406"><ele>828.5</ele><time>2026-03-22T09:35:44.664Z</time></trkpt><trkpt lat="43.6321413" lon="12.7665199"><ele>825.75</ele><time>2026-03-22T09:35:45.671Z</time></trkpt><trkpt lat="43.632187" lon="12.7663975"><ele>823.0</ele><time>2026-03-22T09:35:46.665Z</time></trkpt><trkpt lat="43.6322212" lon="12.766284"><ele>823.0</ele><time>2026-03-22T09:35:47.675Z</time></trkpt><trkpt lat="43.6322325" lon="12.7661433"><ele>823.0</ele><time>2026-03-22T09:35:49.671Z</time></trkpt><trkpt lat="43.632195" lon="12.7660047"><ele>823.0</ele><time>2026-03-22T09:35:51.677Z</time></trkpt><trkpt lat="43.6321886" lon="12.7659111"><ele>823.0</ele><time>2026-03-22T09:35:52.678Z</time></trkpt><trkpt lat="43.6321836" lon="12.7658007"><ele>823.0</ele><time>2026-03-22T09:35:53.676Z</time></trkpt><trkpt lat="43.6321732" lon="12.7656737"><ele>822.5999999999999</ele><time>2026-03-22T09:35:54.673Z</time></trkpt><trkpt lat="43.6321532" lon="12.7655306"><ele>822.1999999999999</ele><time>2026-03-22T09:35:55.665Z</time></trkpt><trkpt lat="43.6321364" lon="12.7653846"><ele>821.8</ele><time>2026-03-22T09:35:56.663Z</time></trkpt><trkpt lat="43.6321141" lon="12.7652294"><ele>821.4</ele><time>2026-03-22T09:35:57.662Z</time></trkpt><trkpt lat="43.6320886" lon="12.7650718"><ele>821.0</ele><time>2026-03-22T09:35:58.67Z</time></trkpt><trkpt lat="43.6320713" lon="12.7649256"><ele>820.8</ele><time>2026-03-22T09:35:59.655Z</time></trkpt><trkpt lat="43.6320574" lon="12.7647709"><ele>820.5999999999999</ele><time>2026-03-22T09:36:00.659Z</time></trkpt><trkpt lat="43.6320475" lon="12.7646355"><ele>820.4</ele><time>2026-03-22T09:36:01.662Z</time></trkpt><trkpt lat="43.6320421" lon="12.7645131"><ele>820.2</ele><time>2026-03-22T09:36:02.659Z</time></trkpt><trkpt lat="43.6320342" lon="12.7644025"><ele>820.0</ele><time>2026-03-22T09:36:03.655Z</time></trkpt><trkpt lat="43.632034" lon="12.7643018"><ele>820.0</ele><time>2026-03-22T09:36:04.651Z</time></trkpt><trkpt lat="43.6320752" lon="12.76419"><ele>820.0</ele><time>2026-03-22T09:36:06.653Z</time></trkpt><trkpt lat="43.6322162" lon="12.7642259"><ele>820.0</ele><time>2026-03-22T09:36:08.657Z</time></trkpt><trkpt lat="43.6323613" lon="12.7643285"><ele>820.0</ele><time>2026-03-22T09:36:09.676Z</time></trkpt><trkpt lat="43.6325037" lon="12.7644476"><ele>820.0</ele><time>2026-03-22T09:36:10.658Z</time></trkpt><trkpt lat="43.632638" lon="12.7645496"><ele>820.0</ele><time>2026-03-22T09:36:11.667Z</time></trkpt><trkpt lat="43.6327759" lon="12.7645788"><ele>820.0</ele><time>2026-03-22T09:36:12.669Z</time></trkpt><trkpt lat="43.6328606" lon="12.76459"><ele>820.0</ele><time>2026-03-22T09:36:13.668Z</time></trkpt><trkpt lat="43.6329264" lon="12.7644601"><ele>820.0</ele><time>2026-03-22T09:36:14.667Z</time></trkpt><trkpt lat="43.6329965" lon="12.7643139"><ele>820.0</ele><time>2026-03-22T09:36:15.671Z</time></trkpt><trkpt lat="43.633047" lon="12.7641816"><ele>820.0</ele><time>2026-03-22T09:36:16.663Z</time></trkpt><trkpt lat="43.6330914" lon="12.764041"><ele>820.0</ele><time>2026-03-22T09:36:17.667Z</time></trkpt><trkpt lat="43.6331287" lon="12.7639351"><ele>820.0</ele><time>2026-03-22T09:36:18.667Z</time></trkpt><trkpt lat="43.6331544" lon="12.7638331"><ele>820.0</ele><time>2026-03-22T09:36:19.659Z</time></trkpt><trkpt lat="43.6332072" lon="12.7637135"><ele>820.0</ele><time>2026-03-22T09:36:20.653Z</time></trkpt><trkpt lat="43.6332509" lon="12.7636106"><ele>820.0</ele><time>2026-03-22T09:36:21.657Z</time></trkpt><trkpt lat="43.6332933" lon="12.7634803"><ele>820.0</ele><time>2026-03-22T09:36:22.66Z</time></trkpt><trkpt lat="43.6333187" lon="12.7633497"><ele>820.0</ele><time>2026-03-22T09:36:23.657Z</time></trkpt><trkpt lat="43.6333319" lon="12.7632322"><ele>821.3333333333333</ele><time>2026-03-22T09:36:24.652Z</time></trkpt><trkpt lat="43.6333606" lon="12.7631338"><ele>822.6666666666666</ele><time>2026-03-22T09:36:25.658Z</time></trkpt><trkpt lat="43.6333747" lon="12.7630251"><ele>824.0</ele><time>2026-03-22T09:36:26.659Z</time></trkpt><trkpt lat="43.6333802" lon="12.7628998"><ele>825.3333333333333</ele><time>2026-03-22T09:36:27.657Z</time></trkpt><trkpt lat="43.6334178" lon="12.7627935"><ele>826.6666666666666</ele><time>2026-03-22T09:36:28.656Z</time></trkpt><trkpt lat="43.6334315" lon="12.7626667"><ele>828.0</ele><time>2026-03-22T09:36:29.663Z</time></trkpt><trkpt lat="43.6334713" lon="12.7625656"><ele>826.25</ele><time>2026-03-22T09:36:30.652Z</time></trkpt><trkpt lat="43.6335568" lon="12.7624834"><ele>824.5</ele><time>2026-03-22T09:36:31.654Z</time></trkpt><trkpt lat="43.6336584" lon="12.7623903"><ele>822.75</ele><time>2026-03-22T09:36:32.665Z</time></trkpt><trkpt lat="43.6337748" lon="12.7622805"><ele>821.0</ele><time>2026-03-22T09:36:33.657Z</time></trkpt><trkpt lat="43.633855" lon="12.7621685"><ele>821.0</ele><time>2026-03-22T09:36:34.656Z</time></trkpt><trkpt lat="43.6339332" lon="12.7620718"><ele>821.0</ele><time>2026-03-22T09:36:35.666Z</time></trkpt><trkpt lat="43.6340586" lon="12.7620088"><ele>821.0</ele><time>2026-03-22T09:36:36.659Z</time></trkpt><trkpt lat="43.6341909" lon="12.7619725"><ele>821.0</ele><time>2026-03-22T09:36:37.659Z</time></trkpt><trkpt lat="43.6343253" lon="12.7619413"><ele>821.0</ele><time>2026-03-22T09:36:38.659Z</time></trkpt><trkpt lat="43.6344586" lon="12.7619079"><ele>821.0</ele><time>2026-03-22T09:36:39.663Z</time></trkpt><trkpt lat="43.6345818" lon="12.761886"><ele>821.0</ele><time>2026-03-22T09:36:40.667Z</time></trkpt><trkpt lat="43.6346703" lon="12.7618968"><ele>821.0</ele><time>2026-03-22T09:36:41.663Z</time></trkpt><trkpt lat="43.6347324" lon="12.7619521"><ele>821.0</ele><time>2026-03-22T09:36:42.674Z</time></trkpt><trkpt lat="43.634775" lon="12.7620252"><ele>821.0</ele><time>2026-03-22T09:36:43.673Z</time></trkpt><trkpt lat="43.6347437" lon="12.7621841"><ele>821.0</ele><time>2026-03-22T09:36:44.671Z</time></trkpt><trkpt lat="43.6346778" lon="12.762342"><ele>821.0</ele><time>2026-03-22T09:36:45.666Z</time></trkpt><trkpt lat="43.6345626" lon="12.7624598"><ele>821.0</ele><time>2026-03-22T09:36:46.667Z</time></trkpt><trkpt lat="43.6344257" lon="12.7625809"><ele>817.25</ele><time>2026-03-22T09:36:47.654Z</time></trkpt><trkpt lat="43.6342917" lon="12.7627243"><ele>813.5</ele><time>2026-03-22T09:36:48.663Z</time></trkpt><trkpt lat="43.6342163" lon="12.7628476"><ele>809.75</ele><time>2026-03-22T09:36:49.658Z</time></trkpt><trkpt lat="43.6341552" lon="12.7629372"><ele>806.0</ele><time>2026-03-22T09:36:50.657Z</time></trkpt><trkpt lat="43.6340652" lon="12.7629815"><ele>806.0</ele><time>2026-03-22T09:36:52.663Z</time></trkpt><trkpt lat="43.6341059" lon="12.7629033"><ele>806.0</ele><time>2026-03-22T09:36:55.665Z</time></trkpt><trkpt lat="43.6341259" lon="12.7628164"><ele>806.0</ele><time>2026-03-22T09:36:56.67Z</time></trkpt><trkpt lat="43.6342204" lon="12.7628029"><ele>806.0</ele><time>2026-03-22T09:36:57.663Z</time></trkpt><trkpt lat="43.6344121" lon="12.7627762"><ele>806.0</ele><time>2026-03-22T09:36:59.67Z</time></trkpt><trkpt lat="43.6345476" lon="12.7628139"><ele>804.25</ele><time>2026-03-22T09:37:00.674Z</time></trkpt><trkpt lat="43.6346608" lon="12.7628252"><ele>802.5</ele><time>2026-03-22T09:37:01.657Z</time></trkpt><trkpt lat="43.6347529" lon="12.7628567"><ele>800.75</ele><time>2026-03-22T09:37:02.664Z</time></trkpt><trkpt lat="43.6348588" lon="12.7628938"><ele>799.0</ele><time>2026-03-22T09:37:03.661Z</time></trkpt><trkpt lat="43.6349986" lon="12.7629114"><ele>799.0</ele><time>2026-03-22T09:37:04.665Z</time></trkpt><trkpt lat="43.635122" lon="12.7628969"><ele>799.0</ele><time>2026-03-22T09:37:05.662Z</time></trkpt><trkpt lat="43.6352303" lon="12.7628427"><ele>799.0</ele><time>2026-03-22T09:37:06.654Z</time></trkpt><trkpt lat="43.6353771" lon="12.7628078"><ele>799.0</ele><time>2026-03-22T09:37:07.663Z</time></trkpt><trkpt lat="43.6355166" lon="12.76281"><ele>795.3333333333333</ele><time>2026-03-22T09:37:08.665Z</time></trkpt><trkpt lat="43.6356585" lon="12.7628032"><ele>791.6666666666667</ele><time>2026-03-22T09:37:09.658Z</time></trkpt><trkpt lat="43.6358331" lon="12.7628423"><ele>788.0</ele><time>2026-03-22T09:37:10.664Z</time></trkpt><trkpt lat="43.6359933" lon="12.7628289"><ele>788.0</ele><time>2026-03-22T09:37:11.663Z</time></trkpt><trkpt lat="43.6361216" lon="12.7627936"><ele>788.0</ele><time>2026-03-22T09:37:12.666Z</time></trkpt><trkpt lat="43.6362245" lon="12.762729"><ele>788.0</ele><time>2026-03-22T09:37:13.663Z</time></trkpt><trkpt lat="43.6363277" lon="12.7626442"><ele>788.0</ele><time>2026-03-22T09:37:14.663Z</time></trkpt><trkpt lat="43.6364338" lon="12.7625565"><ele>786.25</ele><time>2026-03-22T09:37:15.67Z</time></trkpt><trkpt lat="43.636525" lon="12.7624707"><ele>784.5</ele><time>2026-03-22T09:37:16.666Z</time></trkpt><trkpt lat="43.6366274" lon="12.7623582"><ele>782.75</ele><time>2026-03-22T09:37:17.674Z</time></trkpt><trkpt lat="43.6367212" lon="12.7622162"><ele>781.0</ele><time>2026-03-22T09:37:18.663Z</time></trkpt><trkpt lat="43.636835" lon="12.762074"><ele>781.0</ele><time>2026-03-22T09:37:19.669Z</time></trkpt><trkpt lat="43.6369332" lon="12.7619005"><ele>781.0</ele><time>2026-03-22T09:37:20.664Z</time></trkpt><trkpt lat="43.6369892" lon="12.7617094"><ele>781.0</ele><time>2026-03-22T09:37:21.67Z</time></trkpt><trkpt lat="43.6370596" lon="12.761523"><ele>782.5</ele><time>2026-03-22T09:37:22.662Z</time></trkpt><trkpt lat="43.637136" lon="12.7613344"><ele>784.0</ele><time>2026-03-22T09:37:23.667Z</time></trkpt><trkpt lat="43.6371916" lon="12.761152"><ele>785.5</ele><time>2026-03-22T09:37:24.667Z</time></trkpt><trkpt lat="43.6372585" lon="12.7609754"><ele>787.0</ele><time>2026-03-22T09:37:25.667Z</time></trkpt><trkpt lat="43.6373412" lon="12.7608282"><ele>787.0</ele><time>2026-03-22T09:37:26.661Z</time></trkpt><trkpt lat="43.63744" lon="12.7607105"><ele>787.0</ele><time>2026-03-22T09:37:27.667Z</time></trkpt><trkpt lat="43.6375483" lon="12.7605946"><ele>787.0</ele><time>2026-03-22T09:37:28.659Z</time></trkpt><trkpt lat="43.6376436" lon="12.7604861"><ele>787.0</ele><time>2026-03-22T09:37:29.668Z</time></trkpt><trkpt lat="43.6377373" lon="12.7603681"><ele>787.25</ele><time>2026-03-22T09:37:30.665Z</time></trkpt><trkpt lat="43.6378201" lon="12.7602373"><ele>787.5</ele><time>2026-03-22T09:37:31.688Z</time></trkpt><trkpt lat="43.6379181" lon="12.7601084"><ele>787.75</ele><time>2026-03-22T09:37:32.658Z</time></trkpt><trkpt lat="43.638049" lon="12.759998"><ele>788.0</ele><time>2026-03-22T09:37:33.664Z</time></trkpt><trkpt lat="43.638173" lon="12.7599039"><ele>788.0</ele><time>2026-03-22T09:37:34.657Z</time></trkpt><trkpt lat="43.6383061" lon="12.7598044"><ele>788.0</ele><time>2026-03-22T09:37:35.664Z</time></trkpt><trkpt lat="43.6384349" lon="12.7597267"><ele>788.0</ele><time>2026-03-22T09:37:36.662Z</time></trkpt><trkpt lat="43.6385661" lon="12.7596481"><ele>788.0</ele><time>2026-03-22T09:37:37.664Z</time></trkpt><trkpt lat="43.638692" lon="12.7595598"><ele>788.25</ele><time>2026-03-22T09:37:38.672Z</time></trkpt><trkpt lat="43.6388156" lon="12.7594959"><ele>788.5</ele><time>2026-03-22T09:37:39.662Z</time></trkpt><trkpt lat="43.6389452" lon="12.7594337"><ele>788.75</ele><time>2026-03-22T09:37:40.665Z</time></trkpt><trkpt lat="43.6390694" lon="12.7593657"><ele>789.0</ele><time>2026-03-22T09:37:41.675Z</time></trkpt><trkpt lat="43.6391967" lon="12.7592793"><ele>789.0</ele><time>2026-03-22T09:37:42.669Z</time></trkpt><trkpt lat="43.6393247" lon="12.7591813"><ele>789.0</ele><time>2026-03-22T09:37:43.668Z</time></trkpt><trkpt lat="43.6394344" lon="12.7590802"><ele>789.0</ele><time>2026-03-22T09:37:44.67Z</time></trkpt><trkpt lat="43.6395207" lon="12.7589914"><ele>789.0</ele><time>2026-03-22T09:37:45.67Z</time></trkpt><trkpt lat="43.6396038" lon="12.7588512"><ele>785.25</ele><time>2026-03-22T09:37:46.67Z</time></trkpt><trkpt lat="43.6396941" lon="12.7587177"><ele>781.5</ele><time>2026-03-22T09:37:47.666Z</time></trkpt><trkpt lat="43.6397821" lon="12.7585629"><ele>777.75</ele><time>2026-03-22T09:37:48.669Z</time></trkpt><trkpt lat="43.6398705" lon="12.7583837"><ele>774.0</ele><time>2026-03-22T09:37:49.668Z</time></trkpt><trkpt lat="43.6399574" lon="12.7582039"><ele>774.0</ele><time>2026-03-22T09:37:50.67Z</time></trkpt><trkpt lat="43.6400482" lon="12.758031"><ele>774.0</ele><time>2026-03-22T09:37:51.67Z</time></trkpt><trkpt lat="43.6401365" lon="12.757846"><ele>774.0</ele><time>2026-03-22T09:37:52.665Z</time></trkpt><trkpt lat="43.6402318" lon="12.7576776"><ele>770.3333333333334</ele><time>2026-03-22T09:37:53.662Z</time></trkpt><trkpt lat="43.6403654" lon="12.7575556"><ele>766.6666666666667</ele><time>2026-03-22T09:37:54.671Z</time></trkpt><trkpt lat="43.6405" lon="12.7574339"><ele>763.0</ele><time>2026-03-22T09:37:55.663Z</time></trkpt><trkpt lat="43.6406267" lon="12.7572928"><ele>763.0</ele><time>2026-03-22T09:37:56.657Z</time></trkpt><trkpt lat="43.6407156" lon="12.7571392"><ele>763.0</ele><time>2026-03-22T09:37:57.662Z</time></trkpt><trkpt lat="43.6407675" lon="12.7569542"><ele>763.0</ele><time>2026-03-22T09:37:58.664Z</time></trkpt><trkpt lat="43.6408396" lon="12.7567707"><ele>763.0</ele><time>2026-03-22T09:37:59.655Z</time></trkpt><trkpt lat="43.6409147" lon="12.7565907"><ele>763.25</ele><time>2026-03-22T09:38:00.664Z</time></trkpt><trkpt lat="43.6409882" lon="12.7564351"><ele>763.5</ele><time>2026-03-22T09:38:01.66Z</time></trkpt><trkpt lat="43.641076" lon="12.7562894"><ele>763.75</ele><time>2026-03-22T09:38:02.671Z</time></trkpt><trkpt lat="43.6411589" lon="12.7560955"><ele>764.0</ele><time>2026-03-22T09:38:03.659Z</time></trkpt><trkpt lat="43.6412383" lon="12.7559005"><ele>764.0</ele><time>2026-03-22T09:38:04.664Z</time></trkpt><trkpt lat="43.6412899" lon="12.7557043"><ele>764.0</ele><time>2026-03-22T09:38:05.658Z</time></trkpt><trkpt lat="43.6413475" lon="12.7555147"><ele>764.0</ele><time>2026-03-22T09:38:06.663Z</time></trkpt><trkpt lat="43.6414133" lon="12.7553121"><ele>766.0</ele><time>2026-03-22T09:38:07.664Z</time></trkpt><trkpt lat="43.6414809" lon="12.755118"><ele>768.0</ele><time>2026-03-22T09:38:08.663Z</time></trkpt><trkpt lat="43.6415569" lon="12.7549316"><ele>770.0</ele><time>2026-03-22T09:38:09.667Z</time></trkpt><trkpt lat="43.6416114" lon="12.7547518"><ele>770.0</ele><time>2026-03-22T09:38:10.662Z</time></trkpt><trkpt lat="43.6416699" lon="12.7545932"><ele>770.0</ele><time>2026-03-22T09:38:11.668Z</time></trkpt><trkpt lat="43.6417129" lon="12.7544295"><ele>770.0</ele><time>2026-03-22T09:38:12.673Z</time></trkpt><trkpt lat="43.6417246" lon="12.7542696"><ele>770.0</ele><time>2026-03-22T09:38:13.664Z</time></trkpt><trkpt lat="43.6417133" lon="12.7541227"><ele>772.75</ele><time>2026-03-22T09:38:14.66Z</time></trkpt><trkpt lat="43.6417194" lon="12.7539573"><ele>775.5</ele><time>2026-03-22T09:38:15.66Z</time></trkpt><trkpt lat="43.641766" lon="12.7538156"><ele>778.25</ele><time>2026-03-22T09:38:16.656Z</time></trkpt><trkpt lat="43.6418374" lon="12.7536832"><ele>781.0</ele><time>2026-03-22T09:38:17.655Z</time></trkpt><trkpt lat="43.6419044" lon="12.7535773"><ele>780.6666666666666</ele><time>2026-03-22T09:38:18.663Z</time></trkpt><trkpt lat="43.6419835" lon="12.7534987"><ele>780.3333333333333</ele><time>2026-03-22T09:38:19.659Z</time></trkpt><trkpt lat="43.6420648" lon="12.7534543"><ele>780.0</ele><time>2026-03-22T09:38:20.646Z</time></trkpt><trkpt lat="43.6421365" lon="12.753452"><ele>779.6666666666667</ele><time>2026-03-22T09:38:21.646Z</time></trkpt><trkpt lat="43.6422251" lon="12.7534853"><ele>779.3333333333334</ele><time>2026-03-22T09:38:22.648Z</time></trkpt><trkpt lat="43.6423015" lon="12.7534861"><ele>779.0</ele><time>2026-03-22T09:38:23.643Z</time></trkpt><trkpt lat="43.6424423" lon="12.7535644"><ele>773.6666666666667</ele><time>2026-03-22T09:38:24.66Z</time></trkpt><trkpt lat="43.6425824" lon="12.7536634"><ele>768.3333333333334</ele><time>2026-03-22T09:38:25.666Z</time></trkpt><trkpt lat="43.6427582" lon="12.7537747"><ele>763.0</ele><time>2026-03-22T09:38:26.667Z</time></trkpt><trkpt lat="43.6429208" lon="12.7538713"><ele>760.8</ele><time>2026-03-22T09:38:27.674Z</time></trkpt><trkpt lat="43.6430662" lon="12.7539566"><ele>758.5999999999999</ele><time>2026-03-22T09:38:28.667Z</time></trkpt><trkpt lat="43.6431773" lon="12.7539596"><ele>756.4000000000001</ele><time>2026-03-22T09:38:29.673Z</time></trkpt><trkpt lat="43.6432608" lon="12.7539293"><ele>754.2</ele><time>2026-03-22T09:38:30.667Z</time></trkpt><trkpt lat="43.643326" lon="12.7538704"><ele>752.0</ele><time>2026-03-22T09:38:31.667Z</time></trkpt><trkpt lat="43.6434192" lon="12.7538273"><ele>752.0</ele><time>2026-03-22T09:38:32.663Z</time></trkpt><trkpt lat="43.6435037" lon="12.7537416"><ele>752.0</ele><time>2026-03-22T09:38:33.67Z</time></trkpt><trkpt lat="43.6435747" lon="12.7536156"><ele>752.0</ele><time>2026-03-22T09:38:34.659Z</time></trkpt><trkpt lat="43.6436164" lon="12.7534769"><ele>752.0</ele><time>2026-03-22T09:38:35.659Z</time></trkpt><trkpt lat="43.6436831" lon="12.7532838"><ele>751.25</ele><time>2026-03-22T09:38:36.661Z</time></trkpt><trkpt lat="43.6437281" lon="12.753113"><ele>750.5</ele><time>2026-03-22T09:38:37.663Z</time></trkpt><trkpt lat="43.643824" lon="12.7529512"><ele>749.75</ele><time>2026-03-22T09:38:38.65Z</time></trkpt><trkpt lat="43.6439377" lon="12.7528383"><ele>749.0</ele><time>2026-03-22T09:38:39.647Z</time></trkpt><trkpt lat="43.6440282" lon="12.7527652"><ele>750.5</ele><time>2026-03-22T09:38:40.65Z</time></trkpt><trkpt lat="43.6441299" lon="12.7526696"><ele>752.0</ele><time>2026-03-22T09:38:41.65Z</time></trkpt><trkpt lat="43.6441878" lon="12.7525509"><ele>753.5</ele><time>2026-03-22T09:38:42.652Z</time></trkpt><trkpt lat="43.6442469" lon="12.752412"><ele>755.0</ele><time>2026-03-22T09:38:43.653Z</time></trkpt><trkpt lat="43.6442996" lon="12.7522748"><ele>755.0</ele><time>2026-03-22T09:38:44.656Z</time></trkpt><trkpt lat="43.6443146" lon="12.7520934"><ele>755.0</ele><time>2026-03-22T09:38:45.647Z</time></trkpt><trkpt lat="43.6443334" lon="12.7519149"><ele>755.0</ele><time>2026-03-22T09:38:46.654Z</time></trkpt><trkpt lat="43.6443716" lon="12.7517404"><ele>755.0</ele><time>2026-03-22T09:38:47.654Z</time></trkpt><trkpt lat="43.6443658" lon="12.7515242"><ele>755.0</ele><time>2026-03-22T09:38:48.662Z</time></trkpt><trkpt lat="43.6443383" lon="12.7512899"><ele>755.0</ele><time>2026-03-22T09:38:49.66Z</time></trkpt><trkpt lat="43.644331" lon="12.7510969"><ele>755.0</ele><time>2026-03-22T09:38:50.658Z</time></trkpt><trkpt lat="43.6443396" lon="12.7509158"><ele>755.0</ele><time>2026-03-22T09:38:51.652Z</time></trkpt><trkpt lat="43.6443407" lon="12.7507689"><ele>754.4</ele><time>2026-03-22T09:38:52.656Z</time></trkpt><trkpt lat="43.644335" lon="12.7506379"><ele>753.8</ele><time>2026-03-22T09:38:53.65Z</time></trkpt><trkpt lat="43.6443201" lon="12.7505112"><ele>753.2</ele><time>2026-03-22T09:38:54.656Z</time></trkpt><trkpt lat="43.6442961" lon="12.7503827"><ele>752.6</ele><time>2026-03-22T09:38:55.658Z</time></trkpt><trkpt lat="43.6442677" lon="12.7502602"><ele>752.0</ele><time>2026-03-22T09:38:56.659Z</time></trkpt><trkpt lat="43.6442378" lon="12.7501194"><ele>749.4000000000001</ele><time>2026-03-22T09:38:57.653Z</time></trkpt><trkpt lat="43.6441993" lon="12.7499727"><ele>746.8000000000001</ele><time>2026-03-22T09:38:58.65Z</time></trkpt><trkpt lat="43.6441709" lon="12.7498416"><ele>744.2</ele><time>2026-03-22T09:38:59.655Z</time></trkpt><trkpt lat="43.6441322" lon="12.7497139"><ele>741.6</ele><time>2026-03-22T09:39:00.657Z</time></trkpt><trkpt lat="43.6440758" lon="12.7495914"><ele>739.0</ele><time>2026-03-22T09:39:01.662Z</time></trkpt><trkpt lat="43.644014" lon="12.7494921"><ele>741.25</ele><time>2026-03-22T09:39:02.662Z</time></trkpt><trkpt lat="43.6439212" lon="12.7493649"><ele>743.5</ele><time>2026-03-22T09:39:03.66Z</time></trkpt><trkpt lat="43.6438201" lon="12.7492222"><ele>745.75</ele><time>2026-03-22T09:39:04.666Z</time></trkpt><trkpt lat="43.6437245" lon="12.7490919"><ele>748.0</ele><time>2026-03-22T09:39:05.671Z</time></trkpt><trkpt lat="43.6436108" lon="12.7489476"><ele>748.0</ele><time>2026-03-22T09:39:06.67Z</time></trkpt><trkpt lat="43.6434832" lon="12.7487843"><ele>748.0</ele><time>2026-03-22T09:39:07.662Z</time></trkpt><trkpt lat="43.6433376" lon="12.7486162"><ele>748.0</ele><time>2026-03-22T09:39:08.666Z</time></trkpt><trkpt lat="43.6431701" lon="12.7485094"><ele>749.0</ele><time>2026-03-22T09:39:09.67Z</time></trkpt><trkpt lat="43.6429969" lon="12.7484354"><ele>750.0</ele><time>2026-03-22T09:39:10.665Z</time></trkpt><trkpt lat="43.6428412" lon="12.7483185"><ele>751.0</ele><time>2026-03-22T09:39:11.669Z</time></trkpt><trkpt lat="43.6426587" lon="12.7482326"><ele>751.0</ele><time>2026-03-22T09:39:12.66Z</time></trkpt><trkpt lat="43.6424921" lon="12.748144"><ele>751.0</ele><time>2026-03-22T09:39:13.666Z</time></trkpt><trkpt lat="43.6423218" lon="12.7480155"><ele>751.0</ele><time>2026-03-22T09:39:14.67Z</time></trkpt><trkpt lat="43.6421826" lon="12.7478739"><ele>751.0</ele><time>2026-03-22T09:39:15.663Z</time></trkpt><trkpt lat="43.6420591" lon="12.7477234"><ele>751.0</ele><time>2026-03-22T09:39:16.66Z</time></trkpt><trkpt lat="43.6419365" lon="12.7475688"><ele>751.0</ele><time>2026-03-22T09:39:17.66Z</time></trkpt><trkpt lat="43.6417986" lon="12.7474211"><ele>751.0</ele><time>2026-03-22T09:39:18.659Z</time></trkpt><trkpt lat="43.6416785" lon="12.747306"><ele>751.0</ele><time>2026-03-22T09:39:19.66Z</time></trkpt><trkpt lat="43.641564" lon="12.7471678"><ele>751.0</ele><time>2026-03-22T09:39:20.652Z</time></trkpt><trkpt lat="43.6414303" lon="12.7470291"><ele>751.0</ele><time>2026-03-22T09:39:21.663Z</time></trkpt><trkpt lat="43.6412551" lon="12.7469191"><ele>751.0</ele><time>2026-03-22T09:39:22.665Z</time></trkpt><trkpt lat="43.6410927" lon="12.746797"><ele>751.0</ele><time>2026-03-22T09:39:23.662Z</time></trkpt><trkpt lat="43.6409942" lon="12.746609"><ele>751.3333333333334</ele><time>2026-03-22T09:39:24.653Z</time></trkpt><trkpt lat="43.6409097" lon="12.7464477"><ele>751.6666666666666</ele><time>2026-03-22T09:39:25.652Z</time></trkpt><trkpt lat="43.6407961" lon="12.7462791"><ele>752.0</ele><time>2026-03-22T09:39:26.656Z</time></trkpt><trkpt lat="43.6406701" lon="12.7461121"><ele>753.3333333333333</ele><time>2026-03-22T09:39:27.662Z</time></trkpt><trkpt lat="43.640551" lon="12.7459241"><ele>754.6666666666666</ele><time>2026-03-22T09:39:28.649Z</time></trkpt><trkpt lat="43.6404168" lon="12.7457659"><ele>756.0</ele><time>2026-03-22T09:39:29.657Z</time></trkpt><trkpt lat="43.6402808" lon="12.7456268"><ele>756.0</ele><time>2026-03-22T09:39:30.652Z</time></trkpt><trkpt lat="43.6401397" lon="12.7454741"><ele>756.0</ele><time>2026-03-22T09:39:31.651Z</time></trkpt><trkpt lat="43.6399894" lon="12.7453182"><ele>756.0</ele><time>2026-03-22T09:39:32.652Z</time></trkpt><trkpt lat="43.6398483" lon="12.7451919"><ele>744.3333333333334</ele><time>2026-03-22T09:39:33.653Z</time></trkpt><trkpt lat="43.6397071" lon="12.7450564"><ele>732.6666666666667</ele><time>2026-03-22T09:39:34.655Z</time></trkpt><trkpt lat="43.6395981" lon="12.7449215"><ele>721.0</ele><time>2026-03-22T09:39:35.659Z</time></trkpt><trkpt lat="43.6394814" lon="12.7447616"><ele>725.75</ele><time>2026-03-22T09:39:36.658Z</time></trkpt><trkpt lat="43.6394299" lon="12.7446214"><ele>730.5</ele><time>2026-03-22T09:39:37.658Z</time></trkpt><trkpt lat="43.6393902" lon="12.7444665"><ele>735.25</ele><time>2026-03-22T09:39:38.652Z</time></trkpt><trkpt lat="43.6393611" lon="12.744339"><ele>740.0</ele><time>2026-03-22T09:39:39.655Z</time></trkpt><trkpt lat="43.6392749" lon="12.7441645"><ele>740.0</ele><time>2026-03-22T09:39:40.654Z</time></trkpt><trkpt lat="43.6391535" lon="12.7439489"><ele>740.0</ele><time>2026-03-22T09:39:41.659Z</time></trkpt><trkpt lat="43.6390171" lon="12.7437248"><ele>740.0</ele><time>2026-03-22T09:39:42.653Z</time></trkpt><trkpt lat="43.6388963" lon="12.7434869"><ele>732.3333333333333</ele><time>2026-03-22T09:39:43.648Z</time></trkpt><trkpt lat="43.6388317" lon="12.7431976"><ele>724.6666666666666</ele><time>2026-03-22T09:39:44.655Z</time></trkpt><trkpt lat="43.638776" lon="12.7429487"><ele>717.0</ele><time>2026-03-22T09:39:45.662Z</time></trkpt><trkpt lat="43.638684" lon="12.7426979"><ele>718.8</ele><time>2026-03-22T09:39:46.646Z</time></trkpt><trkpt lat="43.6385806" lon="12.7424834"><ele>720.6</ele><time>2026-03-22T09:39:47.645Z</time></trkpt><trkpt lat="43.6385618" lon="12.7423884"><ele>722.4</ele><time>2026-03-22T09:39:48.644Z</time></trkpt><trkpt lat="43.6385485" lon="12.7422911"><ele>724.1999999999999</ele><time>2026-03-22T09:39:49.649Z</time></trkpt><trkpt lat="43.6385591" lon="12.7421765"><ele>726.0</ele><time>2026-03-22T09:39:51.643Z</time></trkpt><trkpt lat="43.6385689" lon="12.7419654"><ele>724.3333333333334</ele><time>2026-03-22T09:39:53.651Z</time></trkpt><trkpt lat="43.6385782" lon="12.7418309"><ele>722.6666666666666</ele><time>2026-03-22T09:39:54.66Z</time></trkpt><trkpt lat="43.6385616" lon="12.7417068"><ele>721.0</ele><time>2026-03-22T09:39:55.653Z</time></trkpt><trkpt lat="43.6385525" lon="12.7415899"><ele>719.3333333333333</ele><time>2026-03-22T09:39:56.659Z</time></trkpt><trkpt lat="43.6385573" lon="12.7414855"><ele>717.6666666666666</ele><time>2026-03-22T09:39:57.669Z</time></trkpt><trkpt lat="43.638585" lon="12.7414054"><ele>716.0</ele><time>2026-03-22T09:39:58.571Z</time></trkpt><trkpt lat="43.6386976" lon="12.7412925"><ele>712.8</ele><time>2026-03-22T09:40:00.363Z</time></trkpt><trkpt lat="43.6387581" lon="12.7412473"><ele>709.5999999999999</ele><time>2026-03-22T09:40:01.271Z</time></trkpt><trkpt lat="43.6388963" lon="12.7411794"><ele>706.4</ele><time>2026-03-22T09:40:03.059Z</time></trkpt><trkpt lat="43.6389906" lon="12.7411261"><ele>703.2</ele><time>2026-03-22T09:40:03.959Z</time></trkpt><trkpt lat="43.6390748" lon="12.7410572"><ele>700.0</ele><time>2026-03-22T09:40:04.863Z</time></trkpt><trkpt lat="43.6391671" lon="12.7409883"><ele>700.0</ele><time>2026-03-22T09:40:05.771Z</time></trkpt><trkpt lat="43.6393747" lon="12.7408475"><ele>700.0</ele><time>2026-03-22T09:40:07.669Z</time></trkpt><trkpt lat="43.6394755" lon="12.7407832"><ele>700.0</ele><time>2026-03-22T09:40:08.666Z</time></trkpt><trkpt lat="43.6395636" lon="12.7407366"><ele>700.0</ele><time>2026-03-22T09:40:09.663Z</time></trkpt><trkpt lat="43.6396346" lon="12.7406887"><ele>697.2</ele><time>2026-03-22T09:40:10.671Z</time></trkpt><trkpt lat="43.6397212" lon="12.7406324"><ele>694.4</ele><time>2026-03-22T09:40:11.673Z</time></trkpt><trkpt lat="43.6398195" lon="12.7405459"><ele>691.5999999999999</ele><time>2026-03-22T09:40:12.673Z</time></trkpt><trkpt lat="43.6399164" lon="12.7404809"><ele>688.8</ele><time>2026-03-22T09:40:13.672Z</time></trkpt><trkpt lat="43.639995" lon="12.7404308"><ele>686.0</ele><time>2026-03-22T09:40:14.663Z</time></trkpt><trkpt lat="43.6400811" lon="12.7403756"><ele>686.0</ele><time>2026-03-22T09:40:15.686Z</time></trkpt><trkpt lat="43.6401682" lon="12.7403115"><ele>686.0</ele><time>2026-03-22T09:40:16.685Z</time></trkpt><trkpt lat="43.6402264" lon="12.7402138"><ele>686.0</ele><time>2026-03-22T09:40:17.672Z</time></trkpt><trkpt lat="43.6402637" lon="12.740139"><ele>686.0</ele><time>2026-03-22T09:40:18.679Z</time></trkpt><trkpt lat="43.6403415" lon="12.7400251"><ele>686.0</ele><time>2026-03-22T09:40:20.676Z</time></trkpt><trkpt lat="43.6403807" lon="12.7399202"><ele>685.8</ele><time>2026-03-22T09:40:22.673Z</time></trkpt><trkpt lat="43.6404442" lon="12.7397255"><ele>685.5999999999999</ele><time>2026-03-22T09:40:24.678Z</time></trkpt><trkpt lat="43.6404332" lon="12.7396323"><ele>685.4</ele><time>2026-03-22T09:40:25.662Z</time></trkpt><trkpt lat="43.6404898" lon="12.7395608"><ele>685.2</ele><time>2026-03-22T09:40:27.664Z</time></trkpt><trkpt lat="43.6405761" lon="12.7395409"><ele>685.0</ele><time>2026-03-22T09:40:32.664Z</time></trkpt><trkpt lat="43.6405109" lon="12.7395037"><ele>685.0</ele><time>2026-03-22T09:40:42.681Z</time></trkpt><trkpt lat="43.6404555" lon="12.7394344"><ele>685.0</ele><time>2026-03-22T09:40:44.665Z</time></trkpt><trkpt lat="43.6406334" lon="12.739521"><ele>685.0</ele><time>2026-03-22T09:40:46.664Z</time></trkpt><trkpt lat="43.64078" lon="12.7395886"><ele>685.0</ele><time>2026-03-22T09:40:47.653Z</time></trkpt><trkpt lat="43.6406905" lon="12.739541"><ele>685.0</ele><time>2026-03-22T09:40:54.659Z</time></trkpt><trkpt lat="43.6406174" lon="12.739479"><ele>685.0</ele><time>2026-03-22T09:40:56.669Z</time></trkpt><trkpt lat="43.6405215" lon="12.739483"><ele>685.0</ele><time>2026-03-22T09:41:06.675Z</time></trkpt><trkpt lat="43.6404561" lon="12.7394791"><ele>685.0</ele><time>2026-03-22T09:41:08.668Z</time></trkpt><trkpt lat="43.6403927" lon="12.7394389"><ele>685.0</ele><time>2026-03-22T09:41:16.674Z</time></trkpt><trkpt lat="43.640286" lon="12.7394224"><ele>685.0</ele><time>2026-03-22T09:41:17.657Z</time></trkpt><trkpt lat="43.6401461" lon="12.7393886"><ele>683.8</ele><time>2026-03-22T09:41:18.661Z</time></trkpt><trkpt lat="43.64003" lon="12.7393805"><ele>682.6</ele><time>2026-03-22T09:41:19.656Z</time></trkpt><trkpt lat="43.639914" lon="12.7393521"><ele>681.4000000000001</ele><time>2026-03-22T09:41:20.658Z</time></trkpt><trkpt lat="43.639835" lon="12.7392979"><ele>680.2</ele><time>2026-03-22T09:41:21.657Z</time></trkpt><trkpt lat="43.6397583" lon="12.7392639"><ele>679.0</ele><time>2026-03-22T09:41:22.659Z</time></trkpt><trkpt lat="43.6396117" lon="12.7392305"><ele>679.0</ele><time>2026-03-22T09:41:23.669Z</time></trkpt><trkpt lat="43.6394854" lon="12.7391858"><ele>679.0</ele><time>2026-03-22T09:41:24.676Z</time></trkpt><trkpt lat="43.6393311" lon="12.7391187"><ele>679.0</ele><time>2026-03-22T09:41:25.673Z</time></trkpt><trkpt lat="43.6391964" lon="12.7390478"><ele>679.0</ele><time>2026-03-22T09:41:26.675Z</time></trkpt><trkpt lat="43.6390599" lon="12.7389992"><ele>682.3333333333334</ele><time>2026-03-22T09:41:27.677Z</time></trkpt><trkpt lat="43.6388878" lon="12.7388958"><ele>685.6666666666666</ele><time>2026-03-22T09:41:28.686Z</time></trkpt><trkpt lat="43.6387145" lon="12.7387636"><ele>689.0</ele><time>2026-03-22T09:41:29.679Z</time></trkpt><trkpt lat="43.6385336" lon="12.7386774"><ele>691.6666666666666</ele><time>2026-03-22T09:41:30.677Z</time></trkpt><trkpt lat="43.6383908" lon="12.738591"><ele>694.3333333333334</ele><time>2026-03-22T09:41:31.674Z</time></trkpt><trkpt lat="43.6382506" lon="12.7385088"><ele>697.0</ele><time>2026-03-22T09:41:32.678Z</time></trkpt><trkpt lat="43.6381151" lon="12.7384378"><ele>695.5</ele><time>2026-03-22T09:41:33.683Z</time></trkpt><trkpt lat="43.6379797" lon="12.7383763"><ele>694.0</ele><time>2026-03-22T09:41:34.68Z</time></trkpt><trkpt lat="43.6378512" lon="12.7383287"><ele>692.5</ele><time>2026-03-22T09:41:35.675Z</time></trkpt><trkpt lat="43.6377306" lon="12.7382828"><ele>691.0</ele><time>2026-03-22T09:41:36.678Z</time></trkpt><trkpt lat="43.6375869" lon="12.7382092"><ele>691.0</ele><time>2026-03-22T09:41:37.696Z</time></trkpt><trkpt lat="43.6374536" lon="12.7381693"><ele>691.0</ele><time>2026-03-22T09:41:38.681Z</time></trkpt><trkpt lat="43.6373116" lon="12.7381231"><ele>691.0</ele><time>2026-03-22T09:41:39.677Z</time></trkpt><trkpt lat="43.637186" lon="12.7380888"><ele>691.0</ele><time>2026-03-22T09:41:40.67Z</time></trkpt><trkpt lat="43.6370729" lon="12.7380803"><ele>690.0</ele><time>2026-03-22T09:41:41.68Z</time></trkpt><trkpt lat="43.6369606" lon="12.7380723"><ele>689.0</ele><time>2026-03-22T09:41:42.675Z</time></trkpt><trkpt lat="43.6368501" lon="12.7380677"><ele>688.0</ele><time>2026-03-22T09:41:43.682Z</time></trkpt><trkpt lat="43.6367368" lon="12.7380739"><ele>687.0</ele><time>2026-03-22T09:41:44.675Z</time></trkpt><trkpt lat="43.6366233" lon="12.7380875"><ele>687.0</ele><time>2026-03-22T09:41:45.663Z</time></trkpt><trkpt lat="43.6365092" lon="12.7380995"><ele>687.0</ele><time>2026-03-22T09:41:46.655Z</time></trkpt><trkpt lat="43.636393" lon="12.7381173"><ele>687.0</ele><time>2026-03-22T09:41:47.663Z</time></trkpt><trkpt lat="43.6362877" lon="12.7381571"><ele>687.0</ele><time>2026-03-22T09:41:48.656Z</time></trkpt><trkpt lat="43.6361997" lon="12.7382126"><ele>687.0</ele><time>2026-03-22T09:41:49.653Z</time></trkpt><trkpt lat="43.6361123" lon="12.7382704"><ele>685.5</ele><time>2026-03-22T09:41:50.651Z</time></trkpt><trkpt lat="43.6360193" lon="12.7383516"><ele>684.0</ele><time>2026-03-22T09:41:51.647Z</time></trkpt><trkpt lat="43.6359276" lon="12.738462"><ele>682.5</ele><time>2026-03-22T09:41:52.645Z</time></trkpt><trkpt lat="43.6358347" lon="12.7385827"><ele>681.0</ele><time>2026-03-22T09:41:53.638Z</time></trkpt><trkpt lat="43.6357397" lon="12.7387064"><ele>685.0</ele><time>2026-03-22T09:41:54.644Z</time></trkpt><trkpt lat="43.6356497" lon="12.7388457"><ele>689.0</ele><time>2026-03-22T09:41:55.64Z</time></trkpt><trkpt lat="43.635557" lon="12.738993"><ele>693.0</ele><time>2026-03-22T09:41:56.642Z</time></trkpt><trkpt lat="43.6354613" lon="12.7391365"><ele>697.0</ele><time>2026-03-22T09:41:57.646Z</time></trkpt><trkpt lat="43.6353579" lon="12.7392837"><ele>694.5</ele><time>2026-03-22T09:41:58.647Z</time></trkpt><trkpt lat="43.635256" lon="12.7394459"><ele>692.0</ele><time>2026-03-22T09:41:59.659Z</time></trkpt><trkpt lat="43.6351607" lon="12.7395856"><ele>689.5</ele><time>2026-03-22T09:42:00.655Z</time></trkpt><trkpt lat="43.6350549" lon="12.7397384"><ele>687.0</ele><time>2026-03-22T09:42:01.644Z</time></trkpt><trkpt lat="43.6349195" lon="12.7398812"><ele>687.0</ele><time>2026-03-22T09:42:02.657Z</time></trkpt><trkpt lat="43.6347772" lon="12.740034"><ele>687.0</ele><time>2026-03-22T09:42:03.652Z</time></trkpt><trkpt lat="43.634665" lon="12.7401994"><ele>687.0</ele><time>2026-03-22T09:42:04.672Z</time></trkpt><trkpt lat="43.6345517" lon="12.7403564"><ele>685.3333333333334</ele><time>2026-03-22T09:42:05.647Z</time></trkpt><trkpt lat="43.6344157" lon="12.7404916"><ele>683.6666666666667</ele><time>2026-03-22T09:42:06.65Z</time></trkpt><trkpt lat="43.6342807" lon="12.7406034"><ele>682.0</ele><time>2026-03-22T09:42:07.658Z</time></trkpt><trkpt lat="43.6341499" lon="12.7407308"><ele>682.0</ele><time>2026-03-22T09:42:08.652Z</time></trkpt><trkpt lat="43.6340369" lon="12.7408521"><ele>682.0</ele><time>2026-03-22T09:42:09.659Z</time></trkpt><trkpt lat="43.6339242" lon="12.7409454"><ele>682.0</ele><time>2026-03-22T09:42:10.651Z</time></trkpt><trkpt lat="43.6338081" lon="12.7410691"><ele>682.0</ele><time>2026-03-22T09:42:11.651Z</time></trkpt><trkpt lat="43.6336746" lon="12.7412066"><ele>682.6666666666667</ele><time>2026-03-22T09:42:12.654Z</time></trkpt><trkpt lat="43.6335299" lon="12.7413431"><ele>683.3333333333334</ele><time>2026-03-22T09:42:13.655Z</time></trkpt><trkpt lat="43.6333883" lon="12.7414839"><ele>684.0</ele><time>2026-03-22T09:42:14.662Z</time></trkpt><trkpt lat="43.6332493" lon="12.7415984"><ele>684.0</ele><time>2026-03-22T09:42:15.655Z</time></trkpt><trkpt lat="43.6330998" lon="12.7416917"><ele>684.0</ele><time>2026-03-22T09:42:16.649Z</time></trkpt><trkpt lat="43.6329561" lon="12.7417861"><ele>684.0</ele><time>2026-03-22T09:42:17.65Z</time></trkpt><trkpt lat="43.6328363" lon="12.7418631"><ele>686.3333333333334</ele><time>2026-03-22T09:42:18.662Z</time></trkpt><trkpt lat="43.6326709" lon="12.741941"><ele>688.6666666666667</ele><time>2026-03-22T09:42:19.652Z</time></trkpt><trkpt lat="43.6324925" lon="12.7420325"><ele>691.0</ele><time>2026-03-22T09:42:20.647Z</time></trkpt><trkpt lat="43.6323233" lon="12.742137"><ele>691.0</ele><time>2026-03-22T09:42:21.651Z</time></trkpt><trkpt lat="43.6321973" lon="12.7422827"><ele>691.0</ele><time>2026-03-22T09:42:22.651Z</time></trkpt><trkpt lat="43.6320539" lon="12.7423637"><ele>691.0</ele><time>2026-03-22T09:42:23.647Z</time></trkpt><trkpt lat="43.6319094" lon="12.7424655"><ele>686.0</ele><time>2026-03-22T09:42:24.648Z</time></trkpt><trkpt lat="43.6317465" lon="12.7425565"><ele>681.0</ele><time>2026-03-22T09:42:25.651Z</time></trkpt><trkpt lat="43.6315762" lon="12.7426476"><ele>676.0</ele><time>2026-03-22T09:42:26.641Z</time></trkpt><trkpt lat="43.631446" lon="12.7427093"><ele>679.25</ele><time>2026-03-22T09:42:27.645Z</time></trkpt><trkpt lat="43.6313256" lon="12.7427717"><ele>682.5</ele><time>2026-03-22T09:42:28.646Z</time></trkpt><trkpt lat="43.6312085" lon="12.7428133"><ele>685.75</ele><time>2026-03-22T09:42:29.651Z</time></trkpt><trkpt lat="43.6310772" lon="12.7428333"><ele>689.0</ele><time>2026-03-22T09:42:30.654Z</time></trkpt><trkpt lat="43.6309152" lon="12.7428743"><ele>689.0</ele><time>2026-03-22T09:42:31.65Z</time></trkpt><trkpt lat="43.6307899" lon="12.7428947"><ele>689.0</ele><time>2026-03-22T09:42:32.644Z</time></trkpt><trkpt lat="43.6306506" lon="12.7428673"><ele>689.0</ele><time>2026-03-22T09:42:33.643Z</time></trkpt><trkpt lat="43.6305096" lon="12.7427873"><ele>689.0</ele><time>2026-03-22T09:42:34.647Z</time></trkpt><trkpt lat="43.6304183" lon="12.7426661"><ele>686.0</ele><time>2026-03-22T09:42:35.644Z</time></trkpt><trkpt lat="43.6303444" lon="12.7425681"><ele>683.0</ele><time>2026-03-22T09:42:36.655Z</time></trkpt><trkpt lat="43.6303226" lon="12.7424728"><ele>680.0</ele><time>2026-03-22T09:42:37.649Z</time></trkpt><trkpt lat="43.6304122" lon="12.7422541"><ele>677.0</ele><time>2026-03-22T09:42:39.652Z</time></trkpt><trkpt lat="43.630533" lon="12.7420684"><ele>678.0</ele><time>2026-03-22T09:42:40.645Z</time></trkpt><trkpt lat="43.6306311" lon="12.7418549"><ele>679.0</ele><time>2026-03-22T09:42:41.65Z</time></trkpt><trkpt lat="43.6307422" lon="12.741597"><ele>680.0</ele><time>2026-03-22T09:42:42.654Z</time></trkpt><trkpt lat="43.6308639" lon="12.7413154"><ele>686.5</ele><time>2026-03-22T09:42:43.65Z</time></trkpt><trkpt lat="43.6309498" lon="12.7410119"><ele>693.0</ele><time>2026-03-22T09:42:44.651Z</time></trkpt><trkpt lat="43.6310414" lon="12.7407153"><ele>679.6666666666666</ele><time>2026-03-22T09:42:45.654Z</time></trkpt><trkpt lat="43.6311412" lon="12.740442"><ele>666.3333333333333</ele><time>2026-03-22T09:42:46.655Z</time></trkpt><trkpt lat="43.6312467" lon="12.7401691"><ele>653.0</ele><time>2026-03-22T09:42:47.647Z</time></trkpt><trkpt lat="43.6313376" lon="12.7399218"><ele>653.0</ele><time>2026-03-22T09:42:48.649Z</time></trkpt><trkpt lat="43.6314343" lon="12.7396873"><ele>653.0</ele><time>2026-03-22T09:42:49.652Z</time></trkpt><trkpt lat="43.6315337" lon="12.7394542"><ele>653.0</ele><time>2026-03-22T09:42:50.648Z</time></trkpt><trkpt lat="43.6316105" lon="12.7392189"><ele>659.3333333333333</ele><time>2026-03-22T09:42:51.648Z</time></trkpt><trkpt lat="43.6316782" lon="12.7389615"><ele>665.6666666666666</ele><time>2026-03-22T09:42:52.646Z</time></trkpt><trkpt lat="43.6317166" lon="12.7387414"><ele>672.0</ele><time>2026-03-22T09:42:53.651Z</time></trkpt><trkpt lat="43.6317636" lon="12.7384982"><ele>674.0</ele><time>2026-03-22T09:42:54.652Z</time></trkpt><trkpt lat="43.6317947" lon="12.7382525"><ele>676.0</ele><time>2026-03-22T09:42:55.654Z</time></trkpt><trkpt lat="43.6318159" lon="12.7380134"><ele>678.0</ele><time>2026-03-22T09:42:56.661Z</time></trkpt><trkpt lat="43.6318316" lon="12.737744"><ele>677.3333333333334</ele><time>2026-03-22T09:42:57.664Z</time></trkpt><trkpt lat="43.6318576" lon="12.7375003"><ele>676.6666666666667</ele><time>2026-03-22T09:42:58.668Z</time></trkpt><trkpt lat="43.6318784" lon="12.737227"><ele>676.0</ele><time>2026-03-22T09:42:59.671Z</time></trkpt><trkpt lat="43.6318872" lon="12.7369789"><ele>671.6666666666667</ele><time>2026-03-22T09:43:00.664Z</time></trkpt><trkpt lat="43.6318878" lon="12.7367434"><ele>667.3333333333334</ele><time>2026-03-22T09:43:01.666Z</time></trkpt><trkpt lat="43.6319152" lon="12.7365311"><ele>663.0</ele><time>2026-03-22T09:43:02.661Z</time></trkpt><trkpt lat="43.6319364" lon="12.7363151"><ele>663.0</ele><time>2026-03-22T09:43:03.669Z</time></trkpt><trkpt lat="43.6319323" lon="12.7360712"><ele>663.0</ele><time>2026-03-22T09:43:04.67Z</time></trkpt><trkpt lat="43.6319195" lon="12.7357893"><ele>663.0</ele><time>2026-03-22T09:43:05.673Z</time></trkpt><trkpt lat="43.6319035" lon="12.7355406"><ele>659.3333333333334</ele><time>2026-03-22T09:43:06.671Z</time></trkpt><trkpt lat="43.6319055" lon="12.7353018"><ele>655.6666666666667</ele><time>2026-03-22T09:43:07.67Z</time></trkpt><trkpt lat="43.6319142" lon="12.7350647"><ele>652.0</ele><time>2026-03-22T09:43:08.669Z</time></trkpt><trkpt lat="43.6319373" lon="12.7348304"><ele>649.0</ele><time>2026-03-22T09:43:09.677Z</time></trkpt><trkpt lat="43.6319642" lon="12.7345687"><ele>646.0</ele><time>2026-03-22T09:43:10.674Z</time></trkpt><trkpt lat="43.6320008" lon="12.7343154"><ele>643.0</ele><time>2026-03-22T09:43:11.674Z</time></trkpt><trkpt lat="43.6320371" lon="12.7341659"><ele>640.8</ele><time>2026-03-22T09:43:12.677Z</time></trkpt><trkpt lat="43.6320657" lon="12.7340625"><ele>638.5999999999999</ele><time>2026-03-22T09:43:13.661Z</time></trkpt><trkpt lat="43.6320627" lon="12.7339563"><ele>636.4000000000001</ele><time>2026-03-22T09:43:14.667Z</time></trkpt><trkpt lat="43.6320143" lon="12.7337859"><ele>634.2</ele><time>2026-03-22T09:43:16.661Z</time></trkpt><trkpt lat="43.6319754" lon="12.7336974"><ele>632.0</ele><time>2026-03-22T09:43:17.667Z</time></trkpt><trkpt lat="43.6319459" lon="12.7335731"><ele>629.5</ele><time>2026-03-22T09:43:19.656Z</time></trkpt><trkpt lat="43.631955" lon="12.7334036"><ele>627.0</ele><time>2026-03-22T09:43:21.656Z</time></trkpt><trkpt lat="43.6319592" lon="12.7332541"><ele>624.5</ele><time>2026-03-22T09:43:22.654Z</time></trkpt><trkpt lat="43.6319462" lon="12.7331"><ele>622.0</ele><time>2026-03-22T09:43:23.656Z</time></trkpt><trkpt lat="43.631929" lon="12.7329485"><ele>622.0</ele><time>2026-03-22T09:43:24.663Z</time></trkpt><trkpt lat="43.6319195" lon="12.7328305"><ele>622.0</ele><time>2026-03-22T09:43:25.668Z</time></trkpt><trkpt lat="43.6319234" lon="12.7327132"><ele>622.0</ele><time>2026-03-22T09:43:26.666Z</time></trkpt><trkpt lat="43.6319863" lon="12.7326202"><ele>622.0</ele><time>2026-03-22T09:43:27.674Z</time></trkpt><trkpt lat="43.6320695" lon="12.7324895"><ele>622.0</ele><time>2026-03-22T09:43:28.664Z</time></trkpt><trkpt lat="43.6322114" lon="12.7323742"><ele>620.75</ele><time>2026-03-22T09:43:29.66Z</time></trkpt><trkpt lat="43.6323528" lon="12.7322662"><ele>619.5</ele><time>2026-03-22T09:43:30.655Z</time></trkpt><trkpt lat="43.63247" lon="12.7322007"><ele>618.25</ele><time>2026-03-22T09:43:31.668Z</time></trkpt><trkpt lat="43.632547" lon="12.7321375"><ele>617.0</ele><time>2026-03-22T09:43:32.665Z</time></trkpt><trkpt lat="43.632612" lon="12.732085"><ele>617.0</ele><time>2026-03-22T09:43:33.674Z</time></trkpt><trkpt lat="43.6326518" lon="12.7322745"><ele>617.0</ele><time>2026-03-22T09:43:36.668Z</time></trkpt><trkpt lat="43.6326629" lon="12.7324375"><ele>617.0</ele><time>2026-03-22T09:43:37.672Z</time></trkpt><trkpt lat="43.6326691" lon="12.7326543"><ele>617.0</ele><time>2026-03-22T09:43:38.669Z</time></trkpt><trkpt lat="43.6326911" lon="12.7329389"><ele>617.0</ele><time>2026-03-22T09:43:39.664Z</time></trkpt><trkpt lat="43.6327024" lon="12.7332152"><ele>617.0</ele><time>2026-03-22T09:43:40.671Z</time></trkpt><trkpt lat="43.6327105" lon="12.7334948"><ele>617.0</ele><time>2026-03-22T09:43:41.659Z</time></trkpt><trkpt lat="43.6327412" lon="12.7337757"><ele>617.0</ele><time>2026-03-22T09:43:42.672Z</time></trkpt><trkpt lat="43.6327425" lon="12.7340314"><ele>617.0</ele><time>2026-03-22T09:43:43.672Z</time></trkpt><trkpt lat="43.6327405" lon="12.7342713"><ele>617.0</ele><time>2026-03-22T09:43:44.669Z</time></trkpt><trkpt lat="43.6327516" lon="12.7344962"><ele>617.0</ele><time>2026-03-22T09:43:45.668Z</time></trkpt><trkpt lat="43.6327673" lon="12.7347088"><ele>617.0</ele><time>2026-03-22T09:43:46.67Z</time></trkpt><trkpt lat="43.6327814" lon="12.7349231"><ele>617.0</ele><time>2026-03-22T09:43:47.67Z</time></trkpt><trkpt lat="43.6327972" lon="12.735144"><ele>609.25</ele><time>2026-03-22T09:43:48.663Z</time></trkpt><trkpt lat="43.632823" lon="12.7353583"><ele>601.5</ele><time>2026-03-22T09:43:49.666Z</time></trkpt><trkpt lat="43.6328592" lon="12.7355574"><ele>593.75</ele><time>2026-03-22T09:43:50.669Z</time></trkpt><trkpt lat="43.6328933" lon="12.7357367"><ele>586.0</ele><time>2026-03-22T09:43:51.674Z</time></trkpt><trkpt lat="43.6329071" lon="12.7358712"><ele>586.0</ele><time>2026-03-22T09:43:52.658Z</time></trkpt><trkpt lat="43.6329047" lon="12.7359826"><ele>586.0</ele><time>2026-03-22T09:43:53.664Z</time></trkpt><trkpt lat="43.6328979" lon="12.7360814"><ele>586.0</ele><time>2026-03-22T09:43:55.664Z</time></trkpt><trkpt lat="43.6329872" lon="12.7360667"><ele>586.0</ele><time>2026-03-22T09:43:57.673Z</time></trkpt><trkpt lat="43.6330553" lon="12.7358988"><ele>586.0</ele><time>2026-03-22T09:43:59.665Z</time></trkpt><trkpt lat="43.6330678" lon="12.7357237"><ele>586.0</ele><time>2026-03-22T09:44:00.666Z</time></trkpt><trkpt lat="43.6330729" lon="12.7354786"><ele>586.0</ele><time>2026-03-22T09:44:01.658Z</time></trkpt><trkpt lat="43.6330924" lon="12.7352001"><ele>586.0</ele><time>2026-03-22T09:44:02.661Z</time></trkpt><trkpt lat="43.6331128" lon="12.7348841"><ele>585.3333333333334</ele><time>2026-03-22T09:44:03.654Z</time></trkpt><trkpt lat="43.6331336" lon="12.7345794"><ele>584.6666666666666</ele><time>2026-03-22T09:44:04.657Z</time></trkpt><trkpt lat="43.6331721" lon="12.7343041"><ele>584.0</ele><time>2026-03-22T09:44:05.659Z</time></trkpt><trkpt lat="43.6332168" lon="12.7340277"><ele>583.3333333333333</ele><time>2026-03-22T09:44:06.652Z</time></trkpt><trkpt lat="43.6332648" lon="12.7337666"><ele>582.6666666666666</ele><time>2026-03-22T09:44:07.654Z</time></trkpt><trkpt lat="43.6333081" lon="12.7335131"><ele>582.0</ele><time>2026-03-22T09:44:08.658Z</time></trkpt><trkpt lat="43.63336" lon="12.7332648"><ele>582.0</ele><time>2026-03-22T09:44:09.657Z</time></trkpt><trkpt lat="43.6333979" lon="12.7330425"><ele>582.0</ele><time>2026-03-22T09:44:10.669Z</time></trkpt><trkpt lat="43.6334678" lon="12.7328213"><ele>582.0</ele><time>2026-03-22T09:44:11.653Z</time></trkpt><trkpt lat="43.6335399" lon="12.7326101"><ele>583.3333333333334</ele><time>2026-03-22T09:44:12.666Z</time></trkpt><trkpt lat="43.6336229" lon="12.7324228"><ele>584.6666666666667</ele><time>2026-03-22T09:44:13.661Z</time></trkpt><trkpt lat="43.633714" lon="12.7322548"><ele>586.0</ele><time>2026-03-22T09:44:14.662Z</time></trkpt><trkpt lat="43.6337976" lon="12.7320893"><ele>579.75</ele><time>2026-03-22T09:44:15.659Z</time></trkpt><trkpt lat="43.6338502" lon="12.731914"><ele>573.5</ele><time>2026-03-22T09:44:16.665Z</time></trkpt><trkpt lat="43.6338982" lon="12.7317247"><ele>567.25</ele><time>2026-03-22T09:44:17.668Z</time></trkpt><trkpt lat="43.6339188" lon="12.7315547"><ele>561.0</ele><time>2026-03-22T09:44:18.659Z</time></trkpt><trkpt lat="43.6339151" lon="12.7314124"><ele>560.8</ele><time>2026-03-22T09:44:19.664Z</time></trkpt><trkpt lat="43.6339629" lon="12.7313063"><ele>560.6</ele><time>2026-03-22T09:44:20.655Z</time></trkpt><trkpt lat="43.6339516" lon="12.7311696"><ele>560.4</ele><time>2026-03-22T09:44:21.671Z</time></trkpt><trkpt lat="43.6339103" lon="12.7310667"><ele>560.2</ele><time>2026-03-22T09:44:22.672Z</time></trkpt><trkpt lat="43.6339336" lon="12.7309393"><ele>560.0</ele><time>2026-03-22T09:44:23.669Z</time></trkpt><trkpt lat="43.6339356" lon="12.730756"><ele>559.8</ele><time>2026-03-22T09:44:24.664Z</time></trkpt><trkpt lat="43.6339051" lon="12.730621"><ele>559.6</ele><time>2026-03-22T09:44:25.665Z</time></trkpt><trkpt lat="43.6338839" lon="12.7305042"><ele>559.4</ele><time>2026-03-22T09:44:26.663Z</time></trkpt><trkpt lat="43.6338584" lon="12.7303814"><ele>559.2</ele><time>2026-03-22T09:44:27.655Z</time></trkpt><trkpt lat="43.6338528" lon="12.7302419"><ele>559.0</ele><time>2026-03-22T09:44:28.664Z</time></trkpt><trkpt lat="43.6338541" lon="12.7301267"><ele>559.0</ele><time>2026-03-22T09:44:29.658Z</time></trkpt><trkpt lat="43.6338608" lon="12.7300239"><ele>559.0</ele><time>2026-03-22T09:44:30.661Z</time></trkpt><trkpt lat="43.6338582" lon="12.729931"><ele>559.0</ele><time>2026-03-22T09:44:31.654Z</time></trkpt><trkpt lat="43.6338509" lon="12.7298363"><ele>559.0</ele><time>2026-03-22T09:44:32.661Z</time></trkpt><trkpt lat="43.6338437" lon="12.7297392"><ele>559.0</ele><time>2026-03-22T09:44:33.662Z</time></trkpt><trkpt lat="43.633828" lon="12.7296488"><ele>559.0</ele><time>2026-03-22T09:44:34.663Z</time></trkpt><trkpt lat="43.6338161" lon="12.7295633"><ele>559.0</ele><time>2026-03-22T09:44:35.667Z</time></trkpt><trkpt lat="43.6337661" lon="12.7294902"><ele>559.0</ele><time>2026-03-22T09:44:36.66Z</time></trkpt><trkpt lat="43.6337107" lon="12.729434"><ele>559.0</ele><time>2026-03-22T09:44:37.659Z</time></trkpt><trkpt lat="43.6336557" lon="12.7293849"><ele>559.0</ele><time>2026-03-22T09:44:38.67Z</time></trkpt><trkpt lat="43.6336023" lon="12.7293039"><ele>559.0</ele><time>2026-03-22T09:44:40.663Z</time></trkpt><trkpt lat="43.6335293" lon="12.729285"><ele>559.0</ele><time>2026-03-22T09:44:42.653Z</time></trkpt><trkpt lat="43.6334485" lon="12.7292601"><ele>559.0</ele><time>2026-03-22T09:44:44.656Z</time></trkpt><trkpt lat="43.6333333" lon="12.7292006"><ele>560.5</ele><time>2026-03-22T09:44:46.66Z</time></trkpt><trkpt lat="43.6332549" lon="12.7291781"><ele>562.0</ele><time>2026-03-22T09:44:47.64Z</time></trkpt><trkpt lat="43.6331774" lon="12.7291675"><ele>563.5</ele><time>2026-03-22T09:44:48.643Z</time></trkpt><trkpt lat="43.6330886" lon="12.7291577"><ele>565.0</ele><time>2026-03-22T09:44:49.651Z</time></trkpt><trkpt lat="43.633001" lon="12.7291809"><ele>566.5</ele><time>2026-03-22T09:44:50.652Z</time></trkpt><trkpt lat="43.6329087" lon="12.7292167"><ele>568.0</ele><time>2026-03-22T09:44:51.65Z</time></trkpt><trkpt lat="43.6328111" lon="12.7292274"><ele>568.8</ele><time>2026-03-22T09:44:52.662Z</time></trkpt><trkpt lat="43.6327074" lon="12.7292795"><ele>569.5999999999999</ele><time>2026-03-22T09:44:53.655Z</time></trkpt><trkpt lat="43.6326533" lon="12.7293659"><ele>570.4000000000001</ele><time>2026-03-22T09:44:54.655Z</time></trkpt><trkpt lat="43.6325981" lon="12.7294521"><ele>571.2</ele><time>2026-03-22T09:44:55.651Z</time></trkpt><trkpt lat="43.6325574" lon="12.7295585"><ele>572.0</ele><time>2026-03-22T09:44:56.658Z</time></trkpt><trkpt lat="43.6324913" lon="12.7296581"><ele>572.0</ele><time>2026-03-22T09:44:57.654Z</time></trkpt><trkpt lat="43.6324167" lon="12.7297306"><ele>572.0</ele><time>2026-03-22T09:44:58.655Z</time></trkpt><trkpt lat="43.6323445" lon="12.7298267"><ele>572.0</ele><time>2026-03-22T09:44:59.656Z</time></trkpt><trkpt lat="43.6322932" lon="12.7299182"><ele>572.0</ele><time>2026-03-22T09:45:00.661Z</time></trkpt><trkpt lat="43.6322406" lon="12.7299971"><ele>572.0</ele><time>2026-03-22T09:45:01.656Z</time></trkpt><trkpt lat="43.6321589" lon="12.7300791"><ele>572.0</ele><time>2026-03-22T09:45:02.656Z</time></trkpt><trkpt lat="43.6320564" lon="12.7301717"><ele>572.0</ele><time>2026-03-22T09:45:03.655Z</time></trkpt><trkpt lat="43.6319335" lon="12.7302398"><ele>572.0</ele><time>2026-03-22T09:45:04.65Z</time></trkpt><trkpt lat="43.6318226" lon="12.7302667"><ele>572.0</ele><time>2026-03-22T09:45:05.661Z</time></trkpt><trkpt lat="43.6317483" lon="12.7302734"><ele>572.0</ele><time>2026-03-22T09:45:06.658Z</time></trkpt><trkpt lat="43.6316637" lon="12.7302189"><ele>568.2</ele><time>2026-03-22T09:45:07.659Z</time></trkpt><trkpt lat="43.6315759" lon="12.7301486"><ele>564.4000000000001</ele><time>2026-03-22T09:45:08.667Z</time></trkpt><trkpt lat="43.6315056" lon="12.7300791"><ele>560.5999999999999</ele><time>2026-03-22T09:45:09.66Z</time></trkpt><trkpt lat="43.6314133" lon="12.7300296"><ele>556.8</ele><time>2026-03-22T09:45:10.666Z</time></trkpt><trkpt lat="43.6312854" lon="12.7300007"><ele>553.0</ele><time>2026-03-22T09:45:11.671Z</time></trkpt><trkpt lat="43.6311449" lon="12.7299709"><ele>550.5</ele><time>2026-03-22T09:45:12.663Z</time></trkpt><trkpt lat="43.631032" lon="12.72999"><ele>548.0</ele><time>2026-03-22T09:45:13.664Z</time></trkpt><trkpt lat="43.6308983" lon="12.7300004"><ele>545.5</ele><time>2026-03-22T09:45:14.67Z</time></trkpt><trkpt lat="43.6307686" lon="12.730029"><ele>543.0</ele><time>2026-03-22T09:45:15.653Z</time></trkpt><trkpt lat="43.6306376" lon="12.7300628"><ele>543.0</ele><time>2026-03-22T09:45:16.656Z</time></trkpt><trkpt lat="43.6305057" lon="12.730106"><ele>543.0</ele><time>2026-03-22T09:45:17.669Z</time></trkpt><trkpt lat="43.6304268" lon="12.7301317"><ele>543.0</ele><time>2026-03-22T09:45:18.665Z</time></trkpt><trkpt lat="43.6303504" lon="12.7301865"><ele>543.0</ele><time>2026-03-22T09:45:19.653Z</time></trkpt><trkpt lat="43.6302611" lon="12.7302499"><ele>543.0</ele><time>2026-03-22T09:45:20.656Z</time></trkpt><trkpt lat="43.6301653" lon="12.730312"><ele>543.5</ele><time>2026-03-22T09:45:21.656Z</time></trkpt><trkpt lat="43.6300602" lon="12.7303964"><ele>544.0</ele><time>2026-03-22T09:45:22.66Z</time></trkpt><trkpt lat="43.6299648" lon="12.7304963"><ele>544.5</ele><time>2026-03-22T09:45:23.659Z</time></trkpt><trkpt lat="43.6298784" lon="12.730617"><ele>545.0</ele><time>2026-03-22T09:45:24.662Z</time></trkpt><trkpt lat="43.6297988" lon="12.7307199"><ele>545.0</ele><time>2026-03-22T09:45:25.652Z</time></trkpt><trkpt lat="43.6297227" lon="12.730785"><ele>545.0</ele><time>2026-03-22T09:45:26.659Z</time></trkpt><trkpt lat="43.6296447" lon="12.7308685"><ele>545.0</ele><time>2026-03-22T09:45:27.656Z</time></trkpt><trkpt lat="43.6295724" lon="12.7309262"><ele>545.0</ele><time>2026-03-22T09:45:28.656Z</time></trkpt><trkpt lat="43.6294854" lon="12.7309555"><ele>545.0</ele><time>2026-03-22T09:45:29.652Z</time></trkpt><trkpt lat="43.6293929" lon="12.7309721"><ele>542.0</ele><time>2026-03-22T09:45:30.667Z</time></trkpt><trkpt lat="43.6292823" lon="12.7309698"><ele>539.0</ele><time>2026-03-22T09:45:31.657Z</time></trkpt><trkpt lat="43.6291687" lon="12.7309469"><ele>536.0</ele><time>2026-03-22T09:45:32.66Z</time></trkpt><trkpt lat="43.6290683" lon="12.7309412"><ele>533.0</ele><time>2026-03-22T09:45:33.658Z</time></trkpt><trkpt lat="43.6289639" lon="12.7309163"><ele>530.0</ele><time>2026-03-22T09:45:34.656Z</time></trkpt><trkpt lat="43.6288547" lon="12.7308921"><ele>530.0</ele><time>2026-03-22T09:45:35.659Z</time></trkpt><trkpt lat="43.6287603" lon="12.7308895"><ele>530.0</ele><time>2026-03-22T09:45:36.67Z</time></trkpt><trkpt lat="43.6286859" lon="12.7309019"><ele>530.0</ele><time>2026-03-22T09:45:37.667Z</time></trkpt><trkpt lat="43.6286217" lon="12.7309516"><ele>530.0</ele><time>2026-03-22T09:45:38.663Z</time></trkpt><trkpt lat="43.6285175" lon="12.731004"><ele>530.0</ele><time>2026-03-22T09:45:39.656Z</time></trkpt><trkpt lat="43.6284065" lon="12.7310778"><ele>530.5</ele><time>2026-03-22T09:45:40.659Z</time></trkpt><trkpt lat="43.6282968" lon="12.7311748"><ele>531.0</ele><time>2026-03-22T09:45:41.667Z</time></trkpt><trkpt lat="43.6281924" lon="12.7312772"><ele>531.5</ele><time>2026-03-22T09:45:42.656Z</time></trkpt><trkpt lat="43.6280937" lon="12.7313777"><ele>532.0</ele><time>2026-03-22T09:45:43.663Z</time></trkpt><trkpt lat="43.6280324" lon="12.7314448"><ele>532.0</ele><time>2026-03-22T09:45:44.668Z</time></trkpt><trkpt lat="43.6279662" lon="12.7314531"><ele>532.0</ele><time>2026-03-22T09:45:45.661Z</time></trkpt><trkpt lat="43.6279044" lon="12.7314779"><ele>532.0</ele><time>2026-03-22T09:45:46.659Z</time></trkpt><trkpt lat="43.6278473" lon="12.7313553"><ele>532.0</ele><time>2026-03-22T09:45:49.668Z</time></trkpt><trkpt lat="43.6278802" lon="12.7312293"><ele>532.0</ele><time>2026-03-22T09:45:50.664Z</time></trkpt><trkpt lat="43.6279671" lon="12.7311519"><ele>532.0</ele><time>2026-03-22T09:45:51.67Z</time></trkpt><trkpt lat="43.6280712" lon="12.7310042"><ele>524.6666666666667</ele><time>2026-03-22T09:45:52.665Z</time></trkpt><trkpt lat="43.6281783" lon="12.7308381"><ele>517.3333333333334</ele><time>2026-03-22T09:45:53.668Z</time></trkpt><trkpt lat="43.6282655" lon="12.7306663"><ele>510.0</ele><time>2026-03-22T09:45:54.665Z</time></trkpt><trkpt lat="43.6283678" lon="12.7304756"><ele>510.0</ele><time>2026-03-22T09:45:55.671Z</time></trkpt><trkpt lat="43.6284819" lon="12.7303031"><ele>510.0</ele><time>2026-03-22T09:45:56.669Z</time></trkpt><trkpt lat="43.628627" lon="12.7301042"><ele>510.0</ele><time>2026-03-22T09:45:57.659Z</time></trkpt><trkpt lat="43.6287597" lon="12.7298855"><ele>510.0</ele><time>2026-03-22T09:45:58.662Z</time></trkpt><trkpt lat="43.6288827" lon="12.7296934"><ele>510.0</ele><time>2026-03-22T09:45:59.663Z</time></trkpt><trkpt lat="43.6289907" lon="12.7295682"><ele>510.0</ele><time>2026-03-22T09:46:00.666Z</time></trkpt><trkpt lat="43.6290722" lon="12.7294088"><ele>502.66666666666663</ele><time>2026-03-22T09:46:01.67Z</time></trkpt><trkpt lat="43.6291939" lon="12.7292521"><ele>495.3333333333333</ele><time>2026-03-22T09:46:02.665Z</time></trkpt><trkpt lat="43.6293116" lon="12.7290923"><ele>488.0</ele><time>2026-03-22T09:46:03.662Z</time></trkpt><trkpt lat="43.6294128" lon="12.7289786"><ele>489.25</ele><time>2026-03-22T09:46:04.663Z</time></trkpt><trkpt lat="43.629531" lon="12.7288575"><ele>490.5</ele><time>2026-03-22T09:46:05.659Z</time></trkpt><trkpt lat="43.6296392" lon="12.7287033"><ele>491.75</ele><time>2026-03-22T09:46:06.665Z</time></trkpt><trkpt lat="43.6297358" lon="12.7285618"><ele>493.0</ele><time>2026-03-22T09:46:07.664Z</time></trkpt><trkpt lat="43.6297922" lon="12.7284405"><ele>493.00000000000006</ele><time>2026-03-22T09:46:08.659Z</time></trkpt><trkpt lat="43.6298431" lon="12.7283497"><ele>493.0</ele><time>2026-03-22T09:46:09.659Z</time></trkpt><trkpt lat="43.6298768" lon="12.7282436"><ele>493.0</ele><time>2026-03-22T09:46:10.666Z</time></trkpt><trkpt lat="43.629919" lon="12.7281715"><ele>493.0</ele><time>2026-03-22T09:46:12.675Z</time></trkpt><trkpt lat="43.6298721" lon="12.7281099"><ele>493.00000000000006</ele><time>2026-03-22T09:46:13.667Z</time></trkpt><trkpt lat="43.6297986" lon="12.7281194"><ele>493.0</ele><time>2026-03-22T09:46:15.655Z</time></trkpt><trkpt lat="43.6297128" lon="12.7281882"><ele>493.0</ele><time>2026-03-22T09:46:17.655Z</time></trkpt><trkpt lat="43.6296404" lon="12.7282891"><ele>493.0</ele><time>2026-03-22T09:46:18.654Z</time></trkpt><trkpt lat="43.6295402" lon="12.7283913"><ele>493.0</ele><time>2026-03-22T09:46:19.651Z</time></trkpt><trkpt lat="43.6294099" lon="12.7285454"><ele>493.0</ele><time>2026-03-22T09:46:20.658Z</time></trkpt><trkpt lat="43.6292627" lon="12.7286993"><ele>491.33333333333337</ele><time>2026-03-22T09:46:21.647Z</time></trkpt><trkpt lat="43.6291209" lon="12.7288484"><ele>489.66666666666663</ele><time>2026-03-22T09:46:22.652Z</time></trkpt><trkpt lat="43.6289869" lon="12.7290103"><ele>488.0</ele><time>2026-03-22T09:46:23.659Z</time></trkpt><trkpt lat="43.6288438" lon="12.7291495"><ele>488.0</ele><time>2026-03-22T09:46:24.662Z</time></trkpt><trkpt lat="43.6286988" lon="12.7292573"><ele>488.0</ele><time>2026-03-22T09:46:25.662Z</time></trkpt><trkpt lat="43.628565" lon="12.7293178"><ele>488.0</ele><time>2026-03-22T09:46:26.66Z</time></trkpt><trkpt lat="43.6284374" lon="12.7293538"><ele>488.0</ele><time>2026-03-22T09:46:27.654Z</time></trkpt><trkpt lat="43.6283246" lon="12.7293947"><ele>487.59999999999997</ele><time>2026-03-22T09:46:28.651Z</time></trkpt><trkpt lat="43.6282412" lon="12.7294433"><ele>487.19999999999993</ele><time>2026-03-22T09:46:29.655Z</time></trkpt><trkpt lat="43.6281511" lon="12.7294869"><ele>486.8</ele><time>2026-03-22T09:46:30.656Z</time></trkpt><trkpt lat="43.6280798" lon="12.7295488"><ele>486.4</ele><time>2026-03-22T09:46:31.664Z</time></trkpt><trkpt lat="43.6279775" lon="12.7296278"><ele>486.0</ele><time>2026-03-22T09:46:33.663Z</time></trkpt><trkpt lat="43.6279357" lon="12.7295251"><ele>480.75</ele><time>2026-03-22T09:46:35.671Z</time></trkpt><trkpt lat="43.6279631" lon="12.7293667"><ele>475.5</ele><time>2026-03-22T09:46:37.674Z</time></trkpt><trkpt lat="43.6280219" lon="12.7292821"><ele>470.25</ele><time>2026-03-22T09:46:38.669Z</time></trkpt><trkpt lat="43.6280941" lon="12.7291379"><ele>465.0</ele><time>2026-03-22T09:46:39.669Z</time></trkpt><trkpt lat="43.6282103" lon="12.7289819"><ele>465.0</ele><time>2026-03-22T09:46:40.667Z</time></trkpt><trkpt lat="43.6283546" lon="12.7288166"><ele>465.0</ele><time>2026-03-22T09:46:41.664Z</time></trkpt><trkpt lat="43.6284868" lon="12.7286654"><ele>465.0</ele><time>2026-03-22T09:46:42.664Z</time></trkpt><trkpt lat="43.628621" lon="12.7285694"><ele>466.25</ele><time>2026-03-22T09:46:43.668Z</time></trkpt><trkpt lat="43.6287585" lon="12.7284532"><ele>467.5</ele><time>2026-03-22T09:46:44.659Z</time></trkpt><trkpt lat="43.6288757" lon="12.7283364"><ele>468.75</ele><time>2026-03-22T09:46:45.667Z</time></trkpt><trkpt lat="43.6289669" lon="12.7282493"><ele>470.0</ele><time>2026-03-22T09:46:46.666Z</time></trkpt><trkpt lat="43.6290626" lon="12.7281356"><ele>470.0</ele><time>2026-03-22T09:46:47.663Z</time></trkpt><trkpt lat="43.6292012" lon="12.7279995"><ele>470.0</ele><time>2026-03-22T09:46:48.667Z</time></trkpt><trkpt lat="43.6292804" lon="12.7277977"><ele>470.0</ele><time>2026-03-22T09:46:49.663Z</time></trkpt><trkpt lat="43.6292947" lon="12.7275531"><ele>465.5</ele><time>2026-03-22T09:46:50.664Z</time></trkpt><trkpt lat="43.6293103" lon="12.7273409"><ele>461.0</ele><time>2026-03-22T09:46:51.663Z</time></trkpt><trkpt lat="43.6293345" lon="12.7271648"><ele>456.5</ele><time>2026-03-22T09:46:52.664Z</time></trkpt><trkpt lat="43.6293752" lon="12.7270423"><ele>452.0</ele><time>2026-03-22T09:46:53.66Z</time></trkpt><trkpt lat="43.6294375" lon="12.7269999"><ele>452.0</ele><time>2026-03-22T09:46:54.664Z</time></trkpt><trkpt lat="43.6295073" lon="12.726967"><ele>452.00000000000006</ele><time>2026-03-22T09:46:55.677Z</time></trkpt><trkpt lat="43.6295512" lon="12.7268846"><ele>452.00000000000006</ele><time>2026-03-22T09:46:57.669Z</time></trkpt><trkpt lat="43.6294574" lon="12.7268423"><ele>452.0</ele><time>2026-03-22T09:46:59.667Z</time></trkpt><trkpt lat="43.6293355" lon="12.7269153"><ele>452.0</ele><time>2026-03-22T09:47:01.664Z</time></trkpt><trkpt lat="43.6292157" lon="12.7269712"><ele>452.0</ele><time>2026-03-22T09:47:02.665Z</time></trkpt><trkpt lat="43.629068" lon="12.727049"><ele>452.0</ele><time>2026-03-22T09:47:03.666Z</time></trkpt><trkpt lat="43.6289163" lon="12.727116"><ele>452.0</ele><time>2026-03-22T09:47:04.666Z</time></trkpt><trkpt lat="43.6287667" lon="12.7271774"><ele>445.0</ele><time>2026-03-22T09:47:05.66Z</time></trkpt><trkpt lat="43.6286356" lon="12.7272258"><ele>438.0</ele><time>2026-03-22T09:47:06.67Z</time></trkpt><trkpt lat="43.6285124" lon="12.7272839"><ele>431.0</ele><time>2026-03-22T09:47:07.667Z</time></trkpt><trkpt lat="43.6283952" lon="12.7273827"><ele>424.0</ele><time>2026-03-22T09:47:08.67Z</time></trkpt><trkpt lat="43.6283191" lon="12.7275112"><ele>424.0</ele><time>2026-03-22T09:47:09.659Z</time></trkpt><trkpt lat="43.6282507" lon="12.7276361"><ele>424.0</ele><time>2026-03-22T09:47:10.656Z</time></trkpt><trkpt lat="43.6281654" lon="12.7277601"><ele>424.0</ele><time>2026-03-22T09:47:11.661Z</time></trkpt><trkpt lat="43.6280593" lon="12.7278662"><ele>424.0</ele><time>2026-03-22T09:47:12.656Z</time></trkpt><trkpt lat="43.6279596" lon="12.7279543"><ele>423.25</ele><time>2026-03-22T09:47:13.663Z</time></trkpt><trkpt lat="43.6278503" lon="12.7280282"><ele>422.5</ele><time>2026-03-22T09:47:14.671Z</time></trkpt><trkpt lat="43.6277297" lon="12.7280773"><ele>421.75</ele><time>2026-03-22T09:47:15.649Z</time></trkpt><trkpt lat="43.6276147" lon="12.7281013"><ele>421.0</ele><time>2026-03-22T09:47:16.651Z</time></trkpt><trkpt lat="43.6275048" lon="12.7281335"><ele>421.0</ele><time>2026-03-22T09:47:17.66Z</time></trkpt><trkpt lat="43.6273894" lon="12.7281988"><ele>421.0</ele><time>2026-03-22T09:47:18.66Z</time></trkpt><trkpt lat="43.6272656" lon="12.7282983"><ele>421.0</ele><time>2026-03-22T09:47:19.652Z</time></trkpt><trkpt lat="43.6271532" lon="12.728411"><ele>421.0</ele><time>2026-03-22T09:47:20.659Z</time></trkpt><trkpt lat="43.6270492" lon="12.7285274"><ele>417.20000000000005</ele><time>2026-03-22T09:47:21.65Z</time></trkpt><trkpt lat="43.6269543" lon="12.7286346"><ele>413.40000000000003</ele><time>2026-03-22T09:47:22.649Z</time></trkpt><trkpt lat="43.6268638" lon="12.728733"><ele>409.6</ele><time>2026-03-22T09:47:23.654Z</time></trkpt><trkpt lat="43.6267749" lon="12.728814"><ele>405.8</ele><time>2026-03-22T09:47:24.661Z</time></trkpt><trkpt lat="43.6266898" lon="12.7288975"><ele>402.0</ele><time>2026-03-22T09:47:25.658Z</time></trkpt><trkpt lat="43.6266038" lon="12.7289853"><ele>402.0</ele><time>2026-03-22T09:47:26.662Z</time></trkpt><trkpt lat="43.6265298" lon="12.7290511"><ele>402.0</ele><time>2026-03-22T09:47:27.659Z</time></trkpt><trkpt lat="43.6264593" lon="12.7291066"><ele>402.0</ele><time>2026-03-22T09:47:29.663Z</time></trkpt><trkpt lat="43.6265209" lon="12.7289497"><ele>402.0</ele><time>2026-03-22T09:47:32.675Z</time></trkpt><trkpt lat="43.6265732" lon="12.7288851"><ele>402.0</ele><time>2026-03-22T09:47:33.668Z</time></trkpt><trkpt lat="43.6266317" lon="12.7288153"><ele>402.0</ele><time>2026-03-22T09:47:34.655Z</time></trkpt><trkpt lat="43.6266896" lon="12.7287361"><ele>402.0</ele><time>2026-03-22T09:47:35.663Z</time></trkpt><trkpt lat="43.626745" lon="12.728643"><ele>402.0</ele><time>2026-03-22T09:47:36.663Z</time></trkpt><trkpt lat="43.6268049" lon="12.7284994"><ele>402.0</ele><time>2026-03-22T09:47:37.665Z</time></trkpt><trkpt lat="43.6268503" lon="12.7283821"><ele>402.0</ele><time>2026-03-22T09:47:38.667Z</time></trkpt><trkpt lat="43.6268929" lon="12.7282658"><ele>402.0</ele><time>2026-03-22T09:47:39.67Z</time></trkpt><trkpt lat="43.6269466" lon="12.7281656"><ele>399.6</ele><time>2026-03-22T09:47:40.665Z</time></trkpt><trkpt lat="43.6269722" lon="12.7280675"><ele>397.20000000000005</ele><time>2026-03-22T09:47:41.667Z</time></trkpt><trkpt lat="43.6269626" lon="12.727964"><ele>394.8</ele><time>2026-03-22T09:47:43.67Z</time></trkpt><trkpt lat="43.6268919" lon="12.7279953"><ele>392.4</ele><time>2026-03-22T09:47:45.683Z</time></trkpt><trkpt lat="43.6267808" lon="12.7281437"><ele>390.0</ele><time>2026-03-22T09:47:47.664Z</time></trkpt><trkpt lat="43.6267114" lon="12.7282493"><ele>390.0</ele><time>2026-03-22T09:47:48.659Z</time></trkpt><trkpt lat="43.6266601" lon="12.7283497"><ele>390.0</ele><time>2026-03-22T09:47:49.66Z</time></trkpt><trkpt lat="43.6266309" lon="12.7284608"><ele>390.0</ele><time>2026-03-22T09:47:50.651Z</time></trkpt><trkpt lat="43.6266049" lon="12.7285567"><ele>390.0</ele><time>2026-03-22T09:47:51.657Z</time></trkpt><trkpt lat="43.6265595" lon="12.7286304"><ele>390.0</ele><time>2026-03-22T09:47:52.656Z</time></trkpt><trkpt lat="43.6264281" lon="12.728668"><ele>392.4</ele><time>2026-03-22T09:47:54.653Z</time></trkpt><trkpt lat="43.6263112" lon="12.7286916"><ele>394.8</ele><time>2026-03-22T09:47:56.66Z</time></trkpt><trkpt lat="43.6262218" lon="12.728784"><ele>397.20000000000005</ele><time>2026-03-22T09:47:58.662Z</time></trkpt><trkpt lat="43.6261817" lon="12.7288544"><ele>399.6</ele><time>2026-03-22T09:47:59.664Z</time></trkpt><trkpt lat="43.6261311" lon="12.7289718"><ele>402.0</ele><time>2026-03-22T09:48:00.66Z</time></trkpt><trkpt lat="43.6260661" lon="12.7290882"><ele>395.8333333333333</ele><time>2026-03-22T09:48:01.654Z</time></trkpt><trkpt lat="43.626011" lon="12.729175"><ele>389.6666666666667</ele><time>2026-03-22T09:48:02.661Z</time></trkpt><trkpt lat="43.6259743" lon="12.7292505"><ele>383.5</ele><time>2026-03-22T09:48:03.662Z</time></trkpt><trkpt lat="43.6259496" lon="12.7293496"><ele>377.33333333333337</ele><time>2026-03-22T09:48:04.657Z</time></trkpt><trkpt lat="43.6259509" lon="12.7294419"><ele>371.1666666666667</ele><time>2026-03-22T09:48:05.663Z</time></trkpt><trkpt lat="43.6259812" lon="12.7295288"><ele>365.0</ele><time>2026-03-22T09:48:06.661Z</time></trkpt><trkpt lat="43.6260119" lon="12.7296603"><ele>365.0</ele><time>2026-03-22T09:48:07.654Z</time></trkpt><trkpt lat="43.626063" lon="12.7297907"><ele>365.0</ele><time>2026-03-22T09:48:08.653Z</time></trkpt><trkpt lat="43.6260952" lon="12.7298953"><ele>365.0</ele><time>2026-03-22T09:48:09.642Z</time></trkpt><trkpt lat="43.6261005" lon="12.7299976"><ele>365.0</ele><time>2026-03-22T09:48:10.649Z</time></trkpt><trkpt lat="43.6260786" lon="12.730089"><ele>365.0</ele><time>2026-03-22T09:48:11.659Z</time></trkpt><trkpt lat="43.6259912" lon="12.7302036"><ele>367.5</ele><time>2026-03-22T09:48:13.658Z</time></trkpt><trkpt lat="43.6258621" lon="12.7302431"><ele>370.0</ele><time>2026-03-22T09:48:15.656Z</time></trkpt><trkpt lat="43.6257985" lon="12.7302952"><ele>372.5</ele><time>2026-03-22T09:48:16.666Z</time></trkpt><trkpt lat="43.6257585" lon="12.7303784"><ele>375.0</ele><time>2026-03-22T09:48:17.657Z</time></trkpt><trkpt lat="43.6257452" lon="12.7304737"><ele>377.5</ele><time>2026-03-22T09:48:18.659Z</time></trkpt><trkpt lat="43.625759" lon="12.730595"><ele>380.0</ele><time>2026-03-22T09:48:19.656Z</time></trkpt><trkpt lat="43.6257661" lon="12.7307118"><ele>380.0</ele><time>2026-03-22T09:48:20.656Z</time></trkpt><trkpt lat="43.6257809" lon="12.7308334"><ele>380.0</ele><time>2026-03-22T09:48:21.653Z</time></trkpt><trkpt lat="43.625767" lon="12.7309335"><ele>380.0</ele><time>2026-03-22T09:48:22.652Z</time></trkpt><trkpt lat="43.6257013" lon="12.7310835"><ele>380.0</ele><time>2026-03-22T09:48:24.657Z</time></trkpt><trkpt lat="43.625631" lon="12.7311619"><ele>380.0</ele><time>2026-03-22T09:48:25.66Z</time></trkpt><trkpt lat="43.6255373" lon="12.7312297"><ele>383.33333333333337</ele><time>2026-03-22T09:48:26.659Z</time></trkpt><trkpt lat="43.6254358" lon="12.7312714"><ele>386.6666666666667</ele><time>2026-03-22T09:48:27.658Z</time></trkpt><trkpt lat="43.6253387" lon="12.7313025"><ele>390.0</ele><time>2026-03-22T09:48:28.661Z</time></trkpt><trkpt lat="43.6252504" lon="12.7313312"><ele>393.33333333333337</ele><time>2026-03-22T09:48:29.656Z</time></trkpt><trkpt lat="43.6251785" lon="12.7313493"><ele>396.6666666666667</ele><time>2026-03-22T09:48:30.651Z</time></trkpt><trkpt lat="43.6251232" lon="12.7313959"><ele>400.0</ele><time>2026-03-22T09:48:31.657Z</time></trkpt><trkpt lat="43.625073" lon="12.7314744"><ele>393.1666666666667</ele><time>2026-03-22T09:48:32.654Z</time></trkpt><trkpt lat="43.6250416" lon="12.7315724"><ele>386.33333333333337</ele><time>2026-03-22T09:48:33.659Z</time></trkpt><trkpt lat="43.6250009" lon="12.7316528"><ele>379.5</ele><time>2026-03-22T09:48:34.658Z</time></trkpt><trkpt lat="43.6249506" lon="12.7317084"><ele>372.6666666666667</ele><time>2026-03-22T09:48:35.658Z</time></trkpt><trkpt lat="43.6248306" lon="12.7317452"><ele>365.83333333333337</ele><time>2026-03-22T09:48:37.657Z</time></trkpt><trkpt lat="43.6247619" lon="12.7317224"><ele>359.0</ele><time>2026-03-22T09:48:38.654Z</time></trkpt><trkpt lat="43.6246983" lon="12.7317185"><ele>359.0</ele><time>2026-03-22T09:48:39.655Z</time></trkpt><trkpt lat="43.6245893" lon="12.7318066"><ele>359.0</ele><time>2026-03-22T09:48:41.653Z</time></trkpt><trkpt lat="43.624544" lon="12.7318771"><ele>359.0</ele><time>2026-03-22T09:48:42.659Z</time></trkpt><trkpt lat="43.6245117" lon="12.7319676"><ele>359.0</ele><time>2026-03-22T09:48:43.658Z</time></trkpt><trkpt lat="43.6244718" lon="12.7320425"><ele>359.0</ele><time>2026-03-22T09:48:44.659Z</time></trkpt><trkpt lat="43.6244195" lon="12.7320961"><ele>359.0</ele><time>2026-03-22T09:48:45.657Z</time></trkpt><trkpt lat="43.6243467" lon="12.7321307"><ele>358.79999999999995</ele><time>2026-03-22T09:48:46.673Z</time></trkpt><trkpt lat="43.6242656" lon="12.7321376"><ele>358.59999999999997</ele><time>2026-03-22T09:48:47.665Z</time></trkpt><trkpt lat="43.6241772" lon="12.7320963"><ele>358.4</ele><time>2026-03-22T09:48:48.664Z</time></trkpt><trkpt lat="43.62409" lon="12.7320295"><ele>358.2</ele><time>2026-03-22T09:48:49.66Z</time></trkpt><trkpt lat="43.6240045" lon="12.7319917"><ele>358.0</ele><time>2026-03-22T09:48:50.665Z</time></trkpt><trkpt lat="43.6239005" lon="12.7320007"><ele>358.0</ele><time>2026-03-22T09:48:51.654Z</time></trkpt><trkpt lat="43.6237839" lon="12.7320073"><ele>358.0</ele><time>2026-03-22T09:48:52.658Z</time></trkpt><trkpt lat="43.6236716" lon="12.7320124"><ele>358.0</ele><time>2026-03-22T09:48:53.663Z</time></trkpt><trkpt lat="43.6235731" lon="12.7320204"><ele>358.0</ele><time>2026-03-22T09:48:54.655Z</time></trkpt><trkpt lat="43.6234823" lon="12.7320396"><ele>358.0</ele><time>2026-03-22T09:48:55.661Z</time></trkpt><trkpt lat="43.6233939" lon="12.7320854"><ele>351.75</ele><time>2026-03-22T09:48:56.663Z</time></trkpt><trkpt lat="43.6233214" lon="12.7321835"><ele>345.5</ele><time>2026-03-22T09:48:57.655Z</time></trkpt><trkpt lat="43.6232393" lon="12.7323286"><ele>339.25</ele><time>2026-03-22T09:48:58.659Z</time></trkpt><trkpt lat="43.6231628" lon="12.7324806"><ele>333.0</ele><time>2026-03-22T09:48:59.654Z</time></trkpt><trkpt lat="43.6230748" lon="12.7326358"><ele>336.75</ele><time>2026-03-22T09:49:00.649Z</time></trkpt><trkpt lat="43.6229953" lon="12.7327824"><ele>340.5</ele><time>2026-03-22T09:49:01.652Z</time></trkpt><trkpt lat="43.6229186" lon="12.73293"><ele>344.25</ele><time>2026-03-22T09:49:02.651Z</time></trkpt><trkpt lat="43.6228511" lon="12.7330828"><ele>348.0</ele><time>2026-03-22T09:49:03.652Z</time></trkpt><trkpt lat="43.6227965" lon="12.7332318"><ele>346.4</ele><time>2026-03-22T09:49:04.65Z</time></trkpt><trkpt lat="43.6227474" lon="12.7333533"><ele>344.79999999999995</ele><time>2026-03-22T09:49:05.652Z</time></trkpt><trkpt lat="43.6227115" lon="12.7334502"><ele>343.2</ele><time>2026-03-22T09:49:06.647Z</time></trkpt><trkpt lat="43.6226695" lon="12.7335631"><ele>341.6</ele><time>2026-03-22T09:49:08.661Z</time></trkpt><trkpt lat="43.6225632" lon="12.7335306"><ele>340.0</ele><time>2026-03-22T09:49:10.658Z</time></trkpt><trkpt lat="43.6224862" lon="12.7334695"><ele>340.0</ele><time>2026-03-22T09:49:11.658Z</time></trkpt><trkpt lat="43.6224021" lon="12.7334101"><ele>340.0</ele><time>2026-03-22T09:49:12.658Z</time></trkpt><trkpt lat="43.6223248" lon="12.7334021"><ele>340.0</ele><time>2026-03-22T09:49:13.663Z</time></trkpt><trkpt lat="43.6222469" lon="12.7334162"><ele>340.0</ele><time>2026-03-22T09:49:14.666Z</time></trkpt><trkpt lat="43.6221674" lon="12.7334605"><ele>340.0</ele><time>2026-03-22T09:49:15.667Z</time></trkpt><trkpt lat="43.6220884" lon="12.733537"><ele>340.0</ele><time>2026-03-22T09:49:16.66Z</time></trkpt><trkpt lat="43.6220132" lon="12.7336316"><ele>336.2</ele><time>2026-03-22T09:49:17.673Z</time></trkpt><trkpt lat="43.6219343" lon="12.7337272"><ele>332.4</ele><time>2026-03-22T09:49:18.667Z</time></trkpt><trkpt lat="43.6218499" lon="12.7338051"><ele>328.6</ele><time>2026-03-22T09:49:19.666Z</time></trkpt><trkpt lat="43.621756" lon="12.7338709"><ele>324.8</ele><time>2026-03-22T09:49:20.668Z</time></trkpt><trkpt lat="43.6216474" lon="12.7338995"><ele>321.0</ele><time>2026-03-22T09:49:21.66Z</time></trkpt><trkpt lat="43.6215366" lon="12.7338869"><ele>321.0</ele><time>2026-03-22T09:49:22.668Z</time></trkpt><trkpt lat="43.6214113" lon="12.7338669"><ele>321.0</ele><time>2026-03-22T09:49:23.671Z</time></trkpt><trkpt lat="43.6212902" lon="12.7338426"><ele>321.0</ele><time>2026-03-22T09:49:24.675Z</time></trkpt><trkpt lat="43.6211739" lon="12.733824"><ele>321.0</ele><time>2026-03-22T09:49:25.671Z</time></trkpt><trkpt lat="43.6210619" lon="12.7337932"><ele>319.0</ele><time>2026-03-22T09:49:26.661Z</time></trkpt><trkpt lat="43.620957" lon="12.7337637"><ele>317.0</ele><time>2026-03-22T09:49:27.665Z</time></trkpt><trkpt lat="43.6208624" lon="12.7337456"><ele>315.0</ele><time>2026-03-22T09:49:28.668Z</time></trkpt><trkpt lat="43.6207727" lon="12.7337333"><ele>313.0</ele><time>2026-03-22T09:49:29.681Z</time></trkpt><trkpt lat="43.6206979" lon="12.7337281"><ele>311.0</ele><time>2026-03-22T09:49:30.669Z</time></trkpt><trkpt lat="43.6206279" lon="12.733701"><ele>309.0</ele><time>2026-03-22T09:49:32.672Z</time></trkpt><trkpt lat="43.6206505" lon="12.7336151"><ele>305.8</ele><time>2026-03-22T09:49:34.677Z</time></trkpt><trkpt lat="43.6207554" lon="12.73352"><ele>302.59999999999997</ele><time>2026-03-22T09:49:36.668Z</time></trkpt><trkpt lat="43.6208231" lon="12.7334557"><ele>299.4</ele><time>2026-03-22T09:49:37.669Z</time></trkpt><trkpt lat="43.6208938" lon="12.7333865"><ele>296.2</ele><time>2026-03-22T09:49:38.666Z</time></trkpt><trkpt lat="43.6209769" lon="12.7333146"><ele>293.0</ele><time>2026-03-22T09:49:39.666Z</time></trkpt><trkpt lat="43.6210671" lon="12.7332316"><ele>295.5</ele><time>2026-03-22T09:49:40.674Z</time></trkpt><trkpt lat="43.6211503" lon="12.7331178"><ele>298.0</ele><time>2026-03-22T09:49:41.665Z</time></trkpt><trkpt lat="43.6212362" lon="12.7329877"><ele>300.5</ele><time>2026-03-22T09:49:42.669Z</time></trkpt><trkpt lat="43.6213242" lon="12.7328615"><ele>303.0</ele><time>2026-03-22T09:49:43.658Z</time></trkpt><trkpt lat="43.6214063" lon="12.7327377"><ele>299.8</ele><time>2026-03-22T09:49:44.67Z</time></trkpt><trkpt lat="43.621489" lon="12.7326206"><ele>296.6</ele><time>2026-03-22T09:49:45.667Z</time></trkpt><trkpt lat="43.6215705" lon="12.732517"><ele>293.4</ele><time>2026-03-22T09:49:46.66Z</time></trkpt><trkpt lat="43.6216384" lon="12.7324344"><ele>290.2</ele><time>2026-03-22T09:49:47.658Z</time></trkpt><trkpt lat="43.6216929" lon="12.7323733"><ele>287.0</ele><time>2026-03-22T09:49:48.688Z</time></trkpt><trkpt lat="43.6217218" lon="12.7322344"><ele>287.0</ele><time>2026-03-22T09:49:50.67Z</time></trkpt><trkpt lat="43.6216612" lon="12.7321217"><ele>287.0</ele><time>2026-03-22T09:49:52.676Z</time></trkpt><trkpt lat="43.6215934" lon="12.7321214"><ele>287.0</ele><time>2026-03-22T09:49:53.68Z</time></trkpt><trkpt lat="43.6214992" lon="12.7321561"><ele>287.0</ele><time>2026-03-22T09:49:54.67Z</time></trkpt><trkpt lat="43.6213988" lon="12.7322329"><ele>287.0</ele><time>2026-03-22T09:49:55.667Z</time></trkpt><trkpt lat="43.6212878" lon="12.7323253"><ele>287.0</ele><time>2026-03-22T09:49:56.665Z</time></trkpt><trkpt lat="43.6211703" lon="12.7324149"><ele>287.0</ele><time>2026-03-22T09:49:57.662Z</time></trkpt><trkpt lat="43.6210468" lon="12.7325026"><ele>287.0</ele><time>2026-03-22T09:49:58.658Z</time></trkpt><trkpt lat="43.6209032" lon="12.7325728"><ele>287.0</ele><time>2026-03-22T09:49:59.656Z</time></trkpt><trkpt lat="43.6207556" lon="12.7326211"><ele>285.25</ele><time>2026-03-22T09:50:00.655Z</time></trkpt><trkpt lat="43.620616" lon="12.7326643"><ele>283.5</ele><time>2026-03-22T09:50:01.654Z</time></trkpt><trkpt lat="43.6204885" lon="12.7326841"><ele>281.75</ele><time>2026-03-22T09:50:02.658Z</time></trkpt><trkpt lat="43.6203701" lon="12.7326882"><ele>280.0</ele><time>2026-03-22T09:50:03.661Z</time></trkpt><trkpt lat="43.6202501" lon="12.7326758"><ele>279.6</ele><time>2026-03-22T09:50:04.666Z</time></trkpt><trkpt lat="43.6201519" lon="12.7326455"><ele>279.2</ele><time>2026-03-22T09:50:05.668Z</time></trkpt><trkpt lat="43.620058" lon="12.7325735"><ele>278.8</ele><time>2026-03-22T09:50:06.664Z</time></trkpt><trkpt lat="43.6199767" lon="12.7324913"><ele>278.4</ele><time>2026-03-22T09:50:07.656Z</time></trkpt><trkpt lat="43.6199249" lon="12.7323877"><ele>278.0</ele><time>2026-03-22T09:50:08.656Z</time></trkpt><trkpt lat="43.619863" lon="12.732291"><ele>278.0</ele><time>2026-03-22T09:50:09.655Z</time></trkpt><trkpt lat="43.6198134" lon="12.7321868"><ele>278.0</ele><time>2026-03-22T09:50:10.658Z</time></trkpt><trkpt lat="43.6197864" lon="12.7320971"><ele>278.0</ele><time>2026-03-22T09:50:11.662Z</time></trkpt><trkpt lat="43.6198259" lon="12.7319367"><ele>278.0</ele><time>2026-03-22T09:50:13.668Z</time></trkpt><trkpt lat="43.6198868" lon="12.7318651"><ele>278.0</ele><time>2026-03-22T09:50:14.664Z</time></trkpt><trkpt lat="43.6199675" lon="12.7317923"><ele>278.5</ele><time>2026-03-22T09:50:15.666Z</time></trkpt><trkpt lat="43.6200633" lon="12.7317096"><ele>279.0</ele><time>2026-03-22T09:50:16.661Z</time></trkpt><trkpt lat="43.6201728" lon="12.7316221"><ele>279.5</ele><time>2026-03-22T09:50:17.664Z</time></trkpt><trkpt lat="43.6203165" lon="12.7315167"><ele>280.0</ele><time>2026-03-22T09:50:18.668Z</time></trkpt><trkpt lat="43.6204651" lon="12.7314041"><ele>278.0</ele><time>2026-03-22T09:50:19.663Z</time></trkpt><trkpt lat="43.6206221" lon="12.7312794"><ele>276.0</ele><time>2026-03-22T09:50:20.667Z</time></trkpt><trkpt lat="43.6207788" lon="12.7311646"><ele>274.0</ele><time>2026-03-22T09:50:21.666Z</time></trkpt><trkpt lat="43.6209189" lon="12.7310648"><ele>275.0</ele><time>2026-03-22T09:50:22.668Z</time></trkpt><trkpt lat="43.6210471" lon="12.7309617"><ele>276.0</ele><time>2026-03-22T09:50:23.67Z</time></trkpt><trkpt lat="43.621168" lon="12.7308721"><ele>277.0</ele><time>2026-03-22T09:50:24.666Z</time></trkpt><trkpt lat="43.6212864" lon="12.7308022"><ele>278.0</ele><time>2026-03-22T09:50:25.668Z</time></trkpt><trkpt lat="43.6214004" lon="12.7307243"><ele>275.5</ele><time>2026-03-22T09:50:26.665Z</time></trkpt><trkpt lat="43.6214956" lon="12.7306296"><ele>273.0</ele><time>2026-03-22T09:50:27.663Z</time></trkpt><trkpt lat="43.6215974" lon="12.7305583"><ele>270.5</ele><time>2026-03-22T09:50:28.663Z</time></trkpt><trkpt lat="43.621716" lon="12.7304689"><ele>268.0</ele><time>2026-03-22T09:50:29.665Z</time></trkpt><trkpt lat="43.6218344" lon="12.7303686"><ele>268.0</ele><time>2026-03-22T09:50:30.671Z</time></trkpt><trkpt lat="43.6219513" lon="12.730281"><ele>268.0</ele><time>2026-03-22T09:50:31.676Z</time></trkpt><trkpt lat="43.6220609" lon="12.7302023"><ele>268.0</ele><time>2026-03-22T09:50:32.669Z</time></trkpt><trkpt lat="43.6221647" lon="12.7301214"><ele>268.0</ele><time>2026-03-22T09:50:33.664Z</time></trkpt><trkpt lat="43.6222646" lon="12.7300207"><ele>266.5</ele><time>2026-03-22T09:50:34.666Z</time></trkpt><trkpt lat="43.6223599" lon="12.7298804"><ele>265.0</ele><time>2026-03-22T09:50:35.66Z</time></trkpt><trkpt lat="43.62246" lon="12.7297282"><ele>263.5</ele><time>2026-03-22T09:50:36.665Z</time></trkpt><trkpt lat="43.6225549" lon="12.729567"><ele>262.0</ele><time>2026-03-22T09:50:37.666Z</time></trkpt><trkpt lat="43.6226516" lon="12.7294359"><ele>261.75</ele><time>2026-03-22T09:50:38.667Z</time></trkpt><trkpt lat="43.6227221" lon="12.7293086"><ele>261.5</ele><time>2026-03-22T09:50:39.67Z</time></trkpt><trkpt lat="43.6227896" lon="12.7291796"><ele>261.25</ele><time>2026-03-22T09:50:40.67Z</time></trkpt><trkpt lat="43.6228254" lon="12.7290395"><ele>261.0</ele><time>2026-03-22T09:50:41.673Z</time></trkpt><trkpt lat="43.6228271" lon="12.7288681"><ele>262.0</ele><time>2026-03-22T09:50:42.671Z</time></trkpt><trkpt lat="43.62282" lon="12.7286789"><ele>263.0</ele><time>2026-03-22T09:50:43.675Z</time></trkpt><trkpt lat="43.6228121" lon="12.7284806"><ele>264.0</ele><time>2026-03-22T09:50:44.67Z</time></trkpt><trkpt lat="43.6228125" lon="12.7282996"><ele>265.0</ele><time>2026-03-22T09:50:45.666Z</time></trkpt><trkpt lat="43.6228174" lon="12.7281606"><ele>263.4</ele><time>2026-03-22T09:50:46.667Z</time></trkpt><trkpt lat="43.6228203" lon="12.7280541"><ele>261.8</ele><time>2026-03-22T09:50:47.662Z</time></trkpt><trkpt lat="43.6228453" lon="12.7279065"><ele>260.2</ele><time>2026-03-22T09:50:49.663Z</time></trkpt><trkpt lat="43.6229121" lon="12.7277968"><ele>258.6</ele><time>2026-03-22T09:50:51.656Z</time></trkpt><trkpt lat="43.6229869" lon="12.7277418"><ele>257.0</ele><time>2026-03-22T09:50:52.655Z</time></trkpt><trkpt lat="43.6230739" lon="12.7276755"><ele>257.0</ele><time>2026-03-22T09:50:53.67Z</time></trkpt><trkpt lat="43.6231589" lon="12.7275977"><ele>257.0</ele><time>2026-03-22T09:50:54.663Z</time></trkpt><trkpt lat="43.6232349" lon="12.727487"><ele>257.0</ele><time>2026-03-22T09:50:55.661Z</time></trkpt><trkpt lat="43.6232963" lon="12.7273615"><ele>257.0</ele><time>2026-03-22T09:50:56.661Z</time></trkpt><trkpt lat="43.6233578" lon="12.7272237"><ele>257.0</ele><time>2026-03-22T09:50:57.663Z</time></trkpt><trkpt lat="43.6234209" lon="12.7270876"><ele>257.0</ele><time>2026-03-22T09:50:58.663Z</time></trkpt><trkpt lat="43.6234894" lon="12.7269338"><ele>257.0</ele><time>2026-03-22T09:50:59.657Z</time></trkpt><trkpt lat="43.6235576" lon="12.7267806"><ele>257.0</ele><time>2026-03-22T09:51:00.654Z</time></trkpt><trkpt lat="43.6236294" lon="12.7266233"><ele>257.0</ele><time>2026-03-22T09:51:01.653Z</time></trkpt><trkpt lat="43.6237027" lon="12.7264702"><ele>255.0</ele><time>2026-03-22T09:51:02.655Z</time></trkpt><trkpt lat="43.6237722" lon="12.7263136"><ele>253.0</ele><time>2026-03-22T09:51:03.647Z</time></trkpt><trkpt lat="43.6238667" lon="12.7261729"><ele>251.0</ele><time>2026-03-22T09:51:04.646Z</time></trkpt><trkpt lat="43.623942" lon="12.7260339"><ele>249.0</ele><time>2026-03-22T09:51:05.657Z</time></trkpt><trkpt lat="43.6240167" lon="12.7259049"><ele>249.0</ele><time>2026-03-22T09:51:06.654Z</time></trkpt><trkpt lat="43.6240957" lon="12.7257723"><ele>249.0</ele><time>2026-03-22T09:51:07.655Z</time></trkpt><trkpt lat="43.624172" lon="12.7256501"><ele>249.0</ele><time>2026-03-22T09:51:08.658Z</time></trkpt><trkpt lat="43.6242629" lon="12.7255369"><ele>249.0</ele><time>2026-03-22T09:51:09.659Z</time></trkpt><trkpt lat="43.6243624" lon="12.7254309"><ele>249.0</ele><time>2026-03-22T09:51:10.658Z</time></trkpt><trkpt lat="43.6244602" lon="12.7253288"><ele>249.0</ele><time>2026-03-22T09:51:11.661Z</time></trkpt><trkpt lat="43.6245628" lon="12.7252157"><ele>249.0</ele><time>2026-03-22T09:51:12.657Z</time></trkpt><trkpt lat="43.6246709" lon="12.7250928"><ele>249.0</ele><time>2026-03-22T09:51:13.656Z</time></trkpt><trkpt lat="43.6247828" lon="12.7249782"><ele>248.0</ele><time>2026-03-22T09:51:14.655Z</time></trkpt><trkpt lat="43.6248967" lon="12.7248799"><ele>247.0</ele><time>2026-03-22T09:51:15.654Z</time></trkpt><trkpt lat="43.6250189" lon="12.7248131"><ele>246.0</ele><time>2026-03-22T09:51:16.656Z</time></trkpt><trkpt lat="43.6251522" lon="12.7247703"><ele>245.0</ele><time>2026-03-22T09:51:17.657Z</time></trkpt><trkpt lat="43.62529" lon="12.7247502"><ele>242.75</ele><time>2026-03-22T09:51:18.658Z</time></trkpt><trkpt lat="43.6254321" lon="12.7247301"><ele>240.5</ele><time>2026-03-22T09:51:19.652Z</time></trkpt><trkpt lat="43.625573" lon="12.7247016"><ele>238.25</ele><time>2026-03-22T09:51:20.661Z</time></trkpt><trkpt lat="43.6257043" lon="12.7246533"><ele>236.0</ele><time>2026-03-22T09:51:21.65Z</time></trkpt><trkpt lat="43.625845" lon="12.7245797"><ele>236.0</ele><time>2026-03-22T09:51:22.656Z</time></trkpt><trkpt lat="43.625988" lon="12.7244636"><ele>236.0</ele><time>2026-03-22T09:51:23.659Z</time></trkpt><trkpt lat="43.62611" lon="12.7243218"><ele>236.0</ele><time>2026-03-22T09:51:24.654Z</time></trkpt><trkpt lat="43.6262176" lon="12.7241771"><ele>234.75</ele><time>2026-03-22T09:51:25.651Z</time></trkpt><trkpt lat="43.6263263" lon="12.7240435"><ele>233.5</ele><time>2026-03-22T09:51:26.653Z</time></trkpt><trkpt lat="43.6264226" lon="12.7239231"><ele>232.25</ele><time>2026-03-22T09:51:27.65Z</time></trkpt><trkpt lat="43.6265254" lon="12.7238139"><ele>231.0</ele><time>2026-03-22T09:51:28.649Z</time></trkpt><trkpt lat="43.6266432" lon="12.7237026"><ele>231.0</ele><time>2026-03-22T09:51:29.65Z</time></trkpt><trkpt lat="43.6267797" lon="12.7235902"><ele>231.0</ele><time>2026-03-22T09:51:30.65Z</time></trkpt><trkpt lat="43.6269086" lon="12.7234923"><ele>231.0</ele><time>2026-03-22T09:51:31.651Z</time></trkpt><trkpt lat="43.6270273" lon="12.7233863"><ele>231.0</ele><time>2026-03-22T09:51:32.652Z</time></trkpt><trkpt lat="43.6271457" lon="12.7232919"><ele>230.25</ele><time>2026-03-22T09:51:33.658Z</time></trkpt><trkpt lat="43.627269" lon="12.7232247"><ele>229.5</ele><time>2026-03-22T09:51:34.651Z</time></trkpt><trkpt lat="43.6273841" lon="12.7231552"><ele>228.75</ele><time>2026-03-22T09:51:35.648Z</time></trkpt><trkpt lat="43.6275014" lon="12.7230931"><ele>228.0</ele><time>2026-03-22T09:51:36.648Z</time></trkpt><trkpt lat="43.6276048" lon="12.7230229"><ele>228.0</ele><time>2026-03-22T09:51:37.643Z</time></trkpt><trkpt lat="43.6277141" lon="12.7229361"><ele>228.0</ele><time>2026-03-22T09:51:38.648Z</time></trkpt><trkpt lat="43.6278327" lon="12.7228645"><ele>228.0</ele><time>2026-03-22T09:51:39.648Z</time></trkpt><trkpt lat="43.6279552" lon="12.7227854"><ele>228.0</ele><time>2026-03-22T09:51:40.648Z</time></trkpt><trkpt lat="43.628072" lon="12.7227157"><ele>226.5</ele><time>2026-03-22T09:51:41.652Z</time></trkpt><trkpt lat="43.6281778" lon="12.7226538"><ele>225.0</ele><time>2026-03-22T09:51:42.651Z</time></trkpt><trkpt lat="43.6282808" lon="12.7225996"><ele>223.5</ele><time>2026-03-22T09:51:43.654Z</time></trkpt><trkpt lat="43.6283737" lon="12.7225306"><ele>222.0</ele><time>2026-03-22T09:51:44.652Z</time></trkpt><trkpt lat="43.6284693" lon="12.7224265"><ele>222.0</ele><time>2026-03-22T09:51:45.657Z</time></trkpt><trkpt lat="43.6285568" lon="12.722296"><ele>222.0</ele><time>2026-03-22T09:51:46.666Z</time></trkpt><trkpt lat="43.6286144" lon="12.722134"><ele>222.0</ele><time>2026-03-22T09:51:47.657Z</time></trkpt><trkpt lat="43.6286489" lon="12.721956"><ele>222.0</ele><time>2026-03-22T09:51:48.659Z</time></trkpt><trkpt lat="43.6286679" lon="12.7217868"><ele>222.25</ele><time>2026-03-22T09:51:49.654Z</time></trkpt><trkpt lat="43.6286704" lon="12.7216031"><ele>222.5</ele><time>2026-03-22T09:51:50.657Z</time></trkpt><trkpt lat="43.6286644" lon="12.7214128"><ele>222.75</ele><time>2026-03-22T09:51:51.664Z</time></trkpt><trkpt lat="43.6286536" lon="12.7212167"><ele>223.0</ele><time>2026-03-22T09:51:52.653Z</time></trkpt><trkpt lat="43.6286569" lon="12.7210259"><ele>219.75</ele><time>2026-03-22T09:51:53.659Z</time></trkpt><trkpt lat="43.6286724" lon="12.7208307"><ele>216.5</ele><time>2026-03-22T09:51:54.658Z</time></trkpt><trkpt lat="43.6287316" lon="12.7206615"><ele>213.25</ele><time>2026-03-22T09:51:55.658Z</time></trkpt><trkpt lat="43.6288039" lon="12.7205083"><ele>210.0</ele><time>2026-03-22T09:51:56.656Z</time></trkpt><trkpt lat="43.6288853" lon="12.7203445"><ele>213.0</ele><time>2026-03-22T09:51:57.654Z</time></trkpt><trkpt lat="43.6289755" lon="12.7201711"><ele>216.0</ele><time>2026-03-22T09:51:58.653Z</time></trkpt><trkpt lat="43.6290687" lon="12.7199877"><ele>219.0</ele><time>2026-03-22T09:51:59.659Z</time></trkpt><trkpt lat="43.6291496" lon="12.7198149"><ele>219.0</ele><time>2026-03-22T09:52:00.659Z</time></trkpt><trkpt lat="43.6292278" lon="12.7196472"><ele>219.0</ele><time>2026-03-22T09:52:01.659Z</time></trkpt><trkpt lat="43.6293039" lon="12.7194708"><ele>219.0</ele><time>2026-03-22T09:52:02.662Z</time></trkpt><trkpt lat="43.6293855" lon="12.7193025"><ele>219.0</ele><time>2026-03-22T09:52:03.661Z</time></trkpt><trkpt lat="43.6294697" lon="12.7191387"><ele>216.0</ele><time>2026-03-22T09:52:04.663Z</time></trkpt><trkpt lat="43.6295551" lon="12.7189624"><ele>213.0</ele><time>2026-03-22T09:52:05.654Z</time></trkpt><trkpt lat="43.6296357" lon="12.7188059"><ele>210.0</ele><time>2026-03-22T09:52:06.647Z</time></trkpt><trkpt lat="43.6297218" lon="12.7186516"><ele>207.0</ele><time>2026-03-22T09:52:07.651Z</time></trkpt><trkpt lat="43.6298071" lon="12.7185222"><ele>206.25</ele><time>2026-03-22T09:52:08.652Z</time></trkpt><trkpt lat="43.6299036" lon="12.718378"><ele>205.5</ele><time>2026-03-22T09:52:09.649Z</time></trkpt><trkpt lat="43.6299898" lon="12.7182276"><ele>204.75</ele><time>2026-03-22T09:52:10.66Z</time></trkpt><trkpt lat="43.6300647" lon="12.7180603"><ele>204.0</ele><time>2026-03-22T09:52:11.658Z</time></trkpt><trkpt lat="43.6301339" lon="12.7178865"><ele>203.5</ele><time>2026-03-22T09:52:12.657Z</time></trkpt><trkpt lat="43.6302002" lon="12.7177253"><ele>203.0</ele><time>2026-03-22T09:52:13.658Z</time></trkpt><trkpt lat="43.6302805" lon="12.7175969"><ele>202.5</ele><time>2026-03-22T09:52:14.655Z</time></trkpt><trkpt lat="43.6303748" lon="12.7174887"><ele>202.0</ele><time>2026-03-22T09:52:15.66Z</time></trkpt><trkpt lat="43.630487" lon="12.7173688"><ele>202.0</ele><time>2026-03-22T09:52:16.657Z</time></trkpt><trkpt lat="43.6305995" lon="12.7172439"><ele>202.0</ele><time>2026-03-22T09:52:17.653Z</time></trkpt><trkpt lat="43.630706" lon="12.717106"><ele>202.0</ele><time>2026-03-22T09:52:18.656Z</time></trkpt><trkpt lat="43.6307976" lon="12.7169576"><ele>202.0</ele><time>2026-03-22T09:52:19.658Z</time></trkpt><trkpt lat="43.6308971" lon="12.7168188"><ele>201.5</ele><time>2026-03-22T09:52:20.659Z</time></trkpt><trkpt lat="43.6310074" lon="12.7166939"><ele>201.0</ele><time>2026-03-22T09:52:21.66Z</time></trkpt><trkpt lat="43.631106" lon="12.7165613"><ele>200.5</ele><time>2026-03-22T09:52:22.667Z</time></trkpt><trkpt lat="43.6312006" lon="12.716412"><ele>200.0</ele><time>2026-03-22T09:52:23.663Z</time></trkpt><trkpt lat="43.6312863" lon="12.7162553"><ele>200.0</ele><time>2026-03-22T09:52:24.65Z</time></trkpt><trkpt lat="43.6313634" lon="12.71609"><ele>200.0</ele><time>2026-03-22T09:52:25.649Z</time></trkpt><trkpt lat="43.6314345" lon="12.7159339"><ele>200.0</ele><time>2026-03-22T09:52:26.653Z</time></trkpt><trkpt lat="43.6314992" lon="12.7157885"><ele>200.0</ele><time>2026-03-22T09:52:27.651Z</time></trkpt><trkpt lat="43.6315616" lon="12.7156485"><ele>198.75</ele><time>2026-03-22T09:52:28.655Z</time></trkpt><trkpt lat="43.6316248" lon="12.7155103"><ele>197.5</ele><time>2026-03-22T09:52:29.652Z</time></trkpt><trkpt lat="43.631688" lon="12.7153763"><ele>196.25</ele><time>2026-03-22T09:52:30.651Z</time></trkpt><trkpt lat="43.6317529" lon="12.715239"><ele>195.0</ele><time>2026-03-22T09:52:31.652Z</time></trkpt><trkpt lat="43.6318196" lon="12.7150977"><ele>195.0</ele><time>2026-03-22T09:52:32.655Z</time></trkpt><trkpt lat="43.6318829" lon="12.714944"><ele>195.0</ele><time>2026-03-22T09:52:33.656Z</time></trkpt><trkpt lat="43.6319459" lon="12.7147785"><ele>195.0</ele><time>2026-03-22T09:52:34.655Z</time></trkpt><trkpt lat="43.632012" lon="12.7146246"><ele>195.0</ele><time>2026-03-22T09:52:35.66Z</time></trkpt><trkpt lat="43.6320808" lon="12.7144798"><ele>195.5</ele><time>2026-03-22T09:52:36.65Z</time></trkpt><trkpt lat="43.6321619" lon="12.7143463"><ele>196.0</ele><time>2026-03-22T09:52:37.645Z</time></trkpt><trkpt lat="43.6322603" lon="12.7142284"><ele>196.5</ele><time>2026-03-22T09:52:38.65Z</time></trkpt><trkpt lat="43.6323678" lon="12.7141189"><ele>197.0</ele><time>2026-03-22T09:52:39.653Z</time></trkpt><trkpt lat="43.6324807" lon="12.7140213"><ele>197.0</ele><time>2026-03-22T09:52:40.652Z</time></trkpt><trkpt lat="43.6325965" lon="12.7139412"><ele>197.0</ele><time>2026-03-22T09:52:41.647Z</time></trkpt><trkpt lat="43.6327121" lon="12.7138504"><ele>197.0</ele><time>2026-03-22T09:52:42.65Z</time></trkpt><trkpt lat="43.6328328" lon="12.7137731"><ele>197.0</ele><time>2026-03-22T09:52:43.646Z</time></trkpt><trkpt lat="43.6330792" lon="12.7136486"><ele>197.25</ele><time>2026-03-22T09:52:45.64Z</time></trkpt><trkpt lat="43.6332047" lon="12.7135943"><ele>197.5</ele><time>2026-03-22T09:52:46.639Z</time></trkpt><trkpt lat="43.6333359" lon="12.7135391"><ele>197.75</ele><time>2026-03-22T09:52:47.644Z</time></trkpt><trkpt lat="43.6334586" lon="12.7134797"><ele>198.0</ele><time>2026-03-22T09:52:48.655Z</time></trkpt><trkpt lat="43.6335878" lon="12.7134193"><ele>196.0</ele><time>2026-03-22T09:52:49.644Z</time></trkpt><trkpt lat="43.6337117" lon="12.7133722"><ele>194.0</ele><time>2026-03-22T09:52:50.651Z</time></trkpt><trkpt lat="43.6338213" lon="12.7133294"><ele>192.0</ele><time>2026-03-22T09:52:51.647Z</time></trkpt><trkpt lat="43.6339184" lon="12.7132869"><ele>190.0</ele><time>2026-03-22T09:52:52.651Z</time></trkpt><trkpt lat="43.6340024" lon="12.7132476"><ele>188.0</ele><time>2026-03-22T09:52:53.664Z</time></trkpt><trkpt lat="43.6340802" lon="12.7132028"><ele>188.0</ele><time>2026-03-22T09:52:54.656Z</time></trkpt><trkpt lat="43.6341415" lon="12.7131368"><ele>188.0</ele><time>2026-03-22T09:52:55.656Z</time></trkpt><trkpt lat="43.634193" lon="12.7130596"><ele>188.0</ele><time>2026-03-22T09:52:56.654Z</time></trkpt><trkpt lat="43.6342448" lon="12.7129758"><ele>188.0</ele><time>2026-03-22T09:52:57.653Z</time></trkpt><trkpt lat="43.6342892" lon="12.712876"><ele>188.0</ele><time>2026-03-22T09:52:58.656Z</time></trkpt><trkpt lat="43.6343322" lon="12.712778"><ele>188.0</ele><time>2026-03-22T09:52:59.656Z</time></trkpt><trkpt lat="43.6343799" lon="12.7126935"><ele>186.8</ele><time>2026-03-22T09:53:00.658Z</time></trkpt><trkpt lat="43.6344328" lon="12.7126077"><ele>185.60000000000002</ele><time>2026-03-22T09:53:01.659Z</time></trkpt><trkpt lat="43.6344931" lon="12.7125257"><ele>184.39999999999998</ele><time>2026-03-22T09:53:02.659Z</time></trkpt><trkpt lat="43.6345651" lon="12.7124424"><ele>183.2</ele><time>2026-03-22T09:53:03.662Z</time></trkpt><trkpt lat="43.6346487" lon="12.7123664"><ele>182.0</ele><time>2026-03-22T09:53:04.664Z</time></trkpt><trkpt lat="43.6347431" lon="12.7122865"><ele>182.0</ele><time>2026-03-22T09:53:05.667Z</time></trkpt><trkpt lat="43.6348298" lon="12.7121989"><ele>182.0</ele><time>2026-03-22T09:53:06.67Z</time></trkpt><trkpt lat="43.6349111" lon="12.7120796"><ele>182.0</ele><time>2026-03-22T09:53:07.662Z</time></trkpt><trkpt lat="43.634972" lon="12.7119533"><ele>182.0</ele><time>2026-03-22T09:53:08.667Z</time></trkpt><trkpt lat="43.634997" lon="12.7118176"><ele>182.0</ele><time>2026-03-22T09:53:09.663Z</time></trkpt><trkpt lat="43.6350309" lon="12.7117064"><ele>181.83333333333331</ele><time>2026-03-22T09:53:10.664Z</time></trkpt><trkpt lat="43.6350792" lon="12.7116221"><ele>181.66666666666666</ele><time>2026-03-22T09:53:11.665Z</time></trkpt><trkpt lat="43.635145" lon="12.7115568"><ele>181.5</ele><time>2026-03-22T09:53:12.656Z</time></trkpt><trkpt lat="43.6352182" lon="12.7115025"><ele>181.33333333333334</ele><time>2026-03-22T09:53:13.66Z</time></trkpt><trkpt lat="43.6352989" lon="12.7114797"><ele>181.16666666666669</ele><time>2026-03-22T09:53:14.659Z</time></trkpt><trkpt lat="43.635386" lon="12.711462"><ele>181.0</ele><time>2026-03-22T09:53:15.659Z</time></trkpt><trkpt lat="43.6354859" lon="12.7114492"><ele>180.8</ele><time>2026-03-22T09:53:16.654Z</time></trkpt><trkpt lat="43.6355906" lon="12.7114396"><ele>180.60000000000002</ele><time>2026-03-22T09:53:17.658Z</time></trkpt><trkpt lat="43.6356977" lon="12.7114236"><ele>180.4</ele><time>2026-03-22T09:53:18.666Z</time></trkpt><trkpt lat="43.6358045" lon="12.7114071"><ele>180.2</ele><time>2026-03-22T09:53:19.663Z</time></trkpt><trkpt lat="43.6359093" lon="12.7113911"><ele>180.0</ele><time>2026-03-22T09:53:20.665Z</time></trkpt><trkpt lat="43.6360139" lon="12.7113805"><ele>180.0</ele><time>2026-03-22T09:53:21.664Z</time></trkpt><trkpt lat="43.6361203" lon="12.7113711"><ele>180.0</ele><time>2026-03-22T09:53:22.67Z</time></trkpt><trkpt lat="43.6362209" lon="12.7113767"><ele>180.0</ele><time>2026-03-22T09:53:23.669Z</time></trkpt><trkpt lat="43.6363122" lon="12.7114169"><ele>180.0</ele><time>2026-03-22T09:53:24.673Z</time></trkpt><trkpt lat="43.6363782" lon="12.7114906"><ele>180.0</ele><time>2026-03-22T09:53:25.67Z</time></trkpt><trkpt lat="43.6364245" lon="12.7115879"><ele>181.16666666666666</ele><time>2026-03-22T09:53:26.665Z</time></trkpt><trkpt lat="43.6364378" lon="12.7116866"><ele>182.33333333333334</ele><time>2026-03-22T09:53:27.662Z</time></trkpt><trkpt lat="43.6364552" lon="12.7118119"><ele>183.5</ele><time>2026-03-22T09:53:29.662Z</time></trkpt><trkpt lat="43.6364915" lon="12.7119136"><ele>184.66666666666669</ele><time>2026-03-22T09:53:31.661Z</time></trkpt><trkpt lat="43.63654" lon="12.712049"><ele>185.83333333333334</ele><time>2026-03-22T09:53:33.655Z</time></trkpt><trkpt lat="43.6365766" lon="12.7121451"><ele>187.0</ele><time>2026-03-22T09:53:34.655Z</time></trkpt><trkpt lat="43.636608" lon="12.7122233"><ele>187.0</ele><time>2026-03-22T09:53:35.657Z</time></trkpt><trkpt lat="43.6366743" lon="12.712372"><ele>187.0</ele><time>2026-03-22T09:53:37.662Z</time></trkpt><trkpt lat="43.6367364" lon="12.712453"><ele>187.0</ele><time>2026-03-22T09:53:38.647Z</time></trkpt><trkpt lat="43.6368092" lon="12.7125164"><ele>187.0</ele><time>2026-03-22T09:53:39.651Z</time></trkpt><trkpt lat="43.6368788" lon="12.7125769"><ele>187.0</ele><time>2026-03-22T09:53:40.638Z</time></trkpt><trkpt lat="43.6369588" lon="12.7126424"><ele>186.8</ele><time>2026-03-22T09:53:41.637Z</time></trkpt><trkpt lat="43.6370471" lon="12.7127095"><ele>186.6</ele><time>2026-03-22T09:53:42.637Z</time></trkpt><trkpt lat="43.6371389" lon="12.7127696"><ele>186.4</ele><time>2026-03-22T09:53:43.646Z</time></trkpt><trkpt lat="43.6372283" lon="12.7128309"><ele>186.20000000000002</ele><time>2026-03-22T09:53:44.646Z</time></trkpt><trkpt lat="43.6373306" lon="12.712882"><ele>186.0</ele><time>2026-03-22T09:53:45.653Z</time></trkpt><trkpt lat="43.6374342" lon="12.7129415"><ele>186.0</ele><time>2026-03-22T09:53:46.65Z</time></trkpt><trkpt lat="43.6375565" lon="12.7129775"><ele>186.0</ele><time>2026-03-22T09:53:47.649Z</time></trkpt><trkpt lat="43.6376655" lon="12.7130408"><ele>186.0</ele><time>2026-03-22T09:53:48.649Z</time></trkpt><trkpt lat="43.6377758" lon="12.7131104"><ele>186.0</ele><time>2026-03-22T09:53:49.647Z</time></trkpt><trkpt lat="43.6378803" lon="12.7131625"><ele>187.4</ele><time>2026-03-22T09:53:50.646Z</time></trkpt><trkpt lat="43.6379767" lon="12.7132151"><ele>188.8</ele><time>2026-03-22T09:53:51.644Z</time></trkpt><trkpt lat="43.6380763" lon="12.7132725"><ele>190.20000000000002</ele><time>2026-03-22T09:53:52.642Z</time></trkpt><trkpt lat="43.63817" lon="12.713329"><ele>191.60000000000002</ele><time>2026-03-22T09:53:53.655Z</time></trkpt><trkpt lat="43.6382628" lon="12.7133764"><ele>193.0</ele><time>2026-03-22T09:53:54.648Z</time></trkpt><trkpt lat="43.6383478" lon="12.7134177"><ele>192.99999999999997</ele><time>2026-03-22T09:53:55.656Z</time></trkpt><trkpt lat="43.6384302" lon="12.7134469"><ele>193.0</ele><time>2026-03-22T09:53:56.655Z</time></trkpt><trkpt lat="43.6384947" lon="12.7134734"><ele>193.0</ele><time>2026-03-22T09:53:57.653Z</time></trkpt><trkpt lat="43.63857" lon="12.713511"><ele>193.0</ele><time>2026-03-22T09:53:59.649Z</time></trkpt><trkpt lat="43.6386285" lon="12.7135795"><ele>192.99999999999997</ele><time>2026-03-22T09:54:01.646Z</time></trkpt><trkpt lat="43.6386834" lon="12.7136611"><ele>193.0</ele><time>2026-03-22T09:54:03.64Z</time></trkpt><trkpt lat="43.6386423" lon="12.7137471"><ele>191.85714285714286</ele><time>2026-03-22T09:54:09.643Z</time></trkpt><trkpt lat="43.6385849" lon="12.7138072"><ele>190.71428571428572</ele><time>2026-03-22T09:54:12.65Z</time></trkpt><trkpt lat="43.6385307" lon="12.7138775"><ele>189.57142857142856</ele><time>2026-03-22T09:54:16.651Z</time></trkpt><trkpt lat="43.638473" lon="12.7139177"><ele>188.42857142857144</ele><time>2026-03-22T09:54:25.647Z</time></trkpt><trkpt lat="43.638424" lon="12.7139846"><ele>187.28571428571428</ele><time>2026-03-22T09:54:33.648Z</time></trkpt><trkpt lat="43.6383476" lon="12.7139795"><ele>186.14285714285714</ele><time>2026-03-22T09:54:36.632Z</time></trkpt><trkpt lat="43.6382849" lon="12.7139683"><ele>185.0</ele><time>2026-03-22T09:54:38.65Z</time></trkpt><trkpt lat="43.6382516" lon="12.7138864"><ele>185.0</ele><time>2026-03-22T09:54:40.644Z</time></trkpt><trkpt lat="43.638323" lon="12.7137587"><ele>185.0</ele><time>2026-03-22T09:55:22.669Z</time></trkpt><trkpt lat="43.6383998" lon="12.7137113"><ele>185.0</ele><time>2026-03-22T09:55:29.661Z</time></trkpt><trkpt lat="43.6384704" lon="12.7137702"><ele>185.0</ele><time>2026-03-22T09:55:31.666Z</time></trkpt><trkpt lat="43.638537" lon="12.713784"><ele>185.0</ele><time>2026-03-22T09:56:02.658Z</time></trkpt><trkpt lat="43.6386154" lon="12.7137697"><ele>185.0</ele><time>2026-03-22T09:56:27.653Z</time></trkpt><trkpt lat="43.6386489" lon="12.7136242"><ele>187.0</ele><time>2026-03-22T09:56:30.651Z</time></trkpt><trkpt lat="43.6386244" lon="12.7135087"><ele>189.0</ele><time>2026-03-22T09:56:34.646Z</time></trkpt><trkpt lat="43.6385556" lon="12.7135226"><ele>191.0</ele><time>2026-03-22T09:56:52.656Z</time></trkpt><trkpt lat="43.6386542" lon="12.7138741"><ele>193.0</ele><time>2026-03-22T09:59:12.755Z</time></trkpt><trkpt lat="43.6383403" lon="12.7135287"><ele>191.0</ele><time>2026-03-22T09:59:19.621Z</time></trkpt><trkpt lat="43.6385613" lon="12.713655"><ele>189.0</ele><time>2026-03-22T10:02:21.627Z</time></trkpt><trkpt lat="43.6385124" lon="12.7137453"><ele>187.0</ele><time>2026-03-22T10:02:22.639Z</time></trkpt><trkpt lat="43.6385765" lon="12.7137682"><ele>185.0</ele><time>2026-03-22T10:02:26.643Z</time></trkpt><trkpt lat="43.6385232" lon="12.7137066"><ele>184.99999999999997</ele><time>2026-03-22T10:02:45.65Z</time></trkpt><trkpt lat="43.6384816" lon="12.7136308"><ele>185.0</ele><time>2026-03-22T10:03:04.652Z</time></trkpt><trkpt lat="43.6384785" lon="12.7135327"><ele>185.0</ele><time>2026-03-22T10:03:14.656Z</time></trkpt><trkpt lat="43.6384587" lon="12.7134375"><ele>185.0</ele><time>2026-03-22T10:03:36.661Z</time></trkpt><trkpt lat="43.6384278" lon="12.7135282"><ele>185.0</ele><time>2026-03-22T10:03:51.659Z</time></trkpt><trkpt lat="43.6385054" lon="12.7135731"><ele>184.99999999999997</ele><time>2026-03-22T10:04:00.661Z</time></trkpt><trkpt lat="43.6384956" lon="12.7134832"><ele>185.0</ele><time>2026-03-22T10:04:20.678Z</time></trkpt><trkpt lat="43.6385591" lon="12.7134538"><ele>185.0</ele><time>2026-03-22T10:04:25.675Z</time></trkpt><trkpt lat="43.6385655" lon="12.7135595"><ele>185.0</ele><time>2026-03-22T10:04:32.664Z</time></trkpt><trkpt lat="43.6385427" lon="12.7136742"><ele>185.0</ele><time>2026-03-22T10:04:34.666Z</time></trkpt><trkpt lat="43.6384881" lon="12.7136136"><ele>185.0</ele><time>2026-03-22T10:04:40.671Z</time></trkpt><trkpt lat="43.6385333" lon="12.713516"><ele>185.0</ele><time>2026-03-22T10:04:59.659Z</time></trkpt><trkpt lat="43.6385924" lon="12.7134435"><ele>185.0</ele><time>2026-03-22T10:05:01.641Z</time></trkpt><trkpt lat="43.6386214" lon="12.7135434"><ele>185.0</ele><time>2026-03-22T10:05:04.649Z</time></trkpt><trkpt lat="43.6385827" lon="12.713625"><ele>185.0</ele><time>2026-03-22T10:05:05.636Z</time></trkpt><trkpt lat="43.6385063" lon="12.7137183"><ele>185.0</ele><time>2026-03-22T10:05:06.637Z</time></trkpt><trkpt lat="43.6384172" lon="12.7138074"><ele>185.0</ele><time>2026-03-22T10:05:07.638Z</time></trkpt><trkpt lat="43.6383563" lon="12.7138557"><ele>185.0</ele><time>2026-03-22T10:05:08.64Z</time></trkpt><trkpt lat="43.6384217" lon="12.7138277"><ele>185.0</ele><time>2026-03-22T10:05:34.66Z</time></trkpt><trkpt lat="43.638486" lon="12.7137484"><ele>184.99999999999997</ele><time>2026-03-22T10:05:37.651Z</time></trkpt><trkpt lat="43.6385222" lon="12.7136734"><ele>185.0</ele><time>2026-03-22T10:05:44.656Z</time></trkpt><trkpt lat="43.6385121" lon="12.7135741"><ele>185.0</ele><time>2026-03-22T10:05:53.663Z</time></trkpt><trkpt lat="43.638529" lon="12.7134826"><ele>185.0</ele><time>2026-03-22T10:06:10.66Z</time></trkpt><trkpt lat="43.6385606" lon="12.7134015"><ele>185.0</ele><time>2026-03-22T10:06:39.656Z</time></trkpt><trkpt lat="43.6385648" lon="12.7135037"><ele>184.99999999999997</ele><time>2026-03-22T10:06:54.663Z</time></trkpt><trkpt lat="43.638499" lon="12.7135083"><ele>185.0</ele><time>2026-03-22T10:07:00.658Z</time></trkpt><trkpt lat="43.638466" lon="12.7136003"><ele>185.0</ele><time>2026-03-22T10:07:09.641Z</time></trkpt><trkpt lat="43.6385551" lon="12.7135979"><ele>185.0</ele><time>2026-03-22T10:07:32.638Z</time></trkpt><trkpt lat="43.6385502" lon="12.7135077"><ele>185.0</ele><time>2026-03-22T10:07:38.655Z</time></trkpt><trkpt lat="43.6384973" lon="12.7135578"><ele>185.0</ele><time>2026-03-22T10:08:23.664Z</time></trkpt><trkpt lat="43.6384439" lon="12.7136423"><ele>185.0</ele><time>2026-03-22T10:08:39.654Z</time></trkpt><trkpt lat="43.6383723" lon="12.7136771"><ele>185.0</ele><time>2026-03-22T10:08:42.661Z</time></trkpt><trkpt lat="43.6383805" lon="12.7135456"><ele>186.33333333333331</ele><time>2026-03-22T10:08:48.664Z</time></trkpt><trkpt lat="43.6384108" lon="12.7134488"><ele>187.66666666666666</ele><time>2026-03-22T10:08:50.657Z</time></trkpt><trkpt lat="43.6385181" lon="12.7133734"><ele>189.0</ele><time>2026-03-22T10:08:52.651Z</time></trkpt><trkpt lat="43.638588" lon="12.7133798"><ele>190.33333333333331</ele><time>2026-03-22T10:08:57.663Z</time></trkpt><trkpt lat="43.6386472" lon="12.7134166"><ele>191.66666666666666</ele><time>2026-03-22T10:09:00.661Z</time></trkpt><trkpt lat="43.638576" lon="12.7134862"><ele>193.0</ele><time>2026-03-22T10:09:11.659Z</time></trkpt><trkpt lat="43.6385068" lon="12.7135344"><ele>193.00000000000003</ele><time>2026-03-22T10:09:13.651Z</time></trkpt><trkpt lat="43.6384817" lon="12.7136534"><ele>193.0</ele><time>2026-03-22T10:09:16.658Z</time></trkpt><trkpt lat="43.6385335" lon="12.7136035"><ele>193.0</ele><time>2026-03-22T10:09:24.668Z</time></trkpt><trkpt lat="43.6385995" lon="12.713559"><ele>193.0</ele><time>2026-03-22T10:09:32.667Z</time></trkpt><trkpt lat="43.6385696" lon="12.7136525"><ele>193.0</ele><time>2026-03-22T10:09:53.665Z</time></trkpt><trkpt lat="43.6385962" lon="12.7137388"><ele>193.00000000000003</ele><time>2026-03-22T10:09:55.648Z</time></trkpt><trkpt lat="43.6386643" lon="12.7137065"><ele>193.0</ele><time>2026-03-22T10:09:59.656Z</time></trkpt><trkpt lat="43.6387237" lon="12.7137525"><ele>192.99999999999997</ele><time>2026-03-22T10:10:04.663Z</time></trkpt><trkpt lat="43.6386943" lon="12.7138398"><ele>193.0</ele><time>2026-03-22T10:10:12.661Z</time></trkpt><trkpt lat="43.6386172" lon="12.7138745"><ele>193.0</ele><time>2026-03-22T10:10:16.659Z</time></trkpt><trkpt lat="43.6385374" lon="12.7139232"><ele>193.0</ele><time>2026-03-22T10:10:27.665Z</time></trkpt><trkpt lat="43.6385651" lon="12.713827"><ele>192.99999999999997</ele><time>2026-03-22T10:11:05.651Z</time></trkpt><trkpt lat="43.6386023" lon="12.7139109"><ele>193.0</ele><time>2026-03-22T10:12:10.664Z</time></trkpt><trkpt lat="43.6386443" lon="12.713826"><ele>191.85714285714286</ele><time>2026-03-22T10:12:23.65Z</time></trkpt><trkpt lat="43.6385651" lon="12.7138182"><ele>190.71428571428572</ele><time>2026-03-22T10:12:33.653Z</time></trkpt><trkpt lat="43.6384749" lon="12.7138139"><ele>189.57142857142856</ele><time>2026-03-22T10:12:50.646Z</time></trkpt><trkpt lat="43.6383996" lon="12.7138166"><ele>188.42857142857144</ele><time>2026-03-22T10:13:01.649Z</time></trkpt><trkpt lat="43.6383423" lon="12.7138675"><ele>187.28571428571428</ele><time>2026-03-22T10:13:08.65Z</time></trkpt><trkpt lat="43.6383955" lon="12.7139168"><ele>186.14285714285714</ele><time>2026-03-22T10:13:10.653Z</time></trkpt><trkpt lat="43.6384448" lon="12.7138601"><ele>185.0</ele><time>2026-03-22T10:13:24.659Z</time></trkpt><trkpt lat="43.6384997" lon="12.7139064"><ele>185.0</ele><time>2026-03-22T10:13:37.652Z</time></trkpt><trkpt lat="43.6385387" lon="12.7138364"><ele>185.0</ele><time>2026-03-22T10:13:43.651Z</time></trkpt><trkpt lat="43.6385752" lon="12.7137261"><ele>185.0</ele><time>2026-03-22T10:13:48.654Z</time></trkpt><trkpt lat="43.6386188" lon="12.713658"><ele>185.0</ele><time>2026-03-22T10:13:49.654Z</time></trkpt><trkpt lat="43.6386847" lon="12.7135756"><ele>185.0</ele><time>2026-03-22T10:13:50.659Z</time></trkpt><trkpt lat="43.6387141" lon="12.713483"><ele>185.0</ele><time>2026-03-22T10:13:52.662Z</time></trkpt><trkpt lat="43.638633" lon="12.7134028"><ele>187.0</ele><time>2026-03-22T10:13:55.663Z</time></trkpt><trkpt lat="43.6385359" lon="12.7133686"><ele>189.0</ele><time>2026-03-22T10:13:56.659Z</time></trkpt><trkpt lat="43.638406" lon="12.7133064"><ele>191.0</ele><time>2026-03-22T10:13:57.653Z</time></trkpt><trkpt lat="43.6382859" lon="12.7132528"><ele>193.0</ele><time>2026-03-22T10:13:58.658Z</time></trkpt><trkpt lat="43.6381498" lon="12.7132113"><ele>193.0</ele><time>2026-03-22T10:13:59.659Z</time></trkpt><trkpt lat="43.6380436" lon="12.7131891"><ele>193.0</ele><time>2026-03-22T10:14:00.668Z</time></trkpt><trkpt lat="43.6379275" lon="12.7131688"><ele>193.0</ele><time>2026-03-22T10:14:01.653Z</time></trkpt><trkpt lat="43.6378183" lon="12.7131504"><ele>193.0</ele><time>2026-03-22T10:14:02.659Z</time></trkpt><trkpt lat="43.6377084" lon="12.7131429"><ele>193.0</ele><time>2026-03-22T10:14:03.66Z</time></trkpt><trkpt lat="43.6376179" lon="12.7131289"><ele>191.83333333333331</ele><time>2026-03-22T10:14:04.661Z</time></trkpt><trkpt lat="43.6375455" lon="12.7131084"><ele>190.66666666666666</ele><time>2026-03-22T10:14:05.664Z</time></trkpt><trkpt lat="43.6374669" lon="12.7130891"><ele>189.5</ele><time>2026-03-22T10:14:06.655Z</time></trkpt><trkpt lat="43.637394" lon="12.7130613"><ele>188.33333333333331</ele><time>2026-03-22T10:14:07.652Z</time></trkpt><trkpt lat="43.6373168" lon="12.7130444"><ele>187.16666666666666</ele><time>2026-03-22T10:14:08.658Z</time></trkpt><trkpt lat="43.6372526" lon="12.7130337"><ele>186.0</ele><time>2026-03-22T10:14:09.659Z</time></trkpt><trkpt lat="43.6371532" lon="12.7129901"><ele>186.0</ele><time>2026-03-22T10:14:11.657Z</time></trkpt><trkpt lat="43.6370614" lon="12.7129187"><ele>186.0</ele><time>2026-03-22T10:14:13.66Z</time></trkpt><trkpt lat="43.6369571" lon="12.7128174"><ele>186.0</ele><time>2026-03-22T10:14:15.653Z</time></trkpt><trkpt lat="43.6368988" lon="12.7127577"><ele>186.0</ele><time>2026-03-22T10:14:16.656Z</time></trkpt><trkpt lat="43.6368377" lon="12.7126975"><ele>186.0</ele><time>2026-03-22T10:14:17.654Z</time></trkpt><trkpt lat="43.6367741" lon="12.7126196"><ele>186.20000000000002</ele><time>2026-03-22T10:14:18.652Z</time></trkpt><trkpt lat="43.6367228" lon="12.7125225"><ele>186.4</ele><time>2026-03-22T10:14:19.653Z</time></trkpt><trkpt lat="43.6366603" lon="12.7124066"><ele>186.6</ele><time>2026-03-22T10:14:20.658Z</time></trkpt><trkpt lat="43.6365969" lon="12.712268"><ele>186.8</ele><time>2026-03-22T10:14:21.65Z</time></trkpt><trkpt lat="43.6365333" lon="12.7121241"><ele>187.0</ele><time>2026-03-22T10:14:22.659Z</time></trkpt><trkpt lat="43.6364761" lon="12.7119518"><ele>191.75</ele><time>2026-03-22T10:14:23.665Z</time></trkpt><trkpt lat="43.6364292" lon="12.7117636"><ele>196.5</ele><time>2026-03-22T10:14:24.662Z</time></trkpt><trkpt lat="43.6363952" lon="12.7115619"><ele>201.25</ele><time>2026-03-22T10:14:25.661Z</time></trkpt><trkpt lat="43.6363652" lon="12.711365"><ele>206.0</ele><time>2026-03-22T10:14:26.664Z</time></trkpt><trkpt lat="43.6363358" lon="12.7111801"><ele>208.0</ele><time>2026-03-22T10:14:27.67Z</time></trkpt><trkpt lat="43.6363121" lon="12.7110364"><ele>210.0</ele><time>2026-03-22T10:14:28.661Z</time></trkpt><trkpt lat="43.6362982" lon="12.7109023"><ele>212.00000000000003</ele><time>2026-03-22T10:14:29.662Z</time></trkpt><trkpt lat="43.6362865" lon="12.7107674"><ele>214.0</ele><time>2026-03-22T10:14:30.672Z</time></trkpt><trkpt lat="43.6362662" lon="12.7106233"><ele>216.0</ele><time>2026-03-22T10:14:31.658Z</time></trkpt><trkpt lat="43.6362362" lon="12.7104595"><ele>216.0</ele><time>2026-03-22T10:14:32.664Z</time></trkpt><trkpt lat="43.6361914" lon="12.710286"><ele>216.0</ele><time>2026-03-22T10:14:33.663Z</time></trkpt><trkpt lat="43.6361674" lon="12.710092"><ele>216.0</ele><time>2026-03-22T10:14:34.661Z</time></trkpt><trkpt lat="43.6361621" lon="12.7099057"><ele>216.0</ele><time>2026-03-22T10:14:35.673Z</time></trkpt><trkpt lat="43.6361771" lon="12.7097187"><ele>215.75</ele><time>2026-03-22T10:14:36.661Z</time></trkpt><trkpt lat="43.6362061" lon="12.7095366"><ele>215.5</ele><time>2026-03-22T10:14:37.656Z</time></trkpt><trkpt lat="43.636248" lon="12.7093662"><ele>215.25</ele><time>2026-03-22T10:14:38.656Z</time></trkpt><trkpt lat="43.6362915" lon="12.709198"><ele>215.0</ele><time>2026-03-22T10:14:39.659Z</time></trkpt><trkpt lat="43.636344" lon="12.7090278"><ele>212.5</ele><time>2026-03-22T10:14:40.662Z</time></trkpt><trkpt lat="43.6364046" lon="12.7088623"><ele>210.0</ele><time>2026-03-22T10:14:41.662Z</time></trkpt><trkpt lat="43.6364791" lon="12.7086982"><ele>207.5</ele><time>2026-03-22T10:14:42.676Z</time></trkpt><trkpt lat="43.6365591" lon="12.7085371"><ele>205.0</ele><time>2026-03-22T10:14:43.678Z</time></trkpt><trkpt lat="43.6366416" lon="12.7083771"><ele>201.25</ele><time>2026-03-22T10:14:44.675Z</time></trkpt><trkpt lat="43.6367255" lon="12.7082281"><ele>197.5</ele><time>2026-03-22T10:14:45.673Z</time></trkpt><trkpt lat="43.6368078" lon="12.7080782"><ele>193.75</ele><time>2026-03-22T10:14:46.666Z</time></trkpt><trkpt lat="43.6368929" lon="12.7079246"><ele>190.0</ele><time>2026-03-22T10:14:47.67Z</time></trkpt><trkpt lat="43.6369735" lon="12.7077612"><ele>193.33333333333334</ele><time>2026-03-22T10:14:48.663Z</time></trkpt><trkpt lat="43.6370568" lon="12.7075926"><ele>196.66666666666669</ele><time>2026-03-22T10:14:49.677Z</time></trkpt><trkpt lat="43.637147" lon="12.7074187"><ele>200.0</ele><time>2026-03-22T10:14:50.673Z</time></trkpt><trkpt lat="43.6372343" lon="12.7072466"><ele>200.0</ele><time>2026-03-22T10:14:51.673Z</time></trkpt><trkpt lat="43.6373188" lon="12.7070783"><ele>200.0</ele><time>2026-03-22T10:14:52.677Z</time></trkpt><trkpt lat="43.6374041" lon="12.7069193"><ele>200.0</ele><time>2026-03-22T10:14:53.674Z</time></trkpt><trkpt lat="43.6374925" lon="12.7067646"><ele>200.0</ele><time>2026-03-22T10:14:54.671Z</time></trkpt><trkpt lat="43.6375768" lon="12.7066034"><ele>196.75</ele><time>2026-03-22T10:14:55.668Z</time></trkpt><trkpt lat="43.6376471" lon="12.7064275"><ele>193.5</ele><time>2026-03-22T10:14:56.668Z</time></trkpt><trkpt lat="43.637724" lon="12.7062666"><ele>190.25</ele><time>2026-03-22T10:14:57.662Z</time></trkpt><trkpt lat="43.6378041" lon="12.706129"><ele>187.0</ele><time>2026-03-22T10:14:58.657Z</time></trkpt><trkpt lat="43.6378684" lon="12.7060071"><ele>196.33333333333334</ele><time>2026-03-22T10:14:59.674Z</time></trkpt><trkpt lat="43.6379279" lon="12.7058335"><ele>205.66666666666669</ele><time>2026-03-22T10:15:00.667Z</time></trkpt><trkpt lat="43.6380202" lon="12.7056505"><ele>215.0</ele><time>2026-03-22T10:15:01.668Z</time></trkpt><trkpt lat="43.6380917" lon="12.7054439"><ele>215.0</ele><time>2026-03-22T10:15:02.664Z</time></trkpt><trkpt lat="43.6381516" lon="12.7052559"><ele>215.0</ele><time>2026-03-22T10:15:03.664Z</time></trkpt><trkpt lat="43.6382084" lon="12.7050722"><ele>215.0</ele><time>2026-03-22T10:15:04.663Z</time></trkpt><trkpt lat="43.6382679" lon="12.7048787"><ele>215.0</ele><time>2026-03-22T10:15:05.658Z</time></trkpt><trkpt lat="43.6383221" lon="12.7046907"><ele>209.75</ele><time>2026-03-22T10:15:06.666Z</time></trkpt><trkpt lat="43.6383824" lon="12.7045033"><ele>204.5</ele><time>2026-03-22T10:15:07.673Z</time></trkpt><trkpt lat="43.6384362" lon="12.7043167"><ele>199.25</ele><time>2026-03-22T10:15:08.67Z</time></trkpt><trkpt lat="43.6384962" lon="12.7041202"><ele>194.0</ele><time>2026-03-22T10:15:09.662Z</time></trkpt><trkpt lat="43.6385527" lon="12.7039369"><ele>191.66666666666669</ele><time>2026-03-22T10:15:10.665Z</time></trkpt><trkpt lat="43.6386338" lon="12.7037542"><ele>189.33333333333334</ele><time>2026-03-22T10:15:11.669Z</time></trkpt><trkpt lat="43.6387157" lon="12.7035743"><ele>187.0</ele><time>2026-03-22T10:15:12.663Z</time></trkpt><trkpt lat="43.6387696" lon="12.7033942"><ele>193.0</ele><time>2026-03-22T10:15:13.66Z</time></trkpt><trkpt lat="43.6388142" lon="12.7031911"><ele>199.0</ele><time>2026-03-22T10:15:14.667Z</time></trkpt><trkpt lat="43.6388252" lon="12.7029793"><ele>205.0</ele><time>2026-03-22T10:15:15.663Z</time></trkpt><trkpt lat="43.6387867" lon="12.7027643"><ele>201.0</ele><time>2026-03-22T10:15:16.66Z</time></trkpt><trkpt lat="43.6387074" lon="12.7025922"><ele>197.0</ele><time>2026-03-22T10:15:17.664Z</time></trkpt><trkpt lat="43.6386242" lon="12.7024372"><ele>193.0</ele><time>2026-03-22T10:15:18.663Z</time></trkpt><trkpt lat="43.6385373" lon="12.7023099"><ele>189.0</ele><time>2026-03-22T10:15:19.682Z</time></trkpt><trkpt lat="43.6384558" lon="12.7021763"><ele>186.25</ele><time>2026-03-22T10:15:20.665Z</time></trkpt><trkpt lat="43.6383608" lon="12.7020109"><ele>183.5</ele><time>2026-03-22T10:15:21.673Z</time></trkpt><trkpt lat="43.6382898" lon="12.7018724"><ele>180.75</ele><time>2026-03-22T10:15:22.669Z</time></trkpt><trkpt lat="43.6382161" lon="12.7017276"><ele>178.0</ele><time>2026-03-22T10:15:23.678Z</time></trkpt><trkpt lat="43.638142" lon="12.7015826"><ele>178.25</ele><time>2026-03-22T10:15:24.678Z</time></trkpt><trkpt lat="43.6380661" lon="12.7014252"><ele>178.5</ele><time>2026-03-22T10:15:25.674Z</time></trkpt><trkpt lat="43.6379897" lon="12.7012762"><ele>178.75</ele><time>2026-03-22T10:15:26.673Z</time></trkpt><trkpt lat="43.6378988" lon="12.7011135"><ele>179.0</ele><time>2026-03-22T10:15:27.678Z</time></trkpt><trkpt lat="43.6378156" lon="12.7009799"><ele>178.25</ele><time>2026-03-22T10:15:28.675Z</time></trkpt><trkpt lat="43.6377311" lon="12.700839"><ele>177.5</ele><time>2026-03-22T10:15:29.676Z</time></trkpt><trkpt lat="43.63766" lon="12.7006886"><ele>176.75</ele><time>2026-03-22T10:15:30.681Z</time></trkpt><trkpt lat="43.6375897" lon="12.7005442"><ele>176.0</ele><time>2026-03-22T10:15:31.68Z</time></trkpt><trkpt lat="43.6375112" lon="12.7003887"><ele>176.0</ele><time>2026-03-22T10:15:32.686Z</time></trkpt><trkpt lat="43.6374456" lon="12.7002537"><ele>176.0</ele><time>2026-03-22T10:15:33.682Z</time></trkpt><trkpt lat="43.6373849" lon="12.7001182"><ele>176.0</ele><time>2026-03-22T10:15:34.673Z</time></trkpt><trkpt lat="43.637324" lon="12.6999913"><ele>176.0</ele><time>2026-03-22T10:15:35.68Z</time></trkpt><trkpt lat="43.6372582" lon="12.6998553"><ele>176.8</ele><time>2026-03-22T10:15:36.672Z</time></trkpt><trkpt lat="43.6371903" lon="12.6997254"><ele>177.60000000000002</ele><time>2026-03-22T10:15:37.674Z</time></trkpt><trkpt lat="43.6371244" lon="12.699612"><ele>178.4</ele><time>2026-03-22T10:15:38.674Z</time></trkpt><trkpt lat="43.6370642" lon="12.6995046"><ele>179.2</ele><time>2026-03-22T10:15:39.674Z</time></trkpt><trkpt lat="43.6370067" lon="12.6994022"><ele>180.0</ele><time>2026-03-22T10:15:40.675Z</time></trkpt><trkpt lat="43.6369662" lon="12.6993002"><ele>181.0</ele><time>2026-03-22T10:15:41.68Z</time></trkpt><trkpt lat="43.636963" lon="12.6991906"><ele>182.0</ele><time>2026-03-22T10:15:42.682Z</time></trkpt><trkpt lat="43.636998" lon="12.6990767"><ele>183.0</ele><time>2026-03-22T10:15:43.683Z</time></trkpt><trkpt lat="43.6370403" lon="12.6989478"><ele>184.0</ele><time>2026-03-22T10:15:44.68Z</time></trkpt><trkpt lat="43.6370995" lon="12.6988089"><ele>185.0</ele><time>2026-03-22T10:15:45.68Z</time></trkpt><trkpt lat="43.6371673" lon="12.6986763"><ele>186.0</ele><time>2026-03-22T10:15:46.675Z</time></trkpt><trkpt lat="43.6372296" lon="12.6985498"><ele>187.0</ele><time>2026-03-22T10:15:47.669Z</time></trkpt><trkpt lat="43.6372994" lon="12.698428"><ele>188.0</ele><time>2026-03-22T10:15:48.675Z</time></trkpt><trkpt lat="43.637365" lon="12.698297"><ele>189.0</ele><time>2026-03-22T10:15:49.687Z</time></trkpt><trkpt lat="43.6374298" lon="12.6981773"><ele>190.0</ele><time>2026-03-22T10:15:50.679Z</time></trkpt><trkpt lat="43.637507" lon="12.6980297"><ele>190.0</ele><time>2026-03-22T10:15:51.67Z</time></trkpt><trkpt lat="43.6375924" lon="12.6978737"><ele>190.0</ele><time>2026-03-22T10:15:52.671Z</time></trkpt><trkpt lat="43.6376703" lon="12.697727"><ele>190.0</ele><time>2026-03-22T10:15:53.675Z</time></trkpt><trkpt lat="43.6377556" lon="12.6975739"><ele>190.0</ele><time>2026-03-22T10:15:54.675Z</time></trkpt><trkpt lat="43.6378399" lon="12.6974251"><ele>191.25</ele><time>2026-03-22T10:15:55.669Z</time></trkpt><trkpt lat="43.6379146" lon="12.6972682"><ele>192.5</ele><time>2026-03-22T10:15:56.671Z</time></trkpt><trkpt lat="43.6379676" lon="12.6970972"><ele>193.75</ele><time>2026-03-22T10:15:57.678Z</time></trkpt><trkpt lat="43.6380035" lon="12.6969189"><ele>195.0</ele><time>2026-03-22T10:15:58.67Z</time></trkpt><trkpt lat="43.6380431" lon="12.6967391"><ele>195.0</ele><time>2026-03-22T10:15:59.669Z</time></trkpt><trkpt lat="43.6380851" lon="12.6965498"><ele>195.0</ele><time>2026-03-22T10:16:00.67Z</time></trkpt><trkpt lat="43.6381287" lon="12.6963783"><ele>195.0</ele><time>2026-03-22T10:16:01.679Z</time></trkpt><trkpt lat="43.638181" lon="12.6962061"><ele>195.0</ele><time>2026-03-22T10:16:02.673Z</time></trkpt><trkpt lat="43.6382582" lon="12.6960478"><ele>195.0</ele><time>2026-03-22T10:16:03.692Z</time></trkpt><trkpt lat="43.6383505" lon="12.6959211"><ele>195.0</ele><time>2026-03-22T10:16:04.67Z</time></trkpt><trkpt lat="43.6384335" lon="12.695771"><ele>195.0</ele><time>2026-03-22T10:16:05.675Z</time></trkpt><trkpt lat="43.6385208" lon="12.6956443"><ele>195.0</ele><time>2026-03-22T10:16:06.677Z</time></trkpt><trkpt lat="43.6386015" lon="12.6955424"><ele>197.0</ele><time>2026-03-22T10:16:07.655Z</time></trkpt><trkpt lat="43.6386808" lon="12.6953753"><ele>199.0</ele><time>2026-03-22T10:16:08.655Z</time></trkpt><trkpt lat="43.6388589" lon="12.6952293"><ele>201.0</ele><time>2026-03-22T10:16:09.664Z</time></trkpt><trkpt lat="43.6389907" lon="12.6950711"><ele>201.0</ele><time>2026-03-22T10:16:10.668Z</time></trkpt><trkpt lat="43.6391034" lon="12.694889"><ele>201.0</ele><time>2026-03-22T10:16:11.666Z</time></trkpt><trkpt lat="43.6392171" lon="12.69475"><ele>201.0</ele><time>2026-03-22T10:16:12.662Z</time></trkpt><trkpt lat="43.6393201" lon="12.6946056"><ele>201.0</ele><time>2026-03-22T10:16:13.671Z</time></trkpt><trkpt lat="43.6394134" lon="12.6944332"><ele>201.0</ele><time>2026-03-22T10:16:14.67Z</time></trkpt><trkpt lat="43.6395043" lon="12.6942705"><ele>201.0</ele><time>2026-03-22T10:16:15.676Z</time></trkpt><trkpt lat="43.6395997" lon="12.6941317"><ele>201.0</ele><time>2026-03-22T10:16:16.686Z</time></trkpt><trkpt lat="43.6396786" lon="12.6940063"><ele>203.25</ele><time>2026-03-22T10:16:17.68Z</time></trkpt><trkpt lat="43.6397445" lon="12.6938536"><ele>205.5</ele><time>2026-03-22T10:16:18.672Z</time></trkpt><trkpt lat="43.6398234" lon="12.6936869"><ele>207.75</ele><time>2026-03-22T10:16:19.672Z</time></trkpt><trkpt lat="43.6398941" lon="12.6935175"><ele>210.0</ele><time>2026-03-22T10:16:20.676Z</time></trkpt><trkpt lat="43.6399642" lon="12.6933595"><ele>210.75</ele><time>2026-03-22T10:16:21.682Z</time></trkpt><trkpt lat="43.6400409" lon="12.6932271"><ele>211.5</ele><time>2026-03-22T10:16:22.678Z</time></trkpt><trkpt lat="43.6401091" lon="12.6930948"><ele>212.25</ele><time>2026-03-22T10:16:23.667Z</time></trkpt><trkpt lat="43.6401911" lon="12.6929354"><ele>213.0</ele><time>2026-03-22T10:16:24.663Z</time></trkpt><trkpt lat="43.6402589" lon="12.6927644"><ele>215.0</ele><time>2026-03-22T10:16:25.667Z</time></trkpt><trkpt lat="43.640334" lon="12.6925992"><ele>217.0</ele><time>2026-03-22T10:16:26.672Z</time></trkpt><trkpt lat="43.6404202" lon="12.6924409"><ele>219.0</ele><time>2026-03-22T10:16:27.678Z</time></trkpt><trkpt lat="43.6405072" lon="12.6923512"><ele>221.0</ele><time>2026-03-22T10:16:28.666Z</time></trkpt><trkpt lat="43.6405781" lon="12.6922677"><ele>221.0</ele><time>2026-03-22T10:16:29.669Z</time></trkpt><trkpt lat="43.6406548" lon="12.692205"><ele>221.00000000000003</ele><time>2026-03-22T10:16:30.671Z</time></trkpt><trkpt lat="43.6407415" lon="12.6921646"><ele>221.00000000000003</ele><time>2026-03-22T10:16:31.675Z</time></trkpt><trkpt lat="43.6408406" lon="12.6921895"><ele>221.0</ele><time>2026-03-22T10:16:32.67Z</time></trkpt><trkpt lat="43.6409567" lon="12.6922392"><ele>221.0</ele><time>2026-03-22T10:16:33.665Z</time></trkpt><trkpt lat="43.6410892" lon="12.69228"><ele>223.5</ele><time>2026-03-22T10:16:34.674Z</time></trkpt><trkpt lat="43.6412161" lon="12.6923073"><ele>226.0</ele><time>2026-03-22T10:16:35.673Z</time></trkpt><trkpt lat="43.6413438" lon="12.6923275"><ele>228.5</ele><time>2026-03-22T10:16:36.668Z</time></trkpt><trkpt lat="43.6414731" lon="12.6923264"><ele>231.0</ele><time>2026-03-22T10:16:37.675Z</time></trkpt><trkpt lat="43.641598" lon="12.6923527"><ele>231.0</ele><time>2026-03-22T10:16:38.675Z</time></trkpt><trkpt lat="43.6417157" lon="12.6923922"><ele>231.0</ele><time>2026-03-22T10:16:39.671Z</time></trkpt><trkpt lat="43.6418424" lon="12.6924258"><ele>231.0</ele><time>2026-03-22T10:16:40.683Z</time></trkpt><trkpt lat="43.641967" lon="12.6924663"><ele>231.0</ele><time>2026-03-22T10:16:41.683Z</time></trkpt><trkpt lat="43.6420929" lon="12.6925047"><ele>233.0</ele><time>2026-03-22T10:16:42.678Z</time></trkpt><trkpt lat="43.6422103" lon="12.6925231"><ele>235.0</ele><time>2026-03-22T10:16:43.678Z</time></trkpt><trkpt lat="43.642344" lon="12.6925128"><ele>237.0</ele><time>2026-03-22T10:16:44.674Z</time></trkpt><trkpt lat="43.6424986" lon="12.6924766"><ele>239.0</ele><time>2026-03-22T10:16:45.654Z</time></trkpt><trkpt lat="43.6426239" lon="12.6924353"><ele>239.0</ele><time>2026-03-22T10:16:46.663Z</time></trkpt><trkpt lat="43.6427425" lon="12.6923762"><ele>239.0</ele><time>2026-03-22T10:16:47.67Z</time></trkpt><trkpt lat="43.6428271" lon="12.6922358"><ele>239.0</ele><time>2026-03-22T10:16:48.655Z</time></trkpt><trkpt lat="43.6429023" lon="12.6921864"><ele>239.0</ele><time>2026-03-22T10:16:49.663Z</time></trkpt><trkpt lat="43.643022" lon="12.6921382"><ele>241.2</ele><time>2026-03-22T10:16:50.658Z</time></trkpt><trkpt lat="43.6431174" lon="12.6920495"><ele>243.39999999999998</ele><time>2026-03-22T10:16:51.656Z</time></trkpt><trkpt lat="43.6432223" lon="12.6919662"><ele>245.6</ele><time>2026-03-22T10:16:52.662Z</time></trkpt><trkpt lat="43.643342" lon="12.6919602"><ele>247.8</ele><time>2026-03-22T10:16:53.652Z</time></trkpt><trkpt lat="43.6434227" lon="12.6919882"><ele>250.0</ele><time>2026-03-22T10:16:54.65Z</time></trkpt><trkpt lat="43.6435204" lon="12.6920245"><ele>249.99999999999997</ele><time>2026-03-22T10:16:55.659Z</time></trkpt><trkpt lat="43.6436014" lon="12.6920549"><ele>250.0</ele><time>2026-03-22T10:16:56.661Z</time></trkpt><trkpt lat="43.6436693" lon="12.69205"><ele>250.0</ele><time>2026-03-22T10:16:57.655Z</time></trkpt><trkpt lat="43.6437376" lon="12.6919807"><ele>250.0</ele><time>2026-03-22T10:16:59.656Z</time></trkpt><trkpt lat="43.6436846" lon="12.6918497"><ele>249.99999999999997</ele><time>2026-03-22T10:17:01.653Z</time></trkpt><trkpt lat="43.6435987" lon="12.691785"><ele>250.0</ele><time>2026-03-22T10:17:02.66Z</time></trkpt><trkpt lat="43.6435034" lon="12.6917533"><ele>252.5</ele><time>2026-03-22T10:17:03.668Z</time></trkpt><trkpt lat="43.6433993" lon="12.6917196"><ele>255.0</ele><time>2026-03-22T10:17:04.668Z</time></trkpt><trkpt lat="43.6432747" lon="12.6916741"><ele>257.5</ele><time>2026-03-22T10:17:05.675Z</time></trkpt><trkpt lat="43.6431661" lon="12.6915799"><ele>260.0</ele><time>2026-03-22T10:17:06.67Z</time></trkpt><trkpt lat="43.6430337" lon="12.6915059"><ele>260.0</ele><time>2026-03-22T10:17:07.669Z</time></trkpt><trkpt lat="43.6428942" lon="12.6914651"><ele>260.0</ele><time>2026-03-22T10:17:08.663Z</time></trkpt><trkpt lat="43.6427872" lon="12.6914233"><ele>260.0</ele><time>2026-03-22T10:17:09.669Z</time></trkpt><trkpt lat="43.6427024" lon="12.691361"><ele>260.0</ele><time>2026-03-22T10:17:10.668Z</time></trkpt><trkpt lat="43.6426793" lon="12.6912618"><ele>260.0</ele><time>2026-03-22T10:17:11.671Z</time></trkpt><trkpt lat="43.6427097" lon="12.6911843"><ele>261.8</ele><time>2026-03-22T10:17:12.674Z</time></trkpt><trkpt lat="43.6427993" lon="12.6910832"><ele>263.6</ele><time>2026-03-22T10:17:14.679Z</time></trkpt><trkpt lat="43.6428833" lon="12.6910184"><ele>265.4</ele><time>2026-03-22T10:17:15.684Z</time></trkpt><trkpt lat="43.6429683" lon="12.6909831"><ele>267.2</ele><time>2026-03-22T10:17:16.672Z</time></trkpt><trkpt lat="43.6430614" lon="12.6909418"><ele>269.0</ele><time>2026-03-22T10:17:17.676Z</time></trkpt><trkpt lat="43.6431826" lon="12.6908825"><ele>269.0</ele><time>2026-03-22T10:17:18.682Z</time></trkpt><trkpt lat="43.6433117" lon="12.6908237"><ele>269.0</ele><time>2026-03-22T10:17:19.667Z</time></trkpt><trkpt lat="43.643451" lon="12.6907487"><ele>269.0</ele><time>2026-03-22T10:17:20.669Z</time></trkpt><trkpt lat="43.6435909" lon="12.6906764"><ele>269.0</ele><time>2026-03-22T10:17:21.675Z</time></trkpt><trkpt lat="43.6437154" lon="12.6906071"><ele>270.59999999999997</ele><time>2026-03-22T10:17:22.672Z</time></trkpt><trkpt lat="43.643824" lon="12.6905446"><ele>272.2</ele><time>2026-03-22T10:17:23.674Z</time></trkpt><trkpt lat="43.6439161" lon="12.6904555"><ele>273.79999999999995</ele><time>2026-03-22T10:17:24.668Z</time></trkpt><trkpt lat="43.6440006" lon="12.690361"><ele>275.4</ele><time>2026-03-22T10:17:25.665Z</time></trkpt><trkpt lat="43.6440684" lon="12.6902635"><ele>277.0</ele><time>2026-03-22T10:17:26.669Z</time></trkpt><trkpt lat="43.6441335" lon="12.690158"><ele>277.0</ele><time>2026-03-22T10:17:27.671Z</time></trkpt><trkpt lat="43.6442206" lon="12.6900273"><ele>277.0</ele><time>2026-03-22T10:17:28.669Z</time></trkpt><trkpt lat="43.6443173" lon="12.6898974"><ele>277.0</ele><time>2026-03-22T10:17:29.666Z</time></trkpt><trkpt lat="43.6444305" lon="12.6897772"><ele>277.0</ele><time>2026-03-22T10:17:30.673Z</time></trkpt><trkpt lat="43.6445512" lon="12.6896291"><ele>279.25</ele><time>2026-03-22T10:17:31.668Z</time></trkpt><trkpt lat="43.6446548" lon="12.6895044"><ele>281.5</ele><time>2026-03-22T10:17:32.661Z</time></trkpt><trkpt lat="43.644764" lon="12.6893831"><ele>283.75</ele><time>2026-03-22T10:17:33.665Z</time></trkpt><trkpt lat="43.6448801" lon="12.6892515"><ele>286.0</ele><time>2026-03-22T10:17:34.675Z</time></trkpt><trkpt lat="43.6449963" lon="12.6891178"><ele>286.0</ele><time>2026-03-22T10:17:35.662Z</time></trkpt><trkpt lat="43.6450977" lon="12.6890045"><ele>286.0</ele><time>2026-03-22T10:17:36.667Z</time></trkpt><trkpt lat="43.6451896" lon="12.6888845"><ele>286.0</ele><time>2026-03-22T10:17:37.671Z</time></trkpt><trkpt lat="43.6452646" lon="12.6887764"><ele>286.0</ele><time>2026-03-22T10:17:38.67Z</time></trkpt><trkpt lat="43.6453453" lon="12.6886672"><ele>287.25</ele><time>2026-03-22T10:17:39.668Z</time></trkpt><trkpt lat="43.6454334" lon="12.6885505"><ele>288.5</ele><time>2026-03-22T10:17:40.674Z</time></trkpt><trkpt lat="43.6455181" lon="12.6884493"><ele>289.75</ele><time>2026-03-22T10:17:41.668Z</time></trkpt><trkpt lat="43.6456093" lon="12.688358"><ele>291.0</ele><time>2026-03-22T10:17:42.673Z</time></trkpt><trkpt lat="43.6457151" lon="12.6882711"><ele>291.0</ele><time>2026-03-22T10:17:43.679Z</time></trkpt><trkpt lat="43.6458376" lon="12.6881936"><ele>291.0</ele><time>2026-03-22T10:17:44.683Z</time></trkpt><trkpt lat="43.6459661" lon="12.6881263"><ele>291.0</ele><time>2026-03-22T10:17:45.669Z</time></trkpt><trkpt lat="43.646084" lon="12.6880714"><ele>291.0</ele><time>2026-03-22T10:17:46.677Z</time></trkpt><trkpt lat="43.6462038" lon="12.6880457"><ele>292.5</ele><time>2026-03-22T10:17:47.673Z</time></trkpt><trkpt lat="43.6463343" lon="12.6880183"><ele>294.0</ele><time>2026-03-22T10:17:48.684Z</time></trkpt><trkpt lat="43.6464563" lon="12.6880232"><ele>295.5</ele><time>2026-03-22T10:17:49.668Z</time></trkpt><trkpt lat="43.6465885" lon="12.6880188"><ele>297.0</ele><time>2026-03-22T10:17:50.673Z</time></trkpt><trkpt lat="43.6467225" lon="12.6880408"><ele>297.0</ele><time>2026-03-22T10:17:51.672Z</time></trkpt><trkpt lat="43.6468524" lon="12.6880797"><ele>297.0</ele><time>2026-03-22T10:17:52.685Z</time></trkpt><trkpt lat="43.6469849" lon="12.6881335"><ele>297.0</ele><time>2026-03-22T10:17:53.683Z</time></trkpt><trkpt lat="43.6471185" lon="12.6881921"><ele>297.0</ele><time>2026-03-22T10:17:54.67Z</time></trkpt><trkpt lat="43.6472432" lon="12.6882336"><ele>298.75</ele><time>2026-03-22T10:17:55.681Z</time></trkpt><trkpt lat="43.6473726" lon="12.6882738"><ele>300.5</ele><time>2026-03-22T10:17:56.671Z</time></trkpt><trkpt lat="43.6475029" lon="12.6883207"><ele>302.25</ele><time>2026-03-22T10:17:57.672Z</time></trkpt><trkpt lat="43.6476372" lon="12.6883701"><ele>304.0</ele><time>2026-03-22T10:17:58.671Z</time></trkpt><trkpt lat="43.6477624" lon="12.6884084"><ele>303.75</ele><time>2026-03-22T10:17:59.663Z</time></trkpt><trkpt lat="43.6478864" lon="12.6884656"><ele>303.5</ele><time>2026-03-22T10:18:00.658Z</time></trkpt><trkpt lat="43.6480087" lon="12.6885171"><ele>303.25</ele><time>2026-03-22T10:18:01.664Z</time></trkpt><trkpt lat="43.6481385" lon="12.6885789"><ele>303.0</ele><time>2026-03-22T10:18:02.667Z</time></trkpt><trkpt lat="43.6482537" lon="12.6886206"><ele>308.0</ele><time>2026-03-22T10:18:03.668Z</time></trkpt><trkpt lat="43.6483674" lon="12.6886733"><ele>313.0</ele><time>2026-03-22T10:18:04.681Z</time></trkpt><trkpt lat="43.648469" lon="12.6887801"><ele>318.0</ele><time>2026-03-22T10:18:05.669Z</time></trkpt><trkpt lat="43.6485425" lon="12.6888992"><ele>323.0</ele><time>2026-03-22T10:18:06.678Z</time></trkpt><trkpt lat="43.6486112" lon="12.6890187"><ele>323.4</ele><time>2026-03-22T10:18:07.663Z</time></trkpt><trkpt lat="43.648691" lon="12.6891293"><ele>323.79999999999995</ele><time>2026-03-22T10:18:08.662Z</time></trkpt><trkpt lat="43.6487783" lon="12.6892364"><ele>324.2</ele><time>2026-03-22T10:18:09.666Z</time></trkpt><trkpt lat="43.64887" lon="12.6893106"><ele>324.6</ele><time>2026-03-22T10:18:10.668Z</time></trkpt><trkpt lat="43.6489741" lon="12.6893218"><ele>325.0</ele><time>2026-03-22T10:18:11.666Z</time></trkpt><trkpt lat="43.6490846" lon="12.6893246"><ele>325.0</ele><time>2026-03-22T10:18:12.673Z</time></trkpt><trkpt lat="43.6491708" lon="12.6892927"><ele>325.0</ele><time>2026-03-22T10:18:13.681Z</time></trkpt><trkpt lat="43.6492658" lon="12.6892176"><ele>325.0</ele><time>2026-03-22T10:18:14.67Z</time></trkpt><trkpt lat="43.6493532" lon="12.6891633"><ele>325.0</ele><time>2026-03-22T10:18:15.662Z</time></trkpt><trkpt lat="43.6494263" lon="12.689118"><ele>325.0</ele><time>2026-03-22T10:18:16.653Z</time></trkpt><trkpt lat="43.6494871" lon="12.6890762"><ele>325.0</ele><time>2026-03-22T10:18:17.654Z</time></trkpt><trkpt lat="43.6495785" lon="12.6890995"><ele>328.8</ele><time>2026-03-22T10:18:18.655Z</time></trkpt><trkpt lat="43.6496687" lon="12.6890844"><ele>332.6</ele><time>2026-03-22T10:18:19.664Z</time></trkpt><trkpt lat="43.6497435" lon="12.6890663"><ele>336.4</ele><time>2026-03-22T10:18:20.691Z</time></trkpt><trkpt lat="43.6498083" lon="12.6890052"><ele>340.2</ele><time>2026-03-22T10:18:21.716Z</time></trkpt><trkpt lat="43.6498503" lon="12.6888712"><ele>344.0</ele><time>2026-03-22T10:18:22.667Z</time></trkpt><trkpt lat="43.6498698" lon="12.6887154"><ele>340.75</ele><time>2026-03-22T10:18:23.672Z</time></trkpt><trkpt lat="43.6498724" lon="12.6885291"><ele>337.5</ele><time>2026-03-22T10:18:24.675Z</time></trkpt><trkpt lat="43.6499007" lon="12.6883614"><ele>334.25</ele><time>2026-03-22T10:18:25.671Z</time></trkpt><trkpt lat="43.6499267" lon="12.6881787"><ele>331.0</ele><time>2026-03-22T10:18:26.676Z</time></trkpt><trkpt lat="43.6499564" lon="12.6879427"><ele>331.66666666666663</ele><time>2026-03-22T10:18:27.672Z</time></trkpt><trkpt lat="43.6499686" lon="12.6876674"><ele>332.3333333333333</ele><time>2026-03-22T10:18:28.671Z</time></trkpt><trkpt lat="43.6499808" lon="12.6873928"><ele>333.0</ele><time>2026-03-22T10:18:29.683Z</time></trkpt><trkpt lat="43.6499835" lon="12.6872114"><ele>333.0</ele><time>2026-03-22T10:18:30.67Z</time></trkpt><trkpt lat="43.6499779" lon="12.6870154"><ele>333.0</ele><time>2026-03-22T10:18:31.676Z</time></trkpt><trkpt lat="43.6500063" lon="12.6868069"><ele>333.0</ele><time>2026-03-22T10:18:32.669Z</time></trkpt><trkpt lat="43.6500523" lon="12.6865937"><ele>334.0</ele><time>2026-03-22T10:18:33.671Z</time></trkpt><trkpt lat="43.6501064" lon="12.6863907"><ele>335.0</ele><time>2026-03-22T10:18:34.667Z</time></trkpt><trkpt lat="43.6501499" lon="12.6861872"><ele>336.0</ele><time>2026-03-22T10:18:35.678Z</time></trkpt><trkpt lat="43.6501878" lon="12.6860024"><ele>337.0</ele><time>2026-03-22T10:18:36.673Z</time></trkpt><trkpt lat="43.6502367" lon="12.6858656"><ele>341.20000000000005</ele><time>2026-03-22T10:18:37.68Z</time></trkpt><trkpt lat="43.6502963" lon="12.6858049"><ele>345.4</ele><time>2026-03-22T10:18:38.678Z</time></trkpt><trkpt lat="43.6504006" lon="12.6859214"><ele>349.6</ele><time>2026-03-22T10:18:40.674Z</time></trkpt><trkpt lat="43.6504209" lon="12.6860713"><ele>353.79999999999995</ele><time>2026-03-22T10:18:41.67Z</time></trkpt><trkpt lat="43.6504322" lon="12.6862393"><ele>358.0</ele><time>2026-03-22T10:18:42.657Z</time></trkpt><trkpt lat="43.6504368" lon="12.6863939"><ele>358.75</ele><time>2026-03-22T10:18:43.663Z</time></trkpt><trkpt lat="43.6504521" lon="12.6865482"><ele>359.5</ele><time>2026-03-22T10:18:44.669Z</time></trkpt><trkpt lat="43.650485" lon="12.6867015"><ele>360.25</ele><time>2026-03-22T10:18:45.663Z</time></trkpt><trkpt lat="43.6505231" lon="12.6868481"><ele>361.0</ele><time>2026-03-22T10:18:46.671Z</time></trkpt><trkpt lat="43.6505825" lon="12.6870043"><ele>359.4</ele><time>2026-03-22T10:18:47.673Z</time></trkpt><trkpt lat="43.6506553" lon="12.6871367"><ele>357.8</ele><time>2026-03-22T10:18:48.67Z</time></trkpt><trkpt lat="43.6507309" lon="12.6872342"><ele>356.2</ele><time>2026-03-22T10:18:49.665Z</time></trkpt><trkpt lat="43.6507953" lon="12.6873112"><ele>354.59999999999997</ele><time>2026-03-22T10:18:50.671Z</time></trkpt><trkpt lat="43.6508709" lon="12.6873712"><ele>353.0</ele><time>2026-03-22T10:18:51.656Z</time></trkpt><trkpt lat="43.6509522" lon="12.6874403"><ele>353.0</ele><time>2026-03-22T10:18:52.667Z</time></trkpt><trkpt lat="43.6510292" lon="12.68751"><ele>353.0</ele><time>2026-03-22T10:18:53.663Z</time></trkpt><trkpt lat="43.6510982" lon="12.6875742"><ele>353.0</ele><time>2026-03-22T10:18:54.66Z</time></trkpt><trkpt lat="43.6511694" lon="12.6876293"><ele>353.0</ele><time>2026-03-22T10:18:55.656Z</time></trkpt><trkpt lat="43.6512494" lon="12.6876772"><ele>353.0</ele><time>2026-03-22T10:18:56.658Z</time></trkpt><trkpt lat="43.6513306" lon="12.6877197"><ele>353.0</ele><time>2026-03-22T10:18:57.661Z</time></trkpt><trkpt lat="43.651433" lon="12.6878445"><ele>357.0</ele><time>2026-03-22T10:18:59.659Z</time></trkpt><trkpt lat="43.651487" lon="12.687915"><ele>361.0</ele><time>2026-03-22T10:19:00.666Z</time></trkpt><trkpt lat="43.6515059" lon="12.6880049"><ele>365.0</ele><time>2026-03-22T10:19:01.665Z</time></trkpt><trkpt lat="43.6514774" lon="12.688113"><ele>369.0</ele><time>2026-03-22T10:19:02.648Z</time></trkpt><trkpt lat="43.6514566" lon="12.6882168"><ele>373.0</ele><time>2026-03-22T10:19:03.66Z</time></trkpt><trkpt lat="43.6514269" lon="12.6883043"><ele>377.0</ele><time>2026-03-22T10:19:04.662Z</time></trkpt><trkpt lat="43.6513498" lon="12.6883988"><ele>377.0</ele><time>2026-03-22T10:19:05.665Z</time></trkpt><trkpt lat="43.6512265" lon="12.6885269"><ele>377.0</ele><time>2026-03-22T10:19:06.667Z</time></trkpt><trkpt lat="43.6511199" lon="12.6886534"><ele>377.0</ele><time>2026-03-22T10:19:07.662Z</time></trkpt><trkpt lat="43.6510305" lon="12.68875"><ele>377.0</ele><time>2026-03-22T10:19:08.667Z</time></trkpt><trkpt lat="43.6509518" lon="12.6888458"><ele>377.83333333333337</ele><time>2026-03-22T10:19:09.666Z</time></trkpt><trkpt lat="43.65089" lon="12.6889494"><ele>378.6666666666667</ele><time>2026-03-22T10:19:10.672Z</time></trkpt><trkpt lat="43.6508849" lon="12.6890392"><ele>379.5</ele><time>2026-03-22T10:19:11.669Z</time></trkpt><trkpt lat="43.6509556" lon="12.6891942"><ele>380.3333333333333</ele><time>2026-03-22T10:19:13.669Z</time></trkpt><trkpt lat="43.6510096" lon="12.689265"><ele>381.16666666666663</ele><time>2026-03-22T10:19:14.658Z</time></trkpt><trkpt lat="43.6510277" lon="12.6893594"><ele>382.0</ele><time>2026-03-22T10:19:15.664Z</time></trkpt><trkpt lat="43.6510399" lon="12.6894658"><ele>382.0</ele><time>2026-03-22T10:19:16.664Z</time></trkpt><trkpt lat="43.6510029" lon="12.689556"><ele>382.0</ele><time>2026-03-22T10:19:17.66Z</time></trkpt><trkpt lat="43.650918" lon="12.6896626"><ele>382.0</ele><time>2026-03-22T10:19:18.653Z</time></trkpt><trkpt lat="43.6508046" lon="12.6897525"><ele>382.0</ele><time>2026-03-22T10:19:19.656Z</time></trkpt><trkpt lat="43.6506933" lon="12.6898398"><ele>382.0</ele><time>2026-03-22T10:19:20.667Z</time></trkpt><trkpt lat="43.6505902" lon="12.6899283"><ele>382.0</ele><time>2026-03-22T10:19:21.667Z</time></trkpt><trkpt lat="43.6504763" lon="12.6900087"><ele>382.0</ele><time>2026-03-22T10:19:22.672Z</time></trkpt><trkpt lat="43.6503732" lon="12.6901036"><ele>382.0</ele><time>2026-03-22T10:19:23.673Z</time></trkpt><trkpt lat="43.6502903" lon="12.690242"><ele>382.0</ele><time>2026-03-22T10:19:24.657Z</time></trkpt><trkpt lat="43.6502064" lon="12.690373"><ele>383.0</ele><time>2026-03-22T10:19:25.657Z</time></trkpt><trkpt lat="43.6501252" lon="12.6905011"><ele>384.0</ele><time>2026-03-22T10:19:26.658Z</time></trkpt><trkpt lat="43.6500438" lon="12.6906314"><ele>385.0</ele><time>2026-03-22T10:19:27.659Z</time></trkpt><trkpt lat="43.6499522" lon="12.6907599"><ele>386.0</ele><time>2026-03-22T10:19:28.653Z</time></trkpt><trkpt lat="43.649857" lon="12.6908737"><ele>386.0</ele><time>2026-03-22T10:19:29.658Z</time></trkpt><trkpt lat="43.6497528" lon="12.6909949"><ele>386.0</ele><time>2026-03-22T10:19:30.651Z</time></trkpt><trkpt lat="43.6496537" lon="12.6911147"><ele>386.0</ele><time>2026-03-22T10:19:31.655Z</time></trkpt><trkpt lat="43.6495621" lon="12.6912279"><ele>386.0</ele><time>2026-03-22T10:19:32.655Z</time></trkpt><trkpt lat="43.6494445" lon="12.6913187"><ele>387.0</ele><time>2026-03-22T10:19:33.657Z</time></trkpt><trkpt lat="43.6493507" lon="12.6914354"><ele>388.0</ele><time>2026-03-22T10:19:34.655Z</time></trkpt><trkpt lat="43.6492486" lon="12.6915409"><ele>389.0</ele><time>2026-03-22T10:19:35.664Z</time></trkpt><trkpt lat="43.649164" lon="12.6916396"><ele>390.0</ele><time>2026-03-22T10:19:36.667Z</time></trkpt><trkpt lat="43.6490832" lon="12.6917085"><ele>390.0</ele><time>2026-03-22T10:19:37.672Z</time></trkpt><trkpt lat="43.6490189" lon="12.6917329"><ele>390.0</ele><time>2026-03-22T10:19:38.684Z</time></trkpt><trkpt lat="43.648944" lon="12.6916886"><ele>390.0</ele><time>2026-03-22T10:19:39.669Z</time></trkpt><trkpt lat="43.6488775" lon="12.6916665"><ele>390.0</ele><time>2026-03-22T10:19:40.672Z</time></trkpt><trkpt lat="43.6487742" lon="12.691706"><ele>390.0</ele><time>2026-03-22T10:19:42.678Z</time></trkpt><trkpt lat="43.6487477" lon="12.6918441"><ele>390.0</ele><time>2026-03-22T10:19:44.692Z</time></trkpt><trkpt lat="43.6487819" lon="12.691943"><ele>392.8</ele><time>2026-03-22T10:19:45.677Z</time></trkpt><trkpt lat="43.6488326" lon="12.692043"><ele>395.6</ele><time>2026-03-22T10:19:46.675Z</time></trkpt><trkpt lat="43.6488885" lon="12.692154"><ele>398.4</ele><time>2026-03-22T10:19:47.668Z</time></trkpt><trkpt lat="43.6489442" lon="12.6922768"><ele>401.2</ele><time>2026-03-22T10:19:48.67Z</time></trkpt><trkpt lat="43.6489904" lon="12.692403"><ele>404.0</ele><time>2026-03-22T10:19:49.675Z</time></trkpt><trkpt lat="43.6490046" lon="12.6925416"><ele>404.0</ele><time>2026-03-22T10:19:50.678Z</time></trkpt><trkpt lat="43.6489733" lon="12.6926751"><ele>404.0</ele><time>2026-03-22T10:19:51.683Z</time></trkpt><trkpt lat="43.6489055" lon="12.6927849"><ele>404.0</ele><time>2026-03-22T10:19:52.666Z</time></trkpt><trkpt lat="43.6488195" lon="12.6928822"><ele>404.0</ele><time>2026-03-22T10:19:53.657Z</time></trkpt><trkpt lat="43.6487411" lon="12.6929881"><ele>404.0</ele><time>2026-03-22T10:19:54.675Z</time></trkpt><trkpt lat="43.6486586" lon="12.6930601"><ele>401.5</ele><time>2026-03-22T10:19:55.666Z</time></trkpt><trkpt lat="43.648544" lon="12.6931344"><ele>399.0</ele><time>2026-03-22T10:19:56.664Z</time></trkpt><trkpt lat="43.6484416" lon="12.6932428"><ele>396.5</ele><time>2026-03-22T10:19:57.656Z</time></trkpt><trkpt lat="43.6483152" lon="12.6933578"><ele>394.0</ele><time>2026-03-22T10:19:58.666Z</time></trkpt><trkpt lat="43.6482055" lon="12.693493"><ele>401.0</ele><time>2026-03-22T10:19:59.668Z</time></trkpt><trkpt lat="43.6481277" lon="12.6936521"><ele>408.0</ele><time>2026-03-22T10:20:00.664Z</time></trkpt><trkpt lat="43.6480494" lon="12.6938074"><ele>415.0</ele><time>2026-03-22T10:20:01.665Z</time></trkpt><trkpt lat="43.6479801" lon="12.6939555"><ele>422.0</ele><time>2026-03-22T10:20:02.663Z</time></trkpt><trkpt lat="43.6479197" lon="12.6941278"><ele>422.0</ele><time>2026-03-22T10:20:03.666Z</time></trkpt><trkpt lat="43.6478699" lon="12.6943207"><ele>422.0</ele><time>2026-03-22T10:20:04.668Z</time></trkpt><trkpt lat="43.6478166" lon="12.6945025"><ele>422.0</ele><time>2026-03-22T10:20:05.666Z</time></trkpt><trkpt lat="43.6477659" lon="12.6946786"><ele>422.0</ele><time>2026-03-22T10:20:06.662Z</time></trkpt><trkpt lat="43.647715" lon="12.6948395"><ele>421.20000000000005</ele><time>2026-03-22T10:20:07.666Z</time></trkpt><trkpt lat="43.6476498" lon="12.6949726"><ele>420.4</ele><time>2026-03-22T10:20:08.663Z</time></trkpt><trkpt lat="43.6475846" lon="12.6950942"><ele>419.6</ele><time>2026-03-22T10:20:09.66Z</time></trkpt><trkpt lat="43.6475265" lon="12.6951982"><ele>418.79999999999995</ele><time>2026-03-22T10:20:10.667Z</time></trkpt><trkpt lat="43.6474328" lon="12.6952944"><ele>418.0</ele><time>2026-03-22T10:20:11.667Z</time></trkpt><trkpt lat="43.6473293" lon="12.6953958"><ele>418.0</ele><time>2026-03-22T10:20:12.664Z</time></trkpt><trkpt lat="43.6472285" lon="12.6955024"><ele>418.0</ele><time>2026-03-22T10:20:13.665Z</time></trkpt><trkpt lat="43.6471357" lon="12.6956203"><ele>418.0</ele><time>2026-03-22T10:20:14.666Z</time></trkpt><trkpt lat="43.6470662" lon="12.6957181"><ele>418.0</ele><time>2026-03-22T10:20:15.672Z</time></trkpt><trkpt lat="43.647026" lon="12.6957991"><ele>418.0</ele><time>2026-03-22T10:20:16.667Z</time></trkpt><trkpt lat="43.646955" lon="12.6959236"><ele>418.0</ele><time>2026-03-22T10:20:18.665Z</time></trkpt><trkpt lat="43.6469356" lon="12.6960259"><ele>418.0</ele><time>2026-03-22T10:20:20.677Z</time></trkpt><trkpt lat="43.6469993" lon="12.695985"><ele>418.0</ele><time>2026-03-22T10:20:22.685Z</time></trkpt><trkpt lat="43.6470637" lon="12.6958949"><ele>418.0</ele><time>2026-03-22T10:20:23.672Z</time></trkpt><trkpt lat="43.6471695" lon="12.6957621"><ele>418.0</ele><time>2026-03-22T10:20:24.673Z</time></trkpt><trkpt lat="43.6472815" lon="12.6956334"><ele>418.0</ele><time>2026-03-22T10:20:25.67Z</time></trkpt><trkpt lat="43.6474121" lon="12.6955138"><ele>418.0</ele><time>2026-03-22T10:20:26.681Z</time></trkpt><trkpt lat="43.6475586" lon="12.6954163"><ele>418.0</ele><time>2026-03-22T10:20:27.679Z</time></trkpt><trkpt lat="43.6477038" lon="12.6953169"><ele>426.0</ele><time>2026-03-22T10:20:28.676Z</time></trkpt><trkpt lat="43.6478455" lon="12.6951934"><ele>434.0</ele><time>2026-03-22T10:20:29.685Z</time></trkpt><trkpt lat="43.647975" lon="12.6950556"><ele>442.0</ele><time>2026-03-22T10:20:30.678Z</time></trkpt><trkpt lat="43.6481005" lon="12.694918"><ele>442.0</ele><time>2026-03-22T10:20:31.679Z</time></trkpt><trkpt lat="43.6482104" lon="12.6947864"><ele>442.0</ele><time>2026-03-22T10:20:32.68Z</time></trkpt><trkpt lat="43.6483077" lon="12.694641"><ele>442.0</ele><time>2026-03-22T10:20:33.676Z</time></trkpt><trkpt lat="43.6483972" lon="12.6944899"><ele>442.0</ele><time>2026-03-22T10:20:34.678Z</time></trkpt><trkpt lat="43.648493" lon="12.6943445"><ele>446.5</ele><time>2026-03-22T10:20:35.674Z</time></trkpt><trkpt lat="43.6485959" lon="12.6942171"><ele>451.0</ele><time>2026-03-22T10:20:36.67Z</time></trkpt><trkpt lat="43.6486901" lon="12.694099"><ele>455.5</ele><time>2026-03-22T10:20:37.659Z</time></trkpt><trkpt lat="43.648779" lon="12.6939938"><ele>460.0</ele><time>2026-03-22T10:20:38.671Z</time></trkpt><trkpt lat="43.648853" lon="12.6939083"><ele>460.0</ele><time>2026-03-22T10:20:39.669Z</time></trkpt><trkpt lat="43.6489586" lon="12.6938398"><ele>460.0</ele><time>2026-03-22T10:20:40.668Z</time></trkpt><trkpt lat="43.6490363" lon="12.6937532"><ele>460.0</ele><time>2026-03-22T10:20:41.671Z</time></trkpt><trkpt lat="43.6491364" lon="12.6936501"><ele>460.0</ele><time>2026-03-22T10:20:42.674Z</time></trkpt><trkpt lat="43.6492351" lon="12.6935458"><ele>460.25</ele><time>2026-03-22T10:20:43.671Z</time></trkpt><trkpt lat="43.6493308" lon="12.6934572"><ele>460.5</ele><time>2026-03-22T10:20:44.672Z</time></trkpt><trkpt lat="43.6494341" lon="12.6933887"><ele>460.75</ele><time>2026-03-22T10:20:45.674Z</time></trkpt><trkpt lat="43.6495433" lon="12.6933212"><ele>461.0</ele><time>2026-03-22T10:20:46.668Z</time></trkpt><trkpt lat="43.649654" lon="12.6932445"><ele>461.0</ele><time>2026-03-22T10:20:47.667Z</time></trkpt><trkpt lat="43.6497651" lon="12.693175"><ele>461.0</ele><time>2026-03-22T10:20:48.671Z</time></trkpt><trkpt lat="43.6498833" lon="12.6930998"><ele>461.0</ele><time>2026-03-22T10:20:49.668Z</time></trkpt><trkpt lat="43.6500003" lon="12.693025"><ele>461.0</ele><time>2026-03-22T10:20:50.671Z</time></trkpt><trkpt lat="43.6501322" lon="12.6929664"><ele>461.0</ele><time>2026-03-22T10:20:51.669Z</time></trkpt><trkpt lat="43.6502471" lon="12.6928976"><ele>461.0</ele><time>2026-03-22T10:20:52.673Z</time></trkpt><trkpt lat="43.6503697" lon="12.6928422"><ele>461.0</ele><time>2026-03-22T10:20:53.671Z</time></trkpt><trkpt lat="43.6505049" lon="12.6927843"><ele>461.0</ele><time>2026-03-22T10:20:54.664Z</time></trkpt><trkpt lat="43.6506359" lon="12.6926765"><ele>463.3333333333333</ele><time>2026-03-22T10:20:55.68Z</time></trkpt><trkpt lat="43.6507534" lon="12.6925275"><ele>465.66666666666663</ele><time>2026-03-22T10:20:56.669Z</time></trkpt><trkpt lat="43.6508672" lon="12.6923921"><ele>468.0</ele><time>2026-03-22T10:20:57.679Z</time></trkpt><trkpt lat="43.6509763" lon="12.6922277"><ele>468.0</ele><time>2026-03-22T10:20:58.678Z</time></trkpt><trkpt lat="43.6510887" lon="12.6920667"><ele>468.0</ele><time>2026-03-22T10:20:59.678Z</time></trkpt><trkpt lat="43.6512159" lon="12.6919341"><ele>468.0</ele><time>2026-03-22T10:21:00.673Z</time></trkpt><trkpt lat="43.6513295" lon="12.6918191"><ele>468.25</ele><time>2026-03-22T10:21:01.677Z</time></trkpt><trkpt lat="43.6514646" lon="12.6917279"><ele>468.5</ele><time>2026-03-22T10:21:02.67Z</time></trkpt><trkpt lat="43.651594" lon="12.6916439"><ele>468.75</ele><time>2026-03-22T10:21:03.666Z</time></trkpt><trkpt lat="43.6517151" lon="12.6915699"><ele>469.0</ele><time>2026-03-22T10:21:04.669Z</time></trkpt><trkpt lat="43.651865" lon="12.6915047"><ele>472.75</ele><time>2026-03-22T10:21:05.663Z</time></trkpt><trkpt lat="43.6519923" lon="12.6914033"><ele>476.5</ele><time>2026-03-22T10:21:06.67Z</time></trkpt><trkpt lat="43.6521148" lon="12.6913983"><ele>480.25</ele><time>2026-03-22T10:21:07.66Z</time></trkpt><trkpt lat="43.6522123" lon="12.6913444"><ele>484.0</ele><time>2026-03-22T10:21:08.665Z</time></trkpt><trkpt lat="43.6523487" lon="12.6913427"><ele>484.0</ele><time>2026-03-22T10:21:09.667Z</time></trkpt><trkpt lat="43.6524755" lon="12.6913799"><ele>484.0</ele><time>2026-03-22T10:21:10.689Z</time></trkpt><trkpt lat="43.6526007" lon="12.6914128"><ele>484.0</ele><time>2026-03-22T10:21:11.669Z</time></trkpt><trkpt lat="43.6527193" lon="12.6914821"><ele>484.0</ele><time>2026-03-22T10:21:12.667Z</time></trkpt><trkpt lat="43.6528155" lon="12.6914945"><ele>489.79999999999995</ele><time>2026-03-22T10:21:13.666Z</time></trkpt><trkpt lat="43.6529155" lon="12.6914698"><ele>495.59999999999997</ele><time>2026-03-22T10:21:14.671Z</time></trkpt><trkpt lat="43.6530124" lon="12.6914595"><ele>501.4</ele><time>2026-03-22T10:21:15.676Z</time></trkpt><trkpt lat="43.6530699" lon="12.6913664"><ele>507.2</ele><time>2026-03-22T10:21:16.672Z</time></trkpt><trkpt lat="43.6531506" lon="12.6912491"><ele>513.0</ele><time>2026-03-22T10:21:17.67Z</time></trkpt><trkpt lat="43.6532245" lon="12.691122"><ele>507.75</ele><time>2026-03-22T10:21:18.679Z</time></trkpt><trkpt lat="43.6533176" lon="12.6910407"><ele>502.5</ele><time>2026-03-22T10:21:19.669Z</time></trkpt><trkpt lat="43.653408" lon="12.6909186"><ele>497.25</ele><time>2026-03-22T10:21:20.671Z</time></trkpt><trkpt lat="43.6535107" lon="12.6908256"><ele>492.0</ele><time>2026-03-22T10:21:21.677Z</time></trkpt><trkpt lat="43.6535914" lon="12.690761"><ele>495.20000000000005</ele><time>2026-03-22T10:21:22.667Z</time></trkpt><trkpt lat="43.653662" lon="12.6906844"><ele>498.40000000000003</ele><time>2026-03-22T10:21:23.684Z</time></trkpt><trkpt lat="43.6537335" lon="12.6905908"><ele>501.59999999999997</ele><time>2026-03-22T10:21:24.668Z</time></trkpt><trkpt lat="43.6537972" lon="12.6904579"><ele>504.79999999999995</ele><time>2026-03-22T10:21:25.672Z</time></trkpt><trkpt lat="43.6538331" lon="12.6902721"><ele>508.0</ele><time>2026-03-22T10:21:26.666Z</time></trkpt><trkpt lat="43.6538626" lon="12.6900786"><ele>508.0</ele><time>2026-03-22T10:21:27.67Z</time></trkpt><trkpt lat="43.6538945" lon="12.6898854"><ele>508.0</ele><time>2026-03-22T10:21:28.684Z</time></trkpt><trkpt lat="43.6539338" lon="12.6896783"><ele>508.0</ele><time>2026-03-22T10:21:29.685Z</time></trkpt><trkpt lat="43.6539647" lon="12.6895128"><ele>508.0</ele><time>2026-03-22T10:21:30.673Z</time></trkpt><trkpt lat="43.6539925" lon="12.6893644"><ele>504.0</ele><time>2026-03-22T10:21:31.675Z</time></trkpt><trkpt lat="43.6540223" lon="12.6891972"><ele>499.99999999999994</ele><time>2026-03-22T10:21:32.679Z</time></trkpt><trkpt lat="43.6540443" lon="12.6890769"><ele>495.99999999999994</ele><time>2026-03-22T10:21:33.673Z</time></trkpt><trkpt lat="43.6540925" lon="12.6889945"><ele>492.0</ele><time>2026-03-22T10:21:34.682Z</time></trkpt><trkpt lat="43.6540561" lon="12.6891763"><ele>488.0</ele><time>2026-03-22T10:21:38.676Z</time></trkpt><trkpt lat="43.6539958" lon="12.6893421"><ele>493.0</ele><time>2026-03-22T10:21:39.657Z</time></trkpt><trkpt lat="43.6539631" lon="12.689499"><ele>498.0</ele><time>2026-03-22T10:21:40.671Z</time></trkpt><trkpt lat="43.6539126" lon="12.6897023"><ele>503.0</ele><time>2026-03-22T10:21:41.66Z</time></trkpt><trkpt lat="43.65387" lon="12.6899304"><ele>508.0</ele><time>2026-03-22T10:21:42.657Z</time></trkpt><trkpt lat="43.6538333" lon="12.6901354"><ele>512.0</ele><time>2026-03-22T10:21:43.659Z</time></trkpt><trkpt lat="43.6537942" lon="12.6903396"><ele>516.0</ele><time>2026-03-22T10:21:44.665Z</time></trkpt><trkpt lat="43.6537569" lon="12.6905499"><ele>520.0</ele><time>2026-03-22T10:21:45.661Z</time></trkpt><trkpt lat="43.6537275" lon="12.6907279"><ele>524.0</ele><time>2026-03-22T10:21:46.654Z</time></trkpt><trkpt lat="43.6537097" lon="12.6908562"><ele>524.0</ele><time>2026-03-22T10:21:47.658Z</time></trkpt><trkpt lat="43.6536782" lon="12.6909722"><ele>524.0</ele><time>2026-03-22T10:21:48.663Z</time></trkpt><trkpt lat="43.6537448" lon="12.691027"><ele>524.0</ele><time>2026-03-22T10:21:51.667Z</time></trkpt><trkpt lat="43.6537978" lon="12.6909609"><ele>524.0</ele><time>2026-03-22T10:21:52.652Z</time></trkpt><trkpt lat="43.6538228" lon="12.6908806"><ele>524.0</ele><time>2026-03-22T10:21:53.659Z</time></trkpt><trkpt lat="43.6538417" lon="12.6907835"><ele>524.0</ele><time>2026-03-22T10:21:54.671Z</time></trkpt><trkpt lat="43.6538802" lon="12.6907067"><ele>524.0</ele><time>2026-03-22T10:21:55.662Z</time></trkpt><trkpt lat="43.6539445" lon="12.6905563"><ele>524.0</ele><time>2026-03-22T10:21:57.673Z</time></trkpt><trkpt lat="43.6539827" lon="12.6904672"><ele>524.0</ele><time>2026-03-22T10:21:58.678Z</time></trkpt><trkpt lat="43.6540332" lon="12.6903701"><ele>524.0</ele><time>2026-03-22T10:21:59.676Z</time></trkpt><trkpt lat="43.6540758" lon="12.6902869"><ele>524.0</ele><time>2026-03-22T10:22:00.67Z</time></trkpt><trkpt lat="43.6541356" lon="12.6902143"><ele>524.0</ele><time>2026-03-22T10:22:01.666Z</time></trkpt><trkpt lat="43.654194" lon="12.690152"><ele>524.0</ele><time>2026-03-22T10:22:02.677Z</time></trkpt><trkpt lat="43.6542591" lon="12.6901114"><ele>523.5</ele><time>2026-03-22T10:22:03.673Z</time></trkpt><trkpt lat="43.6543648" lon="12.6900651"><ele>523.0</ele><time>2026-03-22T10:22:05.668Z</time></trkpt><trkpt lat="43.6544277" lon="12.6901063"><ele>522.5</ele><time>2026-03-22T10:22:06.667Z</time></trkpt><trkpt lat="43.6545061" lon="12.6901464"><ele>522.0</ele><time>2026-03-22T10:22:07.662Z</time></trkpt><trkpt lat="43.654587" lon="12.6901625"><ele>521.5</ele><time>2026-03-22T10:22:08.66Z</time></trkpt><trkpt lat="43.6546522" lon="12.6901648"><ele>521.0</ele><time>2026-03-22T10:22:09.654Z</time></trkpt><trkpt lat="43.6547386" lon="12.6901696"><ele>521.0</ele><time>2026-03-22T10:22:10.65Z</time></trkpt><trkpt lat="43.654853" lon="12.6902263"><ele>521.0</ele><time>2026-03-22T10:22:12.652Z</time></trkpt><trkpt lat="43.6549918" lon="12.6901818"><ele>521.0</ele><time>2026-03-22T10:22:14.659Z</time></trkpt><trkpt lat="43.6551101" lon="12.6901804"><ele>521.0</ele><time>2026-03-22T10:22:15.669Z</time></trkpt><trkpt lat="43.6551161" lon="12.6900879"><ele>521.0</ele><time>2026-03-22T10:22:17.665Z</time></trkpt><trkpt lat="43.655145" lon="12.6899995"><ele>521.0</ele><time>2026-03-22T10:22:18.67Z</time></trkpt><trkpt lat="43.6551355" lon="12.6898211"><ele>521.0</ele><time>2026-03-22T10:22:19.682Z</time></trkpt><trkpt lat="43.6551474" lon="12.6896813"><ele>521.0</ele><time>2026-03-22T10:22:20.679Z</time></trkpt><trkpt lat="43.6551144" lon="12.689504"><ele>521.0</ele><time>2026-03-22T10:22:21.68Z</time></trkpt><trkpt lat="43.6551079" lon="12.6894129"><ele>521.0</ele><time>2026-03-22T10:22:22.673Z</time></trkpt><trkpt lat="43.6551555" lon="12.6892941"><ele>515.5</ele><time>2026-03-22T10:22:23.673Z</time></trkpt><trkpt lat="43.6552115" lon="12.6891247"><ele>510.0</ele><time>2026-03-22T10:22:24.667Z</time></trkpt><trkpt lat="43.6553075" lon="12.6890339"><ele>504.5</ele><time>2026-03-22T10:22:25.669Z</time></trkpt><trkpt lat="43.6554506" lon="12.6889922"><ele>499.0</ele><time>2026-03-22T10:22:26.666Z</time></trkpt><trkpt lat="43.6555956" lon="12.6889567"><ele>496.6666666666667</ele><time>2026-03-22T10:22:27.662Z</time></trkpt><trkpt lat="43.6557199" lon="12.6889446"><ele>494.33333333333337</ele><time>2026-03-22T10:22:28.668Z</time></trkpt><trkpt lat="43.6558927" lon="12.6889449"><ele>492.0</ele><time>2026-03-22T10:22:29.662Z</time></trkpt><trkpt lat="43.6560491" lon="12.6889926"><ele>492.25</ele><time>2026-03-22T10:22:30.667Z</time></trkpt><trkpt lat="43.6561338" lon="12.6890333"><ele>492.5</ele><time>2026-03-22T10:22:31.665Z</time></trkpt><trkpt lat="43.6562754" lon="12.6890998"><ele>492.75</ele><time>2026-03-22T10:22:32.658Z</time></trkpt><trkpt lat="43.6564619" lon="12.6891705"><ele>493.0</ele><time>2026-03-22T10:22:33.665Z</time></trkpt><trkpt lat="43.65669" lon="12.6892649"><ele>493.0</ele><time>2026-03-22T10:22:34.659Z</time></trkpt><trkpt lat="43.6568908" lon="12.6893412"><ele>493.0</ele><time>2026-03-22T10:22:35.654Z</time></trkpt><trkpt lat="43.6570879" lon="12.6894171"><ele>493.0</ele><time>2026-03-22T10:22:36.655Z</time></trkpt><trkpt lat="43.6572593" lon="12.6894644"><ele>501.0</ele><time>2026-03-22T10:22:37.658Z</time></trkpt><trkpt lat="43.6574433" lon="12.6895412"><ele>509.0</ele><time>2026-03-22T10:22:38.662Z</time></trkpt><trkpt lat="43.6575768" lon="12.689587"><ele>517.0</ele><time>2026-03-22T10:22:39.664Z</time></trkpt><trkpt lat="43.6576887" lon="12.6896013"><ele>525.0</ele><time>2026-03-22T10:22:40.662Z</time></trkpt><trkpt lat="43.6578034" lon="12.6895881"><ele>530.6</ele><time>2026-03-22T10:22:41.651Z</time></trkpt><trkpt lat="43.6579062" lon="12.6895463"><ele>536.2</ele><time>2026-03-22T10:22:42.661Z</time></trkpt><trkpt lat="43.6580106" lon="12.6895199"><ele>541.8</ele><time>2026-03-22T10:22:43.651Z</time></trkpt><trkpt lat="43.6580972" lon="12.6895222"><ele>547.4</ele><time>2026-03-22T10:22:44.659Z</time></trkpt><trkpt lat="43.6581695" lon="12.6895869"><ele>553.0</ele><time>2026-03-22T10:22:45.653Z</time></trkpt><trkpt lat="43.6582368" lon="12.6897431"><ele>553.0</ele><time>2026-03-22T10:22:47.657Z</time></trkpt><trkpt lat="43.658223" lon="12.6899156"><ele>553.0</ele><time>2026-03-22T10:22:48.663Z</time></trkpt><trkpt lat="43.6582051" lon="12.6900821"><ele>553.0</ele><time>2026-03-22T10:22:49.659Z</time></trkpt><trkpt lat="43.6581893" lon="12.690276"><ele>553.0</ele><time>2026-03-22T10:22:50.654Z</time></trkpt><trkpt lat="43.6581104" lon="12.6904212"><ele>553.0</ele><time>2026-03-22T10:22:51.649Z</time></trkpt><trkpt lat="43.6580175" lon="12.6905528"><ele>553.0</ele><time>2026-03-22T10:22:52.66Z</time></trkpt><trkpt lat="43.6579027" lon="12.6905294"><ele>553.0</ele><time>2026-03-22T10:22:53.669Z</time></trkpt><trkpt lat="43.65779" lon="12.6902462"><ele>543.6666666666667</ele><time>2026-03-22T10:22:54.661Z</time></trkpt><trkpt lat="43.6577294" lon="12.690031"><ele>534.3333333333334</ele><time>2026-03-22T10:22:55.673Z</time></trkpt><trkpt lat="43.6576474" lon="12.6898778"><ele>525.0</ele><time>2026-03-22T10:22:56.678Z</time></trkpt><trkpt lat="43.6575723" lon="12.6897043"><ele>525.0</ele><time>2026-03-22T10:22:57.663Z</time></trkpt><trkpt lat="43.6575202" lon="12.6895087"><ele>525.0</ele><time>2026-03-22T10:22:58.678Z</time></trkpt><trkpt lat="43.6575137" lon="12.6892641"><ele>525.0</ele><time>2026-03-22T10:22:59.674Z</time></trkpt><trkpt lat="43.6575007" lon="12.6890756"><ele>524.5</ele><time>2026-03-22T10:23:00.677Z</time></trkpt><trkpt lat="43.6575043" lon="12.6889134"><ele>524.0</ele><time>2026-03-22T10:23:01.68Z</time></trkpt><trkpt lat="43.657537" lon="12.6887359"><ele>523.5</ele><time>2026-03-22T10:23:02.674Z</time></trkpt><trkpt lat="43.6576542" lon="12.6885799"><ele>523.0</ele><time>2026-03-22T10:23:03.664Z</time></trkpt><trkpt lat="43.6577975" lon="12.6884442"><ele>530.6666666666667</ele><time>2026-03-22T10:23:04.679Z</time></trkpt><trkpt lat="43.6579571" lon="12.6882513"><ele>538.3333333333334</ele><time>2026-03-22T10:23:05.671Z</time></trkpt><trkpt lat="43.6581253" lon="12.6880778"><ele>546.0</ele><time>2026-03-22T10:23:06.674Z</time></trkpt><trkpt lat="43.6582693" lon="12.6880006"><ele>546.0</ele><time>2026-03-22T10:23:07.674Z</time></trkpt><trkpt lat="43.6584119" lon="12.6879144"><ele>546.0</ele><time>2026-03-22T10:23:08.687Z</time></trkpt><trkpt lat="43.6585665" lon="12.6879235"><ele>546.0</ele><time>2026-03-22T10:23:09.687Z</time></trkpt><trkpt lat="43.6587305" lon="12.6879746"><ele>548.5</ele><time>2026-03-22T10:23:10.677Z</time></trkpt><trkpt lat="43.6588925" lon="12.6880377"><ele>551.0</ele><time>2026-03-22T10:23:11.674Z</time></trkpt><trkpt lat="43.6590287" lon="12.6880844"><ele>553.5</ele><time>2026-03-22T10:23:12.669Z</time></trkpt><trkpt lat="43.6591504" lon="12.6881369"><ele>556.0</ele><time>2026-03-22T10:23:13.689Z</time></trkpt><trkpt lat="43.6592463" lon="12.6881009"><ele>556.0</ele><time>2026-03-22T10:23:14.672Z</time></trkpt><trkpt lat="43.6593204" lon="12.688022"><ele>556.0</ele><time>2026-03-22T10:23:15.682Z</time></trkpt><trkpt lat="43.6593555" lon="12.687908"><ele>556.0</ele><time>2026-03-22T10:23:16.664Z</time></trkpt><trkpt lat="43.6593935" lon="12.6877594"><ele>556.0</ele><time>2026-03-22T10:23:17.673Z</time></trkpt><trkpt lat="43.6594542" lon="12.6876126"><ele>556.0</ele><time>2026-03-22T10:23:18.676Z</time></trkpt><trkpt lat="43.6595222" lon="12.6875044"><ele>551.5</ele><time>2026-03-22T10:23:19.676Z</time></trkpt><trkpt lat="43.6596013" lon="12.6874087"><ele>547.0</ele><time>2026-03-22T10:23:20.691Z</time></trkpt><trkpt lat="43.6596944" lon="12.687363"><ele>542.5</ele><time>2026-03-22T10:23:21.692Z</time></trkpt><trkpt lat="43.6598346" lon="12.6873675"><ele>538.0</ele><time>2026-03-22T10:23:22.692Z</time></trkpt><trkpt lat="43.6599882" lon="12.6873983"><ele>538.0</ele><time>2026-03-22T10:23:23.691Z</time></trkpt><trkpt lat="43.660189" lon="12.687444"><ele>538.0</ele><time>2026-03-22T10:23:24.683Z</time></trkpt><trkpt lat="43.6603767" lon="12.6874619"><ele>538.0</ele><time>2026-03-22T10:23:25.681Z</time></trkpt><trkpt lat="43.6605587" lon="12.6874559"><ele>538.75</ele><time>2026-03-22T10:23:26.678Z</time></trkpt><trkpt lat="43.6607244" lon="12.6874563"><ele>539.5</ele><time>2026-03-22T10:23:27.689Z</time></trkpt><trkpt lat="43.6608658" lon="12.6874612"><ele>540.25</ele><time>2026-03-22T10:23:28.682Z</time></trkpt><trkpt lat="43.661006" lon="12.6874683"><ele>541.0</ele><time>2026-03-22T10:23:29.679Z</time></trkpt><trkpt lat="43.661161" lon="12.6875235"><ele>542.25</ele><time>2026-03-22T10:23:30.684Z</time></trkpt><trkpt lat="43.6612974" lon="12.6875987"><ele>543.5</ele><time>2026-03-22T10:23:31.684Z</time></trkpt><trkpt lat="43.6614171" lon="12.6876459"><ele>544.75</ele><time>2026-03-22T10:23:32.69Z</time></trkpt><trkpt lat="43.6615138" lon="12.6876661"><ele>546.0</ele><time>2026-03-22T10:23:33.686Z</time></trkpt><trkpt lat="43.6615943" lon="12.6876401"><ele>546.0</ele><time>2026-03-22T10:23:34.685Z</time></trkpt><trkpt lat="43.6616783" lon="12.6875535"><ele>546.0</ele><time>2026-03-22T10:23:35.683Z</time></trkpt><trkpt lat="43.6617438" lon="12.6874378"><ele>546.0</ele><time>2026-03-22T10:23:36.671Z</time></trkpt><trkpt lat="43.6618015" lon="12.687363"><ele>546.0</ele><time>2026-03-22T10:23:37.689Z</time></trkpt><trkpt lat="43.6618945" lon="12.6873297"><ele>546.0</ele><time>2026-03-22T10:23:38.669Z</time></trkpt><trkpt lat="43.6620142" lon="12.6873077"><ele>546.8</ele><time>2026-03-22T10:23:39.663Z</time></trkpt><trkpt lat="43.6621358" lon="12.6872769"><ele>547.6</ele><time>2026-03-22T10:23:40.664Z</time></trkpt><trkpt lat="43.6622275" lon="12.6872273"><ele>548.4</ele><time>2026-03-22T10:23:41.664Z</time></trkpt><trkpt lat="43.6623283" lon="12.6872014"><ele>549.2</ele><time>2026-03-22T10:23:42.678Z</time></trkpt><trkpt lat="43.6624295" lon="12.6871894"><ele>550.0</ele><time>2026-03-22T10:23:43.665Z</time></trkpt><trkpt lat="43.6625282" lon="12.6871801"><ele>550.0</ele><time>2026-03-22T10:23:44.669Z</time></trkpt><trkpt lat="43.6626448" lon="12.6872077"><ele>550.0</ele><time>2026-03-22T10:23:45.671Z</time></trkpt><trkpt lat="43.6627227" lon="12.6872647"><ele>550.0</ele><time>2026-03-22T10:23:46.661Z</time></trkpt><trkpt lat="43.6627922" lon="12.6873098"><ele>550.0</ele><time>2026-03-22T10:23:47.662Z</time></trkpt><trkpt lat="43.6628826" lon="12.6873605"><ele>550.0</ele><time>2026-03-22T10:23:48.658Z</time></trkpt><trkpt lat="43.6629785" lon="12.6874237"><ele>551.6</ele><time>2026-03-22T10:23:49.673Z</time></trkpt><trkpt lat="43.6630938" lon="12.6873008"><ele>553.2</ele><time>2026-03-22T10:23:51.678Z</time></trkpt><trkpt lat="43.6631635" lon="12.6872313"><ele>554.8</ele><time>2026-03-22T10:23:52.676Z</time></trkpt><trkpt lat="43.6632436" lon="12.6871645"><ele>556.4</ele><time>2026-03-22T10:23:53.683Z</time></trkpt><trkpt lat="43.6633294" lon="12.6871291"><ele>558.0</ele><time>2026-03-22T10:23:54.676Z</time></trkpt><trkpt lat="43.6634101" lon="12.6870665"><ele>558.0</ele><time>2026-03-22T10:23:55.683Z</time></trkpt><trkpt lat="43.6634711" lon="12.6869761"><ele>558.0</ele><time>2026-03-22T10:23:56.677Z</time></trkpt><trkpt lat="43.6634878" lon="12.6868602"><ele>558.0</ele><time>2026-03-22T10:23:57.681Z</time></trkpt><trkpt lat="43.6634538" lon="12.6867639"><ele>558.0</ele><time>2026-03-22T10:23:58.681Z</time></trkpt><trkpt lat="43.6633762" lon="12.6866529"><ele>558.0</ele><time>2026-03-22T10:23:59.682Z</time></trkpt><trkpt lat="43.6632743" lon="12.6865106"><ele>555.6</ele><time>2026-03-22T10:24:00.676Z</time></trkpt><trkpt lat="43.6631928" lon="12.6863634"><ele>553.1999999999999</ele><time>2026-03-22T10:24:01.67Z</time></trkpt><trkpt lat="43.6631466" lon="12.6862238"><ele>550.8</ele><time>2026-03-22T10:24:02.674Z</time></trkpt><trkpt lat="43.663141" lon="12.686109"><ele>548.4</ele><time>2026-03-22T10:24:03.679Z</time></trkpt><trkpt lat="43.6631764" lon="12.686019"><ele>546.0</ele><time>2026-03-22T10:24:04.675Z</time></trkpt><trkpt lat="43.6632196" lon="12.6859319"><ele>545.0</ele><time>2026-03-22T10:24:05.683Z</time></trkpt><trkpt lat="43.663311" lon="12.6858367"><ele>544.0</ele><time>2026-03-22T10:24:06.669Z</time></trkpt><trkpt lat="43.6634269" lon="12.6857225"><ele>543.0</ele><time>2026-03-22T10:24:07.683Z</time></trkpt><trkpt lat="43.6635299" lon="12.6855912"><ele>542.0</ele><time>2026-03-22T10:24:08.677Z</time></trkpt><trkpt lat="43.6636362" lon="12.6854266"><ele>544.3333333333333</ele><time>2026-03-22T10:24:09.682Z</time></trkpt><trkpt lat="43.6637566" lon="12.6852625"><ele>546.6666666666666</ele><time>2026-03-22T10:24:10.683Z</time></trkpt><trkpt lat="43.663886" lon="12.6851247"><ele>549.0</ele><time>2026-03-22T10:24:11.683Z</time></trkpt><trkpt lat="43.6639905" lon="12.6849764"><ele>549.0</ele><time>2026-03-22T10:24:12.677Z</time></trkpt><trkpt lat="43.6640584" lon="12.6848122"><ele>549.0</ele><time>2026-03-22T10:24:13.687Z</time></trkpt><trkpt lat="43.6640755" lon="12.6846605"><ele>549.0</ele><time>2026-03-22T10:24:14.679Z</time></trkpt><trkpt lat="43.6641033" lon="12.6845354"><ele>549.0</ele><time>2026-03-22T10:24:15.695Z</time></trkpt><trkpt lat="43.6641453" lon="12.6844467"><ele>549.0</ele><time>2026-03-22T10:24:16.685Z</time></trkpt><trkpt lat="43.6642302" lon="12.6844032"><ele>549.0</ele><time>2026-03-22T10:24:17.679Z</time></trkpt><trkpt lat="43.6643307" lon="12.6843553"><ele>549.0</ele><time>2026-03-22T10:24:18.675Z</time></trkpt><trkpt lat="43.6644221" lon="12.6842987"><ele>549.0</ele><time>2026-03-22T10:24:19.668Z</time></trkpt><trkpt lat="43.664513" lon="12.6842385"><ele>549.0</ele><time>2026-03-22T10:24:20.661Z</time></trkpt><trkpt lat="43.6646014" lon="12.6841818"><ele>549.0</ele><time>2026-03-22T10:24:21.668Z</time></trkpt><trkpt lat="43.664692" lon="12.68414"><ele>549.0</ele><time>2026-03-22T10:24:22.656Z</time></trkpt><trkpt lat="43.6647805" lon="12.6840984"><ele>549.0</ele><time>2026-03-22T10:24:23.661Z</time></trkpt><trkpt lat="43.6648936" lon="12.684042"><ele>549.0</ele><time>2026-03-22T10:24:24.674Z</time></trkpt><trkpt lat="43.6648737" lon="12.6841706"><ele>549.0</ele><time>2026-03-22T10:24:56.622Z</time></trkpt><trkpt lat="43.6648696" lon="12.6843042"><ele>549.0</ele><time>2026-03-22T10:24:57.637Z</time></trkpt><trkpt lat="43.6648011" lon="12.684343"><ele>549.0</ele><time>2026-03-22T10:24:58.632Z</time></trkpt><trkpt lat="43.6647606" lon="12.6844118"><ele>549.0</ele><time>2026-03-22T10:24:59.66Z</time></trkpt><trkpt lat="43.664735" lon="12.6843307"><ele>549.0</ele><time>2026-03-22T10:25:05.67Z</time></trkpt><trkpt lat="43.6647827" lon="12.684204"><ele>549.0</ele><time>2026-03-22T10:25:09.679Z</time></trkpt><trkpt lat="43.6648477" lon="12.6841448"><ele>549.0</ele><time>2026-03-22T10:25:11.671Z</time></trkpt><trkpt lat="43.6647999" lon="12.684223"><ele>549.0</ele><time>2026-03-22T10:25:40.679Z</time></trkpt><trkpt lat="43.6648857" lon="12.6842224"><ele>549.0</ele><time>2026-03-22T10:28:17.687Z</time></trkpt><trkpt lat="43.6649737" lon="12.6841979"><ele>549.0</ele><time>2026-03-22T10:28:18.686Z</time></trkpt><trkpt lat="43.6650671" lon="12.6841706"><ele>549.0</ele><time>2026-03-22T10:28:19.692Z</time></trkpt><trkpt lat="43.6651648" lon="12.684163"><ele>549.0</ele><time>2026-03-22T10:28:20.687Z</time></trkpt><trkpt lat="43.6652685" lon="12.6841535"><ele>549.0</ele><time>2026-03-22T10:28:21.687Z</time></trkpt><trkpt lat="43.6653769" lon="12.684148"><ele>550.0</ele><time>2026-03-22T10:28:22.698Z</time></trkpt><trkpt lat="43.6654847" lon="12.6841409"><ele>551.0</ele><time>2026-03-22T10:28:23.697Z</time></trkpt><trkpt lat="43.6655943" lon="12.6841263"><ele>552.0</ele><time>2026-03-22T10:28:24.694Z</time></trkpt><trkpt lat="43.6657" lon="12.6841208"><ele>553.0</ele><time>2026-03-22T10:28:25.695Z</time></trkpt><trkpt lat="43.665809" lon="12.6841163"><ele>554.0</ele><time>2026-03-22T10:28:26.689Z</time></trkpt><trkpt lat="43.6659203" lon="12.6841111"><ele>554.0</ele><time>2026-03-22T10:28:27.693Z</time></trkpt><trkpt lat="43.6660288" lon="12.6841016"><ele>554.0</ele><time>2026-03-22T10:28:28.692Z</time></trkpt><trkpt lat="43.6661361" lon="12.6840915"><ele>554.0</ele><time>2026-03-22T10:28:29.693Z</time></trkpt><trkpt lat="43.6662435" lon="12.68409"><ele>554.0</ele><time>2026-03-22T10:28:30.679Z</time></trkpt><trkpt lat="43.6663461" lon="12.6840957"><ele>554.0</ele><time>2026-03-22T10:28:31.676Z</time></trkpt><trkpt lat="43.6664492" lon="12.6840977"><ele>554.75</ele><time>2026-03-22T10:28:32.674Z</time></trkpt><trkpt lat="43.6665546" lon="12.6840977"><ele>555.5</ele><time>2026-03-22T10:28:33.673Z</time></trkpt><trkpt lat="43.6666613" lon="12.6841243"><ele>556.25</ele><time>2026-03-22T10:28:34.684Z</time></trkpt><trkpt lat="43.6667721" lon="12.6841782"><ele>557.0</ele><time>2026-03-22T10:28:35.688Z</time></trkpt><trkpt lat="43.6668887" lon="12.6842198"><ele>557.25</ele><time>2026-03-22T10:28:36.676Z</time></trkpt><trkpt lat="43.6670055" lon="12.6842692"><ele>557.5</ele><time>2026-03-22T10:28:37.677Z</time></trkpt><trkpt lat="43.6671276" lon="12.6843223"><ele>557.75</ele><time>2026-03-22T10:28:38.667Z</time></trkpt><trkpt lat="43.6672516" lon="12.6843866"><ele>558.0</ele><time>2026-03-22T10:28:39.666Z</time></trkpt><trkpt lat="43.6673429" lon="12.6844432"><ele>558.0</ele><time>2026-03-22T10:28:40.669Z</time></trkpt><trkpt lat="43.6674273" lon="12.6845"><ele>558.0</ele><time>2026-03-22T10:28:41.666Z</time></trkpt><trkpt lat="43.6675042" lon="12.6845438"><ele>558.0</ele><time>2026-03-22T10:28:42.663Z</time></trkpt><trkpt lat="43.6675556" lon="12.6846144"><ele>558.0</ele><time>2026-03-22T10:28:43.675Z</time></trkpt><trkpt lat="43.6674515" lon="12.6846862"><ele>558.0</ele><time>2026-03-22T10:28:46.686Z</time></trkpt><trkpt lat="43.6673428" lon="12.6847104"><ele>558.0</ele><time>2026-03-22T10:28:47.684Z</time></trkpt><trkpt lat="43.6672074" lon="12.6847477"><ele>558.0</ele><time>2026-03-22T10:28:48.682Z</time></trkpt><trkpt lat="43.6670431" lon="12.6847958"><ele>558.0</ele><time>2026-03-22T10:28:49.702Z</time></trkpt><trkpt lat="43.6668777" lon="12.6848367"><ele>558.0</ele><time>2026-03-22T10:28:50.696Z</time></trkpt><trkpt lat="43.6667254" lon="12.6848698"><ele>558.0</ele><time>2026-03-22T10:28:51.698Z</time></trkpt><trkpt lat="43.6665924" lon="12.684886"><ele>558.0</ele><time>2026-03-22T10:28:52.696Z</time></trkpt><trkpt lat="43.6664843" lon="12.6849256"><ele>558.0</ele><time>2026-03-22T10:28:53.707Z</time></trkpt><trkpt lat="43.6663781" lon="12.6849715"><ele>558.0</ele><time>2026-03-22T10:28:54.695Z</time></trkpt><trkpt lat="43.666271" lon="12.6850217"><ele>558.0</ele><time>2026-03-22T10:28:55.695Z</time></trkpt><trkpt lat="43.6661707" lon="12.6850652"><ele>558.0</ele><time>2026-03-22T10:28:56.686Z</time></trkpt><trkpt lat="43.6660856" lon="12.6850931"><ele>558.0</ele><time>2026-03-22T10:28:57.696Z</time></trkpt><trkpt lat="43.6660087" lon="12.6851133"><ele>558.0</ele><time>2026-03-22T10:28:58.679Z</time></trkpt><trkpt lat="43.6659241" lon="12.6851476"><ele>558.5</ele><time>2026-03-22T10:28:59.691Z</time></trkpt><trkpt lat="43.6658433" lon="12.685186"><ele>559.0</ele><time>2026-03-22T10:29:00.69Z</time></trkpt><trkpt lat="43.6657729" lon="12.6852246"><ele>559.5</ele><time>2026-03-22T10:29:01.663Z</time></trkpt><trkpt lat="43.6656989" lon="12.6852786"><ele>560.0</ele><time>2026-03-22T10:29:02.654Z</time></trkpt><trkpt lat="43.6656276" lon="12.685338"><ele>560.5</ele><time>2026-03-22T10:29:03.648Z</time></trkpt><trkpt lat="43.6655536" lon="12.6854106"><ele>561.0</ele><time>2026-03-22T10:29:04.658Z</time></trkpt><trkpt lat="43.6654825" lon="12.6854681"><ele>562.0</ele><time>2026-03-22T10:29:05.643Z</time></trkpt><trkpt lat="43.665426" lon="12.6855839"><ele>563.0</ele><time>2026-03-22T10:29:06.655Z</time></trkpt><trkpt lat="43.6653102" lon="12.685883"><ele>564.0</ele><time>2026-03-22T10:29:07.671Z</time></trkpt><trkpt lat="43.6653364" lon="12.6860895"><ele>563.3333333333334</ele><time>2026-03-22T10:29:08.666Z</time></trkpt><trkpt lat="43.6652397" lon="12.6860274"><ele>562.6666666666667</ele><time>2026-03-22T10:29:09.675Z</time></trkpt><trkpt lat="43.6650654" lon="12.6861024"><ele>562.0</ele><time>2026-03-22T10:29:10.676Z</time></trkpt><trkpt lat="43.6650365" lon="12.6863375"><ele>563.6666666666667</ele><time>2026-03-22T10:29:11.682Z</time></trkpt><trkpt lat="43.6651814" lon="12.6865527"><ele>565.3333333333334</ele><time>2026-03-22T10:29:12.669Z</time></trkpt><trkpt lat="43.6652356" lon="12.6867298"><ele>567.0</ele><time>2026-03-22T10:29:13.669Z</time></trkpt><trkpt lat="43.6652865" lon="12.6868644"><ele>568.5</ele><time>2026-03-22T10:29:14.679Z</time></trkpt><trkpt lat="43.6652935" lon="12.687024"><ele>570.0</ele><time>2026-03-22T10:29:16.677Z</time></trkpt><trkpt lat="43.6653936" lon="12.6871219"><ele>571.5</ele><time>2026-03-22T10:29:17.678Z</time></trkpt><trkpt lat="43.6654047" lon="12.6872579"><ele>573.0</ele><time>2026-03-22T10:29:18.683Z</time></trkpt><trkpt lat="43.6654143" lon="12.6874247"><ele>573.0</ele><time>2026-03-22T10:29:19.686Z</time></trkpt><trkpt lat="43.6653975" lon="12.6875756"><ele>573.0</ele><time>2026-03-22T10:29:20.681Z</time></trkpt><trkpt lat="43.6653814" lon="12.6877107"><ele>573.0</ele><time>2026-03-22T10:29:21.694Z</time></trkpt><trkpt lat="43.6653621" lon="12.6878163"><ele>573.0</ele><time>2026-03-22T10:29:22.696Z</time></trkpt><trkpt lat="43.6653188" lon="12.6878958"><ele>573.0</ele><time>2026-03-22T10:29:23.69Z</time></trkpt><trkpt lat="43.6652655" lon="12.6879834"><ele>573.0</ele><time>2026-03-22T10:29:24.699Z</time></trkpt><trkpt lat="43.6652105" lon="12.6880585"><ele>573.6666666666666</ele><time>2026-03-22T10:29:25.695Z</time></trkpt><trkpt lat="43.6651317" lon="12.6881198"><ele>574.3333333333334</ele><time>2026-03-22T10:29:26.696Z</time></trkpt><trkpt lat="43.6650606" lon="12.6881486"><ele>575.0</ele><time>2026-03-22T10:29:27.7Z</time></trkpt><trkpt lat="43.6650085" lon="12.6882218"><ele>575.6666666666667</ele><time>2026-03-22T10:29:28.7Z</time></trkpt><trkpt lat="43.664989" lon="12.6883372"><ele>576.3333333333334</ele><time>2026-03-22T10:29:29.694Z</time></trkpt><trkpt lat="43.6649733" lon="12.6884391"><ele>577.0</ele><time>2026-03-22T10:29:30.691Z</time></trkpt><trkpt lat="43.6649359" lon="12.688518"><ele>577.0</ele><time>2026-03-22T10:29:31.693Z</time></trkpt><trkpt lat="43.6648914" lon="12.6885824"><ele>577.0</ele><time>2026-03-22T10:29:32.681Z</time></trkpt><trkpt lat="43.6648347" lon="12.6886481"><ele>577.0</ele><time>2026-03-22T10:29:33.673Z</time></trkpt><trkpt lat="43.6647821" lon="12.6887188"><ele>577.0</ele><time>2026-03-22T10:29:34.683Z</time></trkpt><trkpt lat="43.664745" lon="12.6887915"><ele>577.0</ele><time>2026-03-22T10:29:35.68Z</time></trkpt><trkpt lat="43.6647093" lon="12.6888767"><ele>577.0</ele><time>2026-03-22T10:29:36.678Z</time></trkpt><trkpt lat="43.6646979" lon="12.6889938"><ele>577.0</ele><time>2026-03-22T10:29:37.683Z</time></trkpt><trkpt lat="43.6647097" lon="12.6891316"><ele>577.8000000000001</ele><time>2026-03-22T10:29:38.678Z</time></trkpt><trkpt lat="43.6647835" lon="12.6891957"><ele>578.6</ele><time>2026-03-22T10:29:39.682Z</time></trkpt><trkpt lat="43.66486" lon="12.6892325"><ele>579.4000000000001</ele><time>2026-03-22T10:29:40.68Z</time></trkpt><trkpt lat="43.6649505" lon="12.6893027"><ele>580.2</ele><time>2026-03-22T10:29:41.676Z</time></trkpt><trkpt lat="43.6650466" lon="12.6893694"><ele>581.0</ele><time>2026-03-22T10:29:42.679Z</time></trkpt><trkpt lat="43.6651758" lon="12.6894289"><ele>583.3333333333333</ele><time>2026-03-22T10:29:43.667Z</time></trkpt><trkpt lat="43.6653494" lon="12.6894878"><ele>585.6666666666666</ele><time>2026-03-22T10:29:44.675Z</time></trkpt><trkpt lat="43.6655394" lon="12.6895555"><ele>588.0</ele><time>2026-03-22T10:29:45.675Z</time></trkpt><trkpt lat="43.6657338" lon="12.6896088"><ele>588.0</ele><time>2026-03-22T10:29:46.683Z</time></trkpt><trkpt lat="43.6659105" lon="12.6896248"><ele>588.0</ele><time>2026-03-22T10:29:47.691Z</time></trkpt><trkpt lat="43.6660185" lon="12.6896131"><ele>588.0</ele><time>2026-03-22T10:29:48.68Z</time></trkpt><trkpt lat="43.6660802" lon="12.6896356"><ele>588.0</ele><time>2026-03-22T10:29:49.69Z</time></trkpt><trkpt lat="43.6661821" lon="12.6897608"><ele>587.1999999999999</ele><time>2026-03-22T10:29:51.688Z</time></trkpt><trkpt lat="43.6662378" lon="12.6898497"><ele>586.4</ele><time>2026-03-22T10:29:52.687Z</time></trkpt><trkpt lat="43.6662968" lon="12.689945"><ele>585.5999999999999</ele><time>2026-03-22T10:29:53.682Z</time></trkpt><trkpt lat="43.666356" lon="12.6900535"><ele>584.8</ele><time>2026-03-22T10:29:54.673Z</time></trkpt><trkpt lat="43.666411" lon="12.6901555"><ele>584.0</ele><time>2026-03-22T10:29:55.686Z</time></trkpt><trkpt lat="43.666469" lon="12.6902793"><ele>584.0</ele><time>2026-03-22T10:29:56.68Z</time></trkpt><trkpt lat="43.666522" lon="12.6904162"><ele>584.0</ele><time>2026-03-22T10:29:57.686Z</time></trkpt><trkpt lat="43.666587" lon="12.6905692"><ele>584.0</ele><time>2026-03-22T10:29:58.688Z</time></trkpt><trkpt lat="43.6666487" lon="12.6907476"><ele>584.0</ele><time>2026-03-22T10:29:59.696Z</time></trkpt><trkpt lat="43.6667107" lon="12.6909107"><ele>584.0</ele><time>2026-03-22T10:30:00.694Z</time></trkpt><trkpt lat="43.6667593" lon="12.6910673"><ele>584.0</ele><time>2026-03-22T10:30:01.686Z</time></trkpt><trkpt lat="43.6667988" lon="12.6912047"><ele>584.0</ele><time>2026-03-22T10:30:02.683Z</time></trkpt><trkpt lat="43.6668344" lon="12.6913329"><ele>584.0</ele><time>2026-03-22T10:30:03.692Z</time></trkpt><trkpt lat="43.666864" lon="12.6914519"><ele>584.0</ele><time>2026-03-22T10:30:04.691Z</time></trkpt><trkpt lat="43.6668891" lon="12.6915563"><ele>585.1666666666666</ele><time>2026-03-22T10:30:05.691Z</time></trkpt><trkpt lat="43.666852" lon="12.6916715"><ele>586.3333333333333</ele><time>2026-03-22T10:30:07.685Z</time></trkpt><trkpt lat="43.6667951" lon="12.6917243"><ele>587.5</ele><time>2026-03-22T10:30:10.685Z</time></trkpt><trkpt lat="43.666745" lon="12.691624"><ele>588.6666666666666</ele><time>2026-03-22T10:30:12.68Z</time></trkpt><trkpt lat="43.6667145" lon="12.6915464"><ele>589.8333333333334</ele><time>2026-03-22T10:30:13.687Z</time></trkpt><trkpt lat="43.6666573" lon="12.6914721"><ele>591.0</ele><time>2026-03-22T10:30:14.683Z</time></trkpt><trkpt lat="43.6666033" lon="12.691386"><ele>591.0</ele><time>2026-03-22T10:30:15.692Z</time></trkpt><trkpt lat="43.6665407" lon="12.6913116"><ele>591.0</ele><time>2026-03-22T10:30:16.687Z</time></trkpt><trkpt lat="43.666476" lon="12.6912213"><ele>591.0</ele><time>2026-03-22T10:30:17.691Z</time></trkpt><trkpt lat="43.6663909" lon="12.6911418"><ele>591.0</ele><time>2026-03-22T10:30:18.689Z</time></trkpt><trkpt lat="43.6662942" lon="12.691089"><ele>591.0</ele><time>2026-03-22T10:30:19.69Z</time></trkpt><trkpt lat="43.6661808" lon="12.6910416"><ele>593.75</ele><time>2026-03-22T10:30:20.695Z</time></trkpt><trkpt lat="43.6660531" lon="12.6909998"><ele>596.5</ele><time>2026-03-22T10:30:21.695Z</time></trkpt><trkpt lat="43.6659318" lon="12.6909524"><ele>599.25</ele><time>2026-03-22T10:30:22.698Z</time></trkpt><trkpt lat="43.6658098" lon="12.6909112"><ele>602.0</ele><time>2026-03-22T10:30:23.701Z</time></trkpt><trkpt lat="43.6656925" lon="12.6908866"><ele>602.0</ele><time>2026-03-22T10:30:24.695Z</time></trkpt><trkpt lat="43.6655789" lon="12.6908576"><ele>602.0</ele><time>2026-03-22T10:30:25.702Z</time></trkpt><trkpt lat="43.6654625" lon="12.6908341"><ele>602.0</ele><time>2026-03-22T10:30:26.715Z</time></trkpt><trkpt lat="43.6653472" lon="12.6908147"><ele>602.0</ele><time>2026-03-22T10:30:27.702Z</time></trkpt><trkpt lat="43.6652337" lon="12.6907949"><ele>605.25</ele><time>2026-03-22T10:30:28.698Z</time></trkpt><trkpt lat="43.665118" lon="12.6907831"><ele>608.5</ele><time>2026-03-22T10:30:29.701Z</time></trkpt><trkpt lat="43.665001" lon="12.6907656"><ele>611.75</ele><time>2026-03-22T10:30:30.7Z</time></trkpt><trkpt lat="43.6648846" lon="12.6907446"><ele>615.0</ele><time>2026-03-22T10:30:31.698Z</time></trkpt><trkpt lat="43.6647769" lon="12.6907252"><ele>615.0</ele><time>2026-03-22T10:30:32.697Z</time></trkpt><trkpt lat="43.6646704" lon="12.6907104"><ele>615.0</ele><time>2026-03-22T10:30:33.699Z</time></trkpt><trkpt lat="43.6645654" lon="12.6907051"><ele>615.0</ele><time>2026-03-22T10:30:34.697Z</time></trkpt><trkpt lat="43.664476" lon="12.6907185"><ele>615.0</ele><time>2026-03-22T10:30:35.699Z</time></trkpt><trkpt lat="43.6643998" lon="12.6907279"><ele>615.0</ele><time>2026-03-22T10:30:36.687Z</time></trkpt><trkpt lat="43.6642773" lon="12.6907388"><ele>618.5</ele><time>2026-03-22T10:30:38.69Z</time></trkpt><trkpt lat="43.6641481" lon="12.6907914"><ele>622.0</ele><time>2026-03-22T10:30:40.643Z</time></trkpt><trkpt lat="43.6640301" lon="12.690784"><ele>625.5</ele><time>2026-03-22T10:30:41.635Z</time></trkpt><trkpt lat="43.6638918" lon="12.6907774"><ele>629.0</ele><time>2026-03-22T10:30:42.655Z</time></trkpt><trkpt lat="43.6637545" lon="12.6907721"><ele>629.0</ele><time>2026-03-22T10:30:43.669Z</time></trkpt><trkpt lat="43.6636893" lon="12.6907626"><ele>629.0</ele><time>2026-03-22T10:30:44.691Z</time></trkpt><trkpt lat="43.6637986" lon="12.6908884"><ele>629.0</ele><time>2026-03-22T10:30:46.69Z</time></trkpt><trkpt lat="43.6639531" lon="12.6909818"><ele>629.0</ele><time>2026-03-22T10:30:47.675Z</time></trkpt><trkpt lat="43.6641332" lon="12.69111"><ele>630.0</ele><time>2026-03-22T10:30:48.673Z</time></trkpt><trkpt lat="43.6642793" lon="12.6912526"><ele>631.0</ele><time>2026-03-22T10:30:49.669Z</time></trkpt><trkpt lat="43.6644021" lon="12.6913904"><ele>632.0</ele><time>2026-03-22T10:30:50.673Z</time></trkpt><trkpt lat="43.6645076" lon="12.691534"><ele>632.0</ele><time>2026-03-22T10:30:51.684Z</time></trkpt><trkpt lat="43.6646194" lon="12.6916881"><ele>632.0</ele><time>2026-03-22T10:30:52.683Z</time></trkpt><trkpt lat="43.6647157" lon="12.691844"><ele>632.0</ele><time>2026-03-22T10:30:53.681Z</time></trkpt><trkpt lat="43.6648228" lon="12.6919942"><ele>635.5</ele><time>2026-03-22T10:30:54.68Z</time></trkpt><trkpt lat="43.6649162" lon="12.6921308"><ele>639.0</ele><time>2026-03-22T10:30:55.681Z</time></trkpt><trkpt lat="43.6649922" lon="12.6922627"><ele>642.5</ele><time>2026-03-22T10:30:56.688Z</time></trkpt><trkpt lat="43.6650511" lon="12.6923862"><ele>646.0</ele><time>2026-03-22T10:30:57.685Z</time></trkpt><trkpt lat="43.6650953" lon="12.6925068"><ele>646.0</ele><time>2026-03-22T10:30:58.685Z</time></trkpt><trkpt lat="43.6651139" lon="12.6926322"><ele>646.0</ele><time>2026-03-22T10:30:59.694Z</time></trkpt><trkpt lat="43.6651085" lon="12.6927854"><ele>646.0</ele><time>2026-03-22T10:31:00.687Z</time></trkpt><trkpt lat="43.6650882" lon="12.6929539"><ele>646.0</ele><time>2026-03-22T10:31:01.691Z</time></trkpt><trkpt lat="43.6650621" lon="12.6931252"><ele>648.5</ele><time>2026-03-22T10:31:02.692Z</time></trkpt><trkpt lat="43.665033" lon="12.6932958"><ele>651.0</ele><time>2026-03-22T10:31:03.694Z</time></trkpt><trkpt lat="43.6650025" lon="12.6934578"><ele>653.5</ele><time>2026-03-22T10:31:04.693Z</time></trkpt><trkpt lat="43.6649662" lon="12.6936197"><ele>656.0</ele><time>2026-03-22T10:31:05.691Z</time></trkpt><trkpt lat="43.6649249" lon="12.6937801"><ele>656.4</ele><time>2026-03-22T10:31:06.699Z</time></trkpt><trkpt lat="43.6648842" lon="12.6939306"><ele>656.8</ele><time>2026-03-22T10:31:07.682Z</time></trkpt><trkpt lat="43.6648445" lon="12.6940677"><ele>657.1999999999999</ele><time>2026-03-22T10:31:08.69Z</time></trkpt><trkpt lat="43.6648063" lon="12.6941946"><ele>657.5999999999999</ele><time>2026-03-22T10:31:09.7Z</time></trkpt><trkpt lat="43.6647667" lon="12.6942752"><ele>658.0</ele><time>2026-03-22T10:31:10.694Z</time></trkpt><trkpt lat="43.6646916" lon="12.6941486"><ele>658.0</ele><time>2026-03-22T10:31:13.691Z</time></trkpt><trkpt lat="43.6646463" lon="12.694021"><ele>658.0</ele><time>2026-03-22T10:31:14.69Z</time></trkpt><trkpt lat="43.6645754" lon="12.6938662"><ele>658.0</ele><time>2026-03-22T10:31:15.694Z</time></trkpt><trkpt lat="43.664492" lon="12.6937228"><ele>658.0</ele><time>2026-03-22T10:31:16.679Z</time></trkpt><trkpt lat="43.6644046" lon="12.6935887"><ele>662.0</ele><time>2026-03-22T10:31:17.687Z</time></trkpt><trkpt lat="43.6643188" lon="12.6934653"><ele>666.0</ele><time>2026-03-22T10:31:18.676Z</time></trkpt><trkpt lat="43.6642271" lon="12.6933543"><ele>670.0</ele><time>2026-03-22T10:31:19.672Z</time></trkpt><trkpt lat="43.6641278" lon="12.6932566"><ele>674.0</ele><time>2026-03-22T10:31:20.682Z</time></trkpt><trkpt lat="43.6640336" lon="12.6931553"><ele>674.0</ele><time>2026-03-22T10:31:21.674Z</time></trkpt><trkpt lat="43.6639302" lon="12.6930627"><ele>674.0</ele><time>2026-03-22T10:31:22.674Z</time></trkpt><trkpt lat="43.6638189" lon="12.6929612"><ele>674.0</ele><time>2026-03-22T10:31:23.678Z</time></trkpt><trkpt lat="43.6636899" lon="12.6928858"><ele>674.0</ele><time>2026-03-22T10:31:24.687Z</time></trkpt><trkpt lat="43.6635439" lon="12.6928502"><ele>675.0</ele><time>2026-03-22T10:31:25.682Z</time></trkpt><trkpt lat="43.6633972" lon="12.6928229"><ele>676.0</ele><time>2026-03-22T10:31:26.679Z</time></trkpt><trkpt lat="43.6632598" lon="12.6927842"><ele>677.0</ele><time>2026-03-22T10:31:27.697Z</time></trkpt><trkpt lat="43.6631294" lon="12.6927441"><ele>678.0</ele><time>2026-03-22T10:31:28.687Z</time></trkpt><trkpt lat="43.6630014" lon="12.6927058"><ele>678.0</ele><time>2026-03-22T10:31:29.689Z</time></trkpt><trkpt lat="43.6628845" lon="12.6926753"><ele>678.0</ele><time>2026-03-22T10:31:30.695Z</time></trkpt><trkpt lat="43.6627681" lon="12.6926578"><ele>678.0</ele><time>2026-03-22T10:31:31.698Z</time></trkpt><trkpt lat="43.6626639" lon="12.6926549"><ele>678.0</ele><time>2026-03-22T10:31:32.695Z</time></trkpt><trkpt lat="43.6625587" lon="12.6926733"><ele>678.0</ele><time>2026-03-22T10:31:33.687Z</time></trkpt><trkpt lat="43.6624542" lon="12.6927029"><ele>680.0</ele><time>2026-03-22T10:31:34.692Z</time></trkpt><trkpt lat="43.6623593" lon="12.692718"><ele>682.0</ele><time>2026-03-22T10:31:35.703Z</time></trkpt><trkpt lat="43.6622834" lon="12.6927266"><ele>684.0</ele><time>2026-03-22T10:31:36.691Z</time></trkpt><trkpt lat="43.662209" lon="12.692782"><ele>686.0</ele><time>2026-03-22T10:31:38.699Z</time></trkpt><trkpt lat="43.6622638" lon="12.6929133"><ele>688.0</ele><time>2026-03-22T10:31:40.707Z</time></trkpt><trkpt lat="43.662333" lon="12.6929639"><ele>690.0</ele><time>2026-03-22T10:31:41.705Z</time></trkpt><trkpt lat="43.6624223" lon="12.6930098"><ele>690.4</ele><time>2026-03-22T10:31:42.688Z</time></trkpt><trkpt lat="43.6625092" lon="12.6930669"><ele>690.8</ele><time>2026-03-22T10:31:43.688Z</time></trkpt><trkpt lat="43.6625875" lon="12.6931331"><ele>691.2</ele><time>2026-03-22T10:31:44.69Z</time></trkpt><trkpt lat="43.6626601" lon="12.6932094"><ele>691.6</ele><time>2026-03-22T10:31:45.698Z</time></trkpt><trkpt lat="43.6627304" lon="12.6932951"><ele>692.0</ele><time>2026-03-22T10:31:46.703Z</time></trkpt><trkpt lat="43.6628017" lon="12.6933942"><ele>692.0</ele><time>2026-03-22T10:31:47.695Z</time></trkpt><trkpt lat="43.6628699" lon="12.6934983"><ele>692.0</ele><time>2026-03-22T10:31:48.698Z</time></trkpt><trkpt lat="43.6629313" lon="12.6936102"><ele>692.0</ele><time>2026-03-22T10:31:49.697Z</time></trkpt><trkpt lat="43.6629849" lon="12.6937261"><ele>692.0</ele><time>2026-03-22T10:31:50.699Z</time></trkpt><trkpt lat="43.6630303" lon="12.6938428"><ele>692.0</ele><time>2026-03-22T10:31:51.692Z</time></trkpt><trkpt lat="43.6630622" lon="12.6939711"><ele>693.0</ele><time>2026-03-22T10:31:52.696Z</time></trkpt><trkpt lat="43.663085" lon="12.6940936"><ele>694.0</ele><time>2026-03-22T10:31:53.693Z</time></trkpt><trkpt lat="43.6630943" lon="12.6942085"><ele>695.0</ele><time>2026-03-22T10:31:54.699Z</time></trkpt><trkpt lat="43.6630898" lon="12.6943187"><ele>696.0</ele><time>2026-03-22T10:31:55.696Z</time></trkpt><trkpt lat="43.6630741" lon="12.6944226"><ele>697.0</ele><time>2026-03-22T10:31:56.696Z</time></trkpt><trkpt lat="43.6630342" lon="12.6945396"><ele>698.0</ele><time>2026-03-22T10:31:57.706Z</time></trkpt><trkpt lat="43.6629804" lon="12.6946731"><ele>698.25</ele><time>2026-03-22T10:31:58.698Z</time></trkpt><trkpt lat="43.6629317" lon="12.6948164"><ele>698.5</ele><time>2026-03-22T10:31:59.7Z</time></trkpt><trkpt lat="43.6628889" lon="12.694974"><ele>698.75</ele><time>2026-03-22T10:32:00.694Z</time></trkpt><trkpt lat="43.6628615" lon="12.6951295"><ele>699.0</ele><time>2026-03-22T10:32:01.688Z</time></trkpt><trkpt lat="43.6628515" lon="12.6952923"><ele>700.0</ele><time>2026-03-22T10:32:02.688Z</time></trkpt><trkpt lat="43.6628502" lon="12.6954544"><ele>701.0</ele><time>2026-03-22T10:32:03.69Z</time></trkpt><trkpt lat="43.6628591" lon="12.6956312"><ele>702.0</ele><time>2026-03-22T10:32:04.688Z</time></trkpt><trkpt lat="43.6628978" lon="12.6958319"><ele>703.0</ele><time>2026-03-22T10:32:05.692Z</time></trkpt><trkpt lat="43.6629629" lon="12.6960422"><ele>706.6666666666667</ele><time>2026-03-22T10:32:06.68Z</time></trkpt><trkpt lat="43.6630319" lon="12.6962387"><ele>710.3333333333334</ele><time>2026-03-22T10:32:07.682Z</time></trkpt><trkpt lat="43.6631051" lon="12.6964297"><ele>714.0</ele><time>2026-03-22T10:32:08.686Z</time></trkpt><trkpt lat="43.6631901" lon="12.6966136"><ele>714.0</ele><time>2026-03-22T10:32:09.693Z</time></trkpt><trkpt lat="43.6632793" lon="12.6967952"><ele>714.0</ele><time>2026-03-22T10:32:10.695Z</time></trkpt><trkpt lat="43.663352" lon="12.6969722"><ele>714.0</ele><time>2026-03-22T10:32:11.689Z</time></trkpt><trkpt lat="43.6634377" lon="12.6971698"><ele>716.3333333333334</ele><time>2026-03-22T10:32:12.69Z</time></trkpt><trkpt lat="43.6635186" lon="12.6973715"><ele>718.6666666666667</ele><time>2026-03-22T10:32:13.685Z</time></trkpt><trkpt lat="43.663598" lon="12.6975515"><ele>721.0</ele><time>2026-03-22T10:32:14.69Z</time></trkpt><trkpt lat="43.6636681" lon="12.6977172"><ele>715.75</ele><time>2026-03-22T10:32:15.692Z</time></trkpt><trkpt lat="43.6637234" lon="12.6978849"><ele>710.5</ele><time>2026-03-22T10:32:16.693Z</time></trkpt><trkpt lat="43.6637694" lon="12.6980569"><ele>705.25</ele><time>2026-03-22T10:32:17.689Z</time></trkpt><trkpt lat="43.6638048" lon="12.6982038"><ele>700.0</ele><time>2026-03-22T10:32:18.687Z</time></trkpt><trkpt lat="43.6638264" lon="12.6983182"><ele>700.0</ele><time>2026-03-22T10:32:19.699Z</time></trkpt><trkpt lat="43.6638168" lon="12.6984401"><ele>700.0</ele><time>2026-03-22T10:32:21.703Z</time></trkpt><trkpt lat="43.6637533" lon="12.6984316"><ele>700.0</ele><time>2026-03-22T10:32:24.689Z</time></trkpt><trkpt lat="43.6637052" lon="12.6983353"><ele>700.0</ele><time>2026-03-22T10:32:26.689Z</time></trkpt><trkpt lat="43.663672" lon="12.6982505"><ele>700.0</ele><time>2026-03-22T10:32:27.69Z</time></trkpt><trkpt lat="43.663624" lon="12.6981432"><ele>700.0</ele><time>2026-03-22T10:32:28.694Z</time></trkpt><trkpt lat="43.6635615" lon="12.6980223"><ele>705.25</ele><time>2026-03-22T10:32:29.692Z</time></trkpt><trkpt lat="43.6634765" lon="12.6978879"><ele>710.5</ele><time>2026-03-22T10:32:30.702Z</time></trkpt><trkpt lat="43.6633683" lon="12.6977346"><ele>715.75</ele><time>2026-03-22T10:32:31.694Z</time></trkpt><trkpt lat="43.6632567" lon="12.6975868"><ele>721.0</ele><time>2026-03-22T10:32:32.697Z</time></trkpt><trkpt lat="43.6631456" lon="12.6974466"><ele>721.0</ele><time>2026-03-22T10:32:33.698Z</time></trkpt><trkpt lat="43.6630347" lon="12.6973147"><ele>721.0</ele><time>2026-03-22T10:32:34.7Z</time></trkpt><trkpt lat="43.6629172" lon="12.6971976"><ele>721.0</ele><time>2026-03-22T10:32:35.703Z</time></trkpt><trkpt lat="43.6627914" lon="12.6970965"><ele>721.0</ele><time>2026-03-22T10:32:36.692Z</time></trkpt><trkpt lat="43.6626501" lon="12.6970086"><ele>723.75</ele><time>2026-03-22T10:32:37.696Z</time></trkpt><trkpt lat="43.6624931" lon="12.6969359"><ele>726.5</ele><time>2026-03-22T10:32:38.7Z</time></trkpt><trkpt lat="43.6623474" lon="12.6968826"><ele>729.25</ele><time>2026-03-22T10:32:39.708Z</time></trkpt><trkpt lat="43.6622438" lon="12.6968422"><ele>732.0</ele><time>2026-03-22T10:32:40.696Z</time></trkpt><trkpt lat="43.662146" lon="12.6968054"><ele>732.0</ele><time>2026-03-22T10:32:41.704Z</time></trkpt><trkpt lat="43.6620256" lon="12.6968055"><ele>732.0</ele><time>2026-03-22T10:32:42.686Z</time></trkpt><trkpt lat="43.6618826" lon="12.6968186"><ele>732.0</ele><time>2026-03-22T10:32:43.679Z</time></trkpt><trkpt lat="43.6617423" lon="12.696833"><ele>732.0</ele><time>2026-03-22T10:32:44.674Z</time></trkpt><trkpt lat="43.6615937" lon="12.6968585"><ele>734.25</ele><time>2026-03-22T10:32:45.682Z</time></trkpt><trkpt lat="43.6614557" lon="12.6968803"><ele>736.5</ele><time>2026-03-22T10:32:46.681Z</time></trkpt><trkpt lat="43.6613103" lon="12.696909"><ele>738.75</ele><time>2026-03-22T10:32:47.676Z</time></trkpt><trkpt lat="43.6611584" lon="12.6969167"><ele>741.0</ele><time>2026-03-22T10:32:48.665Z</time></trkpt><trkpt lat="43.6609849" lon="12.6969029"><ele>744.0</ele><time>2026-03-22T10:32:49.665Z</time></trkpt><trkpt lat="43.6608105" lon="12.6968763"><ele>747.0</ele><time>2026-03-22T10:32:50.662Z</time></trkpt><trkpt lat="43.660653" lon="12.6968467"><ele>750.0</ele><time>2026-03-22T10:32:51.671Z</time></trkpt><trkpt lat="43.6605033" lon="12.6968022"><ele>750.0</ele><time>2026-03-22T10:32:52.663Z</time></trkpt><trkpt lat="43.6603458" lon="12.6967466"><ele>750.0</ele><time>2026-03-22T10:32:53.66Z</time></trkpt><trkpt lat="43.660185" lon="12.6967077"><ele>750.0</ele><time>2026-03-22T10:32:54.658Z</time></trkpt><trkpt lat="43.6600258" lon="12.6966563"><ele>752.0</ele><time>2026-03-22T10:32:55.645Z</time></trkpt><trkpt lat="43.6598717" lon="12.6965916"><ele>754.0</ele><time>2026-03-22T10:32:56.639Z</time></trkpt><trkpt lat="43.6597191" lon="12.6964978"><ele>756.0</ele><time>2026-03-22T10:32:57.642Z</time></trkpt><trkpt lat="43.6595351" lon="12.6964127"><ele>752.25</ele><time>2026-03-22T10:32:58.648Z</time></trkpt><trkpt lat="43.6593838" lon="12.6963386"><ele>748.5</ele><time>2026-03-22T10:32:59.647Z</time></trkpt><trkpt lat="43.6592505" lon="12.6962322"><ele>744.75</ele><time>2026-03-22T10:33:00.659Z</time></trkpt><trkpt lat="43.6591513" lon="12.6961514"><ele>741.0</ele><time>2026-03-22T10:33:01.66Z</time></trkpt><trkpt lat="43.6590688" lon="12.6961017"><ele>741.0</ele><time>2026-03-22T10:33:02.651Z</time></trkpt><trkpt lat="43.6589877" lon="12.6960563"><ele>741.0</ele><time>2026-03-22T10:33:03.653Z</time></trkpt><trkpt lat="43.6589136" lon="12.6960091"><ele>741.0</ele><time>2026-03-22T10:33:04.652Z</time></trkpt><trkpt lat="43.658808" lon="12.6960215"><ele>741.0</ele><time>2026-03-22T10:33:05.65Z</time></trkpt><trkpt lat="43.6587254" lon="12.6960837"><ele>741.0</ele><time>2026-03-22T10:33:06.657Z</time></trkpt><trkpt lat="43.6586297" lon="12.6961163"><ele>740.6666666666666</ele><time>2026-03-22T10:33:07.663Z</time></trkpt><trkpt lat="43.6584432" lon="12.6960438"><ele>740.3333333333333</ele><time>2026-03-22T10:33:08.655Z</time></trkpt><trkpt lat="43.6582315" lon="12.6959956"><ele>740.0</ele><time>2026-03-22T10:33:09.651Z</time></trkpt><trkpt lat="43.658004" lon="12.6959865"><ele>740.0</ele><time>2026-03-22T10:33:10.644Z</time></trkpt><trkpt lat="43.6578521" lon="12.6960125"><ele>740.0</ele><time>2026-03-22T10:33:11.644Z</time></trkpt><trkpt lat="43.657791" lon="12.6961141"><ele>740.0</ele><time>2026-03-22T10:33:12.658Z</time></trkpt><trkpt lat="43.6577834" lon="12.6962839"><ele>740.0</ele><time>2026-03-22T10:33:13.654Z</time></trkpt><trkpt lat="43.6577783" lon="12.6964943"><ele>734.0</ele><time>2026-03-22T10:33:14.658Z</time></trkpt><trkpt lat="43.6578006" lon="12.6967231"><ele>728.0</ele><time>2026-03-22T10:33:15.648Z</time></trkpt><trkpt lat="43.6579197" lon="12.6969372"><ele>722.0</ele><time>2026-03-22T10:33:16.651Z</time></trkpt><trkpt lat="43.6581159" lon="12.6971686"><ele>722.0</ele><time>2026-03-22T10:33:17.704Z</time></trkpt><trkpt lat="43.6584165" lon="12.6974133"><ele>722.0</ele><time>2026-03-22T10:33:18.75Z</time></trkpt><trkpt lat="43.6589205" lon="12.6976606"><ele>741.0</ele><time>2026-03-22T10:33:19.709Z</time></trkpt><trkpt lat="43.6593279" lon="12.6978881"><ele>760.0</ele><time>2026-03-22T10:33:20.673Z</time></trkpt><trkpt lat="43.6596967" lon="12.6981059"><ele>763.0</ele><time>2026-03-22T10:33:21.677Z</time></trkpt><trkpt lat="43.6600122" lon="12.698318"><ele>766.0</ele><time>2026-03-22T10:33:22.669Z</time></trkpt><trkpt lat="43.6602052" lon="12.6985048"><ele>769.5</ele><time>2026-03-22T10:33:23.665Z</time></trkpt><trkpt lat="43.6603479" lon="12.6986541"><ele>773.0</ele><time>2026-03-22T10:33:24.666Z</time></trkpt><trkpt lat="43.6604174" lon="12.6988097"><ele>776.5</ele><time>2026-03-22T10:33:25.668Z</time></trkpt><trkpt lat="43.6604634" lon="12.6989578"><ele>780.0</ele><time>2026-03-22T10:33:26.666Z</time></trkpt><trkpt lat="43.6605243" lon="12.6990758"><ele>780.0</ele><time>2026-03-22T10:33:27.669Z</time></trkpt><trkpt lat="43.6606081" lon="12.6991664"><ele>780.0</ele><time>2026-03-22T10:33:28.679Z</time></trkpt><trkpt lat="43.6607878" lon="12.699242"><ele>780.0</ele><time>2026-03-22T10:33:29.691Z</time></trkpt><trkpt lat="43.6609908" lon="12.6993551"><ele>781.5</ele><time>2026-03-22T10:33:30.682Z</time></trkpt><trkpt lat="43.6612154" lon="12.6994876"><ele>783.0</ele><time>2026-03-22T10:33:31.684Z</time></trkpt><trkpt lat="43.6614575" lon="12.6996233"><ele>783.0</ele><time>2026-03-22T10:33:32.69Z</time></trkpt><trkpt lat="43.6616998" lon="12.6997857"><ele>783.0</ele><time>2026-03-22T10:33:33.688Z</time></trkpt><trkpt lat="43.6619581" lon="12.6999891"><ele>780.0</ele><time>2026-03-22T10:33:34.687Z</time></trkpt><trkpt lat="43.6621765" lon="12.7002143"><ele>777.0</ele><time>2026-03-22T10:33:35.698Z</time></trkpt><trkpt lat="43.6623601" lon="12.7004521"><ele>777.0</ele><time>2026-03-22T10:33:36.69Z</time></trkpt><trkpt lat="43.6625263" lon="12.7006759"><ele>777.0</ele><time>2026-03-22T10:33:37.696Z</time></trkpt><trkpt lat="43.6627031" lon="12.7009337"><ele>772.3333333333334</ele><time>2026-03-22T10:33:38.682Z</time></trkpt><trkpt lat="43.6628379" lon="12.7011834"><ele>767.6666666666667</ele><time>2026-03-22T10:33:39.682Z</time></trkpt><trkpt lat="43.6629252" lon="12.7013971"><ele>763.0</ele><time>2026-03-22T10:33:40.691Z</time></trkpt><trkpt lat="43.6629791" lon="12.7015755"><ele>763.0</ele><time>2026-03-22T10:33:41.687Z</time></trkpt><trkpt lat="43.6630154" lon="12.701761"><ele>763.0</ele><time>2026-03-22T10:33:42.689Z</time></trkpt><trkpt lat="43.6630124" lon="12.7019499"><ele>763.0</ele><time>2026-03-22T10:33:43.69Z</time></trkpt><trkpt lat="43.6629877" lon="12.7021312"><ele>763.0</ele><time>2026-03-22T10:33:44.686Z</time></trkpt><trkpt lat="43.6629518" lon="12.7022812"><ele>762.3333333333334</ele><time>2026-03-22T10:33:45.691Z</time></trkpt><trkpt lat="43.6629115" lon="12.7023955"><ele>761.6666666666667</ele><time>2026-03-22T10:33:46.687Z</time></trkpt><trkpt lat="43.6628742" lon="12.7024886"><ele>761.0</ele><time>2026-03-22T10:33:47.689Z</time></trkpt><trkpt lat="43.6628151" lon="12.7026441"><ele>760.3333333333334</ele><time>2026-03-22T10:33:49.694Z</time></trkpt><trkpt lat="43.6627848" lon="12.7027328"><ele>759.6666666666666</ele><time>2026-03-22T10:33:50.694Z</time></trkpt><trkpt lat="43.6627457" lon="12.7028248"><ele>759.0</ele><time>2026-03-22T10:33:51.698Z</time></trkpt><trkpt lat="43.662695" lon="12.7029113"><ele>761.6</ele><time>2026-03-22T10:33:52.696Z</time></trkpt><trkpt lat="43.6626393" lon="12.7030015"><ele>764.2</ele><time>2026-03-22T10:33:53.692Z</time></trkpt><trkpt lat="43.6625819" lon="12.7031096"><ele>766.8000000000001</ele><time>2026-03-22T10:33:54.704Z</time></trkpt><trkpt lat="43.662525" lon="12.70324"><ele>769.4000000000001</ele><time>2026-03-22T10:33:55.691Z</time></trkpt><trkpt lat="43.6624764" lon="12.703374"><ele>772.0</ele><time>2026-03-22T10:33:56.695Z</time></trkpt><trkpt lat="43.662431" lon="12.7034956"><ele>771.0</ele><time>2026-03-22T10:33:57.695Z</time></trkpt><trkpt lat="43.6623942" lon="12.7036254"><ele>770.0</ele><time>2026-03-22T10:33:58.691Z</time></trkpt><trkpt lat="43.6623688" lon="12.7037679"><ele>769.0</ele><time>2026-03-22T10:33:59.704Z</time></trkpt><trkpt lat="43.6623575" lon="12.7039267"><ele>768.0</ele><time>2026-03-22T10:34:00.705Z</time></trkpt><trkpt lat="43.6623689" lon="12.7041041"><ele>768.0</ele><time>2026-03-22T10:34:01.698Z</time></trkpt><trkpt lat="43.6623968" lon="12.7042935"><ele>768.0</ele><time>2026-03-22T10:34:02.686Z</time></trkpt><trkpt lat="43.6624349" lon="12.7044843"><ele>768.0</ele><time>2026-03-22T10:34:03.682Z</time></trkpt><trkpt lat="43.662483" lon="12.7046787"><ele>768.0</ele><time>2026-03-22T10:34:04.684Z</time></trkpt><trkpt lat="43.662541" lon="12.7048646"><ele>768.5</ele><time>2026-03-22T10:34:05.685Z</time></trkpt><trkpt lat="43.6625965" lon="12.7050549"><ele>769.0</ele><time>2026-03-22T10:34:06.671Z</time></trkpt><trkpt lat="43.6626466" lon="12.7052504"><ele>769.5</ele><time>2026-03-22T10:34:07.68Z</time></trkpt><trkpt lat="43.6626832" lon="12.705434"><ele>770.0</ele><time>2026-03-22T10:34:08.672Z</time></trkpt><trkpt lat="43.662696" lon="12.7056185"><ele>769.0</ele><time>2026-03-22T10:34:09.674Z</time></trkpt><trkpt lat="43.6627128" lon="12.7058001"><ele>768.0</ele><time>2026-03-22T10:34:10.672Z</time></trkpt><trkpt lat="43.6627166" lon="12.7059754"><ele>767.0</ele><time>2026-03-22T10:34:11.672Z</time></trkpt><trkpt lat="43.6626864" lon="12.7061519"><ele>766.0</ele><time>2026-03-22T10:34:12.676Z</time></trkpt><trkpt lat="43.6626434" lon="12.7063438"><ele>764.25</ele><time>2026-03-22T10:34:13.685Z</time></trkpt><trkpt lat="43.6626012" lon="12.7065132"><ele>762.5</ele><time>2026-03-22T10:34:14.673Z</time></trkpt><trkpt lat="43.6625531" lon="12.7066651"><ele>760.75</ele><time>2026-03-22T10:34:15.679Z</time></trkpt><trkpt lat="43.6625079" lon="12.7068154"><ele>759.0</ele><time>2026-03-22T10:34:16.679Z</time></trkpt><trkpt lat="43.6624462" lon="12.706959"><ele>757.4000000000001</ele><time>2026-03-22T10:34:17.683Z</time></trkpt><trkpt lat="43.6623872" lon="12.7070818"><ele>755.8</ele><time>2026-03-22T10:34:18.672Z</time></trkpt><trkpt lat="43.6623357" lon="12.7072122"><ele>754.2</ele><time>2026-03-22T10:34:19.674Z</time></trkpt><trkpt lat="43.6622875" lon="12.7073374"><ele>752.5999999999999</ele><time>2026-03-22T10:34:20.67Z</time></trkpt><trkpt lat="43.6622417" lon="12.7074545"><ele>751.0</ele><time>2026-03-22T10:34:21.671Z</time></trkpt><trkpt lat="43.6622043" lon="12.7075848"><ele>750.0</ele><time>2026-03-22T10:34:22.679Z</time></trkpt><trkpt lat="43.662184" lon="12.7077471"><ele>749.0</ele><time>2026-03-22T10:34:23.677Z</time></trkpt><trkpt lat="43.6621622" lon="12.7079173"><ele>748.0</ele><time>2026-03-22T10:34:24.68Z</time></trkpt><trkpt lat="43.6621421" lon="12.7080939"><ele>747.0</ele><time>2026-03-22T10:34:25.689Z</time></trkpt><trkpt lat="43.6621161" lon="12.7082632"><ele>747.0</ele><time>2026-03-22T10:34:26.678Z</time></trkpt><trkpt lat="43.6620817" lon="12.7084352"><ele>747.0</ele><time>2026-03-22T10:34:27.673Z</time></trkpt><trkpt lat="43.6620436" lon="12.7086027"><ele>747.0</ele><time>2026-03-22T10:34:28.675Z</time></trkpt><trkpt lat="43.6619926" lon="12.7087488"><ele>747.0</ele><time>2026-03-22T10:34:29.681Z</time></trkpt><trkpt lat="43.6619442" lon="12.7088725"><ele>752.0</ele><time>2026-03-22T10:34:30.663Z</time></trkpt><trkpt lat="43.6618986" lon="12.7089928"><ele>757.0</ele><time>2026-03-22T10:34:31.686Z</time></trkpt><trkpt lat="43.6618366" lon="12.7091088"><ele>762.0</ele><time>2026-03-22T10:34:32.682Z</time></trkpt><trkpt lat="43.6617444" lon="12.7091853"><ele>767.0</ele><time>2026-03-22T10:34:33.666Z</time></trkpt><trkpt lat="43.6616714" lon="12.7092565"><ele>772.0</ele><time>2026-03-22T10:34:34.679Z</time></trkpt><trkpt lat="43.6616238" lon="12.7093818"><ele>772.6</ele><time>2026-03-22T10:34:36.667Z</time></trkpt><trkpt lat="43.661705" lon="12.7094573"><ele>773.2</ele><time>2026-03-22T10:34:38.676Z</time></trkpt><trkpt lat="43.6617802" lon="12.7094573"><ele>773.8</ele><time>2026-03-22T10:34:39.676Z</time></trkpt><trkpt lat="43.6618663" lon="12.7094574"><ele>774.4</ele><time>2026-03-22T10:34:40.675Z</time></trkpt><trkpt lat="43.6619672" lon="12.7094681"><ele>775.0</ele><time>2026-03-22T10:34:41.675Z</time></trkpt><trkpt lat="43.6621124" lon="12.7094918"><ele>768.75</ele><time>2026-03-22T10:34:42.68Z</time></trkpt><trkpt lat="43.6622592" lon="12.7095369"><ele>762.5</ele><time>2026-03-22T10:34:43.681Z</time></trkpt><trkpt lat="43.6623684" lon="12.7095931"><ele>756.25</ele><time>2026-03-22T10:34:44.686Z</time></trkpt><trkpt lat="43.6624584" lon="12.7096454"><ele>750.0</ele><time>2026-03-22T10:34:45.687Z</time></trkpt><trkpt lat="43.662532" lon="12.7097283"><ele>750.0</ele><time>2026-03-22T10:34:46.679Z</time></trkpt><trkpt lat="43.6626003" lon="12.7098373"><ele>750.0</ele><time>2026-03-22T10:34:47.675Z</time></trkpt><trkpt lat="43.6626458" lon="12.7099579"><ele>750.0</ele><time>2026-03-22T10:34:48.685Z</time></trkpt><trkpt lat="43.6626832" lon="12.710088"><ele>750.0</ele><time>2026-03-22T10:34:49.685Z</time></trkpt><trkpt lat="43.6627278" lon="12.7102112"><ele>750.0</ele><time>2026-03-22T10:34:50.674Z</time></trkpt><trkpt lat="43.6627611" lon="12.7103267"><ele>751.0</ele><time>2026-03-22T10:34:51.681Z</time></trkpt><trkpt lat="43.6627785" lon="12.7104316"><ele>752.0</ele><time>2026-03-22T10:34:52.681Z</time></trkpt><trkpt lat="43.6627696" lon="12.7105904"><ele>753.0</ele><time>2026-03-22T10:34:54.675Z</time></trkpt><trkpt lat="43.6627083" lon="12.7106772"><ele>754.0</ele><time>2026-03-22T10:34:56.666Z</time></trkpt><trkpt lat="43.6626306" lon="12.7107598"><ele>755.0</ele><time>2026-03-22T10:34:58.668Z</time></trkpt><trkpt lat="43.6625647" lon="12.7108601"><ele>755.0</ele><time>2026-03-22T10:35:00.674Z</time></trkpt><trkpt lat="43.6625757" lon="12.7109848"><ele>755.0</ele><time>2026-03-22T10:35:04.682Z</time></trkpt><trkpt lat="43.6626427" lon="12.7110641"><ele>755.0</ele><time>2026-03-22T10:35:05.683Z</time></trkpt><trkpt lat="43.6627427" lon="12.7111576"><ele>755.0</ele><time>2026-03-22T10:35:06.676Z</time></trkpt><trkpt lat="43.6628574" lon="12.7112609"><ele>755.0</ele><time>2026-03-22T10:35:07.678Z</time></trkpt><trkpt lat="43.6629806" lon="12.7113805"><ele>749.6666666666666</ele><time>2026-03-22T10:35:08.687Z</time></trkpt><trkpt lat="43.6631026" lon="12.7115263"><ele>744.3333333333334</ele><time>2026-03-22T10:35:09.686Z</time></trkpt><trkpt lat="43.6632444" lon="12.7116811"><ele>739.0</ele><time>2026-03-22T10:35:10.68Z</time></trkpt><trkpt lat="43.6633874" lon="12.7118159"><ele>740.3333333333334</ele><time>2026-03-22T10:35:11.677Z</time></trkpt><trkpt lat="43.6635303" lon="12.7119367"><ele>741.6666666666666</ele><time>2026-03-22T10:35:12.679Z</time></trkpt><trkpt lat="43.663665" lon="12.7120535"><ele>743.0</ele><time>2026-03-22T10:35:13.681Z</time></trkpt><trkpt lat="43.6637926" lon="12.712175"><ele>737.25</ele><time>2026-03-22T10:35:14.696Z</time></trkpt><trkpt lat="43.6638799" lon="12.7123145"><ele>731.5</ele><time>2026-03-22T10:35:15.684Z</time></trkpt><trkpt lat="43.6639486" lon="12.7124662"><ele>725.75</ele><time>2026-03-22T10:35:16.688Z</time></trkpt><trkpt lat="43.6640232" lon="12.7126031"><ele>720.0</ele><time>2026-03-22T10:35:17.687Z</time></trkpt><trkpt lat="43.6641009" lon="12.7127376"><ele>718.4</ele><time>2026-03-22T10:35:18.687Z</time></trkpt><trkpt lat="43.664186" lon="12.7128533"><ele>716.8</ele><time>2026-03-22T10:35:19.696Z</time></trkpt><trkpt lat="43.6642663" lon="12.7129692"><ele>715.2</ele><time>2026-03-22T10:35:20.693Z</time></trkpt><trkpt lat="43.6643211" lon="12.7130814"><ele>713.6</ele><time>2026-03-22T10:35:21.697Z</time></trkpt><trkpt lat="43.6643411" lon="12.7132036"><ele>712.0</ele><time>2026-03-22T10:35:22.695Z</time></trkpt><trkpt lat="43.6643283" lon="12.7133364"><ele>712.0</ele><time>2026-03-22T10:35:23.685Z</time></trkpt><trkpt lat="43.6642876" lon="12.7134816"><ele>712.0</ele><time>2026-03-22T10:35:24.687Z</time></trkpt><trkpt lat="43.6642204" lon="12.7136126"><ele>712.0</ele><time>2026-03-22T10:35:25.681Z</time></trkpt><trkpt lat="43.6641314" lon="12.7137547"><ele>712.0</ele><time>2026-03-22T10:35:26.682Z</time></trkpt><trkpt lat="43.664046" lon="12.7138971"><ele>708.6</ele><time>2026-03-22T10:35:27.685Z</time></trkpt><trkpt lat="43.663958" lon="12.7140262"><ele>705.2</ele><time>2026-03-22T10:35:28.68Z</time></trkpt><trkpt lat="43.6638743" lon="12.7141418"><ele>701.8</ele><time>2026-03-22T10:35:29.681Z</time></trkpt><trkpt lat="43.6638089" lon="12.7142472"><ele>698.4</ele><time>2026-03-22T10:35:30.673Z</time></trkpt><trkpt lat="43.6637561" lon="12.7143543"><ele>695.0</ele><time>2026-03-22T10:35:31.683Z</time></trkpt><trkpt lat="43.6637193" lon="12.7144776"><ele>692.4</ele><time>2026-03-22T10:35:32.691Z</time></trkpt><trkpt lat="43.6636944" lon="12.7146169"><ele>689.8</ele><time>2026-03-22T10:35:33.677Z</time></trkpt><trkpt lat="43.6636686" lon="12.7147517"><ele>687.2</ele><time>2026-03-22T10:35:34.684Z</time></trkpt><trkpt lat="43.6636179" lon="12.7148619"><ele>684.6</ele><time>2026-03-22T10:35:35.682Z</time></trkpt><trkpt lat="43.6635627" lon="12.7149637"><ele>682.0</ele><time>2026-03-22T10:35:36.675Z</time></trkpt><trkpt lat="43.6635255" lon="12.715056"><ele>682.0</ele><time>2026-03-22T10:35:37.679Z</time></trkpt><trkpt lat="43.6635252" lon="12.7151662"><ele>682.0</ele><time>2026-03-22T10:35:39.671Z</time></trkpt><trkpt lat="43.6635825" lon="12.7152443"><ele>682.0</ele><time>2026-03-22T10:35:41.679Z</time></trkpt><trkpt lat="43.6636782" lon="12.7150903"><ele>682.0</ele><time>2026-03-22T10:35:43.676Z</time></trkpt><trkpt lat="43.6637484" lon="12.7149628"><ele>682.0</ele><time>2026-03-22T10:35:44.677Z</time></trkpt><trkpt lat="43.6638463" lon="12.7148314"><ele>682.0</ele><time>2026-03-22T10:35:45.688Z</time></trkpt><trkpt lat="43.6639467" lon="12.7147206"><ele>682.0</ele><time>2026-03-22T10:35:46.687Z</time></trkpt><trkpt lat="43.6640437" lon="12.7146324"><ele>682.0</ele><time>2026-03-22T10:35:47.692Z</time></trkpt><trkpt lat="43.6641332" lon="12.7145846"><ele>682.0</ele><time>2026-03-22T10:35:48.692Z</time></trkpt><trkpt lat="43.6642171" lon="12.714601"><ele>682.0</ele><time>2026-03-22T10:35:49.684Z</time></trkpt><trkpt lat="43.6643195" lon="12.7146648"><ele>682.0</ele><time>2026-03-22T10:35:51.681Z</time></trkpt><trkpt lat="43.6643705" lon="12.7147723"><ele>682.0</ele><time>2026-03-22T10:35:53.683Z</time></trkpt><trkpt lat="43.6643512" lon="12.714858"><ele>682.0</ele><time>2026-03-22T10:35:54.691Z</time></trkpt><trkpt lat="43.6643131" lon="12.7149429"><ele>682.0</ele><time>2026-03-22T10:35:55.681Z</time></trkpt><trkpt lat="43.6642562" lon="12.7150176"><ele>682.0</ele><time>2026-03-22T10:35:56.677Z</time></trkpt><trkpt lat="43.6641999" lon="12.7150833"><ele>682.0</ele><time>2026-03-22T10:35:57.672Z</time></trkpt><trkpt lat="43.6641198" lon="12.7152004"><ele>682.0</ele><time>2026-03-22T10:35:59.679Z</time></trkpt><trkpt lat="43.6641898" lon="12.7150008"><ele>682.0</ele><time>2026-03-22T10:36:03.687Z</time></trkpt><trkpt lat="43.6642757" lon="12.7148461"><ele>682.0</ele><time>2026-03-22T10:36:04.678Z</time></trkpt><trkpt lat="43.6643487" lon="12.7146861"><ele>682.0</ele><time>2026-03-22T10:36:05.693Z</time></trkpt><trkpt lat="43.6644012" lon="12.7145415"><ele>682.0</ele><time>2026-03-22T10:36:06.687Z</time></trkpt><trkpt lat="43.6644287" lon="12.7144097"><ele>682.0</ele><time>2026-03-22T10:36:07.685Z</time></trkpt><trkpt lat="43.6644479" lon="12.7143046"><ele>682.0</ele><time>2026-03-22T10:36:08.691Z</time></trkpt><trkpt lat="43.6644625" lon="12.7142192"><ele>682.0</ele><time>2026-03-22T10:36:09.689Z</time></trkpt><trkpt lat="43.6644932" lon="12.7141428"><ele>682.0</ele><time>2026-03-22T10:36:10.697Z</time></trkpt><trkpt lat="43.6646023" lon="12.7140997"><ele>682.0</ele><time>2026-03-22T10:36:12.686Z</time></trkpt><trkpt lat="43.6647082" lon="12.7142125"><ele>679.5</ele><time>2026-03-22T10:36:14.684Z</time></trkpt><trkpt lat="43.6647531" lon="12.7143153"><ele>677.0</ele><time>2026-03-22T10:36:15.676Z</time></trkpt><trkpt lat="43.664796" lon="12.7143989"><ele>674.5</ele><time>2026-03-22T10:36:16.684Z</time></trkpt><trkpt lat="43.6648436" lon="12.7144808"><ele>672.0</ele><time>2026-03-22T10:36:17.667Z</time></trkpt><trkpt lat="43.6648855" lon="12.7145598"><ele>669.5</ele><time>2026-03-22T10:36:18.676Z</time></trkpt><trkpt lat="43.664945" lon="12.7146644"><ele>667.0</ele><time>2026-03-22T10:36:20.654Z</time></trkpt><trkpt lat="43.6649992" lon="12.7148"><ele>664.5</ele><time>2026-03-22T10:36:22.64Z</time></trkpt><trkpt lat="43.6650496" lon="12.7149525"><ele>662.0</ele><time>2026-03-22T10:36:24.649Z</time></trkpt><trkpt lat="43.6649543" lon="12.7151181"><ele>659.5</ele><time>2026-03-22T10:36:26.656Z</time></trkpt><trkpt lat="43.6648503" lon="12.715189"><ele>657.0</ele><time>2026-03-22T10:36:27.659Z</time></trkpt><trkpt lat="43.6647054" lon="12.7153134"><ele>653.6666666666666</ele><time>2026-03-22T10:36:28.667Z</time></trkpt><trkpt lat="43.6645552" lon="12.7154394"><ele>650.3333333333333</ele><time>2026-03-22T10:36:29.67Z</time></trkpt><trkpt lat="43.6644199" lon="12.7155873"><ele>647.0</ele><time>2026-03-22T10:36:30.661Z</time></trkpt><trkpt lat="43.664316" lon="12.7157606"><ele>649.5</ele><time>2026-03-22T10:36:31.659Z</time></trkpt><trkpt lat="43.6642428" lon="12.7159397"><ele>652.0</ele><time>2026-03-22T10:36:32.665Z</time></trkpt><trkpt lat="43.664199" lon="12.7160778"><ele>654.5</ele><time>2026-03-22T10:36:33.647Z</time></trkpt><trkpt lat="43.6641681" lon="12.7162362"><ele>657.0</ele><time>2026-03-22T10:36:34.657Z</time></trkpt><trkpt lat="43.6641822" lon="12.7164323"><ele>657.0</ele><time>2026-03-22T10:36:35.67Z</time></trkpt><trkpt lat="43.6641691" lon="12.7166616"><ele>657.0</ele><time>2026-03-22T10:36:36.676Z</time></trkpt><trkpt lat="43.6641589" lon="12.716884"><ele>657.0</ele><time>2026-03-22T10:36:37.672Z</time></trkpt><trkpt lat="43.6641264" lon="12.7170559"><ele>656.2</ele><time>2026-03-22T10:36:38.664Z</time></trkpt><trkpt lat="43.6640996" lon="12.7171834"><ele>655.4000000000001</ele><time>2026-03-22T10:36:39.669Z</time></trkpt><trkpt lat="43.6640728" lon="12.7172741"><ele>654.5999999999999</ele><time>2026-03-22T10:36:40.661Z</time></trkpt><trkpt lat="43.6639804" lon="12.7173038"><ele>653.8</ele><time>2026-03-22T10:36:42.664Z</time></trkpt><trkpt lat="43.6638822" lon="12.7173143"><ele>653.0</ele><time>2026-03-22T10:36:43.652Z</time></trkpt><trkpt lat="43.6637321" lon="12.7173624"><ele>656.25</ele><time>2026-03-22T10:36:44.669Z</time></trkpt><trkpt lat="43.6635834" lon="12.7174424"><ele>659.5</ele><time>2026-03-22T10:36:45.675Z</time></trkpt><trkpt lat="43.6634627" lon="12.7175226"><ele>662.75</ele><time>2026-03-22T10:36:46.679Z</time></trkpt><trkpt lat="43.6633724" lon="12.7176556"><ele>666.0</ele><time>2026-03-22T10:36:47.681Z</time></trkpt><trkpt lat="43.6633232" lon="12.7178118"><ele>666.0</ele><time>2026-03-22T10:36:48.664Z</time></trkpt><trkpt lat="43.6633026" lon="12.7179956"><ele>666.0</ele><time>2026-03-22T10:36:49.683Z</time></trkpt><trkpt lat="43.6632802" lon="12.7181976"><ele>666.0</ele><time>2026-03-22T10:36:50.666Z</time></trkpt><trkpt lat="43.663256" lon="12.7183988"><ele>666.0</ele><time>2026-03-22T10:36:51.665Z</time></trkpt><trkpt lat="43.6632309" lon="12.7186274"><ele>663.5</ele><time>2026-03-22T10:36:52.678Z</time></trkpt><trkpt lat="43.6632128" lon="12.7187773"><ele>661.0</ele><time>2026-03-22T10:36:53.683Z</time></trkpt><trkpt lat="43.6631386" lon="12.7189296"><ele>658.5</ele><time>2026-03-22T10:36:54.67Z</time></trkpt><trkpt lat="43.6630695" lon="12.7191266"><ele>656.0</ele><time>2026-03-22T10:36:55.665Z</time></trkpt><trkpt lat="43.6630027" lon="12.7192783"><ele>656.0</ele><time>2026-03-22T10:36:56.658Z</time></trkpt><trkpt lat="43.6629317" lon="12.7194003"><ele>656.0</ele><time>2026-03-22T10:36:57.654Z</time></trkpt><trkpt lat="43.6628013" lon="12.7196262"><ele>656.0</ele><time>2026-03-22T10:36:58.67Z</time></trkpt><trkpt lat="43.6627305" lon="12.7197335"><ele>656.0</ele><time>2026-03-22T10:36:59.671Z</time></trkpt><trkpt lat="43.6626321" lon="12.7199346"><ele>660.5999999999999</ele><time>2026-03-22T10:37:00.663Z</time></trkpt><trkpt lat="43.6625395" lon="12.7200466"><ele>665.2</ele><time>2026-03-22T10:37:01.674Z</time></trkpt><trkpt lat="43.6624474" lon="12.7201403"><ele>669.8</ele><time>2026-03-22T10:37:02.67Z</time></trkpt><trkpt lat="43.6623537" lon="12.7202183"><ele>674.4000000000001</ele><time>2026-03-22T10:37:03.666Z</time></trkpt><trkpt lat="43.6622662" lon="12.7202797"><ele>679.0</ele><time>2026-03-22T10:37:04.659Z</time></trkpt><trkpt lat="43.6621808" lon="12.7205031"><ele>680.5</ele><time>2026-03-22T10:37:06.661Z</time></trkpt><trkpt lat="43.6621221" lon="12.7207203"><ele>682.0</ele><time>2026-03-22T10:37:07.659Z</time></trkpt><trkpt lat="43.6621441" lon="12.7208982"><ele>683.5</ele><time>2026-03-22T10:37:08.675Z</time></trkpt><trkpt lat="43.6621695" lon="12.7210837"><ele>685.0</ele><time>2026-03-22T10:37:09.669Z</time></trkpt><trkpt lat="43.6623243" lon="12.7212397"><ele>688.75</ele><time>2026-03-22T10:37:10.675Z</time></trkpt><trkpt lat="43.6624016" lon="12.7213863"><ele>692.5</ele><time>2026-03-22T10:37:11.665Z</time></trkpt><trkpt lat="43.6624847" lon="12.7215622"><ele>696.25</ele><time>2026-03-22T10:37:12.657Z</time></trkpt><trkpt lat="43.6624537" lon="12.7217878"><ele>700.0</ele><time>2026-03-22T10:37:13.653Z</time></trkpt><trkpt lat="43.6624569" lon="12.722017"><ele>700.0</ele><time>2026-03-22T10:37:14.662Z</time></trkpt><trkpt lat="43.6623816" lon="12.7221737"><ele>700.0</ele><time>2026-03-22T10:37:15.662Z</time></trkpt><trkpt lat="43.6623687" lon="12.7222829"><ele>700.0</ele><time>2026-03-22T10:37:16.668Z</time></trkpt><trkpt lat="43.6624749" lon="12.7224031"><ele>700.0</ele><time>2026-03-22T10:37:18.667Z</time></trkpt><trkpt lat="43.66281" lon="12.7226105"><ele>690.6666666666667</ele><time>2026-03-22T10:37:19.665Z</time></trkpt><trkpt lat="43.6628377" lon="12.7228451"><ele>681.3333333333334</ele><time>2026-03-22T10:37:20.667Z</time></trkpt><trkpt lat="43.6628116" lon="12.7230325"><ele>672.0</ele><time>2026-03-22T10:37:21.675Z</time></trkpt><trkpt lat="43.6628656" lon="12.7232444"><ele>672.0</ele><time>2026-03-22T10:37:22.659Z</time></trkpt><trkpt lat="43.6629163" lon="12.7233675"><ele>672.0</ele><time>2026-03-22T10:37:23.663Z</time></trkpt><trkpt lat="43.6628667" lon="12.7235853"><ele>672.0</ele><time>2026-03-22T10:37:24.659Z</time></trkpt><trkpt lat="43.6628712" lon="12.7237577"><ele>672.0</ele><time>2026-03-22T10:37:25.665Z</time></trkpt><trkpt lat="43.6630082" lon="12.7240174"><ele>672.0</ele><time>2026-03-22T10:37:26.666Z</time></trkpt><trkpt lat="43.6630913" lon="12.724306"><ele>672.0</ele><time>2026-03-22T10:37:27.669Z</time></trkpt><trkpt lat="43.6632352" lon="12.7245721"><ele>669.4000000000001</ele><time>2026-03-22T10:37:28.663Z</time></trkpt><trkpt lat="43.663295" lon="12.7247552"><ele>666.8000000000001</ele><time>2026-03-22T10:37:29.662Z</time></trkpt><trkpt lat="43.6633663" lon="12.7248958"><ele>664.2</ele><time>2026-03-22T10:37:30.659Z</time></trkpt><trkpt lat="43.6633936" lon="12.7250092"><ele>661.6</ele><time>2026-03-22T10:37:31.656Z</time></trkpt><trkpt lat="43.6634182" lon="12.7251226"><ele>659.0</ele><time>2026-03-22T10:37:32.66Z</time></trkpt><trkpt lat="43.6634559" lon="12.7253487"><ele>654.0</ele><time>2026-03-22T10:37:33.656Z</time></trkpt><trkpt lat="43.6635093" lon="12.7255743"><ele>649.0</ele><time>2026-03-22T10:37:34.67Z</time></trkpt><trkpt lat="43.6634576" lon="12.7257659"><ele>644.0</ele><time>2026-03-22T10:37:35.661Z</time></trkpt><trkpt lat="43.6634286" lon="12.7259342"><ele>639.0</ele><time>2026-03-22T10:37:36.669Z</time></trkpt><trkpt lat="43.6633377" lon="12.7262498"><ele>633.2</ele><time>2026-03-22T10:37:37.664Z</time></trkpt><trkpt lat="43.6634313" lon="12.726402"><ele>627.4</ele><time>2026-03-22T10:37:38.681Z</time></trkpt><trkpt lat="43.6633233" lon="12.7263042"><ele>621.6</ele><time>2026-03-22T10:37:40.671Z</time></trkpt><trkpt lat="43.6632507" lon="12.7263187"><ele>615.8</ele><time>2026-03-22T10:37:42.678Z</time></trkpt><trkpt lat="43.6632941" lon="12.7264203"><ele>610.0</ele><time>2026-03-22T10:37:44.683Z</time></trkpt><trkpt lat="43.6633622" lon="12.7264436"><ele>610.0</ele><time>2026-03-22T10:37:47.673Z</time></trkpt><trkpt lat="43.6634414" lon="12.7263241"><ele>610.0</ele><time>2026-03-22T10:37:49.68Z</time></trkpt><trkpt lat="43.6635106" lon="12.7262596"><ele>610.0</ele><time>2026-03-22T10:37:50.683Z</time></trkpt><trkpt lat="43.6636164" lon="12.7261592"><ele>610.0</ele><time>2026-03-22T10:37:51.67Z</time></trkpt><trkpt lat="43.6637639" lon="12.7260472"><ele>613.6666666666667</ele><time>2026-03-22T10:37:52.677Z</time></trkpt><trkpt lat="43.6639386" lon="12.72593"><ele>617.3333333333334</ele><time>2026-03-22T10:37:53.679Z</time></trkpt><trkpt lat="43.6640792" lon="12.7257637"><ele>621.0</ele><time>2026-03-22T10:37:54.679Z</time></trkpt><trkpt lat="43.6642207" lon="12.7255876"><ele>621.0</ele><time>2026-03-22T10:37:55.676Z</time></trkpt><trkpt lat="43.6643672" lon="12.7254406"><ele>621.0</ele><time>2026-03-22T10:37:56.672Z</time></trkpt><trkpt lat="43.6644951" lon="12.725271"><ele>621.0</ele><time>2026-03-22T10:37:57.67Z</time></trkpt><trkpt lat="43.6646014" lon="12.7251158"><ele>615.0</ele><time>2026-03-22T10:37:58.675Z</time></trkpt><trkpt lat="43.6647085" lon="12.7249441"><ele>609.0</ele><time>2026-03-22T10:37:59.669Z</time></trkpt><trkpt lat="43.6648008" lon="12.7247444"><ele>603.0</ele><time>2026-03-22T10:38:00.671Z</time></trkpt><trkpt lat="43.6649051" lon="12.7245442"><ele>604.0</ele><time>2026-03-22T10:38:01.679Z</time></trkpt><trkpt lat="43.6649809" lon="12.7242944"><ele>605.0</ele><time>2026-03-22T10:38:02.671Z</time></trkpt><trkpt lat="43.665042" lon="12.7240608"><ele>606.0</ele><time>2026-03-22T10:38:03.678Z</time></trkpt><trkpt lat="43.6651164" lon="12.7238275"><ele>606.0</ele><time>2026-03-22T10:38:04.674Z</time></trkpt><trkpt lat="43.66517" lon="12.7235847"><ele>606.0</ele><time>2026-03-22T10:38:05.694Z</time></trkpt><trkpt lat="43.6652108" lon="12.7233673"><ele>606.0</ele><time>2026-03-22T10:38:06.67Z</time></trkpt><trkpt lat="43.665245" lon="12.7231427"><ele>607.0</ele><time>2026-03-22T10:38:07.674Z</time></trkpt><trkpt lat="43.6652638" lon="12.7229203"><ele>608.0</ele><time>2026-03-22T10:38:08.664Z</time></trkpt><trkpt lat="43.6652944" lon="12.7224892"><ele>608.25</ele><time>2026-03-22T10:38:10.569Z</time></trkpt><trkpt lat="43.6652868" lon="12.7223031"><ele>608.5</ele><time>2026-03-22T10:38:11.569Z</time></trkpt><trkpt lat="43.6652341" lon="12.72211"><ele>608.75</ele><time>2026-03-22T10:38:12.573Z</time></trkpt><trkpt lat="43.6651936" lon="12.7219222"><ele>609.0</ele><time>2026-03-22T10:38:13.569Z</time></trkpt><trkpt lat="43.6651391" lon="12.7217141"><ele>604.0</ele><time>2026-03-22T10:38:14.567Z</time></trkpt><trkpt lat="43.6650819" lon="12.7214987"><ele>599.0</ele><time>2026-03-22T10:38:15.571Z</time></trkpt><trkpt lat="43.6650317" lon="12.7212925"><ele>594.0</ele><time>2026-03-22T10:38:16.569Z</time></trkpt><trkpt lat="43.6649818" lon="12.7211066"><ele>586.6666666666666</ele><time>2026-03-22T10:38:17.557Z</time></trkpt><trkpt lat="43.6649226" lon="12.7209151"><ele>579.3333333333333</ele><time>2026-03-22T10:38:18.56Z</time></trkpt><trkpt lat="43.66487" lon="12.7207304"><ele>572.0</ele><time>2026-03-22T10:38:19.568Z</time></trkpt><trkpt lat="43.664778" lon="12.7205423"><ele>572.0</ele><time>2026-03-22T10:38:20.575Z</time></trkpt><trkpt lat="43.6646571" lon="12.72039"><ele>572.0</ele><time>2026-03-22T10:38:21.563Z</time></trkpt><trkpt lat="43.6645421" lon="12.7202504"><ele>572.0</ele><time>2026-03-22T10:38:22.567Z</time></trkpt><trkpt lat="43.6644265" lon="12.7201638"><ele>572.0</ele><time>2026-03-22T10:38:23.561Z</time></trkpt><trkpt lat="43.6643212" lon="12.7200477"><ele>582.0</ele><time>2026-03-22T10:38:24.562Z</time></trkpt><trkpt lat="43.6642281" lon="12.719958"><ele>592.0</ele><time>2026-03-22T10:38:25.568Z</time></trkpt><trkpt lat="43.6641158" lon="12.7198712"><ele>602.0</ele><time>2026-03-22T10:38:26.564Z</time></trkpt><trkpt lat="43.6641179" lon="12.7196896"><ele>612.0</ele><time>2026-03-22T10:38:28.563Z</time></trkpt><trkpt lat="43.6641514" lon="12.7195034"><ele>614.0</ele><time>2026-03-22T10:38:29.563Z</time></trkpt><trkpt lat="43.664198" lon="12.7193678"><ele>616.0</ele><time>2026-03-22T10:38:30.562Z</time></trkpt><trkpt lat="43.664271" lon="12.7192267"><ele>618.0</ele><time>2026-03-22T10:38:31.561Z</time></trkpt><trkpt lat="43.6643566" lon="12.7191184"><ele>620.0</ele><time>2026-03-22T10:38:32.565Z</time></trkpt><trkpt lat="43.6644593" lon="12.7189985"><ele>610.75</ele><time>2026-03-22T10:38:33.574Z</time></trkpt><trkpt lat="43.6645913" lon="12.7189682"><ele>601.5</ele><time>2026-03-22T10:38:34.579Z</time></trkpt><trkpt lat="43.6647365" lon="12.7189776"><ele>592.25</ele><time>2026-03-22T10:38:35.573Z</time></trkpt><trkpt lat="43.6649066" lon="12.7189871"><ele>583.0</ele><time>2026-03-22T10:38:36.589Z</time></trkpt><trkpt lat="43.6650537" lon="12.7189978"><ele>583.0</ele><time>2026-03-22T10:38:37.582Z</time></trkpt><trkpt lat="43.6651738" lon="12.71898"><ele>583.0</ele><time>2026-03-22T10:38:38.588Z</time></trkpt><trkpt lat="43.6652546" lon="12.718938"><ele>583.0</ele><time>2026-03-22T10:38:39.581Z</time></trkpt><trkpt lat="43.6652856" lon="12.7187698"><ele>583.0</ele><time>2026-03-22T10:38:41.571Z</time></trkpt><trkpt lat="43.6652771" lon="12.7186592"><ele>583.0</ele><time>2026-03-22T10:38:42.565Z</time></trkpt><trkpt lat="43.6652793" lon="12.718551"><ele>581.6</ele><time>2026-03-22T10:38:43.571Z</time></trkpt><trkpt lat="43.6653" lon="12.7184627"><ele>580.1999999999999</ele><time>2026-03-22T10:38:44.577Z</time></trkpt><trkpt lat="43.6653453" lon="12.7183977"><ele>578.8</ele><time>2026-03-22T10:38:45.578Z</time></trkpt><trkpt lat="43.6654144" lon="12.7183751"><ele>577.4</ele><time>2026-03-22T10:38:46.584Z</time></trkpt><trkpt lat="43.6656277" lon="12.7183944"><ele>576.0</ele><time>2026-03-22T10:38:48.369Z</time></trkpt><trkpt lat="43.6657588" lon="12.7183642"><ele>576.0</ele><time>2026-03-22T10:38:49.376Z</time></trkpt><trkpt lat="43.6658999" lon="12.7183313"><ele>576.0</ele><time>2026-03-22T10:38:50.372Z</time></trkpt><trkpt lat="43.6660347" lon="12.7183185"><ele>576.0</ele><time>2026-03-22T10:38:51.376Z</time></trkpt><trkpt lat="43.666154" lon="12.7183271"><ele>576.0</ele><time>2026-03-22T10:38:52.381Z</time></trkpt><trkpt lat="43.6662493" lon="12.7183294"><ele>573.6666666666666</ele><time>2026-03-22T10:38:53.384Z</time></trkpt><trkpt lat="43.6663376" lon="12.7182752"><ele>571.3333333333334</ele><time>2026-03-22T10:38:55.359Z</time></trkpt><trkpt lat="43.6664199" lon="12.7182106"><ele>569.0</ele><time>2026-03-22T10:38:57.367Z</time></trkpt><trkpt lat="43.6664481" lon="12.7180956"><ele>566.6666666666667</ele><time>2026-03-22T10:38:59.358Z</time></trkpt><trkpt lat="43.6664683" lon="12.7179743"><ele>564.3333333333334</ele><time>2026-03-22T10:39:01.356Z</time></trkpt><trkpt lat="43.6665136" lon="12.7179068"><ele>562.0</ele><time>2026-03-22T10:39:02.36Z</time></trkpt><trkpt lat="43.6666445" lon="12.7179188"><ele>562.0</ele><time>2026-03-22T10:39:04.361Z</time></trkpt><trkpt lat="43.6667516" lon="12.7179505"><ele>562.0</ele><time>2026-03-22T10:39:05.358Z</time></trkpt><trkpt lat="43.6668839" lon="12.7179641"><ele>562.0</ele><time>2026-03-22T10:39:06.366Z</time></trkpt><trkpt lat="43.6670076" lon="12.7179651"><ele>562.0</ele><time>2026-03-22T10:39:07.367Z</time></trkpt><trkpt lat="43.6671797" lon="12.717937"><ele>563.6666666666667</ele><time>2026-03-22T10:39:08.365Z</time></trkpt><trkpt lat="43.6673238" lon="12.7178852"><ele>565.3333333333334</ele><time>2026-03-22T10:39:09.376Z</time></trkpt><trkpt lat="43.6674853" lon="12.717785"><ele>567.0</ele><time>2026-03-22T10:39:10.368Z</time></trkpt><trkpt lat="43.6676125" lon="12.7176572"><ele>567.0</ele><time>2026-03-22T10:39:11.376Z</time></trkpt><trkpt lat="43.6677356" lon="12.7175048"><ele>567.0</ele><time>2026-03-22T10:39:12.382Z</time></trkpt><trkpt lat="43.6678456" lon="12.7172955"><ele>567.0</ele><time>2026-03-22T10:39:13.379Z</time></trkpt><trkpt lat="43.6679449" lon="12.7170799"><ele>564.0</ele><time>2026-03-22T10:39:14.374Z</time></trkpt><trkpt lat="43.6680349" lon="12.7168705"><ele>561.0</ele><time>2026-03-22T10:39:15.37Z</time></trkpt><trkpt lat="43.6681311" lon="12.7166662"><ele>558.0</ele><time>2026-03-22T10:39:16.376Z</time></trkpt><trkpt lat="43.6682248" lon="12.7164786"><ele>558.0</ele><time>2026-03-22T10:39:17.378Z</time></trkpt><trkpt lat="43.668303" lon="12.7162872"><ele>558.0</ele><time>2026-03-22T10:39:18.372Z</time></trkpt><trkpt lat="43.6683712" lon="12.7160918"><ele>558.0</ele><time>2026-03-22T10:39:19.38Z</time></trkpt><trkpt lat="43.668456" lon="12.7159248"><ele>559.75</ele><time>2026-03-22T10:39:20.377Z</time></trkpt><trkpt lat="43.6685533" lon="12.7158039"><ele>561.5</ele><time>2026-03-22T10:39:21.376Z</time></trkpt><trkpt lat="43.6686359" lon="12.7156895"><ele>563.25</ele><time>2026-03-22T10:39:22.379Z</time></trkpt><trkpt lat="43.6686984" lon="12.7155571"><ele>565.0</ele><time>2026-03-22T10:39:23.378Z</time></trkpt><trkpt lat="43.6687436" lon="12.7153942"><ele>558.5</ele><time>2026-03-22T10:39:24.388Z</time></trkpt><trkpt lat="43.6687404" lon="12.7151949"><ele>552.0</ele><time>2026-03-22T10:39:25.376Z</time></trkpt><trkpt lat="43.6687254" lon="12.7149839"><ele>545.5</ele><time>2026-03-22T10:39:26.381Z</time></trkpt><trkpt lat="43.6687185" lon="12.7147846"><ele>539.0</ele><time>2026-03-22T10:39:27.384Z</time></trkpt><trkpt lat="43.6687144" lon="12.714595"><ele>539.0</ele><time>2026-03-22T10:39:28.383Z</time></trkpt><trkpt lat="43.668693" lon="12.7144094"><ele>539.0</ele><time>2026-03-22T10:39:29.379Z</time></trkpt><trkpt lat="43.6686409" lon="12.7142259"><ele>539.0</ele><time>2026-03-22T10:39:30.384Z</time></trkpt><trkpt lat="43.6685838" lon="12.7140191"><ele>539.0</ele><time>2026-03-22T10:39:31.382Z</time></trkpt><trkpt lat="43.6685316" lon="12.7137916"><ele>547.6666666666666</ele><time>2026-03-22T10:39:32.383Z</time></trkpt><trkpt lat="43.6684651" lon="12.7135648"><ele>556.3333333333334</ele><time>2026-03-22T10:39:33.379Z</time></trkpt><trkpt lat="43.6683821" lon="12.7133395"><ele>565.0</ele><time>2026-03-22T10:39:34.378Z</time></trkpt><trkpt lat="43.6683132" lon="12.7131369"><ele>565.0</ele><time>2026-03-22T10:39:35.379Z</time></trkpt><trkpt lat="43.668239" lon="12.7129314"><ele>565.0</ele><time>2026-03-22T10:39:36.379Z</time></trkpt><trkpt lat="43.6682008" lon="12.7127368"><ele>565.0</ele><time>2026-03-22T10:39:37.377Z</time></trkpt><trkpt lat="43.6681784" lon="12.7125669"><ele>565.0</ele><time>2026-03-22T10:39:38.382Z</time></trkpt><trkpt lat="43.6681423" lon="12.7123941"><ele>563.5</ele><time>2026-03-22T10:39:39.375Z</time></trkpt><trkpt lat="43.6680782" lon="12.7122424"><ele>562.0</ele><time>2026-03-22T10:39:40.384Z</time></trkpt><trkpt lat="43.6680004" lon="12.7121286"><ele>560.5</ele><time>2026-03-22T10:39:41.373Z</time></trkpt><trkpt lat="43.6678948" lon="12.7120129"><ele>559.0</ele><time>2026-03-22T10:39:42.358Z</time></trkpt><trkpt lat="43.6677642" lon="12.7119042"><ele>559.0</ele><time>2026-03-22T10:39:43.362Z</time></trkpt><trkpt lat="43.6676481" lon="12.7118094"><ele>559.0</ele><time>2026-03-22T10:39:44.362Z</time></trkpt><trkpt lat="43.6675295" lon="12.7117271"><ele>559.0</ele><time>2026-03-22T10:39:45.36Z</time></trkpt><trkpt lat="43.6674308" lon="12.7116542"><ele>559.0</ele><time>2026-03-22T10:39:46.367Z</time></trkpt><trkpt lat="43.6673405" lon="12.711552"><ele>559.0</ele><time>2026-03-22T10:39:47.367Z</time></trkpt><trkpt lat="43.6672709" lon="12.7113872"><ele>559.0</ele><time>2026-03-22T10:39:48.367Z</time></trkpt><trkpt lat="43.6672072" lon="12.7112328"><ele>559.0</ele><time>2026-03-22T10:39:49.367Z</time></trkpt><trkpt lat="43.6671598" lon="12.7110641"><ele>559.0</ele><time>2026-03-22T10:39:50.356Z</time></trkpt><trkpt lat="43.6671023" lon="12.710911"><ele>555.1666666666667</ele><time>2026-03-22T10:39:51.358Z</time></trkpt><trkpt lat="43.6670483" lon="12.7107998"><ele>551.3333333333334</ele><time>2026-03-22T10:39:52.357Z</time></trkpt><trkpt lat="43.6670011" lon="12.7107253"><ele>547.5</ele><time>2026-03-22T10:39:53.37Z</time></trkpt><trkpt lat="43.6669617" lon="12.7106563"><ele>543.6666666666666</ele><time>2026-03-22T10:39:55.369Z</time></trkpt><trkpt lat="43.6670426" lon="12.7106571"><ele>539.8333333333333</ele><time>2026-03-22T10:40:06.37Z</time></trkpt><trkpt lat="43.6671546" lon="12.7106842"><ele>536.0</ele><time>2026-03-22T10:40:08.377Z</time></trkpt><trkpt lat="43.6672072" lon="12.7107392"><ele>536.0</ele><time>2026-03-22T10:40:09.387Z</time></trkpt><trkpt lat="43.6672355" lon="12.7108279"><ele>536.0</ele><time>2026-03-22T10:40:10.376Z</time></trkpt><trkpt lat="43.6672722" lon="12.7109188"><ele>536.0</ele><time>2026-03-22T10:40:11.388Z</time></trkpt><trkpt lat="43.6673102" lon="12.7110335"><ele>536.0</ele><time>2026-03-22T10:40:12.382Z</time></trkpt><trkpt lat="43.6673483" lon="12.7111382"><ele>536.0</ele><time>2026-03-22T10:40:13.38Z</time></trkpt><trkpt lat="43.6673971" lon="12.7112476"><ele>536.0</ele><time>2026-03-22T10:40:14.375Z</time></trkpt><trkpt lat="43.6674456" lon="12.7113487"><ele>540.6</ele><time>2026-03-22T10:40:15.371Z</time></trkpt><trkpt lat="43.6674952" lon="12.7114443"><ele>545.2</ele><time>2026-03-22T10:40:16.363Z</time></trkpt><trkpt lat="43.6675562" lon="12.7115264"><ele>549.8</ele><time>2026-03-22T10:40:17.354Z</time></trkpt><trkpt lat="43.6676214" lon="12.7116214"><ele>554.4</ele><time>2026-03-22T10:40:18.357Z</time></trkpt><trkpt lat="43.6676957" lon="12.7117288"><ele>559.0</ele><time>2026-03-22T10:40:19.349Z</time></trkpt><trkpt lat="43.6677585" lon="12.7118532"><ele>557.2</ele><time>2026-03-22T10:40:20.347Z</time></trkpt><trkpt lat="43.6678019" lon="12.7119847"><ele>555.4</ele><time>2026-03-22T10:40:21.339Z</time></trkpt><trkpt lat="43.6678305" lon="12.7121426"><ele>553.6</ele><time>2026-03-22T10:40:22.344Z</time></trkpt><trkpt lat="43.6678976" lon="12.7121841"><ele>551.8</ele><time>2026-03-22T10:40:23.363Z</time></trkpt><trkpt lat="43.668005" lon="12.7122484"><ele>550.0</ele><time>2026-03-22T10:40:24.374Z</time></trkpt><trkpt lat="43.6680387" lon="12.7123853"><ele>550.0</ele><time>2026-03-22T10:40:25.371Z</time></trkpt><trkpt lat="43.6681476" lon="12.7124533"><ele>550.0</ele><time>2026-03-22T10:40:26.376Z</time></trkpt><trkpt lat="43.6682086" lon="12.7125534"><ele>550.0</ele><time>2026-03-22T10:40:27.369Z</time></trkpt><trkpt lat="43.6683277" lon="12.7125992"><ele>550.0</ele><time>2026-03-22T10:40:28.369Z</time></trkpt><trkpt lat="43.6684087" lon="12.7126983"><ele>550.0</ele><time>2026-03-22T10:40:29.37Z</time></trkpt><trkpt lat="43.6684949" lon="12.7127809"><ele>553.75</ele><time>2026-03-22T10:40:30.371Z</time></trkpt><trkpt lat="43.668584" lon="12.7128859"><ele>557.5</ele><time>2026-03-22T10:40:31.371Z</time></trkpt><trkpt lat="43.6686743" lon="12.7130077"><ele>561.25</ele><time>2026-03-22T10:40:32.371Z</time></trkpt><trkpt lat="43.6687711" lon="12.7131236"><ele>565.0</ele><time>2026-03-22T10:40:33.375Z</time></trkpt><trkpt lat="43.6688751" lon="12.7132336"><ele>557.0</ele><time>2026-03-22T10:40:34.378Z</time></trkpt><trkpt lat="43.6689827" lon="12.7133568"><ele>549.0</ele><time>2026-03-22T10:40:35.375Z</time></trkpt><trkpt lat="43.669092" lon="12.7134694"><ele>541.0</ele><time>2026-03-22T10:40:36.377Z</time></trkpt><trkpt lat="43.6691942" lon="12.7135711"><ele>533.0</ele><time>2026-03-22T10:40:37.379Z</time></trkpt><trkpt lat="43.6692458" lon="12.7136498"><ele>533.0</ele><time>2026-03-22T10:40:38.374Z</time></trkpt><trkpt lat="43.6693313" lon="12.7137522"><ele>533.0</ele><time>2026-03-22T10:40:40.382Z</time></trkpt><trkpt lat="43.6694397" lon="12.713669"><ele>533.0</ele><time>2026-03-22T10:40:42.382Z</time></trkpt><trkpt lat="43.6694611" lon="12.7135587"><ele>533.0</ele><time>2026-03-22T10:40:43.371Z</time></trkpt><trkpt lat="43.6694621" lon="12.7134438"><ele>533.0</ele><time>2026-03-22T10:40:44.378Z</time></trkpt><trkpt lat="43.6694481" lon="12.7133109"><ele>520.0</ele><time>2026-03-22T10:40:45.366Z</time></trkpt><trkpt lat="43.6694422" lon="12.713165"><ele>507.0</ele><time>2026-03-22T10:40:46.376Z</time></trkpt><trkpt lat="43.6694634" lon="12.7129842"><ele>494.0</ele><time>2026-03-22T10:40:47.369Z</time></trkpt><trkpt lat="43.6694839" lon="12.7127707"><ele>481.0</ele><time>2026-03-22T10:40:48.366Z</time></trkpt><trkpt lat="43.6695021" lon="12.7125572"><ele>480.5</ele><time>2026-03-22T10:40:49.368Z</time></trkpt><trkpt lat="43.669516" lon="12.7123641"><ele>480.0</ele><time>2026-03-22T10:40:50.363Z</time></trkpt><trkpt lat="43.6695291" lon="12.712165"><ele>479.5</ele><time>2026-03-22T10:40:51.357Z</time></trkpt><trkpt lat="43.6695372" lon="12.711979"><ele>479.0</ele><time>2026-03-22T10:40:52.362Z</time></trkpt><trkpt lat="43.6695344" lon="12.7117944"><ele>476.25</ele><time>2026-03-22T10:40:53.367Z</time></trkpt><trkpt lat="43.66952" lon="12.7116214"><ele>473.5</ele><time>2026-03-22T10:40:54.364Z</time></trkpt><trkpt lat="43.6694758" lon="12.7114836"><ele>470.75</ele><time>2026-03-22T10:40:55.37Z</time></trkpt><trkpt lat="43.6694161" lon="12.711362"><ele>468.0</ele><time>2026-03-22T10:40:56.36Z</time></trkpt><trkpt lat="43.6693299" lon="12.7112675"><ele>469.0</ele><time>2026-03-22T10:40:57.36Z</time></trkpt><trkpt lat="43.6692412" lon="12.7111855"><ele>470.0</ele><time>2026-03-22T10:40:58.357Z</time></trkpt><trkpt lat="43.6691107" lon="12.7110786"><ele>471.0</ele><time>2026-03-22T10:40:59.355Z</time></trkpt><trkpt lat="43.6689817" lon="12.7109741"><ele>472.0</ele><time>2026-03-22T10:41:00.354Z</time></trkpt><trkpt lat="43.6688537" lon="12.7108766"><ele>472.0</ele><time>2026-03-22T10:41:01.359Z</time></trkpt><trkpt lat="43.6687169" lon="12.7107527"><ele>472.0</ele><time>2026-03-22T10:41:02.367Z</time></trkpt><trkpt lat="43.6686231" lon="12.7106322"><ele>472.0</ele><time>2026-03-22T10:41:03.367Z</time></trkpt><trkpt lat="43.6685383" lon="12.7104958"><ele>472.0</ele><time>2026-03-22T10:41:04.365Z</time></trkpt><trkpt lat="43.6684785" lon="12.7103862"><ele>473.83333333333337</ele><time>2026-03-22T10:41:05.352Z</time></trkpt><trkpt lat="43.6684048" lon="12.7102909"><ele>475.6666666666667</ele><time>2026-03-22T10:41:06.359Z</time></trkpt><trkpt lat="43.668377" lon="12.7102085"><ele>477.5</ele><time>2026-03-22T10:41:07.358Z</time></trkpt><trkpt lat="43.6684041" lon="12.7100656"><ele>479.33333333333337</ele><time>2026-03-22T10:41:09.359Z</time></trkpt><trkpt lat="43.6684683" lon="12.7100443"><ele>481.1666666666667</ele><time>2026-03-22T10:41:11.369Z</time></trkpt><trkpt lat="43.6685352" lon="12.7101229"><ele>483.0</ele><time>2026-03-22T10:41:13.379Z</time></trkpt><trkpt lat="43.6685891" lon="12.7102017"><ele>480.79999999999995</ele><time>2026-03-22T10:41:14.364Z</time></trkpt><trkpt lat="43.668643" lon="12.7102891"><ele>478.59999999999997</ele><time>2026-03-22T10:41:15.354Z</time></trkpt><trkpt lat="43.6686894" lon="12.7103504"><ele>476.40000000000003</ele><time>2026-03-22T10:41:16.35Z</time></trkpt><trkpt lat="43.6687413" lon="12.7104318"><ele>474.20000000000005</ele><time>2026-03-22T10:41:17.359Z</time></trkpt><trkpt lat="43.6688181" lon="12.7105504"><ele>472.0</ele><time>2026-03-22T10:41:18.359Z</time></trkpt><trkpt lat="43.66893" lon="12.7106576"><ele>472.0</ele><time>2026-03-22T10:41:19.348Z</time></trkpt><trkpt lat="43.669083" lon="12.7107418"><ele>472.0</ele><time>2026-03-22T10:41:20.35Z</time></trkpt><trkpt lat="43.6691996" lon="12.7108171"><ele>472.0</ele><time>2026-03-22T10:41:21.352Z</time></trkpt><trkpt lat="43.669363" lon="12.7108826"><ele>470.6666666666667</ele><time>2026-03-22T10:41:22.346Z</time></trkpt><trkpt lat="43.6695129" lon="12.7109486"><ele>469.33333333333337</ele><time>2026-03-22T10:41:23.349Z</time></trkpt><trkpt lat="43.6696572" lon="12.7110394"><ele>468.0</ele><time>2026-03-22T10:41:24.358Z</time></trkpt><trkpt lat="43.6697932" lon="12.711166"><ele>468.0</ele><time>2026-03-22T10:41:25.36Z</time></trkpt><trkpt lat="43.6699213" lon="12.7112568"><ele>468.0</ele><time>2026-03-22T10:41:26.36Z</time></trkpt><trkpt lat="43.670051" lon="12.711364"><ele>468.0</ele><time>2026-03-22T10:41:27.357Z</time></trkpt><trkpt lat="43.6701794" lon="12.711465"><ele>468.0</ele><time>2026-03-22T10:41:28.359Z</time></trkpt><trkpt lat="43.6702952" lon="12.7116008"><ele>457.0</ele><time>2026-03-22T10:41:29.354Z</time></trkpt><trkpt lat="43.6703916" lon="12.7117516"><ele>446.0</ele><time>2026-03-22T10:41:30.363Z</time></trkpt><trkpt lat="43.670473" lon="12.711942"><ele>435.0</ele><time>2026-03-22T10:41:31.363Z</time></trkpt><trkpt lat="43.6705435" lon="12.712152"><ele>435.0</ele><time>2026-03-22T10:41:32.359Z</time></trkpt><trkpt lat="43.670585" lon="12.7123382"><ele>435.0</ele><time>2026-03-22T10:41:33.363Z</time></trkpt><trkpt lat="43.6706125" lon="12.7125116"><ele>435.0</ele><time>2026-03-22T10:41:34.363Z</time></trkpt><trkpt lat="43.6706179" lon="12.7126665"><ele>435.0</ele><time>2026-03-22T10:41:35.361Z</time></trkpt><trkpt lat="43.6706429" lon="12.712817"><ele>433.4</ele><time>2026-03-22T10:41:36.362Z</time></trkpt><trkpt lat="43.6706778" lon="12.7129643"><ele>431.8</ele><time>2026-03-22T10:41:37.368Z</time></trkpt><trkpt lat="43.6706899" lon="12.7131089"><ele>430.20000000000005</ele><time>2026-03-22T10:41:38.377Z</time></trkpt><trkpt lat="43.6706981" lon="12.7132484"><ele>428.6</ele><time>2026-03-22T10:41:39.377Z</time></trkpt><trkpt lat="43.6706666" lon="12.7133846"><ele>427.0</ele><time>2026-03-22T10:41:40.371Z</time></trkpt><trkpt lat="43.670623" lon="12.7135046"><ele>426.20000000000005</ele><time>2026-03-22T10:41:41.378Z</time></trkpt><trkpt lat="43.6705609" lon="12.7136242"><ele>425.40000000000003</ele><time>2026-03-22T10:41:42.377Z</time></trkpt><trkpt lat="43.6705141" lon="12.713752"><ele>424.6</ele><time>2026-03-22T10:41:43.38Z</time></trkpt><trkpt lat="43.6704915" lon="12.7138856"><ele>423.79999999999995</ele><time>2026-03-22T10:41:44.391Z</time></trkpt><trkpt lat="43.6705043" lon="12.7140475"><ele>423.0</ele><time>2026-03-22T10:41:45.363Z</time></trkpt><trkpt lat="43.6705366" lon="12.7141925"><ele>423.0</ele><time>2026-03-22T10:41:46.362Z</time></trkpt><trkpt lat="43.6705671" lon="12.7143262"><ele>423.0</ele><time>2026-03-22T10:41:47.361Z</time></trkpt><trkpt lat="43.6705844" lon="12.7144484"><ele>423.0</ele><time>2026-03-22T10:41:48.363Z</time></trkpt><trkpt lat="43.6706012" lon="12.7145615"><ele>423.0</ele><time>2026-03-22T10:41:49.362Z</time></trkpt><trkpt lat="43.6706182" lon="12.7147122"><ele>423.0</ele><time>2026-03-22T10:41:50.365Z</time></trkpt><trkpt lat="43.6706433" lon="12.7149256"><ele>423.5</ele><time>2026-03-22T10:41:51.361Z</time></trkpt><trkpt lat="43.6707124" lon="12.7151254"><ele>424.0</ele><time>2026-03-22T10:41:52.358Z</time></trkpt><trkpt lat="43.6707741" lon="12.715295"><ele>424.5</ele><time>2026-03-22T10:41:53.367Z</time></trkpt><trkpt lat="43.670829" lon="12.7154032"><ele>425.0</ele><time>2026-03-22T10:41:54.369Z</time></trkpt><trkpt lat="43.6708819" lon="12.7154876"><ele>425.4</ele><time>2026-03-22T10:41:55.365Z</time></trkpt><trkpt lat="43.6708832" lon="12.7156084"><ele>425.8</ele><time>2026-03-22T10:41:56.367Z</time></trkpt><trkpt lat="43.6708611" lon="12.7157171"><ele>426.20000000000005</ele><time>2026-03-22T10:41:57.369Z</time></trkpt><trkpt lat="43.6708437" lon="12.7158402"><ele>426.6</ele><time>2026-03-22T10:41:58.358Z</time></trkpt><trkpt lat="43.6708202" lon="12.7159835"><ele>427.0</ele><time>2026-03-22T10:41:59.373Z</time></trkpt><trkpt lat="43.6708183" lon="12.7161172"><ele>427.50000000000006</ele><time>2026-03-22T10:42:00.374Z</time></trkpt><trkpt lat="43.6708543" lon="12.7162433"><ele>428.0</ele><time>2026-03-22T10:42:01.359Z</time></trkpt><trkpt lat="43.670874" lon="12.7163439"><ele>428.5</ele><time>2026-03-22T10:42:02.355Z</time></trkpt><trkpt lat="43.6709051" lon="12.7164415"><ele>429.0</ele><time>2026-03-22T10:42:03.362Z</time></trkpt><trkpt lat="43.6709155" lon="12.7165378"><ele>429.50000000000006</ele><time>2026-03-22T10:42:04.369Z</time></trkpt><trkpt lat="43.6709242" lon="12.7166399"><ele>430.0</ele><time>2026-03-22T10:42:05.363Z</time></trkpt><trkpt lat="43.670932" lon="12.7167715"><ele>428.75</ele><time>2026-03-22T10:42:06.364Z</time></trkpt><trkpt lat="43.6709465" lon="12.7169279"><ele>427.5</ele><time>2026-03-22T10:42:07.363Z</time></trkpt><trkpt lat="43.6709897" lon="12.7170809"><ele>426.25</ele><time>2026-03-22T10:42:08.37Z</time></trkpt><trkpt lat="43.6710433" lon="12.7172394"><ele>425.0</ele><time>2026-03-22T10:42:09.364Z</time></trkpt><trkpt lat="43.6710929" lon="12.717415"><ele>416.8</ele><time>2026-03-22T10:42:10.365Z</time></trkpt><trkpt lat="43.6711272" lon="12.7175829"><ele>408.6</ele><time>2026-03-22T10:42:11.366Z</time></trkpt><trkpt lat="43.6711614" lon="12.7177537"><ele>400.4</ele><time>2026-03-22T10:42:12.38Z</time></trkpt><trkpt lat="43.6711823" lon="12.7178778"><ele>392.2</ele><time>2026-03-22T10:42:13.375Z</time></trkpt><trkpt lat="43.6711918" lon="12.717998"><ele>384.0</ele><time>2026-03-22T10:42:14.367Z</time></trkpt><trkpt lat="43.6712029" lon="12.7181227"><ele>383.6666666666667</ele><time>2026-03-22T10:42:15.374Z</time></trkpt><trkpt lat="43.6712002" lon="12.718233"><ele>383.3333333333333</ele><time>2026-03-22T10:42:16.376Z</time></trkpt><trkpt lat="43.6711749" lon="12.7183257"><ele>383.0</ele><time>2026-03-22T10:42:17.367Z</time></trkpt><trkpt lat="43.6711292" lon="12.7184192"><ele>382.66666666666663</ele><time>2026-03-22T10:42:18.37Z</time></trkpt><trkpt lat="43.6710781" lon="12.7184992"><ele>382.3333333333333</ele><time>2026-03-22T10:42:19.371Z</time></trkpt><trkpt lat="43.670984" lon="12.7185563"><ele>382.0</ele><time>2026-03-22T10:42:20.37Z</time></trkpt><trkpt lat="43.670888" lon="12.7186275"><ele>384.0</ele><time>2026-03-22T10:42:21.37Z</time></trkpt><trkpt lat="43.6708002" lon="12.7187134"><ele>386.0</ele><time>2026-03-22T10:42:22.367Z</time></trkpt><trkpt lat="43.670713" lon="12.718833"><ele>388.0</ele><time>2026-03-22T10:42:23.371Z</time></trkpt><trkpt lat="43.6706526" lon="12.7189634"><ele>390.0</ele><time>2026-03-22T10:42:24.365Z</time></trkpt><trkpt lat="43.6706132" lon="12.7190893"><ele>392.0</ele><time>2026-03-22T10:42:25.368Z</time></trkpt><trkpt lat="43.6705834" lon="12.7192251"><ele>392.0</ele><time>2026-03-22T10:42:26.362Z</time></trkpt><trkpt lat="43.6705533" lon="12.7193517"><ele>392.0</ele><time>2026-03-22T10:42:27.367Z</time></trkpt><trkpt lat="43.6705278" lon="12.7194704"><ele>392.0</ele><time>2026-03-22T10:42:28.358Z</time></trkpt><trkpt lat="43.670511" lon="12.7195717"><ele>392.0</ele><time>2026-03-22T10:42:29.362Z</time></trkpt><trkpt lat="43.6704732" lon="12.7197448"><ele>392.0</ele><time>2026-03-22T10:42:31.359Z</time></trkpt><trkpt lat="43.6704624" lon="12.7198864"><ele>389.3333333333333</ele><time>2026-03-22T10:42:33.358Z</time></trkpt><trkpt lat="43.6704623" lon="12.719975"><ele>386.66666666666663</ele><time>2026-03-22T10:42:35.36Z</time></trkpt><trkpt lat="43.6705654" lon="12.7199632"><ele>384.0</ele><time>2026-03-22T10:42:38.357Z</time></trkpt><trkpt lat="43.6706473" lon="12.719895"><ele>381.3333333333333</ele><time>2026-03-22T10:42:40.362Z</time></trkpt><trkpt lat="43.6706993" lon="12.719827"><ele>378.66666666666663</ele><time>2026-03-22T10:42:41.369Z</time></trkpt><trkpt lat="43.6707457" lon="12.719757"><ele>376.0</ele><time>2026-03-22T10:42:42.363Z</time></trkpt><trkpt lat="43.6708124" lon="12.7196261"><ele>376.0</ele><time>2026-03-22T10:42:44.373Z</time></trkpt><trkpt lat="43.6708687" lon="12.7194858"><ele>376.0</ele><time>2026-03-22T10:42:46.375Z</time></trkpt><trkpt lat="43.6708927" lon="12.7193952"><ele>376.0</ele><time>2026-03-22T10:42:47.363Z</time></trkpt><trkpt lat="43.6709056" lon="12.7192189"><ele>376.0</ele><time>2026-03-22T10:42:49.363Z</time></trkpt><trkpt lat="43.6709297" lon="12.7191281"><ele>376.0</ele><time>2026-03-22T10:42:50.363Z</time></trkpt><trkpt lat="43.6709679" lon="12.7190488"><ele>374.5</ele><time>2026-03-22T10:42:51.37Z</time></trkpt><trkpt lat="43.6710248" lon="12.7190013"><ele>373.0</ele><time>2026-03-22T10:42:52.373Z</time></trkpt><trkpt lat="43.6711476" lon="12.7190249"><ele>371.5</ele><time>2026-03-22T10:42:54.375Z</time></trkpt><trkpt lat="43.6712335" lon="12.7190829"><ele>370.0</ele><time>2026-03-22T10:42:55.365Z</time></trkpt><trkpt lat="43.6713117" lon="12.7191216"><ele>368.5</ele><time>2026-03-22T10:42:56.366Z</time></trkpt><trkpt lat="43.6713891" lon="12.7191349"><ele>367.0</ele><time>2026-03-22T10:42:57.366Z</time></trkpt><trkpt lat="43.6714763" lon="12.7191199"><ele>367.0</ele><time>2026-03-22T10:42:58.364Z</time></trkpt><trkpt lat="43.6715683" lon="12.7190817"><ele>367.0</ele><time>2026-03-22T10:42:59.37Z</time></trkpt><trkpt lat="43.6716586" lon="12.7190381"><ele>367.0</ele><time>2026-03-22T10:43:00.359Z</time></trkpt><trkpt lat="43.6717499" lon="12.7189722"><ele>367.0</ele><time>2026-03-22T10:43:01.356Z</time></trkpt><trkpt lat="43.6718325" lon="12.7189011"><ele>367.0</ele><time>2026-03-22T10:43:02.361Z</time></trkpt><trkpt lat="43.6719029" lon="12.7188188"><ele>366.0</ele><time>2026-03-22T10:43:03.361Z</time></trkpt><trkpt lat="43.6719573" lon="12.7187229"><ele>365.0</ele><time>2026-03-22T10:43:04.361Z</time></trkpt><trkpt lat="43.6720037" lon="12.7186244"><ele>364.0</ele><time>2026-03-22T10:43:05.367Z</time></trkpt><trkpt lat="43.6720367" lon="12.7185163"><ele>363.0</ele><time>2026-03-22T10:43:06.371Z</time></trkpt><trkpt lat="43.6720571" lon="12.7184128"><ele>362.0</ele><time>2026-03-22T10:43:07.371Z</time></trkpt><trkpt lat="43.6720865" lon="12.7182848"><ele>361.0</ele><time>2026-03-22T10:43:09.357Z</time></trkpt><trkpt lat="43.6721716" lon="12.7183433"><ele>361.0</ele><time>2026-03-22T10:43:12.355Z</time></trkpt><trkpt lat="43.6721893" lon="12.7184954"><ele>361.0</ele><time>2026-03-22T10:43:14.351Z</time></trkpt><trkpt lat="43.6721359" lon="12.7186279"><ele>361.0</ele><time>2026-03-22T10:43:15.359Z</time></trkpt><trkpt lat="43.6720887" lon="12.7187681"><ele>361.0</ele><time>2026-03-22T10:43:16.353Z</time></trkpt><trkpt lat="43.6720362" lon="12.7188872"><ele>361.0</ele><time>2026-03-22T10:43:17.45Z</time></trkpt><trkpt lat="43.6719793" lon="12.7190238"><ele>362.5</ele><time>2026-03-22T10:43:18.359Z</time></trkpt><trkpt lat="43.6719115" lon="12.7191556"><ele>364.0</ele><time>2026-03-22T10:43:19.343Z</time></trkpt><trkpt lat="43.6718079" lon="12.719267"><ele>365.5</ele><time>2026-03-22T10:43:20.355Z</time></trkpt><trkpt lat="43.6716941" lon="12.7193762"><ele>367.0</ele><time>2026-03-22T10:43:21.365Z</time></trkpt><trkpt lat="43.6716013" lon="12.7194784"><ele>364.0</ele><time>2026-03-22T10:43:22.353Z</time></trkpt><trkpt lat="43.6715031" lon="12.7195826"><ele>361.0</ele><time>2026-03-22T10:43:23.348Z</time></trkpt><trkpt lat="43.6714296" lon="12.7196066"><ele>358.0</ele><time>2026-03-22T10:43:24.351Z</time></trkpt><trkpt lat="43.6713491" lon="12.719609"><ele>355.0</ele><time>2026-03-22T10:43:25.357Z</time></trkpt><trkpt lat="43.6712696" lon="12.7196159"><ele>352.0</ele><time>2026-03-22T10:43:26.353Z</time></trkpt><trkpt lat="43.6712059" lon="12.7196234"><ele>349.0</ele><time>2026-03-22T10:43:27.343Z</time></trkpt><trkpt lat="43.6711436" lon="12.719658"><ele>349.0</ele><time>2026-03-22T10:43:28.359Z</time></trkpt><trkpt lat="43.6711051" lon="12.7197435"><ele>349.0</ele><time>2026-03-22T10:43:29.36Z</time></trkpt><trkpt lat="43.6710916" lon="12.7198516"><ele>349.0</ele><time>2026-03-22T10:43:30.37Z</time></trkpt><trkpt lat="43.6711079" lon="12.7200122"><ele>349.0</ele><time>2026-03-22T10:43:31.361Z</time></trkpt><trkpt lat="43.6711358" lon="12.7202159"><ele>349.0</ele><time>2026-03-22T10:43:32.357Z</time></trkpt><trkpt lat="43.6711534" lon="12.7203986"><ele>350.25</ele><time>2026-03-22T10:43:33.358Z</time></trkpt><trkpt lat="43.6711495" lon="12.7205545"><ele>351.5</ele><time>2026-03-22T10:43:34.36Z</time></trkpt><trkpt lat="43.6711185" lon="12.7207041"><ele>352.75</ele><time>2026-03-22T10:43:35.37Z</time></trkpt><trkpt lat="43.6710604" lon="12.7208561"><ele>354.0</ele><time>2026-03-22T10:43:36.371Z</time></trkpt><trkpt lat="43.6709805" lon="12.7210041"><ele>347.0</ele><time>2026-03-22T10:43:37.369Z</time></trkpt><trkpt lat="43.6708668" lon="12.7211197"><ele>340.0</ele><time>2026-03-22T10:43:38.359Z</time></trkpt><trkpt lat="43.6707589" lon="12.7211962"><ele>333.0</ele><time>2026-03-22T10:43:39.375Z</time></trkpt><trkpt lat="43.6706403" lon="12.7212698"><ele>326.0</ele><time>2026-03-22T10:43:40.362Z</time></trkpt><trkpt lat="43.6705166" lon="12.7213381"><ele>326.0</ele><time>2026-03-22T10:43:41.367Z</time></trkpt><trkpt lat="43.6703663" lon="12.7213864"><ele>326.0</ele><time>2026-03-22T10:43:42.362Z</time></trkpt><trkpt lat="43.6702147" lon="12.7214558"><ele>326.0</ele><time>2026-03-22T10:43:43.354Z</time></trkpt><trkpt lat="43.6700594" lon="12.7215179"><ele>334.0</ele><time>2026-03-22T10:43:44.361Z</time></trkpt><trkpt lat="43.6698997" lon="12.7215869"><ele>342.0</ele><time>2026-03-22T10:43:45.353Z</time></trkpt><trkpt lat="43.6697603" lon="12.721676"><ele>350.0</ele><time>2026-03-22T10:43:46.37Z</time></trkpt><trkpt lat="43.6696488" lon="12.7217823"><ele>350.0</ele><time>2026-03-22T10:43:47.351Z</time></trkpt><trkpt lat="43.6695783" lon="12.7218722"><ele>350.0</ele><time>2026-03-22T10:43:48.362Z</time></trkpt><trkpt lat="43.6695193" lon="12.7219222"><ele>350.0</ele><time>2026-03-22T10:43:49.362Z</time></trkpt><trkpt lat="43.6695795" lon="12.7219773"><ele>350.0</ele><time>2026-03-22T10:43:53.258Z</time></trkpt><trkpt lat="43.6694098" lon="12.7219737"><ele>350.0</ele><time>2026-03-22T10:43:56.948Z</time></trkpt><trkpt lat="43.669467" lon="12.7218951"><ele>350.0</ele><time>2026-03-22T10:43:58.956Z</time></trkpt><trkpt lat="43.6696538" lon="12.7218872"><ele>350.0</ele><time>2026-03-22T10:44:00.961Z</time></trkpt><trkpt lat="43.669774" lon="12.722003"><ele>350.0</ele><time>2026-03-22T10:44:02.961Z</time></trkpt><trkpt lat="43.6698288" lon="12.7220942"><ele>350.0</ele><time>2026-03-22T10:44:04.957Z</time></trkpt><trkpt lat="43.6699224" lon="12.7221088"><ele>348.33333333333337</ele><time>2026-03-22T10:44:06.953Z</time></trkpt><trkpt lat="43.6699838" lon="12.722059"><ele>346.6666666666667</ele><time>2026-03-22T10:44:07.954Z</time></trkpt><trkpt lat="43.6700598" lon="12.7220113"><ele>345.0</ele><time>2026-03-22T10:44:08.957Z</time></trkpt><trkpt lat="43.6701454" lon="12.7219643"><ele>343.3333333333333</ele><time>2026-03-22T10:44:09.955Z</time></trkpt><trkpt lat="43.6702254" lon="12.7219227"><ele>341.66666666666663</ele><time>2026-03-22T10:44:10.953Z</time></trkpt><trkpt lat="43.6703063" lon="12.7218852"><ele>340.0</ele><time>2026-03-22T10:44:11.955Z</time></trkpt><trkpt lat="43.6703962" lon="12.7218565"><ele>337.66666666666663</ele><time>2026-03-22T10:44:12.952Z</time></trkpt><trkpt lat="43.6705087" lon="12.7218112"><ele>335.3333333333333</ele><time>2026-03-22T10:44:14.96Z</time></trkpt><trkpt lat="43.6705734" lon="12.7217956"><ele>333.0</ele><time>2026-03-22T10:44:15.955Z</time></trkpt><trkpt lat="43.6706513" lon="12.7217817"><ele>330.6666666666667</ele><time>2026-03-22T10:44:16.959Z</time></trkpt><trkpt lat="43.6707366" lon="12.7217582"><ele>328.33333333333337</ele><time>2026-03-22T10:44:17.956Z</time></trkpt><trkpt lat="43.6708343" lon="12.7217413"><ele>326.0</ele><time>2026-03-22T10:44:18.956Z</time></trkpt><trkpt lat="43.6709324" lon="12.721711"><ele>326.0</ele><time>2026-03-22T10:44:19.948Z</time></trkpt><trkpt lat="43.6710487" lon="12.7216949"><ele>326.0</ele><time>2026-03-22T10:44:20.944Z</time></trkpt><trkpt lat="43.6711554" lon="12.7216794"><ele>326.0</ele><time>2026-03-22T10:44:21.944Z</time></trkpt><trkpt lat="43.671253" lon="12.7216789"><ele>326.0</ele><time>2026-03-22T10:44:22.947Z</time></trkpt><trkpt lat="43.6713515" lon="12.7216932"><ele>326.0</ele><time>2026-03-22T10:44:23.946Z</time></trkpt><trkpt lat="43.6714415" lon="12.7217216"><ele>321.8</ele><time>2026-03-22T10:44:24.949Z</time></trkpt><trkpt lat="43.671515" lon="12.7217568"><ele>317.6</ele><time>2026-03-22T10:44:25.947Z</time></trkpt><trkpt lat="43.6716064" lon="12.721816"><ele>313.4</ele><time>2026-03-22T10:44:26.963Z</time></trkpt><trkpt lat="43.6716849" lon="12.721901"><ele>309.2</ele><time>2026-03-22T10:44:27.954Z</time></trkpt><trkpt lat="43.6717593" lon="12.7220014"><ele>305.0</ele><time>2026-03-22T10:44:28.954Z</time></trkpt><trkpt lat="43.6718419" lon="12.7220945"><ele>303.4</ele><time>2026-03-22T10:44:29.955Z</time></trkpt><trkpt lat="43.6719283" lon="12.7221842"><ele>301.8</ele><time>2026-03-22T10:44:30.949Z</time></trkpt><trkpt lat="43.6720261" lon="12.7222518"><ele>300.2</ele><time>2026-03-22T10:44:31.964Z</time></trkpt><trkpt lat="43.6721143" lon="12.7223218"><ele>298.6</ele><time>2026-03-22T10:44:32.954Z</time></trkpt><trkpt lat="43.6722019" lon="12.7223948"><ele>297.0</ele><time>2026-03-22T10:44:33.959Z</time></trkpt><trkpt lat="43.6722816" lon="12.7224834"><ele>295.2</ele><time>2026-03-22T10:44:34.948Z</time></trkpt><trkpt lat="43.6723624" lon="12.7225762"><ele>293.4</ele><time>2026-03-22T10:44:35.946Z</time></trkpt><trkpt lat="43.6724357" lon="12.7226808"><ele>291.6</ele><time>2026-03-22T10:44:36.944Z</time></trkpt><trkpt lat="43.6725094" lon="12.722772"><ele>289.8</ele><time>2026-03-22T10:44:37.953Z</time></trkpt><trkpt lat="43.6725781" lon="12.7228951"><ele>288.0</ele><time>2026-03-22T10:44:38.948Z</time></trkpt><trkpt lat="43.6726502" lon="12.7230067"><ele>286.2</ele><time>2026-03-22T10:44:39.947Z</time></trkpt><trkpt lat="43.6726917" lon="12.7231214"><ele>284.4</ele><time>2026-03-22T10:44:40.955Z</time></trkpt><trkpt lat="43.6727056" lon="12.7232392"><ele>282.59999999999997</ele><time>2026-03-22T10:44:41.947Z</time></trkpt><trkpt lat="43.6727338" lon="12.7233909"><ele>280.8</ele><time>2026-03-22T10:44:42.946Z</time></trkpt><trkpt lat="43.6727475" lon="12.7235474"><ele>279.0</ele><time>2026-03-22T10:44:43.942Z</time></trkpt><trkpt lat="43.6727634" lon="12.7237004"><ele>273.75</ele><time>2026-03-22T10:44:44.944Z</time></trkpt><trkpt lat="43.6727751" lon="12.7238757"><ele>268.5</ele><time>2026-03-22T10:44:45.942Z</time></trkpt><trkpt lat="43.6728193" lon="12.7240868"><ele>263.25</ele><time>2026-03-22T10:44:46.937Z</time></trkpt><trkpt lat="43.6728472" lon="12.7242357"><ele>258.0</ele><time>2026-03-22T10:44:47.935Z</time></trkpt><trkpt lat="43.6728834" lon="12.7243829"><ele>255.75</ele><time>2026-03-22T10:44:48.924Z</time></trkpt><trkpt lat="43.6728363" lon="12.7244925"><ele>253.5</ele><time>2026-03-22T10:44:49.94Z</time></trkpt><trkpt lat="43.6730411" lon="12.7244993"><ele>251.25</ele><time>2026-03-22T10:44:51.952Z</time></trkpt><trkpt lat="43.673161" lon="12.7245549"><ele>249.0</ele><time>2026-03-22T10:44:52.95Z</time></trkpt><trkpt lat="43.6732126" lon="12.7246962"><ele>249.0</ele><time>2026-03-22T10:44:53.956Z</time></trkpt><trkpt lat="43.6732573" lon="12.7248192"><ele>249.0</ele><time>2026-03-22T10:44:54.95Z</time></trkpt><trkpt lat="43.6733213" lon="12.7249112"><ele>249.0</ele><time>2026-03-22T10:44:55.948Z</time></trkpt><trkpt lat="43.673342" lon="12.7250445"><ele>249.0</ele><time>2026-03-22T10:44:56.952Z</time></trkpt><trkpt lat="43.6734004" lon="12.7252499"><ele>249.5</ele><time>2026-03-22T10:44:57.954Z</time></trkpt><trkpt lat="43.6734288" lon="12.7254145"><ele>250.0</ele><time>2026-03-22T10:44:58.96Z</time></trkpt><trkpt lat="43.6735039" lon="12.7255045"><ele>250.5</ele><time>2026-03-22T10:44:59.955Z</time></trkpt><trkpt lat="43.6736185" lon="12.7255705"><ele>251.0</ele><time>2026-03-22T10:45:00.945Z</time></trkpt><trkpt lat="43.6737238" lon="12.7256549"><ele>247.83333333333334</ele><time>2026-03-22T10:45:01.948Z</time></trkpt><trkpt lat="43.6738119" lon="12.7256768"><ele>244.66666666666669</ele><time>2026-03-22T10:45:02.959Z</time></trkpt><trkpt lat="43.6738886" lon="12.7256975"><ele>241.5</ele><time>2026-03-22T10:45:03.956Z</time></trkpt><trkpt lat="43.6739671" lon="12.7257078"><ele>238.33333333333331</ele><time>2026-03-22T10:45:04.953Z</time></trkpt><trkpt lat="43.6740341" lon="12.7257374"><ele>235.16666666666666</ele><time>2026-03-22T10:45:05.967Z</time></trkpt><trkpt lat="43.6741286" lon="12.7257954"><ele>232.0</ele><time>2026-03-22T10:45:06.944Z</time></trkpt><trkpt lat="43.6741951" lon="12.7258771"><ele>232.0</ele><time>2026-03-22T10:45:07.954Z</time></trkpt><trkpt lat="43.6742419" lon="12.7259909"><ele>232.0</ele><time>2026-03-22T10:45:08.954Z</time></trkpt><trkpt lat="43.6742913" lon="12.7261074"><ele>232.0</ele><time>2026-03-22T10:45:09.943Z</time></trkpt><trkpt lat="43.6743162" lon="12.7262471"><ele>232.0</ele><time>2026-03-22T10:45:10.94Z</time></trkpt><trkpt lat="43.6743565" lon="12.7263623"><ele>232.0</ele><time>2026-03-22T10:45:11.927Z</time></trkpt><trkpt lat="43.67442" lon="12.7265439"><ele>228.5</ele><time>2026-03-22T10:45:13.936Z</time></trkpt><trkpt lat="43.6745491" lon="12.72656"><ele>225.0</ele><time>2026-03-22T10:45:14.94Z</time></trkpt><trkpt lat="43.6746578" lon="12.7265959"><ele>221.5</ele><time>2026-03-22T10:45:15.951Z</time></trkpt><trkpt lat="43.6747222" lon="12.7267523"><ele>218.0</ele><time>2026-03-22T10:45:17.944Z</time></trkpt><trkpt lat="43.674802" lon="12.7268016"><ele>218.0</ele><time>2026-03-22T10:45:18.953Z</time></trkpt><trkpt lat="43.6748827" lon="12.7266572"><ele>218.0</ele><time>2026-03-22T10:45:19.952Z</time></trkpt><trkpt lat="43.6751133" lon="12.7266797"><ele>218.0</ele><time>2026-03-22T10:45:20.955Z</time></trkpt><trkpt lat="43.6752568" lon="12.7266846"><ele>215.0</ele><time>2026-03-22T10:45:22.943Z</time></trkpt><trkpt lat="43.6755047" lon="12.7266588"><ele>212.0</ele><time>2026-03-22T10:45:23.951Z</time></trkpt><trkpt lat="43.6755702" lon="12.7266847"><ele>209.0</ele><time>2026-03-22T10:45:24.951Z</time></trkpt><trkpt lat="43.6757039" lon="12.7267461"><ele>209.0</ele><time>2026-03-22T10:45:25.949Z</time></trkpt><trkpt lat="43.6757918" lon="12.72676"><ele>209.0</ele><time>2026-03-22T10:45:26.946Z</time></trkpt><trkpt lat="43.6758753" lon="12.7267693"><ele>209.0</ele><time>2026-03-22T10:45:28.957Z</time></trkpt><trkpt lat="43.6759638" lon="12.726698"><ele>209.0</ele><time>2026-03-22T10:45:31.951Z</time></trkpt><trkpt lat="43.6760209" lon="12.7265836"><ele>209.0</ele><time>2026-03-22T10:45:32.96Z</time></trkpt><trkpt lat="43.6760802" lon="12.7264699"><ele>209.0</ele><time>2026-03-22T10:45:33.961Z</time></trkpt><trkpt lat="43.6760813" lon="12.7263067"><ele>209.0</ele><time>2026-03-22T10:45:34.95Z</time></trkpt><trkpt lat="43.676" lon="12.7261048"><ele>209.0</ele><time>2026-03-22T10:45:35.954Z</time></trkpt><trkpt lat="43.6759548" lon="12.7258809"><ele>209.0</ele><time>2026-03-22T10:45:36.947Z</time></trkpt><trkpt lat="43.6758573" lon="12.7256635"><ele>209.0</ele><time>2026-03-22T10:45:37.97Z</time></trkpt><trkpt lat="43.6757836" lon="12.7254114"><ele>209.0</ele><time>2026-03-22T10:45:38.967Z</time></trkpt><trkpt lat="43.6757438" lon="12.7252458"><ele>211.5</ele><time>2026-03-22T10:45:39.966Z</time></trkpt><trkpt lat="43.6757615" lon="12.7250757"><ele>214.0</ele><time>2026-03-22T10:45:40.965Z</time></trkpt><trkpt lat="43.6758054" lon="12.7249063"><ele>216.5</ele><time>2026-03-22T10:45:41.97Z</time></trkpt><trkpt lat="43.6758616" lon="12.7247398"><ele>219.0</ele><time>2026-03-22T10:45:42.964Z</time></trkpt><trkpt lat="43.6759194" lon="12.7245821"><ele>219.0</ele><time>2026-03-22T10:45:43.971Z</time></trkpt><trkpt lat="43.6759833" lon="12.7244324"><ele>219.0</ele><time>2026-03-22T10:45:44.964Z</time></trkpt><trkpt lat="43.6760547" lon="12.7242816"><ele>219.0</ele><time>2026-03-22T10:45:45.962Z</time></trkpt><trkpt lat="43.6761308" lon="12.7241408"><ele>219.0</ele><time>2026-03-22T10:45:46.969Z</time></trkpt><trkpt lat="43.6762062" lon="12.724018"><ele>218.0</ele><time>2026-03-22T10:45:47.961Z</time></trkpt><trkpt lat="43.6762691" lon="12.7239114"><ele>216.99999999999997</ele><time>2026-03-22T10:45:48.952Z</time></trkpt><trkpt lat="43.6763264" lon="12.7237991"><ele>215.99999999999997</ele><time>2026-03-22T10:45:49.965Z</time></trkpt><trkpt lat="43.6763803" lon="12.7236954"><ele>215.0</ele><time>2026-03-22T10:45:50.958Z</time></trkpt><trkpt lat="43.6763843" lon="12.7235898"><ele>214.0</ele><time>2026-03-22T10:45:51.956Z</time></trkpt><trkpt lat="43.676356" lon="12.7233874"><ele>214.0</ele><time>2026-03-22T10:45:53.943Z</time></trkpt><trkpt lat="43.6763405" lon="12.7232353"><ele>213.99999999999997</ele><time>2026-03-22T10:45:54.955Z</time></trkpt><trkpt lat="43.6763188" lon="12.7230897"><ele>213.99999999999997</ele><time>2026-03-22T10:45:55.953Z</time></trkpt><trkpt lat="43.6763252" lon="12.7229278"><ele>214.0</ele><time>2026-03-22T10:45:56.954Z</time></trkpt><trkpt lat="43.6763433" lon="12.7227804"><ele>214.0</ele><time>2026-03-22T10:45:57.953Z</time></trkpt><trkpt lat="43.6763952" lon="12.7226516"><ele>215.99999999999997</ele><time>2026-03-22T10:45:58.951Z</time></trkpt><trkpt lat="43.6764683" lon="12.7225708"><ele>218.0</ele><time>2026-03-22T10:45:59.954Z</time></trkpt><trkpt lat="43.6765381" lon="12.7224845"><ele>220.0</ele><time>2026-03-22T10:46:00.956Z</time></trkpt><trkpt lat="43.6766164" lon="12.7224124"><ele>222.0</ele><time>2026-03-22T10:46:01.952Z</time></trkpt><trkpt lat="43.6766872" lon="12.7223481"><ele>223.99999999999997</ele><time>2026-03-22T10:46:02.951Z</time></trkpt><trkpt lat="43.6767536" lon="12.7223055"><ele>226.0</ele><time>2026-03-22T10:46:03.951Z</time></trkpt><trkpt lat="43.6768479" lon="12.7222691"><ele>226.0</ele><time>2026-03-22T10:46:04.957Z</time></trkpt><trkpt lat="43.6769348" lon="12.722227"><ele>226.00000000000003</ele><time>2026-03-22T10:46:05.956Z</time></trkpt><trkpt lat="43.6770045" lon="12.7221464"><ele>226.00000000000003</ele><time>2026-03-22T10:46:06.963Z</time></trkpt><trkpt lat="43.6770678" lon="12.7220503"><ele>226.0</ele><time>2026-03-22T10:46:07.965Z</time></trkpt><trkpt lat="43.677106" lon="12.7219528"><ele>226.0</ele><time>2026-03-22T10:46:08.953Z</time></trkpt><trkpt lat="43.6771697" lon="12.7218572"><ele>225.0</ele><time>2026-03-22T10:46:09.956Z</time></trkpt><trkpt lat="43.6772077" lon="12.7217041"><ele>224.0</ele><time>2026-03-22T10:46:10.972Z</time></trkpt><trkpt lat="43.6772426" lon="12.7215771"><ele>223.0</ele><time>2026-03-22T10:46:11.955Z</time></trkpt><trkpt lat="43.6772366" lon="12.7214222"><ele>222.0</ele><time>2026-03-22T10:46:12.955Z</time></trkpt><trkpt lat="43.6773043" lon="12.7212412"><ele>223.66666666666669</ele><time>2026-03-22T10:46:13.952Z</time></trkpt><trkpt lat="43.6773713" lon="12.7210553"><ele>225.33333333333334</ele><time>2026-03-22T10:46:14.944Z</time></trkpt><trkpt lat="43.6774545" lon="12.7208783"><ele>227.0</ele><time>2026-03-22T10:46:15.959Z</time></trkpt><trkpt lat="43.6775749" lon="12.72072"><ele>227.0</ele><time>2026-03-22T10:46:16.951Z</time></trkpt><trkpt lat="43.677722" lon="12.720607"><ele>227.0</ele><time>2026-03-22T10:46:17.956Z</time></trkpt><trkpt lat="43.6778522" lon="12.7204657"><ele>227.0</ele><time>2026-03-22T10:46:18.946Z</time></trkpt><trkpt lat="43.6779092" lon="12.7203616"><ele>227.0</ele><time>2026-03-22T10:46:19.955Z</time></trkpt><trkpt lat="43.6779633" lon="12.7202911"><ele>224.33333333333334</ele><time>2026-03-22T10:46:20.957Z</time></trkpt><trkpt lat="43.6780903" lon="12.7201912"><ele>221.66666666666669</ele><time>2026-03-22T10:46:21.951Z</time></trkpt><trkpt lat="43.6783088" lon="12.7200668"><ele>219.0</ele><time>2026-03-22T10:46:22.95Z</time></trkpt><trkpt lat="43.6784522" lon="12.7200082"><ele>217.0</ele><time>2026-03-22T10:46:23.943Z</time></trkpt><trkpt lat="43.6786299" lon="12.7199276"><ele>215.0</ele><time>2026-03-22T10:46:24.947Z</time></trkpt><trkpt lat="43.6787637" lon="12.7198805"><ele>213.0</ele><time>2026-03-22T10:46:25.95Z</time></trkpt><trkpt lat="43.6788913" lon="12.7198474"><ele>213.0</ele><time>2026-03-22T10:46:26.96Z</time></trkpt><trkpt lat="43.679008" lon="12.7198298"><ele>213.0</ele><time>2026-03-22T10:46:27.958Z</time></trkpt><trkpt lat="43.6791319" lon="12.7198183"><ele>213.0</ele><time>2026-03-22T10:46:28.963Z</time></trkpt><trkpt lat="43.6792617" lon="12.7198199"><ele>213.0</ele><time>2026-03-22T10:46:29.963Z</time></trkpt><trkpt lat="43.6793852" lon="12.7198195"><ele>211.8</ele><time>2026-03-22T10:46:30.961Z</time></trkpt><trkpt lat="43.6795001" lon="12.7198055"><ele>210.60000000000002</ele><time>2026-03-22T10:46:31.959Z</time></trkpt><trkpt lat="43.6796107" lon="12.7197961"><ele>209.39999999999998</ele><time>2026-03-22T10:46:32.957Z</time></trkpt><trkpt lat="43.6797149" lon="12.7197801"><ele>208.2</ele><time>2026-03-22T10:46:33.972Z</time></trkpt><trkpt lat="43.6798261" lon="12.7197418"><ele>207.0</ele><time>2026-03-22T10:46:34.97Z</time></trkpt><trkpt lat="43.6799503" lon="12.7196994"><ele>207.0</ele><time>2026-03-22T10:46:35.967Z</time></trkpt><trkpt lat="43.6800638" lon="12.7196704"><ele>207.0</ele><time>2026-03-22T10:46:36.958Z</time></trkpt><trkpt lat="43.6801782" lon="12.7196462"><ele>207.0</ele><time>2026-03-22T10:46:37.971Z</time></trkpt><trkpt lat="43.6802937" lon="12.7196466"><ele>207.0</ele><time>2026-03-22T10:46:38.972Z</time></trkpt><trkpt lat="43.6804046" lon="12.7196637"><ele>201.8</ele><time>2026-03-22T10:46:39.962Z</time></trkpt><trkpt lat="43.6805057" lon="12.7196817"><ele>196.6</ele><time>2026-03-22T10:46:40.971Z</time></trkpt><trkpt lat="43.6805999" lon="12.7196728"><ele>191.4</ele><time>2026-03-22T10:46:41.971Z</time></trkpt><trkpt lat="43.6806816" lon="12.7196436"><ele>186.20000000000002</ele><time>2026-03-22T10:46:42.979Z</time></trkpt><trkpt lat="43.6807575" lon="12.719552"><ele>181.0</ele><time>2026-03-22T10:46:43.971Z</time></trkpt><trkpt lat="43.6808315" lon="12.7194252"><ele>182.25</ele><time>2026-03-22T10:46:44.962Z</time></trkpt><trkpt lat="43.6808954" lon="12.7192872"><ele>183.5</ele><time>2026-03-22T10:46:45.964Z</time></trkpt><trkpt lat="43.680947" lon="12.7191079"><ele>184.75</ele><time>2026-03-22T10:46:46.95Z</time></trkpt><trkpt lat="43.6809969" lon="12.7189206"><ele>186.0</ele><time>2026-03-22T10:46:47.956Z</time></trkpt><trkpt lat="43.6810268" lon="12.7187578"><ele>186.0</ele><time>2026-03-22T10:46:48.96Z</time></trkpt><trkpt lat="43.6810468" lon="12.7185966"><ele>186.0</ele><time>2026-03-22T10:46:49.957Z</time></trkpt><trkpt lat="43.6810536" lon="12.7184394"><ele>186.0</ele><time>2026-03-22T10:46:50.959Z</time></trkpt><trkpt lat="43.6810501" lon="12.7182877"><ele>186.0</ele><time>2026-03-22T10:46:51.963Z</time></trkpt><trkpt lat="43.6810494" lon="12.7181348"><ele>185.0</ele><time>2026-03-22T10:46:52.952Z</time></trkpt><trkpt lat="43.6810565" lon="12.7180069"><ele>184.0</ele><time>2026-03-22T10:46:53.976Z</time></trkpt><trkpt lat="43.6811066" lon="12.7178971"><ele>183.0</ele><time>2026-03-22T10:46:54.971Z</time></trkpt><trkpt lat="43.6812005" lon="12.7178004"><ele>182.0</ele><time>2026-03-22T10:46:55.97Z</time></trkpt><trkpt lat="43.6813206" lon="12.7177393"><ele>181.0</ele><time>2026-03-22T10:46:56.969Z</time></trkpt><trkpt lat="43.6814644" lon="12.7177188"><ele>177.75</ele><time>2026-03-22T10:46:57.964Z</time></trkpt><trkpt lat="43.6816027" lon="12.7177196"><ele>174.5</ele><time>2026-03-22T10:46:58.97Z</time></trkpt><trkpt lat="43.6817472" lon="12.7177449"><ele>171.25</ele><time>2026-03-22T10:46:59.955Z</time></trkpt><trkpt lat="43.6818821" lon="12.7177459"><ele>168.0</ele><time>2026-03-22T10:47:00.969Z</time></trkpt><trkpt lat="43.6819894" lon="12.7177072"><ele>165.4</ele><time>2026-03-22T10:47:01.959Z</time></trkpt><trkpt lat="43.6820864" lon="12.7176523"><ele>162.8</ele><time>2026-03-22T10:47:02.949Z</time></trkpt><trkpt lat="43.6821713" lon="12.7176064"><ele>160.2</ele><time>2026-03-22T10:47:03.955Z</time></trkpt><trkpt lat="43.6822628" lon="12.71757"><ele>157.6</ele><time>2026-03-22T10:47:04.955Z</time></trkpt><trkpt lat="43.6823738" lon="12.7175889"><ele>155.0</ele><time>2026-03-22T10:47:05.953Z</time></trkpt><trkpt lat="43.6824829" lon="12.717656"><ele>154.2</ele><time>2026-03-22T10:47:06.957Z</time></trkpt><trkpt lat="43.6825925" lon="12.7177421"><ele>153.4</ele><time>2026-03-22T10:47:07.966Z</time></trkpt><trkpt lat="43.6826591" lon="12.7178358"><ele>152.6</ele><time>2026-03-22T10:47:08.961Z</time></trkpt><trkpt lat="43.6827283" lon="12.7179765"><ele>151.8</ele><time>2026-03-22T10:47:09.949Z</time></trkpt><trkpt lat="43.6828032" lon="12.7180764"><ele>151.0</ele><time>2026-03-22T10:47:10.953Z</time></trkpt><trkpt lat="43.6828829" lon="12.7181306"><ele>151.4</ele><time>2026-03-22T10:47:11.953Z</time></trkpt><trkpt lat="43.682964" lon="12.7181249"><ele>151.8</ele><time>2026-03-22T10:47:12.951Z</time></trkpt><trkpt lat="43.6830549" lon="12.7180533"><ele>152.20000000000002</ele><time>2026-03-22T10:47:13.959Z</time></trkpt><trkpt lat="43.6831447" lon="12.7179426"><ele>152.6</ele><time>2026-03-22T10:47:14.956Z</time></trkpt><trkpt lat="43.6832248" lon="12.717796"><ele>153.0</ele><time>2026-03-22T10:47:15.951Z</time></trkpt><trkpt lat="43.6833184" lon="12.7176753"><ele>153.0</ele><time>2026-03-22T10:47:16.95Z</time></trkpt><trkpt lat="43.6834128" lon="12.7175791"><ele>153.0</ele><time>2026-03-22T10:47:17.961Z</time></trkpt><trkpt lat="43.6835143" lon="12.7175188"><ele>153.0</ele><time>2026-03-22T10:47:18.961Z</time></trkpt><trkpt lat="43.6836124" lon="12.7175074"><ele>153.0</ele><time>2026-03-22T10:47:19.961Z</time></trkpt><trkpt lat="43.6837191" lon="12.7175373"><ele>153.0</ele><time>2026-03-22T10:47:20.953Z</time></trkpt><trkpt lat="43.683843" lon="12.7176089"><ele>152.0</ele><time>2026-03-22T10:47:21.954Z</time></trkpt><trkpt lat="43.6839688" lon="12.7176951"><ele>151.0</ele><time>2026-03-22T10:47:22.961Z</time></trkpt><trkpt lat="43.6840868" lon="12.7177897"><ele>150.0</ele><time>2026-03-22T10:47:23.958Z</time></trkpt><trkpt lat="43.6841902" lon="12.7178495"><ele>149.0</ele><time>2026-03-22T10:47:24.963Z</time></trkpt><trkpt lat="43.6842798" lon="12.7178667"><ele>149.0</ele><time>2026-03-22T10:47:25.953Z</time></trkpt><trkpt lat="43.6843694" lon="12.7178304"><ele>149.0</ele><time>2026-03-22T10:47:26.955Z</time></trkpt><trkpt lat="43.6844887" lon="12.7177638"><ele>149.0</ele><time>2026-03-22T10:47:27.953Z</time></trkpt><trkpt lat="43.6846299" lon="12.7176898"><ele>149.0</ele><time>2026-03-22T10:47:28.942Z</time></trkpt><trkpt lat="43.6847626" lon="12.7176294"><ele>149.0</ele><time>2026-03-22T10:47:29.948Z</time></trkpt><trkpt lat="43.684871" lon="12.7175567"><ele>149.0</ele><time>2026-03-22T10:47:30.94Z</time></trkpt><trkpt lat="43.6849637" lon="12.7174448"><ele>149.0</ele><time>2026-03-22T10:47:31.955Z</time></trkpt><trkpt lat="43.6850124" lon="12.7173211"><ele>149.0</ele><time>2026-03-22T10:47:32.938Z</time></trkpt><trkpt lat="43.6850532" lon="12.7171941"><ele>149.0</ele><time>2026-03-22T10:47:33.949Z</time></trkpt><trkpt lat="43.6850876" lon="12.7170111"><ele>150.33333333333331</ele><time>2026-03-22T10:47:34.953Z</time></trkpt><trkpt lat="43.6851045" lon="12.7168078"><ele>151.66666666666666</ele><time>2026-03-22T10:47:35.941Z</time></trkpt><trkpt lat="43.6851015" lon="12.7165847"><ele>153.0</ele><time>2026-03-22T10:47:36.941Z</time></trkpt><trkpt lat="43.6851106" lon="12.7163674"><ele>153.0</ele><time>2026-03-22T10:47:37.955Z</time></trkpt><trkpt lat="43.6851189" lon="12.7161371"><ele>153.0</ele><time>2026-03-22T10:47:38.949Z</time></trkpt><trkpt lat="43.6851316" lon="12.715908"><ele>153.0</ele><time>2026-03-22T10:47:39.953Z</time></trkpt><trkpt lat="43.6851638" lon="12.7157219"><ele>152.75</ele><time>2026-03-22T10:47:40.957Z</time></trkpt><trkpt lat="43.685216" lon="12.7155764"><ele>152.5</ele><time>2026-03-22T10:47:41.954Z</time></trkpt><trkpt lat="43.6852862" lon="12.7154674"><ele>152.25</ele><time>2026-03-22T10:47:42.964Z</time></trkpt><trkpt lat="43.6853882" lon="12.715382"><ele>152.0</ele><time>2026-03-22T10:47:43.957Z</time></trkpt><trkpt lat="43.685502" lon="12.7153248"><ele>150.25</ele><time>2026-03-22T10:47:44.958Z</time></trkpt><trkpt lat="43.6856366" lon="12.7152854"><ele>148.5</ele><time>2026-03-22T10:47:45.953Z</time></trkpt><trkpt lat="43.6857735" lon="12.7152658"><ele>146.75</ele><time>2026-03-22T10:47:46.968Z</time></trkpt><trkpt lat="43.6859322" lon="12.7152677"><ele>145.0</ele><time>2026-03-22T10:47:47.95Z</time></trkpt><trkpt lat="43.6860784" lon="12.715263"><ele>144.0</ele><time>2026-03-22T10:47:48.961Z</time></trkpt><trkpt lat="43.6861876" lon="12.7152577"><ele>143.0</ele><time>2026-03-22T10:47:49.948Z</time></trkpt><trkpt lat="43.6862866" lon="12.7152421"><ele>142.0</ele><time>2026-03-22T10:47:50.951Z</time></trkpt><trkpt lat="43.6863851" lon="12.7152243"><ele>141.0</ele><time>2026-03-22T10:47:51.95Z</time></trkpt><trkpt lat="43.6864921" lon="12.7152053"><ele>140.0</ele><time>2026-03-22T10:47:52.949Z</time></trkpt><trkpt lat="43.6865939" lon="12.71519"><ele>140.0</ele><time>2026-03-22T10:47:53.967Z</time></trkpt><trkpt lat="43.6867135" lon="12.7151662"><ele>140.0</ele><time>2026-03-22T10:47:54.958Z</time></trkpt><trkpt lat="43.6868401" lon="12.7151547"><ele>140.0</ele><time>2026-03-22T10:47:55.969Z</time></trkpt><trkpt lat="43.6869602" lon="12.7151523"><ele>140.0</ele><time>2026-03-22T10:47:56.968Z</time></trkpt><trkpt lat="43.687082" lon="12.7151546"><ele>141.25</ele><time>2026-03-22T10:47:57.964Z</time></trkpt><trkpt lat="43.6872018" lon="12.7151592"><ele>142.5</ele><time>2026-03-22T10:47:58.959Z</time></trkpt><trkpt lat="43.6873251" lon="12.7151775"><ele>143.75</ele><time>2026-03-22T10:47:59.963Z</time></trkpt><trkpt lat="43.6874539" lon="12.715216"><ele>145.0</ele><time>2026-03-22T10:48:00.962Z</time></trkpt><trkpt lat="43.6875865" lon="12.7152668"><ele>145.0</ele><time>2026-03-22T10:48:01.959Z</time></trkpt><trkpt lat="43.6877068" lon="12.7153248"><ele>145.0</ele><time>2026-03-22T10:48:02.956Z</time></trkpt><trkpt lat="43.6878358" lon="12.7153875"><ele>145.0</ele><time>2026-03-22T10:48:03.963Z</time></trkpt><trkpt lat="43.6879803" lon="12.7154522"><ele>145.0</ele><time>2026-03-22T10:48:04.965Z</time></trkpt><trkpt lat="43.6881291" lon="12.7155183"><ele>145.25</ele><time>2026-03-22T10:48:05.945Z</time></trkpt><trkpt lat="43.6882613" lon="12.7155818"><ele>145.5</ele><time>2026-03-22T10:48:06.947Z</time></trkpt><trkpt lat="43.688389" lon="12.7156504"><ele>145.75</ele><time>2026-03-22T10:48:07.947Z</time></trkpt><trkpt lat="43.6885121" lon="12.7157141"><ele>146.0</ele><time>2026-03-22T10:48:08.945Z</time></trkpt><trkpt lat="43.6886152" lon="12.7157818"><ele>145.6</ele><time>2026-03-22T10:48:09.945Z</time></trkpt><trkpt lat="43.6887032" lon="12.7158663"><ele>145.2</ele><time>2026-03-22T10:48:10.951Z</time></trkpt><trkpt lat="43.6887562" lon="12.7159877"><ele>144.8</ele><time>2026-03-22T10:48:11.955Z</time></trkpt><trkpt lat="43.6887961" lon="12.7161198"><ele>144.4</ele><time>2026-03-22T10:48:12.953Z</time></trkpt><trkpt lat="43.6888228" lon="12.7162525"><ele>144.0</ele><time>2026-03-22T10:48:13.946Z</time></trkpt><trkpt lat="43.6887709" lon="12.7163872"><ele>144.0</ele><time>2026-03-22T10:48:14.953Z</time></trkpt><trkpt lat="43.6886699" lon="12.716523"><ele>144.0</ele><time>2026-03-22T10:48:15.948Z</time></trkpt><trkpt lat="43.6885579" lon="12.7166414"><ele>144.0</ele><time>2026-03-22T10:48:16.949Z</time></trkpt><trkpt lat="43.6884223" lon="12.7167184"><ele>144.0</ele><time>2026-03-22T10:48:17.949Z</time></trkpt><trkpt lat="43.688272" lon="12.7167408"><ele>144.4</ele><time>2026-03-22T10:48:18.949Z</time></trkpt><trkpt lat="43.6881313" lon="12.7167038"><ele>144.8</ele><time>2026-03-22T10:48:19.945Z</time></trkpt><trkpt lat="43.688031" lon="12.7166141"><ele>145.2</ele><time>2026-03-22T10:48:20.948Z</time></trkpt><trkpt lat="43.6879499" lon="12.716528"><ele>145.6</ele><time>2026-03-22T10:48:21.96Z</time></trkpt><trkpt lat="43.687903" lon="12.7164374"><ele>146.0</ele><time>2026-03-22T10:48:22.959Z</time></trkpt><trkpt lat="43.6878801" lon="12.7163451"><ele>146.0</ele><time>2026-03-22T10:48:23.951Z</time></trkpt><trkpt lat="43.6878735" lon="12.71625"><ele>146.0</ele><time>2026-03-22T10:48:24.962Z</time></trkpt><trkpt lat="43.6878934" lon="12.716136"><ele>146.0</ele><time>2026-03-22T10:48:25.957Z</time></trkpt><trkpt lat="43.6879264" lon="12.7160026"><ele>146.0</ele><time>2026-03-22T10:48:26.969Z</time></trkpt><trkpt lat="43.6879657" lon="12.7158466"><ele>146.0</ele><time>2026-03-22T10:48:27.946Z</time></trkpt><trkpt lat="43.6880077" lon="12.715667"><ele>146.0</ele><time>2026-03-22T10:48:28.952Z</time></trkpt><trkpt lat="43.688058" lon="12.7154621"><ele>146.0</ele><time>2026-03-22T10:48:29.948Z</time></trkpt><trkpt lat="43.6881095" lon="12.7152478"><ele>146.0</ele><time>2026-03-22T10:48:30.959Z</time></trkpt><trkpt lat="43.6881754" lon="12.7150268"><ele>145.66666666666666</ele><time>2026-03-22T10:48:31.954Z</time></trkpt><trkpt lat="43.688254" lon="12.7148191"><ele>145.33333333333334</ele><time>2026-03-22T10:48:32.956Z</time></trkpt><trkpt lat="43.6883469" lon="12.7146236"><ele>145.0</ele><time>2026-03-22T10:48:33.958Z</time></trkpt><trkpt lat="43.6884399" lon="12.7144423"><ele>145.0</ele><time>2026-03-22T10:48:34.958Z</time></trkpt><trkpt lat="43.6885318" lon="12.7142705"><ele>145.0</ele><time>2026-03-22T10:48:35.952Z</time></trkpt><trkpt lat="43.6886037" lon="12.7141097"><ele>145.0</ele><time>2026-03-22T10:48:36.948Z</time></trkpt><trkpt lat="43.6886639" lon="12.7139795"><ele>145.0</ele><time>2026-03-22T10:48:37.961Z</time></trkpt><trkpt lat="43.6887231" lon="12.7138523"><ele>145.0</ele><time>2026-03-22T10:48:38.958Z</time></trkpt><trkpt lat="43.6887871" lon="12.7137474"><ele>145.0</ele><time>2026-03-22T10:48:39.962Z</time></trkpt><trkpt lat="43.6888359" lon="12.7136418"><ele>145.0</ele><time>2026-03-22T10:48:40.961Z</time></trkpt><trkpt lat="43.6888874" lon="12.7135405"><ele>145.0</ele><time>2026-03-22T10:48:41.963Z</time></trkpt><trkpt lat="43.6889209" lon="12.7134206"><ele>145.0</ele><time>2026-03-22T10:48:42.96Z</time></trkpt><trkpt lat="43.6889414" lon="12.7132987"><ele>145.6</ele><time>2026-03-22T10:48:43.96Z</time></trkpt><trkpt lat="43.6889478" lon="12.7131667"><ele>146.2</ele><time>2026-03-22T10:48:44.954Z</time></trkpt><trkpt lat="43.6889476" lon="12.7130324"><ele>146.8</ele><time>2026-03-22T10:48:45.965Z</time></trkpt><trkpt lat="43.6889471" lon="12.7128881"><ele>147.4</ele><time>2026-03-22T10:48:46.962Z</time></trkpt><trkpt lat="43.6889527" lon="12.712742"><ele>148.0</ele><time>2026-03-22T10:48:47.95Z</time></trkpt><trkpt lat="43.6889661" lon="12.7125966"><ele>148.25</ele><time>2026-03-22T10:48:48.955Z</time></trkpt><trkpt lat="43.6890129" lon="12.7124558"><ele>148.5</ele><time>2026-03-22T10:48:49.952Z</time></trkpt><trkpt lat="43.6890899" lon="12.7123025"><ele>148.75</ele><time>2026-03-22T10:48:50.956Z</time></trkpt><trkpt lat="43.6891998" lon="12.712142"><ele>149.0</ele><time>2026-03-22T10:48:51.948Z</time></trkpt><trkpt lat="43.6893144" lon="12.7119772"><ele>151.66666666666666</ele><time>2026-03-22T10:48:52.945Z</time></trkpt><trkpt lat="43.6894322" lon="12.7118277"><ele>154.33333333333334</ele><time>2026-03-22T10:48:53.941Z</time></trkpt><trkpt lat="43.6895403" lon="12.7116996"><ele>157.0</ele><time>2026-03-22T10:48:54.941Z</time></trkpt><trkpt lat="43.689646" lon="12.7115451"><ele>157.0</ele><time>2026-03-22T10:48:55.954Z</time></trkpt><trkpt lat="43.6897346" lon="12.7114026"><ele>157.0</ele><time>2026-03-22T10:48:56.946Z</time></trkpt><trkpt lat="43.6898076" lon="12.7112614"><ele>157.0</ele><time>2026-03-22T10:48:57.957Z</time></trkpt><trkpt lat="43.6898767" lon="12.7111149"><ele>157.0</ele><time>2026-03-22T10:48:58.946Z</time></trkpt><trkpt lat="43.6899612" lon="12.7109932"><ele>156.25</ele><time>2026-03-22T10:48:59.946Z</time></trkpt><trkpt lat="43.6900488" lon="12.710862"><ele>155.5</ele><time>2026-03-22T10:49:00.945Z</time></trkpt><trkpt lat="43.6901352" lon="12.7107236"><ele>154.75</ele><time>2026-03-22T10:49:01.961Z</time></trkpt><trkpt lat="43.6902182" lon="12.7105817"><ele>154.0</ele><time>2026-03-22T10:49:02.953Z</time></trkpt><trkpt lat="43.690298" lon="12.7104372"><ele>154.0</ele><time>2026-03-22T10:49:03.95Z</time></trkpt><trkpt lat="43.6903804" lon="12.7103028"><ele>154.0</ele><time>2026-03-22T10:49:04.954Z</time></trkpt><trkpt lat="43.6904645" lon="12.7101678"><ele>154.0</ele><time>2026-03-22T10:49:05.956Z</time></trkpt><trkpt lat="43.6905493" lon="12.7100279"><ele>154.0</ele><time>2026-03-22T10:49:06.955Z</time></trkpt><trkpt lat="43.6906261" lon="12.7098875"><ele>154.0</ele><time>2026-03-22T10:49:07.95Z</time></trkpt><trkpt lat="43.6907051" lon="12.7097497"><ele>154.0</ele><time>2026-03-22T10:49:08.951Z</time></trkpt><trkpt lat="43.6907813" lon="12.7096181"><ele>154.0</ele><time>2026-03-22T10:49:09.953Z</time></trkpt><trkpt lat="43.6908536" lon="12.7094976"><ele>154.0</ele><time>2026-03-22T10:49:10.96Z</time></trkpt><trkpt lat="43.690927" lon="12.7093993"><ele>153.8</ele><time>2026-03-22T10:49:11.955Z</time></trkpt><trkpt lat="43.6909902" lon="12.7093068"><ele>153.60000000000002</ele><time>2026-03-22T10:49:12.949Z</time></trkpt><trkpt lat="43.6910479" lon="12.7092268"><ele>153.4</ele><time>2026-03-22T10:49:13.946Z</time></trkpt><trkpt lat="43.6911203" lon="12.7091476"><ele>153.20000000000002</ele><time>2026-03-22T10:49:14.939Z</time></trkpt><trkpt lat="43.6912003" lon="12.7090697"><ele>153.0</ele><time>2026-03-22T10:49:15.943Z</time></trkpt><trkpt lat="43.691273" lon="12.7089949"><ele>154.5</ele><time>2026-03-22T10:49:16.953Z</time></trkpt><trkpt lat="43.6913403" lon="12.7088857"><ele>156.0</ele><time>2026-03-22T10:49:17.957Z</time></trkpt><trkpt lat="43.6914012" lon="12.7087447"><ele>157.5</ele><time>2026-03-22T10:49:18.952Z</time></trkpt><trkpt lat="43.6914514" lon="12.7086026"><ele>159.0</ele><time>2026-03-22T10:49:19.948Z</time></trkpt><trkpt lat="43.6915068" lon="12.7084451"><ele>159.0</ele><time>2026-03-22T10:49:20.956Z</time></trkpt><trkpt lat="43.6915877" lon="12.7082733"><ele>159.0</ele><time>2026-03-22T10:49:21.951Z</time></trkpt><trkpt lat="43.6916712" lon="12.7081223"><ele>159.0</ele><time>2026-03-22T10:49:22.95Z</time></trkpt><trkpt lat="43.6917463" lon="12.7079754"><ele>159.0</ele><time>2026-03-22T10:49:23.944Z</time></trkpt><trkpt lat="43.6918199" lon="12.7078121"><ele>159.25</ele><time>2026-03-22T10:49:24.948Z</time></trkpt><trkpt lat="43.6918758" lon="12.70765"><ele>159.5</ele><time>2026-03-22T10:49:25.949Z</time></trkpt><trkpt lat="43.6919043" lon="12.7074957"><ele>159.75</ele><time>2026-03-22T10:49:26.945Z</time></trkpt><trkpt lat="43.691916" lon="12.7073153"><ele>160.0</ele><time>2026-03-22T10:49:27.944Z</time></trkpt><trkpt lat="43.6919189" lon="12.7071333"><ele>160.2</ele><time>2026-03-22T10:49:28.951Z</time></trkpt><trkpt lat="43.6919285" lon="12.7069808"><ele>160.4</ele><time>2026-03-22T10:49:29.935Z</time></trkpt><trkpt lat="43.69193" lon="12.7068212"><ele>160.60000000000002</ele><time>2026-03-22T10:49:30.947Z</time></trkpt><trkpt lat="43.6919443" lon="12.7066838"><ele>160.8</ele><time>2026-03-22T10:49:31.952Z</time></trkpt><trkpt lat="43.6919587" lon="12.7065326"><ele>161.0</ele><time>2026-03-22T10:49:32.956Z</time></trkpt><trkpt lat="43.6919843" lon="12.7063699"><ele>161.0</ele><time>2026-03-22T10:49:33.942Z</time></trkpt><trkpt lat="43.6920357" lon="12.7061846"><ele>161.0</ele><time>2026-03-22T10:49:34.942Z</time></trkpt><trkpt lat="43.6920954" lon="12.7060205"><ele>161.0</ele><time>2026-03-22T10:49:35.947Z</time></trkpt><trkpt lat="43.6921482" lon="12.7058624"><ele>161.0</ele><time>2026-03-22T10:49:36.944Z</time></trkpt><trkpt lat="43.6922022" lon="12.7057191"><ele>161.25</ele><time>2026-03-22T10:49:37.945Z</time></trkpt><trkpt lat="43.6922606" lon="12.7055696"><ele>161.5</ele><time>2026-03-22T10:49:38.941Z</time></trkpt><trkpt lat="43.6923254" lon="12.7054246"><ele>161.75</ele><time>2026-03-22T10:49:39.94Z</time></trkpt><trkpt lat="43.6923853" lon="12.7052833"><ele>162.0</ele><time>2026-03-22T10:49:40.944Z</time></trkpt><trkpt lat="43.692443" lon="12.7051452"><ele>162.75</ele><time>2026-03-22T10:49:41.951Z</time></trkpt><trkpt lat="43.6924977" lon="12.7049962"><ele>163.5</ele><time>2026-03-22T10:49:42.948Z</time></trkpt><trkpt lat="43.6925554" lon="12.7048454"><ele>164.25</ele><time>2026-03-22T10:49:43.943Z</time></trkpt><trkpt lat="43.6926139" lon="12.7046833"><ele>165.0</ele><time>2026-03-22T10:49:44.95Z</time></trkpt><trkpt lat="43.692681" lon="12.7045258"><ele>165.0</ele><time>2026-03-22T10:49:45.943Z</time></trkpt><trkpt lat="43.6927388" lon="12.7043756"><ele>165.0</ele><time>2026-03-22T10:49:46.942Z</time></trkpt><trkpt lat="43.6928004" lon="12.704218"><ele>165.0</ele><time>2026-03-22T10:49:47.942Z</time></trkpt><trkpt lat="43.6928676" lon="12.7040618"><ele>165.0</ele><time>2026-03-22T10:49:48.947Z</time></trkpt><trkpt lat="43.692942" lon="12.7039099"><ele>165.5</ele><time>2026-03-22T10:49:49.944Z</time></trkpt><trkpt lat="43.6929987" lon="12.7037467"><ele>166.0</ele><time>2026-03-22T10:49:50.948Z</time></trkpt><trkpt lat="43.6930505" lon="12.7035829"><ele>166.5</ele><time>2026-03-22T10:49:51.949Z</time></trkpt><trkpt lat="43.6931026" lon="12.7034247"><ele>167.0</ele><time>2026-03-22T10:49:52.943Z</time></trkpt><trkpt lat="43.6931548" lon="12.7032686"><ele>167.0</ele><time>2026-03-22T10:49:53.943Z</time></trkpt><trkpt lat="43.6932122" lon="12.7031064"><ele>167.0</ele><time>2026-03-22T10:49:54.942Z</time></trkpt><trkpt lat="43.6932722" lon="12.7029427"><ele>167.0</ele><time>2026-03-22T10:49:55.944Z</time></trkpt><trkpt lat="43.6933294" lon="12.7027814"><ele>167.0</ele><time>2026-03-22T10:49:56.947Z</time></trkpt><trkpt lat="43.693384" lon="12.7026272"><ele>167.39999999999998</ele><time>2026-03-22T10:49:57.949Z</time></trkpt><trkpt lat="43.6934331" lon="12.7024794"><ele>167.79999999999998</ele><time>2026-03-22T10:49:58.951Z</time></trkpt><trkpt lat="43.6934823" lon="12.7023464"><ele>168.2</ele><time>2026-03-22T10:49:59.956Z</time></trkpt><trkpt lat="43.6935253" lon="12.7022351"><ele>168.6</ele><time>2026-03-22T10:50:00.95Z</time></trkpt><trkpt lat="43.6935552" lon="12.7021416"><ele>169.0</ele><time>2026-03-22T10:50:01.951Z</time></trkpt><trkpt lat="43.6935873" lon="12.7020659"><ele>169.39999999999998</ele><time>2026-03-22T10:50:02.953Z</time></trkpt><trkpt lat="43.6936566" lon="12.7020164"><ele>169.8</ele><time>2026-03-22T10:50:04.945Z</time></trkpt><trkpt lat="43.6937722" lon="12.7021175"><ele>170.2</ele><time>2026-03-22T10:50:06.938Z</time></trkpt><trkpt lat="43.6938454" lon="12.7021835"><ele>170.60000000000002</ele><time>2026-03-22T10:50:07.943Z</time></trkpt><trkpt lat="43.6939231" lon="12.702262"><ele>171.0</ele><time>2026-03-22T10:50:08.947Z</time></trkpt><trkpt lat="43.6940186" lon="12.7023418"><ele>171.0</ele><time>2026-03-22T10:50:09.936Z</time></trkpt><trkpt lat="43.6941229" lon="12.7024194"><ele>171.0</ele><time>2026-03-22T10:50:10.934Z</time></trkpt><trkpt lat="43.6942071" lon="12.7024884"><ele>171.0</ele><time>2026-03-22T10:50:11.943Z</time></trkpt><trkpt lat="43.6942881" lon="12.7025413"><ele>171.0</ele><time>2026-03-22T10:50:12.955Z</time></trkpt><trkpt lat="43.6943647" lon="12.7025913"><ele>171.0</ele><time>2026-03-22T10:50:13.943Z</time></trkpt><trkpt lat="43.6944683" lon="12.7026759"><ele>171.25</ele><time>2026-03-22T10:50:14.938Z</time></trkpt><trkpt lat="43.694595" lon="12.7027615"><ele>171.5</ele><time>2026-03-22T10:50:15.934Z</time></trkpt><trkpt lat="43.6947149" lon="12.7028314"><ele>171.75</ele><time>2026-03-22T10:50:16.939Z</time></trkpt><trkpt lat="43.6948104" lon="12.7029024"><ele>172.0</ele><time>2026-03-22T10:50:17.939Z</time></trkpt><trkpt lat="43.6948989" lon="12.7029577"><ele>172.0</ele><time>2026-03-22T10:50:18.947Z</time></trkpt><trkpt lat="43.6949822" lon="12.7029917"><ele>172.0</ele><time>2026-03-22T10:50:19.939Z</time></trkpt><trkpt lat="43.6950544" lon="12.7030324"><ele>172.0</ele><time>2026-03-22T10:50:20.939Z</time></trkpt><trkpt lat="43.6951142" lon="12.7030608"><ele>172.0</ele><time>2026-03-22T10:50:21.95Z</time></trkpt><trkpt lat="43.6952016" lon="12.703025"><ele>172.0</ele><time>2026-03-22T10:50:24.949Z</time></trkpt><trkpt lat="43.6952488" lon="12.7029447"><ele>172.0</ele><time>2026-03-22T10:50:25.944Z</time></trkpt><trkpt lat="43.6952731" lon="12.7028389"><ele>173.66666666666669</ele><time>2026-03-22T10:50:26.948Z</time></trkpt><trkpt lat="43.6952944" lon="12.7027322"><ele>175.33333333333334</ele><time>2026-03-22T10:50:27.94Z</time></trkpt><trkpt lat="43.6953302" lon="12.7026011"><ele>177.0</ele><time>2026-03-22T10:50:28.951Z</time></trkpt><trkpt lat="43.6953587" lon="12.7024958"><ele>178.66666666666666</ele><time>2026-03-22T10:50:29.944Z</time></trkpt><trkpt lat="43.6953957" lon="12.7024102"><ele>180.33333333333331</ele><time>2026-03-22T10:50:30.957Z</time></trkpt><trkpt lat="43.695497" lon="12.7023847"><ele>182.0</ele><time>2026-03-22T10:50:32.947Z</time></trkpt><trkpt lat="43.6955682" lon="12.7024634"><ele>182.0</ele><time>2026-03-22T10:50:33.944Z</time></trkpt><trkpt lat="43.6956533" lon="12.7025505"><ele>182.0</ele><time>2026-03-22T10:50:34.945Z</time></trkpt><trkpt lat="43.6957528" lon="12.7026265"><ele>182.0</ele><time>2026-03-22T10:50:35.941Z</time></trkpt><trkpt lat="43.6958567" lon="12.7027001"><ele>182.0</ele><time>2026-03-22T10:50:36.937Z</time></trkpt><trkpt lat="43.6959599" lon="12.7027785"><ele>181.75</ele><time>2026-03-22T10:50:37.935Z</time></trkpt><trkpt lat="43.6960644" lon="12.7028511"><ele>181.5</ele><time>2026-03-22T10:50:38.939Z</time></trkpt><trkpt lat="43.6961727" lon="12.7029335"><ele>181.25</ele><time>2026-03-22T10:50:39.94Z</time></trkpt><trkpt lat="43.6962828" lon="12.703013"><ele>181.0</ele><time>2026-03-22T10:50:40.943Z</time></trkpt><trkpt lat="43.6963928" lon="12.7030864"><ele>183.20000000000002</ele><time>2026-03-22T10:50:41.939Z</time></trkpt><trkpt lat="43.6965034" lon="12.7031587"><ele>185.4</ele><time>2026-03-22T10:50:42.936Z</time></trkpt><trkpt lat="43.6966047" lon="12.7032198"><ele>187.6</ele><time>2026-03-22T10:50:43.945Z</time></trkpt><trkpt lat="43.6966876" lon="12.7032698"><ele>189.8</ele><time>2026-03-22T10:50:44.935Z</time></trkpt><trkpt lat="43.696743" lon="12.7033115"><ele>192.0</ele><time>2026-03-22T10:50:45.946Z</time></trkpt><trkpt lat="43.6967472" lon="12.7034393"><ele>192.0</ele><time>2026-03-22T10:50:47.947Z</time></trkpt><trkpt lat="43.6966833" lon="12.7035276"><ele>192.0</ele><time>2026-03-22T10:50:48.945Z</time></trkpt><trkpt lat="43.6966035" lon="12.7036502"><ele>192.0</ele><time>2026-03-22T10:50:49.947Z</time></trkpt><trkpt lat="43.6965336" lon="12.7038088"><ele>192.0</ele><time>2026-03-22T10:50:50.944Z</time></trkpt><trkpt lat="43.6964799" lon="12.7039647"><ele>192.6</ele><time>2026-03-22T10:50:51.93Z</time></trkpt><trkpt lat="43.6964333" lon="12.704104"><ele>193.2</ele><time>2026-03-22T10:50:52.935Z</time></trkpt><trkpt lat="43.6963916" lon="12.704262"><ele>193.8</ele><time>2026-03-22T10:50:53.932Z</time></trkpt><trkpt lat="43.6963497" lon="12.7044061"><ele>194.4</ele><time>2026-03-22T10:50:54.941Z</time></trkpt><trkpt lat="43.696328" lon="12.7045329"><ele>195.0</ele><time>2026-03-22T10:50:55.94Z</time></trkpt><trkpt lat="43.6963281" lon="12.7046998"><ele>196.0</ele><time>2026-03-22T10:50:56.937Z</time></trkpt><trkpt lat="43.6963392" lon="12.7048675"><ele>197.0</ele><time>2026-03-22T10:50:57.932Z</time></trkpt><trkpt lat="43.6963517" lon="12.7050368"><ele>198.0</ele><time>2026-03-22T10:50:58.938Z</time></trkpt><trkpt lat="43.6964124" lon="12.7052141"><ele>199.0</ele><time>2026-03-22T10:50:59.935Z</time></trkpt><trkpt lat="43.6964655" lon="12.7053803"><ele>199.0</ele><time>2026-03-22T10:51:00.923Z</time></trkpt><trkpt lat="43.6965227" lon="12.7055412"><ele>199.0</ele><time>2026-03-22T10:51:01.933Z</time></trkpt><trkpt lat="43.6965714" lon="12.705711"><ele>199.0</ele><time>2026-03-22T10:51:02.936Z</time></trkpt><trkpt lat="43.6966168" lon="12.7058935"><ele>199.0</ele><time>2026-03-22T10:51:03.931Z</time></trkpt><trkpt lat="43.6966532" lon="12.7060743"><ele>200.25</ele><time>2026-03-22T10:51:04.943Z</time></trkpt><trkpt lat="43.696648" lon="12.7062521"><ele>201.5</ele><time>2026-03-22T10:51:05.949Z</time></trkpt><trkpt lat="43.6965815" lon="12.7063975"><ele>202.75</ele><time>2026-03-22T10:51:06.946Z</time></trkpt><trkpt lat="43.6964762" lon="12.7065313"><ele>204.0</ele><time>2026-03-22T10:51:07.945Z</time></trkpt><trkpt lat="43.6963571" lon="12.7066596"><ele>204.0</ele><time>2026-03-22T10:51:08.939Z</time></trkpt><trkpt lat="43.6962308" lon="12.7067935"><ele>204.0</ele><time>2026-03-22T10:51:09.94Z</time></trkpt><trkpt lat="43.6961151" lon="12.7069416"><ele>204.0</ele><time>2026-03-22T10:51:10.938Z</time></trkpt><trkpt lat="43.6959961" lon="12.7071115"><ele>203.33333333333331</ele><time>2026-03-22T10:51:11.936Z</time></trkpt><trkpt lat="43.6958827" lon="12.7072728"><ele>202.66666666666666</ele><time>2026-03-22T10:51:12.931Z</time></trkpt><trkpt lat="43.6957712" lon="12.707436"><ele>202.0</ele><time>2026-03-22T10:51:13.939Z</time></trkpt><trkpt lat="43.6956765" lon="12.7075953"><ele>204.75</ele><time>2026-03-22T10:51:14.942Z</time></trkpt><trkpt lat="43.6956181" lon="12.7077668"><ele>207.5</ele><time>2026-03-22T10:51:15.936Z</time></trkpt><trkpt lat="43.6955741" lon="12.7079519"><ele>210.25</ele><time>2026-03-22T10:51:16.939Z</time></trkpt><trkpt lat="43.6955435" lon="12.7081471"><ele>213.0</ele><time>2026-03-22T10:51:17.938Z</time></trkpt><trkpt lat="43.6954813" lon="12.7083297"><ele>213.0</ele><time>2026-03-22T10:51:18.941Z</time></trkpt><trkpt lat="43.6953913" lon="12.7084724"><ele>213.0</ele><time>2026-03-22T10:51:19.941Z</time></trkpt><trkpt lat="43.6952732" lon="12.7085627"><ele>213.0</ele><time>2026-03-22T10:51:20.941Z</time></trkpt><trkpt lat="43.6951447" lon="12.7086019"><ele>213.0</ele><time>2026-03-22T10:51:21.942Z</time></trkpt><trkpt lat="43.6950407" lon="12.70867"><ele>211.75</ele><time>2026-03-22T10:51:22.841Z</time></trkpt><trkpt lat="43.6949554" lon="12.7087643"><ele>210.5</ele><time>2026-03-22T10:51:23.749Z</time></trkpt><trkpt lat="43.6948983" lon="12.7089099"><ele>209.25</ele><time>2026-03-22T10:51:24.699Z</time></trkpt><trkpt lat="43.6948842" lon="12.7090706"><ele>208.0</ele><time>2026-03-22T10:51:25.69Z</time></trkpt><trkpt lat="43.6948875" lon="12.7092325"><ele>208.0</ele><time>2026-03-22T10:51:26.687Z</time></trkpt><trkpt lat="43.6949019" lon="12.7093965"><ele>208.0</ele><time>2026-03-22T10:51:27.693Z</time></trkpt><trkpt lat="43.69492" lon="12.7095591"><ele>208.0</ele><time>2026-03-22T10:51:28.687Z</time></trkpt><trkpt lat="43.6949352" lon="12.7096982"><ele>208.0</ele><time>2026-03-22T10:51:29.697Z</time></trkpt><trkpt lat="43.6949626" lon="12.7098101"><ele>208.0</ele><time>2026-03-22T10:51:30.692Z</time></trkpt><trkpt lat="43.6949912" lon="12.7099023"><ele>209.75</ele><time>2026-03-22T10:51:31.694Z</time></trkpt><trkpt lat="43.6951117" lon="12.7099795"><ele>211.5</ele><time>2026-03-22T10:51:33.695Z</time></trkpt><trkpt lat="43.6952289" lon="12.7099604"><ele>213.25</ele><time>2026-03-22T10:51:34.686Z</time></trkpt><trkpt lat="43.6953472" lon="12.709971"><ele>215.0</ele><time>2026-03-22T10:51:35.68Z</time></trkpt><trkpt lat="43.6954635" lon="12.7100112"><ele>217.8</ele><time>2026-03-22T10:51:36.693Z</time></trkpt><trkpt lat="43.6955576" lon="12.7101012"><ele>220.6</ele><time>2026-03-22T10:51:37.682Z</time></trkpt><trkpt lat="43.6956428" lon="12.7101739"><ele>223.39999999999998</ele><time>2026-03-22T10:51:38.693Z</time></trkpt><trkpt lat="43.695733" lon="12.7102471"><ele>226.2</ele><time>2026-03-22T10:51:39.687Z</time></trkpt><trkpt lat="43.6958319" lon="12.7103327"><ele>229.0</ele><time>2026-03-22T10:51:40.689Z</time></trkpt><trkpt lat="43.6959233" lon="12.7104251"><ele>229.75</ele><time>2026-03-22T10:51:41.687Z</time></trkpt><trkpt lat="43.6960155" lon="12.7105119"><ele>230.5</ele><time>2026-03-22T10:51:42.682Z</time></trkpt><trkpt lat="43.6961111" lon="12.7106059"><ele>231.25</ele><time>2026-03-22T10:51:43.696Z</time></trkpt><trkpt lat="43.6962338" lon="12.7106988"><ele>232.0</ele><time>2026-03-22T10:51:44.68Z</time></trkpt><trkpt lat="43.6963421" lon="12.7108021"><ele>237.5</ele><time>2026-03-22T10:51:45.688Z</time></trkpt><trkpt lat="43.6964428" lon="12.7108832"><ele>243.0</ele><time>2026-03-22T10:51:46.689Z</time></trkpt><trkpt lat="43.6965498" lon="12.7109797"><ele>248.5</ele><time>2026-03-22T10:51:47.699Z</time></trkpt><trkpt lat="43.696657" lon="12.7110624"><ele>254.0</ele><time>2026-03-22T10:51:48.694Z</time></trkpt><trkpt lat="43.6967368" lon="12.7111635"><ele>254.79999999999998</ele><time>2026-03-22T10:51:49.697Z</time></trkpt><trkpt lat="43.6967678" lon="12.7112761"><ele>255.59999999999997</ele><time>2026-03-22T10:51:50.699Z</time></trkpt><trkpt lat="43.6967549" lon="12.7114076"><ele>256.4</ele><time>2026-03-22T10:51:51.691Z</time></trkpt><trkpt lat="43.6967429" lon="12.7115578"><ele>257.2</ele><time>2026-03-22T10:51:52.688Z</time></trkpt><trkpt lat="43.6967299" lon="12.7117175"><ele>258.0</ele><time>2026-03-22T10:51:53.678Z</time></trkpt><trkpt lat="43.6967245" lon="12.7118797"><ele>258.75</ele><time>2026-03-22T10:51:54.684Z</time></trkpt><trkpt lat="43.6967135" lon="12.7120557"><ele>259.5</ele><time>2026-03-22T10:51:55.683Z</time></trkpt><trkpt lat="43.6967061" lon="12.7122287"><ele>260.25</ele><time>2026-03-22T10:51:56.686Z</time></trkpt><trkpt lat="43.6967005" lon="12.7123785"><ele>261.0</ele><time>2026-03-22T10:51:57.689Z</time></trkpt><trkpt lat="43.696699" lon="12.712501"><ele>261.0</ele><time>2026-03-22T10:51:58.685Z</time></trkpt><trkpt lat="43.6966937" lon="12.7126042"><ele>261.0</ele><time>2026-03-22T10:51:59.693Z</time></trkpt><trkpt lat="43.6967035" lon="12.7126964"><ele>261.0</ele><time>2026-03-22T10:52:00.699Z</time></trkpt><trkpt lat="43.6967515" lon="12.7127904"><ele>261.0</ele><time>2026-03-22T10:52:02.689Z</time></trkpt><trkpt lat="43.6968382" lon="12.7126698"><ele>261.0</ele><time>2026-03-22T10:52:04.684Z</time></trkpt><trkpt lat="43.6969095" lon="12.7125122"><ele>265.5</ele><time>2026-03-22T10:52:05.69Z</time></trkpt><trkpt lat="43.6969619" lon="12.7123753"><ele>270.0</ele><time>2026-03-22T10:52:06.691Z</time></trkpt><trkpt lat="43.6970269" lon="12.7122167"><ele>274.5</ele><time>2026-03-22T10:52:07.686Z</time></trkpt><trkpt lat="43.69709" lon="12.7120606"><ele>279.0</ele><time>2026-03-22T10:52:08.679Z</time></trkpt><trkpt lat="43.6971665" lon="12.7119038"><ele>279.0</ele><time>2026-03-22T10:52:09.69Z</time></trkpt><trkpt lat="43.6972451" lon="12.7117596"><ele>279.0</ele><time>2026-03-22T10:52:10.685Z</time></trkpt><trkpt lat="43.6973082" lon="12.7115998"><ele>279.0</ele><time>2026-03-22T10:52:11.69Z</time></trkpt><trkpt lat="43.6973713" lon="12.7114403"><ele>279.0</ele><time>2026-03-22T10:52:12.684Z</time></trkpt><trkpt lat="43.6974472" lon="12.7112848"><ele>279.0</ele><time>2026-03-22T10:52:13.691Z</time></trkpt><trkpt lat="43.6975329" lon="12.7111335"><ele>279.0</ele><time>2026-03-22T10:52:14.702Z</time></trkpt><trkpt lat="43.6976389" lon="12.7109744"><ele>279.0</ele><time>2026-03-22T10:52:15.696Z</time></trkpt><trkpt lat="43.6977513" lon="12.7108095"><ele>282.3333333333333</ele><time>2026-03-22T10:52:16.706Z</time></trkpt><trkpt lat="43.6978696" lon="12.7106306"><ele>285.66666666666663</ele><time>2026-03-22T10:52:17.689Z</time></trkpt><trkpt lat="43.6979604" lon="12.7104805"><ele>289.0</ele><time>2026-03-22T10:52:18.688Z</time></trkpt><trkpt lat="43.6980415" lon="12.7103177"><ele>289.75</ele><time>2026-03-22T10:52:19.69Z</time></trkpt><trkpt lat="43.6981356" lon="12.7101883"><ele>290.5</ele><time>2026-03-22T10:52:20.683Z</time></trkpt><trkpt lat="43.6982169" lon="12.7100403"><ele>291.25</ele><time>2026-03-22T10:52:21.683Z</time></trkpt><trkpt lat="43.698279" lon="12.7099184"><ele>292.0</ele><time>2026-03-22T10:52:22.69Z</time></trkpt><trkpt lat="43.6983462" lon="12.7098406"><ele>292.0</ele><time>2026-03-22T10:52:23.681Z</time></trkpt><trkpt lat="43.6984042" lon="12.7097857"><ele>292.0</ele><time>2026-03-22T10:52:24.693Z</time></trkpt><trkpt lat="43.6984705" lon="12.7097698"><ele>292.0</ele><time>2026-03-22T10:52:25.698Z</time></trkpt><trkpt lat="43.6985381" lon="12.7098077"><ele>292.0</ele><time>2026-03-22T10:52:26.699Z</time></trkpt><trkpt lat="43.6986276" lon="12.7098668"><ele>292.0</ele><time>2026-03-22T10:52:27.69Z</time></trkpt><trkpt lat="43.6987314" lon="12.7099166"><ele>292.0</ele><time>2026-03-22T10:52:28.705Z</time></trkpt><trkpt lat="43.6988267" lon="12.7099124"><ele>293.6</ele><time>2026-03-22T10:52:29.705Z</time></trkpt><trkpt lat="43.6989247" lon="12.7098641"><ele>295.2</ele><time>2026-03-22T10:52:30.7Z</time></trkpt><trkpt lat="43.6990067" lon="12.709835"><ele>296.8</ele><time>2026-03-22T10:52:31.692Z</time></trkpt><trkpt lat="43.6990904" lon="12.7098259"><ele>298.4</ele><time>2026-03-22T10:52:32.702Z</time></trkpt><trkpt lat="43.6991849" lon="12.7098636"><ele>300.0</ele><time>2026-03-22T10:52:33.705Z</time></trkpt><trkpt lat="43.699249" lon="12.7099752"><ele>300.0</ele><time>2026-03-22T10:52:34.711Z</time></trkpt><trkpt lat="43.6992992" lon="12.710124"><ele>300.0</ele><time>2026-03-22T10:52:35.697Z</time></trkpt><trkpt lat="43.6993448" lon="12.7102725"><ele>300.0</ele><time>2026-03-22T10:52:36.699Z</time></trkpt><trkpt lat="43.6993864" lon="12.710412"><ele>300.0</ele><time>2026-03-22T10:52:37.689Z</time></trkpt><trkpt lat="43.6994258" lon="12.7105443"><ele>300.0</ele><time>2026-03-22T10:52:38.697Z</time></trkpt><trkpt lat="43.6994562" lon="12.710672"><ele>305.4</ele><time>2026-03-22T10:52:39.698Z</time></trkpt><trkpt lat="43.6994731" lon="12.7107987"><ele>310.8</ele><time>2026-03-22T10:52:40.697Z</time></trkpt><trkpt lat="43.6994645" lon="12.710931"><ele>316.20000000000005</ele><time>2026-03-22T10:52:41.698Z</time></trkpt><trkpt lat="43.6994193" lon="12.7110603"><ele>321.6</ele><time>2026-03-22T10:52:42.693Z</time></trkpt><trkpt lat="43.6993452" lon="12.7111922"><ele>327.0</ele><time>2026-03-22T10:52:43.685Z</time></trkpt><trkpt lat="43.6992745" lon="12.7113197"><ele>327.0</ele><time>2026-03-22T10:52:44.689Z</time></trkpt><trkpt lat="43.6991966" lon="12.7114577"><ele>327.0</ele><time>2026-03-22T10:52:45.686Z</time></trkpt><trkpt lat="43.6991191" lon="12.7115933"><ele>327.0</ele><time>2026-03-22T10:52:46.692Z</time></trkpt><trkpt lat="43.6990443" lon="12.7117287"><ele>327.0</ele><time>2026-03-22T10:52:47.686Z</time></trkpt><trkpt lat="43.6989714" lon="12.7118574"><ele>329.75</ele><time>2026-03-22T10:52:48.68Z</time></trkpt><trkpt lat="43.6989054" lon="12.71199"><ele>332.5</ele><time>2026-03-22T10:52:49.684Z</time></trkpt><trkpt lat="43.6988478" lon="12.7121323"><ele>335.25</ele><time>2026-03-22T10:52:50.69Z</time></trkpt><trkpt lat="43.6987928" lon="12.7122754"><ele>338.0</ele><time>2026-03-22T10:52:51.69Z</time></trkpt><trkpt lat="43.6987431" lon="12.7124195"><ele>338.0</ele><time>2026-03-22T10:52:52.691Z</time></trkpt><trkpt lat="43.6986981" lon="12.7125616"><ele>338.0</ele><time>2026-03-22T10:52:53.691Z</time></trkpt><trkpt lat="43.6986487" lon="12.7126968"><ele>338.0</ele><time>2026-03-22T10:52:54.69Z</time></trkpt><trkpt lat="43.6986074" lon="12.7128427"><ele>338.0</ele><time>2026-03-22T10:52:55.695Z</time></trkpt><trkpt lat="43.698579" lon="12.7129991"><ele>339.5</ele><time>2026-03-22T10:52:56.699Z</time></trkpt><trkpt lat="43.6985823" lon="12.71316"><ele>341.0</ele><time>2026-03-22T10:52:57.699Z</time></trkpt><trkpt lat="43.6986172" lon="12.7133263"><ele>342.5</ele><time>2026-03-22T10:52:58.685Z</time></trkpt><trkpt lat="43.6986571" lon="12.7135"><ele>344.0</ele><time>2026-03-22T10:52:59.679Z</time></trkpt><trkpt lat="43.6986972" lon="12.7136717"><ele>345.75</ele><time>2026-03-22T10:53:00.695Z</time></trkpt><trkpt lat="43.6987341" lon="12.7138431"><ele>347.5</ele><time>2026-03-22T10:53:01.673Z</time></trkpt><trkpt lat="43.6987673" lon="12.714004"><ele>349.25</ele><time>2026-03-22T10:53:02.692Z</time></trkpt><trkpt lat="43.6988013" lon="12.7141604"><ele>351.0</ele><time>2026-03-22T10:53:03.68Z</time></trkpt><trkpt lat="43.6988129" lon="12.7143499"><ele>350.8</ele><time>2026-03-22T10:53:04.683Z</time></trkpt><trkpt lat="43.6988299" lon="12.7145342"><ele>350.6</ele><time>2026-03-22T10:53:05.695Z</time></trkpt><trkpt lat="43.6988382" lon="12.7147011"><ele>350.4</ele><time>2026-03-22T10:53:06.692Z</time></trkpt><trkpt lat="43.6988485" lon="12.714827"><ele>350.2</ele><time>2026-03-22T10:53:07.694Z</time></trkpt><trkpt lat="43.6988763" lon="12.7149353"><ele>350.0</ele><time>2026-03-22T10:53:08.698Z</time></trkpt><trkpt lat="43.6989206" lon="12.7149993"><ele>350.0</ele><time>2026-03-22T10:53:09.703Z</time></trkpt><trkpt lat="43.6990517" lon="12.7150412"><ele>350.0</ele><time>2026-03-22T10:53:11.692Z</time></trkpt><trkpt lat="43.6991453" lon="12.7150487"><ele>350.0</ele><time>2026-03-22T10:53:12.694Z</time></trkpt><trkpt lat="43.69924" lon="12.7150724"><ele>350.0</ele><time>2026-03-22T10:53:13.677Z</time></trkpt><trkpt lat="43.6993229" lon="12.7150914"><ele>350.0</ele><time>2026-03-22T10:53:14.691Z</time></trkpt><trkpt lat="43.6994065" lon="12.7151046"><ele>348.0</ele><time>2026-03-22T10:53:15.677Z</time></trkpt><trkpt lat="43.6994885" lon="12.7151041"><ele>346.0</ele><time>2026-03-22T10:53:16.687Z</time></trkpt><trkpt lat="43.6995833" lon="12.715179"><ele>344.0</ele><time>2026-03-22T10:53:17.69Z</time></trkpt><trkpt lat="43.6997217" lon="12.7152712"><ele>342.0</ele><time>2026-03-22T10:53:18.691Z</time></trkpt><trkpt lat="43.6998861" lon="12.7153304"><ele>342.0</ele><time>2026-03-22T10:53:19.684Z</time></trkpt><trkpt lat="43.7000363" lon="12.7154119"><ele>342.0</ele><time>2026-03-22T10:53:20.682Z</time></trkpt><trkpt lat="43.7001633" lon="12.7154969"><ele>342.0</ele><time>2026-03-22T10:53:21.684Z</time></trkpt><trkpt lat="43.7002889" lon="12.7155807"><ele>342.0</ele><time>2026-03-22T10:53:22.688Z</time></trkpt><trkpt lat="43.7003746" lon="12.7156622"><ele>343.8</ele><time>2026-03-22T10:53:23.683Z</time></trkpt><trkpt lat="43.700459" lon="12.7156993"><ele>345.6</ele><time>2026-03-22T10:53:24.693Z</time></trkpt><trkpt lat="43.7005397" lon="12.7157212"><ele>347.40000000000003</ele><time>2026-03-22T10:53:25.686Z</time></trkpt><trkpt lat="43.7006289" lon="12.7157167"><ele>349.20000000000005</ele><time>2026-03-22T10:53:26.686Z</time></trkpt><trkpt lat="43.7007275" lon="12.7157031"><ele>351.0</ele><time>2026-03-22T10:53:27.687Z</time></trkpt><trkpt lat="43.7008348" lon="12.7156908"><ele>351.0</ele><time>2026-03-22T10:53:28.684Z</time></trkpt><trkpt lat="43.7009459" lon="12.7156823"><ele>351.0</ele><time>2026-03-22T10:53:29.683Z</time></trkpt><trkpt lat="43.7010654" lon="12.715669"><ele>351.0</ele><time>2026-03-22T10:53:30.689Z</time></trkpt><trkpt lat="43.7011876" lon="12.7156601"><ele>351.0</ele><time>2026-03-22T10:53:31.682Z</time></trkpt><trkpt lat="43.7013162" lon="12.715633"><ele>350.75</ele><time>2026-03-22T10:53:32.669Z</time></trkpt><trkpt lat="43.7014427" lon="12.7156051"><ele>350.5</ele><time>2026-03-22T10:53:33.686Z</time></trkpt><trkpt lat="43.701566" lon="12.7155618"><ele>350.25</ele><time>2026-03-22T10:53:34.683Z</time></trkpt><trkpt lat="43.7016981" lon="12.7155106"><ele>350.0</ele><time>2026-03-22T10:53:35.691Z</time></trkpt><trkpt lat="43.7018286" lon="12.7154456"><ele>350.5</ele><time>2026-03-22T10:53:36.686Z</time></trkpt><trkpt lat="43.7019404" lon="12.715381"><ele>351.0</ele><time>2026-03-22T10:53:37.69Z</time></trkpt><trkpt lat="43.7020514" lon="12.715335"><ele>351.5</ele><time>2026-03-22T10:53:38.692Z</time></trkpt><trkpt lat="43.7021548" lon="12.7152942"><ele>352.0</ele><time>2026-03-22T10:53:39.708Z</time></trkpt><trkpt lat="43.7022631" lon="12.7152562"><ele>352.0</ele><time>2026-03-22T10:53:40.705Z</time></trkpt><trkpt lat="43.702376" lon="12.7152329"><ele>352.0</ele><time>2026-03-22T10:53:41.703Z</time></trkpt><trkpt lat="43.7024832" lon="12.7152249"><ele>352.0</ele><time>2026-03-22T10:53:42.7Z</time></trkpt><trkpt lat="43.7025932" lon="12.7152269"><ele>352.0</ele><time>2026-03-22T10:53:43.703Z</time></trkpt><trkpt lat="43.7027128" lon="12.7152559"><ele>348.75</ele><time>2026-03-22T10:53:44.689Z</time></trkpt><trkpt lat="43.7028371" lon="12.7153048"><ele>345.5</ele><time>2026-03-22T10:53:45.699Z</time></trkpt><trkpt lat="43.7029565" lon="12.7153722"><ele>342.25</ele><time>2026-03-22T10:53:46.694Z</time></trkpt><trkpt lat="43.7030784" lon="12.7154322"><ele>339.0</ele><time>2026-03-22T10:53:47.683Z</time></trkpt><trkpt lat="43.7031897" lon="12.7154885"><ele>339.0</ele><time>2026-03-22T10:53:48.703Z</time></trkpt><trkpt lat="43.7032839" lon="12.7155349"><ele>339.0</ele><time>2026-03-22T10:53:49.693Z</time></trkpt><trkpt lat="43.7033625" lon="12.7155771"><ele>339.0</ele><time>2026-03-22T10:53:50.687Z</time></trkpt><trkpt lat="43.703423" lon="12.7156122"><ele>339.0</ele><time>2026-03-22T10:53:51.684Z</time></trkpt><trkpt lat="43.7034912" lon="12.7156591"><ele>339.0</ele><time>2026-03-22T10:53:52.691Z</time></trkpt><trkpt lat="43.7035524" lon="12.7156987"><ele>339.0</ele><time>2026-03-22T10:53:53.695Z</time></trkpt><trkpt lat="43.7036855" lon="12.7156804"><ele>337.1666666666667</ele><time>2026-03-22T10:53:55.703Z</time></trkpt><trkpt lat="43.7037653" lon="12.7156568"><ele>335.3333333333333</ele><time>2026-03-22T10:53:56.695Z</time></trkpt><trkpt lat="43.7038266" lon="12.7156259"><ele>333.5</ele><time>2026-03-22T10:53:57.687Z</time></trkpt><trkpt lat="43.7038993" lon="12.7155811"><ele>331.66666666666663</ele><time>2026-03-22T10:53:58.695Z</time></trkpt><trkpt lat="43.7039874" lon="12.7155029"><ele>329.8333333333333</ele><time>2026-03-22T10:53:59.692Z</time></trkpt><trkpt lat="43.7040515" lon="12.7154264"><ele>328.0</ele><time>2026-03-22T10:54:00.702Z</time></trkpt><trkpt lat="43.704134" lon="12.7153067"><ele>329.2</ele><time>2026-03-22T10:54:02.697Z</time></trkpt><trkpt lat="43.7042281" lon="12.715211"><ele>330.4</ele><time>2026-03-22T10:54:04.699Z</time></trkpt><trkpt lat="43.7043462" lon="12.7152107"><ele>331.59999999999997</ele><time>2026-03-22T10:54:06.692Z</time></trkpt><trkpt lat="43.7044117" lon="12.7152318"><ele>332.79999999999995</ele><time>2026-03-22T10:54:07.681Z</time></trkpt><trkpt lat="43.7045108" lon="12.7152456"><ele>334.0</ele><time>2026-03-22T10:54:09.682Z</time></trkpt><trkpt lat="43.7046226" lon="12.7152396"><ele>334.0</ele><time>2026-03-22T10:54:11.678Z</time></trkpt><trkpt lat="43.7046895" lon="12.7152661"><ele>334.0</ele><time>2026-03-22T10:54:12.689Z</time></trkpt><trkpt lat="43.7047693" lon="12.7152714"><ele>334.0</ele><time>2026-03-22T10:54:13.68Z</time></trkpt><trkpt lat="43.7048377" lon="12.7152543"><ele>334.0</ele><time>2026-03-22T10:54:14.689Z</time></trkpt><trkpt lat="43.7049116" lon="12.7152369"><ele>334.0</ele><time>2026-03-22T10:54:15.675Z</time></trkpt><trkpt lat="43.7050312" lon="12.7152136"><ele>334.0</ele><time>2026-03-22T10:54:17.684Z</time></trkpt><trkpt lat="43.7051104" lon="12.715197"><ele>337.4</ele><time>2026-03-22T10:54:18.692Z</time></trkpt><trkpt lat="43.7051822" lon="12.7151829"><ele>340.79999999999995</ele><time>2026-03-22T10:54:19.691Z</time></trkpt><trkpt lat="43.7052501" lon="12.7151813"><ele>344.20000000000005</ele><time>2026-03-22T10:54:20.685Z</time></trkpt><trkpt lat="43.7053611" lon="12.7151576"><ele>347.6</ele><time>2026-03-22T10:54:22.695Z</time></trkpt><trkpt lat="43.7054318" lon="12.7151489"><ele>351.0</ele><time>2026-03-22T10:54:24.692Z</time></trkpt><trkpt lat="43.7052997" lon="12.7150103"><ele>355.8</ele><time>2026-03-22T10:54:28.677Z</time></trkpt><trkpt lat="43.7053229" lon="12.7148529"><ele>360.6</ele><time>2026-03-22T10:54:30.67Z</time></trkpt><trkpt lat="43.7053854" lon="12.7146914"><ele>365.4</ele><time>2026-03-22T10:54:32.679Z</time></trkpt><trkpt lat="43.7054592" lon="12.7146315"><ele>370.2</ele><time>2026-03-22T10:54:33.689Z</time></trkpt><trkpt lat="43.7055307" lon="12.714569"><ele>375.0</ele><time>2026-03-22T10:54:34.686Z</time></trkpt><trkpt lat="43.7055983" lon="12.7144852"><ele>374.8</ele><time>2026-03-22T10:54:35.688Z</time></trkpt><trkpt lat="43.7056645" lon="12.7143988"><ele>374.6</ele><time>2026-03-22T10:54:36.695Z</time></trkpt><trkpt lat="43.7057236" lon="12.7142876"><ele>374.4</ele><time>2026-03-22T10:54:37.702Z</time></trkpt><trkpt lat="43.7057816" lon="12.7141906"><ele>374.2</ele><time>2026-03-22T10:54:38.7Z</time></trkpt><trkpt lat="43.7058482" lon="12.7141102"><ele>374.0</ele><time>2026-03-22T10:54:39.701Z</time></trkpt><trkpt lat="43.7059304" lon="12.7140466"><ele>374.0</ele><time>2026-03-22T10:54:40.705Z</time></trkpt><trkpt lat="43.7060257" lon="12.7139881"><ele>374.0</ele><time>2026-03-22T10:54:41.703Z</time></trkpt><trkpt lat="43.7061314" lon="12.7139439"><ele>374.0</ele><time>2026-03-22T10:54:42.701Z</time></trkpt><trkpt lat="43.7062358" lon="12.7139087"><ele>374.0</ele><time>2026-03-22T10:54:43.698Z</time></trkpt><trkpt lat="43.7063366" lon="12.71388"><ele>374.0</ele><time>2026-03-22T10:54:44.699Z</time></trkpt><trkpt lat="43.7064437" lon="12.7138464"><ele>377.6</ele><time>2026-03-22T10:54:45.701Z</time></trkpt><trkpt lat="43.7065528" lon="12.7138096"><ele>381.2</ele><time>2026-03-22T10:54:46.702Z</time></trkpt><trkpt lat="43.7066553" lon="12.7137599"><ele>384.8</ele><time>2026-03-22T10:54:47.705Z</time></trkpt><trkpt lat="43.7067477" lon="12.7137213"><ele>388.40000000000003</ele><time>2026-03-22T10:54:48.718Z</time></trkpt><trkpt lat="43.7068263" lon="12.7136927"><ele>392.0</ele><time>2026-03-22T10:54:49.709Z</time></trkpt><trkpt lat="43.7068969" lon="12.7137028"><ele>392.0</ele><time>2026-03-22T10:54:50.718Z</time></trkpt><trkpt lat="43.7069271" lon="12.7138256"><ele>392.0</ele><time>2026-03-22T10:54:52.72Z</time></trkpt><trkpt lat="43.7068937" lon="12.7139186"><ele>392.0</ele><time>2026-03-22T10:54:53.715Z</time></trkpt><trkpt lat="43.7068213" lon="12.7140337"><ele>392.0</ele><time>2026-03-22T10:54:54.712Z</time></trkpt><trkpt lat="43.7067301" lon="12.7141794"><ele>392.0</ele><time>2026-03-22T10:54:55.702Z</time></trkpt><trkpt lat="43.7066277" lon="12.7143251"><ele>392.0</ele><time>2026-03-22T10:54:56.709Z</time></trkpt><trkpt lat="43.7065131" lon="12.7144704"><ele>392.0</ele><time>2026-03-22T10:54:57.697Z</time></trkpt><trkpt lat="43.7064162" lon="12.7146003"><ele>392.0</ele><time>2026-03-22T10:54:58.699Z</time></trkpt><trkpt lat="43.7063405" lon="12.7146982"><ele>392.0</ele><time>2026-03-22T10:54:59.711Z</time></trkpt><trkpt lat="43.7062965" lon="12.7147793"><ele>391.99999999999994</ele><time>2026-03-22T10:55:00.702Z</time></trkpt><trkpt lat="43.7063036" lon="12.7149363"><ele>392.0</ele><time>2026-03-22T10:55:02.712Z</time></trkpt><trkpt lat="43.7063619" lon="12.7149823"><ele>392.0</ele><time>2026-03-22T10:55:03.71Z</time></trkpt><trkpt lat="43.7064329" lon="12.7149765"><ele>392.0</ele><time>2026-03-22T10:55:04.717Z</time></trkpt><trkpt lat="43.7065207" lon="12.7149389"><ele>391.99999999999994</ele><time>2026-03-22T10:55:05.694Z</time></trkpt><trkpt lat="43.7066126" lon="12.7149034"><ele>392.0</ele><time>2026-03-22T10:55:06.709Z</time></trkpt><trkpt lat="43.7067276" lon="12.7148422"><ele>392.0</ele><time>2026-03-22T10:55:07.702Z</time></trkpt><trkpt lat="43.7068706" lon="12.714829"><ele>392.0</ele><time>2026-03-22T10:55:08.708Z</time></trkpt><trkpt lat="43.7070009" lon="12.7148305"><ele>392.0</ele><time>2026-03-22T10:55:09.698Z</time></trkpt><trkpt lat="43.7071451" lon="12.7148347"><ele>392.0</ele><time>2026-03-22T10:55:10.708Z</time></trkpt><trkpt lat="43.7073105" lon="12.7148602"><ele>395.66666666666663</ele><time>2026-03-22T10:55:11.717Z</time></trkpt><trkpt lat="43.7074663" lon="12.7148792"><ele>399.33333333333337</ele><time>2026-03-22T10:55:12.695Z</time></trkpt><trkpt lat="43.7076218" lon="12.714927"><ele>403.0</ele><time>2026-03-22T10:55:13.701Z</time></trkpt><trkpt lat="43.7077549" lon="12.7149853"><ele>406.25</ele><time>2026-03-22T10:55:14.694Z</time></trkpt><trkpt lat="43.7078776" lon="12.7150249"><ele>409.5</ele><time>2026-03-22T10:55:15.706Z</time></trkpt><trkpt lat="43.7079917" lon="12.7150464"><ele>412.75</ele><time>2026-03-22T10:55:16.7Z</time></trkpt><trkpt lat="43.7081249" lon="12.7150523"><ele>416.0</ele><time>2026-03-22T10:55:17.7Z</time></trkpt><trkpt lat="43.7082793" lon="12.7150287"><ele>416.0</ele><time>2026-03-22T10:55:18.707Z</time></trkpt><trkpt lat="43.7084292" lon="12.7149857"><ele>416.0</ele><time>2026-03-22T10:55:19.707Z</time></trkpt><trkpt lat="43.7085817" lon="12.7149378"><ele>416.0</ele><time>2026-03-22T10:55:20.715Z</time></trkpt><trkpt lat="43.7087258" lon="12.714931"><ele>419.25</ele><time>2026-03-22T10:55:21.707Z</time></trkpt><trkpt lat="43.7088637" lon="12.7149721"><ele>422.5</ele><time>2026-03-22T10:55:22.709Z</time></trkpt><trkpt lat="43.7089932" lon="12.7150433"><ele>425.75</ele><time>2026-03-22T10:55:23.706Z</time></trkpt><trkpt lat="43.7091167" lon="12.7150992"><ele>429.0</ele><time>2026-03-22T10:55:24.705Z</time></trkpt><trkpt lat="43.7092387" lon="12.7151473"><ele>429.0</ele><time>2026-03-22T10:55:25.705Z</time></trkpt><trkpt lat="43.7093583" lon="12.7152011"><ele>429.0</ele><time>2026-03-22T10:55:26.696Z</time></trkpt><trkpt lat="43.7094785" lon="12.7152427"><ele>429.0</ele><time>2026-03-22T10:55:27.7Z</time></trkpt><trkpt lat="43.7095916" lon="12.7152659"><ele>429.0</ele><time>2026-03-22T10:55:28.699Z</time></trkpt><trkpt lat="43.7097031" lon="12.7152771"><ele>429.6</ele><time>2026-03-22T10:55:29.691Z</time></trkpt><trkpt lat="43.7098154" lon="12.7152711"><ele>430.2</ele><time>2026-03-22T10:55:30.704Z</time></trkpt><trkpt lat="43.7099095" lon="12.7152436"><ele>430.80000000000007</ele><time>2026-03-22T10:55:31.704Z</time></trkpt><trkpt lat="43.7099796" lon="12.7152152"><ele>431.40000000000003</ele><time>2026-03-22T10:55:32.702Z</time></trkpt><trkpt lat="43.710063" lon="12.7151795"><ele>432.0</ele><time>2026-03-22T10:55:34.704Z</time></trkpt><trkpt lat="43.7101455" lon="12.7151862"><ele>435.1666666666667</ele><time>2026-03-22T10:55:36.712Z</time></trkpt><trkpt lat="43.7102465" lon="12.7152031"><ele>438.33333333333337</ele><time>2026-03-22T10:55:38.707Z</time></trkpt><trkpt lat="43.7103047" lon="12.715238"><ele>441.5</ele><time>2026-03-22T10:55:39.707Z</time></trkpt><trkpt lat="43.710371" lon="12.7152838"><ele>444.6666666666667</ele><time>2026-03-22T10:55:40.706Z</time></trkpt><trkpt lat="43.7104383" lon="12.7153245"><ele>447.83333333333337</ele><time>2026-03-22T10:55:41.705Z</time></trkpt><trkpt lat="43.7105045" lon="12.7153568"><ele>451.0</ele><time>2026-03-22T10:55:42.703Z</time></trkpt><trkpt lat="43.7105693" lon="12.715391"><ele>451.00000000000006</ele><time>2026-03-22T10:55:43.697Z</time></trkpt><trkpt lat="43.7106371" lon="12.7154317"><ele>451.0</ele><time>2026-03-22T10:55:44.694Z</time></trkpt><trkpt lat="43.7107076" lon="12.7154673"><ele>451.0</ele><time>2026-03-22T10:55:45.695Z</time></trkpt><trkpt lat="43.7107851" lon="12.7154999"><ele>451.0</ele><time>2026-03-22T10:55:46.69Z</time></trkpt><trkpt lat="43.7108663" lon="12.7155215"><ele>451.00000000000006</ele><time>2026-03-22T10:55:47.685Z</time></trkpt><trkpt lat="43.7109429" lon="12.7155455"><ele>451.0</ele><time>2026-03-22T10:55:48.675Z</time></trkpt><trkpt lat="43.7110143" lon="12.7155749"><ele>453.85714285714283</ele><time>2026-03-22T10:55:49.682Z</time></trkpt><trkpt lat="43.7110956" lon="12.7156156"><ele>456.7142857142858</ele><time>2026-03-22T10:55:50.683Z</time></trkpt><trkpt lat="43.7111598" lon="12.7156431"><ele>459.5714285714286</ele><time>2026-03-22T10:55:51.68Z</time></trkpt><trkpt lat="43.7112218" lon="12.7156782"><ele>462.42857142857144</ele><time>2026-03-22T10:55:52.671Z</time></trkpt><trkpt lat="43.711278" lon="12.7157285"><ele>465.28571428571433</ele><time>2026-03-22T10:55:53.674Z</time></trkpt><trkpt lat="43.7113451" lon="12.7157612"><ele>468.1428571428572</ele><time>2026-03-22T10:55:54.694Z</time></trkpt><trkpt lat="43.7114111" lon="12.7157701"><ele>471.00000000000006</ele><time>2026-03-22T10:55:55.68Z</time></trkpt><trkpt lat="43.7114883" lon="12.7157594"><ele>471.0</ele><time>2026-03-22T10:55:56.689Z</time></trkpt><trkpt lat="43.7115601" lon="12.7157769"><ele>471.0</ele><time>2026-03-22T10:55:57.679Z</time></trkpt><trkpt lat="43.711635" lon="12.7158147"><ele>471.0</ele><time>2026-03-22T10:55:58.678Z</time></trkpt><trkpt lat="43.7117185" lon="12.715857"><ele>471.0</ele><time>2026-03-22T10:55:59.675Z</time></trkpt><trkpt lat="43.7118052" lon="12.7158991"><ele>471.0</ele><time>2026-03-22T10:56:00.677Z</time></trkpt><trkpt lat="43.7118834" lon="12.7159128"><ele>471.0</ele><time>2026-03-22T10:56:01.684Z</time></trkpt><trkpt lat="43.7119706" lon="12.7159485"><ele>472.6666666666667</ele><time>2026-03-22T10:56:02.679Z</time></trkpt><trkpt lat="43.7120626" lon="12.7160128"><ele>474.33333333333337</ele><time>2026-03-22T10:56:03.677Z</time></trkpt><trkpt lat="43.7121455" lon="12.7160703"><ele>476.0</ele><time>2026-03-22T10:56:04.674Z</time></trkpt><trkpt lat="43.7122226" lon="12.7161297"><ele>477.6666666666667</ele><time>2026-03-22T10:56:05.673Z</time></trkpt><trkpt lat="43.7122877" lon="12.7161923"><ele>479.33333333333337</ele><time>2026-03-22T10:56:06.682Z</time></trkpt><trkpt lat="43.7123438" lon="12.7162618"><ele>481.0</ele><time>2026-03-22T10:56:07.685Z</time></trkpt><trkpt lat="43.7124482" lon="12.716364"><ele>481.00000000000006</ele><time>2026-03-22T10:56:09.685Z</time></trkpt><trkpt lat="43.7125192" lon="12.7164097"><ele>481.0</ele><time>2026-03-22T10:56:10.697Z</time></trkpt><trkpt lat="43.7125947" lon="12.7164408"><ele>481.0</ele><time>2026-03-22T10:56:11.684Z</time></trkpt><trkpt lat="43.7126812" lon="12.716461"><ele>481.0</ele><time>2026-03-22T10:56:12.696Z</time></trkpt><trkpt lat="43.7127653" lon="12.7164892"><ele>481.00000000000006</ele><time>2026-03-22T10:56:13.691Z</time></trkpt><trkpt lat="43.712848" lon="12.7165263"><ele>481.0</ele><time>2026-03-22T10:56:14.693Z</time></trkpt><trkpt lat="43.7129156" lon="12.7165745"><ele>483.0</ele><time>2026-03-22T10:56:15.697Z</time></trkpt><trkpt lat="43.7129573" lon="12.7167181"><ele>485.0</ele><time>2026-03-22T10:56:17.692Z</time></trkpt><trkpt lat="43.712892" lon="12.7168703"><ele>487.0</ele><time>2026-03-22T10:56:19.7Z</time></trkpt><trkpt lat="43.7128162" lon="12.7169253"><ele>489.0</ele><time>2026-03-22T10:56:20.69Z</time></trkpt><trkpt lat="43.7127265" lon="12.7169827"><ele>491.0</ele><time>2026-03-22T10:56:21.703Z</time></trkpt><trkpt lat="43.7126337" lon="12.7170431"><ele>491.0</ele><time>2026-03-22T10:56:22.687Z</time></trkpt><trkpt lat="43.7125425" lon="12.7171147"><ele>491.0</ele><time>2026-03-22T10:56:23.702Z</time></trkpt><trkpt lat="43.7124592" lon="12.7171857"><ele>491.0</ele><time>2026-03-22T10:56:24.701Z</time></trkpt><trkpt lat="43.7123865" lon="12.7172547"><ele>491.0</ele><time>2026-03-22T10:56:25.696Z</time></trkpt><trkpt lat="43.712338" lon="12.71732"><ele>491.0</ele><time>2026-03-22T10:56:26.707Z</time></trkpt><trkpt lat="43.7123359" lon="12.7174633"><ele>490.99999999999994</ele><time>2026-03-22T10:56:28.705Z</time></trkpt><trkpt lat="43.7123768" lon="12.7175369"><ele>491.0</ele><time>2026-03-22T10:56:29.692Z</time></trkpt><trkpt lat="43.7124542" lon="12.7176528"><ele>491.0</ele><time>2026-03-22T10:56:31.707Z</time></trkpt><trkpt lat="43.7125102" lon="12.7176981"><ele>491.0</ele><time>2026-03-22T10:56:32.685Z</time></trkpt><trkpt lat="43.7126007" lon="12.7177268"><ele>490.99999999999994</ele><time>2026-03-22T10:56:33.687Z</time></trkpt><trkpt lat="43.7126958" lon="12.7177877"><ele>491.0</ele><time>2026-03-22T10:56:34.691Z</time></trkpt><trkpt lat="43.7127783" lon="12.7178941"><ele>494.4</ele><time>2026-03-22T10:56:35.676Z</time></trkpt><trkpt lat="43.7127927" lon="12.7179823"><ele>497.8</ele><time>2026-03-22T10:56:36.681Z</time></trkpt><trkpt lat="43.7127824" lon="12.7181563"><ele>501.19999999999993</ele><time>2026-03-22T10:56:38.682Z</time></trkpt><trkpt lat="43.7126977" lon="12.7182371"><ele>504.59999999999997</ele><time>2026-03-22T10:56:39.679Z</time></trkpt><trkpt lat="43.7126083" lon="12.71832"><ele>508.0</ele><time>2026-03-22T10:56:40.679Z</time></trkpt><trkpt lat="43.7124894" lon="12.7183686"><ele>508.0</ele><time>2026-03-22T10:56:41.675Z</time></trkpt><trkpt lat="43.7123254" lon="12.718347"><ele>508.0</ele><time>2026-03-22T10:56:42.681Z</time></trkpt><trkpt lat="43.7121619" lon="12.7183118"><ele>508.0</ele><time>2026-03-22T10:56:43.689Z</time></trkpt><trkpt lat="43.7120175" lon="12.7182822"><ele>506.5</ele><time>2026-03-22T10:56:44.675Z</time></trkpt><trkpt lat="43.7118689" lon="12.7182531"><ele>505.0</ele><time>2026-03-22T10:56:45.68Z</time></trkpt><trkpt lat="43.7117288" lon="12.7182374"><ele>503.5</ele><time>2026-03-22T10:56:46.695Z</time></trkpt><trkpt lat="43.711602" lon="12.7182426"><ele>502.0</ele><time>2026-03-22T10:56:47.699Z</time></trkpt><trkpt lat="43.7114994" lon="12.7182695"><ele>502.00000000000006</ele><time>2026-03-22T10:56:48.698Z</time></trkpt><trkpt lat="43.711418" lon="12.7183105"><ele>502.0</ele><time>2026-03-22T10:56:49.706Z</time></trkpt><trkpt lat="43.7113465" lon="12.7183621"><ele>502.0</ele><time>2026-03-22T10:56:50.705Z</time></trkpt><trkpt lat="43.7112924" lon="12.7184345"><ele>502.0</ele><time>2026-03-22T10:56:51.706Z</time></trkpt><trkpt lat="43.7112528" lon="12.7185108"><ele>502.00000000000006</ele><time>2026-03-22T10:56:52.708Z</time></trkpt><trkpt lat="43.711259" lon="12.7186029"><ele>502.0</ele><time>2026-03-22T10:56:53.714Z</time></trkpt><trkpt lat="43.7113113" lon="12.7187006"><ele>504.20000000000005</ele><time>2026-03-22T10:56:54.719Z</time></trkpt><trkpt lat="43.7113883" lon="12.7188082"><ele>506.40000000000003</ele><time>2026-03-22T10:56:55.709Z</time></trkpt><trkpt lat="43.7114586" lon="12.7189224"><ele>508.59999999999997</ele><time>2026-03-22T10:56:56.705Z</time></trkpt><trkpt lat="43.7115145" lon="12.7190451"><ele>510.79999999999995</ele><time>2026-03-22T10:56:57.707Z</time></trkpt><trkpt lat="43.7115551" lon="12.719181"><ele>513.0</ele><time>2026-03-22T10:56:58.714Z</time></trkpt><trkpt lat="43.7115759" lon="12.7193371"><ele>514.0</ele><time>2026-03-22T10:56:59.702Z</time></trkpt><trkpt lat="43.7115954" lon="12.7195098"><ele>515.0</ele><time>2026-03-22T10:57:00.706Z</time></trkpt><trkpt lat="43.7116085" lon="12.7196735"><ele>516.0</ele><time>2026-03-22T10:57:01.699Z</time></trkpt><trkpt lat="43.7116215" lon="12.7198311"><ele>517.0</ele><time>2026-03-22T10:57:02.699Z</time></trkpt><trkpt lat="43.7116344" lon="12.7199662"><ele>517.0</ele><time>2026-03-22T10:57:03.698Z</time></trkpt><trkpt lat="43.7116477" lon="12.7200916"><ele>517.0</ele><time>2026-03-22T10:57:04.702Z</time></trkpt><trkpt lat="43.7116735" lon="12.7202037"><ele>517.0</ele><time>2026-03-22T10:57:05.697Z</time></trkpt><trkpt lat="43.7117117" lon="12.7203186"><ele>517.0</ele><time>2026-03-22T10:57:06.7Z</time></trkpt><trkpt lat="43.7117495" lon="12.7204291"><ele>517.0</ele><time>2026-03-22T10:57:07.703Z</time></trkpt><trkpt lat="43.7117856" lon="12.7205335"><ele>517.0</ele><time>2026-03-22T10:57:08.697Z</time></trkpt><trkpt lat="43.7118272" lon="12.7206245"><ele>515.0</ele><time>2026-03-22T10:57:09.698Z</time></trkpt><trkpt lat="43.7118808" lon="12.72071"><ele>513.0</ele><time>2026-03-22T10:57:10.698Z</time></trkpt><trkpt lat="43.7119392" lon="12.7208023"><ele>511.00000000000006</ele><time>2026-03-22T10:57:11.691Z</time></trkpt><trkpt lat="43.7120022" lon="12.7209069"><ele>509.0</ele><time>2026-03-22T10:57:12.682Z</time></trkpt><trkpt lat="43.7120564" lon="12.721015"><ele>507.0</ele><time>2026-03-22T10:57:13.679Z</time></trkpt><trkpt lat="43.7121306" lon="12.7211168"><ele>511.6</ele><time>2026-03-22T10:57:14.683Z</time></trkpt><trkpt lat="43.7122226" lon="12.7212035"><ele>516.2</ele><time>2026-03-22T10:57:15.675Z</time></trkpt><trkpt lat="43.7122753" lon="12.7212585"><ele>520.8</ele><time>2026-03-22T10:57:16.681Z</time></trkpt><trkpt lat="43.7123731" lon="12.7213572"><ele>525.4</ele><time>2026-03-22T10:57:18.663Z</time></trkpt><trkpt lat="43.7124433" lon="12.721357"><ele>530.0</ele><time>2026-03-22T10:57:19.67Z</time></trkpt><trkpt lat="43.7125122" lon="12.7214526"><ele>530.0</ele><time>2026-03-22T10:57:21.671Z</time></trkpt><trkpt lat="43.7125168" lon="12.7216262"><ele>530.0</ele><time>2026-03-22T10:57:23.674Z</time></trkpt><trkpt lat="43.7125531" lon="12.7217407"><ele>530.0</ele><time>2026-03-22T10:57:24.671Z</time></trkpt><trkpt lat="43.7125894" lon="12.7218941"><ele>530.0</ele><time>2026-03-22T10:57:25.671Z</time></trkpt><trkpt lat="43.712634" lon="12.7220518"><ele>528.75</ele><time>2026-03-22T10:57:26.684Z</time></trkpt><trkpt lat="43.7126758" lon="12.7222178"><ele>527.5</ele><time>2026-03-22T10:57:27.67Z</time></trkpt><trkpt lat="43.7127244" lon="12.7224074"><ele>526.25</ele><time>2026-03-22T10:57:28.674Z</time></trkpt><trkpt lat="43.7127631" lon="12.7225628"><ele>525.0</ele><time>2026-03-22T10:57:29.674Z</time></trkpt><trkpt lat="43.7128048" lon="12.7227281"><ele>530.75</ele><time>2026-03-22T10:57:30.676Z</time></trkpt><trkpt lat="43.7128609" lon="12.7228874"><ele>536.5</ele><time>2026-03-22T10:57:31.676Z</time></trkpt><trkpt lat="43.7129212" lon="12.7230412"><ele>542.25</ele><time>2026-03-22T10:57:32.674Z</time></trkpt><trkpt lat="43.71298" lon="12.7231794"><ele>548.0</ele><time>2026-03-22T10:57:33.672Z</time></trkpt><trkpt lat="43.7130594" lon="12.7232816"><ele>548.0</ele><time>2026-03-22T10:57:34.67Z</time></trkpt><trkpt lat="43.7131476" lon="12.7233731"><ele>548.0</ele><time>2026-03-22T10:57:35.669Z</time></trkpt><trkpt lat="43.713227" lon="12.7234408"><ele>548.0</ele><time>2026-03-22T10:57:36.673Z</time></trkpt><trkpt lat="43.7132869" lon="12.7235108"><ele>548.0</ele><time>2026-03-22T10:57:37.688Z</time></trkpt><trkpt lat="43.7133175" lon="12.7236025"><ele>548.0</ele><time>2026-03-22T10:57:38.687Z</time></trkpt><trkpt lat="43.7133078" lon="12.7237273"><ele>548.0</ele><time>2026-03-22T10:57:39.675Z</time></trkpt><trkpt lat="43.7132828" lon="12.7238797"><ele>548.6</ele><time>2026-03-22T10:57:40.675Z</time></trkpt><trkpt lat="43.7132897" lon="12.7240183"><ele>549.1999999999999</ele><time>2026-03-22T10:57:41.676Z</time></trkpt><trkpt lat="43.7133176" lon="12.7241581"><ele>549.8</ele><time>2026-03-22T10:57:42.68Z</time></trkpt><trkpt lat="43.7133748" lon="12.7243061"><ele>550.4</ele><time>2026-03-22T10:57:43.676Z</time></trkpt><trkpt lat="43.7134274" lon="12.7244248"><ele>551.0</ele><time>2026-03-22T10:57:44.683Z</time></trkpt><trkpt lat="43.7134606" lon="12.7245076"><ele>551.0</ele><time>2026-03-22T10:57:45.687Z</time></trkpt><trkpt lat="43.7134561" lon="12.7245955"><ele>551.0</ele><time>2026-03-22T10:57:47.691Z</time></trkpt><trkpt lat="43.7134185" lon="12.7246667"><ele>551.0</ele><time>2026-03-22T10:57:49.678Z</time></trkpt><trkpt lat="43.7132714" lon="12.7246055"><ele>551.0</ele><time>2026-03-22T10:57:50.674Z</time></trkpt><trkpt lat="43.7132263" lon="12.7246749"><ele>551.0</ele><time>2026-03-22T10:57:51.67Z</time></trkpt><trkpt lat="43.713137" lon="12.7246255"><ele>551.0</ele><time>2026-03-22T10:57:52.668Z</time></trkpt><trkpt lat="43.7129419" lon="12.7245191"><ele>547.25</ele><time>2026-03-22T10:57:53.661Z</time></trkpt><trkpt lat="43.712717" lon="12.7243943"><ele>543.5</ele><time>2026-03-22T10:57:54.659Z</time></trkpt><trkpt lat="43.7126414" lon="12.7243101"><ele>539.75</ele><time>2026-03-22T10:57:55.659Z</time></trkpt><trkpt lat="43.7125919" lon="12.7242411"><ele>536.0</ele><time>2026-03-22T10:57:56.675Z</time></trkpt><trkpt lat="43.7125189" lon="12.7242384"><ele>536.0</ele><time>2026-03-22T10:57:57.671Z</time></trkpt><trkpt lat="43.7124557" lon="12.7242356"><ele>536.0</ele><time>2026-03-22T10:57:58.675Z</time></trkpt><trkpt lat="43.712363" lon="12.7242633"><ele>536.0</ele><time>2026-03-22T10:57:59.675Z</time></trkpt><trkpt lat="43.7122536" lon="12.7242656"><ele>536.0</ele><time>2026-03-22T10:58:00.683Z</time></trkpt><trkpt lat="43.7121783" lon="12.7242519"><ele>536.0</ele><time>2026-03-22T10:58:01.688Z</time></trkpt><trkpt lat="43.7120924" lon="12.7242297"><ele>536.0</ele><time>2026-03-22T10:58:02.69Z</time></trkpt><trkpt lat="43.7120044" lon="12.7242097"><ele>536.0</ele><time>2026-03-22T10:58:03.695Z</time></trkpt><trkpt lat="43.7119148" lon="12.7240898"><ele>536.0</ele><time>2026-03-22T10:58:05.674Z</time></trkpt><trkpt lat="43.71188" lon="12.7239711"><ele>536.0</ele><time>2026-03-22T10:58:07.703Z</time></trkpt><trkpt lat="43.7119486" lon="12.7239339"><ele>536.0</ele><time>2026-03-22T10:58:38.694Z</time></trkpt><trkpt lat="43.7119959" lon="12.7238719"><ele>536.0</ele><time>2026-03-22T10:58:47.698Z</time></trkpt><trkpt lat="43.712049" lon="12.7239254"><ele>536.0</ele><time>2026-03-22T11:00:42.694Z</time></trkpt><trkpt lat="43.7120122" lon="12.7240003"><ele>536.0</ele><time>2026-03-22T11:01:15.675Z</time></trkpt><trkpt lat="43.7120091" lon="12.72391"><ele>536.0</ele><time>2026-03-22T11:01:21.692Z</time></trkpt><trkpt lat="43.7119641" lon="12.7238449"><ele>536.0</ele><time>2026-03-22T11:07:24.683Z</time></trkpt><trkpt lat="43.7118836" lon="12.7238491"><ele>536.0</ele><time>2026-03-22T11:07:29.679Z</time></trkpt><trkpt lat="43.7119848" lon="12.7237755"><ele>536.0</ele><time>2026-03-22T11:07:33.67Z</time></trkpt><trkpt lat="43.7120267" lon="12.723843"><ele>536.0</ele><time>2026-03-22T11:07:34.681Z</time></trkpt><trkpt lat="43.7120637" lon="12.7239177"><ele>536.0</ele><time>2026-03-22T11:07:38.725Z</time></trkpt><trkpt lat="43.7121403" lon="12.7239285"><ele>536.0</ele><time>2026-03-22T11:07:41.687Z</time></trkpt><trkpt lat="43.7122088" lon="12.7240321"><ele>536.0</ele><time>2026-03-22T11:07:42.685Z</time></trkpt><trkpt lat="43.7121294" lon="12.7240413"><ele>536.0</ele><time>2026-03-22T11:07:44.683Z</time></trkpt><trkpt lat="43.7120643" lon="12.7240792"><ele>536.0</ele><time>2026-03-22T11:07:45.695Z</time></trkpt><trkpt lat="43.7120144" lon="12.7239824"><ele>536.0</ele><time>2026-03-22T11:07:49.688Z</time></trkpt><trkpt lat="43.7120783" lon="12.7242205"><ele>536.0</ele><time>2026-03-22T11:07:52.684Z</time></trkpt><trkpt lat="43.7121264" lon="12.7243089"><ele>536.0</ele><time>2026-03-22T11:07:53.683Z</time></trkpt><trkpt lat="43.7122105" lon="12.7244473"><ele>536.0</ele><time>2026-03-22T11:07:54.688Z</time></trkpt><trkpt lat="43.7122962" lon="12.7245702"><ele>536.0</ele><time>2026-03-22T11:07:55.69Z</time></trkpt><trkpt lat="43.712373" lon="12.7246684"><ele>536.0</ele><time>2026-03-22T11:07:56.69Z</time></trkpt><trkpt lat="43.7124732" lon="12.7247315"><ele>537.6</ele><time>2026-03-22T11:07:57.681Z</time></trkpt><trkpt lat="43.7125689" lon="12.7248465"><ele>539.2</ele><time>2026-03-22T11:07:58.679Z</time></trkpt><trkpt lat="43.7126486" lon="12.724954"><ele>540.8</ele><time>2026-03-22T11:07:59.683Z</time></trkpt><trkpt lat="43.7127255" lon="12.7250649"><ele>542.4</ele><time>2026-03-22T11:08:00.693Z</time></trkpt><trkpt lat="43.712788" lon="12.7251708"><ele>544.0</ele><time>2026-03-22T11:08:01.697Z</time></trkpt><trkpt lat="43.7128672" lon="12.7252884"><ele>548.0</ele><time>2026-03-22T11:08:02.681Z</time></trkpt><trkpt lat="43.7129492" lon="12.7254246"><ele>552.0</ele><time>2026-03-22T11:08:03.678Z</time></trkpt><trkpt lat="43.7130024" lon="12.7255666"><ele>556.0</ele><time>2026-03-22T11:08:04.684Z</time></trkpt><trkpt lat="43.7130193" lon="12.7256954"><ele>560.0</ele><time>2026-03-22T11:08:05.686Z</time></trkpt><trkpt lat="43.7130032" lon="12.7258288"><ele>564.0</ele><time>2026-03-22T11:08:06.685Z</time></trkpt><trkpt lat="43.7129923" lon="12.7259516"><ele>563.8</ele><time>2026-03-22T11:08:07.691Z</time></trkpt><trkpt lat="43.7129611" lon="12.726066"><ele>563.5999999999999</ele><time>2026-03-22T11:08:08.691Z</time></trkpt><trkpt lat="43.7128743" lon="12.7261365"><ele>563.4</ele><time>2026-03-22T11:08:09.692Z</time></trkpt><trkpt lat="43.7127684" lon="12.7261604"><ele>563.1999999999999</ele><time>2026-03-22T11:08:10.694Z</time></trkpt><trkpt lat="43.712639" lon="12.7261901"><ele>563.0</ele><time>2026-03-22T11:08:11.686Z</time></trkpt><trkpt lat="43.7124986" lon="12.7262266"><ele>563.0</ele><time>2026-03-22T11:08:12.695Z</time></trkpt><trkpt lat="43.7123526" lon="12.7262624"><ele>563.0</ele><time>2026-03-22T11:08:13.691Z</time></trkpt><trkpt lat="43.7122017" lon="12.7262951"><ele>563.0</ele><time>2026-03-22T11:08:14.688Z</time></trkpt><trkpt lat="43.7120464" lon="12.7263181"><ele>562.0</ele><time>2026-03-22T11:08:15.692Z</time></trkpt><trkpt lat="43.7118982" lon="12.7263416"><ele>561.0</ele><time>2026-03-22T11:08:16.688Z</time></trkpt><trkpt lat="43.7117675" lon="12.7263644"><ele>560.0</ele><time>2026-03-22T11:08:17.69Z</time></trkpt><trkpt lat="43.7116551" lon="12.7263969"><ele>559.0</ele><time>2026-03-22T11:08:18.697Z</time></trkpt><trkpt lat="43.7115471" lon="12.7264409"><ele>559.0</ele><time>2026-03-22T11:08:19.698Z</time></trkpt><trkpt lat="43.7114399" lon="12.7264846"><ele>559.0</ele><time>2026-03-22T11:08:20.693Z</time></trkpt><trkpt lat="43.7113486" lon="12.7265316"><ele>559.0</ele><time>2026-03-22T11:08:21.704Z</time></trkpt><trkpt lat="43.7112786" lon="12.7265904"><ele>559.0</ele><time>2026-03-22T11:08:22.701Z</time></trkpt><trkpt lat="43.7112473" lon="12.7266684"><ele>559.0</ele><time>2026-03-22T11:08:23.69Z</time></trkpt><trkpt lat="43.7112095" lon="12.7268119"><ele>558.8</ele><time>2026-03-22T11:08:25.69Z</time></trkpt><trkpt lat="43.7112467" lon="12.726972"><ele>558.5999999999999</ele><time>2026-03-22T11:08:27.699Z</time></trkpt><trkpt lat="43.7112933" lon="12.7270383"><ele>558.4</ele><time>2026-03-22T11:08:28.698Z</time></trkpt><trkpt lat="43.7113389" lon="12.7271202"><ele>558.1999999999999</ele><time>2026-03-22T11:08:29.695Z</time></trkpt><trkpt lat="43.711461" lon="12.7272298"><ele>558.0</ele><time>2026-03-22T11:08:30.693Z</time></trkpt><trkpt lat="43.7115872" lon="12.7272847"><ele>558.0</ele><time>2026-03-22T11:08:31.699Z</time></trkpt><trkpt lat="43.7117242" lon="12.7273442"><ele>558.0</ele><time>2026-03-22T11:08:32.701Z</time></trkpt><trkpt lat="43.7118672" lon="12.727386"><ele>558.0</ele><time>2026-03-22T11:08:33.698Z</time></trkpt><trkpt lat="43.711997" lon="12.7275026"><ele>558.0</ele><time>2026-03-22T11:08:34.693Z</time></trkpt><trkpt lat="43.712136" lon="12.7276158"><ele>558.75</ele><time>2026-03-22T11:08:35.691Z</time></trkpt><trkpt lat="43.7122742" lon="12.7277433"><ele>559.5</ele><time>2026-03-22T11:08:36.692Z</time></trkpt><trkpt lat="43.7123873" lon="12.7278477"><ele>560.25</ele><time>2026-03-22T11:08:37.692Z</time></trkpt><trkpt lat="43.7124883" lon="12.7279589"><ele>561.0</ele><time>2026-03-22T11:08:38.696Z</time></trkpt><trkpt lat="43.7125933" lon="12.72807"><ele>561.0</ele><time>2026-03-22T11:08:39.694Z</time></trkpt><trkpt lat="43.7126935" lon="12.728155"><ele>561.0</ele><time>2026-03-22T11:08:40.695Z</time></trkpt><trkpt lat="43.7128002" lon="12.7282306"><ele>561.0</ele><time>2026-03-22T11:08:41.698Z</time></trkpt><trkpt lat="43.7129217" lon="12.7283045"><ele>561.0</ele><time>2026-03-22T11:08:42.694Z</time></trkpt><trkpt lat="43.7130708" lon="12.7284129"><ele>563.6666666666666</ele><time>2026-03-22T11:08:43.696Z</time></trkpt><trkpt lat="43.7132396" lon="12.7285024"><ele>566.3333333333333</ele><time>2026-03-22T11:08:44.682Z</time></trkpt><trkpt lat="43.7133968" lon="12.728599"><ele>569.0</ele><time>2026-03-22T11:08:45.691Z</time></trkpt><trkpt lat="43.713505" lon="12.7286973"><ele>570.5</ele><time>2026-03-22T11:08:46.698Z</time></trkpt><trkpt lat="43.7136117" lon="12.7287755"><ele>572.0</ele><time>2026-03-22T11:08:47.698Z</time></trkpt><trkpt lat="43.713752" lon="12.7288445"><ele>573.5</ele><time>2026-03-22T11:08:48.682Z</time></trkpt><trkpt lat="43.7138932" lon="12.7289649"><ele>575.0</ele><time>2026-03-22T11:08:49.707Z</time></trkpt><trkpt lat="43.7140386" lon="12.7290881"><ele>575.0</ele><time>2026-03-22T11:08:50.703Z</time></trkpt><trkpt lat="43.7141964" lon="12.7291751"><ele>575.0</ele><time>2026-03-22T11:08:51.695Z</time></trkpt><trkpt lat="43.7143029" lon="12.7292365"><ele>575.0</ele><time>2026-03-22T11:08:52.708Z</time></trkpt><trkpt lat="43.7143795" lon="12.7293224"><ele>575.0</ele><time>2026-03-22T11:08:53.695Z</time></trkpt><trkpt lat="43.7144592" lon="12.7294049"><ele>573.4</ele><time>2026-03-22T11:08:54.714Z</time></trkpt><trkpt lat="43.7145288" lon="12.7294641"><ele>571.8</ele><time>2026-03-22T11:08:55.704Z</time></trkpt><trkpt lat="43.7145986" lon="12.7294932"><ele>570.2</ele><time>2026-03-22T11:08:56.703Z</time></trkpt><trkpt lat="43.7145614" lon="12.7296056"><ele>568.6</ele><time>2026-03-22T11:09:00.727Z</time></trkpt><trkpt lat="43.7144648" lon="12.7296649"><ele>567.0</ele><time>2026-03-22T11:09:01.716Z</time></trkpt><trkpt lat="43.7143575" lon="12.7297938"><ele>567.0</ele><time>2026-03-22T11:09:02.713Z</time></trkpt><trkpt lat="43.7142495" lon="12.7299672"><ele>567.0</ele><time>2026-03-22T11:09:03.714Z</time></trkpt><trkpt lat="43.714129" lon="12.7301314"><ele>567.0</ele><time>2026-03-22T11:09:04.71Z</time></trkpt><trkpt lat="43.7139975" lon="12.7302985"><ele>566.25</ele><time>2026-03-22T11:09:05.688Z</time></trkpt><trkpt lat="43.7138877" lon="12.7304328"><ele>565.5</ele><time>2026-03-22T11:09:06.703Z</time></trkpt><trkpt lat="43.7138075" lon="12.730548"><ele>564.75</ele><time>2026-03-22T11:09:07.703Z</time></trkpt><trkpt lat="43.7137477" lon="12.7306678"><ele>564.0</ele><time>2026-03-22T11:09:08.706Z</time></trkpt><trkpt lat="43.7137331" lon="12.7308297"><ele>564.0</ele><time>2026-03-22T11:09:09.698Z</time></trkpt><trkpt lat="43.7137148" lon="12.7310117"><ele>564.0</ele><time>2026-03-22T11:09:10.703Z</time></trkpt><trkpt lat="43.7137065" lon="12.7311739"><ele>564.0</ele><time>2026-03-22T11:09:11.701Z</time></trkpt><trkpt lat="43.7137034" lon="12.7313374"><ele>564.0</ele><time>2026-03-22T11:09:12.704Z</time></trkpt><trkpt lat="43.713696" lon="12.7315003"><ele>564.6</ele><time>2026-03-22T11:09:13.711Z</time></trkpt><trkpt lat="43.7136865" lon="12.7316596"><ele>565.2</ele><time>2026-03-22T11:09:14.695Z</time></trkpt><trkpt lat="43.7136741" lon="12.7318122"><ele>565.8000000000001</ele><time>2026-03-22T11:09:15.692Z</time></trkpt><trkpt lat="43.7136529" lon="12.7319468"><ele>566.4</ele><time>2026-03-22T11:09:16.711Z</time></trkpt><trkpt lat="43.7136285" lon="12.7320814"><ele>567.0</ele><time>2026-03-22T11:09:17.707Z</time></trkpt><trkpt lat="43.7136328" lon="12.7322788"><ele>567.0</ele><time>2026-03-22T11:09:18.697Z</time></trkpt><trkpt lat="43.7136504" lon="12.7324867"><ele>567.0</ele><time>2026-03-22T11:09:19.698Z</time></trkpt><trkpt lat="43.7136741" lon="12.7326851"><ele>567.0</ele><time>2026-03-22T11:09:20.703Z</time></trkpt><trkpt lat="43.7137188" lon="12.7328878"><ele>567.5</ele><time>2026-03-22T11:09:21.709Z</time></trkpt><trkpt lat="43.7137592" lon="12.7331076"><ele>568.0</ele><time>2026-03-22T11:09:22.707Z</time></trkpt><trkpt lat="43.7137983" lon="12.7332818"><ele>568.5</ele><time>2026-03-22T11:09:23.704Z</time></trkpt><trkpt lat="43.7138175" lon="12.7334704"><ele>569.0</ele><time>2026-03-22T11:09:24.701Z</time></trkpt><trkpt lat="43.7138531" lon="12.7336491"><ele>571.5</ele><time>2026-03-22T11:09:25.696Z</time></trkpt><trkpt lat="43.7139016" lon="12.733822"><ele>574.0</ele><time>2026-03-22T11:09:26.696Z</time></trkpt><trkpt lat="43.7139943" lon="12.7339692"><ele>576.5</ele><time>2026-03-22T11:09:27.696Z</time></trkpt><trkpt lat="43.7140825" lon="12.734133"><ele>579.0</ele><time>2026-03-22T11:09:28.681Z</time></trkpt><trkpt lat="43.7141459" lon="12.7343086"><ele>581.0</ele><time>2026-03-22T11:09:29.694Z</time></trkpt><trkpt lat="43.714221" lon="12.734445"><ele>583.0</ele><time>2026-03-22T11:09:30.681Z</time></trkpt><trkpt lat="43.7142835" lon="12.7346029"><ele>585.0</ele><time>2026-03-22T11:09:31.685Z</time></trkpt><trkpt lat="43.7143729" lon="12.7347702"><ele>587.0</ele><time>2026-03-22T11:09:32.684Z</time></trkpt><trkpt lat="43.7144798" lon="12.7349309"><ele>583.3333333333333</ele><time>2026-03-22T11:09:33.69Z</time></trkpt><trkpt lat="43.7145711" lon="12.7351182"><ele>579.6666666666666</ele><time>2026-03-22T11:09:34.695Z</time></trkpt><trkpt lat="43.7146628" lon="12.7353061"><ele>576.0</ele><time>2026-03-22T11:09:35.694Z</time></trkpt><trkpt lat="43.7147636" lon="12.7354639"><ele>576.0</ele><time>2026-03-22T11:09:36.688Z</time></trkpt><trkpt lat="43.7148577" lon="12.7355597"><ele>576.0</ele><time>2026-03-22T11:09:37.684Z</time></trkpt><trkpt lat="43.7149431" lon="12.7356859"><ele>576.0</ele><time>2026-03-22T11:09:38.687Z</time></trkpt><trkpt lat="43.7150159" lon="12.735837"><ele>576.0</ele><time>2026-03-22T11:09:39.684Z</time></trkpt><trkpt lat="43.7150724" lon="12.7359917"><ele>573.75</ele><time>2026-03-22T11:09:40.694Z</time></trkpt><trkpt lat="43.7150711" lon="12.7361558"><ele>571.5</ele><time>2026-03-22T11:09:41.708Z</time></trkpt><trkpt lat="43.715025" lon="12.736288"><ele>569.25</ele><time>2026-03-22T11:09:42.702Z</time></trkpt><trkpt lat="43.714947" lon="12.7363963"><ele>567.0</ele><time>2026-03-22T11:09:43.701Z</time></trkpt><trkpt lat="43.7148304" lon="12.7364611"><ele>567.0</ele><time>2026-03-22T11:09:44.707Z</time></trkpt><trkpt lat="43.7146866" lon="12.7364938"><ele>567.0</ele><time>2026-03-22T11:09:45.706Z</time></trkpt><trkpt lat="43.7145375" lon="12.7365117"><ele>567.0</ele><time>2026-03-22T11:09:46.697Z</time></trkpt><trkpt lat="43.7143866" lon="12.7365275"><ele>567.0</ele><time>2026-03-22T11:09:47.681Z</time></trkpt><trkpt lat="43.7142387" lon="12.7364968"><ele>568.0</ele><time>2026-03-22T11:09:48.684Z</time></trkpt><trkpt lat="43.7140792" lon="12.7364688"><ele>569.0</ele><time>2026-03-22T11:09:49.685Z</time></trkpt><trkpt lat="43.7139234" lon="12.7364191"><ele>570.0</ele><time>2026-03-22T11:09:50.678Z</time></trkpt><trkpt lat="43.7137751" lon="12.7363523"><ele>570.0</ele><time>2026-03-22T11:09:51.683Z</time></trkpt><trkpt lat="43.7136187" lon="12.7362409"><ele>570.0</ele><time>2026-03-22T11:09:52.679Z</time></trkpt><trkpt lat="43.7134526" lon="12.7361819"><ele>570.0</ele><time>2026-03-22T11:09:53.682Z</time></trkpt><trkpt lat="43.7132908" lon="12.7361691"><ele>568.6666666666666</ele><time>2026-03-22T11:09:54.68Z</time></trkpt><trkpt lat="43.7131157" lon="12.7361798"><ele>567.3333333333333</ele><time>2026-03-22T11:09:55.679Z</time></trkpt><trkpt lat="43.7129443" lon="12.7361723"><ele>566.0</ele><time>2026-03-22T11:09:56.681Z</time></trkpt><trkpt lat="43.7127886" lon="12.7361572"><ele>565.6666666666666</ele><time>2026-03-22T11:09:57.682Z</time></trkpt><trkpt lat="43.7126384" lon="12.7361592"><ele>565.3333333333334</ele><time>2026-03-22T11:09:58.687Z</time></trkpt><trkpt lat="43.7124664" lon="12.7361245"><ele>565.0</ele><time>2026-03-22T11:09:59.691Z</time></trkpt><trkpt lat="43.7122974" lon="12.7360879"><ele>565.0</ele><time>2026-03-22T11:10:00.691Z</time></trkpt><trkpt lat="43.7121292" lon="12.7360558"><ele>565.0</ele><time>2026-03-22T11:10:01.691Z</time></trkpt><trkpt lat="43.7119777" lon="12.7360324"><ele>565.0</ele><time>2026-03-22T11:10:02.69Z</time></trkpt><trkpt lat="43.7118282" lon="12.7360072"><ele>565.5</ele><time>2026-03-22T11:10:03.683Z</time></trkpt><trkpt lat="43.7116855" lon="12.7360034"><ele>566.0</ele><time>2026-03-22T11:10:04.688Z</time></trkpt><trkpt lat="43.7115654" lon="12.7360288"><ele>566.5</ele><time>2026-03-22T11:10:05.699Z</time></trkpt><trkpt lat="43.7114703" lon="12.7361082"><ele>567.0</ele><time>2026-03-22T11:10:06.698Z</time></trkpt><trkpt lat="43.7113809" lon="12.7362114"><ele>567.0</ele><time>2026-03-22T11:10:07.693Z</time></trkpt><trkpt lat="43.7113049" lon="12.7363385"><ele>567.0</ele><time>2026-03-22T11:10:08.71Z</time></trkpt><trkpt lat="43.7112501" lon="12.7364884"><ele>567.0</ele><time>2026-03-22T11:10:09.7Z</time></trkpt><trkpt lat="43.7112045" lon="12.7366499"><ele>567.0</ele><time>2026-03-22T11:10:10.696Z</time></trkpt><trkpt lat="43.7111648" lon="12.7368104"><ele>566.25</ele><time>2026-03-22T11:10:11.7Z</time></trkpt><trkpt lat="43.7111345" lon="12.7369777"><ele>565.5</ele><time>2026-03-22T11:10:12.698Z</time></trkpt><trkpt lat="43.7111172" lon="12.7371543"><ele>564.75</ele><time>2026-03-22T11:10:13.699Z</time></trkpt><trkpt lat="43.7111164" lon="12.7373343"><ele>564.0</ele><time>2026-03-22T11:10:14.703Z</time></trkpt><trkpt lat="43.711119" lon="12.7375175"><ele>564.0</ele><time>2026-03-22T11:10:15.707Z</time></trkpt><trkpt lat="43.7111358" lon="12.7376943"><ele>564.0</ele><time>2026-03-22T11:10:16.694Z</time></trkpt><trkpt lat="43.7111487" lon="12.737859"><ele>564.0</ele><time>2026-03-22T11:10:17.693Z</time></trkpt><trkpt lat="43.7111646" lon="12.7380385"><ele>564.0</ele><time>2026-03-22T11:10:18.693Z</time></trkpt><trkpt lat="43.7111895" lon="12.7382211"><ele>567.25</ele><time>2026-03-22T11:10:19.705Z</time></trkpt><trkpt lat="43.7112368" lon="12.738402"><ele>570.5</ele><time>2026-03-22T11:10:20.688Z</time></trkpt><trkpt lat="43.7113298" lon="12.7385601"><ele>573.75</ele><time>2026-03-22T11:10:21.684Z</time></trkpt><trkpt lat="43.7114162" lon="12.738705"><ele>577.0</ele><time>2026-03-22T11:10:22.692Z</time></trkpt><trkpt lat="43.7115092" lon="12.7388461"><ele>580.75</ele><time>2026-03-22T11:10:23.695Z</time></trkpt><trkpt lat="43.7115969" lon="12.7389799"><ele>584.5</ele><time>2026-03-22T11:10:24.69Z</time></trkpt><trkpt lat="43.7116941" lon="12.7391105"><ele>588.25</ele><time>2026-03-22T11:10:25.686Z</time></trkpt><trkpt lat="43.7117877" lon="12.7392287"><ele>592.0</ele><time>2026-03-22T11:10:26.688Z</time></trkpt><trkpt lat="43.7118767" lon="12.7393432"><ele>591.0</ele><time>2026-03-22T11:10:27.686Z</time></trkpt><trkpt lat="43.7119542" lon="12.739454"><ele>590.0</ele><time>2026-03-22T11:10:28.686Z</time></trkpt><trkpt lat="43.7120293" lon="12.7395602"><ele>589.0</ele><time>2026-03-22T11:10:29.687Z</time></trkpt><trkpt lat="43.7120972" lon="12.7396575"><ele>588.0</ele><time>2026-03-22T11:10:30.697Z</time></trkpt><trkpt lat="43.7121566" lon="12.7397469"><ele>587.0</ele><time>2026-03-22T11:10:31.702Z</time></trkpt><trkpt lat="43.7122127" lon="12.7398228"><ele>587.0</ele><time>2026-03-22T11:10:32.705Z</time></trkpt><trkpt lat="43.7122437" lon="12.7399287"><ele>587.0</ele><time>2026-03-22T11:10:33.696Z</time></trkpt><trkpt lat="43.7122833" lon="12.7400539"><ele>587.0</ele><time>2026-03-22T11:10:34.687Z</time></trkpt><trkpt lat="43.7123346" lon="12.7402029"><ele>587.0</ele><time>2026-03-22T11:10:35.686Z</time></trkpt><trkpt lat="43.7123873" lon="12.7403475"><ele>587.0</ele><time>2026-03-22T11:10:36.701Z</time></trkpt><trkpt lat="43.7124414" lon="12.7405187"><ele>587.5</ele><time>2026-03-22T11:10:37.699Z</time></trkpt><trkpt lat="43.7124959" lon="12.7406806"><ele>588.0</ele><time>2026-03-22T11:10:38.69Z</time></trkpt><trkpt lat="43.7125561" lon="12.7408233"><ele>588.5</ele><time>2026-03-22T11:10:39.695Z</time></trkpt><trkpt lat="43.7126009" lon="12.7409724"><ele>589.0</ele><time>2026-03-22T11:10:40.694Z</time></trkpt><trkpt lat="43.7126833" lon="12.7411325"><ele>586.25</ele><time>2026-03-22T11:10:41.695Z</time></trkpt><trkpt lat="43.7127619" lon="12.7413045"><ele>583.5</ele><time>2026-03-22T11:10:42.695Z</time></trkpt><trkpt lat="43.712846" lon="12.7414773"><ele>580.75</ele><time>2026-03-22T11:10:43.704Z</time></trkpt><trkpt lat="43.7129232" lon="12.7416364"><ele>578.0</ele><time>2026-03-22T11:10:44.693Z</time></trkpt><trkpt lat="43.7129955" lon="12.741776"><ele>579.5</ele><time>2026-03-22T11:10:45.694Z</time></trkpt><trkpt lat="43.7130686" lon="12.7419203"><ele>581.0</ele><time>2026-03-22T11:10:46.707Z</time></trkpt><trkpt lat="43.7131418" lon="12.7420806"><ele>582.5</ele><time>2026-03-22T11:10:47.704Z</time></trkpt><trkpt lat="43.7132258" lon="12.7422486"><ele>584.0</ele><time>2026-03-22T11:10:48.706Z</time></trkpt><trkpt lat="43.7133069" lon="12.742412"><ele>584.0</ele><time>2026-03-22T11:10:49.7Z</time></trkpt><trkpt lat="43.7133689" lon="12.7425943"><ele>584.0</ele><time>2026-03-22T11:10:50.694Z</time></trkpt><trkpt lat="43.7134291" lon="12.7427614"><ele>584.0</ele><time>2026-03-22T11:10:51.696Z</time></trkpt><trkpt lat="43.7134843" lon="12.742946"><ele>584.0</ele><time>2026-03-22T11:10:52.703Z</time></trkpt><trkpt lat="43.7135322" lon="12.743137"><ele>584.75</ele><time>2026-03-22T11:10:53.704Z</time></trkpt><trkpt lat="43.7135643" lon="12.7433061"><ele>585.5</ele><time>2026-03-22T11:10:54.705Z</time></trkpt><trkpt lat="43.7136055" lon="12.7434879"><ele>586.25</ele><time>2026-03-22T11:10:55.71Z</time></trkpt><trkpt lat="43.713658" lon="12.7436669"><ele>587.0</ele><time>2026-03-22T11:10:56.704Z</time></trkpt><trkpt lat="43.7137192" lon="12.7438462"><ele>584.0</ele><time>2026-03-22T11:10:57.702Z</time></trkpt><trkpt lat="43.7137852" lon="12.7440272"><ele>581.0</ele><time>2026-03-22T11:10:58.704Z</time></trkpt><trkpt lat="43.7138407" lon="12.7442136"><ele>578.0</ele><time>2026-03-22T11:10:59.704Z</time></trkpt><trkpt lat="43.7138741" lon="12.7444016"><ele>575.0</ele><time>2026-03-22T11:11:00.706Z</time></trkpt><trkpt lat="43.7139159" lon="12.7445805"><ele>575.0</ele><time>2026-03-22T11:11:01.706Z</time></trkpt><trkpt lat="43.7139615" lon="12.7447664"><ele>575.0</ele><time>2026-03-22T11:11:02.705Z</time></trkpt><trkpt lat="43.7140067" lon="12.7449425"><ele>575.0</ele><time>2026-03-22T11:11:03.706Z</time></trkpt><trkpt lat="43.7140527" lon="12.7451062"><ele>575.0</ele><time>2026-03-22T11:11:04.71Z</time></trkpt><trkpt lat="43.7140969" lon="12.7452695"><ele>575.25</ele><time>2026-03-22T11:11:05.708Z</time></trkpt><trkpt lat="43.7141663" lon="12.745471"><ele>575.5</ele><time>2026-03-22T11:11:06.699Z</time></trkpt><trkpt lat="43.7142301" lon="12.7455856"><ele>575.75</ele><time>2026-03-22T11:11:07.715Z</time></trkpt><trkpt lat="43.7142808" lon="12.7456976"><ele>576.0</ele><time>2026-03-22T11:11:08.713Z</time></trkpt><trkpt lat="43.714316" lon="12.7458495"><ele>576.0</ele><time>2026-03-22T11:11:09.699Z</time></trkpt><trkpt lat="43.7143422" lon="12.7460036"><ele>576.0</ele><time>2026-03-22T11:11:10.715Z</time></trkpt><trkpt lat="43.7143799" lon="12.7461957"><ele>576.0</ele><time>2026-03-22T11:11:11.693Z</time></trkpt><trkpt lat="43.7144131" lon="12.7463652"><ele>576.0</ele><time>2026-03-22T11:11:12.707Z</time></trkpt><trkpt lat="43.7144911" lon="12.746506"><ele>573.3333333333334</ele><time>2026-03-22T11:11:13.712Z</time></trkpt><trkpt lat="43.7146067" lon="12.7466292"><ele>570.6666666666667</ele><time>2026-03-22T11:11:14.706Z</time></trkpt><trkpt lat="43.7147314" lon="12.746745"><ele>568.0</ele><time>2026-03-22T11:11:15.705Z</time></trkpt><trkpt lat="43.7148651" lon="12.7468704"><ele>567.4</ele><time>2026-03-22T11:11:16.704Z</time></trkpt><trkpt lat="43.7149848" lon="12.7469957"><ele>566.8</ele><time>2026-03-22T11:11:17.719Z</time></trkpt><trkpt lat="43.7150632" lon="12.7470773"><ele>566.2</ele><time>2026-03-22T11:11:18.712Z</time></trkpt><trkpt lat="43.7149714" lon="12.7471403"><ele>565.6</ele><time>2026-03-22T11:11:23.698Z</time></trkpt><trkpt lat="43.7149063" lon="12.7471095"><ele>565.0</ele><time>2026-03-22T11:11:24.707Z</time></trkpt><trkpt lat="43.7148171" lon="12.7472054"><ele>565.0</ele><time>2026-03-22T11:11:26.695Z</time></trkpt><trkpt lat="43.7147833" lon="12.7472907"><ele>565.0</ele><time>2026-03-22T11:11:27.693Z</time></trkpt><trkpt lat="43.7147653" lon="12.7474179"><ele>565.0</ele><time>2026-03-22T11:11:28.705Z</time></trkpt><trkpt lat="43.7147433" lon="12.7475635"><ele>565.0</ele><time>2026-03-22T11:11:29.7Z</time></trkpt><trkpt lat="43.7147299" lon="12.7476722"><ele>565.0</ele><time>2026-03-22T11:11:30.703Z</time></trkpt><trkpt lat="43.7147537" lon="12.7477834"><ele>565.0</ele><time>2026-03-22T11:11:31.713Z</time></trkpt><trkpt lat="43.7147994" lon="12.7478623"><ele>563.8</ele><time>2026-03-22T11:11:32.713Z</time></trkpt><trkpt lat="43.7148521" lon="12.7479296"><ele>562.6</ele><time>2026-03-22T11:11:33.711Z</time></trkpt><trkpt lat="43.7149209" lon="12.747984"><ele>561.4</ele><time>2026-03-22T11:11:34.698Z</time></trkpt><trkpt lat="43.7149758" lon="12.7480504"><ele>560.2</ele><time>2026-03-22T11:11:35.705Z</time></trkpt><trkpt lat="43.7149327" lon="12.7482082"><ele>559.0</ele><time>2026-03-22T11:11:37.705Z</time></trkpt><trkpt lat="43.7148619" lon="12.7483299"><ele>559.0</ele><time>2026-03-22T11:11:39.711Z</time></trkpt><trkpt lat="43.714827" lon="12.7484443"><ele>559.0</ele><time>2026-03-22T11:11:40.707Z</time></trkpt><trkpt lat="43.7147903" lon="12.7485979"><ele>559.0</ele><time>2026-03-22T11:11:41.712Z</time></trkpt><trkpt lat="43.714766" lon="12.7487319"><ele>559.0</ele><time>2026-03-22T11:11:42.711Z</time></trkpt><trkpt lat="43.7147395" lon="12.7488422"><ele>559.0</ele><time>2026-03-22T11:11:43.712Z</time></trkpt><trkpt lat="43.7147098" lon="12.7489986"><ele>556.5</ele><time>2026-03-22T11:11:44.712Z</time></trkpt><trkpt lat="43.7146628" lon="12.7491436"><ele>554.0</ele><time>2026-03-22T11:11:45.71Z</time></trkpt><trkpt lat="43.7146071" lon="12.74932"><ele>551.5</ele><time>2026-03-22T11:11:46.713Z</time></trkpt><trkpt lat="43.7145571" lon="12.7494921"><ele>549.0</ele><time>2026-03-22T11:11:47.698Z</time></trkpt><trkpt lat="43.7145019" lon="12.7496615"><ele>547.0</ele><time>2026-03-22T11:11:48.708Z</time></trkpt><trkpt lat="43.71444" lon="12.7498267"><ele>545.0</ele><time>2026-03-22T11:11:49.707Z</time></trkpt><trkpt lat="43.7143788" lon="12.7499792"><ele>543.0</ele><time>2026-03-22T11:11:50.701Z</time></trkpt><trkpt lat="43.7143086" lon="12.7501348"><ele>541.0</ele><time>2026-03-22T11:11:51.703Z</time></trkpt><trkpt lat="43.7142384" lon="12.7502901"><ele>541.0</ele><time>2026-03-22T11:11:52.698Z</time></trkpt><trkpt lat="43.7141661" lon="12.7504516"><ele>541.0</ele><time>2026-03-22T11:11:53.687Z</time></trkpt><trkpt lat="43.7140849" lon="12.750596"><ele>541.0</ele><time>2026-03-22T11:11:54.702Z</time></trkpt><trkpt lat="43.7140052" lon="12.7507519"><ele>541.0</ele><time>2026-03-22T11:11:55.7Z</time></trkpt><trkpt lat="43.7139325" lon="12.7509215"><ele>542.5</ele><time>2026-03-22T11:11:56.704Z</time></trkpt><trkpt lat="43.7138652" lon="12.7510692"><ele>544.0</ele><time>2026-03-22T11:11:57.706Z</time></trkpt><trkpt lat="43.7138063" lon="12.7512118"><ele>545.5</ele><time>2026-03-22T11:11:58.707Z</time></trkpt><trkpt lat="43.7137567" lon="12.7513664"><ele>547.0</ele><time>2026-03-22T11:11:59.703Z</time></trkpt><trkpt lat="43.713685" lon="12.7515519"><ele>547.0</ele><time>2026-03-22T11:12:00.704Z</time></trkpt><trkpt lat="43.7136361" lon="12.7517357"><ele>547.0</ele><time>2026-03-22T11:12:01.716Z</time></trkpt><trkpt lat="43.7135891" lon="12.7519352"><ele>547.0</ele><time>2026-03-22T11:12:02.722Z</time></trkpt><trkpt lat="43.7135687" lon="12.7521373"><ele>547.0</ele><time>2026-03-22T11:12:03.715Z</time></trkpt><trkpt lat="43.7135748" lon="12.7523359"><ele>546.5</ele><time>2026-03-22T11:12:04.72Z</time></trkpt><trkpt lat="43.713624" lon="12.7525288"><ele>546.0</ele><time>2026-03-22T11:12:05.719Z</time></trkpt><trkpt lat="43.713672" lon="12.7526917"><ele>545.5</ele><time>2026-03-22T11:12:06.71Z</time></trkpt><trkpt lat="43.7137358" lon="12.7528276"><ele>545.0</ele><time>2026-03-22T11:12:07.712Z</time></trkpt><trkpt lat="43.7137771" lon="12.7529703"><ele>544.2</ele><time>2026-03-22T11:12:08.715Z</time></trkpt><trkpt lat="43.7137928" lon="12.7531049"><ele>543.4</ele><time>2026-03-22T11:12:09.716Z</time></trkpt><trkpt lat="43.7137787" lon="12.7532319"><ele>542.6</ele><time>2026-03-22T11:12:10.727Z</time></trkpt><trkpt lat="43.7137466" lon="12.7533338"><ele>541.8</ele><time>2026-03-22T11:12:11.709Z</time></trkpt><trkpt lat="43.7137113" lon="12.7534202"><ele>541.0</ele><time>2026-03-22T11:12:12.71Z</time></trkpt><trkpt lat="43.7136699" lon="12.7535724"><ele>539.4</ele><time>2026-03-22T11:12:14.708Z</time></trkpt><trkpt lat="43.7136893" lon="12.7537073"><ele>537.8</ele><time>2026-03-22T11:12:16.714Z</time></trkpt><trkpt lat="43.7137306" lon="12.7538909"><ele>536.1999999999999</ele><time>2026-03-22T11:12:18.714Z</time></trkpt><trkpt lat="43.7137523" lon="12.7540096"><ele>534.6</ele><time>2026-03-22T11:12:19.717Z</time></trkpt><trkpt lat="43.7137754" lon="12.7541406"><ele>533.0</ele><time>2026-03-22T11:12:20.714Z</time></trkpt><trkpt lat="43.7138078" lon="12.7542709"><ele>532.4</ele><time>2026-03-22T11:12:21.705Z</time></trkpt><trkpt lat="43.7138445" lon="12.7543997"><ele>531.8</ele><time>2026-03-22T11:12:22.709Z</time></trkpt><trkpt lat="43.7138903" lon="12.7545311"><ele>531.2</ele><time>2026-03-22T11:12:23.711Z</time></trkpt><trkpt lat="43.7139498" lon="12.7546626"><ele>530.6</ele><time>2026-03-22T11:12:24.709Z</time></trkpt><trkpt lat="43.7140177" lon="12.7548071"><ele>530.0</ele><time>2026-03-22T11:12:25.713Z</time></trkpt><trkpt lat="43.7140986" lon="12.7549498"><ele>530.0</ele><time>2026-03-22T11:12:26.715Z</time></trkpt><trkpt lat="43.7141796" lon="12.7550841"><ele>530.0</ele><time>2026-03-22T11:12:27.73Z</time></trkpt><trkpt lat="43.7142541" lon="12.7552157"><ele>530.0</ele><time>2026-03-22T11:12:28.718Z</time></trkpt><trkpt lat="43.7143189" lon="12.7553473"><ele>530.0</ele><time>2026-03-22T11:12:29.705Z</time></trkpt><trkpt lat="43.7143603" lon="12.7554789"><ele>530.4</ele><time>2026-03-22T11:12:30.723Z</time></trkpt><trkpt lat="43.7143687" lon="12.7556189"><ele>530.8</ele><time>2026-03-22T11:12:31.713Z</time></trkpt><trkpt lat="43.7143704" lon="12.7557514"><ele>531.2</ele><time>2026-03-22T11:12:32.705Z</time></trkpt><trkpt lat="43.7143629" lon="12.7558713"><ele>531.6</ele><time>2026-03-22T11:12:33.717Z</time></trkpt><trkpt lat="43.7143376" lon="12.7560032"><ele>532.0</ele><time>2026-03-22T11:12:34.716Z</time></trkpt><trkpt lat="43.7143141" lon="12.7561411"><ele>530.3333333333334</ele><time>2026-03-22T11:12:35.703Z</time></trkpt><trkpt lat="43.714303" lon="12.7562802"><ele>528.6666666666667</ele><time>2026-03-22T11:12:36.713Z</time></trkpt><trkpt lat="43.7143079" lon="12.756398"><ele>527.0</ele><time>2026-03-22T11:12:37.716Z</time></trkpt><trkpt lat="43.7143335" lon="12.7564937"><ele>525.3333333333334</ele><time>2026-03-22T11:12:38.713Z</time></trkpt><trkpt lat="43.7143653" lon="12.7565756"><ele>523.6666666666666</ele><time>2026-03-22T11:12:39.707Z</time></trkpt><trkpt lat="43.7144216" lon="12.7566255"><ele>522.0</ele><time>2026-03-22T11:12:40.728Z</time></trkpt><trkpt lat="43.7144947" lon="12.7566646"><ele>521.1666666666666</ele><time>2026-03-22T11:12:41.71Z</time></trkpt><trkpt lat="43.7145616" lon="12.7567044"><ele>520.3333333333334</ele><time>2026-03-22T11:12:42.703Z</time></trkpt><trkpt lat="43.7146216" lon="12.7567533"><ele>519.5</ele><time>2026-03-22T11:12:43.706Z</time></trkpt><trkpt lat="43.7146717" lon="12.7568091"><ele>518.6666666666667</ele><time>2026-03-22T11:12:44.711Z</time></trkpt><trkpt lat="43.7147595" lon="12.7569126"><ele>517.8333333333334</ele><time>2026-03-22T11:12:46.715Z</time></trkpt><trkpt lat="43.7148398" lon="12.7569553"><ele>517.0</ele><time>2026-03-22T11:12:47.709Z</time></trkpt><trkpt lat="43.7149313" lon="12.7570017"><ele>516.0</ele><time>2026-03-22T11:12:48.704Z</time></trkpt><trkpt lat="43.7150284" lon="12.7570245"><ele>515.0</ele><time>2026-03-22T11:12:49.71Z</time></trkpt><trkpt lat="43.7151279" lon="12.7570429"><ele>514.0</ele><time>2026-03-22T11:12:50.713Z</time></trkpt><trkpt lat="43.7152239" lon="12.7570588"><ele>513.0</ele><time>2026-03-22T11:12:51.705Z</time></trkpt><trkpt lat="43.7153205" lon="12.7570741"><ele>512.0</ele><time>2026-03-22T11:12:52.709Z</time></trkpt><trkpt lat="43.7154111" lon="12.7570839"><ele>509.3333333333333</ele><time>2026-03-22T11:12:53.715Z</time></trkpt><trkpt lat="43.7154881" lon="12.7570958"><ele>506.66666666666663</ele><time>2026-03-22T11:12:54.715Z</time></trkpt><trkpt lat="43.7155698" lon="12.757109"><ele>504.0</ele><time>2026-03-22T11:12:55.713Z</time></trkpt><trkpt lat="43.7156468" lon="12.7571505"><ele>501.33333333333337</ele><time>2026-03-22T11:12:56.71Z</time></trkpt><trkpt lat="43.7157194" lon="12.7572068"><ele>498.6666666666667</ele><time>2026-03-22T11:12:57.712Z</time></trkpt><trkpt lat="43.715793" lon="12.757271"><ele>496.0</ele><time>2026-03-22T11:12:58.711Z</time></trkpt><trkpt lat="43.7158692" lon="12.7573454"><ele>496.0</ele><time>2026-03-22T11:12:59.711Z</time></trkpt><trkpt lat="43.7159572" lon="12.7574188"><ele>496.0</ele><time>2026-03-22T11:13:00.711Z</time></trkpt><trkpt lat="43.7160553" lon="12.7574816"><ele>496.0</ele><time>2026-03-22T11:13:01.707Z</time></trkpt><trkpt lat="43.7161592" lon="12.7575343"><ele>496.0</ele><time>2026-03-22T11:13:02.711Z</time></trkpt><trkpt lat="43.7162602" lon="12.7575787"><ele>496.0</ele><time>2026-03-22T11:13:03.713Z</time></trkpt><trkpt lat="43.7163524" lon="12.7576258"><ele>491.50000000000006</ele><time>2026-03-22T11:13:04.713Z</time></trkpt><trkpt lat="43.7164434" lon="12.757665"><ele>487.0</ele><time>2026-03-22T11:13:05.714Z</time></trkpt><trkpt lat="43.7165187" lon="12.757695"><ele>482.5</ele><time>2026-03-22T11:13:06.712Z</time></trkpt><trkpt lat="43.7165852" lon="12.7577214"><ele>478.0</ele><time>2026-03-22T11:13:07.716Z</time></trkpt><trkpt lat="43.7166913" lon="12.7577468"><ele>473.50000000000006</ele><time>2026-03-22T11:13:09.71Z</time></trkpt><trkpt lat="43.7167789" lon="12.7577371"><ele>469.0</ele><time>2026-03-22T11:13:11.713Z</time></trkpt><trkpt lat="43.7168669" lon="12.7577451"><ele>463.50000000000006</ele><time>2026-03-22T11:13:13.71Z</time></trkpt><trkpt lat="43.7169304" lon="12.7578163"><ele>458.0</ele><time>2026-03-22T11:13:15.704Z</time></trkpt><trkpt lat="43.7169918" lon="12.7579862"><ele>452.5</ele><time>2026-03-22T11:13:17.713Z</time></trkpt><trkpt lat="43.7170097" lon="12.7580819"><ele>447.0</ele><time>2026-03-22T11:13:18.724Z</time></trkpt><trkpt lat="43.717006" lon="12.7581798"><ele>441.50000000000006</ele><time>2026-03-22T11:13:19.711Z</time></trkpt><trkpt lat="43.7169872" lon="12.7582913"><ele>436.0</ele><time>2026-03-22T11:13:20.718Z</time></trkpt><trkpt lat="43.7169773" lon="12.7583862"><ele>436.00000000000006</ele><time>2026-03-22T11:13:21.713Z</time></trkpt><trkpt lat="43.7169687" lon="12.758486"><ele>436.0</ele><time>2026-03-22T11:13:22.715Z</time></trkpt><trkpt lat="43.7169784" lon="12.758578"><ele>436.0</ele><time>2026-03-22T11:13:23.714Z</time></trkpt><trkpt lat="43.7170272" lon="12.7587237"><ele>436.0</ele><time>2026-03-22T11:13:25.71Z</time></trkpt><trkpt lat="43.7170791" lon="12.7588072"><ele>436.00000000000006</ele><time>2026-03-22T11:13:26.714Z</time></trkpt><trkpt lat="43.7171219" lon="12.7589138"><ele>436.0</ele><time>2026-03-22T11:13:27.706Z</time></trkpt><trkpt lat="43.7171727" lon="12.759038"><ele>435.6</ele><time>2026-03-22T11:13:28.709Z</time></trkpt><trkpt lat="43.7172196" lon="12.7591805"><ele>435.20000000000005</ele><time>2026-03-22T11:13:29.703Z</time></trkpt><trkpt lat="43.7172601" lon="12.7593199"><ele>434.79999999999995</ele><time>2026-03-22T11:13:30.706Z</time></trkpt><trkpt lat="43.7172736" lon="12.7594638"><ele>434.4</ele><time>2026-03-22T11:13:31.71Z</time></trkpt><trkpt lat="43.7172962" lon="12.7596028"><ele>434.0</ele><time>2026-03-22T11:13:32.707Z</time></trkpt><trkpt lat="43.7172983" lon="12.7597315"><ele>432.2</ele><time>2026-03-22T11:13:33.71Z</time></trkpt><trkpt lat="43.7172961" lon="12.7598562"><ele>430.4</ele><time>2026-03-22T11:13:34.717Z</time></trkpt><trkpt lat="43.7172858" lon="12.7599862"><ele>428.6</ele><time>2026-03-22T11:13:35.71Z</time></trkpt><trkpt lat="43.7172807" lon="12.760116"><ele>426.8</ele><time>2026-03-22T11:13:36.719Z</time></trkpt><trkpt lat="43.7172868" lon="12.7602522"><ele>425.0</ele><time>2026-03-22T11:13:37.716Z</time></trkpt><trkpt lat="43.7172918" lon="12.7603797"><ele>422.4</ele><time>2026-03-22T11:13:38.717Z</time></trkpt><trkpt lat="43.7172994" lon="12.7605063"><ele>419.8</ele><time>2026-03-22T11:13:39.718Z</time></trkpt><trkpt lat="43.7173125" lon="12.7606392"><ele>417.20000000000005</ele><time>2026-03-22T11:13:40.72Z</time></trkpt><trkpt lat="43.7173213" lon="12.7607711"><ele>414.6</ele><time>2026-03-22T11:13:41.725Z</time></trkpt><trkpt lat="43.7173459" lon="12.7608966"><ele>412.0</ele><time>2026-03-22T11:13:42.727Z</time></trkpt><trkpt lat="43.7173786" lon="12.7610096"><ele>409.0</ele><time>2026-03-22T11:13:43.721Z</time></trkpt><trkpt lat="43.717411" lon="12.7611162"><ele>406.0</ele><time>2026-03-22T11:13:44.716Z</time></trkpt><trkpt lat="43.7174371" lon="12.7612201"><ele>403.0</ele><time>2026-03-22T11:13:45.711Z</time></trkpt><trkpt lat="43.7174608" lon="12.7613256"><ele>400.0</ele><time>2026-03-22T11:13:46.814Z</time></trkpt><trkpt lat="43.7174754" lon="12.7614244"><ele>397.0</ele><time>2026-03-22T11:13:47.836Z</time></trkpt><trkpt lat="43.7174684" lon="12.7616338"><ele>397.00000000000006</ele><time>2026-03-22T11:13:49.725Z</time></trkpt><trkpt lat="43.7174776" lon="12.7618042"><ele>397.0</ele><time>2026-03-22T11:13:50.709Z</time></trkpt><trkpt lat="43.7174842" lon="12.7619384"><ele>397.0</ele><time>2026-03-22T11:13:51.724Z</time></trkpt><trkpt lat="43.7174715" lon="12.7620435"><ele>397.0</ele><time>2026-03-22T11:13:52.721Z</time></trkpt><trkpt lat="43.7174461" lon="12.7621261"><ele>397.00000000000006</ele><time>2026-03-22T11:13:53.726Z</time></trkpt><trkpt lat="43.7174354" lon="12.762242"><ele>397.0</ele><time>2026-03-22T11:13:54.71Z</time></trkpt><trkpt lat="43.7174118" lon="12.7623456"><ele>393.6666666666667</ele><time>2026-03-22T11:13:55.709Z</time></trkpt><trkpt lat="43.7173889" lon="12.7624577"><ele>390.33333333333337</ele><time>2026-03-22T11:13:56.711Z</time></trkpt><trkpt lat="43.7173705" lon="12.7625706"><ele>387.0</ele><time>2026-03-22T11:13:57.717Z</time></trkpt><trkpt lat="43.7173635" lon="12.7626864"><ele>383.6666666666667</ele><time>2026-03-22T11:13:59.706Z</time></trkpt><trkpt lat="43.7174066" lon="12.7627554"><ele>380.33333333333337</ele><time>2026-03-22T11:14:01.707Z</time></trkpt><trkpt lat="43.7174786" lon="12.7627959"><ele>377.0</ele><time>2026-03-22T11:14:03.706Z</time></trkpt><trkpt lat="43.717561" lon="12.7627422"><ele>377.0</ele><time>2026-03-22T11:14:04.699Z</time></trkpt><trkpt lat="43.7176611" lon="12.7626384"><ele>377.0</ele><time>2026-03-22T11:14:05.705Z</time></trkpt><trkpt lat="43.7177342" lon="12.7625417"><ele>377.0</ele><time>2026-03-22T11:14:06.706Z</time></trkpt><trkpt lat="43.7178381" lon="12.7624479"><ele>377.0</ele><time>2026-03-22T11:14:07.7Z</time></trkpt><trkpt lat="43.7180016" lon="12.7624569"><ele>374.75</ele><time>2026-03-22T11:14:08.687Z</time></trkpt><trkpt lat="43.7181506" lon="12.7624574"><ele>372.5</ele><time>2026-03-22T11:14:09.708Z</time></trkpt><trkpt lat="43.7181762" lon="12.7625815"><ele>370.25</ele><time>2026-03-22T11:14:11.719Z</time></trkpt><trkpt lat="43.7181489" lon="12.7626914"><ele>368.0</ele><time>2026-03-22T11:14:12.712Z</time></trkpt><trkpt lat="43.7180794" lon="12.7628422"><ele>365.5</ele><time>2026-03-22T11:14:14.716Z</time></trkpt><trkpt lat="43.7180078" lon="12.7629201"><ele>363.0</ele><time>2026-03-22T11:14:15.713Z</time></trkpt><trkpt lat="43.7179608" lon="12.763015"><ele>360.5</ele><time>2026-03-22T11:14:16.714Z</time></trkpt><trkpt lat="43.7179159" lon="12.7631046"><ele>358.0</ele><time>2026-03-22T11:14:17.718Z</time></trkpt><trkpt lat="43.7178769" lon="12.7631853"><ele>355.5</ele><time>2026-03-22T11:14:18.709Z</time></trkpt><trkpt lat="43.7178255" lon="12.76325"><ele>353.0</ele><time>2026-03-22T11:14:19.719Z</time></trkpt><trkpt lat="43.7177706" lon="12.7633138"><ele>353.59999999999997</ele><time>2026-03-22T11:14:20.706Z</time></trkpt><trkpt lat="43.7176655" lon="12.7633953"><ele>354.2</ele><time>2026-03-22T11:14:22.702Z</time></trkpt><trkpt lat="43.7175738" lon="12.7634436"><ele>354.8</ele><time>2026-03-22T11:14:24.705Z</time></trkpt><trkpt lat="43.7175816" lon="12.763552"><ele>355.4</ele><time>2026-03-22T11:14:27.711Z</time></trkpt><trkpt lat="43.7176446" lon="12.7635898"><ele>356.0</ele><time>2026-03-22T11:14:28.716Z</time></trkpt><trkpt lat="43.7177283" lon="12.7636492"><ele>353.4</ele><time>2026-03-22T11:14:29.713Z</time></trkpt><trkpt lat="43.7178273" lon="12.7637346"><ele>350.8</ele><time>2026-03-22T11:14:30.703Z</time></trkpt><trkpt lat="43.7179186" lon="12.7638069"><ele>348.2</ele><time>2026-03-22T11:14:31.702Z</time></trkpt><trkpt lat="43.7180062" lon="12.7638568"><ele>345.59999999999997</ele><time>2026-03-22T11:14:32.711Z</time></trkpt><trkpt lat="43.7181001" lon="12.7638558"><ele>343.0</ele><time>2026-03-22T11:14:33.713Z</time></trkpt><trkpt lat="43.7181985" lon="12.7638009"><ele>343.0</ele><time>2026-03-22T11:14:34.708Z</time></trkpt><trkpt lat="43.718304" lon="12.7637115"><ele>343.0</ele><time>2026-03-22T11:14:35.707Z</time></trkpt><trkpt lat="43.7184038" lon="12.7636259"><ele>343.0</ele><time>2026-03-22T11:14:36.717Z</time></trkpt><trkpt lat="43.7185047" lon="12.7635876"><ele>343.0</ele><time>2026-03-22T11:14:37.718Z</time></trkpt><trkpt lat="43.7186149" lon="12.7636112"><ele>341.2</ele><time>2026-03-22T11:14:38.712Z</time></trkpt><trkpt lat="43.7187121" lon="12.7636642"><ele>339.4</ele><time>2026-03-22T11:14:39.708Z</time></trkpt><trkpt lat="43.7188009" lon="12.7637379"><ele>337.59999999999997</ele><time>2026-03-22T11:14:40.708Z</time></trkpt><trkpt lat="43.7188895" lon="12.7638279"><ele>335.79999999999995</ele><time>2026-03-22T11:14:41.708Z</time></trkpt><trkpt lat="43.7189699" lon="12.7639255"><ele>334.0</ele><time>2026-03-22T11:14:42.697Z</time></trkpt><trkpt lat="43.7190472" lon="12.7640254"><ele>334.0</ele><time>2026-03-22T11:14:43.71Z</time></trkpt><trkpt lat="43.7191129" lon="12.7641506"><ele>334.0</ele><time>2026-03-22T11:14:44.712Z</time></trkpt><trkpt lat="43.7191441" lon="12.7643228"><ele>334.0</ele><time>2026-03-22T11:14:45.719Z</time></trkpt><trkpt lat="43.7191366" lon="12.7645201"><ele>334.0</ele><time>2026-03-22T11:14:46.704Z</time></trkpt><trkpt lat="43.7191362" lon="12.7646957"><ele>335.75</ele><time>2026-03-22T11:14:47.713Z</time></trkpt><trkpt lat="43.7191544" lon="12.7648655"><ele>337.5</ele><time>2026-03-22T11:14:48.711Z</time></trkpt><trkpt lat="43.7191864" lon="12.7650207"><ele>339.25</ele><time>2026-03-22T11:14:49.709Z</time></trkpt><trkpt lat="43.7192446" lon="12.7651647"><ele>341.0</ele><time>2026-03-22T11:14:50.712Z</time></trkpt><trkpt lat="43.7192837" lon="12.7652896"><ele>340.6</ele><time>2026-03-22T11:14:51.707Z</time></trkpt><trkpt lat="43.7193018" lon="12.7653978"><ele>340.20000000000005</ele><time>2026-03-22T11:14:52.709Z</time></trkpt><trkpt lat="43.7193613" lon="12.7654428"><ele>339.79999999999995</ele><time>2026-03-22T11:14:53.7Z</time></trkpt><trkpt lat="43.7194309" lon="12.7655051"><ele>339.4</ele><time>2026-03-22T11:14:54.697Z</time></trkpt><trkpt lat="43.7195483" lon="12.7655573"><ele>339.0</ele><time>2026-03-22T11:14:55.697Z</time></trkpt><trkpt lat="43.7196898" lon="12.7656083"><ele>339.0</ele><time>2026-03-22T11:14:56.698Z</time></trkpt><trkpt lat="43.7198314" lon="12.7656737"><ele>339.0</ele><time>2026-03-22T11:14:57.7Z</time></trkpt><trkpt lat="43.7199756" lon="12.7657312"><ele>339.0</ele><time>2026-03-22T11:14:58.696Z</time></trkpt><trkpt lat="43.7201451" lon="12.7657886"><ele>334.3333333333333</ele><time>2026-03-22T11:14:59.699Z</time></trkpt><trkpt lat="43.7203356" lon="12.7658248"><ele>329.66666666666663</ele><time>2026-03-22T11:15:00.687Z</time></trkpt><trkpt lat="43.7205282" lon="12.7658666"><ele>325.0</ele><time>2026-03-22T11:15:01.69Z</time></trkpt><trkpt lat="43.7207077" lon="12.7659127"><ele>325.0</ele><time>2026-03-22T11:15:02.691Z</time></trkpt><trkpt lat="43.7208724" lon="12.7659598"><ele>325.0</ele><time>2026-03-22T11:15:03.695Z</time></trkpt><trkpt lat="43.7210212" lon="12.7660103"><ele>325.0</ele><time>2026-03-22T11:15:04.693Z</time></trkpt><trkpt lat="43.7211469" lon="12.7660409"><ele>325.0</ele><time>2026-03-22T11:15:05.689Z</time></trkpt><trkpt lat="43.7212683" lon="12.7660547"><ele>329.0</ele><time>2026-03-22T11:15:06.688Z</time></trkpt><trkpt lat="43.7213895" lon="12.7660648"><ele>333.0</ele><time>2026-03-22T11:15:07.691Z</time></trkpt><trkpt lat="43.7215177" lon="12.7660865"><ele>337.0</ele><time>2026-03-22T11:15:08.681Z</time></trkpt><trkpt lat="43.7216505" lon="12.766114"><ele>341.0</ele><time>2026-03-22T11:15:09.682Z</time></trkpt><trkpt lat="43.7217916" lon="12.7661442"><ele>336.75</ele><time>2026-03-22T11:15:10.682Z</time></trkpt><trkpt lat="43.7219258" lon="12.766161"><ele>332.5</ele><time>2026-03-22T11:15:11.682Z</time></trkpt><trkpt lat="43.722055" lon="12.7661772"><ele>328.25</ele><time>2026-03-22T11:15:12.676Z</time></trkpt><trkpt lat="43.7221703" lon="12.7662116"><ele>324.0</ele><time>2026-03-22T11:15:13.687Z</time></trkpt><trkpt lat="43.7222852" lon="12.7662205"><ele>324.0</ele><time>2026-03-22T11:15:14.678Z</time></trkpt><trkpt lat="43.7223948" lon="12.7662342"><ele>324.0</ele><time>2026-03-22T11:15:15.689Z</time></trkpt><trkpt lat="43.7224959" lon="12.7662295"><ele>324.0</ele><time>2026-03-22T11:15:16.686Z</time></trkpt><trkpt lat="43.7225754" lon="12.766168"><ele>324.0</ele><time>2026-03-22T11:15:17.694Z</time></trkpt><trkpt lat="43.7226262" lon="12.7661049"><ele>324.0</ele><time>2026-03-22T11:15:18.681Z</time></trkpt><trkpt lat="43.7226855" lon="12.7660396"><ele>324.0</ele><time>2026-03-22T11:15:19.685Z</time></trkpt><trkpt lat="43.722797" lon="12.7660093"><ele>320.0</ele><time>2026-03-22T11:15:21.697Z</time></trkpt><trkpt lat="43.7228733" lon="12.7660787"><ele>316.0</ele><time>2026-03-22T11:15:22.692Z</time></trkpt><trkpt lat="43.7229466" lon="12.7661542"><ele>312.0</ele><time>2026-03-22T11:15:23.703Z</time></trkpt><trkpt lat="43.7230173" lon="12.766207"><ele>308.0</ele><time>2026-03-22T11:15:24.705Z</time></trkpt><trkpt lat="43.7231222" lon="12.7662394"><ele>304.0</ele><time>2026-03-22T11:15:25.707Z</time></trkpt><trkpt lat="43.723238" lon="12.766245"><ele>304.0</ele><time>2026-03-22T11:15:26.696Z</time></trkpt><trkpt lat="43.7233421" lon="12.7662486"><ele>304.0</ele><time>2026-03-22T11:15:27.706Z</time></trkpt><trkpt lat="43.7234345" lon="12.766219"><ele>304.0</ele><time>2026-03-22T11:15:28.711Z</time></trkpt><trkpt lat="43.7235222" lon="12.7661398"><ele>304.0</ele><time>2026-03-22T11:15:29.715Z</time></trkpt><trkpt lat="43.7236367" lon="12.7660142"><ele>302.66666666666663</ele><time>2026-03-22T11:15:30.712Z</time></trkpt><trkpt lat="43.7237679" lon="12.7658679"><ele>301.3333333333333</ele><time>2026-03-22T11:15:31.706Z</time></trkpt><trkpt lat="43.7239061" lon="12.76577"><ele>300.0</ele><time>2026-03-22T11:15:32.711Z</time></trkpt><trkpt lat="43.7240341" lon="12.7656936"><ele>300.0</ele><time>2026-03-22T11:15:33.718Z</time></trkpt><trkpt lat="43.7241642" lon="12.7656335"><ele>300.0</ele><time>2026-03-22T11:15:34.713Z</time></trkpt><trkpt lat="43.7243172" lon="12.7656084"><ele>300.0</ele><time>2026-03-22T11:15:35.714Z</time></trkpt><trkpt lat="43.7244803" lon="12.7656072"><ele>298.6666666666667</ele><time>2026-03-22T11:15:36.703Z</time></trkpt><trkpt lat="43.7246413" lon="12.7656033"><ele>297.33333333333337</ele><time>2026-03-22T11:15:37.709Z</time></trkpt><trkpt lat="43.7247961" lon="12.7656015"><ele>296.0</ele><time>2026-03-22T11:15:38.72Z</time></trkpt><trkpt lat="43.7249453" lon="12.7655987"><ele>296.0</ele><time>2026-03-22T11:15:39.716Z</time></trkpt><trkpt lat="43.725081" lon="12.7655995"><ele>296.0</ele><time>2026-03-22T11:15:40.709Z</time></trkpt><trkpt lat="43.7252061" lon="12.765607"><ele>296.0</ele><time>2026-03-22T11:15:41.713Z</time></trkpt><trkpt lat="43.7253292" lon="12.7656378"><ele>296.0</ele><time>2026-03-22T11:15:42.718Z</time></trkpt><trkpt lat="43.7254516" lon="12.7657124"><ele>294.0</ele><time>2026-03-22T11:15:43.72Z</time></trkpt><trkpt lat="43.7255522" lon="12.7658456"><ele>292.0</ele><time>2026-03-22T11:15:44.723Z</time></trkpt><trkpt lat="43.7256411" lon="12.7660196"><ele>290.0</ele><time>2026-03-22T11:15:45.711Z</time></trkpt><trkpt lat="43.7257231" lon="12.7662223"><ele>289.0</ele><time>2026-03-22T11:15:46.706Z</time></trkpt><trkpt lat="43.7258053" lon="12.7664034"><ele>288.0</ele><time>2026-03-22T11:15:47.708Z</time></trkpt><trkpt lat="43.7258923" lon="12.7665706"><ele>287.0</ele><time>2026-03-22T11:15:48.704Z</time></trkpt><trkpt lat="43.7259771" lon="12.7667313"><ele>286.0</ele><time>2026-03-22T11:15:49.714Z</time></trkpt><trkpt lat="43.7260761" lon="12.7668998"><ele>284.66666666666663</ele><time>2026-03-22T11:15:50.714Z</time></trkpt><trkpt lat="43.7261843" lon="12.7670624"><ele>283.3333333333333</ele><time>2026-03-22T11:15:51.708Z</time></trkpt><trkpt lat="43.7262921" lon="12.7672324"><ele>282.0</ele><time>2026-03-22T11:15:52.712Z</time></trkpt><trkpt lat="43.7264087" lon="12.7674005"><ele>282.0</ele><time>2026-03-22T11:15:53.714Z</time></trkpt><trkpt lat="43.7265209" lon="12.7675833"><ele>282.0</ele><time>2026-03-22T11:15:54.719Z</time></trkpt><trkpt lat="43.7266303" lon="12.7677735"><ele>282.0</ele><time>2026-03-22T11:15:55.711Z</time></trkpt><trkpt lat="43.7267385" lon="12.7679608"><ele>280.0</ele><time>2026-03-22T11:15:56.706Z</time></trkpt><trkpt lat="43.7268549" lon="12.768145"><ele>278.0</ele><time>2026-03-22T11:15:57.716Z</time></trkpt><trkpt lat="43.7269601" lon="12.7683259"><ele>276.0</ele><time>2026-03-22T11:15:58.703Z</time></trkpt><trkpt lat="43.7270748" lon="12.7685111"><ele>275.6666666666667</ele><time>2026-03-22T11:15:59.708Z</time></trkpt><trkpt lat="43.7271762" lon="12.7686786"><ele>275.33333333333337</ele><time>2026-03-22T11:16:00.705Z</time></trkpt><trkpt lat="43.7272797" lon="12.7688516"><ele>275.0</ele><time>2026-03-22T11:16:01.71Z</time></trkpt><trkpt lat="43.7273776" lon="12.7690134"><ele>275.0</ele><time>2026-03-22T11:16:02.711Z</time></trkpt><trkpt lat="43.7274683" lon="12.7691587"><ele>275.0</ele><time>2026-03-22T11:16:03.711Z</time></trkpt><trkpt lat="43.7275638" lon="12.769316"><ele>275.0</ele><time>2026-03-22T11:16:04.708Z</time></trkpt><trkpt lat="43.7276485" lon="12.7694735"><ele>275.0</ele><time>2026-03-22T11:16:05.714Z</time></trkpt><trkpt lat="43.727736" lon="12.7696341"><ele>273.33333333333337</ele><time>2026-03-22T11:16:06.716Z</time></trkpt><trkpt lat="43.727824" lon="12.7698067"><ele>271.6666666666667</ele><time>2026-03-22T11:16:07.703Z</time></trkpt><trkpt lat="43.7279286" lon="12.7699696"><ele>270.0</ele><time>2026-03-22T11:16:08.695Z</time></trkpt><trkpt lat="43.7280204" lon="12.7701378"><ele>270.0</ele><time>2026-03-22T11:16:09.713Z</time></trkpt><trkpt lat="43.7281296" lon="12.7703207"><ele>270.0</ele><time>2026-03-22T11:16:10.708Z</time></trkpt><trkpt lat="43.728221" lon="12.7704936"><ele>270.0</ele><time>2026-03-22T11:16:11.706Z</time></trkpt><trkpt lat="43.7283215" lon="12.7706851"><ele>270.0</ele><time>2026-03-22T11:16:12.711Z</time></trkpt><trkpt lat="43.7284299" lon="12.7708676"><ele>270.0</ele><time>2026-03-22T11:16:13.714Z</time></trkpt><trkpt lat="43.7285318" lon="12.7710412"><ele>270.0</ele><time>2026-03-22T11:16:14.708Z</time></trkpt><trkpt lat="43.728611" lon="12.7712208"><ele>267.3333333333333</ele><time>2026-03-22T11:16:15.722Z</time></trkpt><trkpt lat="43.7286899" lon="12.7714019"><ele>264.66666666666663</ele><time>2026-03-22T11:16:16.716Z</time></trkpt><trkpt lat="43.7287912" lon="12.7716031"><ele>262.0</ele><time>2026-03-22T11:16:17.704Z</time></trkpt><trkpt lat="43.7289123" lon="12.7717789"><ele>260.66666666666663</ele><time>2026-03-22T11:16:18.713Z</time></trkpt><trkpt lat="43.7290197" lon="12.7719596"><ele>259.3333333333333</ele><time>2026-03-22T11:16:19.705Z</time></trkpt><trkpt lat="43.7291218" lon="12.7721526"><ele>258.0</ele><time>2026-03-22T11:16:20.709Z</time></trkpt><trkpt lat="43.7292198" lon="12.7723418"><ele>258.0</ele><time>2026-03-22T11:16:21.704Z</time></trkpt><trkpt lat="43.7293129" lon="12.7725307"><ele>258.0</ele><time>2026-03-22T11:16:22.719Z</time></trkpt><trkpt lat="43.7294116" lon="12.7727168"><ele>258.0</ele><time>2026-03-22T11:16:23.713Z</time></trkpt><trkpt lat="43.7295355" lon="12.7729175"><ele>256.0</ele><time>2026-03-22T11:16:24.716Z</time></trkpt><trkpt lat="43.7296612" lon="12.7730914"><ele>254.0</ele><time>2026-03-22T11:16:25.711Z</time></trkpt><trkpt lat="43.7297897" lon="12.7732591"><ele>252.0</ele><time>2026-03-22T11:16:26.707Z</time></trkpt><trkpt lat="43.7299243" lon="12.7734324"><ele>251.33333333333331</ele><time>2026-03-22T11:16:27.713Z</time></trkpt><trkpt lat="43.7300688" lon="12.7735974"><ele>250.66666666666666</ele><time>2026-03-22T11:16:28.71Z</time></trkpt><trkpt lat="43.7302125" lon="12.7737444"><ele>250.0</ele><time>2026-03-22T11:16:29.721Z</time></trkpt><trkpt lat="43.7303477" lon="12.7738915"><ele>248.0</ele><time>2026-03-22T11:16:30.707Z</time></trkpt><trkpt lat="43.7304814" lon="12.7740442"><ele>246.0</ele><time>2026-03-22T11:16:31.713Z</time></trkpt><trkpt lat="43.7306015" lon="12.774197"><ele>244.0</ele><time>2026-03-22T11:16:32.715Z</time></trkpt><trkpt lat="43.7307298" lon="12.7743582"><ele>243.33333333333331</ele><time>2026-03-22T11:16:33.713Z</time></trkpt><trkpt lat="43.7308483" lon="12.7745057"><ele>242.66666666666669</ele><time>2026-03-22T11:16:34.714Z</time></trkpt><trkpt lat="43.7309771" lon="12.774644"><ele>242.0</ele><time>2026-03-22T11:16:35.707Z</time></trkpt><trkpt lat="43.7311168" lon="12.7747721"><ele>239.66666666666669</ele><time>2026-03-22T11:16:36.707Z</time></trkpt><trkpt lat="43.7312541" lon="12.7748858"><ele>237.33333333333331</ele><time>2026-03-22T11:16:37.711Z</time></trkpt><trkpt lat="43.7313874" lon="12.7749858"><ele>235.0</ele><time>2026-03-22T11:16:38.71Z</time></trkpt><trkpt lat="43.7315229" lon="12.7750794"><ele>235.0</ele><time>2026-03-22T11:16:39.708Z</time></trkpt><trkpt lat="43.7316626" lon="12.7751716"><ele>235.0</ele><time>2026-03-22T11:16:40.715Z</time></trkpt><trkpt lat="43.731791" lon="12.7752721"><ele>235.0</ele><time>2026-03-22T11:16:41.714Z</time></trkpt><trkpt lat="43.731907" lon="12.7753969"><ele>235.0</ele><time>2026-03-22T11:16:42.712Z</time></trkpt><trkpt lat="43.7319946" lon="12.7755125"><ele>234.16666666666666</ele><time>2026-03-22T11:16:43.715Z</time></trkpt><trkpt lat="43.7320693" lon="12.7756202"><ele>233.33333333333331</ele><time>2026-03-22T11:16:44.718Z</time></trkpt><trkpt lat="43.7321317" lon="12.7757038"><ele>232.5</ele><time>2026-03-22T11:16:45.706Z</time></trkpt><trkpt lat="43.7321744" lon="12.7757685"><ele>231.66666666666669</ele><time>2026-03-22T11:16:47.706Z</time></trkpt><trkpt lat="43.7321623" lon="12.7758549"><ele>230.83333333333334</ele><time>2026-03-22T11:16:49.714Z</time></trkpt><trkpt lat="43.7321079" lon="12.7759032"><ele>230.0</ele><time>2026-03-22T11:17:01.707Z</time></trkpt><trkpt lat="43.7320566" lon="12.7758278"><ele>230.00000000000003</ele><time>2026-03-22T11:17:03.715Z</time></trkpt><trkpt lat="43.7320162" lon="12.7757491"><ele>230.0</ele><time>2026-03-22T11:17:04.703Z</time></trkpt><trkpt lat="43.731962" lon="12.7756658"><ele>230.0</ele><time>2026-03-22T11:17:05.703Z</time></trkpt><trkpt lat="43.7318926" lon="12.7755843"><ele>230.0</ele><time>2026-03-22T11:17:06.704Z</time></trkpt><trkpt lat="43.7318225" lon="12.7755118"><ele>230.00000000000003</ele><time>2026-03-22T11:17:07.706Z</time></trkpt><trkpt lat="43.7317538" lon="12.7754621"><ele>230.0</ele><time>2026-03-22T11:17:08.7Z</time></trkpt><trkpt lat="43.7316705" lon="12.7754207"><ele>229.5</ele><time>2026-03-22T11:17:09.698Z</time></trkpt><trkpt lat="43.7315748" lon="12.775411"><ele>229.0</ele><time>2026-03-22T11:17:10.702Z</time></trkpt><trkpt lat="43.7314634" lon="12.7754206"><ele>228.5</ele><time>2026-03-22T11:17:11.703Z</time></trkpt><trkpt lat="43.7313449" lon="12.7754275"><ele>228.0</ele><time>2026-03-22T11:17:12.7Z</time></trkpt><trkpt lat="43.7312225" lon="12.7754575"><ele>228.0</ele><time>2026-03-22T11:17:13.696Z</time></trkpt><trkpt lat="43.7311199" lon="12.7754862"><ele>228.0</ele><time>2026-03-22T11:17:14.697Z</time></trkpt><trkpt lat="43.7310313" lon="12.7755055"><ele>228.0</ele><time>2026-03-22T11:17:15.687Z</time></trkpt><trkpt lat="43.7309531" lon="12.7755192"><ele>228.0</ele><time>2026-03-22T11:17:16.694Z</time></trkpt><trkpt lat="43.7308854" lon="12.7756273"><ele>228.0</ele><time>2026-03-22T11:17:18.686Z</time></trkpt><trkpt lat="43.7308897" lon="12.7757363"><ele>225.75</ele><time>2026-03-22T11:17:19.687Z</time></trkpt><trkpt lat="43.7309229" lon="12.7758948"><ele>223.5</ele><time>2026-03-22T11:17:20.691Z</time></trkpt><trkpt lat="43.7309595" lon="12.7760834"><ele>221.25</ele><time>2026-03-22T11:17:21.697Z</time></trkpt><trkpt lat="43.7309992" lon="12.7762595"><ele>219.0</ele><time>2026-03-22T11:17:22.7Z</time></trkpt><trkpt lat="43.7310297" lon="12.7764223"><ele>217.33333333333334</ele><time>2026-03-22T11:17:23.704Z</time></trkpt><trkpt lat="43.7310424" lon="12.7765531"><ele>215.66666666666669</ele><time>2026-03-22T11:17:24.707Z</time></trkpt><trkpt lat="43.7310459" lon="12.7766465"><ele>214.0</ele><time>2026-03-22T11:17:25.7Z</time></trkpt><trkpt lat="43.7309938" lon="12.7767641"><ele>212.33333333333334</ele><time>2026-03-22T11:17:27.719Z</time></trkpt><trkpt lat="43.7309147" lon="12.776797"><ele>210.66666666666669</ele><time>2026-03-22T11:17:28.708Z</time></trkpt><trkpt lat="43.73083" lon="12.7768802"><ele>209.0</ele><time>2026-03-22T11:17:29.696Z</time></trkpt><trkpt lat="43.7307405" lon="12.7769797"><ele>209.0</ele><time>2026-03-22T11:17:30.701Z</time></trkpt><trkpt lat="43.7306435" lon="12.7771088"><ele>209.0</ele><time>2026-03-22T11:17:31.697Z</time></trkpt><trkpt lat="43.7305443" lon="12.77725"><ele>209.0</ele><time>2026-03-22T11:17:32.699Z</time></trkpt><trkpt lat="43.7304634" lon="12.7773581"><ele>209.0</ele><time>2026-03-22T11:17:33.711Z</time></trkpt><trkpt lat="43.7303722" lon="12.7774325"><ele>209.0</ele><time>2026-03-22T11:17:34.71Z</time></trkpt><trkpt lat="43.7302627" lon="12.7774604"><ele>209.0</ele><time>2026-03-22T11:17:35.707Z</time></trkpt><trkpt lat="43.7301315" lon="12.7774629"><ele>209.0</ele><time>2026-03-22T11:17:36.711Z</time></trkpt><trkpt lat="43.7299788" lon="12.777476"><ele>209.0</ele><time>2026-03-22T11:17:37.7Z</time></trkpt><trkpt lat="43.7298237" lon="12.777494"><ele>211.0</ele><time>2026-03-22T11:17:38.703Z</time></trkpt><trkpt lat="43.729672" lon="12.7774984"><ele>213.0</ele><time>2026-03-22T11:17:39.706Z</time></trkpt><trkpt lat="43.7295427" lon="12.7774908"><ele>215.0</ele><time>2026-03-22T11:17:40.704Z</time></trkpt><trkpt lat="43.729401" lon="12.7775111"><ele>217.0</ele><time>2026-03-22T11:17:41.706Z</time></trkpt><trkpt lat="43.7292532" lon="12.777498"><ele>220.25</ele><time>2026-03-22T11:17:42.706Z</time></trkpt><trkpt lat="43.7291142" lon="12.7774839"><ele>223.5</ele><time>2026-03-22T11:17:43.702Z</time></trkpt><trkpt lat="43.7289778" lon="12.7774799"><ele>226.75</ele><time>2026-03-22T11:17:44.702Z</time></trkpt><trkpt lat="43.7288468" lon="12.7774866"><ele>230.0</ele><time>2026-03-22T11:17:45.708Z</time></trkpt><trkpt lat="43.7287083" lon="12.7775165"><ele>230.0</ele><time>2026-03-22T11:17:46.704Z</time></trkpt><trkpt lat="43.7285782" lon="12.7775656"><ele>230.0</ele><time>2026-03-22T11:17:47.708Z</time></trkpt><trkpt lat="43.7284575" lon="12.7776202"><ele>230.0</ele><time>2026-03-22T11:17:48.713Z</time></trkpt><trkpt lat="43.7283378" lon="12.7776773"><ele>230.0</ele><time>2026-03-22T11:17:49.705Z</time></trkpt><trkpt lat="43.7282148" lon="12.7777413"><ele>235.0</ele><time>2026-03-22T11:17:50.71Z</time></trkpt><trkpt lat="43.7280908" lon="12.7777924"><ele>240.0</ele><time>2026-03-22T11:17:51.705Z</time></trkpt><trkpt lat="43.7279756" lon="12.7778603"><ele>245.0</ele><time>2026-03-22T11:17:52.698Z</time></trkpt><trkpt lat="43.7278667" lon="12.7779347"><ele>250.0</ele><time>2026-03-22T11:17:53.711Z</time></trkpt><trkpt lat="43.7277697" lon="12.778051"><ele>255.33333333333331</ele><time>2026-03-22T11:17:54.7Z</time></trkpt><trkpt lat="43.7276974" lon="12.7782231"><ele>260.6666666666667</ele><time>2026-03-22T11:17:55.71Z</time></trkpt><trkpt lat="43.7276404" lon="12.7784356"><ele>266.0</ele><time>2026-03-22T11:17:56.698Z</time></trkpt><trkpt lat="43.72758" lon="12.7786702"><ele>267.6666666666667</ele><time>2026-03-22T11:17:57.706Z</time></trkpt><trkpt lat="43.7275031" lon="12.7788838"><ele>269.3333333333333</ele><time>2026-03-22T11:17:58.709Z</time></trkpt><trkpt lat="43.7274243" lon="12.7790783"><ele>271.0</ele><time>2026-03-22T11:17:59.7Z</time></trkpt><trkpt lat="43.7273742" lon="12.7792755"><ele>271.3333333333333</ele><time>2026-03-22T11:18:00.706Z</time></trkpt><trkpt lat="43.7273398" lon="12.7794321"><ele>271.66666666666663</ele><time>2026-03-22T11:18:01.707Z</time></trkpt><trkpt lat="43.7272974" lon="12.779524"><ele>272.0</ele><time>2026-03-22T11:18:02.711Z</time></trkpt><trkpt lat="43.7272467" lon="12.7795813"><ele>272.3333333333333</ele><time>2026-03-22T11:18:03.711Z</time></trkpt><trkpt lat="43.7271827" lon="12.7795615"><ele>272.6666666666667</ele><time>2026-03-22T11:18:04.713Z</time></trkpt><trkpt lat="43.7271088" lon="12.7795007"><ele>273.0</ele><time>2026-03-22T11:18:05.711Z</time></trkpt><trkpt lat="43.7270116" lon="12.7794136"><ele>273.0</ele><time>2026-03-22T11:18:06.705Z</time></trkpt><trkpt lat="43.7269074" lon="12.7793602"><ele>273.0</ele><time>2026-03-22T11:18:07.702Z</time></trkpt><trkpt lat="43.7267887" lon="12.7793074"><ele>273.0</ele><time>2026-03-22T11:18:08.706Z</time></trkpt><trkpt lat="43.7266581" lon="12.7792558"><ele>273.0</ele><time>2026-03-22T11:18:09.706Z</time></trkpt><trkpt lat="43.7265377" lon="12.779219"><ele>275.2</ele><time>2026-03-22T11:18:10.704Z</time></trkpt><trkpt lat="43.7264209" lon="12.7791982"><ele>277.4</ele><time>2026-03-22T11:18:11.706Z</time></trkpt><trkpt lat="43.726312" lon="12.7791889"><ele>279.59999999999997</ele><time>2026-03-22T11:18:12.699Z</time></trkpt><trkpt lat="43.7262076" lon="12.7791819"><ele>281.8</ele><time>2026-03-22T11:18:13.707Z</time></trkpt><trkpt lat="43.726106" lon="12.7791694"><ele>284.0</ele><time>2026-03-22T11:18:14.697Z</time></trkpt><trkpt lat="43.7260115" lon="12.7791809"><ele>286.1666666666667</ele><time>2026-03-22T11:18:15.708Z</time></trkpt><trkpt lat="43.7259379" lon="12.7792099"><ele>288.33333333333337</ele><time>2026-03-22T11:18:16.716Z</time></trkpt><trkpt lat="43.7258843" lon="12.779267"><ele>290.5</ele><time>2026-03-22T11:18:17.707Z</time></trkpt><trkpt lat="43.725835" lon="12.77933"><ele>292.6666666666667</ele><time>2026-03-22T11:18:18.706Z</time></trkpt><trkpt lat="43.7257218" lon="12.7794286"><ele>294.8333333333333</ele><time>2026-03-22T11:18:20.703Z</time></trkpt><trkpt lat="43.7256623" lon="12.7794859"><ele>297.0</ele><time>2026-03-22T11:18:21.705Z</time></trkpt><trkpt lat="43.7255877" lon="12.7795492"><ele>298.4</ele><time>2026-03-22T11:18:22.704Z</time></trkpt><trkpt lat="43.7255021" lon="12.7796079"><ele>299.79999999999995</ele><time>2026-03-22T11:18:23.707Z</time></trkpt><trkpt lat="43.7253999" lon="12.7796461"><ele>301.2</ele><time>2026-03-22T11:18:24.7Z</time></trkpt><trkpt lat="43.7252874" lon="12.7796873"><ele>302.59999999999997</ele><time>2026-03-22T11:18:25.698Z</time></trkpt><trkpt lat="43.7251617" lon="12.7797297"><ele>304.0</ele><time>2026-03-22T11:18:26.689Z</time></trkpt><trkpt lat="43.7250389" lon="12.7797675"><ele>307.25</ele><time>2026-03-22T11:18:27.699Z</time></trkpt><trkpt lat="43.7249339" lon="12.7797668"><ele>310.5</ele><time>2026-03-22T11:18:28.703Z</time></trkpt><trkpt lat="43.7248325" lon="12.7797228"><ele>313.75</ele><time>2026-03-22T11:18:29.703Z</time></trkpt><trkpt lat="43.7247308" lon="12.7796407"><ele>317.0</ele><time>2026-03-22T11:18:30.687Z</time></trkpt><trkpt lat="43.7246265" lon="12.7795046"><ele>314.5</ele><time>2026-03-22T11:18:31.689Z</time></trkpt><trkpt lat="43.724523" lon="12.7793324"><ele>312.0</ele><time>2026-03-22T11:18:32.691Z</time></trkpt><trkpt lat="43.7244345" lon="12.7791569"><ele>309.5</ele><time>2026-03-22T11:18:33.703Z</time></trkpt><trkpt lat="43.7243787" lon="12.7790006"><ele>307.0</ele><time>2026-03-22T11:18:34.706Z</time></trkpt><trkpt lat="43.7243434" lon="12.7788781"><ele>311.4</ele><time>2026-03-22T11:18:35.709Z</time></trkpt><trkpt lat="43.7242866" lon="12.7788102"><ele>315.79999999999995</ele><time>2026-03-22T11:18:37.708Z</time></trkpt><trkpt lat="43.7242512" lon="12.7789166"><ele>320.2</ele><time>2026-03-22T11:18:39.695Z</time></trkpt><trkpt lat="43.7242544" lon="12.7790162"><ele>324.59999999999997</ele><time>2026-03-22T11:18:40.703Z</time></trkpt><trkpt lat="43.7242728" lon="12.7791568"><ele>329.0</ele><time>2026-03-22T11:18:41.705Z</time></trkpt><trkpt lat="43.7242897" lon="12.7793313"><ele>330.75</ele><time>2026-03-22T11:18:42.696Z</time></trkpt><trkpt lat="43.7243182" lon="12.7795193"><ele>332.5</ele><time>2026-03-22T11:18:43.697Z</time></trkpt><trkpt lat="43.7243582" lon="12.7796967"><ele>334.25</ele><time>2026-03-22T11:18:44.697Z</time></trkpt><trkpt lat="43.7244069" lon="12.7798496"><ele>336.0</ele><time>2026-03-22T11:18:45.693Z</time></trkpt><trkpt lat="43.7244558" lon="12.7799816"><ele>333.20000000000005</ele><time>2026-03-22T11:18:46.689Z</time></trkpt><trkpt lat="43.7245137" lon="12.7800852"><ele>330.40000000000003</ele><time>2026-03-22T11:18:47.687Z</time></trkpt><trkpt lat="43.7245777" lon="12.7801779"><ele>327.6</ele><time>2026-03-22T11:18:48.702Z</time></trkpt><trkpt lat="43.7246506" lon="12.7802666"><ele>324.8</ele><time>2026-03-22T11:18:49.706Z</time></trkpt><trkpt lat="43.7247504" lon="12.7803447"><ele>322.0</ele><time>2026-03-22T11:18:50.712Z</time></trkpt><trkpt lat="43.724858" lon="12.7803978"><ele>322.0</ele><time>2026-03-22T11:18:51.704Z</time></trkpt><trkpt lat="43.7249403" lon="12.7804498"><ele>322.0</ele><time>2026-03-22T11:18:52.694Z</time></trkpt><trkpt lat="43.7250083" lon="12.7805221"><ele>322.0</ele><time>2026-03-22T11:18:53.694Z</time></trkpt><trkpt lat="43.7250764" lon="12.7806074"><ele>322.0</ele><time>2026-03-22T11:18:54.707Z</time></trkpt><trkpt lat="43.7251405" lon="12.7807284"><ele>322.0</ele><time>2026-03-22T11:18:55.709Z</time></trkpt><trkpt lat="43.7251954" lon="12.78088"><ele>320.5</ele><time>2026-03-22T11:18:56.704Z</time></trkpt><trkpt lat="43.7252284" lon="12.781057"><ele>319.0</ele><time>2026-03-22T11:18:57.704Z</time></trkpt><trkpt lat="43.7252525" lon="12.7812353"><ele>317.5</ele><time>2026-03-22T11:18:58.7Z</time></trkpt><trkpt lat="43.7252868" lon="12.7814056"><ele>316.0</ele><time>2026-03-22T11:18:59.71Z</time></trkpt><trkpt lat="43.7253209" lon="12.7815698"><ele>313.0</ele><time>2026-03-22T11:19:00.711Z</time></trkpt><trkpt lat="43.7253498" lon="12.7817271"><ele>310.0</ele><time>2026-03-22T11:19:01.712Z</time></trkpt><trkpt lat="43.7253715" lon="12.7818711"><ele>307.0</ele><time>2026-03-22T11:19:02.703Z</time></trkpt><trkpt lat="43.7253973" lon="12.7820096"><ele>304.0</ele><time>2026-03-22T11:19:03.703Z</time></trkpt><trkpt lat="43.7254202" lon="12.7821403"><ele>301.0</ele><time>2026-03-22T11:19:04.709Z</time></trkpt><trkpt lat="43.7254455" lon="12.7822635"><ele>301.0</ele><time>2026-03-22T11:19:05.709Z</time></trkpt><trkpt lat="43.7254798" lon="12.7823765"><ele>301.0</ele><time>2026-03-22T11:19:06.707Z</time></trkpt><trkpt lat="43.725523" lon="12.7824764"><ele>301.0</ele><time>2026-03-22T11:19:07.704Z</time></trkpt><trkpt lat="43.7255689" lon="12.7825713"><ele>301.0</ele><time>2026-03-22T11:19:08.7Z</time></trkpt><trkpt lat="43.7256274" lon="12.7826587"><ele>301.0</ele><time>2026-03-22T11:19:09.702Z</time></trkpt><trkpt lat="43.7256968" lon="12.7827315"><ele>301.0</ele><time>2026-03-22T11:19:10.715Z</time></trkpt><trkpt lat="43.7257817" lon="12.7827805"><ele>300.0</ele><time>2026-03-22T11:19:11.707Z</time></trkpt><trkpt lat="43.7258708" lon="12.7828249"><ele>299.0</ele><time>2026-03-22T11:19:12.706Z</time></trkpt><trkpt lat="43.7259726" lon="12.7828715"><ele>298.0</ele><time>2026-03-22T11:19:13.699Z</time></trkpt><trkpt lat="43.7260767" lon="12.7829237"><ele>297.0</ele><time>2026-03-22T11:19:14.707Z</time></trkpt><trkpt lat="43.7261916" lon="12.7829967"><ele>296.0</ele><time>2026-03-22T11:19:15.701Z</time></trkpt><trkpt lat="43.7263055" lon="12.7830706"><ele>296.0</ele><time>2026-03-22T11:19:16.703Z</time></trkpt><trkpt lat="43.7264201" lon="12.7831456"><ele>296.0</ele><time>2026-03-22T11:19:17.692Z</time></trkpt><trkpt lat="43.726546" lon="12.7832268"><ele>296.0</ele><time>2026-03-22T11:19:18.704Z</time></trkpt><trkpt lat="43.7266671" lon="12.7833116"><ele>296.0</ele><time>2026-03-22T11:19:19.711Z</time></trkpt><trkpt lat="43.7267834" lon="12.7833989"><ele>295.0</ele><time>2026-03-22T11:19:20.704Z</time></trkpt><trkpt lat="43.7268954" lon="12.7835001"><ele>294.0</ele><time>2026-03-22T11:19:21.714Z</time></trkpt><trkpt lat="43.7269914" lon="12.7836121"><ele>293.0</ele><time>2026-03-22T11:19:22.717Z</time></trkpt><trkpt lat="43.7270796" lon="12.7837306"><ele>292.0</ele><time>2026-03-22T11:19:23.695Z</time></trkpt><trkpt lat="43.7271623" lon="12.7838537"><ele>292.0</ele><time>2026-03-22T11:19:24.705Z</time></trkpt><trkpt lat="43.72723" lon="12.7839857"><ele>292.0</ele><time>2026-03-22T11:19:25.707Z</time></trkpt><trkpt lat="43.7272924" lon="12.7841112"><ele>292.0</ele><time>2026-03-22T11:19:26.696Z</time></trkpt><trkpt lat="43.7273553" lon="12.7842261"><ele>292.0</ele><time>2026-03-22T11:19:27.713Z</time></trkpt><trkpt lat="43.727416" lon="12.7843384"><ele>292.0</ele><time>2026-03-22T11:19:28.702Z</time></trkpt><trkpt lat="43.7274823" lon="12.7844589"><ele>290.4</ele><time>2026-03-22T11:19:29.705Z</time></trkpt><trkpt lat="43.7275439" lon="12.7845744"><ele>288.79999999999995</ele><time>2026-03-22T11:19:30.714Z</time></trkpt><trkpt lat="43.72759" lon="12.7846895"><ele>287.2</ele><time>2026-03-22T11:19:31.701Z</time></trkpt><trkpt lat="43.7276288" lon="12.7848203"><ele>285.59999999999997</ele><time>2026-03-22T11:19:32.713Z</time></trkpt><trkpt lat="43.7276407" lon="12.7849764"><ele>284.0</ele><time>2026-03-22T11:19:33.699Z</time></trkpt><trkpt lat="43.7276458" lon="12.7851336"><ele>281.75</ele><time>2026-03-22T11:19:34.71Z</time></trkpt><trkpt lat="43.7276569" lon="12.7852872"><ele>279.5</ele><time>2026-03-22T11:19:35.709Z</time></trkpt><trkpt lat="43.7276931" lon="12.7854355"><ele>277.25</ele><time>2026-03-22T11:19:36.706Z</time></trkpt><trkpt lat="43.7277472" lon="12.7855835"><ele>275.0</ele><time>2026-03-22T11:19:37.71Z</time></trkpt><trkpt lat="43.7278276" lon="12.7857187"><ele>275.0</ele><time>2026-03-22T11:19:38.7Z</time></trkpt><trkpt lat="43.7279221" lon="12.7858528"><ele>275.0</ele><time>2026-03-22T11:19:39.707Z</time></trkpt><trkpt lat="43.7280236" lon="12.7859841"><ele>275.0</ele><time>2026-03-22T11:19:40.707Z</time></trkpt><trkpt lat="43.7281208" lon="12.7861065"><ele>275.0</ele><time>2026-03-22T11:19:41.702Z</time></trkpt><trkpt lat="43.7281974" lon="12.7862234"><ele>274.25</ele><time>2026-03-22T11:19:42.709Z</time></trkpt><trkpt lat="43.7282767" lon="12.7863363"><ele>273.5</ele><time>2026-03-22T11:19:43.704Z</time></trkpt><trkpt lat="43.7283576" lon="12.7864544"><ele>272.75</ele><time>2026-03-22T11:19:44.704Z</time></trkpt><trkpt lat="43.7284406" lon="12.7865746"><ele>272.0</ele><time>2026-03-22T11:19:45.697Z</time></trkpt><trkpt lat="43.7285204" lon="12.7866916"><ele>270.5</ele><time>2026-03-22T11:19:46.71Z</time></trkpt><trkpt lat="43.728602" lon="12.7868163"><ele>269.0</ele><time>2026-03-22T11:19:47.707Z</time></trkpt><trkpt lat="43.7286965" lon="12.7869388"><ele>267.5</ele><time>2026-03-22T11:19:48.713Z</time></trkpt><trkpt lat="43.7287886" lon="12.7870444"><ele>266.0</ele><time>2026-03-22T11:19:49.712Z</time></trkpt><trkpt lat="43.7288623" lon="12.7871574"><ele>266.0</ele><time>2026-03-22T11:19:50.713Z</time></trkpt><trkpt lat="43.7289216" lon="12.7872782"><ele>266.0</ele><time>2026-03-22T11:19:51.703Z</time></trkpt><trkpt lat="43.728963" lon="12.7873998"><ele>266.0</ele><time>2026-03-22T11:19:52.725Z</time></trkpt><trkpt lat="43.7289712" lon="12.7875371"><ele>266.0</ele><time>2026-03-22T11:19:53.719Z</time></trkpt><trkpt lat="43.728951" lon="12.7876661"><ele>266.0</ele><time>2026-03-22T11:19:54.713Z</time></trkpt><trkpt lat="43.7289335" lon="12.7877843"><ele>266.40000000000003</ele><time>2026-03-22T11:19:55.709Z</time></trkpt><trkpt lat="43.7289324" lon="12.7878851"><ele>266.8</ele><time>2026-03-22T11:19:56.707Z</time></trkpt><trkpt lat="43.728994" lon="12.787979"><ele>267.20000000000005</ele><time>2026-03-22T11:19:58.711Z</time></trkpt><trkpt lat="43.729126" lon="12.7878684"><ele>267.6</ele><time>2026-03-22T11:20:00.712Z</time></trkpt><trkpt lat="43.7292066" lon="12.7877866"><ele>268.0</ele><time>2026-03-22T11:20:01.713Z</time></trkpt><trkpt lat="43.7293178" lon="12.7876969"><ele>265.5</ele><time>2026-03-22T11:20:02.706Z</time></trkpt><trkpt lat="43.7294427" lon="12.7876289"><ele>263.0</ele><time>2026-03-22T11:20:03.701Z</time></trkpt><trkpt lat="43.7295647" lon="12.7875562"><ele>260.5</ele><time>2026-03-22T11:20:04.711Z</time></trkpt><trkpt lat="43.7296875" lon="12.7874777"><ele>258.0</ele><time>2026-03-22T11:20:05.698Z</time></trkpt><trkpt lat="43.7298131" lon="12.7874064"><ele>258.0</ele><time>2026-03-22T11:20:06.699Z</time></trkpt><trkpt lat="43.729947" lon="12.7873332"><ele>258.0</ele><time>2026-03-22T11:20:07.695Z</time></trkpt><trkpt lat="43.7300864" lon="12.7872511"><ele>258.0</ele><time>2026-03-22T11:20:08.7Z</time></trkpt><trkpt lat="43.7302241" lon="12.7871669"><ele>258.0</ele><time>2026-03-22T11:20:09.702Z</time></trkpt><trkpt lat="43.730348" lon="12.7870568"><ele>255.25</ele><time>2026-03-22T11:20:10.711Z</time></trkpt><trkpt lat="43.7304503" lon="12.786909"><ele>252.5</ele><time>2026-03-22T11:20:11.706Z</time></trkpt><trkpt lat="43.7305451" lon="12.7867839"><ele>249.75</ele><time>2026-03-22T11:20:12.708Z</time></trkpt><trkpt lat="43.730634" lon="12.7866793"><ele>247.0</ele><time>2026-03-22T11:20:13.706Z</time></trkpt><trkpt lat="43.7307261" lon="12.7865783"><ele>247.0</ele><time>2026-03-22T11:20:14.705Z</time></trkpt><trkpt lat="43.7308185" lon="12.7864907"><ele>247.0</ele><time>2026-03-22T11:20:15.708Z</time></trkpt><trkpt lat="43.730909" lon="12.7864151"><ele>247.0</ele><time>2026-03-22T11:20:16.706Z</time></trkpt><trkpt lat="43.7310034" lon="12.7863547"><ele>247.0</ele><time>2026-03-22T11:20:17.703Z</time></trkpt><trkpt lat="43.7311049" lon="12.7863068"><ele>247.0</ele><time>2026-03-22T11:20:18.709Z</time></trkpt><trkpt lat="43.7312147" lon="12.7862835"><ele>246.0</ele><time>2026-03-22T11:20:19.705Z</time></trkpt><trkpt lat="43.7313332" lon="12.7862939"><ele>245.0</ele><time>2026-03-22T11:20:20.702Z</time></trkpt><trkpt lat="43.7314631" lon="12.7863295"><ele>244.0</ele><time>2026-03-22T11:20:21.694Z</time></trkpt><trkpt lat="43.731616" lon="12.7863784"><ele>243.0</ele><time>2026-03-22T11:20:22.692Z</time></trkpt><trkpt lat="43.7317768" lon="12.7864226"><ele>244.0</ele><time>2026-03-22T11:20:23.713Z</time></trkpt><trkpt lat="43.7319509" lon="12.7864724"><ele>245.0</ele><time>2026-03-22T11:20:24.702Z</time></trkpt><trkpt lat="43.7321297" lon="12.78649"><ele>246.0</ele><time>2026-03-22T11:20:25.699Z</time></trkpt><trkpt lat="43.7323081" lon="12.7864684"><ele>246.0</ele><time>2026-03-22T11:20:26.703Z</time></trkpt><trkpt lat="43.732474" lon="12.7864485"><ele>246.0</ele><time>2026-03-22T11:20:27.716Z</time></trkpt><trkpt lat="43.7326421" lon="12.7864254"><ele>246.0</ele><time>2026-03-22T11:20:28.707Z</time></trkpt><trkpt lat="43.7327991" lon="12.7864354"><ele>247.0</ele><time>2026-03-22T11:20:29.72Z</time></trkpt><trkpt lat="43.7329459" lon="12.7864834"><ele>248.0</ele><time>2026-03-22T11:20:30.709Z</time></trkpt><trkpt lat="43.7330874" lon="12.786567"><ele>249.0</ele><time>2026-03-22T11:20:31.706Z</time></trkpt><trkpt lat="43.7332" lon="12.7866407"><ele>250.0</ele><time>2026-03-22T11:20:32.717Z</time></trkpt><trkpt lat="43.7333011" lon="12.7867025"><ele>250.0</ele><time>2026-03-22T11:20:33.703Z</time></trkpt><trkpt lat="43.7333905" lon="12.7867629"><ele>250.0</ele><time>2026-03-22T11:20:34.708Z</time></trkpt><trkpt lat="43.7334694" lon="12.7868117"><ele>250.0</ele><time>2026-03-22T11:20:35.713Z</time></trkpt><trkpt lat="43.7335526" lon="12.7868618"><ele>250.0</ele><time>2026-03-22T11:20:36.711Z</time></trkpt><trkpt lat="43.7336269" lon="12.7869082"><ele>250.0</ele><time>2026-03-22T11:20:37.712Z</time></trkpt><trkpt lat="43.7337173" lon="12.7869568"><ele>247.4</ele><time>2026-03-22T11:20:38.717Z</time></trkpt><trkpt lat="43.7338091" lon="12.7870111"><ele>244.8</ele><time>2026-03-22T11:20:39.718Z</time></trkpt><trkpt lat="43.7338956" lon="12.7870627"><ele>242.2</ele><time>2026-03-22T11:20:40.716Z</time></trkpt><trkpt lat="43.7339857" lon="12.7871193"><ele>239.6</ele><time>2026-03-22T11:20:41.715Z</time></trkpt><trkpt lat="43.7340737" lon="12.7871867"><ele>237.0</ele><time>2026-03-22T11:20:42.712Z</time></trkpt><trkpt lat="43.7341637" lon="12.7872693"><ele>237.0</ele><time>2026-03-22T11:20:43.709Z</time></trkpt><trkpt lat="43.7342448" lon="12.7873707"><ele>237.0</ele><time>2026-03-22T11:20:44.708Z</time></trkpt><trkpt lat="43.7343246" lon="12.7874873"><ele>237.0</ele><time>2026-03-22T11:20:45.71Z</time></trkpt><trkpt lat="43.7344127" lon="12.787611"><ele>237.0</ele><time>2026-03-22T11:20:46.707Z</time></trkpt><trkpt lat="43.7344922" lon="12.7877275"><ele>234.0</ele><time>2026-03-22T11:20:47.712Z</time></trkpt><trkpt lat="43.7345804" lon="12.7878459"><ele>231.0</ele><time>2026-03-22T11:20:48.712Z</time></trkpt><trkpt lat="43.7346609" lon="12.7879599"><ele>228.0</ele><time>2026-03-22T11:20:49.706Z</time></trkpt><trkpt lat="43.7347345" lon="12.7880584"><ele>225.0</ele><time>2026-03-22T11:20:50.715Z</time></trkpt><trkpt lat="43.7347958" lon="12.7881477"><ele>222.0</ele><time>2026-03-22T11:20:51.709Z</time></trkpt><trkpt lat="43.7348488" lon="12.788223"><ele>222.0</ele><time>2026-03-22T11:20:52.716Z</time></trkpt><trkpt lat="43.7349258" lon="12.7883204"><ele>222.0</ele><time>2026-03-22T11:20:54.737Z</time></trkpt><trkpt lat="43.735035" lon="12.7883212"><ele>222.0</ele><time>2026-03-22T11:20:56.715Z</time></trkpt><trkpt lat="43.7351113" lon="12.7882353"><ele>222.0</ele><time>2026-03-22T11:20:57.718Z</time></trkpt><trkpt lat="43.7351922" lon="12.7881066"><ele>222.0</ele><time>2026-03-22T11:20:58.714Z</time></trkpt><trkpt lat="43.7352663" lon="12.7879416"><ele>219.25</ele><time>2026-03-22T11:20:59.702Z</time></trkpt><trkpt lat="43.7353458" lon="12.7877768"><ele>216.5</ele><time>2026-03-22T11:21:00.703Z</time></trkpt><trkpt lat="43.7354347" lon="12.7876222"><ele>213.75</ele><time>2026-03-22T11:21:01.696Z</time></trkpt><trkpt lat="43.7355131" lon="12.7874883"><ele>211.0</ele><time>2026-03-22T11:21:02.707Z</time></trkpt><trkpt lat="43.7355981" lon="12.7873758"><ele>211.0</ele><time>2026-03-22T11:21:03.715Z</time></trkpt><trkpt lat="43.7356938" lon="12.7872811"><ele>211.0</ele><time>2026-03-22T11:21:04.71Z</time></trkpt><trkpt lat="43.7358006" lon="12.7871973"><ele>211.0</ele><time>2026-03-22T11:21:05.697Z</time></trkpt><trkpt lat="43.7359049" lon="12.7871256"><ele>211.0</ele><time>2026-03-22T11:21:06.706Z</time></trkpt><trkpt lat="43.7359905" lon="12.7870176"><ele>207.25</ele><time>2026-03-22T11:21:07.703Z</time></trkpt><trkpt lat="43.7360824" lon="12.7868817"><ele>203.5</ele><time>2026-03-22T11:21:08.702Z</time></trkpt><trkpt lat="43.7361629" lon="12.7867436"><ele>199.75</ele><time>2026-03-22T11:21:09.699Z</time></trkpt><trkpt lat="43.7362415" lon="12.7866217"><ele>196.0</ele><time>2026-03-22T11:21:10.711Z</time></trkpt><trkpt lat="43.7363094" lon="12.7865129"><ele>196.0</ele><time>2026-03-22T11:21:11.709Z</time></trkpt><trkpt lat="43.7363723" lon="12.7863958"><ele>196.0</ele><time>2026-03-22T11:21:12.709Z</time></trkpt><trkpt lat="43.736407" lon="12.7862595"><ele>196.0</ele><time>2026-03-22T11:21:13.707Z</time></trkpt><trkpt lat="43.7364144" lon="12.7861105"><ele>196.0</ele><time>2026-03-22T11:21:14.708Z</time></trkpt><trkpt lat="43.7364136" lon="12.7859424"><ele>196.0</ele><time>2026-03-22T11:21:15.701Z</time></trkpt><trkpt lat="43.7364045" lon="12.7857684"><ele>194.75</ele><time>2026-03-22T11:21:16.705Z</time></trkpt><trkpt lat="43.736393" lon="12.7855946"><ele>193.5</ele><time>2026-03-22T11:21:17.704Z</time></trkpt><trkpt lat="43.7363784" lon="12.785428"><ele>192.25</ele><time>2026-03-22T11:21:18.701Z</time></trkpt><trkpt lat="43.7363631" lon="12.7852791"><ele>191.0</ele><time>2026-03-22T11:21:19.702Z</time></trkpt><trkpt lat="43.7363489" lon="12.7851402"><ele>191.0</ele><time>2026-03-22T11:21:20.7Z</time></trkpt><trkpt lat="43.7363345" lon="12.7850309"><ele>191.0</ele><time>2026-03-22T11:21:21.698Z</time></trkpt><trkpt lat="43.7363103" lon="12.7848823"><ele>191.0</ele><time>2026-03-22T11:21:23.709Z</time></trkpt><trkpt lat="43.7363846" lon="12.7849178"><ele>191.0</ele><time>2026-03-22T11:21:26.703Z</time></trkpt><trkpt lat="43.7364182" lon="12.7850054"><ele>191.0</ele><time>2026-03-22T11:21:27.716Z</time></trkpt><trkpt lat="43.7364387" lon="12.7851276"><ele>191.0</ele><time>2026-03-22T11:21:28.709Z</time></trkpt><trkpt lat="43.7364611" lon="12.7852476"><ele>191.0</ele><time>2026-03-22T11:21:29.702Z</time></trkpt><trkpt lat="43.7364881" lon="12.785354"><ele>191.0</ele><time>2026-03-22T11:21:30.694Z</time></trkpt><trkpt lat="43.7365179" lon="12.7854443"><ele>191.0</ele><time>2026-03-22T11:21:31.699Z</time></trkpt><trkpt lat="43.7366102" lon="12.785479"><ele>191.0</ele><time>2026-03-22T11:21:33.699Z</time></trkpt><trkpt lat="43.7366686" lon="12.7854289"><ele>191.0</ele><time>2026-03-22T11:21:34.708Z</time></trkpt><trkpt lat="43.7366938" lon="12.7853477"><ele>191.0</ele><time>2026-03-22T11:21:35.703Z</time></trkpt><trkpt lat="43.7366948" lon="12.78524"><ele>189.4</ele><time>2026-03-22T11:21:36.692Z</time></trkpt><trkpt lat="43.7366669" lon="12.7851158"><ele>187.8</ele><time>2026-03-22T11:21:37.698Z</time></trkpt><trkpt lat="43.7366403" lon="12.7849918"><ele>186.20000000000002</ele><time>2026-03-22T11:21:38.701Z</time></trkpt><trkpt lat="43.7366181" lon="12.7848888"><ele>184.60000000000002</ele><time>2026-03-22T11:21:39.699Z</time></trkpt><trkpt lat="43.7366619" lon="12.7848248"><ele>183.0</ele><time>2026-03-22T11:21:41.701Z</time></trkpt><trkpt lat="43.7367563" lon="12.7849325"><ele>183.0</ele><time>2026-03-22T11:21:43.702Z</time></trkpt><trkpt lat="43.7368048" lon="12.7850685"><ele>183.0</ele><time>2026-03-22T11:21:44.703Z</time></trkpt><trkpt lat="43.7368767" lon="12.7852285"><ele>183.0</ele><time>2026-03-22T11:21:45.695Z</time></trkpt><trkpt lat="43.7369668" lon="12.7853985"><ele>183.0</ele><time>2026-03-22T11:21:46.688Z</time></trkpt><trkpt lat="43.7370471" lon="12.7855491"><ele>181.5</ele><time>2026-03-22T11:21:47.695Z</time></trkpt><trkpt lat="43.7371371" lon="12.7856913"><ele>180.0</ele><time>2026-03-22T11:21:48.697Z</time></trkpt><trkpt lat="43.7372222" lon="12.7858633"><ele>178.5</ele><time>2026-03-22T11:21:49.707Z</time></trkpt><trkpt lat="43.7373323" lon="12.7860251"><ele>177.0</ele><time>2026-03-22T11:21:50.701Z</time></trkpt><trkpt lat="43.7374668" lon="12.7861872"><ele>177.0</ele><time>2026-03-22T11:21:51.687Z</time></trkpt><trkpt lat="43.737588" lon="12.7863441"><ele>177.0</ele><time>2026-03-22T11:21:52.691Z</time></trkpt><trkpt lat="43.7376951" lon="12.7864959"><ele>177.0</ele><time>2026-03-22T11:21:53.696Z</time></trkpt><trkpt lat="43.7377904" lon="12.7866277"><ele>174.5</ele><time>2026-03-22T11:21:54.694Z</time></trkpt><trkpt lat="43.7378871" lon="12.7867573"><ele>172.0</ele><time>2026-03-22T11:21:55.704Z</time></trkpt><trkpt lat="43.7379652" lon="12.7868905"><ele>169.5</ele><time>2026-03-22T11:21:56.689Z</time></trkpt><trkpt lat="43.7380552" lon="12.7870112"><ele>167.0</ele><time>2026-03-22T11:21:57.701Z</time></trkpt><trkpt lat="43.7381349" lon="12.7871121"><ele>166.83333333333331</ele><time>2026-03-22T11:21:58.702Z</time></trkpt><trkpt lat="43.7381999" lon="12.7872295"><ele>166.66666666666666</ele><time>2026-03-22T11:21:59.713Z</time></trkpt><trkpt lat="43.7382676" lon="12.78732"><ele>166.5</ele><time>2026-03-22T11:22:00.71Z</time></trkpt><trkpt lat="43.738335" lon="12.7873931"><ele>166.33333333333334</ele><time>2026-03-22T11:22:01.719Z</time></trkpt><trkpt lat="43.7384028" lon="12.7874429"><ele>166.16666666666669</ele><time>2026-03-22T11:22:02.714Z</time></trkpt><trkpt lat="43.7384789" lon="12.7874539"><ele>166.0</ele><time>2026-03-22T11:22:03.716Z</time></trkpt><trkpt lat="43.7385459" lon="12.7874327"><ele>170.0</ele><time>2026-03-22T11:22:04.713Z</time></trkpt><trkpt lat="43.7386321" lon="12.7872996"><ele>174.0</ele><time>2026-03-22T11:22:06.709Z</time></trkpt><trkpt lat="43.7386506" lon="12.7871809"><ele>178.0</ele><time>2026-03-22T11:22:07.714Z</time></trkpt><trkpt lat="43.7386433" lon="12.7870374"><ele>182.0</ele><time>2026-03-22T11:22:08.705Z</time></trkpt><trkpt lat="43.7386136" lon="12.7868836"><ele>186.0</ele><time>2026-03-22T11:22:09.705Z</time></trkpt><trkpt lat="43.7385859" lon="12.7867115"><ele>186.0</ele><time>2026-03-22T11:22:10.705Z</time></trkpt><trkpt lat="43.7385635" lon="12.7865377"><ele>186.0</ele><time>2026-03-22T11:22:11.709Z</time></trkpt><trkpt lat="43.7385453" lon="12.7863632"><ele>186.0</ele><time>2026-03-22T11:22:12.7Z</time></trkpt><trkpt lat="43.7385337" lon="12.7861793"><ele>186.0</ele><time>2026-03-22T11:22:13.707Z</time></trkpt><trkpt lat="43.738537" lon="12.7860008"><ele>185.25</ele><time>2026-03-22T11:22:14.707Z</time></trkpt><trkpt lat="43.7385566" lon="12.7858217"><ele>184.5</ele><time>2026-03-22T11:22:15.704Z</time></trkpt><trkpt lat="43.7385869" lon="12.7856531"><ele>183.75</ele><time>2026-03-22T11:22:16.704Z</time></trkpt><trkpt lat="43.7386155" lon="12.7854966"><ele>183.0</ele><time>2026-03-22T11:22:17.706Z</time></trkpt><trkpt lat="43.7386419" lon="12.7853535"><ele>183.0</ele><time>2026-03-22T11:22:18.703Z</time></trkpt><trkpt lat="43.7386643" lon="12.7852237"><ele>183.0</ele><time>2026-03-22T11:22:19.704Z</time></trkpt><trkpt lat="43.7386749" lon="12.7851126"><ele>183.0</ele><time>2026-03-22T11:22:20.712Z</time></trkpt><trkpt lat="43.7386667" lon="12.7850066"><ele>183.0</ele><time>2026-03-22T11:22:21.708Z</time></trkpt><trkpt lat="43.7386291" lon="12.7849181"><ele>183.0</ele><time>2026-03-22T11:22:22.702Z</time></trkpt><trkpt lat="43.7385524" lon="12.7848645"><ele>183.0</ele><time>2026-03-22T11:22:23.714Z</time></trkpt><trkpt lat="43.7384617" lon="12.7848431"><ele>181.0</ele><time>2026-03-22T11:22:24.705Z</time></trkpt><trkpt lat="43.7383735" lon="12.7848291"><ele>179.0</ele><time>2026-03-22T11:22:25.697Z</time></trkpt><trkpt lat="43.7383021" lon="12.7847127"><ele>177.0</ele><time>2026-03-22T11:22:27.705Z</time></trkpt><trkpt lat="43.738318" lon="12.784622"><ele>175.0</ele><time>2026-03-22T11:22:28.691Z</time></trkpt><trkpt lat="43.7383367" lon="12.7845097"><ele>173.0</ele><time>2026-03-22T11:22:29.697Z</time></trkpt><trkpt lat="43.7383873" lon="12.7843779"><ele>172.25</ele><time>2026-03-22T11:22:30.694Z</time></trkpt><trkpt lat="43.73847" lon="12.7842321"><ele>171.5</ele><time>2026-03-22T11:22:31.692Z</time></trkpt><trkpt lat="43.7385617" lon="12.7840828"><ele>170.75</ele><time>2026-03-22T11:22:32.69Z</time></trkpt><trkpt lat="43.7386469" lon="12.7839174"><ele>170.0</ele><time>2026-03-22T11:22:33.687Z</time></trkpt><trkpt lat="43.7387341" lon="12.7837719"><ele>170.0</ele><time>2026-03-22T11:22:34.694Z</time></trkpt><trkpt lat="43.7388066" lon="12.7836104"><ele>170.0</ele><time>2026-03-22T11:22:35.696Z</time></trkpt><trkpt lat="43.7388629" lon="12.7834306"><ele>170.0</ele><time>2026-03-22T11:22:36.709Z</time></trkpt><trkpt lat="43.7388893" lon="12.7832565"><ele>170.0</ele><time>2026-03-22T11:22:37.701Z</time></trkpt><trkpt lat="43.7388871" lon="12.7830562"><ele>170.66666666666666</ele><time>2026-03-22T11:22:38.762Z</time></trkpt><trkpt lat="43.7388659" lon="12.7828421"><ele>171.33333333333334</ele><time>2026-03-22T11:22:39.709Z</time></trkpt><trkpt lat="43.7387784" lon="12.7826104"><ele>172.0</ele><time>2026-03-22T11:22:40.71Z</time></trkpt><trkpt lat="43.7387015" lon="12.7823761"><ele>172.0</ele><time>2026-03-22T11:22:41.69Z</time></trkpt><trkpt lat="43.7386024" lon="12.7821347"><ele>172.0</ele><time>2026-03-22T11:22:42.693Z</time></trkpt><trkpt lat="43.7385332" lon="12.7819193"><ele>172.0</ele><time>2026-03-22T11:22:43.688Z</time></trkpt><trkpt lat="43.7385172" lon="12.7817164"><ele>172.66666666666669</ele><time>2026-03-22T11:22:44.7Z</time></trkpt><trkpt lat="43.7385581" lon="12.7815094"><ele>173.33333333333334</ele><time>2026-03-22T11:22:45.706Z</time></trkpt><trkpt lat="43.7386182" lon="12.7813119"><ele>174.0</ele><time>2026-03-22T11:22:46.703Z</time></trkpt><trkpt lat="43.7387154" lon="12.781138"><ele>175.0</ele><time>2026-03-22T11:22:47.693Z</time></trkpt><trkpt lat="43.7388063" lon="12.7809693"><ele>176.0</ele><time>2026-03-22T11:22:48.701Z</time></trkpt><trkpt lat="43.7388971" lon="12.7807994"><ele>177.0</ele><time>2026-03-22T11:22:49.701Z</time></trkpt><trkpt lat="43.7389609" lon="12.7806223"><ele>178.0</ele><time>2026-03-22T11:22:50.704Z</time></trkpt><trkpt lat="43.7390045" lon="12.7804161"><ele>178.0</ele><time>2026-03-22T11:22:51.704Z</time></trkpt><trkpt lat="43.7390457" lon="12.7802066"><ele>178.0</ele><time>2026-03-22T11:22:52.705Z</time></trkpt><trkpt lat="43.7390892" lon="12.7799885"><ele>178.0</ele><time>2026-03-22T11:22:53.708Z</time></trkpt><trkpt lat="43.7391326" lon="12.7797845"><ele>179.66666666666669</ele><time>2026-03-22T11:22:54.697Z</time></trkpt><trkpt lat="43.7391793" lon="12.7795766"><ele>181.33333333333334</ele><time>2026-03-22T11:22:55.701Z</time></trkpt><trkpt lat="43.7392276" lon="12.7793826"><ele>183.0</ele><time>2026-03-22T11:22:56.705Z</time></trkpt><trkpt lat="43.7392761" lon="12.7791794"><ele>186.0</ele><time>2026-03-22T11:22:57.707Z</time></trkpt><trkpt lat="43.7393036" lon="12.7789753"><ele>189.0</ele><time>2026-03-22T11:22:58.711Z</time></trkpt><trkpt lat="43.7392926" lon="12.778763"><ele>192.0</ele><time>2026-03-22T11:22:59.71Z</time></trkpt><trkpt lat="43.7392829" lon="12.7785344"><ele>193.66666666666669</ele><time>2026-03-22T11:23:00.711Z</time></trkpt><trkpt lat="43.7392811" lon="12.7782792"><ele>195.33333333333334</ele><time>2026-03-22T11:23:01.706Z</time></trkpt><trkpt lat="43.7392688" lon="12.7780477"><ele>197.0</ele><time>2026-03-22T11:23:02.702Z</time></trkpt><trkpt lat="43.7392606" lon="12.7778427"><ele>198.6</ele><time>2026-03-22T11:23:03.702Z</time></trkpt><trkpt lat="43.7392478" lon="12.7776818"><ele>200.2</ele><time>2026-03-22T11:23:04.7Z</time></trkpt><trkpt lat="43.739244" lon="12.7775528"><ele>201.8</ele><time>2026-03-22T11:23:05.689Z</time></trkpt><trkpt lat="43.7392393" lon="12.7774382"><ele>203.4</ele><time>2026-03-22T11:23:06.693Z</time></trkpt><trkpt lat="43.7391223" lon="12.7773306"><ele>205.0</ele><time>2026-03-22T11:23:08.707Z</time></trkpt><trkpt lat="43.7390033" lon="12.7773256"><ele>205.0</ele><time>2026-03-22T11:23:09.708Z</time></trkpt><trkpt lat="43.7388321" lon="12.7773911"><ele>205.0</ele><time>2026-03-22T11:23:10.706Z</time></trkpt><trkpt lat="43.7386868" lon="12.7774725"><ele>205.0</ele><time>2026-03-22T11:23:11.696Z</time></trkpt><trkpt lat="43.7385562" lon="12.7775809"><ele>207.0</ele><time>2026-03-22T11:23:12.711Z</time></trkpt><trkpt lat="43.7384327" lon="12.7777575"><ele>209.0</ele><time>2026-03-22T11:23:13.717Z</time></trkpt><trkpt lat="43.7383131" lon="12.7779744"><ele>211.0</ele><time>2026-03-22T11:23:14.701Z</time></trkpt><trkpt lat="43.7382277" lon="12.7781661"><ele>211.0</ele><time>2026-03-22T11:23:15.71Z</time></trkpt><trkpt lat="43.738146" lon="12.7783733"><ele>211.0</ele><time>2026-03-22T11:23:16.708Z</time></trkpt><trkpt lat="43.7380455" lon="12.7786019"><ele>211.0</ele><time>2026-03-22T11:23:17.706Z</time></trkpt><trkpt lat="43.7379671" lon="12.7788125"><ele>211.66666666666666</ele><time>2026-03-22T11:23:18.705Z</time></trkpt><trkpt lat="43.7378747" lon="12.7790108"><ele>212.33333333333331</ele><time>2026-03-22T11:23:19.703Z</time></trkpt><trkpt lat="43.7378013" lon="12.7792064"><ele>213.0</ele><time>2026-03-22T11:23:20.702Z</time></trkpt><trkpt lat="43.7377087" lon="12.7794"><ele>213.0</ele><time>2026-03-22T11:23:21.704Z</time></trkpt><trkpt lat="43.7376185" lon="12.7795498"><ele>213.0</ele><time>2026-03-22T11:23:22.702Z</time></trkpt><trkpt lat="43.7375417" lon="12.7796393"><ele>213.0</ele><time>2026-03-22T11:23:23.721Z</time></trkpt><trkpt lat="43.7374811" lon="12.7796894"><ele>213.0</ele><time>2026-03-22T11:23:24.711Z</time></trkpt><trkpt lat="43.737375" lon="12.7795557"><ele>213.0</ele><time>2026-03-22T11:23:26.7Z</time></trkpt><trkpt lat="43.7373592" lon="12.7794389"><ele>213.0</ele><time>2026-03-22T11:23:27.712Z</time></trkpt><trkpt lat="43.7373843" lon="12.7792973"><ele>213.0</ele><time>2026-03-22T11:23:28.722Z</time></trkpt><trkpt lat="43.7374016" lon="12.7791439"><ele>213.0</ele><time>2026-03-22T11:23:29.702Z</time></trkpt><trkpt lat="43.7374268" lon="12.7789839"><ele>213.0</ele><time>2026-03-22T11:23:30.697Z</time></trkpt><trkpt lat="43.7374507" lon="12.7787998"><ele>215.0</ele><time>2026-03-22T11:23:31.706Z</time></trkpt><trkpt lat="43.7374676" lon="12.7786034"><ele>217.0</ele><time>2026-03-22T11:23:32.705Z</time></trkpt><trkpt lat="43.7374627" lon="12.7784091"><ele>219.0</ele><time>2026-03-22T11:23:33.708Z</time></trkpt><trkpt lat="43.7374397" lon="12.77821"><ele>221.0</ele><time>2026-03-22T11:23:34.702Z</time></trkpt><trkpt lat="43.7374206" lon="12.7780042"><ele>222.66666666666669</ele><time>2026-03-22T11:23:35.705Z</time></trkpt><trkpt lat="43.7373864" lon="12.7777757"><ele>224.33333333333331</ele><time>2026-03-22T11:23:36.705Z</time></trkpt><trkpt lat="43.7373343" lon="12.7775302"><ele>226.0</ele><time>2026-03-22T11:23:37.71Z</time></trkpt><trkpt lat="43.7372691" lon="12.7773043"><ele>226.0</ele><time>2026-03-22T11:23:38.719Z</time></trkpt><trkpt lat="43.7372192" lon="12.777096"><ele>226.0</ele><time>2026-03-22T11:23:39.699Z</time></trkpt><trkpt lat="43.7371615" lon="12.7768417"><ele>226.0</ele><time>2026-03-22T11:23:40.71Z</time></trkpt><trkpt lat="43.7371186" lon="12.7765619"><ele>226.0</ele><time>2026-03-22T11:23:41.691Z</time></trkpt><trkpt lat="43.7370724" lon="12.7763291"><ele>226.0</ele><time>2026-03-22T11:23:42.702Z</time></trkpt><trkpt lat="43.7370319" lon="12.7761051"><ele>226.0</ele><time>2026-03-22T11:23:43.7Z</time></trkpt><trkpt lat="43.7370015" lon="12.7758778"><ele>228.33333333333331</ele><time>2026-03-22T11:23:44.708Z</time></trkpt><trkpt lat="43.7369873" lon="12.7756215"><ele>230.66666666666669</ele><time>2026-03-22T11:23:45.703Z</time></trkpt><trkpt lat="43.737008" lon="12.7753805"><ele>233.0</ele><time>2026-03-22T11:23:46.702Z</time></trkpt><trkpt lat="43.7370406" lon="12.7751545"><ele>235.66666666666669</ele><time>2026-03-22T11:23:47.699Z</time></trkpt><trkpt lat="43.737083" lon="12.7749449"><ele>238.33333333333331</ele><time>2026-03-22T11:23:48.704Z</time></trkpt><trkpt lat="43.7371316" lon="12.7747351"><ele>241.0</ele><time>2026-03-22T11:23:49.707Z</time></trkpt><trkpt lat="43.7371751" lon="12.7745483"><ele>241.0</ele><time>2026-03-22T11:23:50.717Z</time></trkpt><trkpt lat="43.7372371" lon="12.7744007"><ele>241.00000000000003</ele><time>2026-03-22T11:23:51.711Z</time></trkpt><trkpt lat="43.7373127" lon="12.7743184"><ele>241.00000000000003</ele><time>2026-03-22T11:23:52.713Z</time></trkpt><trkpt lat="43.7374038" lon="12.7742834"><ele>241.0</ele><time>2026-03-22T11:23:53.715Z</time></trkpt><trkpt lat="43.7375118" lon="12.7743048"><ele>241.0</ele><time>2026-03-22T11:23:54.707Z</time></trkpt><trkpt lat="43.7376322" lon="12.7743786"><ele>241.0</ele><time>2026-03-22T11:23:55.716Z</time></trkpt><trkpt lat="43.7377538" lon="12.7744356"><ele>241.0</ele><time>2026-03-22T11:23:56.713Z</time></trkpt><trkpt lat="43.737892" lon="12.7744178"><ele>241.0</ele><time>2026-03-22T11:23:57.714Z</time></trkpt><trkpt lat="43.738015" lon="12.774367"><ele>241.0</ele><time>2026-03-22T11:23:58.703Z</time></trkpt><trkpt lat="43.7381372" lon="12.7743033"><ele>240.75</ele><time>2026-03-22T11:23:59.715Z</time></trkpt><trkpt lat="43.7382558" lon="12.7742388"><ele>240.5</ele><time>2026-03-22T11:24:00.71Z</time></trkpt><trkpt lat="43.7383774" lon="12.7741583"><ele>240.25</ele><time>2026-03-22T11:24:01.716Z</time></trkpt><trkpt lat="43.738483" lon="12.7740455"><ele>240.0</ele><time>2026-03-22T11:24:02.714Z</time></trkpt><trkpt lat="43.7385713" lon="12.7739458"><ele>240.0</ele><time>2026-03-22T11:24:03.714Z</time></trkpt><trkpt lat="43.738642" lon="12.773788"><ele>240.0</ele><time>2026-03-22T11:24:04.715Z</time></trkpt><trkpt lat="43.7387092" lon="12.7735911"><ele>240.0</ele><time>2026-03-22T11:24:05.713Z</time></trkpt><trkpt lat="43.7387553" lon="12.7733682"><ele>243.33333333333331</ele><time>2026-03-22T11:24:06.708Z</time></trkpt><trkpt lat="43.7387732" lon="12.7731338"><ele>246.66666666666666</ele><time>2026-03-22T11:24:07.704Z</time></trkpt><trkpt lat="43.7388113" lon="12.7729254"><ele>250.0</ele><time>2026-03-22T11:24:08.714Z</time></trkpt><trkpt lat="43.7388377" lon="12.7727163"><ele>252.25</ele><time>2026-03-22T11:24:09.703Z</time></trkpt><trkpt lat="43.7388516" lon="12.7725139"><ele>254.5</ele><time>2026-03-22T11:24:10.703Z</time></trkpt><trkpt lat="43.7388422" lon="12.7723107"><ele>256.75</ele><time>2026-03-22T11:24:11.702Z</time></trkpt><trkpt lat="43.7388206" lon="12.7721004"><ele>259.0</ele><time>2026-03-22T11:24:12.699Z</time></trkpt><trkpt lat="43.7388044" lon="12.7718861"><ele>259.5</ele><time>2026-03-22T11:24:13.7Z</time></trkpt><trkpt lat="43.7387837" lon="12.7716682"><ele>260.0</ele><time>2026-03-22T11:24:14.702Z</time></trkpt><trkpt lat="43.7387609" lon="12.7714721"><ele>260.5</ele><time>2026-03-22T11:24:15.701Z</time></trkpt><trkpt lat="43.7387389" lon="12.7712809"><ele>261.0</ele><time>2026-03-22T11:24:16.701Z</time></trkpt><trkpt lat="43.738709" lon="12.7711094"><ele>263.0</ele><time>2026-03-22T11:24:17.705Z</time></trkpt><trkpt lat="43.7386704" lon="12.770927"><ele>265.0</ele><time>2026-03-22T11:24:18.709Z</time></trkpt><trkpt lat="43.738614" lon="12.7707538"><ele>267.0</ele><time>2026-03-22T11:24:19.707Z</time></trkpt><trkpt lat="43.7385426" lon="12.7705817"><ele>269.0</ele><time>2026-03-22T11:24:20.707Z</time></trkpt><trkpt lat="43.7384756" lon="12.7704216"><ele>270.33333333333337</ele><time>2026-03-22T11:24:21.705Z</time></trkpt><trkpt lat="43.738396" lon="12.7702478"><ele>271.6666666666667</ele><time>2026-03-22T11:24:22.707Z</time></trkpt><trkpt lat="43.7383025" lon="12.7700627"><ele>273.0</ele><time>2026-03-22T11:24:23.708Z</time></trkpt><trkpt lat="43.7382183" lon="12.7698882"><ele>274.3333333333333</ele><time>2026-03-22T11:24:24.704Z</time></trkpt><trkpt lat="43.7381206" lon="12.7697131"><ele>275.66666666666663</ele><time>2026-03-22T11:24:25.71Z</time></trkpt><trkpt lat="43.738024" lon="12.7695402"><ele>277.0</ele><time>2026-03-22T11:24:26.711Z</time></trkpt><trkpt lat="43.7379186" lon="12.7693845"><ele>277.0</ele><time>2026-03-22T11:24:27.713Z</time></trkpt><trkpt lat="43.7378187" lon="12.7692473"><ele>277.0</ele><time>2026-03-22T11:24:28.713Z</time></trkpt><trkpt lat="43.7377273" lon="12.7691171"><ele>277.0</ele><time>2026-03-22T11:24:29.717Z</time></trkpt><trkpt lat="43.7376425" lon="12.7689715"><ele>277.0</ele><time>2026-03-22T11:24:30.727Z</time></trkpt><trkpt lat="43.7375303" lon="12.7688015"><ele>277.0</ele><time>2026-03-22T11:24:31.699Z</time></trkpt><trkpt lat="43.7374128" lon="12.7686709"><ele>277.0</ele><time>2026-03-22T11:24:32.72Z</time></trkpt><trkpt lat="43.7373295" lon="12.7685344"><ele>277.0</ele><time>2026-03-22T11:24:33.711Z</time></trkpt><trkpt lat="43.7372413" lon="12.7684003"><ele>277.0</ele><time>2026-03-22T11:24:34.718Z</time></trkpt><trkpt lat="43.737151" lon="12.768274"><ele>277.5</ele><time>2026-03-22T11:24:35.713Z</time></trkpt><trkpt lat="43.7370745" lon="12.7681536"><ele>278.0</ele><time>2026-03-22T11:24:36.709Z</time></trkpt><trkpt lat="43.7369998" lon="12.7680525"><ele>278.5</ele><time>2026-03-22T11:24:37.711Z</time></trkpt><trkpt lat="43.7369" lon="12.7679317"><ele>279.0</ele><time>2026-03-22T11:24:38.712Z</time></trkpt><trkpt lat="43.7367992" lon="12.7678081"><ele>281.25</ele><time>2026-03-22T11:24:39.718Z</time></trkpt><trkpt lat="43.7367036" lon="12.7676732"><ele>283.5</ele><time>2026-03-22T11:24:40.715Z</time></trkpt><trkpt lat="43.7366072" lon="12.7675311"><ele>285.75</ele><time>2026-03-22T11:24:41.709Z</time></trkpt><trkpt lat="43.7365193" lon="12.7673954"><ele>288.0</ele><time>2026-03-22T11:24:42.711Z</time></trkpt><trkpt lat="43.7364338" lon="12.7672557"><ele>288.0</ele><time>2026-03-22T11:24:43.707Z</time></trkpt><trkpt lat="43.7363544" lon="12.7671059"><ele>288.0</ele><time>2026-03-22T11:24:44.708Z</time></trkpt><trkpt lat="43.736278" lon="12.7669607"><ele>288.0</ele><time>2026-03-22T11:24:45.716Z</time></trkpt><trkpt lat="43.7361927" lon="12.7668228"><ele>288.0</ele><time>2026-03-22T11:24:46.71Z</time></trkpt><trkpt lat="43.7361037" lon="12.7666896"><ele>290.25</ele><time>2026-03-22T11:24:47.715Z</time></trkpt><trkpt lat="43.7360108" lon="12.7665668"><ele>292.5</ele><time>2026-03-22T11:24:48.715Z</time></trkpt><trkpt lat="43.7359094" lon="12.7664483"><ele>294.75</ele><time>2026-03-22T11:24:49.715Z</time></trkpt><trkpt lat="43.735819" lon="12.7663346"><ele>297.0</ele><time>2026-03-22T11:24:50.719Z</time></trkpt><trkpt lat="43.7357276" lon="12.7662157"><ele>297.0</ele><time>2026-03-22T11:24:51.717Z</time></trkpt><trkpt lat="43.7356262" lon="12.7661019"><ele>297.0</ele><time>2026-03-22T11:24:52.712Z</time></trkpt><trkpt lat="43.7355171" lon="12.7659984"><ele>297.0</ele><time>2026-03-22T11:24:53.724Z</time></trkpt><trkpt lat="43.7353986" lon="12.765938"><ele>297.0</ele><time>2026-03-22T11:24:54.72Z</time></trkpt><trkpt lat="43.7352723" lon="12.7659181"><ele>299.5</ele><time>2026-03-22T11:24:55.718Z</time></trkpt><trkpt lat="43.7351474" lon="12.7659053"><ele>302.0</ele><time>2026-03-22T11:24:56.712Z</time></trkpt><trkpt lat="43.7350248" lon="12.7658706"><ele>304.5</ele><time>2026-03-22T11:24:57.718Z</time></trkpt><trkpt lat="43.7349177" lon="12.7657937"><ele>307.0</ele><time>2026-03-22T11:24:58.721Z</time></trkpt><trkpt lat="43.7348237" lon="12.7656722"><ele>307.0</ele><time>2026-03-22T11:24:59.722Z</time></trkpt><trkpt lat="43.7347474" lon="12.765524"><ele>307.0</ele><time>2026-03-22T11:25:00.712Z</time></trkpt><trkpt lat="43.7346705" lon="12.7653628"><ele>307.0</ele><time>2026-03-22T11:25:01.727Z</time></trkpt><trkpt lat="43.7346058" lon="12.765195"><ele>307.0</ele><time>2026-03-22T11:25:02.715Z</time></trkpt><trkpt lat="43.7345463" lon="12.7650264"><ele>307.0</ele><time>2026-03-22T11:25:03.714Z</time></trkpt><trkpt lat="43.734489" lon="12.764851"><ele>307.0</ele><time>2026-03-22T11:25:04.712Z</time></trkpt><trkpt lat="43.7344269" lon="12.7646727"><ele>307.0</ele><time>2026-03-22T11:25:05.711Z</time></trkpt><trkpt lat="43.7343512" lon="12.764513"><ele>307.0</ele><time>2026-03-22T11:25:06.708Z</time></trkpt><trkpt lat="43.7342627" lon="12.7643687"><ele>309.25</ele><time>2026-03-22T11:25:07.717Z</time></trkpt><trkpt lat="43.7341641" lon="12.7642379"><ele>311.5</ele><time>2026-03-22T11:25:08.713Z</time></trkpt><trkpt lat="43.7340636" lon="12.7641238"><ele>313.75</ele><time>2026-03-22T11:25:09.717Z</time></trkpt><trkpt lat="43.7339568" lon="12.7640048"><ele>316.0</ele><time>2026-03-22T11:25:10.725Z</time></trkpt><trkpt lat="43.7338501" lon="12.7638866"><ele>316.0</ele><time>2026-03-22T11:25:11.705Z</time></trkpt><trkpt lat="43.7337552" lon="12.7637617"><ele>316.0</ele><time>2026-03-22T11:25:12.711Z</time></trkpt><trkpt lat="43.733649" lon="12.7636431"><ele>316.0</ele><time>2026-03-22T11:25:13.708Z</time></trkpt><trkpt lat="43.7335539" lon="12.7635147"><ele>316.0</ele><time>2026-03-22T11:25:14.705Z</time></trkpt><trkpt lat="43.7334512" lon="12.7633982"><ele>317.0</ele><time>2026-03-22T11:25:15.71Z</time></trkpt><trkpt lat="43.7333656" lon="12.7632664"><ele>318.0</ele><time>2026-03-22T11:25:16.71Z</time></trkpt><trkpt lat="43.7332933" lon="12.7631271"><ele>319.0</ele><time>2026-03-22T11:25:17.722Z</time></trkpt><trkpt lat="43.7332415" lon="12.762963"><ele>320.0</ele><time>2026-03-22T11:25:18.722Z</time></trkpt><trkpt lat="43.7332227" lon="12.7627809"><ele>321.5</ele><time>2026-03-22T11:25:19.712Z</time></trkpt><trkpt lat="43.7331966" lon="12.7625956"><ele>323.0</ele><time>2026-03-22T11:25:20.71Z</time></trkpt><trkpt lat="43.7331713" lon="12.762411"><ele>324.5</ele><time>2026-03-22T11:25:21.713Z</time></trkpt><trkpt lat="43.7331422" lon="12.7622262"><ele>326.0</ele><time>2026-03-22T11:25:22.71Z</time></trkpt><trkpt lat="43.7331231" lon="12.7620398"><ele>326.25</ele><time>2026-03-22T11:25:23.71Z</time></trkpt><trkpt lat="43.7331008" lon="12.7618488"><ele>326.5</ele><time>2026-03-22T11:25:24.712Z</time></trkpt><trkpt lat="43.7330827" lon="12.7616549"><ele>326.75</ele><time>2026-03-22T11:25:25.704Z</time></trkpt><trkpt lat="43.7330669" lon="12.7614631"><ele>327.0</ele><time>2026-03-22T11:25:26.717Z</time></trkpt><trkpt lat="43.7330592" lon="12.7612619"><ele>327.0</ele><time>2026-03-22T11:25:27.703Z</time></trkpt><trkpt lat="43.7330525" lon="12.7610717"><ele>327.0</ele><time>2026-03-22T11:25:28.711Z</time></trkpt><trkpt lat="43.733045" lon="12.7608899"><ele>327.0</ele><time>2026-03-22T11:25:29.711Z</time></trkpt><trkpt lat="43.733034" lon="12.7606968"><ele>327.0</ele><time>2026-03-22T11:25:30.709Z</time></trkpt><trkpt lat="43.7330157" lon="12.7605054"><ele>327.75</ele><time>2026-03-22T11:25:31.711Z</time></trkpt><trkpt lat="43.7329825" lon="12.7603178"><ele>328.5</ele><time>2026-03-22T11:25:32.724Z</time></trkpt><trkpt lat="43.7329625" lon="12.7601244"><ele>329.25</ele><time>2026-03-22T11:25:33.701Z</time></trkpt><trkpt lat="43.7329434" lon="12.7599197"><ele>330.0</ele><time>2026-03-22T11:25:34.705Z</time></trkpt><trkpt lat="43.7329262" lon="12.7596911"><ele>330.3333333333333</ele><time>2026-03-22T11:25:35.713Z</time></trkpt><trkpt lat="43.7329209" lon="12.7594875"><ele>330.66666666666663</ele><time>2026-03-22T11:25:36.705Z</time></trkpt><trkpt lat="43.7329304" lon="12.7592703"><ele>331.0</ele><time>2026-03-22T11:25:37.716Z</time></trkpt><trkpt lat="43.7329519" lon="12.7590481"><ele>332.3333333333333</ele><time>2026-03-22T11:25:38.707Z</time></trkpt><trkpt lat="43.7329983" lon="12.7588421"><ele>333.6666666666667</ele><time>2026-03-22T11:25:39.707Z</time></trkpt><trkpt lat="43.7330539" lon="12.7586392"><ele>335.0</ele><time>2026-03-22T11:25:40.711Z</time></trkpt><trkpt lat="43.7331114" lon="12.7584307"><ele>337.33333333333337</ele><time>2026-03-22T11:25:41.724Z</time></trkpt><trkpt lat="43.7331684" lon="12.7582287"><ele>339.6666666666667</ele><time>2026-03-22T11:25:42.715Z</time></trkpt><trkpt lat="43.7332287" lon="12.7580373"><ele>342.0</ele><time>2026-03-22T11:25:43.715Z</time></trkpt><trkpt lat="43.7332825" lon="12.7578555"><ele>339.25</ele><time>2026-03-22T11:25:44.712Z</time></trkpt><trkpt lat="43.73334" lon="12.7576893"><ele>336.5</ele><time>2026-03-22T11:25:45.717Z</time></trkpt><trkpt lat="43.7334093" lon="12.7575351"><ele>333.75</ele><time>2026-03-22T11:25:46.711Z</time></trkpt><trkpt lat="43.7335068" lon="12.7573905"><ele>331.0</ele><time>2026-03-22T11:25:47.712Z</time></trkpt><trkpt lat="43.7336212" lon="12.7572493"><ele>331.0</ele><time>2026-03-22T11:25:48.701Z</time></trkpt><trkpt lat="43.73372" lon="12.757101"><ele>331.0</ele><time>2026-03-22T11:25:49.703Z</time></trkpt><trkpt lat="43.7337918" lon="12.7569323"><ele>331.0</ele><time>2026-03-22T11:25:50.703Z</time></trkpt><trkpt lat="43.7338263" lon="12.7567583"><ele>331.0</ele><time>2026-03-22T11:25:51.697Z</time></trkpt><trkpt lat="43.733833" lon="12.7565516"><ele>333.20000000000005</ele><time>2026-03-22T11:25:52.701Z</time></trkpt><trkpt lat="43.7338119" lon="12.7563699"><ele>335.40000000000003</ele><time>2026-03-22T11:25:53.695Z</time></trkpt><trkpt lat="43.7337712" lon="12.7562075"><ele>337.6</ele><time>2026-03-22T11:25:54.694Z</time></trkpt><trkpt lat="43.7337458" lon="12.7560738"><ele>339.8</ele><time>2026-03-22T11:25:55.693Z</time></trkpt><trkpt lat="43.7336869" lon="12.7559817"><ele>342.0</ele><time>2026-03-22T11:25:56.695Z</time></trkpt><trkpt lat="43.7336954" lon="12.7558499"><ele>343.40000000000003</ele><time>2026-03-22T11:25:58.686Z</time></trkpt><trkpt lat="43.7337565" lon="12.7557533"><ele>344.8</ele><time>2026-03-22T11:25:59.691Z</time></trkpt><trkpt lat="43.7337923" lon="12.7556569"><ele>346.2</ele><time>2026-03-22T11:26:00.708Z</time></trkpt><trkpt lat="43.7339016" lon="12.7555481"><ele>347.6</ele><time>2026-03-22T11:26:01.696Z</time></trkpt><trkpt lat="43.7340062" lon="12.755454"><ele>349.0</ele><time>2026-03-22T11:26:02.703Z</time></trkpt><trkpt lat="43.7341151" lon="12.7553591"><ele>349.0</ele><time>2026-03-22T11:26:03.694Z</time></trkpt><trkpt lat="43.7342356" lon="12.7552602"><ele>349.0</ele><time>2026-03-22T11:26:04.697Z</time></trkpt><trkpt lat="43.7343706" lon="12.7551648"><ele>349.0</ele><time>2026-03-22T11:26:05.709Z</time></trkpt><trkpt lat="43.7345066" lon="12.7550805"><ele>349.0</ele><time>2026-03-22T11:26:06.697Z</time></trkpt><trkpt lat="43.7346517" lon="12.7550111"><ele>348.66666666666663</ele><time>2026-03-22T11:26:07.712Z</time></trkpt><trkpt lat="43.7347954" lon="12.7549432"><ele>348.3333333333333</ele><time>2026-03-22T11:26:08.716Z</time></trkpt><trkpt lat="43.7349663" lon="12.7548779"><ele>348.0</ele><time>2026-03-22T11:26:09.698Z</time></trkpt><trkpt lat="43.7351226" lon="12.7548079"><ele>342.6666666666667</ele><time>2026-03-22T11:26:10.712Z</time></trkpt><trkpt lat="43.7352786" lon="12.754755"><ele>337.33333333333337</ele><time>2026-03-22T11:26:11.702Z</time></trkpt><trkpt lat="43.7354375" lon="12.7547053"><ele>332.0</ele><time>2026-03-22T11:26:12.703Z</time></trkpt><trkpt lat="43.7355676" lon="12.7546806"><ele>332.0</ele><time>2026-03-22T11:26:13.701Z</time></trkpt><trkpt lat="43.7357055" lon="12.7546189"><ele>332.0</ele><time>2026-03-22T11:26:14.702Z</time></trkpt><trkpt lat="43.7358502" lon="12.754578"><ele>332.0</ele><time>2026-03-22T11:26:15.702Z</time></trkpt><trkpt lat="43.7359898" lon="12.7544897"><ele>332.0</ele><time>2026-03-22T11:26:16.704Z</time></trkpt><trkpt lat="43.736102" lon="12.754372"><ele>331.25</ele><time>2026-03-22T11:26:17.703Z</time></trkpt><trkpt lat="43.7362013" lon="12.7542555"><ele>330.5</ele><time>2026-03-22T11:26:18.699Z</time></trkpt><trkpt lat="43.7362979" lon="12.7541833"><ele>329.75</ele><time>2026-03-22T11:26:19.697Z</time></trkpt><trkpt lat="43.7364289" lon="12.7540938"><ele>329.0</ele><time>2026-03-22T11:26:20.698Z</time></trkpt><trkpt lat="43.7365598" lon="12.7540317"><ele>329.0</ele><time>2026-03-22T11:26:21.692Z</time></trkpt><trkpt lat="43.736707" lon="12.7539782"><ele>329.0</ele><time>2026-03-22T11:26:22.697Z</time></trkpt><trkpt lat="43.736881" lon="12.7539296"><ele>329.0</ele><time>2026-03-22T11:26:23.697Z</time></trkpt><trkpt lat="43.737053" lon="12.7538858"><ele>325.0</ele><time>2026-03-22T11:26:24.701Z</time></trkpt><trkpt lat="43.737238" lon="12.7538473"><ele>321.0</ele><time>2026-03-22T11:26:25.701Z</time></trkpt><trkpt lat="43.7374285" lon="12.7538051"><ele>317.0</ele><time>2026-03-22T11:26:26.709Z</time></trkpt><trkpt lat="43.7376179" lon="12.7537767"><ele>315.33333333333337</ele><time>2026-03-22T11:26:27.714Z</time></trkpt><trkpt lat="43.7378011" lon="12.7537252"><ele>313.6666666666667</ele><time>2026-03-22T11:26:28.711Z</time></trkpt><trkpt lat="43.7379712" lon="12.7536854"><ele>312.0</ele><time>2026-03-22T11:26:29.715Z</time></trkpt><trkpt lat="43.7381304" lon="12.7536524"><ele>312.0</ele><time>2026-03-22T11:26:30.711Z</time></trkpt><trkpt lat="43.7382912" lon="12.7536203"><ele>312.0</ele><time>2026-03-22T11:26:31.71Z</time></trkpt><trkpt lat="43.7384423" lon="12.7535835"><ele>312.0</ele><time>2026-03-22T11:26:32.707Z</time></trkpt><trkpt lat="43.7385989" lon="12.7535197"><ele>315.5</ele><time>2026-03-22T11:26:33.724Z</time></trkpt><trkpt lat="43.7387346" lon="12.7534217"><ele>319.0</ele><time>2026-03-22T11:26:34.713Z</time></trkpt><trkpt lat="43.738829" lon="12.7532624"><ele>322.5</ele><time>2026-03-22T11:26:35.706Z</time></trkpt><trkpt lat="43.7388749" lon="12.7530921"><ele>326.0</ele><time>2026-03-22T11:26:36.71Z</time></trkpt><trkpt lat="43.7389123" lon="12.752875"><ele>325.75</ele><time>2026-03-22T11:26:37.699Z</time></trkpt><trkpt lat="43.7389629" lon="12.7526886"><ele>325.5</ele><time>2026-03-22T11:26:38.695Z</time></trkpt><trkpt lat="43.7390104" lon="12.7525064"><ele>325.25</ele><time>2026-03-22T11:26:39.699Z</time></trkpt><trkpt lat="43.7390627" lon="12.7523698"><ele>325.0</ele><time>2026-03-22T11:26:40.705Z</time></trkpt><trkpt lat="43.7391488" lon="12.7522724"><ele>325.0</ele><time>2026-03-22T11:26:41.709Z</time></trkpt><trkpt lat="43.7392583" lon="12.7522317"><ele>325.0</ele><time>2026-03-22T11:26:42.715Z</time></trkpt><trkpt lat="43.7393883" lon="12.7521847"><ele>325.0</ele><time>2026-03-22T11:26:43.715Z</time></trkpt><trkpt lat="43.7395394" lon="12.7521867"><ele>325.0</ele><time>2026-03-22T11:26:44.711Z</time></trkpt><trkpt lat="43.7396977" lon="12.7521935"><ele>324.66666666666663</ele><time>2026-03-22T11:26:45.71Z</time></trkpt><trkpt lat="43.7398652" lon="12.7521692"><ele>324.3333333333333</ele><time>2026-03-22T11:26:46.708Z</time></trkpt><trkpt lat="43.7400175" lon="12.7521125"><ele>324.0</ele><time>2026-03-22T11:26:47.699Z</time></trkpt><trkpt lat="43.7401878" lon="12.7520407"><ele>324.3333333333333</ele><time>2026-03-22T11:26:48.693Z</time></trkpt><trkpt lat="43.7403537" lon="12.7519615"><ele>324.66666666666663</ele><time>2026-03-22T11:26:49.7Z</time></trkpt><trkpt lat="43.7405185" lon="12.7518491"><ele>325.0</ele><time>2026-03-22T11:26:50.707Z</time></trkpt><trkpt lat="43.7406768" lon="12.7516897"><ele>325.0</ele><time>2026-03-22T11:26:51.708Z</time></trkpt><trkpt lat="43.7408135" lon="12.7515818"><ele>325.0</ele><time>2026-03-22T11:26:52.711Z</time></trkpt><trkpt lat="43.740961" lon="12.7515404"><ele>325.0</ele><time>2026-03-22T11:26:53.704Z</time></trkpt><trkpt lat="43.741114" lon="12.7515783"><ele>325.25</ele><time>2026-03-22T11:26:54.714Z</time></trkpt><trkpt lat="43.7412667" lon="12.7516243"><ele>325.5</ele><time>2026-03-22T11:26:55.7Z</time></trkpt><trkpt lat="43.7413963" lon="12.7516627"><ele>325.75</ele><time>2026-03-22T11:26:56.707Z</time></trkpt><trkpt lat="43.7415239" lon="12.7516737"><ele>326.0</ele><time>2026-03-22T11:26:57.697Z</time></trkpt><trkpt lat="43.7416395" lon="12.7516418"><ele>326.0</ele><time>2026-03-22T11:26:58.699Z</time></trkpt><trkpt lat="43.741754" lon="12.7516163"><ele>326.0</ele><time>2026-03-22T11:26:59.711Z</time></trkpt><trkpt lat="43.7418668" lon="12.7515845"><ele>326.0</ele><time>2026-03-22T11:27:00.707Z</time></trkpt><trkpt lat="43.742006" lon="12.7515416"><ele>326.0</ele><time>2026-03-22T11:27:01.703Z</time></trkpt><trkpt lat="43.7421465" lon="12.7515251"><ele>325.0</ele><time>2026-03-22T11:27:02.702Z</time></trkpt><trkpt lat="43.7422667" lon="12.7515171"><ele>324.0</ele><time>2026-03-22T11:27:03.704Z</time></trkpt><trkpt lat="43.7423793" lon="12.7514835"><ele>323.0</ele><time>2026-03-22T11:27:04.711Z</time></trkpt><trkpt lat="43.7425065" lon="12.7514452"><ele>322.0</ele><time>2026-03-22T11:27:05.708Z</time></trkpt><trkpt lat="43.7426604" lon="12.7514363"><ele>323.0</ele><time>2026-03-22T11:27:06.718Z</time></trkpt><trkpt lat="43.7427979" lon="12.7514568"><ele>324.0</ele><time>2026-03-22T11:27:07.701Z</time></trkpt><trkpt lat="43.7429359" lon="12.751508"><ele>325.0</ele><time>2026-03-22T11:27:08.71Z</time></trkpt><trkpt lat="43.7430916" lon="12.7515781"><ele>326.0</ele><time>2026-03-22T11:27:09.707Z</time></trkpt><trkpt lat="43.7432468" lon="12.7516534"><ele>326.0</ele><time>2026-03-22T11:27:10.709Z</time></trkpt><trkpt lat="43.7434022" lon="12.7517195"><ele>326.0</ele><time>2026-03-22T11:27:11.708Z</time></trkpt><trkpt lat="43.7435673" lon="12.7517819"><ele>326.0</ele><time>2026-03-22T11:27:12.712Z</time></trkpt><trkpt lat="43.7437371" lon="12.7518287"><ele>326.6666666666667</ele><time>2026-03-22T11:27:13.707Z</time></trkpt><trkpt lat="43.743894" lon="12.7518807"><ele>327.3333333333333</ele><time>2026-03-22T11:27:14.718Z</time></trkpt><trkpt lat="43.744037" lon="12.7519591"><ele>328.0</ele><time>2026-03-22T11:27:15.695Z</time></trkpt><trkpt lat="43.7441655" lon="12.752049"><ele>328.0</ele><time>2026-03-22T11:27:16.706Z</time></trkpt><trkpt lat="43.7442494" lon="12.7522112"><ele>328.0</ele><time>2026-03-22T11:27:17.709Z</time></trkpt><trkpt lat="43.7443184" lon="12.7523892"><ele>328.0</ele><time>2026-03-22T11:27:18.699Z</time></trkpt><trkpt lat="43.7444084" lon="12.7525709"><ele>328.0</ele><time>2026-03-22T11:27:19.697Z</time></trkpt><trkpt lat="43.7445046" lon="12.7528045"><ele>328.0</ele><time>2026-03-22T11:27:20.702Z</time></trkpt><trkpt lat="43.7445961" lon="12.7529842"><ele>328.0</ele><time>2026-03-22T11:27:21.708Z</time></trkpt><trkpt lat="43.7446788" lon="12.7531536"><ele>328.0</ele><time>2026-03-22T11:27:22.713Z</time></trkpt><trkpt lat="43.7447901" lon="12.7533181"><ele>328.0</ele><time>2026-03-22T11:27:23.715Z</time></trkpt><trkpt lat="43.7448944" lon="12.7534883"><ele>328.0</ele><time>2026-03-22T11:27:24.704Z</time></trkpt><trkpt lat="43.7449993" lon="12.7536281"><ele>328.0</ele><time>2026-03-22T11:27:25.704Z</time></trkpt><trkpt lat="43.7451079" lon="12.753776"><ele>328.3333333333333</ele><time>2026-03-22T11:27:26.702Z</time></trkpt><trkpt lat="43.7452042" lon="12.7539431"><ele>328.6666666666667</ele><time>2026-03-22T11:27:27.714Z</time></trkpt><trkpt lat="43.7453013" lon="12.7541269"><ele>329.0</ele><time>2026-03-22T11:27:28.702Z</time></trkpt><trkpt lat="43.7453893" lon="12.7542927"><ele>327.6666666666667</ele><time>2026-03-22T11:27:29.711Z</time></trkpt><trkpt lat="43.7454654" lon="12.7544817"><ele>326.3333333333333</ele><time>2026-03-22T11:27:30.715Z</time></trkpt><trkpt lat="43.7455427" lon="12.7546769"><ele>325.0</ele><time>2026-03-22T11:27:31.711Z</time></trkpt><trkpt lat="43.7456331" lon="12.7548385"><ele>325.0</ele><time>2026-03-22T11:27:32.703Z</time></trkpt><trkpt lat="43.7457301" lon="12.7549729"><ele>325.0</ele><time>2026-03-22T11:27:33.703Z</time></trkpt><trkpt lat="43.7458228" lon="12.7550935"><ele>325.0</ele><time>2026-03-22T11:27:34.715Z</time></trkpt><trkpt lat="43.7459153" lon="12.7552309"><ele>325.0</ele><time>2026-03-22T11:27:35.727Z</time></trkpt><trkpt lat="43.7460341" lon="12.7553765"><ele>323.3333333333333</ele><time>2026-03-22T11:27:36.718Z</time></trkpt><trkpt lat="43.7461458" lon="12.7555237"><ele>321.6666666666667</ele><time>2026-03-22T11:27:37.719Z</time></trkpt><trkpt lat="43.7462561" lon="12.7556672"><ele>320.0</ele><time>2026-03-22T11:27:38.712Z</time></trkpt><trkpt lat="43.7463672" lon="12.7557939"><ele>320.0</ele><time>2026-03-22T11:27:39.704Z</time></trkpt><trkpt lat="43.7464794" lon="12.7558906"><ele>320.0</ele><time>2026-03-22T11:27:40.705Z</time></trkpt><trkpt lat="43.746599" lon="12.7559869"><ele>320.0</ele><time>2026-03-22T11:27:41.713Z</time></trkpt><trkpt lat="43.7467299" lon="12.7561036"><ele>320.0</ele><time>2026-03-22T11:27:42.711Z</time></trkpt><trkpt lat="43.7468529" lon="12.7562182"><ele>318.0</ele><time>2026-03-22T11:27:43.709Z</time></trkpt><trkpt lat="43.7469724" lon="12.7563263"><ele>316.0</ele><time>2026-03-22T11:27:44.706Z</time></trkpt><trkpt lat="43.7470926" lon="12.7564602"><ele>314.0</ele><time>2026-03-22T11:27:45.723Z</time></trkpt><trkpt lat="43.7472199" lon="12.7565937"><ele>314.0</ele><time>2026-03-22T11:27:46.715Z</time></trkpt><trkpt lat="43.7473485" lon="12.7567127"><ele>314.0</ele><time>2026-03-22T11:27:47.713Z</time></trkpt><trkpt lat="43.7474722" lon="12.756828"><ele>314.0</ele><time>2026-03-22T11:27:48.711Z</time></trkpt><trkpt lat="43.7475938" lon="12.7569556"><ele>311.33333333333337</ele><time>2026-03-22T11:27:49.713Z</time></trkpt><trkpt lat="43.7477193" lon="12.7570774"><ele>308.6666666666667</ele><time>2026-03-22T11:27:50.715Z</time></trkpt><trkpt lat="43.7478598" lon="12.7571732"><ele>306.0</ele><time>2026-03-22T11:27:51.711Z</time></trkpt><trkpt lat="43.7480033" lon="12.7572571"><ele>306.0</ele><time>2026-03-22T11:27:52.706Z</time></trkpt><trkpt lat="43.7481353" lon="12.7573322"><ele>306.0</ele><time>2026-03-22T11:27:53.72Z</time></trkpt><trkpt lat="43.7482594" lon="12.7574171"><ele>306.0</ele><time>2026-03-22T11:27:54.715Z</time></trkpt><trkpt lat="43.7483918" lon="12.7574713"><ele>306.0</ele><time>2026-03-22T11:27:55.711Z</time></trkpt><trkpt lat="43.7485968" lon="12.7575246"><ele>304.6666666666667</ele><time>2026-03-22T11:27:56.705Z</time></trkpt><trkpt lat="43.7487944" lon="12.7575568"><ele>303.33333333333337</ele><time>2026-03-22T11:27:57.698Z</time></trkpt><trkpt lat="43.7489943" lon="12.7576339"><ele>302.0</ele><time>2026-03-22T11:27:58.71Z</time></trkpt><trkpt lat="43.7491682" lon="12.7577085"><ele>302.0</ele><time>2026-03-22T11:27:59.692Z</time></trkpt><trkpt lat="43.7493259" lon="12.7577837"><ele>302.0</ele><time>2026-03-22T11:28:00.708Z</time></trkpt><trkpt lat="43.7495265" lon="12.7578553"><ele>302.0</ele><time>2026-03-22T11:28:01.711Z</time></trkpt><trkpt lat="43.7497169" lon="12.7579351"><ele>302.0</ele><time>2026-03-22T11:28:02.71Z</time></trkpt><trkpt lat="43.7498836" lon="12.7580267"><ele>302.0</ele><time>2026-03-22T11:28:03.716Z</time></trkpt><trkpt lat="43.75004" lon="12.7581145"><ele>302.0</ele><time>2026-03-22T11:28:04.703Z</time></trkpt><trkpt lat="43.7502024" lon="12.7581967"><ele>305.0</ele><time>2026-03-22T11:28:05.71Z</time></trkpt><trkpt lat="43.7503728" lon="12.7582635"><ele>308.0</ele><time>2026-03-22T11:28:06.715Z</time></trkpt><trkpt lat="43.7505296" lon="12.7583147"><ele>311.0</ele><time>2026-03-22T11:28:07.718Z</time></trkpt><trkpt lat="43.7506908" lon="12.758384"><ele>311.0</ele><time>2026-03-22T11:28:08.71Z</time></trkpt><trkpt lat="43.7508574" lon="12.7584649"><ele>311.0</ele><time>2026-03-22T11:28:09.697Z</time></trkpt><trkpt lat="43.7510252" lon="12.7585561"><ele>311.0</ele><time>2026-03-22T11:28:10.709Z</time></trkpt><trkpt lat="43.7511633" lon="12.758638"><ele>314.0</ele><time>2026-03-22T11:28:11.704Z</time></trkpt><trkpt lat="43.7513181" lon="12.7587069"><ele>317.0</ele><time>2026-03-22T11:28:12.71Z</time></trkpt><trkpt lat="43.751473" lon="12.7587474"><ele>320.0</ele><time>2026-03-22T11:28:13.711Z</time></trkpt><trkpt lat="43.7516183" lon="12.7587859"><ele>320.0</ele><time>2026-03-22T11:28:14.711Z</time></trkpt><trkpt lat="43.7517618" lon="12.7588446"><ele>320.0</ele><time>2026-03-22T11:28:15.715Z</time></trkpt><trkpt lat="43.7518998" lon="12.7589194"><ele>320.0</ele><time>2026-03-22T11:28:16.725Z</time></trkpt><trkpt lat="43.7520409" lon="12.7590133"><ele>324.0</ele><time>2026-03-22T11:28:17.71Z</time></trkpt><trkpt lat="43.7521758" lon="12.7591135"><ele>328.0</ele><time>2026-03-22T11:28:18.708Z</time></trkpt><trkpt lat="43.7523021" lon="12.7592213"><ele>332.0</ele><time>2026-03-22T11:28:19.711Z</time></trkpt><trkpt lat="43.7524294" lon="12.7593345"><ele>333.20000000000005</ele><time>2026-03-22T11:28:20.71Z</time></trkpt><trkpt lat="43.7525336" lon="12.7594215"><ele>334.4</ele><time>2026-03-22T11:28:21.707Z</time></trkpt><trkpt lat="43.7526235" lon="12.7594734"><ele>335.6</ele><time>2026-03-22T11:28:22.706Z</time></trkpt><trkpt lat="43.7527111" lon="12.7595345"><ele>336.79999999999995</ele><time>2026-03-22T11:28:23.711Z</time></trkpt><trkpt lat="43.7527747" lon="12.7596096"><ele>338.0</ele><time>2026-03-22T11:28:24.708Z</time></trkpt><trkpt lat="43.7528009" lon="12.7596911"><ele>338.0</ele><time>2026-03-22T11:28:25.704Z</time></trkpt><trkpt lat="43.7527725" lon="12.7597729"><ele>338.0</ele><time>2026-03-22T11:28:26.709Z</time></trkpt><trkpt lat="43.7527043" lon="12.7598587"><ele>338.0</ele><time>2026-03-22T11:28:27.705Z</time></trkpt><trkpt lat="43.7526252" lon="12.7599516"><ele>338.0</ele><time>2026-03-22T11:28:28.696Z</time></trkpt><trkpt lat="43.7525521" lon="12.760053"><ele>338.0</ele><time>2026-03-22T11:28:29.715Z</time></trkpt><trkpt lat="43.7524943" lon="12.7601954"><ele>339.5</ele><time>2026-03-22T11:28:30.713Z</time></trkpt><trkpt lat="43.7524553" lon="12.7603547"><ele>341.0</ele><time>2026-03-22T11:28:31.709Z</time></trkpt><trkpt lat="43.7524482" lon="12.7605313"><ele>342.5</ele><time>2026-03-22T11:28:32.71Z</time></trkpt><trkpt lat="43.7524617" lon="12.7607096"><ele>344.0</ele><time>2026-03-22T11:28:33.703Z</time></trkpt><trkpt lat="43.7524881" lon="12.7608808"><ele>343.5</ele><time>2026-03-22T11:28:34.706Z</time></trkpt><trkpt lat="43.7525273" lon="12.7610648"><ele>343.0</ele><time>2026-03-22T11:28:35.715Z</time></trkpt><trkpt lat="43.7525816" lon="12.7612268"><ele>342.5</ele><time>2026-03-22T11:28:36.705Z</time></trkpt><trkpt lat="43.7526801" lon="12.7613973"><ele>342.0</ele><time>2026-03-22T11:28:37.728Z</time></trkpt><trkpt lat="43.7528031" lon="12.7615486"><ele>346.25</ele><time>2026-03-22T11:28:38.703Z</time></trkpt><trkpt lat="43.7529156" lon="12.7616941"><ele>350.5</ele><time>2026-03-22T11:28:39.714Z</time></trkpt><trkpt lat="43.7530357" lon="12.7617635"><ele>354.75</ele><time>2026-03-22T11:28:40.713Z</time></trkpt><trkpt lat="43.7531726" lon="12.7617447"><ele>359.0</ele><time>2026-03-22T11:28:41.695Z</time></trkpt><trkpt lat="43.7532971" lon="12.7617483"><ele>359.0</ele><time>2026-03-22T11:28:42.709Z</time></trkpt><trkpt lat="43.7534387" lon="12.7617399"><ele>359.0</ele><time>2026-03-22T11:28:43.703Z</time></trkpt><trkpt lat="43.7535525" lon="12.761721"><ele>359.0</ele><time>2026-03-22T11:28:44.718Z</time></trkpt><trkpt lat="43.7536449" lon="12.7616969"><ele>359.0</ele><time>2026-03-22T11:28:45.708Z</time></trkpt><trkpt lat="43.7537254" lon="12.7616868"><ele>359.0</ele><time>2026-03-22T11:28:46.716Z</time></trkpt><trkpt lat="43.7537923" lon="12.7616843"><ele>359.79999999999995</ele><time>2026-03-22T11:28:47.711Z</time></trkpt><trkpt lat="43.7538653" lon="12.7617308"><ele>360.59999999999997</ele><time>2026-03-22T11:28:49.716Z</time></trkpt><trkpt lat="43.7539476" lon="12.7618866"><ele>361.4</ele><time>2026-03-22T11:28:51.713Z</time></trkpt><trkpt lat="43.7540179" lon="12.7619753"><ele>362.2</ele><time>2026-03-22T11:28:52.711Z</time></trkpt><trkpt lat="43.7541132" lon="12.7620441"><ele>363.0</ele><time>2026-03-22T11:28:53.723Z</time></trkpt><trkpt lat="43.754231" lon="12.7621097"><ele>363.0</ele><time>2026-03-22T11:28:54.711Z</time></trkpt><trkpt lat="43.7543382" lon="12.7621919"><ele>363.0</ele><time>2026-03-22T11:28:55.712Z</time></trkpt><trkpt lat="43.7544389" lon="12.7622909"><ele>363.0</ele><time>2026-03-22T11:28:56.712Z</time></trkpt><trkpt lat="43.7545401" lon="12.7624166"><ele>363.0</ele><time>2026-03-22T11:28:57.711Z</time></trkpt><trkpt lat="43.7546481" lon="12.7625416"><ele>361.75</ele><time>2026-03-22T11:28:58.707Z</time></trkpt><trkpt lat="43.7547611" lon="12.7626471"><ele>360.5</ele><time>2026-03-22T11:28:59.713Z</time></trkpt><trkpt lat="43.7548831" lon="12.7627366"><ele>359.25</ele><time>2026-03-22T11:29:00.712Z</time></trkpt><trkpt lat="43.7550131" lon="12.7628055"><ele>358.0</ele><time>2026-03-22T11:29:01.714Z</time></trkpt><trkpt lat="43.755154" lon="12.7628691"><ele>360.3333333333333</ele><time>2026-03-22T11:29:02.711Z</time></trkpt><trkpt lat="43.7552988" lon="12.7629227"><ele>362.6666666666667</ele><time>2026-03-22T11:29:03.712Z</time></trkpt><trkpt lat="43.7554557" lon="12.7629791"><ele>365.0</ele><time>2026-03-22T11:29:04.708Z</time></trkpt><trkpt lat="43.7556168" lon="12.7630455"><ele>365.0</ele><time>2026-03-22T11:29:05.708Z</time></trkpt><trkpt lat="43.7557691" lon="12.7631099"><ele>365.0</ele><time>2026-03-22T11:29:06.705Z</time></trkpt><trkpt lat="43.7559148" lon="12.7631582"><ele>365.0</ele><time>2026-03-22T11:29:07.706Z</time></trkpt><trkpt lat="43.7560629" lon="12.7631891"><ele>365.33333333333337</ele><time>2026-03-22T11:29:08.71Z</time></trkpt><trkpt lat="43.7562263" lon="12.7632116"><ele>365.6666666666667</ele><time>2026-03-22T11:29:09.707Z</time></trkpt><trkpt lat="43.7563835" lon="12.7632374"><ele>366.0</ele><time>2026-03-22T11:29:10.708Z</time></trkpt><trkpt lat="43.756523" lon="12.763254"><ele>366.0</ele><time>2026-03-22T11:29:11.71Z</time></trkpt><trkpt lat="43.7566773" lon="12.7632589"><ele>366.0</ele><time>2026-03-22T11:29:12.711Z</time></trkpt><trkpt lat="43.7568303" lon="12.7632636"><ele>366.0</ele><time>2026-03-22T11:29:13.705Z</time></trkpt><trkpt lat="43.7569936" lon="12.7632706"><ele>367.75</ele><time>2026-03-22T11:29:14.714Z</time></trkpt><trkpt lat="43.7571437" lon="12.7632974"><ele>369.5</ele><time>2026-03-22T11:29:15.712Z</time></trkpt><trkpt lat="43.7572883" lon="12.7633489"><ele>371.25</ele><time>2026-03-22T11:29:16.708Z</time></trkpt><trkpt lat="43.7574259" lon="12.7634163"><ele>373.0</ele><time>2026-03-22T11:29:17.719Z</time></trkpt><trkpt lat="43.7575683" lon="12.7634915"><ele>369.0</ele><time>2026-03-22T11:29:18.711Z</time></trkpt><trkpt lat="43.7576986" lon="12.7635499"><ele>365.0</ele><time>2026-03-22T11:29:19.711Z</time></trkpt><trkpt lat="43.7578301" lon="12.7636025"><ele>361.0</ele><time>2026-03-22T11:29:20.713Z</time></trkpt><trkpt lat="43.7579714" lon="12.7636363"><ele>357.0</ele><time>2026-03-22T11:29:21.707Z</time></trkpt><trkpt lat="43.7581166" lon="12.7636468"><ele>357.0</ele><time>2026-03-22T11:29:22.711Z</time></trkpt><trkpt lat="43.7582551" lon="12.7636192"><ele>357.0</ele><time>2026-03-22T11:29:23.714Z</time></trkpt><trkpt lat="43.758371" lon="12.7636112"><ele>357.0</ele><time>2026-03-22T11:29:24.705Z</time></trkpt><trkpt lat="43.7585147" lon="12.7635361"><ele>357.0</ele><time>2026-03-22T11:29:25.707Z</time></trkpt><trkpt lat="43.7586857" lon="12.7634725"><ele>363.0</ele><time>2026-03-22T11:29:26.707Z</time></trkpt><trkpt lat="43.7588373" lon="12.7633939"><ele>369.0</ele><time>2026-03-22T11:29:27.705Z</time></trkpt><trkpt lat="43.7589927" lon="12.7633279"><ele>375.0</ele><time>2026-03-22T11:29:28.7Z</time></trkpt><trkpt lat="43.7591467" lon="12.7632858"><ele>375.0</ele><time>2026-03-22T11:29:29.708Z</time></trkpt><trkpt lat="43.7592954" lon="12.763271"><ele>375.0</ele><time>2026-03-22T11:29:30.71Z</time></trkpt><trkpt lat="43.7594405" lon="12.7633042"><ele>375.0</ele><time>2026-03-22T11:29:31.702Z</time></trkpt><trkpt lat="43.7595966" lon="12.7633685"><ele>375.0</ele><time>2026-03-22T11:29:32.719Z</time></trkpt><trkpt lat="43.7597446" lon="12.7634621"><ele>375.0</ele><time>2026-03-22T11:29:33.704Z</time></trkpt><trkpt lat="43.7598854" lon="12.7635474"><ele>375.0</ele><time>2026-03-22T11:29:34.71Z</time></trkpt><trkpt lat="43.7600228" lon="12.7636625"><ele>375.0</ele><time>2026-03-22T11:29:35.719Z</time></trkpt><trkpt lat="43.7601099" lon="12.7638179"><ele>375.0</ele><time>2026-03-22T11:29:36.715Z</time></trkpt><trkpt lat="43.7601538" lon="12.7640005"><ele>375.0</ele><time>2026-03-22T11:29:37.709Z</time></trkpt><trkpt lat="43.7601567" lon="12.7642196"><ele>375.0</ele><time>2026-03-22T11:29:38.709Z</time></trkpt><trkpt lat="43.7601559" lon="12.7644435"><ele>374.0</ele><time>2026-03-22T11:29:39.717Z</time></trkpt><trkpt lat="43.7601533" lon="12.7646776"><ele>373.0</ele><time>2026-03-22T11:29:40.71Z</time></trkpt><trkpt lat="43.7601514" lon="12.7648988"><ele>372.0</ele><time>2026-03-22T11:29:41.712Z</time></trkpt><trkpt lat="43.7601482" lon="12.7651048"><ele>370.5</ele><time>2026-03-22T11:29:42.709Z</time></trkpt><trkpt lat="43.7601549" lon="12.7652894"><ele>369.0</ele><time>2026-03-22T11:29:43.708Z</time></trkpt><trkpt lat="43.7601713" lon="12.7654729"><ele>367.5</ele><time>2026-03-22T11:29:44.711Z</time></trkpt><trkpt lat="43.760213" lon="12.7656455"><ele>366.0</ele><time>2026-03-22T11:29:45.711Z</time></trkpt><trkpt lat="43.7602727" lon="12.7658048"><ele>368.25</ele><time>2026-03-22T11:29:46.71Z</time></trkpt><trkpt lat="43.7603615" lon="12.765945"><ele>370.5</ele><time>2026-03-22T11:29:47.712Z</time></trkpt><trkpt lat="43.7604822" lon="12.7660684"><ele>372.75</ele><time>2026-03-22T11:29:48.713Z</time></trkpt><trkpt lat="43.7606046" lon="12.7661869"><ele>375.0</ele><time>2026-03-22T11:29:49.705Z</time></trkpt><trkpt lat="43.7607238" lon="12.7663011"><ele>375.0</ele><time>2026-03-22T11:29:50.708Z</time></trkpt><trkpt lat="43.7608308" lon="12.7664253"><ele>375.0</ele><time>2026-03-22T11:29:51.711Z</time></trkpt><trkpt lat="43.7609279" lon="12.7665266"><ele>375.0</ele><time>2026-03-22T11:29:52.719Z</time></trkpt><trkpt lat="43.761024" lon="12.7666262"><ele>375.0</ele><time>2026-03-22T11:29:53.719Z</time></trkpt><trkpt lat="43.7611309" lon="12.7667104"><ele>376.25</ele><time>2026-03-22T11:29:54.711Z</time></trkpt><trkpt lat="43.7612362" lon="12.7667691"><ele>377.5</ele><time>2026-03-22T11:29:55.715Z</time></trkpt><trkpt lat="43.7613525" lon="12.7668153"><ele>378.75</ele><time>2026-03-22T11:29:56.701Z</time></trkpt><trkpt lat="43.7614775" lon="12.7668255"><ele>380.0</ele><time>2026-03-22T11:29:57.709Z</time></trkpt><trkpt lat="43.7616263" lon="12.766803"><ele>380.0</ele><time>2026-03-22T11:29:58.704Z</time></trkpt><trkpt lat="43.7617758" lon="12.7667789"><ele>380.0</ele><time>2026-03-22T11:29:59.709Z</time></trkpt><trkpt lat="43.7619127" lon="12.766754"><ele>380.0</ele><time>2026-03-22T11:30:00.709Z</time></trkpt><trkpt lat="43.7620424" lon="12.7667076"><ele>380.0</ele><time>2026-03-22T11:30:01.709Z</time></trkpt><trkpt lat="43.7621795" lon="12.7666126"><ele>377.6666666666667</ele><time>2026-03-22T11:30:02.709Z</time></trkpt><trkpt lat="43.7623245" lon="12.7664481"><ele>375.3333333333333</ele><time>2026-03-22T11:30:03.704Z</time></trkpt><trkpt lat="43.7624745" lon="12.7663101"><ele>373.0</ele><time>2026-03-22T11:30:04.696Z</time></trkpt><trkpt lat="43.7625932" lon="12.7661942"><ele>373.0</ele><time>2026-03-22T11:30:05.703Z</time></trkpt><trkpt lat="43.7626714" lon="12.7660948"><ele>373.0</ele><time>2026-03-22T11:30:06.707Z</time></trkpt><trkpt lat="43.7627869" lon="12.7659713"><ele>373.0</ele><time>2026-03-22T11:30:08.71Z</time></trkpt><trkpt lat="43.762855" lon="12.7659546"><ele>373.0</ele><time>2026-03-22T11:30:09.713Z</time></trkpt><trkpt lat="43.7629623" lon="12.7661402"><ele>377.66666666666663</ele><time>2026-03-22T11:30:11.708Z</time></trkpt><trkpt lat="43.7630491" lon="12.7663024"><ele>382.3333333333333</ele><time>2026-03-22T11:30:12.699Z</time></trkpt><trkpt lat="43.7631227" lon="12.76649"><ele>387.0</ele><time>2026-03-22T11:30:13.693Z</time></trkpt><trkpt lat="43.7632008" lon="12.7666669"><ele>382.3333333333333</ele><time>2026-03-22T11:30:14.706Z</time></trkpt><trkpt lat="43.7632914" lon="12.766864"><ele>377.66666666666663</ele><time>2026-03-22T11:30:15.702Z</time></trkpt><trkpt lat="43.7633879" lon="12.767093"><ele>373.0</ele><time>2026-03-22T11:30:16.694Z</time></trkpt><trkpt lat="43.7634504" lon="12.7672552"><ele>374.75</ele><time>2026-03-22T11:30:17.701Z</time></trkpt><trkpt lat="43.7635396" lon="12.7673803"><ele>376.5</ele><time>2026-03-22T11:30:18.709Z</time></trkpt><trkpt lat="43.7636364" lon="12.7674146"><ele>378.25</ele><time>2026-03-22T11:30:19.721Z</time></trkpt><trkpt lat="43.7637584" lon="12.76738"><ele>380.0</ele><time>2026-03-22T11:30:20.704Z</time></trkpt><trkpt lat="43.7638992" lon="12.7673308"><ele>380.0</ele><time>2026-03-22T11:30:21.703Z</time></trkpt><trkpt lat="43.7640199" lon="12.7672668"><ele>380.0</ele><time>2026-03-22T11:30:22.701Z</time></trkpt><trkpt lat="43.7641562" lon="12.7672086"><ele>380.0</ele><time>2026-03-22T11:30:23.702Z</time></trkpt><trkpt lat="43.7643034" lon="12.7671537"><ele>380.0</ele><time>2026-03-22T11:30:24.698Z</time></trkpt><trkpt lat="43.7644634" lon="12.7671116"><ele>382.5</ele><time>2026-03-22T11:30:25.701Z</time></trkpt><trkpt lat="43.7646128" lon="12.767097"><ele>385.0</ele><time>2026-03-22T11:30:26.688Z</time></trkpt><trkpt lat="43.7647507" lon="12.7671402"><ele>387.5</ele><time>2026-03-22T11:30:27.712Z</time></trkpt><trkpt lat="43.7648563" lon="12.7672094"><ele>390.0</ele><time>2026-03-22T11:30:28.697Z</time></trkpt><trkpt lat="43.7649717" lon="12.767298"><ele>390.0</ele><time>2026-03-22T11:30:29.709Z</time></trkpt><trkpt lat="43.765066" lon="12.7674016"><ele>390.0</ele><time>2026-03-22T11:30:30.704Z</time></trkpt><trkpt lat="43.7651472" lon="12.7675085"><ele>390.0</ele><time>2026-03-22T11:30:31.719Z</time></trkpt><trkpt lat="43.7652507" lon="12.7675986"><ele>390.0</ele><time>2026-03-22T11:30:32.713Z</time></trkpt><trkpt lat="43.7653764" lon="12.7677226"><ele>392.25</ele><time>2026-03-22T11:30:33.719Z</time></trkpt><trkpt lat="43.7654653" lon="12.767835"><ele>394.5</ele><time>2026-03-22T11:30:34.712Z</time></trkpt><trkpt lat="43.7654941" lon="12.7679334"><ele>396.75</ele><time>2026-03-22T11:30:35.714Z</time></trkpt><trkpt lat="43.7654899" lon="12.7680879"><ele>399.0</ele><time>2026-03-22T11:30:36.712Z</time></trkpt><trkpt lat="43.7654373" lon="12.7682875"><ele>399.0</ele><time>2026-03-22T11:30:37.702Z</time></trkpt><trkpt lat="43.7653908" lon="12.7684742"><ele>399.0</ele><time>2026-03-22T11:30:38.701Z</time></trkpt><trkpt lat="43.7653812" lon="12.7686607"><ele>399.0</ele><time>2026-03-22T11:30:39.709Z</time></trkpt><trkpt lat="43.7654329" lon="12.7688405"><ele>399.0</ele><time>2026-03-22T11:30:40.716Z</time></trkpt><trkpt lat="43.7655263" lon="12.7690161"><ele>399.25</ele><time>2026-03-22T11:30:41.715Z</time></trkpt><trkpt lat="43.7656333" lon="12.7691812"><ele>399.5</ele><time>2026-03-22T11:30:42.706Z</time></trkpt><trkpt lat="43.7657306" lon="12.769319"><ele>399.75</ele><time>2026-03-22T11:30:43.711Z</time></trkpt><trkpt lat="43.7657933" lon="12.7694592"><ele>400.0</ele><time>2026-03-22T11:30:44.717Z</time></trkpt><trkpt lat="43.7657998" lon="12.7696121"><ele>400.75</ele><time>2026-03-22T11:30:45.711Z</time></trkpt><trkpt lat="43.7657735" lon="12.7697614"><ele>401.5</ele><time>2026-03-22T11:30:46.714Z</time></trkpt><trkpt lat="43.7657108" lon="12.7698976"><ele>402.25</ele><time>2026-03-22T11:30:47.698Z</time></trkpt><trkpt lat="43.7656465" lon="12.7700216"><ele>403.0</ele><time>2026-03-22T11:30:48.709Z</time></trkpt><trkpt lat="43.7655347" lon="12.7701109"><ele>403.0</ele><time>2026-03-22T11:30:49.694Z</time></trkpt><trkpt lat="43.7654258" lon="12.7701692"><ele>403.0</ele><time>2026-03-22T11:30:50.716Z</time></trkpt><trkpt lat="43.7653083" lon="12.7702018"><ele>403.0</ele><time>2026-03-22T11:30:51.696Z</time></trkpt><trkpt lat="43.7652024" lon="12.7702067"><ele>403.0</ele><time>2026-03-22T11:30:52.692Z</time></trkpt><trkpt lat="43.7651043" lon="12.7702419"><ele>403.0</ele><time>2026-03-22T11:30:53.709Z</time></trkpt><trkpt lat="43.765024" lon="12.7703391"><ele>402.2</ele><time>2026-03-22T11:30:54.693Z</time></trkpt><trkpt lat="43.7649385" lon="12.7704476"><ele>401.4</ele><time>2026-03-22T11:30:55.698Z</time></trkpt><trkpt lat="43.7648687" lon="12.7705397"><ele>400.59999999999997</ele><time>2026-03-22T11:30:56.705Z</time></trkpt><trkpt lat="43.764824" lon="12.7706423"><ele>399.79999999999995</ele><time>2026-03-22T11:30:57.713Z</time></trkpt><trkpt lat="43.7648074" lon="12.7707987"><ele>399.0</ele><time>2026-03-22T11:30:58.715Z</time></trkpt><trkpt lat="43.764811" lon="12.7709741"><ele>398.5</ele><time>2026-03-22T11:30:59.714Z</time></trkpt><trkpt lat="43.7648568" lon="12.7711494"><ele>398.0</ele><time>2026-03-22T11:31:00.709Z</time></trkpt><trkpt lat="43.7649232" lon="12.7713111"><ele>397.5</ele><time>2026-03-22T11:31:01.711Z</time></trkpt><trkpt lat="43.7649842" lon="12.7714792"><ele>397.0</ele><time>2026-03-22T11:31:02.708Z</time></trkpt><trkpt lat="43.7650459" lon="12.7716278"><ele>397.0</ele><time>2026-03-22T11:31:03.707Z</time></trkpt><trkpt lat="43.7651011" lon="12.7717767"><ele>397.0</ele><time>2026-03-22T11:31:04.701Z</time></trkpt><trkpt lat="43.7651528" lon="12.7719263"><ele>397.0</ele><time>2026-03-22T11:31:05.716Z</time></trkpt><trkpt lat="43.7651893" lon="12.7720716"><ele>397.0</ele><time>2026-03-22T11:31:06.708Z</time></trkpt><trkpt lat="43.7652157" lon="12.7722141"><ele>396.00000000000006</ele><time>2026-03-22T11:31:07.703Z</time></trkpt><trkpt lat="43.7652438" lon="12.7723452"><ele>395.0</ele><time>2026-03-22T11:31:08.708Z</time></trkpt><trkpt lat="43.7652636" lon="12.7724563"><ele>394.0</ele><time>2026-03-22T11:31:09.712Z</time></trkpt><trkpt lat="43.7652471" lon="12.7725594"><ele>393.0</ele><time>2026-03-22T11:31:10.714Z</time></trkpt><trkpt lat="43.7652245" lon="12.7726478"><ele>392.00000000000006</ele><time>2026-03-22T11:31:11.7Z</time></trkpt><trkpt lat="43.7652209" lon="12.7727379"><ele>391.0</ele><time>2026-03-22T11:31:12.71Z</time></trkpt><trkpt lat="43.7652816" lon="12.7728583"><ele>388.6</ele><time>2026-03-22T11:31:14.697Z</time></trkpt><trkpt lat="43.7653348" lon="12.7729169"><ele>386.20000000000005</ele><time>2026-03-22T11:31:15.695Z</time></trkpt><trkpt lat="43.7653689" lon="12.7730812"><ele>383.79999999999995</ele><time>2026-03-22T11:31:17.705Z</time></trkpt><trkpt lat="43.7653542" lon="12.7731764"><ele>381.4</ele><time>2026-03-22T11:31:18.695Z</time></trkpt><trkpt lat="43.7653414" lon="12.7733048"><ele>379.0</ele><time>2026-03-22T11:31:19.698Z</time></trkpt><trkpt lat="43.7653249" lon="12.773435"><ele>377.2</ele><time>2026-03-22T11:31:20.703Z</time></trkpt><trkpt lat="43.7652934" lon="12.7735844"><ele>375.4</ele><time>2026-03-22T11:31:21.702Z</time></trkpt><trkpt lat="43.7652927" lon="12.7737541"><ele>373.6</ele><time>2026-03-22T11:31:22.687Z</time></trkpt><trkpt lat="43.7652537" lon="12.7738835"><ele>371.8</ele><time>2026-03-22T11:31:23.703Z</time></trkpt><trkpt lat="43.7652021" lon="12.7740078"><ele>370.0</ele><time>2026-03-22T11:31:24.697Z</time></trkpt><trkpt lat="43.7651359" lon="12.7741505"><ele>378.66666666666663</ele><time>2026-03-22T11:31:25.699Z</time></trkpt><trkpt lat="43.7650808" lon="12.7743151"><ele>387.3333333333333</ele><time>2026-03-22T11:31:26.691Z</time></trkpt><trkpt lat="43.7649988" lon="12.7745026"><ele>396.0</ele><time>2026-03-22T11:31:27.693Z</time></trkpt><trkpt lat="43.7649328" lon="12.7747097"><ele>396.0</ele><time>2026-03-22T11:31:28.693Z</time></trkpt><trkpt lat="43.7648588" lon="12.7749381"><ele>396.0</ele><time>2026-03-22T11:31:29.688Z</time></trkpt><trkpt lat="43.764801" lon="12.7751767"><ele>396.0</ele><time>2026-03-22T11:31:30.691Z</time></trkpt><trkpt lat="43.7647667" lon="12.7754485"><ele>394.5</ele><time>2026-03-22T11:31:31.694Z</time></trkpt><trkpt lat="43.7647254" lon="12.7756843"><ele>393.0</ele><time>2026-03-22T11:31:32.695Z</time></trkpt><trkpt lat="43.7646725" lon="12.7758708"><ele>391.5</ele><time>2026-03-22T11:31:33.689Z</time></trkpt><trkpt lat="43.7646325" lon="12.7760395"><ele>390.0</ele><time>2026-03-22T11:31:34.705Z</time></trkpt><trkpt lat="43.7646169" lon="12.7762051"><ele>390.0</ele><time>2026-03-22T11:31:35.708Z</time></trkpt><trkpt lat="43.7646573" lon="12.7763784"><ele>390.0</ele><time>2026-03-22T11:31:36.699Z</time></trkpt><trkpt lat="43.7647175" lon="12.776538"><ele>390.0</ele><time>2026-03-22T11:31:37.714Z</time></trkpt><trkpt lat="43.7647759" lon="12.7766772"><ele>390.0</ele><time>2026-03-22T11:31:38.695Z</time></trkpt><trkpt lat="43.7648236" lon="12.7767953"><ele>389.75</ele><time>2026-03-22T11:31:39.703Z</time></trkpt><trkpt lat="43.7648569" lon="12.776952"><ele>389.5</ele><time>2026-03-22T11:31:40.7Z</time></trkpt><trkpt lat="43.7648562" lon="12.7771545"><ele>389.25</ele><time>2026-03-22T11:31:41.71Z</time></trkpt><trkpt lat="43.76484" lon="12.7773599"><ele>389.0</ele><time>2026-03-22T11:31:42.706Z</time></trkpt><trkpt lat="43.7648264" lon="12.7775668"><ele>387.66666666666663</ele><time>2026-03-22T11:31:43.713Z</time></trkpt><trkpt lat="43.7647961" lon="12.77777"><ele>386.33333333333337</ele><time>2026-03-22T11:31:44.699Z</time></trkpt><trkpt lat="43.7647577" lon="12.7779776"><ele>385.0</ele><time>2026-03-22T11:31:45.708Z</time></trkpt><trkpt lat="43.7647358" lon="12.7781827"><ele>385.0</ele><time>2026-03-22T11:31:46.704Z</time></trkpt><trkpt lat="43.764706" lon="12.778414"><ele>385.0</ele><time>2026-03-22T11:31:47.702Z</time></trkpt><trkpt lat="43.7647001" lon="12.7786059"><ele>385.0</ele><time>2026-03-22T11:31:48.706Z</time></trkpt><trkpt lat="43.7647257" lon="12.778782"><ele>385.0</ele><time>2026-03-22T11:31:49.702Z</time></trkpt><trkpt lat="43.7647704" lon="12.7789665"><ele>386.0</ele><time>2026-03-22T11:31:50.715Z</time></trkpt><trkpt lat="43.7648678" lon="12.7791108"><ele>387.0</ele><time>2026-03-22T11:31:51.713Z</time></trkpt><trkpt lat="43.7649939" lon="12.7792068"><ele>388.0</ele><time>2026-03-22T11:31:52.718Z</time></trkpt><trkpt lat="43.7651424" lon="12.7792412"><ele>389.0</ele><time>2026-03-22T11:31:53.704Z</time></trkpt><trkpt lat="43.7652915" lon="12.7792483"><ele>389.0</ele><time>2026-03-22T11:31:54.708Z</time></trkpt><trkpt lat="43.7654449" lon="12.7792541"><ele>389.0</ele><time>2026-03-22T11:31:55.702Z</time></trkpt><trkpt lat="43.765602" lon="12.7792508"><ele>389.0</ele><time>2026-03-22T11:31:56.698Z</time></trkpt><trkpt lat="43.7657667" lon="12.7792089"><ele>389.0</ele><time>2026-03-22T11:31:57.7Z</time></trkpt><trkpt lat="43.7659274" lon="12.7791556"><ele>389.0</ele><time>2026-03-22T11:31:58.697Z</time></trkpt><trkpt lat="43.766087" lon="12.7790824"><ele>389.0</ele><time>2026-03-22T11:31:59.703Z</time></trkpt><trkpt lat="43.766233" lon="12.7789962"><ele>389.0</ele><time>2026-03-22T11:32:00.709Z</time></trkpt><trkpt lat="43.7663778" lon="12.7788941"><ele>389.0</ele><time>2026-03-22T11:32:01.704Z</time></trkpt><trkpt lat="43.7665069" lon="12.7788112"><ele>389.0</ele><time>2026-03-22T11:32:02.699Z</time></trkpt><trkpt lat="43.7666284" lon="12.7787426"><ele>389.0</ele><time>2026-03-22T11:32:03.7Z</time></trkpt><trkpt lat="43.7667398" lon="12.7786811"><ele>388.0</ele><time>2026-03-22T11:32:04.702Z</time></trkpt><trkpt lat="43.766861" lon="12.7786406"><ele>387.0</ele><time>2026-03-22T11:32:05.709Z</time></trkpt><trkpt lat="43.7669963" lon="12.778627"><ele>386.0</ele><time>2026-03-22T11:32:06.699Z</time></trkpt><trkpt lat="43.7671298" lon="12.7786483"><ele>385.0</ele><time>2026-03-22T11:32:07.69Z</time></trkpt><trkpt lat="43.7672901" lon="12.7786453"><ele>385.0</ele><time>2026-03-22T11:32:08.697Z</time></trkpt><trkpt lat="43.7674453" lon="12.7786483"><ele>385.0</ele><time>2026-03-22T11:32:09.699Z</time></trkpt><trkpt lat="43.7676021" lon="12.7786466"><ele>385.0</ele><time>2026-03-22T11:32:10.702Z</time></trkpt><trkpt lat="43.7677549" lon="12.77865"><ele>384.25</ele><time>2026-03-22T11:32:11.695Z</time></trkpt><trkpt lat="43.7678915" lon="12.7786869"><ele>383.5</ele><time>2026-03-22T11:32:12.705Z</time></trkpt><trkpt lat="43.7680048" lon="12.7787711"><ele>382.75</ele><time>2026-03-22T11:32:13.694Z</time></trkpt><trkpt lat="43.7681187" lon="12.7788883"><ele>382.0</ele><time>2026-03-22T11:32:14.708Z</time></trkpt><trkpt lat="43.7682298" lon="12.7790138"><ele>382.0</ele><time>2026-03-22T11:32:15.705Z</time></trkpt><trkpt lat="43.7683804" lon="12.7790702"><ele>382.0</ele><time>2026-03-22T11:32:16.699Z</time></trkpt><trkpt lat="43.7685415" lon="12.7791116"><ele>382.0</ele><time>2026-03-22T11:32:17.703Z</time></trkpt><trkpt lat="43.7687375" lon="12.7791012"><ele>382.3333333333333</ele><time>2026-03-22T11:32:18.7Z</time></trkpt><trkpt lat="43.7689126" lon="12.7790566"><ele>382.6666666666667</ele><time>2026-03-22T11:32:19.691Z</time></trkpt><trkpt lat="43.7690659" lon="12.7789979"><ele>383.0</ele><time>2026-03-22T11:32:20.695Z</time></trkpt><trkpt lat="43.7692133" lon="12.7789421"><ele>383.0</ele><time>2026-03-22T11:32:21.696Z</time></trkpt><trkpt lat="43.7693459" lon="12.7788799"><ele>383.0</ele><time>2026-03-22T11:32:22.687Z</time></trkpt><trkpt lat="43.7694817" lon="12.7787996"><ele>383.0</ele><time>2026-03-22T11:32:23.697Z</time></trkpt><trkpt lat="43.7696188" lon="12.77873"><ele>383.0</ele><time>2026-03-22T11:32:24.691Z</time></trkpt><trkpt lat="43.7697451" lon="12.7786396"><ele>383.0</ele><time>2026-03-22T11:32:25.693Z</time></trkpt><trkpt lat="43.7698563" lon="12.7785441"><ele>383.0</ele><time>2026-03-22T11:32:26.693Z</time></trkpt><trkpt lat="43.7699883" lon="12.778476"><ele>383.0</ele><time>2026-03-22T11:32:27.711Z</time></trkpt><trkpt lat="43.7701095" lon="12.7784652"><ele>383.0</ele><time>2026-03-22T11:32:28.703Z</time></trkpt><trkpt lat="43.7702308" lon="12.7784829"><ele>379.5</ele><time>2026-03-22T11:32:29.716Z</time></trkpt><trkpt lat="43.7703597" lon="12.778565"><ele>376.0</ele><time>2026-03-22T11:32:30.714Z</time></trkpt><trkpt lat="43.7704711" lon="12.7787314"><ele>372.5</ele><time>2026-03-22T11:32:31.703Z</time></trkpt><trkpt lat="43.7705469" lon="12.7788871"><ele>369.0</ele><time>2026-03-22T11:32:32.692Z</time></trkpt><trkpt lat="43.7706114" lon="12.7790557"><ele>369.0</ele><time>2026-03-22T11:32:33.693Z</time></trkpt><trkpt lat="43.7706791" lon="12.7792176"><ele>369.0</ele><time>2026-03-22T11:32:34.702Z</time></trkpt><trkpt lat="43.7707635" lon="12.7794012"><ele>369.0</ele><time>2026-03-22T11:32:35.701Z</time></trkpt><trkpt lat="43.7708821" lon="12.7795632"><ele>369.3333333333333</ele><time>2026-03-22T11:32:36.703Z</time></trkpt><trkpt lat="43.7710175" lon="12.7796816"><ele>369.66666666666663</ele><time>2026-03-22T11:32:37.694Z</time></trkpt><trkpt lat="43.7711509" lon="12.7797653"><ele>370.0</ele><time>2026-03-22T11:32:38.699Z</time></trkpt><trkpt lat="43.7713114" lon="12.7798207"><ele>370.0</ele><time>2026-03-22T11:32:39.703Z</time></trkpt><trkpt lat="43.771477" lon="12.7798682"><ele>370.0</ele><time>2026-03-22T11:32:40.709Z</time></trkpt><trkpt lat="43.771641" lon="12.7799402"><ele>370.0</ele><time>2026-03-22T11:32:41.704Z</time></trkpt><trkpt lat="43.7717839" lon="12.780033"><ele>368.66666666666663</ele><time>2026-03-22T11:32:42.704Z</time></trkpt><trkpt lat="43.7719265" lon="12.7801545"><ele>367.3333333333333</ele><time>2026-03-22T11:32:43.715Z</time></trkpt><trkpt lat="43.7720609" lon="12.7802897"><ele>366.0</ele><time>2026-03-22T11:32:44.71Z</time></trkpt><trkpt lat="43.7721934" lon="12.7804251"><ele>366.0</ele><time>2026-03-22T11:32:45.724Z</time></trkpt><trkpt lat="43.7722993" lon="12.7805316"><ele>366.0</ele><time>2026-03-22T11:32:46.706Z</time></trkpt><trkpt lat="43.7724002" lon="12.7806732"><ele>366.0</ele><time>2026-03-22T11:32:47.718Z</time></trkpt><trkpt lat="43.7724896" lon="12.7808086"><ele>366.0</ele><time>2026-03-22T11:32:48.711Z</time></trkpt><trkpt lat="43.7725309" lon="12.7809943"><ele>363.75</ele><time>2026-03-22T11:32:49.704Z</time></trkpt><trkpt lat="43.7725665" lon="12.7811702"><ele>361.5</ele><time>2026-03-22T11:32:50.705Z</time></trkpt><trkpt lat="43.7726124" lon="12.7813637"><ele>359.25</ele><time>2026-03-22T11:32:51.709Z</time></trkpt><trkpt lat="43.7726701" lon="12.7815381"><ele>357.0</ele><time>2026-03-22T11:32:52.7Z</time></trkpt><trkpt lat="43.7727306" lon="12.7816728"><ele>356.75</ele><time>2026-03-22T11:32:53.701Z</time></trkpt><trkpt lat="43.7728043" lon="12.7817606"><ele>356.5</ele><time>2026-03-22T11:32:54.731Z</time></trkpt><trkpt lat="43.7729159" lon="12.7818243"><ele>356.25</ele><time>2026-03-22T11:32:55.714Z</time></trkpt><trkpt lat="43.7730389" lon="12.781865"><ele>356.0</ele><time>2026-03-22T11:32:56.71Z</time></trkpt><trkpt lat="43.7731652" lon="12.7818696"><ele>354.0</ele><time>2026-03-22T11:32:57.713Z</time></trkpt><trkpt lat="43.7732949" lon="12.7818682"><ele>352.0</ele><time>2026-03-22T11:32:58.709Z</time></trkpt><trkpt lat="43.773429" lon="12.7818603"><ele>350.0</ele><time>2026-03-22T11:32:59.706Z</time></trkpt><trkpt lat="43.7735578" lon="12.7818754"><ele>348.0</ele><time>2026-03-22T11:33:00.708Z</time></trkpt><trkpt lat="43.7736705" lon="12.7819221"><ele>348.0</ele><time>2026-03-22T11:33:01.712Z</time></trkpt><trkpt lat="43.7737878" lon="12.7820197"><ele>348.0</ele><time>2026-03-22T11:33:02.712Z</time></trkpt><trkpt lat="43.7738787" lon="12.7821718"><ele>348.0</ele><time>2026-03-22T11:33:03.719Z</time></trkpt><trkpt lat="43.7739421" lon="12.7823572"><ele>348.0</ele><time>2026-03-22T11:33:04.703Z</time></trkpt><trkpt lat="43.7739882" lon="12.7825527"><ele>350.0</ele><time>2026-03-22T11:33:05.711Z</time></trkpt><trkpt lat="43.7740537" lon="12.7827007"><ele>352.0</ele><time>2026-03-22T11:33:06.704Z</time></trkpt><trkpt lat="43.7741469" lon="12.7827933"><ele>354.0</ele><time>2026-03-22T11:33:07.715Z</time></trkpt><trkpt lat="43.7742571" lon="12.7828427"><ele>356.0</ele><time>2026-03-22T11:33:08.717Z</time></trkpt><trkpt lat="43.7743895" lon="12.7828748"><ele>356.0</ele><time>2026-03-22T11:33:09.706Z</time></trkpt><trkpt lat="43.7745226" lon="12.7829304"><ele>356.0</ele><time>2026-03-22T11:33:10.717Z</time></trkpt><trkpt lat="43.7746394" lon="12.7830313"><ele>356.0</ele><time>2026-03-22T11:33:11.72Z</time></trkpt><trkpt lat="43.7747365" lon="12.783169"><ele>356.0</ele><time>2026-03-22T11:33:12.72Z</time></trkpt><trkpt lat="43.7747771" lon="12.7833653"><ele>356.0</ele><time>2026-03-22T11:33:13.718Z</time></trkpt><trkpt lat="43.7748217" lon="12.7835024"><ele>356.0</ele><time>2026-03-22T11:33:14.719Z</time></trkpt><trkpt lat="43.7748905" lon="12.7835943"><ele>356.0</ele><time>2026-03-22T11:33:15.717Z</time></trkpt><trkpt lat="43.774978" lon="12.7835994"><ele>356.0</ele><time>2026-03-22T11:33:16.723Z</time></trkpt><trkpt lat="43.7750718" lon="12.7835417"><ele>356.0</ele><time>2026-03-22T11:33:17.704Z</time></trkpt><trkpt lat="43.7751579" lon="12.783462"><ele>358.4</ele><time>2026-03-22T11:33:18.715Z</time></trkpt><trkpt lat="43.7752291" lon="12.7833715"><ele>360.8</ele><time>2026-03-22T11:33:19.711Z</time></trkpt><trkpt lat="43.7753043" lon="12.7833275"><ele>363.2</ele><time>2026-03-22T11:33:20.715Z</time></trkpt><trkpt lat="43.7753854" lon="12.7833436"><ele>365.59999999999997</ele><time>2026-03-22T11:33:21.714Z</time></trkpt><trkpt lat="43.7754399" lon="12.7834345"><ele>368.0</ele><time>2026-03-22T11:33:22.711Z</time></trkpt><trkpt lat="43.7754688" lon="12.7835835"><ele>369.75</ele><time>2026-03-22T11:33:23.72Z</time></trkpt><trkpt lat="43.7754884" lon="12.7837486"><ele>371.5</ele><time>2026-03-22T11:33:24.713Z</time></trkpt><trkpt lat="43.7755046" lon="12.7839197"><ele>373.25</ele><time>2026-03-22T11:33:25.708Z</time></trkpt><trkpt lat="43.7755497" lon="12.7840691"><ele>375.0</ele><time>2026-03-22T11:33:26.714Z</time></trkpt><trkpt lat="43.7756251" lon="12.784203"><ele>375.0</ele><time>2026-03-22T11:33:27.711Z</time></trkpt><trkpt lat="43.7757064" lon="12.7843032"><ele>375.0</ele><time>2026-03-22T11:33:28.714Z</time></trkpt><trkpt lat="43.7757792" lon="12.7843822"><ele>375.0</ele><time>2026-03-22T11:33:29.708Z</time></trkpt><trkpt lat="43.7758436" lon="12.7844586"><ele>375.0</ele><time>2026-03-22T11:33:30.711Z</time></trkpt><trkpt lat="43.7758918" lon="12.7845564"><ele>375.0</ele><time>2026-03-22T11:33:31.715Z</time></trkpt><trkpt lat="43.7759247" lon="12.7846899"><ele>375.4</ele><time>2026-03-22T11:33:32.71Z</time></trkpt><trkpt lat="43.7759478" lon="12.7848472"><ele>375.8</ele><time>2026-03-22T11:33:33.705Z</time></trkpt><trkpt lat="43.7759718" lon="12.7849998"><ele>376.20000000000005</ele><time>2026-03-22T11:33:34.707Z</time></trkpt><trkpt lat="43.7759925" lon="12.7851426"><ele>376.6</ele><time>2026-03-22T11:33:35.707Z</time></trkpt><trkpt lat="43.7760101" lon="12.7852585"><ele>377.0</ele><time>2026-03-22T11:33:36.706Z</time></trkpt><trkpt lat="43.7760318" lon="12.7853595"><ele>379.5</ele><time>2026-03-22T11:33:37.691Z</time></trkpt><trkpt lat="43.7760372" lon="12.785469"><ele>382.0</ele><time>2026-03-22T11:33:38.7Z</time></trkpt><trkpt lat="43.7760324" lon="12.7855809"><ele>384.5</ele><time>2026-03-22T11:33:39.698Z</time></trkpt><trkpt lat="43.776084" lon="12.7857351"><ele>387.0</ele><time>2026-03-22T11:33:41.698Z</time></trkpt><trkpt lat="43.7761471" lon="12.785766"><ele>389.49999999999994</ele><time>2026-03-22T11:33:42.699Z</time></trkpt><trkpt lat="43.7762271" lon="12.7857763"><ele>392.0</ele><time>2026-03-22T11:33:43.698Z</time></trkpt><trkpt lat="43.7763121" lon="12.7857824"><ele>391.99999999999994</ele><time>2026-03-22T11:33:44.694Z</time></trkpt><trkpt lat="43.7763878" lon="12.7858029"><ele>392.0</ele><time>2026-03-22T11:33:45.691Z</time></trkpt><trkpt lat="43.7764659" lon="12.7858465"><ele>392.0</ele><time>2026-03-22T11:33:46.697Z</time></trkpt><trkpt lat="43.7765345" lon="12.7859074"><ele>392.0</ele><time>2026-03-22T11:33:47.707Z</time></trkpt><trkpt lat="43.7765892" lon="12.7859981"><ele>391.99999999999994</ele><time>2026-03-22T11:33:48.706Z</time></trkpt><trkpt lat="43.776638" lon="12.7861131"><ele>392.0</ele><time>2026-03-22T11:33:49.704Z</time></trkpt><trkpt lat="43.7766561" lon="12.786225"><ele>393.16666666666663</ele><time>2026-03-22T11:33:50.699Z</time></trkpt><trkpt lat="43.776657" lon="12.7863569"><ele>394.3333333333333</ele><time>2026-03-22T11:33:51.706Z</time></trkpt><trkpt lat="43.7766214" lon="12.786478"><ele>395.5</ele><time>2026-03-22T11:33:52.697Z</time></trkpt><trkpt lat="43.7765679" lon="12.7865692"><ele>396.66666666666663</ele><time>2026-03-22T11:33:53.701Z</time></trkpt><trkpt lat="43.7765124" lon="12.786664"><ele>397.8333333333333</ele><time>2026-03-22T11:33:54.689Z</time></trkpt><trkpt lat="43.77646" lon="12.7867519"><ele>399.0</ele><time>2026-03-22T11:33:55.701Z</time></trkpt><trkpt lat="43.7763989" lon="12.7868104"><ele>399.79999999999995</ele><time>2026-03-22T11:33:56.688Z</time></trkpt><trkpt lat="43.7763297" lon="12.7868758"><ele>400.59999999999997</ele><time>2026-03-22T11:33:57.682Z</time></trkpt><trkpt lat="43.7762446" lon="12.7869339"><ele>401.4</ele><time>2026-03-22T11:33:58.697Z</time></trkpt><trkpt lat="43.7761511" lon="12.7869726"><ele>402.2</ele><time>2026-03-22T11:33:59.695Z</time></trkpt><trkpt lat="43.776042" lon="12.787026"><ele>403.0</ele><time>2026-03-22T11:34:00.7Z</time></trkpt><trkpt lat="43.7759376" lon="12.7870739"><ele>403.0</ele><time>2026-03-22T11:34:01.688Z</time></trkpt><trkpt lat="43.7758435" lon="12.7871126"><ele>403.0</ele><time>2026-03-22T11:34:02.699Z</time></trkpt><trkpt lat="43.7757583" lon="12.7871513"><ele>403.0</ele><time>2026-03-22T11:34:03.704Z</time></trkpt><trkpt lat="43.7756744" lon="12.7872259"><ele>403.0</ele><time>2026-03-22T11:34:05.719Z</time></trkpt><trkpt lat="43.7757811" lon="12.7872792"><ele>403.0</ele><time>2026-03-22T11:34:08.707Z</time></trkpt><trkpt lat="43.7758539" lon="12.7872769"><ele>403.00000000000006</ele><time>2026-03-22T11:34:09.702Z</time></trkpt><trkpt lat="43.7759249" lon="12.7872712"><ele>403.0</ele><time>2026-03-22T11:34:10.713Z</time></trkpt><trkpt lat="43.7760013" lon="12.7872825"><ele>403.0</ele><time>2026-03-22T11:34:11.715Z</time></trkpt><trkpt lat="43.7760879" lon="12.7873318"><ele>403.0</ele><time>2026-03-22T11:34:12.714Z</time></trkpt><trkpt lat="43.7761736" lon="12.7873842"><ele>403.00000000000006</ele><time>2026-03-22T11:34:13.713Z</time></trkpt><trkpt lat="43.776269" lon="12.7874413"><ele>403.0</ele><time>2026-03-22T11:34:14.711Z</time></trkpt><trkpt lat="43.7763636" lon="12.787492"><ele>404.79999999999995</ele><time>2026-03-22T11:34:15.714Z</time></trkpt><trkpt lat="43.776452" lon="12.7875193"><ele>406.6</ele><time>2026-03-22T11:34:16.715Z</time></trkpt><trkpt lat="43.776555" lon="12.7874882"><ele>408.4</ele><time>2026-03-22T11:34:17.707Z</time></trkpt><trkpt lat="43.7766567" lon="12.7874283"><ele>410.20000000000005</ele><time>2026-03-22T11:34:18.705Z</time></trkpt><trkpt lat="43.7767594" lon="12.7873734"><ele>412.0</ele><time>2026-03-22T11:34:19.699Z</time></trkpt><trkpt lat="43.776867" lon="12.7873029"><ele>415.0</ele><time>2026-03-22T11:34:20.698Z</time></trkpt><trkpt lat="43.7769799" lon="12.7872277"><ele>418.0</ele><time>2026-03-22T11:34:21.694Z</time></trkpt><trkpt lat="43.7771029" lon="12.7871493"><ele>421.0</ele><time>2026-03-22T11:34:22.69Z</time></trkpt><trkpt lat="43.7772362" lon="12.7870832"><ele>424.0</ele><time>2026-03-22T11:34:23.687Z</time></trkpt><trkpt lat="43.7773679" lon="12.7870132"><ele>424.0</ele><time>2026-03-22T11:34:24.679Z</time></trkpt><trkpt lat="43.7774938" lon="12.786944"><ele>424.0</ele><time>2026-03-22T11:34:25.691Z</time></trkpt><trkpt lat="43.7776162" lon="12.78688"><ele>424.0</ele><time>2026-03-22T11:34:26.709Z</time></trkpt><trkpt lat="43.7777277" lon="12.7868111"><ele>424.0</ele><time>2026-03-22T11:34:27.696Z</time></trkpt><trkpt lat="43.7778312" lon="12.7867494"><ele>424.50000000000006</ele><time>2026-03-22T11:34:28.703Z</time></trkpt><trkpt lat="43.7779345" lon="12.7866906"><ele>425.0</ele><time>2026-03-22T11:34:29.703Z</time></trkpt><trkpt lat="43.7780284" lon="12.7866549"><ele>425.5</ele><time>2026-03-22T11:34:30.701Z</time></trkpt><trkpt lat="43.7781008" lon="12.7866553"><ele>426.0</ele><time>2026-03-22T11:34:31.705Z</time></trkpt><trkpt lat="43.7781684" lon="12.7866898"><ele>426.50000000000006</ele><time>2026-03-22T11:34:32.707Z</time></trkpt><trkpt lat="43.7782333" lon="12.7867638"><ele>427.0</ele><time>2026-03-22T11:34:33.71Z</time></trkpt><trkpt lat="43.7783028" lon="12.7868584"><ele>427.0</ele><time>2026-03-22T11:34:34.71Z</time></trkpt><trkpt lat="43.7783763" lon="12.7869667"><ele>427.00000000000006</ele><time>2026-03-22T11:34:35.709Z</time></trkpt><trkpt lat="43.7784466" lon="12.7870874"><ele>427.00000000000006</ele><time>2026-03-22T11:34:36.705Z</time></trkpt><trkpt lat="43.7785021" lon="12.787204"><ele>427.0</ele><time>2026-03-22T11:34:37.715Z</time></trkpt><trkpt lat="43.7785216" lon="12.7873032"><ele>427.0</ele><time>2026-03-22T11:34:38.715Z</time></trkpt><trkpt lat="43.7785207" lon="12.7873939"><ele>427.00000000000006</ele><time>2026-03-22T11:34:39.717Z</time></trkpt><trkpt lat="43.7784882" lon="12.7874772"><ele>427.0</ele><time>2026-03-22T11:34:40.718Z</time></trkpt><trkpt lat="43.7784321" lon="12.7875548"><ele>427.0</ele><time>2026-03-22T11:34:41.699Z</time></trkpt><trkpt lat="43.7783653" lon="12.7876263"><ele>427.0</ele><time>2026-03-22T11:34:42.703Z</time></trkpt><trkpt lat="43.7782977" lon="12.7877042"><ele>427.00000000000006</ele><time>2026-03-22T11:34:43.71Z</time></trkpt><trkpt lat="43.7782138" lon="12.7877941"><ele>427.0</ele><time>2026-03-22T11:34:44.705Z</time></trkpt><trkpt lat="43.7781473" lon="12.7878872"><ele>428.8</ele><time>2026-03-22T11:34:45.708Z</time></trkpt><trkpt lat="43.7780813" lon="12.7879755"><ele>430.6</ele><time>2026-03-22T11:34:46.704Z</time></trkpt><trkpt lat="43.7780136" lon="12.7880791"><ele>432.40000000000003</ele><time>2026-03-22T11:34:47.705Z</time></trkpt><trkpt lat="43.7779471" lon="12.788199"><ele>434.20000000000005</ele><time>2026-03-22T11:34:48.697Z</time></trkpt><trkpt lat="43.7778768" lon="12.7883043"><ele>436.0</ele><time>2026-03-22T11:34:49.738Z</time></trkpt><trkpt lat="43.7778037" lon="12.7884166"><ele>436.00000000000006</ele><time>2026-03-22T11:34:50.711Z</time></trkpt><trkpt lat="43.7777434" lon="12.7884917"><ele>436.0</ele><time>2026-03-22T11:34:51.7Z</time></trkpt><trkpt lat="43.7776954" lon="12.7885553"><ele>436.0</ele><time>2026-03-22T11:34:52.701Z</time></trkpt><trkpt lat="43.7776323" lon="12.788692"><ele>436.0</ele><time>2026-03-22T11:34:54.706Z</time></trkpt><trkpt lat="43.7776313" lon="12.7887885"><ele>436.00000000000006</ele><time>2026-03-22T11:34:55.7Z</time></trkpt><trkpt lat="43.777672" lon="12.7888759"><ele>436.0</ele><time>2026-03-22T11:34:56.702Z</time></trkpt><trkpt lat="43.7777462" lon="12.7889665"><ele>437.0</ele><time>2026-03-22T11:34:57.721Z</time></trkpt><trkpt lat="43.777842" lon="12.7890455"><ele>438.0</ele><time>2026-03-22T11:34:58.709Z</time></trkpt><trkpt lat="43.7779519" lon="12.7891216"><ele>439.0</ele><time>2026-03-22T11:34:59.696Z</time></trkpt><trkpt lat="43.7781045" lon="12.789208"><ele>440.0</ele><time>2026-03-22T11:35:00.705Z</time></trkpt><trkpt lat="43.7782679" lon="12.7892936"><ele>439.0</ele><time>2026-03-22T11:35:01.704Z</time></trkpt><trkpt lat="43.7784079" lon="12.7893625"><ele>438.0</ele><time>2026-03-22T11:35:02.71Z</time></trkpt><trkpt lat="43.7785319" lon="12.7894318"><ele>437.0</ele><time>2026-03-22T11:35:03.701Z</time></trkpt><trkpt lat="43.778656" lon="12.78951"><ele>436.0</ele><time>2026-03-22T11:35:04.691Z</time></trkpt><trkpt lat="43.7787992" lon="12.7895707"><ele>436.0</ele><time>2026-03-22T11:35:05.71Z</time></trkpt><trkpt lat="43.7789503" lon="12.7896292"><ele>436.0</ele><time>2026-03-22T11:35:06.711Z</time></trkpt><trkpt lat="43.7791135" lon="12.7896682"><ele>436.0</ele><time>2026-03-22T11:35:07.706Z</time></trkpt><trkpt lat="43.7792944" lon="12.7897236"><ele>439.5</ele><time>2026-03-22T11:35:08.711Z</time></trkpt><trkpt lat="43.7794658" lon="12.7897659"><ele>443.0</ele><time>2026-03-22T11:35:09.707Z</time></trkpt><trkpt lat="43.7796047" lon="12.789792"><ele>446.5</ele><time>2026-03-22T11:35:10.706Z</time></trkpt><trkpt lat="43.7797266" lon="12.7898397"><ele>450.0</ele><time>2026-03-22T11:35:11.71Z</time></trkpt><trkpt lat="43.7798402" lon="12.7899035"><ele>450.0</ele><time>2026-03-22T11:35:12.716Z</time></trkpt><trkpt lat="43.7799353" lon="12.7899795"><ele>450.0</ele><time>2026-03-22T11:35:13.707Z</time></trkpt><trkpt lat="43.7800269" lon="12.7900803"><ele>450.0</ele><time>2026-03-22T11:35:14.721Z</time></trkpt><trkpt lat="43.7800929" lon="12.7901536"><ele>450.0</ele><time>2026-03-22T11:35:15.712Z</time></trkpt><trkpt lat="43.7801546" lon="12.7902541"><ele>450.0</ele><time>2026-03-22T11:35:16.7Z</time></trkpt><trkpt lat="43.7802449" lon="12.7903285"><ele>452.5</ele><time>2026-03-22T11:35:17.694Z</time></trkpt><trkpt lat="43.7803348" lon="12.7903696"><ele>455.0</ele><time>2026-03-22T11:35:18.695Z</time></trkpt><trkpt lat="43.7804233" lon="12.790395"><ele>457.5</ele><time>2026-03-22T11:35:19.713Z</time></trkpt><trkpt lat="43.7805016" lon="12.7904247"><ele>460.0</ele><time>2026-03-22T11:35:20.707Z</time></trkpt><trkpt lat="43.7805666" lon="12.7904395"><ele>462.5</ele><time>2026-03-22T11:35:21.714Z</time></trkpt><trkpt lat="43.7806633" lon="12.7905178"><ele>465.0</ele><time>2026-03-22T11:35:23.703Z</time></trkpt><trkpt lat="43.7807468" lon="12.7906298"><ele>465.0</ele><time>2026-03-22T11:35:25.707Z</time></trkpt><trkpt lat="43.7807908" lon="12.7907042"><ele>465.0</ele><time>2026-03-22T11:35:26.713Z</time></trkpt><trkpt lat="43.7808356" lon="12.7907968"><ele>465.0</ele><time>2026-03-22T11:35:27.71Z</time></trkpt><trkpt lat="43.7808912" lon="12.7909014"><ele>465.0</ele><time>2026-03-22T11:35:28.721Z</time></trkpt><trkpt lat="43.780939" lon="12.7909602"><ele>465.0</ele><time>2026-03-22T11:35:29.701Z</time></trkpt><trkpt lat="43.7810571" lon="12.7909101"><ele>465.0</ele><time>2026-03-22T11:35:31.699Z</time></trkpt><trkpt lat="43.7810996" lon="12.7908407"><ele>464.8</ele><time>2026-03-22T11:35:32.7Z</time></trkpt><trkpt lat="43.7811665" lon="12.7908148"><ele>464.6</ele><time>2026-03-22T11:35:34.705Z</time></trkpt><trkpt lat="43.7812553" lon="12.7909417"><ele>464.4</ele><time>2026-03-22T11:35:36.705Z</time></trkpt><trkpt lat="43.7813168" lon="12.7910438"><ele>464.2</ele><time>2026-03-22T11:35:37.704Z</time></trkpt><trkpt lat="43.781392" lon="12.7911266"><ele>464.0</ele><time>2026-03-22T11:35:38.709Z</time></trkpt><trkpt lat="43.7814782" lon="12.7912157"><ele>465.25</ele><time>2026-03-22T11:35:39.7Z</time></trkpt><trkpt lat="43.7815762" lon="12.7913146"><ele>466.5</ele><time>2026-03-22T11:35:40.703Z</time></trkpt><trkpt lat="43.7816759" lon="12.7914153"><ele>467.75</ele><time>2026-03-22T11:35:41.71Z</time></trkpt><trkpt lat="43.7817753" lon="12.7914996"><ele>469.0</ele><time>2026-03-22T11:35:42.715Z</time></trkpt><trkpt lat="43.7818702" lon="12.7915719"><ele>469.00000000000006</ele><time>2026-03-22T11:35:43.715Z</time></trkpt><trkpt lat="43.7819276" lon="12.7916238"><ele>469.0</ele><time>2026-03-22T11:35:44.709Z</time></trkpt><trkpt lat="43.7819115" lon="12.7917089"><ele>469.0</ele><time>2026-03-22T11:35:51.718Z</time></trkpt><trkpt lat="43.7818403" lon="12.7917331"><ele>469.0</ele><time>2026-03-22T11:36:02.697Z</time></trkpt><trkpt lat="43.7817802" lon="12.7918542"><ele>469.00000000000006</ele><time>2026-03-22T11:36:04.714Z</time></trkpt><trkpt lat="43.7817222" lon="12.7919785"><ele>469.0</ele><time>2026-03-22T11:36:05.706Z</time></trkpt><trkpt lat="43.7816822" lon="12.7920786"><ele>470.2</ele><time>2026-03-22T11:36:06.714Z</time></trkpt><trkpt lat="43.781644" lon="12.792159"><ele>471.4</ele><time>2026-03-22T11:36:08.716Z</time></trkpt><trkpt lat="43.7816014" lon="12.7922835"><ele>472.6</ele><time>2026-03-22T11:36:11.708Z</time></trkpt><trkpt lat="43.781569" lon="12.7924059"><ele>473.8</ele><time>2026-03-22T11:36:12.704Z</time></trkpt><trkpt lat="43.781541" lon="12.792551"><ele>475.0</ele><time>2026-03-22T11:36:13.701Z</time></trkpt><trkpt lat="43.7815229" lon="12.7926897"><ele>475.0</ele><time>2026-03-22T11:36:14.703Z</time></trkpt><trkpt lat="43.7815117" lon="12.7928033"><ele>475.0</ele><time>2026-03-22T11:36:15.7Z</time></trkpt><trkpt lat="43.7815006" lon="12.7928966"><ele>475.0</ele><time>2026-03-22T11:36:16.707Z</time></trkpt><trkpt lat="43.7814851" lon="12.793082"><ele>475.0</ele><time>2026-03-22T11:36:18.693Z</time></trkpt><trkpt lat="43.7814689" lon="12.7931967"><ele>475.0</ele><time>2026-03-22T11:36:19.706Z</time></trkpt><trkpt lat="43.7814445" lon="12.7933133"><ele>475.0</ele><time>2026-03-22T11:36:20.696Z</time></trkpt><trkpt lat="43.7814276" lon="12.7934421"><ele>475.0</ele><time>2026-03-22T11:36:21.716Z</time></trkpt><trkpt lat="43.7814313" lon="12.7935821"><ele>475.0</ele><time>2026-03-22T11:36:22.697Z</time></trkpt><trkpt lat="43.7814389" lon="12.7937259"><ele>475.0</ele><time>2026-03-22T11:36:23.694Z</time></trkpt><trkpt lat="43.7814552" lon="12.7938748"><ele>475.0</ele><time>2026-03-22T11:36:24.689Z</time></trkpt><trkpt lat="43.7814847" lon="12.7940184"><ele>473.50000000000006</ele><time>2026-03-22T11:36:25.689Z</time></trkpt><trkpt lat="43.7815106" lon="12.7941388"><ele>472.0</ele><time>2026-03-22T11:36:26.691Z</time></trkpt><trkpt lat="43.78153" lon="12.794228"><ele>470.5</ele><time>2026-03-22T11:36:27.696Z</time></trkpt><trkpt lat="43.7815326" lon="12.7943234"><ele>469.0</ele><time>2026-03-22T11:36:28.686Z</time></trkpt><trkpt lat="43.7815162" lon="12.7944122"><ele>467.50000000000006</ele><time>2026-03-22T11:36:29.682Z</time></trkpt><trkpt lat="43.7814979" lon="12.7945147"><ele>466.0</ele><time>2026-03-22T11:36:30.697Z</time></trkpt><trkpt lat="43.7814763" lon="12.7946352"><ele>464.25</ele><time>2026-03-22T11:36:31.688Z</time></trkpt><trkpt lat="43.7814457" lon="12.7947711"><ele>462.5</ele><time>2026-03-22T11:36:32.696Z</time></trkpt><trkpt lat="43.7814186" lon="12.7949286"><ele>460.75</ele><time>2026-03-22T11:36:33.693Z</time></trkpt><trkpt lat="43.7813954" lon="12.7950879"><ele>459.0</ele><time>2026-03-22T11:36:34.696Z</time></trkpt><trkpt lat="43.7813607" lon="12.7952546"><ele>458.5</ele><time>2026-03-22T11:36:35.689Z</time></trkpt><trkpt lat="43.7813255" lon="12.7954452"><ele>458.0</ele><time>2026-03-22T11:36:36.688Z</time></trkpt><trkpt lat="43.7812842" lon="12.7956312"><ele>457.5</ele><time>2026-03-22T11:36:37.698Z</time></trkpt><trkpt lat="43.7812381" lon="12.7958199"><ele>457.0</ele><time>2026-03-22T11:36:38.687Z</time></trkpt><trkpt lat="43.7811804" lon="12.7960317"><ele>457.0</ele><time>2026-03-22T11:36:39.683Z</time></trkpt><trkpt lat="43.7811336" lon="12.7962122"><ele>457.0</ele><time>2026-03-22T11:36:40.687Z</time></trkpt><trkpt lat="43.7810988" lon="12.7963668"><ele>457.0</ele><time>2026-03-22T11:36:41.687Z</time></trkpt><trkpt lat="43.7810745" lon="12.7965525"><ele>457.0</ele><time>2026-03-22T11:36:42.684Z</time></trkpt><trkpt lat="43.7810488" lon="12.7967109"><ele>458.0</ele><time>2026-03-22T11:36:43.687Z</time></trkpt><trkpt lat="43.7810498" lon="12.796873"><ele>459.0</ele><time>2026-03-22T11:36:44.696Z</time></trkpt><trkpt lat="43.7810463" lon="12.7970409"><ele>460.0</ele><time>2026-03-22T11:36:45.705Z</time></trkpt><trkpt lat="43.7810186" lon="12.7971943"><ele>461.0</ele><time>2026-03-22T11:36:46.709Z</time></trkpt><trkpt lat="43.7809764" lon="12.7973159"><ele>463.5</ele><time>2026-03-22T11:36:47.701Z</time></trkpt><trkpt lat="43.7809271" lon="12.7974948"><ele>466.0</ele><time>2026-03-22T11:36:48.702Z</time></trkpt><trkpt lat="43.7808979" lon="12.7976621"><ele>468.5</ele><time>2026-03-22T11:36:49.706Z</time></trkpt><trkpt lat="43.7808625" lon="12.7978084"><ele>471.0</ele><time>2026-03-22T11:36:50.707Z</time></trkpt><trkpt lat="43.7807865" lon="12.7979365"><ele>471.20000000000005</ele><time>2026-03-22T11:36:51.695Z</time></trkpt><trkpt lat="43.7806898" lon="12.7980468"><ele>471.40000000000003</ele><time>2026-03-22T11:36:52.718Z</time></trkpt><trkpt lat="43.7806008" lon="12.7981255"><ele>471.6</ele><time>2026-03-22T11:36:53.7Z</time></trkpt><trkpt lat="43.7805371" lon="12.7981877"><ele>471.8</ele><time>2026-03-22T11:36:54.71Z</time></trkpt><trkpt lat="43.780466" lon="12.7982318"><ele>472.0</ele><time>2026-03-22T11:36:56.715Z</time></trkpt><trkpt lat="43.7803997" lon="12.7982475"><ele>472.00000000000006</ele><time>2026-03-22T11:36:58.715Z</time></trkpt><trkpt lat="43.7803147" lon="12.798252"><ele>472.0</ele><time>2026-03-22T11:37:00.715Z</time></trkpt><trkpt lat="43.7802493" lon="12.7982223"><ele>472.0</ele><time>2026-03-22T11:37:01.719Z</time></trkpt><trkpt lat="43.7801463" lon="12.7981498"><ele>472.0</ele><time>2026-03-22T11:37:03.711Z</time></trkpt><trkpt lat="43.7800521" lon="12.7980674"><ele>472.00000000000006</ele><time>2026-03-22T11:37:05.714Z</time></trkpt><trkpt lat="43.7799862" lon="12.7980725"><ele>472.0</ele><time>2026-03-22T11:37:08.705Z</time></trkpt><trkpt lat="43.7798939" lon="12.7981074"><ele>468.5</ele><time>2026-03-22T11:37:11.702Z</time></trkpt><trkpt lat="43.7797794" lon="12.7980773"><ele>465.0</ele><time>2026-03-22T11:37:13.698Z</time></trkpt><trkpt lat="43.7796474" lon="12.7980422"><ele>461.5</ele><time>2026-03-22T11:37:15.716Z</time></trkpt><trkpt lat="43.7795407" lon="12.7980072"><ele>458.0</ele><time>2026-03-22T11:37:16.708Z</time></trkpt><trkpt lat="43.7794372" lon="12.7980081"><ele>456.4</ele><time>2026-03-22T11:37:17.704Z</time></trkpt><trkpt lat="43.7793485" lon="12.7980165"><ele>454.79999999999995</ele><time>2026-03-22T11:37:18.715Z</time></trkpt><trkpt lat="43.7792698" lon="12.7980462"><ele>453.2</ele><time>2026-03-22T11:37:19.706Z</time></trkpt><trkpt lat="43.7791796" lon="12.7980604"><ele>451.6</ele><time>2026-03-22T11:37:20.71Z</time></trkpt><trkpt lat="43.779089" lon="12.7980357"><ele>450.0</ele><time>2026-03-22T11:37:21.714Z</time></trkpt><trkpt lat="43.7789959" lon="12.7979828"><ele>450.0</ele><time>2026-03-22T11:37:22.709Z</time></trkpt><trkpt lat="43.7788983" lon="12.7979475"><ele>450.0</ele><time>2026-03-22T11:37:23.719Z</time></trkpt><trkpt lat="43.7788061" lon="12.7979056"><ele>450.0</ele><time>2026-03-22T11:37:24.702Z</time></trkpt><trkpt lat="43.7787209" lon="12.7978737"><ele>450.0</ele><time>2026-03-22T11:37:25.712Z</time></trkpt><trkpt lat="43.7786226" lon="12.7978921"><ele>450.0</ele><time>2026-03-22T11:37:27.714Z</time></trkpt><trkpt lat="43.7786558" lon="12.7980721"><ele>450.0</ele><time>2026-03-22T11:37:29.715Z</time></trkpt><trkpt lat="43.778714" lon="12.798188"><ele>450.0</ele><time>2026-03-22T11:37:30.699Z</time></trkpt><trkpt lat="43.7787765" lon="12.7982875"><ele>450.0</ele><time>2026-03-22T11:37:31.699Z</time></trkpt><trkpt lat="43.7788505" lon="12.7983902"><ele>450.0</ele><time>2026-03-22T11:37:32.726Z</time></trkpt><trkpt lat="43.7789448" lon="12.7984949"><ele>450.0</ele><time>2026-03-22T11:37:33.706Z</time></trkpt><trkpt lat="43.7790344" lon="12.798586"><ele>448.8</ele><time>2026-03-22T11:37:34.709Z</time></trkpt><trkpt lat="43.7791164" lon="12.7986661"><ele>447.6</ele><time>2026-03-22T11:37:35.714Z</time></trkpt><trkpt lat="43.7792176" lon="12.7987217"><ele>446.4</ele><time>2026-03-22T11:37:36.713Z</time></trkpt><trkpt lat="43.7793231" lon="12.7987585"><ele>445.2</ele><time>2026-03-22T11:37:37.704Z</time></trkpt><trkpt lat="43.779436" lon="12.7988163"><ele>444.0</ele><time>2026-03-22T11:37:38.702Z</time></trkpt><trkpt lat="43.779543" lon="12.7988836"><ele>444.0</ele><time>2026-03-22T11:37:39.712Z</time></trkpt><trkpt lat="43.7796364" lon="12.7989562"><ele>444.0</ele><time>2026-03-22T11:37:40.697Z</time></trkpt><trkpt lat="43.7797366" lon="12.7990215"><ele>444.0</ele><time>2026-03-22T11:37:41.703Z</time></trkpt><trkpt lat="43.7798422" lon="12.7990795"><ele>444.0</ele><time>2026-03-22T11:37:42.71Z</time></trkpt><trkpt lat="43.7799264" lon="12.7991588"><ele>444.0</ele><time>2026-03-22T11:37:43.713Z</time></trkpt><trkpt lat="43.7799913" lon="12.7992627"><ele>441.5</ele><time>2026-03-22T11:37:44.705Z</time></trkpt><trkpt lat="43.780034" lon="12.7993815"><ele>439.0</ele><time>2026-03-22T11:37:45.706Z</time></trkpt><trkpt lat="43.7800691" lon="12.7995442"><ele>436.5</ele><time>2026-03-22T11:37:46.697Z</time></trkpt><trkpt lat="43.7801031" lon="12.7997083"><ele>434.0</ele><time>2026-03-22T11:37:47.699Z</time></trkpt><trkpt lat="43.7801415" lon="12.7998696"><ele>435.3333333333333</ele><time>2026-03-22T11:37:48.708Z</time></trkpt><trkpt lat="43.7801892" lon="12.8000387"><ele>436.66666666666663</ele><time>2026-03-22T11:37:49.71Z</time></trkpt><trkpt lat="43.7802628" lon="12.8002538"><ele>438.0</ele><time>2026-03-22T11:37:50.708Z</time></trkpt><trkpt lat="43.7803156" lon="12.8004613"><ele>438.0</ele><time>2026-03-22T11:37:51.696Z</time></trkpt><trkpt lat="43.7803406" lon="12.8006246"><ele>437.99999999999994</ele><time>2026-03-22T11:37:52.694Z</time></trkpt><trkpt lat="43.7803962" lon="12.8007737"><ele>437.99999999999994</ele><time>2026-03-22T11:37:53.709Z</time></trkpt><trkpt lat="43.7804248" lon="12.8008926"><ele>438.0</ele><time>2026-03-22T11:37:54.703Z</time></trkpt><trkpt lat="43.7804425" lon="12.8009912"><ele>438.0</ele><time>2026-03-22T11:37:55.711Z</time></trkpt><trkpt lat="43.7804444" lon="12.8011489"><ele>434.5</ele><time>2026-03-22T11:37:57.716Z</time></trkpt><trkpt lat="43.780441" lon="12.8012817"><ele>431.0</ele><time>2026-03-22T11:37:59.707Z</time></trkpt><trkpt lat="43.7804624" lon="12.8014167"><ele>427.5</ele><time>2026-03-22T11:38:01.7Z</time></trkpt><trkpt lat="43.7805282" lon="12.8014891"><ele>424.0</ele><time>2026-03-22T11:38:03.707Z</time></trkpt><trkpt lat="43.7805949" lon="12.8014876"><ele>420.5</ele><time>2026-03-22T11:38:04.704Z</time></trkpt><trkpt lat="43.780692" lon="12.8014655"><ele>417.0</ele><time>2026-03-22T11:38:05.695Z</time></trkpt><trkpt lat="43.7807849" lon="12.8014271"><ele>417.0</ele><time>2026-03-22T11:38:06.693Z</time></trkpt><trkpt lat="43.7808707" lon="12.8013994"><ele>417.0</ele><time>2026-03-22T11:38:07.687Z</time></trkpt><trkpt lat="43.7809581" lon="12.8013678"><ele>417.0</ele><time>2026-03-22T11:38:08.689Z</time></trkpt><trkpt lat="43.7810385" lon="12.8013331"><ele>417.0</ele><time>2026-03-22T11:38:09.687Z</time></trkpt><trkpt lat="43.7811293" lon="12.8013033"><ele>417.0</ele><time>2026-03-22T11:38:10.695Z</time></trkpt><trkpt lat="43.7812172" lon="12.8012755"><ele>417.0</ele><time>2026-03-22T11:38:11.687Z</time></trkpt><trkpt lat="43.7813182" lon="12.8012547"><ele>413.20000000000005</ele><time>2026-03-22T11:38:12.697Z</time></trkpt><trkpt lat="43.7814278" lon="12.8012294"><ele>409.4</ele><time>2026-03-22T11:38:13.695Z</time></trkpt><trkpt lat="43.7815285" lon="12.8012041"><ele>405.6</ele><time>2026-03-22T11:38:14.692Z</time></trkpt><trkpt lat="43.7816261" lon="12.8011993"><ele>401.79999999999995</ele><time>2026-03-22T11:38:15.69Z</time></trkpt><trkpt lat="43.7817211" lon="12.8012143"><ele>398.0</ele><time>2026-03-22T11:38:16.697Z</time></trkpt><trkpt lat="43.7818119" lon="12.8012343"><ele>396.0</ele><time>2026-03-22T11:38:17.687Z</time></trkpt><trkpt lat="43.7819188" lon="12.8012554"><ele>394.0</ele><time>2026-03-22T11:38:18.695Z</time></trkpt><trkpt lat="43.7820322" lon="12.8012764"><ele>392.0</ele><time>2026-03-22T11:38:19.699Z</time></trkpt><trkpt lat="43.7821354" lon="12.8012695"><ele>390.0</ele><time>2026-03-22T11:38:20.695Z</time></trkpt><trkpt lat="43.7822341" lon="12.8012544"><ele>388.0</ele><time>2026-03-22T11:38:21.687Z</time></trkpt><trkpt lat="43.7823265" lon="12.8012413"><ele>388.0</ele><time>2026-03-22T11:38:22.691Z</time></trkpt><trkpt lat="43.782418" lon="12.8012298"><ele>388.0</ele><time>2026-03-22T11:38:23.704Z</time></trkpt><trkpt lat="43.7825162" lon="12.8011956"><ele>388.0</ele><time>2026-03-22T11:38:24.698Z</time></trkpt><trkpt lat="43.7826232" lon="12.8011275"><ele>388.0</ele><time>2026-03-22T11:38:25.705Z</time></trkpt><trkpt lat="43.7827573" lon="12.8010511"><ele>387.79999999999995</ele><time>2026-03-22T11:38:26.695Z</time></trkpt><trkpt lat="43.7828877" lon="12.8009636"><ele>387.6</ele><time>2026-03-22T11:38:27.692Z</time></trkpt><trkpt lat="43.783001" lon="12.8008865"><ele>387.4</ele><time>2026-03-22T11:38:28.694Z</time></trkpt><trkpt lat="43.7830837" lon="12.800866"><ele>387.20000000000005</ele><time>2026-03-22T11:38:29.699Z</time></trkpt><trkpt lat="43.7831696" lon="12.8008556"><ele>387.0</ele><time>2026-03-22T11:38:30.687Z</time></trkpt><trkpt lat="43.7832594" lon="12.8008681"><ele>387.0</ele><time>2026-03-22T11:38:31.703Z</time></trkpt><trkpt lat="43.7833689" lon="12.8009117"><ele>387.0</ele><time>2026-03-22T11:38:32.702Z</time></trkpt><trkpt lat="43.7834672" lon="12.8009917"><ele>387.0</ele><time>2026-03-22T11:38:33.713Z</time></trkpt><trkpt lat="43.7835606" lon="12.8010948"><ele>387.0</ele><time>2026-03-22T11:38:34.7Z</time></trkpt><trkpt lat="43.7836389" lon="12.8012218"><ele>386.8333333333333</ele><time>2026-03-22T11:38:35.7Z</time></trkpt><trkpt lat="43.7837141" lon="12.801347"><ele>386.66666666666663</ele><time>2026-03-22T11:38:36.693Z</time></trkpt><trkpt lat="43.7837787" lon="12.801444"><ele>386.5</ele><time>2026-03-22T11:38:37.695Z</time></trkpt><trkpt lat="43.7838468" lon="12.8015288"><ele>386.3333333333333</ele><time>2026-03-22T11:38:39.706Z</time></trkpt><trkpt lat="43.7838507" lon="12.8016307"><ele>386.16666666666663</ele><time>2026-03-22T11:38:47.701Z</time></trkpt><trkpt lat="43.7838683" lon="12.8017193"><ele>386.0</ele><time>2026-03-22T11:38:49.692Z</time></trkpt><trkpt lat="43.7839079" lon="12.8018584"><ele>386.0</ele><time>2026-03-22T11:38:51.694Z</time></trkpt><trkpt lat="43.7839045" lon="12.8020417"><ele>386.0</ele><time>2026-03-22T11:38:53.7Z</time></trkpt><trkpt lat="43.7839563" lon="12.8021708"><ele>386.0</ele><time>2026-03-22T11:38:54.692Z</time></trkpt><trkpt lat="43.7839919" lon="12.8023025"><ele>386.0</ele><time>2026-03-22T11:38:55.695Z</time></trkpt><trkpt lat="43.7840282" lon="12.8024399"><ele>386.0</ele><time>2026-03-22T11:38:56.705Z</time></trkpt><trkpt lat="43.7840679" lon="12.8025781"><ele>386.6</ele><time>2026-03-22T11:38:57.698Z</time></trkpt><trkpt lat="43.7841028" lon="12.8027205"><ele>387.20000000000005</ele><time>2026-03-22T11:38:58.706Z</time></trkpt><trkpt lat="43.7841398" lon="12.8028583"><ele>387.79999999999995</ele><time>2026-03-22T11:38:59.705Z</time></trkpt><trkpt lat="43.7841858" lon="12.8029907"><ele>388.4</ele><time>2026-03-22T11:39:00.702Z</time></trkpt><trkpt lat="43.7842273" lon="12.8031085"><ele>389.0</ele><time>2026-03-22T11:39:01.712Z</time></trkpt><trkpt lat="43.7842821" lon="12.8032271"><ele>389.0</ele><time>2026-03-22T11:39:02.707Z</time></trkpt><trkpt lat="43.7843433" lon="12.8033499"><ele>389.0</ele><time>2026-03-22T11:39:03.716Z</time></trkpt><trkpt lat="43.7844174" lon="12.803482"><ele>389.0</ele><time>2026-03-22T11:39:04.713Z</time></trkpt><trkpt lat="43.7844863" lon="12.8036134"><ele>389.0</ele><time>2026-03-22T11:39:05.709Z</time></trkpt><trkpt lat="43.7845544" lon="12.80373"><ele>387.4</ele><time>2026-03-22T11:39:06.717Z</time></trkpt><trkpt lat="43.7846171" lon="12.8038422"><ele>385.79999999999995</ele><time>2026-03-22T11:39:07.713Z</time></trkpt><trkpt lat="43.7846684" lon="12.8039622"><ele>384.20000000000005</ele><time>2026-03-22T11:39:08.718Z</time></trkpt><trkpt lat="43.7847173" lon="12.8040817"><ele>382.6</ele><time>2026-03-22T11:39:09.705Z</time></trkpt><trkpt lat="43.784749" lon="12.8042028"><ele>381.0</ele><time>2026-03-22T11:39:10.719Z</time></trkpt><trkpt lat="43.7847449" lon="12.8043248"><ele>379.0</ele><time>2026-03-22T11:39:11.717Z</time></trkpt><trkpt lat="43.7847045" lon="12.8044554"><ele>377.0</ele><time>2026-03-22T11:39:12.727Z</time></trkpt><trkpt lat="43.7846457" lon="12.8045965"><ele>375.0</ele><time>2026-03-22T11:39:13.708Z</time></trkpt><trkpt lat="43.784562" lon="12.8047184"><ele>373.0</ele><time>2026-03-22T11:39:14.704Z</time></trkpt><trkpt lat="43.7844935" lon="12.8048194"><ele>371.0</ele><time>2026-03-22T11:39:15.698Z</time></trkpt><trkpt lat="43.7844383" lon="12.804935"><ele>371.0</ele><time>2026-03-22T11:39:16.7Z</time></trkpt><trkpt lat="43.7843975" lon="12.8050619"><ele>371.0</ele><time>2026-03-22T11:39:17.697Z</time></trkpt><trkpt lat="43.7843541" lon="12.8051525"><ele>371.0</ele><time>2026-03-22T11:39:18.711Z</time></trkpt><trkpt lat="43.7843322" lon="12.8052359"><ele>371.0</ele><time>2026-03-22T11:39:19.708Z</time></trkpt><trkpt lat="43.7843064" lon="12.8053213"><ele>371.0</ele><time>2026-03-22T11:39:20.715Z</time></trkpt><trkpt lat="43.7844383" lon="12.805356"><ele>371.0</ele><time>2026-03-22T11:39:23.712Z</time></trkpt><trkpt lat="43.7845567" lon="12.8052905"><ele>371.0</ele><time>2026-03-22T11:39:24.707Z</time></trkpt><trkpt lat="43.7846632" lon="12.805208"><ele>371.0</ele><time>2026-03-22T11:39:25.7Z</time></trkpt><trkpt lat="43.7847947" lon="12.8051383"><ele>371.0</ele><time>2026-03-22T11:39:26.701Z</time></trkpt><trkpt lat="43.7849084" lon="12.8050957"><ele>371.0</ele><time>2026-03-22T11:39:27.713Z</time></trkpt><trkpt lat="43.7850175" lon="12.8050563"><ele>371.0</ele><time>2026-03-22T11:39:28.693Z</time></trkpt><trkpt lat="43.7851576" lon="12.8050421"><ele>371.0</ele><time>2026-03-22T11:39:29.697Z</time></trkpt><trkpt lat="43.785291" lon="12.8050993"><ele>371.0</ele><time>2026-03-22T11:39:30.702Z</time></trkpt><trkpt lat="43.7854032" lon="12.8051711"><ele>371.0</ele><time>2026-03-22T11:39:31.715Z</time></trkpt><trkpt lat="43.7855003" lon="12.8052538"><ele>370.25</ele><time>2026-03-22T11:39:32.711Z</time></trkpt><trkpt lat="43.785602" lon="12.8053687"><ele>369.5</ele><time>2026-03-22T11:39:33.716Z</time></trkpt><trkpt lat="43.7856902" lon="12.8055211"><ele>368.75</ele><time>2026-03-22T11:39:34.712Z</time></trkpt><trkpt lat="43.7857454" lon="12.8057096"><ele>368.0</ele><time>2026-03-22T11:39:35.724Z</time></trkpt><trkpt lat="43.7857585" lon="12.8059366"><ele>366.83333333333337</ele><time>2026-03-22T11:39:36.72Z</time></trkpt><trkpt lat="43.7857894" lon="12.8060883"><ele>365.6666666666667</ele><time>2026-03-22T11:39:37.707Z</time></trkpt><trkpt lat="43.7858019" lon="12.8062108"><ele>364.5</ele><time>2026-03-22T11:39:38.707Z</time></trkpt><trkpt lat="43.7858256" lon="12.8063071"><ele>363.3333333333333</ele><time>2026-03-22T11:39:39.715Z</time></trkpt><trkpt lat="43.7858875" lon="12.8063903"><ele>362.16666666666663</ele><time>2026-03-22T11:39:40.711Z</time></trkpt><trkpt lat="43.7859419" lon="12.8064594"><ele>361.0</ele><time>2026-03-22T11:39:41.71Z</time></trkpt><trkpt lat="43.7860316" lon="12.8065508"><ele>361.0</ele><time>2026-03-22T11:39:42.714Z</time></trkpt><trkpt lat="43.7861513" lon="12.8066408"><ele>361.0</ele><time>2026-03-22T11:39:43.717Z</time></trkpt><trkpt lat="43.7862695" lon="12.8066938"><ele>361.0</ele><time>2026-03-22T11:39:44.704Z</time></trkpt><trkpt lat="43.7863806" lon="12.8067585"><ele>361.0</ele><time>2026-03-22T11:39:45.703Z</time></trkpt><trkpt lat="43.7864868" lon="12.806811"><ele>361.3333333333333</ele><time>2026-03-22T11:39:46.703Z</time></trkpt><trkpt lat="43.7865851" lon="12.8068374"><ele>361.66666666666663</ele><time>2026-03-22T11:39:47.705Z</time></trkpt><trkpt lat="43.7866737" lon="12.8068559"><ele>362.0</ele><time>2026-03-22T11:39:48.699Z</time></trkpt><trkpt lat="43.7867449" lon="12.8068843"><ele>362.3333333333333</ele><time>2026-03-22T11:39:49.711Z</time></trkpt><trkpt lat="43.7868263" lon="12.8069251"><ele>362.6666666666667</ele><time>2026-03-22T11:39:51.697Z</time></trkpt><trkpt lat="43.7868793" lon="12.806974"><ele>363.0</ele><time>2026-03-22T11:39:53.698Z</time></trkpt><trkpt lat="43.786948" lon="12.8070288"><ele>363.0</ele><time>2026-03-22T11:39:55.71Z</time></trkpt><trkpt lat="43.7870182" lon="12.8070904"><ele>363.0</ele><time>2026-03-22T11:39:56.707Z</time></trkpt><trkpt lat="43.7870825" lon="12.8071562"><ele>363.0</ele><time>2026-03-22T11:39:57.725Z</time></trkpt><trkpt lat="43.7871281" lon="12.8072484"><ele>363.0</ele><time>2026-03-22T11:39:58.705Z</time></trkpt><trkpt lat="43.7871898" lon="12.8073674"><ele>363.0</ele><time>2026-03-22T11:39:59.714Z</time></trkpt><trkpt lat="43.7872284" lon="12.8075107"><ele>363.0</ele><time>2026-03-22T11:40:00.713Z</time></trkpt><trkpt lat="43.7872598" lon="12.8076369"><ele>363.0</ele><time>2026-03-22T11:40:01.715Z</time></trkpt><trkpt lat="43.787296" lon="12.8077119"><ele>363.0</ele><time>2026-03-22T11:40:02.703Z</time></trkpt><trkpt lat="43.7873476" lon="12.8077638"><ele>363.0</ele><time>2026-03-22T11:40:03.717Z</time></trkpt><trkpt lat="43.7874096" lon="12.8078042"><ele>363.0</ele><time>2026-03-22T11:40:04.723Z</time></trkpt><trkpt lat="43.7874828" lon="12.8078471"><ele>363.0</ele><time>2026-03-22T11:40:05.719Z</time></trkpt><trkpt lat="43.7875821" lon="12.8078801"><ele>362.8333333333333</ele><time>2026-03-22T11:40:06.727Z</time></trkpt><trkpt lat="43.7876902" lon="12.8078896"><ele>362.6666666666667</ele><time>2026-03-22T11:40:07.711Z</time></trkpt><trkpt lat="43.7877709" lon="12.8079117"><ele>362.5</ele><time>2026-03-22T11:40:08.717Z</time></trkpt><trkpt lat="43.7878395" lon="12.8079648"><ele>362.33333333333337</ele><time>2026-03-22T11:40:09.704Z</time></trkpt><trkpt lat="43.7879081" lon="12.8080338"><ele>362.1666666666667</ele><time>2026-03-22T11:40:10.712Z</time></trkpt><trkpt lat="43.7879624" lon="12.8081075"><ele>362.0</ele><time>2026-03-22T11:40:11.715Z</time></trkpt><trkpt lat="43.7880103" lon="12.8081683"><ele>362.0</ele><time>2026-03-22T11:40:12.715Z</time></trkpt><trkpt lat="43.7880655" lon="12.808285"><ele>362.0</ele><time>2026-03-22T11:40:14.723Z</time></trkpt><trkpt lat="43.7880481" lon="12.8084215"><ele>362.0</ele><time>2026-03-22T11:40:16.723Z</time></trkpt><trkpt lat="43.7880174" lon="12.8085966"><ele>362.0</ele><time>2026-03-22T11:40:18.715Z</time></trkpt><trkpt lat="43.7880034" lon="12.8086907"><ele>362.0</ele><time>2026-03-22T11:40:19.71Z</time></trkpt><trkpt lat="43.7879976" lon="12.8087906"><ele>360.0</ele><time>2026-03-22T11:40:20.715Z</time></trkpt><trkpt lat="43.7880023" lon="12.8088868"><ele>358.0</ele><time>2026-03-22T11:40:21.718Z</time></trkpt><trkpt lat="43.7880209" lon="12.8089808"><ele>356.0</ele><time>2026-03-22T11:40:22.711Z</time></trkpt><trkpt lat="43.7880539" lon="12.8090736"><ele>354.0</ele><time>2026-03-22T11:40:23.721Z</time></trkpt><trkpt lat="43.7880943" lon="12.809161"><ele>352.0</ele><time>2026-03-22T11:40:24.716Z</time></trkpt><trkpt lat="43.78813" lon="12.8092476"><ele>350.0</ele><time>2026-03-22T11:40:25.71Z</time></trkpt><trkpt lat="43.7881529" lon="12.8093324"><ele>348.0</ele><time>2026-03-22T11:40:26.721Z</time></trkpt><trkpt lat="43.7881494" lon="12.80943"><ele>344.8333333333333</ele><time>2026-03-22T11:40:27.722Z</time></trkpt><trkpt lat="43.7881349" lon="12.8095253"><ele>341.6666666666667</ele><time>2026-03-22T11:40:28.731Z</time></trkpt><trkpt lat="43.7880963" lon="12.809601"><ele>338.5</ele><time>2026-03-22T11:40:29.71Z</time></trkpt><trkpt lat="43.788029" lon="12.8096459"><ele>335.33333333333337</ele><time>2026-03-22T11:40:30.707Z</time></trkpt><trkpt lat="43.7879533" lon="12.8097005"><ele>332.1666666666667</ele><time>2026-03-22T11:40:31.706Z</time></trkpt><trkpt lat="43.7878837" lon="12.8097568"><ele>329.0</ele><time>2026-03-22T11:40:32.713Z</time></trkpt><trkpt lat="43.7878219" lon="12.8098189"><ele>329.0</ele><time>2026-03-22T11:40:33.704Z</time></trkpt><trkpt lat="43.7877726" lon="12.8098871"><ele>329.0</ele><time>2026-03-22T11:40:34.706Z</time></trkpt><trkpt lat="43.7877308" lon="12.8099587"><ele>329.0</ele><time>2026-03-22T11:40:35.722Z</time></trkpt><trkpt lat="43.7877821" lon="12.8101093"><ele>329.0</ele><time>2026-03-22T11:40:38.718Z</time></trkpt><trkpt lat="43.7878663" lon="12.8101076"><ele>329.0</ele><time>2026-03-22T11:40:39.704Z</time></trkpt><trkpt lat="43.787947" lon="12.8101295"><ele>329.0</ele><time>2026-03-22T11:40:40.702Z</time></trkpt><trkpt lat="43.7880088" lon="12.8101492"><ele>329.0</ele><time>2026-03-22T11:40:41.703Z</time></trkpt><trkpt lat="43.7881149" lon="12.8101262"><ele>329.0</ele><time>2026-03-22T11:40:43.705Z</time></trkpt><trkpt lat="43.7882131" lon="12.8100702"><ele>329.0</ele><time>2026-03-22T11:40:44.699Z</time></trkpt><trkpt lat="43.7883072" lon="12.8100029"><ele>329.0</ele><time>2026-03-22T11:40:45.707Z</time></trkpt><trkpt lat="43.7884003" lon="12.8099474"><ele>329.0</ele><time>2026-03-22T11:40:46.703Z</time></trkpt><trkpt lat="43.7885031" lon="12.8098719"><ele>325.0</ele><time>2026-03-22T11:40:47.696Z</time></trkpt><trkpt lat="43.7886051" lon="12.8097834"><ele>321.0</ele><time>2026-03-22T11:40:48.703Z</time></trkpt><trkpt lat="43.7887054" lon="12.8096902"><ele>317.0</ele><time>2026-03-22T11:40:49.699Z</time></trkpt><trkpt lat="43.788806" lon="12.8096006"><ele>313.0</ele><time>2026-03-22T11:40:50.7Z</time></trkpt><trkpt lat="43.7889104" lon="12.809555"><ele>313.0</ele><time>2026-03-22T11:40:51.713Z</time></trkpt><trkpt lat="43.789007" lon="12.8095645"><ele>313.0</ele><time>2026-03-22T11:40:52.713Z</time></trkpt><trkpt lat="43.7891018" lon="12.80959"><ele>313.0</ele><time>2026-03-22T11:40:53.71Z</time></trkpt><trkpt lat="43.7891974" lon="12.8096397"><ele>313.0</ele><time>2026-03-22T11:40:54.706Z</time></trkpt><trkpt lat="43.7892833" lon="12.8096718"><ele>313.0</ele><time>2026-03-22T11:40:55.698Z</time></trkpt><trkpt lat="43.7893716" lon="12.8096694"><ele>311.5</ele><time>2026-03-22T11:40:56.715Z</time></trkpt><trkpt lat="43.7894582" lon="12.8096663"><ele>310.0</ele><time>2026-03-22T11:40:57.712Z</time></trkpt><trkpt lat="43.7895279" lon="12.8096234"><ele>308.5</ele><time>2026-03-22T11:40:58.731Z</time></trkpt><trkpt lat="43.7895925" lon="12.8095355"><ele>307.0</ele><time>2026-03-22T11:40:59.701Z</time></trkpt><trkpt lat="43.7896449" lon="12.8094296"><ele>305.5</ele><time>2026-03-22T11:41:00.7Z</time></trkpt><trkpt lat="43.7896875" lon="12.8093218"><ele>304.0</ele><time>2026-03-22T11:41:01.7Z</time></trkpt><trkpt lat="43.7897172" lon="12.8092242"><ele>304.0</ele><time>2026-03-22T11:41:02.693Z</time></trkpt><trkpt lat="43.789746" lon="12.8091405"><ele>304.0</ele><time>2026-03-22T11:41:03.701Z</time></trkpt><trkpt lat="43.7897713" lon="12.8090493"><ele>304.0</ele><time>2026-03-22T11:41:04.695Z</time></trkpt><trkpt lat="43.7898" lon="12.8089621"><ele>304.0</ele><time>2026-03-22T11:41:05.695Z</time></trkpt><trkpt lat="43.7898297" lon="12.8088799"><ele>304.0</ele><time>2026-03-22T11:41:06.696Z</time></trkpt><trkpt lat="43.7899176" lon="12.8088122"><ele>304.0</ele><time>2026-03-22T11:41:08.701Z</time></trkpt><trkpt lat="43.7900243" lon="12.8088402"><ele>304.0</ele><time>2026-03-22T11:41:10.7Z</time></trkpt><trkpt lat="43.790068" lon="12.8089036"><ele>304.0</ele><time>2026-03-22T11:41:11.697Z</time></trkpt><trkpt lat="43.7901211" lon="12.8089737"><ele>304.0</ele><time>2026-03-22T11:41:12.688Z</time></trkpt><trkpt lat="43.7901693" lon="12.8090601"><ele>304.0</ele><time>2026-03-22T11:41:13.699Z</time></trkpt><trkpt lat="43.7902202" lon="12.8091785"><ele>304.0</ele><time>2026-03-22T11:41:14.706Z</time></trkpt><trkpt lat="43.7902354" lon="12.8093139"><ele>304.0</ele><time>2026-03-22T11:41:15.706Z</time></trkpt><trkpt lat="43.7901951" lon="12.8094354"><ele>302.2</ele><time>2026-03-22T11:41:16.695Z</time></trkpt><trkpt lat="43.7901573" lon="12.8095506"><ele>300.4</ele><time>2026-03-22T11:41:17.686Z</time></trkpt><trkpt lat="43.7901323" lon="12.8096634"><ele>298.6</ele><time>2026-03-22T11:41:18.694Z</time></trkpt><trkpt lat="43.7901213" lon="12.8097824"><ele>296.8</ele><time>2026-03-22T11:41:19.691Z</time></trkpt><trkpt lat="43.7901366" lon="12.8099039"><ele>295.0</ele><time>2026-03-22T11:41:20.703Z</time></trkpt><trkpt lat="43.7901849" lon="12.8100362"><ele>289.5</ele><time>2026-03-22T11:41:21.704Z</time></trkpt><trkpt lat="43.7902547" lon="12.810149"><ele>284.0</ele><time>2026-03-22T11:41:22.691Z</time></trkpt><trkpt lat="43.7903455" lon="12.8102519"><ele>278.5</ele><time>2026-03-22T11:41:23.692Z</time></trkpt><trkpt lat="43.7904504" lon="12.8103307"><ele>273.0</ele><time>2026-03-22T11:41:24.7Z</time></trkpt><trkpt lat="43.7905679" lon="12.8104254"><ele>273.0</ele><time>2026-03-22T11:41:25.698Z</time></trkpt><trkpt lat="43.7906726" lon="12.8105437"><ele>273.0</ele><time>2026-03-22T11:41:26.7Z</time></trkpt><trkpt lat="43.7907601" lon="12.8106656"><ele>273.0</ele><time>2026-03-22T11:41:27.708Z</time></trkpt><trkpt lat="43.7908437" lon="12.8107607"><ele>273.0</ele><time>2026-03-22T11:41:28.716Z</time></trkpt><trkpt lat="43.7909162" lon="12.8108229"><ele>273.0</ele><time>2026-03-22T11:41:29.724Z</time></trkpt><trkpt lat="43.7909761" lon="12.810861"><ele>273.0</ele><time>2026-03-22T11:41:30.716Z</time></trkpt><trkpt lat="43.79107" lon="12.8108064"><ele>273.0</ele><time>2026-03-22T11:41:32.698Z</time></trkpt><trkpt lat="43.7911174" lon="12.8107329"><ele>273.0</ele><time>2026-03-22T11:41:36.692Z</time></trkpt><trkpt lat="43.7911792" lon="12.8107783"><ele>273.0</ele><time>2026-03-22T11:41:41.7Z</time></trkpt><trkpt lat="43.7912206" lon="12.8108727"><ele>273.0</ele><time>2026-03-22T11:41:42.698Z</time></trkpt><trkpt lat="43.7912722" lon="12.8109619"><ele>268.8333333333333</ele><time>2026-03-22T11:41:43.703Z</time></trkpt><trkpt lat="43.7913109" lon="12.811033"><ele>264.6666666666667</ele><time>2026-03-22T11:41:44.695Z</time></trkpt><trkpt lat="43.7913851" lon="12.8111712"><ele>260.5</ele><time>2026-03-22T11:41:46.7Z</time></trkpt><trkpt lat="43.7914316" lon="12.8112389"><ele>256.33333333333337</ele><time>2026-03-22T11:41:47.697Z</time></trkpt><trkpt lat="43.7914698" lon="12.811328"><ele>252.16666666666669</ele><time>2026-03-22T11:41:48.707Z</time></trkpt><trkpt lat="43.791522" lon="12.8114141"><ele>248.0</ele><time>2026-03-22T11:41:49.693Z</time></trkpt><trkpt lat="43.7915685" lon="12.8115108"><ele>248.00000000000003</ele><time>2026-03-22T11:41:50.695Z</time></trkpt><trkpt lat="43.7916105" lon="12.8116108"><ele>248.0</ele><time>2026-03-22T11:41:51.695Z</time></trkpt><trkpt lat="43.7916417" lon="12.8117096"><ele>248.0</ele><time>2026-03-22T11:41:52.7Z</time></trkpt><trkpt lat="43.7916576" lon="12.8117944"><ele>248.0</ele><time>2026-03-22T11:41:53.698Z</time></trkpt><trkpt lat="43.7916957" lon="12.811937"><ele>248.00000000000003</ele><time>2026-03-22T11:41:55.717Z</time></trkpt><trkpt lat="43.7917517" lon="12.812047"><ele>248.0</ele><time>2026-03-22T11:41:57.698Z</time></trkpt><trkpt lat="43.7918494" lon="12.812071"><ele>242.83333333333334</ele><time>2026-03-22T11:42:00.722Z</time></trkpt><trkpt lat="43.7919191" lon="12.8120535"><ele>237.66666666666669</ele><time>2026-03-22T11:42:01.693Z</time></trkpt><trkpt lat="43.7919896" lon="12.8120274"><ele>232.5</ele><time>2026-03-22T11:42:02.707Z</time></trkpt><trkpt lat="43.792059" lon="12.8119948"><ele>227.33333333333331</ele><time>2026-03-22T11:42:03.713Z</time></trkpt><trkpt lat="43.7921487" lon="12.8119758"><ele>222.16666666666666</ele><time>2026-03-22T11:42:04.7Z</time></trkpt><trkpt lat="43.7922459" lon="12.8119812"><ele>217.0</ele><time>2026-03-22T11:42:05.702Z</time></trkpt><trkpt lat="43.7923285" lon="12.8119798"><ele>216.99999999999997</ele><time>2026-03-22T11:42:06.699Z</time></trkpt><trkpt lat="43.7924057" lon="12.8120114"><ele>217.0</ele><time>2026-03-22T11:42:07.697Z</time></trkpt><trkpt lat="43.7924645" lon="12.8120591"><ele>217.0</ele><time>2026-03-22T11:42:08.719Z</time></trkpt><trkpt lat="43.7924608" lon="12.8121941"><ele>217.0</ele><time>2026-03-22T11:42:10.704Z</time></trkpt><trkpt lat="43.7924076" lon="12.812244"><ele>216.99999999999997</ele><time>2026-03-22T11:42:11.701Z</time></trkpt><trkpt lat="43.7923403" lon="12.8122903"><ele>217.0</ele><time>2026-03-22T11:42:12.703Z</time></trkpt><trkpt lat="43.7922632" lon="12.8123351"><ele>217.0</ele><time>2026-03-22T11:42:13.712Z</time></trkpt><trkpt lat="43.7921624" lon="12.8123734"><ele>217.0</ele><time>2026-03-22T11:42:14.709Z</time></trkpt><trkpt lat="43.7920694" lon="12.8124146"><ele>217.0</ele><time>2026-03-22T11:42:15.698Z</time></trkpt><trkpt lat="43.7919969" lon="12.812482"><ele>217.0</ele><time>2026-03-22T11:42:16.702Z</time></trkpt><trkpt lat="43.7919291" lon="12.8125527"><ele>217.0</ele><time>2026-03-22T11:42:17.693Z</time></trkpt><trkpt lat="43.7918552" lon="12.812621"><ele>212.8</ele><time>2026-03-22T11:42:18.691Z</time></trkpt><trkpt lat="43.7917834" lon="12.8126776"><ele>208.6</ele><time>2026-03-22T11:42:19.698Z</time></trkpt><trkpt lat="43.791714" lon="12.8127238"><ele>204.4</ele><time>2026-03-22T11:42:20.691Z</time></trkpt><trkpt lat="43.7915845" lon="12.8127625"><ele>200.20000000000002</ele><time>2026-03-22T11:42:22.69Z</time></trkpt><trkpt lat="43.7915168" lon="12.8128037"><ele>196.0</ele><time>2026-03-22T11:42:23.689Z</time></trkpt><trkpt lat="43.7914305" lon="12.812853"><ele>195.99999999999997</ele><time>2026-03-22T11:42:25.698Z</time></trkpt><trkpt lat="43.7914459" lon="12.8129433"><ele>196.0</ele><time>2026-03-22T11:42:27.704Z</time></trkpt><trkpt lat="43.7915164" lon="12.8129826"><ele>196.0</ele><time>2026-03-22T11:42:28.702Z</time></trkpt><trkpt lat="43.7916026" lon="12.8130456"><ele>196.0</ele><time>2026-03-22T11:42:29.695Z</time></trkpt><trkpt lat="43.7916896" lon="12.8131075"><ele>195.99999999999997</ele><time>2026-03-22T11:42:30.699Z</time></trkpt><trkpt lat="43.7917579" lon="12.8131552"><ele>196.0</ele><time>2026-03-22T11:42:31.703Z</time></trkpt><trkpt lat="43.7918366" lon="12.813189"><ele>195.4</ele><time>2026-03-22T11:42:32.7Z</time></trkpt><trkpt lat="43.7919178" lon="12.8132142"><ele>194.8</ele><time>2026-03-22T11:42:33.699Z</time></trkpt><trkpt lat="43.7920007" lon="12.8132352"><ele>194.20000000000002</ele><time>2026-03-22T11:42:34.702Z</time></trkpt><trkpt lat="43.7921049" lon="12.8132515"><ele>193.60000000000002</ele><time>2026-03-22T11:42:35.699Z</time></trkpt><trkpt lat="43.7922283" lon="12.8132579"><ele>193.0</ele><time>2026-03-22T11:42:36.694Z</time></trkpt><trkpt lat="43.7923502" lon="12.8132588"><ele>193.0</ele><time>2026-03-22T11:42:37.702Z</time></trkpt><trkpt lat="43.7925002" lon="12.8132678"><ele>193.0</ele><time>2026-03-22T11:42:38.704Z</time></trkpt><trkpt lat="43.7926636" lon="12.8132852"><ele>193.0</ele><time>2026-03-22T11:42:39.7Z</time></trkpt><trkpt lat="43.7928068" lon="12.8133047"><ele>190.75</ele><time>2026-03-22T11:42:40.697Z</time></trkpt><trkpt lat="43.7929373" lon="12.81333"><ele>188.5</ele><time>2026-03-22T11:42:41.694Z</time></trkpt><trkpt lat="43.7930545" lon="12.8133497"><ele>186.25</ele><time>2026-03-22T11:42:42.702Z</time></trkpt><trkpt lat="43.7931747" lon="12.8133762"><ele>184.0</ele><time>2026-03-22T11:42:43.7Z</time></trkpt><trkpt lat="43.7933007" lon="12.8134006"><ele>184.0</ele><time>2026-03-22T11:42:44.708Z</time></trkpt><trkpt lat="43.793397" lon="12.8134236"><ele>184.0</ele><time>2026-03-22T11:42:45.709Z</time></trkpt><trkpt lat="43.7934927" lon="12.8134525"><ele>184.0</ele><time>2026-03-22T11:42:46.713Z</time></trkpt><trkpt lat="43.7935908" lon="12.8134983"><ele>184.0</ele><time>2026-03-22T11:42:47.707Z</time></trkpt><trkpt lat="43.7936804" lon="12.8135474"><ele>184.0</ele><time>2026-03-22T11:42:48.721Z</time></trkpt><trkpt lat="43.7937836" lon="12.8136224"><ele>179.25</ele><time>2026-03-22T11:42:49.719Z</time></trkpt><trkpt lat="43.7938925" lon="12.8137028"><ele>174.5</ele><time>2026-03-22T11:42:50.715Z</time></trkpt><trkpt lat="43.7939743" lon="12.813793"><ele>169.75</ele><time>2026-03-22T11:42:51.716Z</time></trkpt><trkpt lat="43.7940566" lon="12.8139132"><ele>165.0</ele><time>2026-03-22T11:42:52.711Z</time></trkpt><trkpt lat="43.7941201" lon="12.8140468"><ele>165.0</ele><time>2026-03-22T11:42:53.719Z</time></trkpt><trkpt lat="43.7941696" lon="12.8141797"><ele>165.0</ele><time>2026-03-22T11:42:54.717Z</time></trkpt><trkpt lat="43.7942165" lon="12.8142985"><ele>165.0</ele><time>2026-03-22T11:42:55.712Z</time></trkpt><trkpt lat="43.794267" lon="12.8143852"><ele>165.0</ele><time>2026-03-22T11:42:56.704Z</time></trkpt><trkpt lat="43.7943199" lon="12.8144504"><ele>165.0</ele><time>2026-03-22T11:42:57.715Z</time></trkpt><trkpt lat="43.7943784" lon="12.8145019"><ele>165.0</ele><time>2026-03-22T11:42:58.712Z</time></trkpt><trkpt lat="43.7944542" lon="12.8145398"><ele>162.6</ele><time>2026-03-22T11:42:59.706Z</time></trkpt><trkpt lat="43.7945323" lon="12.8145666"><ele>160.2</ele><time>2026-03-22T11:43:00.711Z</time></trkpt><trkpt lat="43.7946286" lon="12.8145883"><ele>157.8</ele><time>2026-03-22T11:43:01.714Z</time></trkpt><trkpt lat="43.7947236" lon="12.8146175"><ele>155.4</ele><time>2026-03-22T11:43:02.715Z</time></trkpt><trkpt lat="43.7948109" lon="12.814641"><ele>153.0</ele><time>2026-03-22T11:43:03.718Z</time></trkpt><trkpt lat="43.7949042" lon="12.8146633"><ele>153.0</ele><time>2026-03-22T11:43:04.705Z</time></trkpt><trkpt lat="43.7949976" lon="12.8146695"><ele>153.0</ele><time>2026-03-22T11:43:05.715Z</time></trkpt><trkpt lat="43.795093" lon="12.8146671"><ele>153.0</ele><time>2026-03-22T11:43:06.71Z</time></trkpt><trkpt lat="43.7951773" lon="12.814672"><ele>153.0</ele><time>2026-03-22T11:43:07.707Z</time></trkpt><trkpt lat="43.7952674" lon="12.8146626"><ele>153.0</ele><time>2026-03-22T11:43:08.709Z</time></trkpt><trkpt lat="43.795348" lon="12.814664"><ele>153.0</ele><time>2026-03-22T11:43:09.71Z</time></trkpt><trkpt lat="43.7954269" lon="12.8146625"><ele>153.0</ele><time>2026-03-22T11:43:10.707Z</time></trkpt><trkpt lat="43.7954978" lon="12.8146764"><ele>153.0</ele><time>2026-03-22T11:43:11.709Z</time></trkpt><trkpt lat="43.7955581" lon="12.8147029"><ele>153.0</ele><time>2026-03-22T11:43:12.715Z</time></trkpt><trkpt lat="43.7956226" lon="12.8147602"><ele>153.0</ele><time>2026-03-22T11:43:13.718Z</time></trkpt><trkpt lat="43.7956768" lon="12.8148552"><ele>153.0</ele><time>2026-03-22T11:43:14.703Z</time></trkpt><trkpt lat="43.7957457" lon="12.8149589"><ele>153.0</ele><time>2026-03-22T11:43:15.718Z</time></trkpt><trkpt lat="43.7958366" lon="12.8150725"><ele>153.75</ele><time>2026-03-22T11:43:16.715Z</time></trkpt><trkpt lat="43.7959156" lon="12.815214"><ele>154.5</ele><time>2026-03-22T11:43:17.711Z</time></trkpt><trkpt lat="43.7959937" lon="12.8153724"><ele>155.25</ele><time>2026-03-22T11:43:18.718Z</time></trkpt><trkpt lat="43.7960932" lon="12.8155255"><ele>156.0</ele><time>2026-03-22T11:43:19.707Z</time></trkpt><trkpt lat="43.7962119" lon="12.8156618"><ele>156.0</ele><time>2026-03-22T11:43:20.704Z</time></trkpt><trkpt lat="43.7963257" lon="12.8157963"><ele>156.0</ele><time>2026-03-22T11:43:21.711Z</time></trkpt><trkpt lat="43.7964333" lon="12.8159338"><ele>156.0</ele><time>2026-03-22T11:43:22.695Z</time></trkpt><trkpt lat="43.7965251" lon="12.8161143"><ele>153.66666666666666</ele><time>2026-03-22T11:43:23.7Z</time></trkpt><trkpt lat="43.796616" lon="12.8163027"><ele>151.33333333333331</ele><time>2026-03-22T11:43:24.71Z</time></trkpt><trkpt lat="43.7967099" lon="12.8164847"><ele>149.0</ele><time>2026-03-22T11:43:25.706Z</time></trkpt><trkpt lat="43.7968065" lon="12.8166633"><ele>149.66666666666666</ele><time>2026-03-22T11:43:26.703Z</time></trkpt><trkpt lat="43.7968773" lon="12.8168755"><ele>150.33333333333334</ele><time>2026-03-22T11:43:27.705Z</time></trkpt><trkpt lat="43.7969623" lon="12.8170716"><ele>151.0</ele><time>2026-03-22T11:43:28.715Z</time></trkpt><trkpt lat="43.7970599" lon="12.8172721"><ele>151.0</ele><time>2026-03-22T11:43:29.71Z</time></trkpt><trkpt lat="43.7971523" lon="12.8174649"><ele>151.0</ele><time>2026-03-22T11:43:30.718Z</time></trkpt><trkpt lat="43.7972348" lon="12.8176444"><ele>151.0</ele><time>2026-03-22T11:43:31.717Z</time></trkpt><trkpt lat="43.7972981" lon="12.8178066"><ele>149.33333333333334</ele><time>2026-03-22T11:43:32.711Z</time></trkpt><trkpt lat="43.7973896" lon="12.8179989"><ele>147.66666666666666</ele><time>2026-03-22T11:43:33.719Z</time></trkpt><trkpt lat="43.7974679" lon="12.8181629"><ele>146.0</ele><time>2026-03-22T11:43:34.709Z</time></trkpt><trkpt lat="43.7975616" lon="12.8183414"><ele>145.75</ele><time>2026-03-22T11:43:35.718Z</time></trkpt><trkpt lat="43.7976325" lon="12.8185248"><ele>145.5</ele><time>2026-03-22T11:43:36.715Z</time></trkpt><trkpt lat="43.7977078" lon="12.8186892"><ele>145.25</ele><time>2026-03-22T11:43:37.706Z</time></trkpt><trkpt lat="43.7977866" lon="12.8188653"><ele>145.0</ele><time>2026-03-22T11:43:38.714Z</time></trkpt><trkpt lat="43.79784" lon="12.8190536"><ele>146.5</ele><time>2026-03-22T11:43:39.717Z</time></trkpt><trkpt lat="43.7978797" lon="12.8192609"><ele>148.0</ele><time>2026-03-22T11:43:40.705Z</time></trkpt><trkpt lat="43.7978974" lon="12.8194418"><ele>149.5</ele><time>2026-03-22T11:43:41.718Z</time></trkpt><trkpt lat="43.7979106" lon="12.819622"><ele>151.0</ele><time>2026-03-22T11:43:42.707Z</time></trkpt><trkpt lat="43.7979319" lon="12.8197872"><ele>151.0</ele><time>2026-03-22T11:43:43.711Z</time></trkpt><trkpt lat="43.7979646" lon="12.8199453"><ele>151.0</ele><time>2026-03-22T11:43:44.705Z</time></trkpt><trkpt lat="43.7980135" lon="12.8200813"><ele>151.0</ele><time>2026-03-22T11:43:45.707Z</time></trkpt><trkpt lat="43.7980813" lon="12.8202445"><ele>151.0</ele><time>2026-03-22T11:43:46.701Z</time></trkpt><trkpt lat="43.798149" lon="12.8204041"><ele>150.25</ele><time>2026-03-22T11:43:47.696Z</time></trkpt><trkpt lat="43.7982118" lon="12.8205569"><ele>149.5</ele><time>2026-03-22T11:43:48.695Z</time></trkpt><trkpt lat="43.7982843" lon="12.8207086"><ele>148.75</ele><time>2026-03-22T11:43:49.7Z</time></trkpt><trkpt lat="43.7983701" lon="12.8208608"><ele>148.0</ele><time>2026-03-22T11:43:50.702Z</time></trkpt><trkpt lat="43.7984521" lon="12.8210139"><ele>147.66666666666669</ele><time>2026-03-22T11:43:51.706Z</time></trkpt><trkpt lat="43.7985593" lon="12.8211391"><ele>147.33333333333334</ele><time>2026-03-22T11:43:52.698Z</time></trkpt><trkpt lat="43.7986927" lon="12.821238"><ele>147.0</ele><time>2026-03-22T11:43:53.702Z</time></trkpt><trkpt lat="43.7988534" lon="12.8213445"><ele>147.0</ele><time>2026-03-22T11:43:54.695Z</time></trkpt><trkpt lat="43.7990159" lon="12.8214411"><ele>147.0</ele><time>2026-03-22T11:43:55.696Z</time></trkpt><trkpt lat="43.7991872" lon="12.8215264"><ele>147.0</ele><time>2026-03-22T11:43:56.692Z</time></trkpt><trkpt lat="43.7993399" lon="12.8216146"><ele>146.5</ele><time>2026-03-22T11:43:57.693Z</time></trkpt><trkpt lat="43.7994773" lon="12.8217012"><ele>146.0</ele><time>2026-03-22T11:43:58.697Z</time></trkpt><trkpt lat="43.7996136" lon="12.8217835"><ele>145.5</ele><time>2026-03-22T11:43:59.698Z</time></trkpt><trkpt lat="43.7997417" lon="12.8218713"><ele>145.0</ele><time>2026-03-22T11:44:00.702Z</time></trkpt><trkpt lat="43.7998635" lon="12.8219663"><ele>144.75</ele><time>2026-03-22T11:44:01.699Z</time></trkpt><trkpt lat="43.7999766" lon="12.8220555"><ele>144.5</ele><time>2026-03-22T11:44:02.701Z</time></trkpt><trkpt lat="43.8000612" lon="12.822149"><ele>144.25</ele><time>2026-03-22T11:44:03.707Z</time></trkpt><trkpt lat="43.8001443" lon="12.82231"><ele>144.0</ele><time>2026-03-22T11:44:04.707Z</time></trkpt><trkpt lat="43.8002335" lon="12.8224728"><ele>144.0</ele><time>2026-03-22T11:44:05.701Z</time></trkpt><trkpt lat="43.8003028" lon="12.8226017"><ele>144.0</ele><time>2026-03-22T11:44:06.688Z</time></trkpt><trkpt lat="43.8003886" lon="12.8227251"><ele>144.0</ele><time>2026-03-22T11:44:07.699Z</time></trkpt><trkpt lat="43.8005065" lon="12.8228597"><ele>144.0</ele><time>2026-03-22T11:44:08.695Z</time></trkpt><trkpt lat="43.8006125" lon="12.8229728"><ele>143.5</ele><time>2026-03-22T11:44:09.702Z</time></trkpt><trkpt lat="43.8007154" lon="12.8230967"><ele>143.0</ele><time>2026-03-22T11:44:10.697Z</time></trkpt><trkpt lat="43.8008247" lon="12.8232075"><ele>142.5</ele><time>2026-03-22T11:44:11.695Z</time></trkpt><trkpt lat="43.8009328" lon="12.8233228"><ele>142.0</ele><time>2026-03-22T11:44:12.705Z</time></trkpt><trkpt lat="43.8010407" lon="12.8234489"><ele>141.5</ele><time>2026-03-22T11:44:13.709Z</time></trkpt><trkpt lat="43.8011468" lon="12.8235769"><ele>141.0</ele><time>2026-03-22T11:44:14.702Z</time></trkpt><trkpt lat="43.8012499" lon="12.823715"><ele>140.5</ele><time>2026-03-22T11:44:15.705Z</time></trkpt><trkpt lat="43.8013353" lon="12.8238708"><ele>140.0</ele><time>2026-03-22T11:44:16.699Z</time></trkpt><trkpt lat="43.8014198" lon="12.8240192"><ele>140.0</ele><time>2026-03-22T11:44:17.706Z</time></trkpt><trkpt lat="43.8014919" lon="12.8241897"><ele>140.0</ele><time>2026-03-22T11:44:18.697Z</time></trkpt><trkpt lat="43.8015661" lon="12.8243584"><ele>140.0</ele><time>2026-03-22T11:44:19.699Z</time></trkpt><trkpt lat="43.8016378" lon="12.8245141"><ele>140.0</ele><time>2026-03-22T11:44:20.705Z</time></trkpt><trkpt lat="43.8016959" lon="12.8247251"><ele>140.0</ele><time>2026-03-22T11:44:21.704Z</time></trkpt><trkpt lat="43.8017587" lon="12.8249213"><ele>140.0</ele><time>2026-03-22T11:44:22.704Z</time></trkpt><trkpt lat="43.8018234" lon="12.8251002"><ele>140.0</ele><time>2026-03-22T11:44:23.699Z</time></trkpt><trkpt lat="43.8019172" lon="12.8252727"><ele>139.0</ele><time>2026-03-22T11:44:24.701Z</time></trkpt><trkpt lat="43.8020243" lon="12.8254522"><ele>138.0</ele><time>2026-03-22T11:44:25.696Z</time></trkpt><trkpt lat="43.8020951" lon="12.8256091"><ele>137.0</ele><time>2026-03-22T11:44:26.694Z</time></trkpt><trkpt lat="43.8021867" lon="12.8257692"><ele>136.0</ele><time>2026-03-22T11:44:27.702Z</time></trkpt><trkpt lat="43.8023127" lon="12.825869"><ele>136.0</ele><time>2026-03-22T11:44:28.71Z</time></trkpt><trkpt lat="43.8024447" lon="12.8259349"><ele>136.0</ele><time>2026-03-22T11:44:29.699Z</time></trkpt><trkpt lat="43.8026105" lon="12.8259643"><ele>136.0</ele><time>2026-03-22T11:44:30.699Z</time></trkpt><trkpt lat="43.8027802" lon="12.8259886"><ele>134.33333333333334</ele><time>2026-03-22T11:44:31.694Z</time></trkpt><trkpt lat="43.8029518" lon="12.8259971"><ele>132.66666666666666</ele><time>2026-03-22T11:44:32.692Z</time></trkpt><trkpt lat="43.8031139" lon="12.8259925"><ele>131.0</ele><time>2026-03-22T11:44:33.694Z</time></trkpt><trkpt lat="43.8032774" lon="12.8260038"><ele>131.0</ele><time>2026-03-22T11:44:34.698Z</time></trkpt><trkpt lat="43.8034471" lon="12.8259848"><ele>131.0</ele><time>2026-03-22T11:44:35.71Z</time></trkpt><trkpt lat="43.8036105" lon="12.8259719"><ele>131.0</ele><time>2026-03-22T11:44:36.698Z</time></trkpt><trkpt lat="43.8037788" lon="12.8259574"><ele>135.25</ele><time>2026-03-22T11:44:37.703Z</time></trkpt><trkpt lat="43.8039245" lon="12.8259429"><ele>139.5</ele><time>2026-03-22T11:44:38.703Z</time></trkpt><trkpt lat="43.8040663" lon="12.8259256"><ele>143.75</ele><time>2026-03-22T11:44:39.701Z</time></trkpt><trkpt lat="43.8041933" lon="12.8258969"><ele>148.0</ele><time>2026-03-22T11:44:40.692Z</time></trkpt><trkpt lat="43.8043123" lon="12.8259028"><ele>146.75</ele><time>2026-03-22T11:44:41.701Z</time></trkpt><trkpt lat="43.8044409" lon="12.8259241"><ele>145.5</ele><time>2026-03-22T11:44:42.703Z</time></trkpt><trkpt lat="43.8045391" lon="12.8259383"><ele>144.25</ele><time>2026-03-22T11:44:43.718Z</time></trkpt><trkpt lat="43.8046332" lon="12.8260427"><ele>143.0</ele><time>2026-03-22T11:44:44.707Z</time></trkpt><trkpt lat="43.8047062" lon="12.8261407"><ele>143.0</ele><time>2026-03-22T11:44:45.704Z</time></trkpt><trkpt lat="43.8047867" lon="12.8262527"><ele>143.0</ele><time>2026-03-22T11:44:46.708Z</time></trkpt><trkpt lat="43.8048513" lon="12.8264112"><ele>143.0</ele><time>2026-03-22T11:44:47.698Z</time></trkpt><trkpt lat="43.8049397" lon="12.8265314"><ele>143.0</ele><time>2026-03-22T11:44:48.698Z</time></trkpt><trkpt lat="43.8050277" lon="12.8266213"><ele>143.0</ele><time>2026-03-22T11:44:49.701Z</time></trkpt><trkpt lat="43.8051013" lon="12.8267293"><ele>143.0</ele><time>2026-03-22T11:44:50.691Z</time></trkpt><trkpt lat="43.8051691" lon="12.8268595"><ele>143.0</ele><time>2026-03-22T11:44:51.695Z</time></trkpt><trkpt lat="43.8052253" lon="12.8270335"><ele>143.0</ele><time>2026-03-22T11:44:52.688Z</time></trkpt><trkpt lat="43.8052763" lon="12.8272343"><ele>142.66666666666666</ele><time>2026-03-22T11:44:53.694Z</time></trkpt><trkpt lat="43.8053305" lon="12.827432"><ele>142.33333333333334</ele><time>2026-03-22T11:44:54.705Z</time></trkpt><trkpt lat="43.8053419" lon="12.8276579"><ele>142.0</ele><time>2026-03-22T11:44:55.693Z</time></trkpt><trkpt lat="43.8053428" lon="12.8279083"><ele>137.33333333333334</ele><time>2026-03-22T11:44:56.695Z</time></trkpt><trkpt lat="43.8053697" lon="12.828192"><ele>132.66666666666666</ele><time>2026-03-22T11:44:57.708Z</time></trkpt><trkpt lat="43.8054073" lon="12.8284932"><ele>128.0</ele><time>2026-03-22T11:44:58.715Z</time></trkpt><trkpt lat="43.8054428" lon="12.8287919"><ele>127.0</ele><time>2026-03-22T11:44:59.707Z</time></trkpt><trkpt lat="43.8054763" lon="12.8290621"><ele>126.0</ele><time>2026-03-22T11:45:00.715Z</time></trkpt><trkpt lat="43.8055441" lon="12.8292645"><ele>125.0</ele><time>2026-03-22T11:45:01.701Z</time></trkpt><trkpt lat="43.8056277" lon="12.8293927"><ele>125.0</ele><time>2026-03-22T11:45:02.711Z</time></trkpt><trkpt lat="43.8057253" lon="12.8295093"><ele>125.0</ele><time>2026-03-22T11:45:03.703Z</time></trkpt><trkpt lat="43.8058507" lon="12.8295763"><ele>125.0</ele><time>2026-03-22T11:45:04.688Z</time></trkpt><trkpt lat="43.8059893" lon="12.8296554"><ele>125.0</ele><time>2026-03-22T11:45:05.695Z</time></trkpt><trkpt lat="43.8061191" lon="12.829731"><ele>124.75</ele><time>2026-03-22T11:45:06.708Z</time></trkpt><trkpt lat="43.8062586" lon="12.8297816"><ele>124.5</ele><time>2026-03-22T11:45:07.702Z</time></trkpt><trkpt lat="43.8064087" lon="12.8298261"><ele>124.25</ele><time>2026-03-22T11:45:08.705Z</time></trkpt><trkpt lat="43.8065411" lon="12.8298628"><ele>124.0</ele><time>2026-03-22T11:45:09.703Z</time></trkpt><trkpt lat="43.806669" lon="12.8298692"><ele>124.0</ele><time>2026-03-22T11:45:10.711Z</time></trkpt><trkpt lat="43.8067803" lon="12.8298292"><ele>124.0</ele><time>2026-03-22T11:45:11.71Z</time></trkpt><trkpt lat="43.8068845" lon="12.8297499"><ele>124.0</ele><time>2026-03-22T11:45:12.702Z</time></trkpt><trkpt lat="43.8069735" lon="12.8296509"><ele>124.0</ele><time>2026-03-22T11:45:13.707Z</time></trkpt><trkpt lat="43.80707" lon="12.8295796"><ele>124.75</ele><time>2026-03-22T11:45:14.712Z</time></trkpt><trkpt lat="43.8071849" lon="12.8295157"><ele>125.5</ele><time>2026-03-22T11:45:15.708Z</time></trkpt><trkpt lat="43.8072986" lon="12.8294672"><ele>126.25</ele><time>2026-03-22T11:45:16.704Z</time></trkpt><trkpt lat="43.8074173" lon="12.8294177"><ele>127.0</ele><time>2026-03-22T11:45:17.716Z</time></trkpt><trkpt lat="43.807529" lon="12.8294252"><ele>127.0</ele><time>2026-03-22T11:45:18.705Z</time></trkpt><trkpt lat="43.8076396" lon="12.8294947"><ele>127.0</ele><time>2026-03-22T11:45:19.715Z</time></trkpt><trkpt lat="43.8077607" lon="12.8295795"><ele>127.0</ele><time>2026-03-22T11:45:20.709Z</time></trkpt><trkpt lat="43.8078736" lon="12.8296364"><ele>127.0</ele><time>2026-03-22T11:45:21.705Z</time></trkpt><trkpt lat="43.8079917" lon="12.8297008"><ele>129.0</ele><time>2026-03-22T11:45:22.707Z</time></trkpt><trkpt lat="43.8081093" lon="12.8297369"><ele>131.0</ele><time>2026-03-22T11:45:23.714Z</time></trkpt><trkpt lat="43.8082217" lon="12.8297556"><ele>133.0</ele><time>2026-03-22T11:45:24.719Z</time></trkpt><trkpt lat="43.8083369" lon="12.8297373"><ele>135.0</ele><time>2026-03-22T11:45:25.712Z</time></trkpt><trkpt lat="43.8084659" lon="12.8297149"><ele>138.75</ele><time>2026-03-22T11:45:26.703Z</time></trkpt><trkpt lat="43.8085983" lon="12.8297091"><ele>142.5</ele><time>2026-03-22T11:45:27.701Z</time></trkpt><trkpt lat="43.8087222" lon="12.8296773"><ele>146.25</ele><time>2026-03-22T11:45:28.7Z</time></trkpt><trkpt lat="43.8088467" lon="12.8296814"><ele>150.0</ele><time>2026-03-22T11:45:29.695Z</time></trkpt><trkpt lat="43.8089728" lon="12.8296848"><ele>150.0</ele><time>2026-03-22T11:45:30.711Z</time></trkpt><trkpt lat="43.8090898" lon="12.8296919"><ele>150.0</ele><time>2026-03-22T11:45:31.694Z</time></trkpt><trkpt lat="43.8091938" lon="12.8296695"><ele>150.0</ele><time>2026-03-22T11:45:32.693Z</time></trkpt><trkpt lat="43.8092748" lon="12.8295507"><ele>150.0</ele><time>2026-03-22T11:45:33.691Z</time></trkpt><trkpt lat="43.8093562" lon="12.8294696"><ele>150.0</ele><time>2026-03-22T11:45:34.693Z</time></trkpt><trkpt lat="43.8094597" lon="12.829463"><ele>153.0</ele><time>2026-03-22T11:45:35.692Z</time></trkpt><trkpt lat="43.8095597" lon="12.8294645"><ele>156.0</ele><time>2026-03-22T11:45:36.692Z</time></trkpt><trkpt lat="43.8096682" lon="12.8294749"><ele>159.0</ele><time>2026-03-22T11:45:37.71Z</time></trkpt><trkpt lat="43.8097734" lon="12.8294939"><ele>162.0</ele><time>2026-03-22T11:45:38.703Z</time></trkpt><trkpt lat="43.8098637" lon="12.8295008"><ele>165.0</ele><time>2026-03-22T11:45:39.706Z</time></trkpt><trkpt lat="43.8099734" lon="12.8295025"><ele>165.0</ele><time>2026-03-22T11:45:41.691Z</time></trkpt><trkpt lat="43.8100502" lon="12.8295626"><ele>165.0</ele><time>2026-03-22T11:45:43.694Z</time></trkpt><trkpt lat="43.8099863" lon="12.8296461"><ele>165.0</ele><time>2026-03-22T11:45:46.701Z</time></trkpt><trkpt lat="43.8098942" lon="12.8296466"><ele>165.0</ele><time>2026-03-22T11:45:47.699Z</time></trkpt><trkpt lat="43.8097929" lon="12.8296597"><ele>165.0</ele><time>2026-03-22T11:45:48.691Z</time></trkpt><trkpt lat="43.8096931" lon="12.8296752"><ele>165.0</ele><time>2026-03-22T11:45:49.696Z</time></trkpt><trkpt lat="43.809602" lon="12.8297007"><ele>165.0</ele><time>2026-03-22T11:45:50.699Z</time></trkpt><trkpt lat="43.8094859" lon="12.8297234"><ele>165.0</ele><time>2026-03-22T11:45:51.695Z</time></trkpt><trkpt lat="43.8093856" lon="12.8297591"><ele>165.0</ele><time>2026-03-22T11:45:52.695Z</time></trkpt><trkpt lat="43.8092998" lon="12.8298346"><ele>165.0</ele><time>2026-03-22T11:45:53.699Z</time></trkpt><trkpt lat="43.8092122" lon="12.8299493"><ele>164.0</ele><time>2026-03-22T11:45:54.703Z</time></trkpt><trkpt lat="43.80908" lon="12.8300986"><ele>163.0</ele><time>2026-03-22T11:45:55.688Z</time></trkpt><trkpt lat="43.8089597" lon="12.8302631"><ele>162.0</ele><time>2026-03-22T11:45:56.692Z</time></trkpt><trkpt lat="43.8088386" lon="12.8304155"><ele>162.0</ele><time>2026-03-22T11:45:57.682Z</time></trkpt><trkpt lat="43.8087549" lon="12.8305934"><ele>162.0</ele><time>2026-03-22T11:45:58.691Z</time></trkpt><trkpt lat="43.8086921" lon="12.8308211"><ele>162.0</ele><time>2026-03-22T11:45:59.685Z</time></trkpt><trkpt lat="43.8086134" lon="12.8310557"><ele>162.66666666666666</ele><time>2026-03-22T11:46:00.7Z</time></trkpt><trkpt lat="43.8085325" lon="12.8312786"><ele>163.33333333333331</ele><time>2026-03-22T11:46:01.717Z</time></trkpt><trkpt lat="43.8084725" lon="12.8314899"><ele>164.0</ele><time>2026-03-22T11:46:02.707Z</time></trkpt><trkpt lat="43.8084345" lon="12.8316841"><ele>159.5</ele><time>2026-03-22T11:46:03.707Z</time></trkpt><trkpt lat="43.8083899" lon="12.8318689"><ele>155.0</ele><time>2026-03-22T11:46:04.699Z</time></trkpt><trkpt lat="43.808348" lon="12.8320744"><ele>150.5</ele><time>2026-03-22T11:46:05.702Z</time></trkpt><trkpt lat="43.8083001" lon="12.8322685"><ele>146.0</ele><time>2026-03-22T11:46:06.719Z</time></trkpt><trkpt lat="43.8082284" lon="12.832447"><ele>146.0</ele><time>2026-03-22T11:46:07.714Z</time></trkpt><trkpt lat="43.808117" lon="12.8326221"><ele>146.0</ele><time>2026-03-22T11:46:08.711Z</time></trkpt><trkpt lat="43.8079795" lon="12.8326993"><ele>146.0</ele><time>2026-03-22T11:46:09.706Z</time></trkpt><trkpt lat="43.8078567" lon="12.8328302"><ele>149.75</ele><time>2026-03-22T11:46:10.705Z</time></trkpt><trkpt lat="43.8077742" lon="12.8329714"><ele>153.5</ele><time>2026-03-22T11:46:11.707Z</time></trkpt><trkpt lat="43.807713" lon="12.8331117"><ele>157.25</ele><time>2026-03-22T11:46:12.692Z</time></trkpt><trkpt lat="43.8076275" lon="12.8332565"><ele>161.0</ele><time>2026-03-22T11:46:13.699Z</time></trkpt><trkpt lat="43.807539" lon="12.8334089"><ele>155.5</ele><time>2026-03-22T11:46:14.694Z</time></trkpt><trkpt lat="43.8074826" lon="12.8335538"><ele>150.0</ele><time>2026-03-22T11:46:15.689Z</time></trkpt><trkpt lat="43.8074218" lon="12.8336892"><ele>144.5</ele><time>2026-03-22T11:46:16.71Z</time></trkpt><trkpt lat="43.807372" lon="12.833842"><ele>139.0</ele><time>2026-03-22T11:46:17.704Z</time></trkpt><trkpt lat="43.8073292" lon="12.8340179"><ele>139.0</ele><time>2026-03-22T11:46:18.703Z</time></trkpt><trkpt lat="43.8073156" lon="12.8342373"><ele>139.0</ele><time>2026-03-22T11:46:19.693Z</time></trkpt><trkpt lat="43.8073086" lon="12.8344292"><ele>139.0</ele><time>2026-03-22T11:46:20.699Z</time></trkpt><trkpt lat="43.8072959" lon="12.8346309"><ele>139.0</ele><time>2026-03-22T11:46:21.702Z</time></trkpt><trkpt lat="43.8072763" lon="12.8348368"><ele>139.0</ele><time>2026-03-22T11:46:22.696Z</time></trkpt><trkpt lat="43.8072496" lon="12.8350544"><ele>139.0</ele><time>2026-03-22T11:46:23.7Z</time></trkpt><trkpt lat="43.8072191" lon="12.8352686"><ele>139.0</ele><time>2026-03-22T11:46:24.703Z</time></trkpt><trkpt lat="43.8071897" lon="12.8354616"><ele>138.0</ele><time>2026-03-22T11:46:25.701Z</time></trkpt><trkpt lat="43.8071676" lon="12.8356395"><ele>137.0</ele><time>2026-03-22T11:46:26.703Z</time></trkpt><trkpt lat="43.8071549" lon="12.835814"><ele>136.0</ele><time>2026-03-22T11:46:27.708Z</time></trkpt><trkpt lat="43.807158" lon="12.8359703"><ele>135.0</ele><time>2026-03-22T11:46:28.708Z</time></trkpt><trkpt lat="43.8071704" lon="12.8361036"><ele>131.0</ele><time>2026-03-22T11:46:29.702Z</time></trkpt><trkpt lat="43.8072132" lon="12.8362474"><ele>127.0</ele><time>2026-03-22T11:46:30.719Z</time></trkpt><trkpt lat="43.8072948" lon="12.8363551"><ele>123.0</ele><time>2026-03-22T11:46:31.71Z</time></trkpt><trkpt lat="43.8073959" lon="12.8364284"><ele>119.0</ele><time>2026-03-22T11:46:32.711Z</time></trkpt><trkpt lat="43.8075355" lon="12.8364477"><ele>123.66666666666666</ele><time>2026-03-22T11:46:33.699Z</time></trkpt><trkpt lat="43.807686" lon="12.8364715"><ele>128.33333333333334</ele><time>2026-03-22T11:46:34.698Z</time></trkpt><trkpt lat="43.8078289" lon="12.8365184"><ele>133.0</ele><time>2026-03-22T11:46:35.702Z</time></trkpt><trkpt lat="43.8079676" lon="12.8366116"><ele>133.0</ele><time>2026-03-22T11:46:36.711Z</time></trkpt><trkpt lat="43.8080715" lon="12.8367483"><ele>133.0</ele><time>2026-03-22T11:46:37.694Z</time></trkpt><trkpt lat="43.8081416" lon="12.836891"><ele>133.0</ele><time>2026-03-22T11:46:38.711Z</time></trkpt><trkpt lat="43.8081976" lon="12.8370305"><ele>133.0</ele><time>2026-03-22T11:46:39.721Z</time></trkpt><trkpt lat="43.8082117" lon="12.8371738"><ele>129.25</ele><time>2026-03-22T11:46:40.707Z</time></trkpt><trkpt lat="43.8081578" lon="12.8373284"><ele>125.5</ele><time>2026-03-22T11:46:41.707Z</time></trkpt><trkpt lat="43.8080746" lon="12.8374909"><ele>121.75</ele><time>2026-03-22T11:46:42.703Z</time></trkpt><trkpt lat="43.8079904" lon="12.8376416"><ele>118.0</ele><time>2026-03-22T11:46:43.703Z</time></trkpt><trkpt lat="43.8079052" lon="12.837793"><ele>118.0</ele><time>2026-03-22T11:46:44.704Z</time></trkpt><trkpt lat="43.8078253" lon="12.8379405"><ele>118.0</ele><time>2026-03-22T11:46:45.705Z</time></trkpt><trkpt lat="43.8077445" lon="12.8380897"><ele>118.0</ele><time>2026-03-22T11:46:46.712Z</time></trkpt><trkpt lat="43.807663" lon="12.8382455"><ele>118.0</ele><time>2026-03-22T11:46:47.705Z</time></trkpt><trkpt lat="43.8075798" lon="12.838407"><ele>118.5</ele><time>2026-03-22T11:46:48.704Z</time></trkpt><trkpt lat="43.8074974" lon="12.8385652"><ele>119.0</ele><time>2026-03-22T11:46:49.701Z</time></trkpt><trkpt lat="43.8074131" lon="12.8387255"><ele>119.5</ele><time>2026-03-22T11:46:50.704Z</time></trkpt><trkpt lat="43.8073335" lon="12.8388879"><ele>120.0</ele><time>2026-03-22T11:46:51.701Z</time></trkpt><trkpt lat="43.8072658" lon="12.8390707"><ele>120.0</ele><time>2026-03-22T11:46:52.716Z</time></trkpt><trkpt lat="43.8072079" lon="12.8392661"><ele>120.0</ele><time>2026-03-22T11:46:53.709Z</time></trkpt><trkpt lat="43.8071852" lon="12.8394511"><ele>120.0</ele><time>2026-03-22T11:46:54.712Z</time></trkpt><trkpt lat="43.80717" lon="12.8396433"><ele>120.0</ele><time>2026-03-22T11:46:55.711Z</time></trkpt><trkpt lat="43.8071752" lon="12.8398239"><ele>121.25</ele><time>2026-03-22T11:46:56.701Z</time></trkpt><trkpt lat="43.8072025" lon="12.8400162"><ele>122.5</ele><time>2026-03-22T11:46:57.71Z</time></trkpt><trkpt lat="43.8072477" lon="12.8401929"><ele>123.75</ele><time>2026-03-22T11:46:58.711Z</time></trkpt><trkpt lat="43.8072818" lon="12.8403769"><ele>125.0</ele><time>2026-03-22T11:46:59.711Z</time></trkpt><trkpt lat="43.8073171" lon="12.8405521"><ele>127.5</ele><time>2026-03-22T11:47:00.712Z</time></trkpt><trkpt lat="43.8073731" lon="12.8407162"><ele>130.0</ele><time>2026-03-22T11:47:01.704Z</time></trkpt><trkpt lat="43.8074486" lon="12.8408553"><ele>132.5</ele><time>2026-03-22T11:47:02.713Z</time></trkpt><trkpt lat="43.8075821" lon="12.8409211"><ele>135.0</ele><time>2026-03-22T11:47:03.705Z</time></trkpt><trkpt lat="43.8077322" lon="12.8409746"><ele>135.5</ele><time>2026-03-22T11:47:04.7Z</time></trkpt><trkpt lat="43.8078734" lon="12.8409738"><ele>136.0</ele><time>2026-03-22T11:47:05.703Z</time></trkpt><trkpt lat="43.8080185" lon="12.841019"><ele>136.5</ele><time>2026-03-22T11:47:06.699Z</time></trkpt><trkpt lat="43.8081552" lon="12.8410695"><ele>137.0</ele><time>2026-03-22T11:47:07.716Z</time></trkpt><trkpt lat="43.808261" lon="12.8411487"><ele>137.0</ele><time>2026-03-22T11:47:08.708Z</time></trkpt><trkpt lat="43.8083308" lon="12.8412435"><ele>137.0</ele><time>2026-03-22T11:47:09.716Z</time></trkpt><trkpt lat="43.8083622" lon="12.8413582"><ele>137.0</ele><time>2026-03-22T11:47:10.708Z</time></trkpt><trkpt lat="43.8083873" lon="12.8414814"><ele>137.0</ele><time>2026-03-22T11:47:11.709Z</time></trkpt><trkpt lat="43.8084315" lon="12.8415919"><ele>137.0</ele><time>2026-03-22T11:47:12.708Z</time></trkpt><trkpt lat="43.8084904" lon="12.8416873"><ele>134.75</ele><time>2026-03-22T11:47:13.707Z</time></trkpt><trkpt lat="43.8085454" lon="12.8417931"><ele>132.5</ele><time>2026-03-22T11:47:14.711Z</time></trkpt><trkpt lat="43.8085786" lon="12.8419495"><ele>130.25</ele><time>2026-03-22T11:47:15.714Z</time></trkpt><trkpt lat="43.8085945" lon="12.8421514"><ele>128.0</ele><time>2026-03-22T11:47:16.718Z</time></trkpt><trkpt lat="43.8086115" lon="12.8423365"><ele>128.0</ele><time>2026-03-22T11:47:17.71Z</time></trkpt><trkpt lat="43.8086063" lon="12.8425378"><ele>128.0</ele><time>2026-03-22T11:47:18.716Z</time></trkpt><trkpt lat="43.8086114" lon="12.8427559"><ele>128.0</ele><time>2026-03-22T11:47:19.703Z</time></trkpt><trkpt lat="43.8086163" lon="12.8429709"><ele>129.33333333333331</ele><time>2026-03-22T11:47:20.707Z</time></trkpt><trkpt lat="43.8086886" lon="12.8431778"><ele>130.66666666666666</ele><time>2026-03-22T11:47:21.697Z</time></trkpt><trkpt lat="43.8087307" lon="12.8433694"><ele>132.0</ele><time>2026-03-22T11:47:22.696Z</time></trkpt><trkpt lat="43.8088026" lon="12.8435672"><ele>132.75</ele><time>2026-03-22T11:47:23.689Z</time></trkpt><trkpt lat="43.8088724" lon="12.8437524"><ele>133.5</ele><time>2026-03-22T11:47:24.698Z</time></trkpt><trkpt lat="43.8089557" lon="12.8438794"><ele>134.25</ele><time>2026-03-22T11:47:25.701Z</time></trkpt><trkpt lat="43.8090453" lon="12.8439696"><ele>135.0</ele><time>2026-03-22T11:47:26.692Z</time></trkpt><trkpt lat="43.8091494" lon="12.8440057"><ele>135.0</ele><time>2026-03-22T11:47:27.704Z</time></trkpt><trkpt lat="43.8092243" lon="12.8439815"><ele>135.0</ele><time>2026-03-22T11:47:28.712Z</time></trkpt><trkpt lat="43.8092578" lon="12.843906"><ele>135.0</ele><time>2026-03-22T11:47:29.705Z</time></trkpt><trkpt lat="43.8092529" lon="12.8437192"><ele>135.0</ele><time>2026-03-22T11:47:31.696Z</time></trkpt><trkpt lat="43.8092558" lon="12.8436058"><ele>135.0</ele><time>2026-03-22T11:47:32.695Z</time></trkpt><trkpt lat="43.8092709" lon="12.8434859"><ele>135.0</ele><time>2026-03-22T11:47:33.691Z</time></trkpt><trkpt lat="43.809299" lon="12.8433632"><ele>134.6</ele><time>2026-03-22T11:47:34.688Z</time></trkpt><trkpt lat="43.8093288" lon="12.8432191"><ele>134.2</ele><time>2026-03-22T11:47:35.694Z</time></trkpt><trkpt lat="43.8093756" lon="12.8430711"><ele>133.8</ele><time>2026-03-22T11:47:36.68Z</time></trkpt><trkpt lat="43.8094403" lon="12.8429535"><ele>133.4</ele><time>2026-03-22T11:47:37.687Z</time></trkpt><trkpt lat="43.8095174" lon="12.8428555"><ele>133.0</ele><time>2026-03-22T11:47:38.694Z</time></trkpt><trkpt lat="43.8096176" lon="12.8427658"><ele>133.0</ele><time>2026-03-22T11:47:39.685Z</time></trkpt><trkpt lat="43.8097359" lon="12.8426864"><ele>133.0</ele><time>2026-03-22T11:47:40.691Z</time></trkpt><trkpt lat="43.8098604" lon="12.8425992"><ele>133.0</ele><time>2026-03-22T11:47:41.703Z</time></trkpt><trkpt lat="43.8099837" lon="12.8425133"><ele>133.0</ele><time>2026-03-22T11:47:42.692Z</time></trkpt><trkpt lat="43.8101207" lon="12.8424423"><ele>128.0</ele><time>2026-03-22T11:47:43.694Z</time></trkpt><trkpt lat="43.8102646" lon="12.8423634"><ele>123.0</ele><time>2026-03-22T11:47:44.691Z</time></trkpt><trkpt lat="43.8103993" lon="12.8422564"><ele>118.0</ele><time>2026-03-22T11:47:45.694Z</time></trkpt><trkpt lat="43.8105309" lon="12.8421173"><ele>118.0</ele><time>2026-03-22T11:47:46.696Z</time></trkpt><trkpt lat="43.81066" lon="12.8419842"><ele>118.0</ele><time>2026-03-22T11:47:47.697Z</time></trkpt><trkpt lat="43.8107797" lon="12.841846"><ele>118.0</ele><time>2026-03-22T11:47:48.705Z</time></trkpt><trkpt lat="43.8108887" lon="12.8417254"><ele>117.0</ele><time>2026-03-22T11:47:49.695Z</time></trkpt><trkpt lat="43.8109897" lon="12.8416295"><ele>116.00000000000001</ele><time>2026-03-22T11:47:50.696Z</time></trkpt><trkpt lat="43.8110965" lon="12.8415432"><ele>115.00000000000001</ele><time>2026-03-22T11:47:51.702Z</time></trkpt><trkpt lat="43.8111942" lon="12.8415078"><ele>114.0</ele><time>2026-03-22T11:47:52.713Z</time></trkpt><trkpt lat="43.8112837" lon="12.8415383"><ele>113.0</ele><time>2026-03-22T11:47:53.703Z</time></trkpt><trkpt lat="43.8113898" lon="12.841616"><ele>113.25</ele><time>2026-03-22T11:47:54.72Z</time></trkpt><trkpt lat="43.8114883" lon="12.8417296"><ele>113.5</ele><time>2026-03-22T11:47:55.708Z</time></trkpt><trkpt lat="43.8115725" lon="12.8418441"><ele>113.75</ele><time>2026-03-22T11:47:56.709Z</time></trkpt><trkpt lat="43.8116674" lon="12.8419682"><ele>114.0</ele><time>2026-03-22T11:47:57.712Z</time></trkpt><trkpt lat="43.8117748" lon="12.8421177"><ele>112.5</ele><time>2026-03-22T11:47:58.708Z</time></trkpt><trkpt lat="43.8118825" lon="12.8422538"><ele>111.0</ele><time>2026-03-22T11:47:59.706Z</time></trkpt><trkpt lat="43.8119954" lon="12.8423596"><ele>109.5</ele><time>2026-03-22T11:48:00.717Z</time></trkpt><trkpt lat="43.8121314" lon="12.8424336"><ele>108.0</ele><time>2026-03-22T11:48:01.701Z</time></trkpt><trkpt lat="43.8122781" lon="12.8424915"><ele>108.0</ele><time>2026-03-22T11:48:02.703Z</time></trkpt><trkpt lat="43.8124121" lon="12.8425195"><ele>108.0</ele><time>2026-03-22T11:48:03.705Z</time></trkpt><trkpt lat="43.8125357" lon="12.8424951"><ele>108.0</ele><time>2026-03-22T11:48:04.707Z</time></trkpt><trkpt lat="43.812662" lon="12.8424533"><ele>108.0</ele><time>2026-03-22T11:48:05.699Z</time></trkpt><trkpt lat="43.8127732" lon="12.842451"><ele>108.2</ele><time>2026-03-22T11:48:06.707Z</time></trkpt><trkpt lat="43.8128728" lon="12.8424696"><ele>108.4</ele><time>2026-03-22T11:48:07.703Z</time></trkpt><trkpt lat="43.8129724" lon="12.8425077"><ele>108.60000000000001</ele><time>2026-03-22T11:48:08.711Z</time></trkpt><trkpt lat="43.8130669" lon="12.8425792"><ele>108.80000000000001</ele><time>2026-03-22T11:48:09.709Z</time></trkpt><trkpt lat="43.813159" lon="12.8427096"><ele>109.0</ele><time>2026-03-22T11:48:10.704Z</time></trkpt><trkpt lat="43.8132446" lon="12.8428546"><ele>109.0</ele><time>2026-03-22T11:48:11.708Z</time></trkpt><trkpt lat="43.8133373" lon="12.8429992"><ele>109.0</ele><time>2026-03-22T11:48:12.702Z</time></trkpt><trkpt lat="43.8134262" lon="12.8431328"><ele>109.0</ele><time>2026-03-22T11:48:13.7Z</time></trkpt><trkpt lat="43.8135276" lon="12.8432564"><ele>109.0</ele><time>2026-03-22T11:48:14.698Z</time></trkpt><trkpt lat="43.8136218" lon="12.8433471"><ele>110.4</ele><time>2026-03-22T11:48:15.702Z</time></trkpt><trkpt lat="43.8137248" lon="12.8433751"><ele>111.80000000000001</ele><time>2026-03-22T11:48:16.703Z</time></trkpt><trkpt lat="43.8138137" lon="12.8433542"><ele>113.19999999999999</ele><time>2026-03-22T11:48:17.701Z</time></trkpt><trkpt lat="43.8138871" lon="12.843276"><ele>114.6</ele><time>2026-03-22T11:48:18.699Z</time></trkpt><trkpt lat="43.8139576" lon="12.8431373"><ele>116.0</ele><time>2026-03-22T11:48:19.695Z</time></trkpt><trkpt lat="43.8140009" lon="12.8429759"><ele>116.0</ele><time>2026-03-22T11:48:20.69Z</time></trkpt><trkpt lat="43.8140109" lon="12.8428024"><ele>116.0</ele><time>2026-03-22T11:48:21.691Z</time></trkpt><trkpt lat="43.8140239" lon="12.8426322"><ele>116.0</ele><time>2026-03-22T11:48:22.693Z</time></trkpt><trkpt lat="43.8140312" lon="12.842471"><ele>116.0</ele><time>2026-03-22T11:48:23.697Z</time></trkpt><trkpt lat="43.8140363" lon="12.8423274"><ele>112.75</ele><time>2026-03-22T11:48:24.706Z</time></trkpt><trkpt lat="43.8140589" lon="12.8421863"><ele>109.5</ele><time>2026-03-22T11:48:25.702Z</time></trkpt><trkpt lat="43.8141179" lon="12.842054"><ele>106.25</ele><time>2026-03-22T11:48:26.701Z</time></trkpt><trkpt lat="43.8142056" lon="12.8419038"><ele>103.0</ele><time>2026-03-22T11:48:27.705Z</time></trkpt><trkpt lat="43.8142841" lon="12.841732"><ele>102.33333333333334</ele><time>2026-03-22T11:48:28.705Z</time></trkpt><trkpt lat="43.8143517" lon="12.8415436"><ele>101.66666666666666</ele><time>2026-03-22T11:48:29.711Z</time></trkpt><trkpt lat="43.8144254" lon="12.8413453"><ele>101.0</ele><time>2026-03-22T11:48:30.701Z</time></trkpt><trkpt lat="43.8145054" lon="12.8411591"><ele>101.0</ele><time>2026-03-22T11:48:31.699Z</time></trkpt><trkpt lat="43.8145791" lon="12.8410167"><ele>101.0</ele><time>2026-03-22T11:48:32.704Z</time></trkpt><trkpt lat="43.8146471" lon="12.8409102"><ele>101.0</ele><time>2026-03-22T11:48:33.707Z</time></trkpt><trkpt lat="43.8147157" lon="12.8408248"><ele>101.0</ele><time>2026-03-22T11:48:34.704Z</time></trkpt><trkpt lat="43.8147915" lon="12.8407801"><ele>101.0</ele><time>2026-03-22T11:48:35.705Z</time></trkpt><trkpt lat="43.8148875" lon="12.8408622"><ele>101.0</ele><time>2026-03-22T11:48:37.72Z</time></trkpt><trkpt lat="43.8149328" lon="12.8409728"><ele>101.0</ele><time>2026-03-22T11:48:38.715Z</time></trkpt><trkpt lat="43.8149999" lon="12.8411157"><ele>101.0</ele><time>2026-03-22T11:48:39.71Z</time></trkpt><trkpt lat="43.8150812" lon="12.8412566"><ele>101.0</ele><time>2026-03-22T11:48:40.711Z</time></trkpt><trkpt lat="43.8151821" lon="12.8413863"><ele>101.25</ele><time>2026-03-22T11:48:41.712Z</time></trkpt><trkpt lat="43.8152947" lon="12.8415145"><ele>101.5</ele><time>2026-03-22T11:48:42.718Z</time></trkpt><trkpt lat="43.8153992" lon="12.8416354"><ele>101.75</ele><time>2026-03-22T11:48:43.708Z</time></trkpt><trkpt lat="43.8155053" lon="12.8417571"><ele>102.0</ele><time>2026-03-22T11:48:44.709Z</time></trkpt><trkpt lat="43.8156001" lon="12.8418832"><ele>103.75</ele><time>2026-03-22T11:48:45.714Z</time></trkpt><trkpt lat="43.8156774" lon="12.8420167"><ele>105.5</ele><time>2026-03-22T11:48:46.712Z</time></trkpt><trkpt lat="43.8157307" lon="12.8421716"><ele>107.25</ele><time>2026-03-22T11:48:47.716Z</time></trkpt><trkpt lat="43.8157663" lon="12.842321"><ele>109.0</ele><time>2026-03-22T11:48:48.699Z</time></trkpt><trkpt lat="43.8158014" lon="12.8424602"><ele>109.0</ele><time>2026-03-22T11:48:49.697Z</time></trkpt><trkpt lat="43.8158525" lon="12.8425844"><ele>109.0</ele><time>2026-03-22T11:48:50.707Z</time></trkpt><trkpt lat="43.8159176" lon="12.8426734"><ele>109.0</ele><time>2026-03-22T11:48:51.706Z</time></trkpt><trkpt lat="43.815969" lon="12.8427273"><ele>109.0</ele><time>2026-03-22T11:48:52.697Z</time></trkpt><trkpt lat="43.8160522" lon="12.8426567"><ele>109.0</ele><time>2026-03-22T11:48:54.702Z</time></trkpt><trkpt lat="43.8161254" lon="12.8425113"><ele>108.0</ele><time>2026-03-22T11:48:55.699Z</time></trkpt><trkpt lat="43.8161999" lon="12.8423361"><ele>107.0</ele><time>2026-03-22T11:48:56.692Z</time></trkpt><trkpt lat="43.8162933" lon="12.8421482"><ele>106.0</ele><time>2026-03-22T11:48:57.686Z</time></trkpt><trkpt lat="43.8164089" lon="12.8419568"><ele>104.33333333333334</ele><time>2026-03-22T11:48:58.689Z</time></trkpt><trkpt lat="43.8165261" lon="12.8417856"><ele>102.66666666666666</ele><time>2026-03-22T11:48:59.692Z</time></trkpt><trkpt lat="43.8166673" lon="12.8416401"><ele>101.0</ele><time>2026-03-22T11:49:00.703Z</time></trkpt><trkpt lat="43.8168729" lon="12.8415668"><ele>101.0</ele><time>2026-03-22T11:49:01.689Z</time></trkpt><trkpt lat="43.8170308" lon="12.8415035"><ele>101.0</ele><time>2026-03-22T11:49:02.687Z</time></trkpt><trkpt lat="43.8171644" lon="12.8414584"><ele>101.0</ele><time>2026-03-22T11:49:03.688Z</time></trkpt><trkpt lat="43.8173093" lon="12.8414177"><ele>101.0</ele><time>2026-03-22T11:49:04.695Z</time></trkpt><trkpt lat="43.8174554" lon="12.8413732"><ele>101.0</ele><time>2026-03-22T11:49:05.7Z</time></trkpt><trkpt lat="43.8176121" lon="12.8413346"><ele>101.0</ele><time>2026-03-22T11:49:06.701Z</time></trkpt><trkpt lat="43.8177608" lon="12.8412933"><ele>101.75</ele><time>2026-03-22T11:49:07.704Z</time></trkpt><trkpt lat="43.8179079" lon="12.8412651"><ele>102.5</ele><time>2026-03-22T11:49:08.701Z</time></trkpt><trkpt lat="43.8180508" lon="12.8412545"><ele>103.25</ele><time>2026-03-22T11:49:09.699Z</time></trkpt><trkpt lat="43.8181976" lon="12.8412961"><ele>104.0</ele><time>2026-03-22T11:49:10.707Z</time></trkpt><trkpt lat="43.8183425" lon="12.8413416"><ele>104.0</ele><time>2026-03-22T11:49:11.699Z</time></trkpt><trkpt lat="43.8184683" lon="12.8413818"><ele>104.0</ele><time>2026-03-22T11:49:12.696Z</time></trkpt><trkpt lat="43.8185974" lon="12.841409"><ele>104.0</ele><time>2026-03-22T11:49:13.709Z</time></trkpt><trkpt lat="43.8187359" lon="12.8414281"><ele>104.0</ele><time>2026-03-22T11:49:14.703Z</time></trkpt><trkpt lat="43.8188647" lon="12.8414162"><ele>104.0</ele><time>2026-03-22T11:49:15.696Z</time></trkpt><trkpt lat="43.8189885" lon="12.8414035"><ele>104.0</ele><time>2026-03-22T11:49:16.706Z</time></trkpt><trkpt lat="43.8191131" lon="12.8413988"><ele>104.0</ele><time>2026-03-22T11:49:17.7Z</time></trkpt><trkpt lat="43.8192373" lon="12.8414066"><ele>104.0</ele><time>2026-03-22T11:49:18.698Z</time></trkpt><trkpt lat="43.8193883" lon="12.8414146"><ele>104.0</ele><time>2026-03-22T11:49:19.703Z</time></trkpt><trkpt lat="43.8195476" lon="12.8414292"><ele>104.0</ele><time>2026-03-22T11:49:20.705Z</time></trkpt><trkpt lat="43.8197033" lon="12.8414468"><ele>104.0</ele><time>2026-03-22T11:49:21.712Z</time></trkpt><trkpt lat="43.8198606" lon="12.8414525"><ele>104.0</ele><time>2026-03-22T11:49:22.702Z</time></trkpt><trkpt lat="43.8200301" lon="12.841481"><ele>104.0</ele><time>2026-03-22T11:49:23.701Z</time></trkpt><trkpt lat="43.8201907" lon="12.8415123"><ele>104.0</ele><time>2026-03-22T11:49:24.711Z</time></trkpt><trkpt lat="43.8203479" lon="12.8415698"><ele>102.0</ele><time>2026-03-22T11:49:25.703Z</time></trkpt><trkpt lat="43.8205107" lon="12.8416399"><ele>100.0</ele><time>2026-03-22T11:49:26.703Z</time></trkpt><trkpt lat="43.8206584" lon="12.8416961"><ele>98.0</ele><time>2026-03-22T11:49:27.708Z</time></trkpt><trkpt lat="43.8208052" lon="12.841746"><ele>98.0</ele><time>2026-03-22T11:49:28.707Z</time></trkpt><trkpt lat="43.8209526" lon="12.8417622"><ele>98.0</ele><time>2026-03-22T11:49:29.706Z</time></trkpt><trkpt lat="43.8210916" lon="12.8417289"><ele>98.0</ele><time>2026-03-22T11:49:30.718Z</time></trkpt><trkpt lat="43.8212107" lon="12.8416804"><ele>98.0</ele><time>2026-03-22T11:49:31.702Z</time></trkpt><trkpt lat="43.821336" lon="12.8416257"><ele>97.75</ele><time>2026-03-22T11:49:32.706Z</time></trkpt><trkpt lat="43.8214599" lon="12.8415936"><ele>97.5</ele><time>2026-03-22T11:49:33.715Z</time></trkpt><trkpt lat="43.8215748" lon="12.841593"><ele>97.25</ele><time>2026-03-22T11:49:34.718Z</time></trkpt><trkpt lat="43.8216821" lon="12.8416069"><ele>97.0</ele><time>2026-03-22T11:49:35.715Z</time></trkpt><trkpt lat="43.821788" lon="12.8416493"><ele>96.25</ele><time>2026-03-22T11:49:36.708Z</time></trkpt><trkpt lat="43.8218988" lon="12.8416974"><ele>95.5</ele><time>2026-03-22T11:49:37.718Z</time></trkpt><trkpt lat="43.8220198" lon="12.8417453"><ele>94.75</ele><time>2026-03-22T11:49:38.705Z</time></trkpt><trkpt lat="43.8221341" lon="12.8417896"><ele>94.0</ele><time>2026-03-22T11:49:39.703Z</time></trkpt><trkpt lat="43.8222435" lon="12.8418307"><ele>94.0</ele><time>2026-03-22T11:49:40.71Z</time></trkpt><trkpt lat="43.822341" lon="12.8418662"><ele>94.0</ele><time>2026-03-22T11:49:41.705Z</time></trkpt><trkpt lat="43.8224299" lon="12.841897"><ele>94.0</ele><time>2026-03-22T11:49:42.718Z</time></trkpt><trkpt lat="43.8224983" lon="12.8419205"><ele>94.0</ele><time>2026-03-22T11:49:43.719Z</time></trkpt><trkpt lat="43.8225811" lon="12.8419126"><ele>94.0</ele><time>2026-03-22T11:49:45.71Z</time></trkpt><trkpt lat="43.8226461" lon="12.8417785"><ele>93.0</ele><time>2026-03-22T11:49:47.715Z</time></trkpt><trkpt lat="43.8226582" lon="12.8416318"><ele>92.0</ele><time>2026-03-22T11:49:48.711Z</time></trkpt><trkpt lat="43.8226748" lon="12.8414746"><ele>91.0</ele><time>2026-03-22T11:49:49.722Z</time></trkpt><trkpt lat="43.8227001" lon="12.8413064"><ele>90.0</ele><time>2026-03-22T11:49:50.714Z</time></trkpt><trkpt lat="43.8227324" lon="12.841134"><ele>90.25</ele><time>2026-03-22T11:49:51.712Z</time></trkpt><trkpt lat="43.8227526" lon="12.8409642"><ele>90.5</ele><time>2026-03-22T11:49:52.722Z</time></trkpt><trkpt lat="43.822751" lon="12.8408034"><ele>90.75</ele><time>2026-03-22T11:49:53.717Z</time></trkpt><trkpt lat="43.8227295" lon="12.8406548"><ele>91.0</ele><time>2026-03-22T11:49:54.723Z</time></trkpt><trkpt lat="43.8226758" lon="12.8405232"><ele>91.0</ele><time>2026-03-22T11:49:55.716Z</time></trkpt><trkpt lat="43.8226076" lon="12.8403995"><ele>91.0</ele><time>2026-03-22T11:49:56.712Z</time></trkpt><trkpt lat="43.8225545" lon="12.8402938"><ele>91.0</ele><time>2026-03-22T11:49:57.714Z</time></trkpt><trkpt lat="43.8225149" lon="12.8401731"><ele>91.0</ele><time>2026-03-22T11:49:58.712Z</time></trkpt><trkpt lat="43.8225158" lon="12.8400554"><ele>91.0</ele><time>2026-03-22T11:49:59.706Z</time></trkpt><trkpt lat="43.822521" lon="12.8399373"><ele>91.0</ele><time>2026-03-22T11:50:00.712Z</time></trkpt><trkpt lat="43.8225012" lon="12.8398232"><ele>91.0</ele><time>2026-03-22T11:50:01.712Z</time></trkpt><trkpt lat="43.8224668" lon="12.8397237"><ele>91.0</ele><time>2026-03-22T11:50:02.698Z</time></trkpt><trkpt lat="43.8224103" lon="12.8396188"><ele>91.0</ele><time>2026-03-22T11:50:03.696Z</time></trkpt><trkpt lat="43.8223635" lon="12.8395002"><ele>91.0</ele><time>2026-03-22T11:50:04.715Z</time></trkpt><trkpt lat="43.8223262" lon="12.8393552"><ele>91.8</ele><time>2026-03-22T11:50:05.709Z</time></trkpt><trkpt lat="43.8222992" lon="12.8391946"><ele>92.6</ele><time>2026-03-22T11:50:06.705Z</time></trkpt><trkpt lat="43.8222821" lon="12.8390301"><ele>93.4</ele><time>2026-03-22T11:50:07.702Z</time></trkpt><trkpt lat="43.8222755" lon="12.8388919"><ele>94.2</ele><time>2026-03-22T11:50:08.707Z</time></trkpt><trkpt lat="43.8222753" lon="12.8387819"><ele>95.0</ele><time>2026-03-22T11:50:09.706Z</time></trkpt><trkpt lat="43.8223528" lon="12.8387286"><ele>95.0</ele><time>2026-03-22T11:50:11.712Z</time></trkpt><trkpt lat="43.8224236" lon="12.8387443"><ele>95.0</ele><time>2026-03-22T11:50:12.716Z</time></trkpt><trkpt lat="43.8225428" lon="12.8387796"><ele>95.0</ele><time>2026-03-22T11:50:13.708Z</time></trkpt><trkpt lat="43.8226685" lon="12.8388162"><ele>95.0</ele><time>2026-03-22T11:50:14.703Z</time></trkpt><trkpt lat="43.8228027" lon="12.8388527"><ele>95.5</ele><time>2026-03-22T11:50:15.717Z</time></trkpt><trkpt lat="43.8229463" lon="12.8388883"><ele>96.0</ele><time>2026-03-22T11:50:16.707Z</time></trkpt><trkpt lat="43.8230897" lon="12.8389272"><ele>96.5</ele><time>2026-03-22T11:50:17.713Z</time></trkpt><trkpt lat="43.8232393" lon="12.8389782"><ele>97.0</ele><time>2026-03-22T11:50:18.714Z</time></trkpt><trkpt lat="43.8233849" lon="12.8390819"><ele>96.66666666666667</ele><time>2026-03-22T11:50:19.713Z</time></trkpt><trkpt lat="43.8235241" lon="12.8392355"><ele>96.33333333333334</ele><time>2026-03-22T11:50:20.709Z</time></trkpt><trkpt lat="43.8236471" lon="12.8393885"><ele>96.0</ele><time>2026-03-22T11:50:21.708Z</time></trkpt><trkpt lat="43.8237678" lon="12.8394962"><ele>95.0</ele><time>2026-03-22T11:50:22.711Z</time></trkpt><trkpt lat="43.823892" lon="12.8395867"><ele>94.0</ele><time>2026-03-22T11:50:23.711Z</time></trkpt><trkpt lat="43.8240373" lon="12.8396505"><ele>93.0</ele><time>2026-03-22T11:50:24.701Z</time></trkpt><trkpt lat="43.8241769" lon="12.8397076"><ele>92.0</ele><time>2026-03-22T11:50:25.699Z</time></trkpt><trkpt lat="43.8243072" lon="12.8397706"><ele>92.0</ele><time>2026-03-22T11:50:26.704Z</time></trkpt><trkpt lat="43.8244629" lon="12.8398238"><ele>92.0</ele><time>2026-03-22T11:50:27.702Z</time></trkpt><trkpt lat="43.82461" lon="12.8398866"><ele>92.0</ele><time>2026-03-22T11:50:28.709Z</time></trkpt><trkpt lat="43.8247663" lon="12.8399451"><ele>92.0</ele><time>2026-03-22T11:50:29.705Z</time></trkpt><trkpt lat="43.8249146" lon="12.8400255"><ele>92.0</ele><time>2026-03-22T11:50:30.702Z</time></trkpt><trkpt lat="43.8250732" lon="12.8401161"><ele>92.0</ele><time>2026-03-22T11:50:31.702Z</time></trkpt><trkpt lat="43.8252293" lon="12.8402147"><ele>91.33333333333334</ele><time>2026-03-22T11:50:32.704Z</time></trkpt><trkpt lat="43.8253793" lon="12.8402956"><ele>90.66666666666667</ele><time>2026-03-22T11:50:33.701Z</time></trkpt><trkpt lat="43.8255223" lon="12.840374"><ele>90.0</ele><time>2026-03-22T11:50:34.702Z</time></trkpt><trkpt lat="43.8256663" lon="12.8404598"><ele>90.0</ele><time>2026-03-22T11:50:35.703Z</time></trkpt><trkpt lat="43.8258198" lon="12.8405447"><ele>90.0</ele><time>2026-03-22T11:50:36.706Z</time></trkpt><trkpt lat="43.8259704" lon="12.8406269"><ele>90.0</ele><time>2026-03-22T11:50:37.708Z</time></trkpt><trkpt lat="43.8261252" lon="12.840704"><ele>91.0</ele><time>2026-03-22T11:50:38.702Z</time></trkpt><trkpt lat="43.8262758" lon="12.8407742"><ele>92.0</ele><time>2026-03-22T11:50:39.704Z</time></trkpt><trkpt lat="43.8264166" lon="12.8408439"><ele>93.0</ele><time>2026-03-22T11:50:40.708Z</time></trkpt><trkpt lat="43.8265599" lon="12.8409224"><ele>92.0</ele><time>2026-03-22T11:50:41.707Z</time></trkpt><trkpt lat="43.8267101" lon="12.84102"><ele>91.0</ele><time>2026-03-22T11:50:42.7Z</time></trkpt><trkpt lat="43.8268347" lon="12.8411221"><ele>90.0</ele><time>2026-03-22T11:50:43.69Z</time></trkpt><trkpt lat="43.8269521" lon="12.841193"><ele>89.0</ele><time>2026-03-22T11:50:44.703Z</time></trkpt><trkpt lat="43.8270851" lon="12.8413087"><ele>89.0</ele><time>2026-03-22T11:50:45.694Z</time></trkpt><trkpt lat="43.8272117" lon="12.8414048"><ele>89.0</ele><time>2026-03-22T11:50:46.707Z</time></trkpt><trkpt lat="43.8273564" lon="12.8414618"><ele>89.0</ele><time>2026-03-22T11:50:47.698Z</time></trkpt><trkpt lat="43.8275086" lon="12.8415249"><ele>88.66666666666667</ele><time>2026-03-22T11:50:48.696Z</time></trkpt><trkpt lat="43.8276518" lon="12.8415835"><ele>88.33333333333333</ele><time>2026-03-22T11:50:49.705Z</time></trkpt><trkpt lat="43.8277981" lon="12.8416206"><ele>88.0</ele><time>2026-03-22T11:50:50.7Z</time></trkpt><trkpt lat="43.8279514" lon="12.8416679"><ele>88.0</ele><time>2026-03-22T11:50:51.7Z</time></trkpt><trkpt lat="43.8281183" lon="12.8417213"><ele>88.0</ele><time>2026-03-22T11:50:52.708Z</time></trkpt><trkpt lat="43.8282482" lon="12.8417722"><ele>88.0</ele><time>2026-03-22T11:50:53.703Z</time></trkpt><trkpt lat="43.8283967" lon="12.8418083"><ele>87.5</ele><time>2026-03-22T11:50:54.725Z</time></trkpt><trkpt lat="43.8285223" lon="12.841825"><ele>87.0</ele><time>2026-03-22T11:50:55.708Z</time></trkpt><trkpt lat="43.8286712" lon="12.8418742"><ele>86.5</ele><time>2026-03-22T11:50:56.711Z</time></trkpt><trkpt lat="43.8288132" lon="12.8419598"><ele>86.0</ele><time>2026-03-22T11:50:57.709Z</time></trkpt><trkpt lat="43.8289532" lon="12.8420414"><ele>86.0</ele><time>2026-03-22T11:50:58.71Z</time></trkpt><trkpt lat="43.8290725" lon="12.8421371"><ele>86.0</ele><time>2026-03-22T11:50:59.714Z</time></trkpt><trkpt lat="43.8291743" lon="12.8422773"><ele>86.0</ele><time>2026-03-22T11:51:00.707Z</time></trkpt><trkpt lat="43.8292494" lon="12.842454"><ele>86.0</ele><time>2026-03-22T11:51:01.703Z</time></trkpt><trkpt lat="43.8292917" lon="12.8426505"><ele>87.33333333333334</ele><time>2026-03-22T11:51:02.699Z</time></trkpt><trkpt lat="43.8293767" lon="12.8428135"><ele>88.66666666666667</ele><time>2026-03-22T11:51:03.715Z</time></trkpt><trkpt lat="43.8295267" lon="12.8429333"><ele>90.0</ele><time>2026-03-22T11:51:04.701Z</time></trkpt><trkpt lat="43.8296501" lon="12.8430443"><ele>90.0</ele><time>2026-03-22T11:51:05.711Z</time></trkpt><trkpt lat="43.8297276" lon="12.8431134"><ele>90.0</ele><time>2026-03-22T11:51:06.71Z</time></trkpt><trkpt lat="43.8298327" lon="12.8432033"><ele>90.0</ele><time>2026-03-22T11:51:07.714Z</time></trkpt><trkpt lat="43.8299514" lon="12.8433694"><ele>90.0</ele><time>2026-03-22T11:51:08.716Z</time></trkpt><trkpt lat="43.8300365" lon="12.8435762"><ele>89.5</ele><time>2026-03-22T11:51:09.703Z</time></trkpt><trkpt lat="43.8301232" lon="12.8437647"><ele>89.0</ele><time>2026-03-22T11:51:10.727Z</time></trkpt><trkpt lat="43.8302427" lon="12.8439014"><ele>88.5</ele><time>2026-03-22T11:51:11.713Z</time></trkpt><trkpt lat="43.8303271" lon="12.8440133"><ele>88.0</ele><time>2026-03-22T11:51:12.706Z</time></trkpt><trkpt lat="43.8304006" lon="12.8441003"><ele>88.80000000000001</ele><time>2026-03-22T11:51:13.705Z</time></trkpt><trkpt lat="43.8304996" lon="12.8441012"><ele>89.6</ele><time>2026-03-22T11:51:14.709Z</time></trkpt><trkpt lat="43.830622" lon="12.8440618"><ele>90.4</ele><time>2026-03-22T11:51:15.704Z</time></trkpt><trkpt lat="43.8307643" lon="12.8440223"><ele>91.19999999999999</ele><time>2026-03-22T11:51:16.701Z</time></trkpt><trkpt lat="43.830817" lon="12.8439544"><ele>92.0</ele><time>2026-03-22T11:51:17.713Z</time></trkpt><trkpt lat="43.8308899" lon="12.8438555"><ele>92.0</ele><time>2026-03-22T11:51:18.709Z</time></trkpt><trkpt lat="43.8309569" lon="12.8437526"><ele>92.0</ele><time>2026-03-22T11:51:19.699Z</time></trkpt><trkpt lat="43.8310385" lon="12.8436286"><ele>92.0</ele><time>2026-03-22T11:51:20.705Z</time></trkpt><trkpt lat="43.8311347" lon="12.8435195"><ele>92.0</ele><time>2026-03-22T11:51:21.704Z</time></trkpt><trkpt lat="43.8312332" lon="12.843423"><ele>93.19999999999999</ele><time>2026-03-22T11:51:22.71Z</time></trkpt><trkpt lat="43.8313351" lon="12.8433288"><ele>94.4</ele><time>2026-03-22T11:51:23.705Z</time></trkpt><trkpt lat="43.8314327" lon="12.8432456"><ele>95.6</ele><time>2026-03-22T11:51:24.717Z</time></trkpt><trkpt lat="43.8315248" lon="12.8431923"><ele>96.80000000000001</ele><time>2026-03-22T11:51:25.712Z</time></trkpt><trkpt lat="43.8316137" lon="12.8431886"><ele>98.0</ele><time>2026-03-22T11:51:26.706Z</time></trkpt><trkpt lat="43.831691" lon="12.8432134"><ele>98.0</ele><time>2026-03-22T11:51:27.715Z</time></trkpt><trkpt lat="43.8317586" lon="12.8432999"><ele>98.0</ele><time>2026-03-22T11:51:28.714Z</time></trkpt><trkpt lat="43.8317859" lon="12.8434371"><ele>98.0</ele><time>2026-03-22T11:51:29.705Z</time></trkpt><trkpt lat="43.8318103" lon="12.8435775"><ele>98.0</ele><time>2026-03-22T11:51:30.709Z</time></trkpt><trkpt lat="43.8318544" lon="12.8437086"><ele>98.0</ele><time>2026-03-22T11:51:31.711Z</time></trkpt><trkpt lat="43.8318886" lon="12.8438509"><ele>98.0</ele><time>2026-03-22T11:51:32.707Z</time></trkpt><trkpt lat="43.8319534" lon="12.8439447"><ele>98.0</ele><time>2026-03-22T11:51:33.71Z</time></trkpt><trkpt lat="43.832056" lon="12.8440482"><ele>98.0</ele><time>2026-03-22T11:51:34.707Z</time></trkpt><trkpt lat="43.8321562" lon="12.84418"><ele>98.0</ele><time>2026-03-22T11:51:35.705Z</time></trkpt><trkpt lat="43.8322366" lon="12.8443202"><ele>95.66666666666666</ele><time>2026-03-22T11:51:36.7Z</time></trkpt><trkpt lat="43.8323092" lon="12.8445022"><ele>93.33333333333333</ele><time>2026-03-22T11:51:37.711Z</time></trkpt><trkpt lat="43.8324" lon="12.8446876"><ele>91.0</ele><time>2026-03-22T11:51:38.704Z</time></trkpt><trkpt lat="43.8324985" lon="12.8448348"><ele>91.0</ele><time>2026-03-22T11:51:39.695Z</time></trkpt><trkpt lat="43.8326078" lon="12.8449525"><ele>91.0</ele><time>2026-03-22T11:51:40.696Z</time></trkpt><trkpt lat="43.8327068" lon="12.8450595"><ele>91.0</ele><time>2026-03-22T11:51:41.702Z</time></trkpt><trkpt lat="43.8327606" lon="12.8451787"><ele>91.0</ele><time>2026-03-22T11:51:42.703Z</time></trkpt><trkpt lat="43.8328566" lon="12.845261"><ele>90.8</ele><time>2026-03-22T11:51:43.707Z</time></trkpt><trkpt lat="43.8329775" lon="12.8453358"><ele>90.6</ele><time>2026-03-22T11:51:44.714Z</time></trkpt><trkpt lat="43.8330572" lon="12.8454291"><ele>90.4</ele><time>2026-03-22T11:51:45.699Z</time></trkpt><trkpt lat="43.833139" lon="12.8454932"><ele>90.2</ele><time>2026-03-22T11:51:46.715Z</time></trkpt><trkpt lat="43.8332119" lon="12.8455592"><ele>90.0</ele><time>2026-03-22T11:51:47.711Z</time></trkpt><trkpt lat="43.8333095" lon="12.8456168"><ele>90.0</ele><time>2026-03-22T11:51:49.709Z</time></trkpt><trkpt lat="43.8333522" lon="12.8457402"><ele>90.0</ele><time>2026-03-22T11:51:50.709Z</time></trkpt><trkpt lat="43.8333893" lon="12.8458937"><ele>90.0</ele><time>2026-03-22T11:51:51.707Z</time></trkpt><trkpt lat="43.8334196" lon="12.8460432"><ele>90.0</ele><time>2026-03-22T11:51:52.708Z</time></trkpt><trkpt lat="43.8334921" lon="12.8462269"><ele>88.0</ele><time>2026-03-22T11:51:53.706Z</time></trkpt><trkpt lat="43.8335072" lon="12.8465071"><ele>86.0</ele><time>2026-03-22T11:51:54.715Z</time></trkpt><trkpt lat="43.8335181" lon="12.8467688"><ele>84.0</ele><time>2026-03-22T11:51:55.712Z</time></trkpt><trkpt lat="43.8335461" lon="12.8470546"><ele>83.66666666666667</ele><time>2026-03-22T11:51:56.706Z</time></trkpt><trkpt lat="43.8335391" lon="12.8472855"><ele>83.33333333333334</ele><time>2026-03-22T11:51:57.711Z</time></trkpt><trkpt lat="43.8334729" lon="12.84749"><ele>83.0</ele><time>2026-03-22T11:51:58.707Z</time></trkpt><trkpt lat="43.8334513" lon="12.8477042"><ele>82.0</ele><time>2026-03-22T11:51:59.712Z</time></trkpt><trkpt lat="43.8334592" lon="12.8479316"><ele>81.0</ele><time>2026-03-22T11:52:00.713Z</time></trkpt><trkpt lat="43.8334897" lon="12.8482624"><ele>80.0</ele><time>2026-03-22T11:52:01.711Z</time></trkpt><trkpt lat="43.8334984" lon="12.8485057"><ele>79.33333333333334</ele><time>2026-03-22T11:52:02.711Z</time></trkpt><trkpt lat="43.8335411" lon="12.8487068"><ele>78.66666666666667</ele><time>2026-03-22T11:52:03.721Z</time></trkpt><trkpt lat="43.8336167" lon="12.848872"><ele>78.0</ele><time>2026-03-22T11:52:04.712Z</time></trkpt><trkpt lat="43.833625" lon="12.8490924"><ele>78.33333333333333</ele><time>2026-03-22T11:52:05.723Z</time></trkpt><trkpt lat="43.8336416" lon="12.8493488"><ele>78.66666666666666</ele><time>2026-03-22T11:52:06.709Z</time></trkpt><trkpt lat="43.8336663" lon="12.8496069"><ele>79.0</ele><time>2026-03-22T11:52:07.703Z</time></trkpt><trkpt lat="43.8336772" lon="12.8498375"><ele>79.0</ele><time>2026-03-22T11:52:08.702Z</time></trkpt><trkpt lat="43.8336994" lon="12.8500417"><ele>79.0</ele><time>2026-03-22T11:52:09.702Z</time></trkpt><trkpt lat="43.8337311" lon="12.8502595"><ele>79.0</ele><time>2026-03-22T11:52:10.698Z</time></trkpt><trkpt lat="43.8337586" lon="12.85046"><ele>78.5</ele><time>2026-03-22T11:52:11.707Z</time></trkpt><trkpt lat="43.8337779" lon="12.8506545"><ele>78.0</ele><time>2026-03-22T11:52:12.703Z</time></trkpt><trkpt lat="43.8338033" lon="12.8508686"><ele>77.5</ele><time>2026-03-22T11:52:13.706Z</time></trkpt><trkpt lat="43.8338272" lon="12.8510661"><ele>77.0</ele><time>2026-03-22T11:52:14.703Z</time></trkpt><trkpt lat="43.8338388" lon="12.8512307"><ele>77.0</ele><time>2026-03-22T11:52:15.709Z</time></trkpt><trkpt lat="43.8338528" lon="12.8514224"><ele>77.0</ele><time>2026-03-22T11:52:17.716Z</time></trkpt><trkpt lat="43.8338922" lon="12.8515294"><ele>77.0</ele><time>2026-03-22T11:52:18.712Z</time></trkpt><trkpt lat="43.8339162" lon="12.8517744"><ele>77.0</ele><time>2026-03-22T11:52:19.712Z</time></trkpt><trkpt lat="43.8339207" lon="12.8520121"><ele>76.75</ele><time>2026-03-22T11:52:20.7Z</time></trkpt><trkpt lat="43.8339531" lon="12.8522244"><ele>76.5</ele><time>2026-03-22T11:52:21.699Z</time></trkpt><trkpt lat="43.8339792" lon="12.8523899"><ele>76.25</ele><time>2026-03-22T11:52:22.718Z</time></trkpt><trkpt lat="43.8339844" lon="12.8525689"><ele>76.0</ele><time>2026-03-22T11:52:23.715Z</time></trkpt><trkpt lat="43.8340028" lon="12.8527675"><ele>75.66666666666666</ele><time>2026-03-22T11:52:24.727Z</time></trkpt><trkpt lat="43.8340129" lon="12.8529849"><ele>75.33333333333333</ele><time>2026-03-22T11:52:25.715Z</time></trkpt><trkpt lat="43.8340089" lon="12.8532121"><ele>75.0</ele><time>2026-03-22T11:52:26.711Z</time></trkpt><trkpt lat="43.8340035" lon="12.8534346"><ele>74.5</ele><time>2026-03-22T11:52:27.716Z</time></trkpt><trkpt lat="43.833969" lon="12.8536376"><ele>74.0</ele><time>2026-03-22T11:52:28.721Z</time></trkpt><trkpt lat="43.8339464" lon="12.8537425"><ele>73.5</ele><time>2026-03-22T11:52:29.715Z</time></trkpt><trkpt lat="43.833883" lon="12.8538947"><ele>73.0</ele><time>2026-03-22T11:52:30.718Z</time></trkpt><trkpt lat="43.8337963" lon="12.8540522"><ele>73.0</ele><time>2026-03-22T11:52:31.708Z</time></trkpt><trkpt lat="43.833752" lon="12.8542841"><ele>73.0</ele><time>2026-03-22T11:52:32.72Z</time></trkpt><trkpt lat="43.8337342" lon="12.8544679"><ele>73.0</ele><time>2026-03-22T11:52:33.716Z</time></trkpt><trkpt lat="43.8337369" lon="12.8546414"><ele>73.0</ele><time>2026-03-22T11:52:34.709Z</time></trkpt><trkpt lat="43.8337909" lon="12.8548022"><ele>73.25</ele><time>2026-03-22T11:52:35.707Z</time></trkpt><trkpt lat="43.8338591" lon="12.8549747"><ele>73.5</ele><time>2026-03-22T11:52:36.71Z</time></trkpt><trkpt lat="43.8338955" lon="12.8551051"><ele>73.75</ele><time>2026-03-22T11:52:37.709Z</time></trkpt><trkpt lat="43.833934" lon="12.8552526"><ele>74.0</ele><time>2026-03-22T11:52:38.712Z</time></trkpt><trkpt lat="43.8339535" lon="12.8554067"><ele>73.66666666666667</ele><time>2026-03-22T11:52:39.715Z</time></trkpt><trkpt lat="43.8339577" lon="12.855533"><ele>73.33333333333334</ele><time>2026-03-22T11:52:40.711Z</time></trkpt><trkpt lat="43.8339163" lon="12.8556731"><ele>73.0</ele><time>2026-03-22T11:52:42.709Z</time></trkpt><trkpt lat="43.8338734" lon="12.8557635"><ele>72.66666666666667</ele><time>2026-03-22T11:52:44.714Z</time></trkpt><trkpt lat="43.833817" lon="12.8558046"><ele>72.33333333333333</ele><time>2026-03-22T11:52:45.717Z</time></trkpt><trkpt lat="43.8337704" lon="12.8558697"><ele>72.0</ele><time>2026-03-22T11:52:47.712Z</time></trkpt><trkpt lat="43.8337607" lon="12.8559878"><ele>72.0</ele><time>2026-03-22T11:52:50.725Z</time></trkpt><trkpt lat="43.8338068" lon="12.8560687"><ele>72.0</ele><time>2026-03-22T11:52:52.724Z</time></trkpt><trkpt lat="43.8338137" lon="12.8559074"><ele>72.0</ele><time>2026-03-22T11:53:05.7Z</time></trkpt><trkpt lat="43.833742" lon="12.8558528"><ele>72.0</ele><time>2026-03-22T11:53:08.702Z</time></trkpt><trkpt lat="43.8336702" lon="12.8559062"><ele>72.0</ele><time>2026-03-22T11:53:28.714Z</time></trkpt><trkpt lat="43.8337231" lon="12.8558301"><ele>72.0</ele><time>2026-03-22T11:53:43.7Z</time></trkpt><trkpt lat="43.8336957" lon="12.8557444"><ele>72.0</ele><time>2026-03-22T11:53:47.712Z</time></trkpt><trkpt lat="43.8336906" lon="12.8558339"><ele>72.0</ele><time>2026-03-22T11:54:10.704Z</time></trkpt><trkpt lat="43.8337363" lon="12.8557353"><ele>72.0</ele><time>2026-03-22T11:54:45.713Z</time></trkpt><trkpt lat="43.8338212" lon="12.8557482"><ele>72.0</ele><time>2026-03-22T11:54:48.716Z</time></trkpt><trkpt lat="43.8337501" lon="12.8557448"><ele>72.0</ele><time>2026-03-22T11:54:56.715Z</time></trkpt><trkpt lat="43.8337498" lon="12.8559416"><ele>72.0</ele><time>2026-03-22T11:55:09.703Z</time></trkpt><trkpt lat="43.8337652" lon="12.8560412"><ele>72.0</ele><time>2026-03-22T11:55:10.718Z</time></trkpt><trkpt lat="43.8337977" lon="12.856127"><ele>72.0</ele><time>2026-03-22T11:55:11.709Z</time></trkpt><trkpt lat="43.8338417" lon="12.8561914"><ele>72.0</ele><time>2026-03-22T11:55:12.711Z</time></trkpt><trkpt lat="43.8338745" lon="12.8560976"><ele>72.0</ele><time>2026-03-22T11:55:29.684Z</time></trkpt><trkpt lat="43.8338486" lon="12.8560143"><ele>72.0</ele><time>2026-03-22T11:55:31.683Z</time></trkpt><trkpt lat="43.8337713" lon="12.8558467"><ele>72.0</ele><time>2026-03-22T11:55:34.683Z</time></trkpt><trkpt lat="43.8337411" lon="12.8557273"><ele>72.0</ele><time>2026-03-22T11:55:35.679Z</time></trkpt><trkpt lat="43.8338052" lon="12.8557641"><ele>72.0</ele><time>2026-03-22T11:55:52.71Z</time></trkpt><trkpt lat="43.8338155" lon="12.8558523"><ele>72.0</ele><time>2026-03-22T11:56:02.716Z</time></trkpt><trkpt lat="43.833824" lon="12.8559393"><ele>72.0</ele><time>2026-03-22T11:56:05.71Z</time></trkpt><trkpt lat="43.8339109" lon="12.8559178"><ele>72.0</ele><time>2026-03-22T11:56:08.695Z</time></trkpt><trkpt lat="43.8338503" lon="12.855877"><ele>72.0</ele><time>2026-03-22T11:56:45.691Z</time></trkpt><trkpt lat="43.8338865" lon="12.8560096"><ele>71.2</ele><time>2026-03-22T11:56:48.703Z</time></trkpt><trkpt lat="43.833942" lon="12.8561551"><ele>70.4</ele><time>2026-03-22T11:56:49.694Z</time></trkpt><trkpt lat="43.8339856" lon="12.8562637"><ele>69.6</ele><time>2026-03-22T11:56:50.699Z</time></trkpt><trkpt lat="43.8340655" lon="12.856331"><ele>68.8</ele><time>2026-03-22T11:56:52.717Z</time></trkpt><trkpt lat="43.8339962" lon="12.8563104"><ele>68.0</ele><time>2026-03-22T11:57:01.695Z</time></trkpt><trkpt lat="43.8339141" lon="12.8563321"><ele>68.0</ele><time>2026-03-22T11:57:05.689Z</time></trkpt><trkpt lat="43.8339391" lon="12.8562407"><ele>68.0</ele><time>2026-03-22T11:57:10.709Z</time></trkpt><trkpt lat="43.8338711" lon="12.8561485"><ele>68.0</ele><time>2026-03-22T11:57:26.687Z</time></trkpt><trkpt lat="43.8338298" lon="12.8560489"><ele>68.0</ele><time>2026-03-22T11:57:29.684Z</time></trkpt><trkpt lat="43.833873" lon="12.8559823"><ele>68.0</ele><time>2026-03-22T11:57:32.702Z</time></trkpt><trkpt lat="43.8338947" lon="12.8558985"><ele>68.0</ele><time>2026-03-22T11:57:36.712Z</time></trkpt><trkpt lat="43.833819" lon="12.8558996"><ele>68.0</ele><time>2026-03-22T11:58:46.711Z</time></trkpt><trkpt lat="43.8337715" lon="12.855832"><ele>68.0</ele><time>2026-03-22T11:58:58.706Z</time></trkpt><trkpt lat="43.8337652" lon="12.8559409"><ele>68.0</ele><time>2026-03-22T11:59:19.711Z</time></trkpt><trkpt lat="43.8337707" lon="12.8560522"><ele>68.0</ele><time>2026-03-22T11:59:21.708Z</time></trkpt><trkpt lat="43.8337331" lon="12.8561371"><ele>68.0</ele><time>2026-03-22T11:59:22.712Z</time></trkpt><trkpt lat="43.8336959" lon="12.8562154"><ele>68.0</ele><time>2026-03-22T11:59:23.702Z</time></trkpt><trkpt lat="43.833686" lon="12.8560827"><ele>68.0</ele><time>2026-03-22T11:59:58.686Z</time></trkpt><trkpt lat="43.8337202" lon="12.8559718"><ele>68.0</ele><time>2026-03-22T12:00:00.666Z</time></trkpt><trkpt lat="43.833777" lon="12.8559065"><ele>68.0</ele><time>2026-03-22T12:00:03.683Z</time></trkpt><trkpt lat="43.8338258" lon="12.8559941"><ele>68.0</ele><time>2026-03-22T12:00:11.709Z</time></trkpt><trkpt lat="43.8338505" lon="12.8560795"><ele>68.0</ele><time>2026-03-22T12:00:13.711Z</time></trkpt><trkpt lat="43.8338702" lon="12.855986"><ele>68.0</ele><time>2026-03-22T12:00:15.713Z</time></trkpt><trkpt lat="43.8339216" lon="12.8558706"><ele>68.66666666666667</ele><time>2026-03-22T12:00:16.715Z</time></trkpt><trkpt lat="43.8339512" lon="12.8557716"><ele>69.33333333333334</ele><time>2026-03-22T12:00:18.719Z</time></trkpt><trkpt lat="43.8339208" lon="12.8558498"><ele>70.0</ele><time>2026-03-22T12:00:27.694Z</time></trkpt><trkpt lat="43.8338529" lon="12.8558299"><ele>70.66666666666667</ele><time>2026-03-22T12:00:48.699Z</time></trkpt><trkpt lat="43.8338956" lon="12.855935"><ele>71.33333333333333</ele><time>2026-03-22T12:00:52.707Z</time></trkpt><trkpt lat="43.8338048" lon="12.8559356"><ele>72.0</ele><time>2026-03-22T12:01:48.681Z</time></trkpt><trkpt lat="43.8338108" lon="12.8558302"><ele>72.00000000000001</ele><time>2026-03-22T12:01:50.688Z</time></trkpt><trkpt lat="43.8337436" lon="12.8558076"><ele>72.0</ele><time>2026-03-22T12:03:45.724Z</time></trkpt><trkpt lat="43.8337822" lon="12.8557229"><ele>72.0</ele><time>2026-03-22T12:04:15.714Z</time></trkpt><trkpt lat="43.8338094" lon="12.855622"><ele>72.0</ele><time>2026-03-22T12:04:21.697Z</time></trkpt><trkpt lat="43.8338125" lon="12.855712"><ele>72.0</ele><time>2026-03-22T12:04:36.695Z</time></trkpt><trkpt lat="43.8338449" lon="12.8558064"><ele>72.00000000000001</ele><time>2026-03-22T12:04:41.709Z</time></trkpt><trkpt lat="43.8338077" lon="12.855696"><ele>72.0</ele><time>2026-03-22T12:05:44.704Z</time></trkpt><trkpt lat="43.8338008" lon="12.8555879"><ele>72.0</ele><time>2026-03-22T12:05:46.7Z</time></trkpt><trkpt lat="43.8338317" lon="12.8556685"><ele>72.0</ele><time>2026-03-22T12:05:52.702Z</time></trkpt><trkpt lat="43.8337776" lon="12.8557774"><ele>72.0</ele><time>2026-03-22T12:06:10.697Z</time></trkpt><trkpt lat="43.8336841" lon="12.855826"><ele>72.0</ele><time>2026-03-22T12:06:12.7Z</time></trkpt><trkpt lat="43.8337588" lon="12.8557916"><ele>72.0</ele><time>2026-03-22T12:06:23.693Z</time></trkpt><trkpt lat="43.833711" lon="12.8557223"><ele>72.0</ele><time>2026-03-22T12:06:44.699Z</time></trkpt><trkpt lat="43.8337907" lon="12.8557877"><ele>72.0</ele><time>2026-03-22T12:07:01.693Z</time></trkpt><trkpt lat="43.8338411" lon="12.8556886"><ele>72.0</ele><time>2026-03-22T12:08:34.706Z</time></trkpt><trkpt lat="43.8338868" lon="12.8556159"><ele>72.0</ele><time>2026-03-22T12:08:37.693Z</time></trkpt><trkpt lat="43.833823" lon="12.8555103"><ele>72.0</ele><time>2026-03-22T12:08:43.698Z</time></trkpt><trkpt lat="43.8338102" lon="12.8553641"><ele>72.0</ele><time>2026-03-22T12:08:44.701Z</time></trkpt><trkpt lat="43.8337426" lon="12.8553542"><ele>72.0</ele><time>2026-03-22T12:08:52.708Z</time></trkpt><trkpt lat="43.8337631" lon="12.8554387"><ele>72.0</ele><time>2026-03-22T12:08:53.725Z</time></trkpt><trkpt lat="43.8337837" lon="12.8555293"><ele>72.0</ele><time>2026-03-22T12:08:55.78Z</time></trkpt><trkpt lat="43.8337977" lon="12.8556155"><ele>72.0</ele><time>2026-03-22T12:08:58.722Z</time></trkpt><trkpt lat="43.8337428" lon="12.8556886"><ele>72.0</ele><time>2026-03-22T12:09:02.685Z</time></trkpt><trkpt lat="43.8338692" lon="12.8556181"><ele>72.0</ele><time>2026-03-22T12:09:05.684Z</time></trkpt><trkpt lat="43.8339809" lon="12.855583"><ele>72.00000000000001</ele><time>2026-03-22T12:09:06.695Z</time></trkpt><trkpt lat="43.8340577" lon="12.8555806"><ele>72.0</ele><time>2026-03-22T12:09:08.678Z</time></trkpt><trkpt lat="43.8339879" lon="12.8556015"><ele>72.0</ele><time>2026-03-22T12:09:22.691Z</time></trkpt><trkpt lat="43.8339172" lon="12.8556275"><ele>72.0</ele><time>2026-03-22T12:09:25.699Z</time></trkpt><trkpt lat="43.8338475" lon="12.8556521"><ele>72.0</ele><time>2026-03-22T12:09:26.699Z</time></trkpt><trkpt lat="43.8337689" lon="12.855689"><ele>72.00000000000001</ele><time>2026-03-22T12:09:29.708Z</time></trkpt><trkpt lat="43.8337154" lon="12.8557406"><ele>72.0</ele><time>2026-03-22T12:09:34.7Z</time></trkpt><trkpt lat="43.8336652" lon="12.8558008"><ele>72.0</ele><time>2026-03-22T12:09:58.745Z</time></trkpt><trkpt lat="43.8336632" lon="12.855709"><ele>72.0</ele><time>2026-03-22T12:09:59.649Z</time></trkpt><trkpt lat="43.8336589" lon="12.8556165"><ele>72.0</ele><time>2026-03-22T12:10:00.666Z</time></trkpt></trkseg></trk></gpx>